<?xml version="1.0" encoding="UTF-8" standalone="no" ?>
<gpx xmlns="http://www.topografix.com/GPX/1/1" xmlns:xsi="http://www.w3.org/2001/XMLSchema-instance" xsi:schemaLocation="http://www.topografix.com/GPX/1/1 http://www.topografix.com/GPX/1/1/gpx.xsd" version="1.1" creator="VisuGPX - https://www.visugpx.com">
  <metadata>
    <name>RoadTrip Moto Ecosse Juin 2021 - V3</name>
  </metadata>
  <trk>
    <name><![CDATA[J4-Iona-Fionnphort-Tobermory-Kilchoan-Portree]]></name>
    <extensions>
      <line xmlns="http://www.topografix.com/GPX/gpx_style/0/2">
        <color>FFFF00</color>
        <width>4</width>
      </line>
    </extensions>
    <trkseg>
      <trkpt lat="56.32551" lon="-6.36492">
        <ele>8.34</ele>
        <time>2021-04-06T09:10:50Z</time>
      </trkpt>
      <trkpt lat="56.32551" lon="-6.36509">
        <ele>8.21</ele>
        <time>2021-04-06T09:10:53Z</time>
      </trkpt>
      <trkpt lat="56.32532" lon="-6.36565">
        <ele>9.06</ele>
        <time>2021-04-06T09:10:55Z</time>
      </trkpt>
      <trkpt lat="56.32517" lon="-6.36588">
        <ele>10.15</ele>
        <time>2021-04-06T09:10:57Z</time>
      </trkpt>
      <trkpt lat="56.3251" lon="-6.36592">
        <ele>10.91</ele>
        <time>2021-04-06T09:11:00Z</time>
      </trkpt>
      <trkpt lat="56.32495" lon="-6.36501">
        <ele>15.3</ele>
        <time>2021-04-06T09:11:04Z</time>
      </trkpt>
      <trkpt lat="56.32489" lon="-6.36435">
        <ele>16.15</ele>
        <time>2021-04-06T09:11:08Z</time>
      </trkpt>
      <trkpt lat="56.32478" lon="-6.36263">
        <ele>16.16</ele>
        <time>2021-04-06T09:11:12Z</time>
      </trkpt>
      <trkpt lat="56.32474" lon="-6.36223">
        <ele>15.89</ele>
        <time>2021-04-06T09:11:15Z</time>
      </trkpt>
      <trkpt lat="56.32457" lon="-6.3614">
        <ele>16.08</ele>
        <time>2021-04-06T09:11:19Z</time>
      </trkpt>
      <trkpt lat="56.32417" lon="-6.35977">
        <ele>15</ele>
        <time>2021-04-06T09:11:23Z</time>
      </trkpt>
      <trkpt lat="56.32406" lon="-6.35927">
        <ele>15</ele>
        <time>2021-04-06T09:11:27Z</time>
      </trkpt>
      <trkpt lat="56.32398" lon="-6.35883">
        <ele>15</ele>
        <time>2021-04-06T09:11:31Z</time>
      </trkpt>
      <trkpt lat="56.32386" lon="-6.35779">
        <ele>14.94</ele>
        <time>2021-04-06T09:11:35Z</time>
      </trkpt>
      <trkpt lat="56.3238" lon="-6.35694">
        <ele>15.69</ele>
        <time>2021-04-06T09:11:39Z</time>
      </trkpt>
      <trkpt lat="56.32389" lon="-6.35554">
        <ele>17</ele>
        <time>2021-04-06T09:11:43Z</time>
      </trkpt>
      <trkpt lat="56.32395" lon="-6.35497">
        <ele>18</ele>
        <time>2021-04-06T09:11:47Z</time>
      </trkpt>
      <trkpt lat="56.32406" lon="-6.35427">
        <ele>17.61</ele>
        <time>2021-04-06T09:11:51Z</time>
      </trkpt>
      <trkpt lat="56.32472" lon="-6.35078">
        <ele>16.19</ele>
        <time>2021-04-06T09:11:55Z</time>
      </trkpt>
      <trkpt lat="56.32483" lon="-6.35012">
        <ele>16.44</ele>
        <time>2021-04-06T09:11:58Z</time>
      </trkpt>
      <trkpt lat="56.32502" lon="-6.34863">
        <ele>14.06</ele>
        <time>2021-04-06T09:12:02Z</time>
      </trkpt>
      <trkpt lat="56.3251" lon="-6.34778">
        <ele>14.37</ele>
        <time>2021-04-06T09:12:06Z</time>
      </trkpt>
      <trkpt lat="56.32513" lon="-6.34732">
        <ele>14.16</ele>
        <time>2021-04-06T09:12:10Z</time>
      </trkpt>
      <trkpt lat="56.32513" lon="-6.34699">
        <ele>14</ele>
        <time>2021-04-06T09:12:14Z</time>
      </trkpt>
      <trkpt lat="56.32506" lon="-6.34503">
        <ele>13.11</ele>
        <time>2021-04-06T09:12:18Z</time>
      </trkpt>
      <trkpt lat="56.32504" lon="-6.34438">
        <ele>14.16</ele>
        <time>2021-04-06T09:12:22Z</time>
      </trkpt>
      <trkpt lat="56.32509" lon="-6.33931">
        <ele>14.31</ele>
        <time>2021-04-06T09:12:26Z</time>
      </trkpt>
      <trkpt lat="56.32508" lon="-6.33843">
        <ele>16.22</ele>
        <time>2021-04-06T09:12:30Z</time>
      </trkpt>
      <trkpt lat="56.32484" lon="-6.33556">
        <ele>19.41</ele>
        <time>2021-04-06T09:12:34Z</time>
      </trkpt>
      <trkpt lat="56.32472" lon="-6.33337">
        <ele>20.14</ele>
        <time>2021-04-06T09:12:38Z</time>
      </trkpt>
      <trkpt lat="56.32465" lon="-6.33263">
        <ele>21</ele>
        <time>2021-04-06T09:12:41Z</time>
      </trkpt>
      <trkpt lat="56.32422" lon="-6.32927">
        <ele>21.8</ele>
        <time>2021-04-06T09:12:45Z</time>
      </trkpt>
      <trkpt lat="56.32406" lon="-6.32777">
        <ele>18.39</ele>
        <time>2021-04-06T09:12:49Z</time>
      </trkpt>
      <trkpt lat="56.32404" lon="-6.32734">
        <ele>18.44</ele>
        <time>2021-04-06T09:12:53Z</time>
      </trkpt>
      <trkpt lat="56.32409" lon="-6.32691">
        <ele>18.37</ele>
        <time>2021-04-06T09:12:57Z</time>
      </trkpt>
      <trkpt lat="56.32415" lon="-6.32651">
        <ele>19</ele>
        <time>2021-04-06T09:13:01Z</time>
      </trkpt>
      <trkpt lat="56.32457" lon="-6.32492">
        <ele>24.23</ele>
        <time>2021-04-06T09:13:05Z</time>
      </trkpt>
      <trkpt lat="56.32475" lon="-6.32416">
        <ele>26.03</ele>
        <time>2021-04-06T09:13:09Z</time>
      </trkpt>
      <trkpt lat="56.3248" lon="-6.3233">
        <ele>26.46</ele>
        <time>2021-04-06T09:13:13Z</time>
      </trkpt>
      <trkpt lat="56.32457" lon="-6.3098">
        <ele>18.1</ele>
        <time>2021-04-06T09:13:17Z</time>
      </trkpt>
      <trkpt lat="56.32478" lon="-6.30613">
        <ele>13.72</ele>
        <time>2021-04-06T09:13:21Z</time>
      </trkpt>
      <trkpt lat="56.32481" lon="-6.30523">
        <ele>13.67</ele>
        <time>2021-04-06T09:13:24Z</time>
      </trkpt>
      <trkpt lat="56.32479" lon="-6.30433">
        <ele>12.77</ele>
        <time>2021-04-06T09:13:28Z</time>
      </trkpt>
      <trkpt lat="56.32471" lon="-6.30341">
        <ele>13.82</ele>
        <time>2021-04-06T09:13:32Z</time>
      </trkpt>
      <trkpt lat="56.32422" lon="-6.29906">
        <ele>12.07</ele>
        <time>2021-04-06T09:13:36Z</time>
      </trkpt>
      <trkpt lat="56.32391" lon="-6.29648">
        <ele>14.64</ele>
        <time>2021-04-06T09:13:40Z</time>
      </trkpt>
      <trkpt lat="56.3237" lon="-6.29546">
        <ele>17</ele>
        <time>2021-04-06T09:13:44Z</time>
      </trkpt>
      <trkpt lat="56.32337" lon="-6.2942">
        <ele>19.65</ele>
        <time>2021-04-06T09:13:48Z</time>
      </trkpt>
      <trkpt lat="56.32247" lon="-6.29107">
        <ele>19.27</ele>
        <time>2021-04-06T09:13:52Z</time>
      </trkpt>
      <trkpt lat="56.3219" lon="-6.28952">
        <ele>18.23</ele>
        <time>2021-04-06T09:13:56Z</time>
      </trkpt>
      <trkpt lat="56.321" lon="-6.28732">
        <ele>18.52</ele>
        <time>2021-04-06T09:14:00Z</time>
      </trkpt>
      <trkpt lat="56.32072" lon="-6.28648">
        <ele>17.85</ele>
        <time>2021-04-06T09:14:04Z</time>
      </trkpt>
      <trkpt lat="56.32055" lon="-6.28568">
        <ele>18.52</ele>
        <time>2021-04-06T09:14:07Z</time>
      </trkpt>
      <trkpt lat="56.32028" lon="-6.2841">
        <ele>22.27</ele>
        <time>2021-04-06T09:14:11Z</time>
      </trkpt>
      <trkpt lat="56.32007" lon="-6.28313">
        <ele>24.81</ele>
        <time>2021-04-06T09:14:15Z</time>
      </trkpt>
      <trkpt lat="56.31954" lon="-6.28104">
        <ele>25</ele>
        <time>2021-04-06T09:14:19Z</time>
      </trkpt>
      <trkpt lat="56.31941" lon="-6.28043">
        <ele>24.62</ele>
        <time>2021-04-06T09:14:23Z</time>
      </trkpt>
      <trkpt lat="56.31928" lon="-6.27963">
        <ele>23.25</ele>
        <time>2021-04-06T09:14:27Z</time>
      </trkpt>
      <trkpt lat="56.31856" lon="-6.27596">
        <ele>25</ele>
        <time>2021-04-06T09:14:31Z</time>
      </trkpt>
      <trkpt lat="56.31835" lon="-6.27509">
        <ele>25.92</ele>
        <time>2021-04-06T09:14:35Z</time>
      </trkpt>
      <trkpt lat="56.31812" lon="-6.27441">
        <ele>24.75</ele>
        <time>2021-04-06T09:14:39Z</time>
      </trkpt>
      <trkpt lat="56.31736" lon="-6.27181">
        <ele>15.29</ele>
        <time>2021-04-06T09:14:43Z</time>
      </trkpt>
      <trkpt lat="56.3172" lon="-6.27102">
        <ele>10.92</ele>
        <time>2021-04-06T09:14:47Z</time>
      </trkpt>
      <trkpt lat="56.31708" lon="-6.27008">
        <ele>9.13</ele>
        <time>2021-04-06T09:14:51Z</time>
      </trkpt>
      <trkpt lat="56.31705" lon="-6.26909">
        <ele>10.88</ele>
        <time>2021-04-06T09:14:54Z</time>
      </trkpt>
      <trkpt lat="56.31732" lon="-6.26425">
        <ele>15.27</ele>
        <time>2021-04-06T09:14:58Z</time>
      </trkpt>
      <trkpt lat="56.31734" lon="-6.26354">
        <ele>14.31</ele>
        <time>2021-04-06T09:15:02Z</time>
      </trkpt>
      <trkpt lat="56.3171" lon="-6.26192">
        <ele>18.89</ele>
        <time>2021-04-06T09:15:06Z</time>
      </trkpt>
      <trkpt lat="56.31652" lon="-6.25882">
        <ele>34.76</ele>
        <time>2021-04-06T09:15:10Z</time>
      </trkpt>
      <trkpt lat="56.31629" lon="-6.25792">
        <ele>37.66</ele>
        <time>2021-04-06T09:15:14Z</time>
      </trkpt>
      <trkpt lat="56.31605" lon="-6.25716">
        <ele>39.6</ele>
        <time>2021-04-06T09:15:18Z</time>
      </trkpt>
      <trkpt lat="56.31582" lon="-6.25659">
        <ele>42.12</ele>
        <time>2021-04-06T09:15:22Z</time>
      </trkpt>
      <trkpt lat="56.31551" lon="-6.25618">
        <ele>43.41</ele>
        <time>2021-04-06T09:15:26Z</time>
      </trkpt>
      <trkpt lat="56.31506" lon="-6.25576">
        <ele>43.5</ele>
        <time>2021-04-06T09:15:30Z</time>
      </trkpt>
      <trkpt lat="56.31471" lon="-6.25538">
        <ele>43.36</ele>
        <time>2021-04-06T09:15:34Z</time>
      </trkpt>
      <trkpt lat="56.31434" lon="-6.25482">
        <ele>39.56</ele>
        <time>2021-04-06T09:15:37Z</time>
      </trkpt>
      <trkpt lat="56.31412" lon="-6.25432">
        <ele>36.07</ele>
        <time>2021-04-06T09:15:41Z</time>
      </trkpt>
      <trkpt lat="56.31389" lon="-6.25314">
        <ele>33.01</ele>
        <time>2021-04-06T09:15:45Z</time>
      </trkpt>
      <trkpt lat="56.31385" lon="-6.25274">
        <ele>33</ele>
        <time>2021-04-06T09:15:49Z</time>
      </trkpt>
      <trkpt lat="56.31392" lon="-6.25214">
        <ele>33.1</ele>
        <time>2021-04-06T09:15:53Z</time>
      </trkpt>
      <trkpt lat="56.31406" lon="-6.25175">
        <ele>32.91</ele>
        <time>2021-04-06T09:15:57Z</time>
      </trkpt>
      <trkpt lat="56.31418" lon="-6.25158">
        <ele>32.81</ele>
        <time>2021-04-06T09:16:01Z</time>
      </trkpt>
      <trkpt lat="56.31448" lon="-6.25126">
        <ele>33.21</ele>
        <time>2021-04-06T09:16:05Z</time>
      </trkpt>
      <trkpt lat="56.31522" lon="-6.25067">
        <ele>30.78</ele>
        <time>2021-04-06T09:16:09Z</time>
      </trkpt>
      <trkpt lat="56.31597" lon="-6.25">
        <ele>28</ele>
        <time>2021-04-06T09:16:13Z</time>
      </trkpt>
      <trkpt lat="56.31631" lon="-6.2496">
        <ele>25.42</ele>
        <time>2021-04-06T09:16:17Z</time>
      </trkpt>
      <trkpt lat="56.31647" lon="-6.24927">
        <ele>24.42</ele>
        <time>2021-04-06T09:16:20Z</time>
      </trkpt>
      <trkpt lat="56.3166" lon="-6.24908">
        <ele>24.6</ele>
        <time>2021-04-06T09:16:24Z</time>
      </trkpt>
      <trkpt lat="56.31673" lon="-6.24892">
        <ele>23.9</ele>
        <time>2021-04-06T09:16:28Z</time>
      </trkpt>
      <trkpt lat="56.31702" lon="-6.24866">
        <ele>22.49</ele>
        <time>2021-04-06T09:16:32Z</time>
      </trkpt>
      <trkpt lat="56.31719" lon="-6.24861">
        <ele>21.23</ele>
        <time>2021-04-06T09:16:36Z</time>
      </trkpt>
      <trkpt lat="56.31774" lon="-6.24864">
        <ele>13.68</ele>
        <time>2021-04-06T09:16:40Z</time>
      </trkpt>
      <trkpt lat="56.31791" lon="-6.24856">
        <ele>11.25</ele>
        <time>2021-04-06T09:16:44Z</time>
      </trkpt>
      <trkpt lat="56.31807" lon="-6.24839">
        <ele>8.35</ele>
        <time>2021-04-06T09:16:48Z</time>
      </trkpt>
      <trkpt lat="56.31832" lon="-6.248">
        <ele>5.9</ele>
        <time>2021-04-06T09:16:52Z</time>
      </trkpt>
      <trkpt lat="56.31841" lon="-6.24776">
        <ele>4.21</ele>
        <time>2021-04-06T09:16:56Z</time>
      </trkpt>
      <trkpt lat="56.31848" lon="-6.24746">
        <ele>3.93</ele>
        <time>2021-04-06T09:17:00Z</time>
      </trkpt>
      <trkpt lat="56.31858" lon="-6.2468">
        <ele>3.38</ele>
        <time>2021-04-06T09:17:03Z</time>
      </trkpt>
      <trkpt lat="56.3187" lon="-6.24621">
        <ele>11.15</ele>
        <time>2021-04-06T09:17:07Z</time>
      </trkpt>
      <trkpt lat="56.31886" lon="-6.24573">
        <ele>16.27</ele>
        <time>2021-04-06T09:17:11Z</time>
      </trkpt>
      <trkpt lat="56.31896" lon="-6.2455">
        <ele>14.47</ele>
        <time>2021-04-06T09:17:15Z</time>
      </trkpt>
      <trkpt lat="56.31896" lon="-6.2455">
        <ele>14.47</ele>
        <time>2021-04-06T09:17:15Z</time>
      </trkpt>
      <trkpt lat="56.31903" lon="-6.24534">
        <ele>12.67</ele>
        <time>2021-04-06T09:17:17Z</time>
      </trkpt>
      <trkpt lat="56.31907" lon="-6.24516">
        <ele>11.52</ele>
        <time>2021-04-06T09:17:20Z</time>
      </trkpt>
      <trkpt lat="56.31907" lon="-6.24446">
        <ele>10.72</ele>
        <time>2021-04-06T09:17:22Z</time>
      </trkpt>
      <trkpt lat="56.319" lon="-6.24391">
        <ele>12.06</ele>
        <time>2021-04-06T09:17:24Z</time>
      </trkpt>
      <trkpt lat="56.31884" lon="-6.24335">
        <ele>13.86</ele>
        <time>2021-04-06T09:17:26Z</time>
      </trkpt>
      <trkpt lat="56.31841" lon="-6.24219">
        <ele>10.89</ele>
        <time>2021-04-06T09:17:28Z</time>
      </trkpt>
      <trkpt lat="56.31785" lon="-6.24079">
        <ele>8.65</ele>
        <time>2021-04-06T09:17:30Z</time>
      </trkpt>
      <trkpt lat="56.31754" lon="-6.24024">
        <ele>10.58</ele>
        <time>2021-04-06T09:17:32Z</time>
      </trkpt>
      <trkpt lat="56.31589" lon="-6.2378">
        <ele>7.61</ele>
        <time>2021-04-06T09:17:35Z</time>
      </trkpt>
      <trkpt lat="56.31576" lon="-6.23755">
        <ele>7.12</ele>
        <time>2021-04-06T09:17:37Z</time>
      </trkpt>
      <trkpt lat="56.31565" lon="-6.23719">
        <ele>5.51</ele>
        <time>2021-04-06T09:17:39Z</time>
      </trkpt>
      <trkpt lat="56.31563" lon="-6.23686">
        <ele>4.65</ele>
        <time>2021-04-06T09:17:41Z</time>
      </trkpt>
      <trkpt lat="56.31565" lon="-6.2365">
        <ele>3.58</ele>
        <time>2021-04-06T09:17:43Z</time>
      </trkpt>
      <trkpt lat="56.31604" lon="-6.23501">
        <ele>3.03</ele>
        <time>2021-04-06T09:17:45Z</time>
      </trkpt>
      <trkpt lat="56.31616" lon="-6.23448">
        <ele>3.66</ele>
        <time>2021-04-06T09:17:48Z</time>
      </trkpt>
      <trkpt lat="56.31628" lon="-6.23414">
        <ele>3.89</ele>
        <time>2021-04-06T09:17:50Z</time>
      </trkpt>
      <trkpt lat="56.31646" lon="-6.23391">
        <ele>3.78</ele>
        <time>2021-04-06T09:17:52Z</time>
      </trkpt>
      <trkpt lat="56.31657" lon="-6.23389">
        <ele>3.38</ele>
        <time>2021-04-06T09:17:54Z</time>
      </trkpt>
      <trkpt lat="56.31698" lon="-6.23394">
        <ele>2.51</ele>
        <time>2021-04-06T09:17:56Z</time>
      </trkpt>
      <trkpt lat="56.3171" lon="-6.23385">
        <ele>1.52</ele>
        <time>2021-04-06T09:17:58Z</time>
      </trkpt>
      <trkpt lat="56.31719" lon="-6.23355">
        <ele>1.52</ele>
        <time>2021-04-06T09:18:00Z</time>
      </trkpt>
      <trkpt lat="56.3172" lon="-6.23303">
        <ele>2.57</ele>
        <time>2021-04-06T09:18:03Z</time>
      </trkpt>
      <trkpt lat="56.31714" lon="-6.23225">
        <ele>5.15</ele>
        <time>2021-04-06T09:18:05Z</time>
      </trkpt>
      <trkpt lat="56.31705" lon="-6.23172">
        <ele>5.95</ele>
        <time>2021-04-06T09:18:07Z</time>
      </trkpt>
      <trkpt lat="56.31684" lon="-6.23107">
        <ele>6.7</ele>
        <time>2021-04-06T09:18:09Z</time>
      </trkpt>
      <trkpt lat="56.31659" lon="-6.23048">
        <ele>6.77</ele>
        <time>2021-04-06T09:18:11Z</time>
      </trkpt>
      <trkpt lat="56.31632" lon="-6.2297">
        <ele>8.54</ele>
        <time>2021-04-06T09:18:13Z</time>
      </trkpt>
      <trkpt lat="56.3159" lon="-6.22806">
        <ele>12.47</ele>
        <time>2021-04-06T09:18:15Z</time>
      </trkpt>
      <trkpt lat="56.31578" lon="-6.22755">
        <ele>14.27</ele>
        <time>2021-04-06T09:18:18Z</time>
      </trkpt>
      <trkpt lat="56.31569" lon="-6.22704">
        <ele>15.15</ele>
        <time>2021-04-06T09:18:20Z</time>
      </trkpt>
      <trkpt lat="56.31564" lon="-6.22655">
        <ele>16.15</ele>
        <time>2021-04-06T09:18:22Z</time>
      </trkpt>
      <trkpt lat="56.31561" lon="-6.22609">
        <ele>16.71</ele>
        <time>2021-04-06T09:18:24Z</time>
      </trkpt>
      <trkpt lat="56.31569" lon="-6.22495">
        <ele>19.4</ele>
        <time>2021-04-06T09:18:26Z</time>
      </trkpt>
      <trkpt lat="56.31575" lon="-6.22452">
        <ele>20.12</ele>
        <time>2021-04-06T09:18:28Z</time>
      </trkpt>
      <trkpt lat="56.31575" lon="-6.22452">
        <ele>20.12</ele>
        <time>2021-04-06T09:18:28Z</time>
      </trkpt>
      <trkpt lat="56.3159" lon="-6.22394">
        <ele>22.29</ele>
        <time>2021-04-06T09:18:32Z</time>
      </trkpt>
      <trkpt lat="56.31627" lon="-6.22307">
        <ele>23.56</ele>
        <time>2021-04-06T09:18:35Z</time>
      </trkpt>
      <trkpt lat="56.3166" lon="-6.22241">
        <ele>23</ele>
        <time>2021-04-06T09:18:38Z</time>
      </trkpt>
      <trkpt lat="56.31694" lon="-6.22179">
        <ele>22.44</ele>
        <time>2021-04-06T09:18:41Z</time>
      </trkpt>
      <trkpt lat="56.3173" lon="-6.22126">
        <ele>23.13</ele>
        <time>2021-04-06T09:18:44Z</time>
      </trkpt>
      <trkpt lat="56.31961" lon="-6.21826">
        <ele>26.42</ele>
        <time>2021-04-06T09:18:48Z</time>
      </trkpt>
      <trkpt lat="56.32099" lon="-6.21641">
        <ele>21.39</ele>
        <time>2021-04-06T09:18:51Z</time>
      </trkpt>
      <trkpt lat="56.32136" lon="-6.21577">
        <ele>23.56</ele>
        <time>2021-04-06T09:18:54Z</time>
      </trkpt>
      <trkpt lat="56.32163" lon="-6.21507">
        <ele>26.54</ele>
        <time>2021-04-06T09:18:57Z</time>
      </trkpt>
      <trkpt lat="56.32179" lon="-6.21451">
        <ele>28.33</ele>
        <time>2021-04-06T09:19:00Z</time>
      </trkpt>
      <trkpt lat="56.32259" lon="-6.2112">
        <ele>30.37</ele>
        <time>2021-04-06T09:19:04Z</time>
      </trkpt>
      <trkpt lat="56.32284" lon="-6.21033">
        <ele>26.77</ele>
        <time>2021-04-06T09:19:07Z</time>
      </trkpt>
      <trkpt lat="56.32353" lon="-6.20873">
        <ele>26.48</ele>
        <time>2021-04-06T09:19:10Z</time>
      </trkpt>
      <trkpt lat="56.32431" lon="-6.20695">
        <ele>25.94</ele>
        <time>2021-04-06T09:19:13Z</time>
      </trkpt>
      <trkpt lat="56.32643" lon="-6.20321">
        <ele>30.82</ele>
        <time>2021-04-06T09:19:17Z</time>
      </trkpt>
      <trkpt lat="56.32714" lon="-6.20185">
        <ele>35.63</ele>
        <time>2021-04-06T09:19:20Z</time>
      </trkpt>
      <trkpt lat="56.32754" lon="-6.20085">
        <ele>37.33</ele>
        <time>2021-04-06T09:19:23Z</time>
      </trkpt>
      <trkpt lat="56.32804" lon="-6.19983">
        <ele>34.16</ele>
        <time>2021-04-06T09:19:26Z</time>
      </trkpt>
      <trkpt lat="56.32829" lon="-6.19948">
        <ele>33.9</ele>
        <time>2021-04-06T09:19:29Z</time>
      </trkpt>
      <trkpt lat="56.32975" lon="-6.19673">
        <ele>44.33</ele>
        <time>2021-04-06T09:19:33Z</time>
      </trkpt>
      <trkpt lat="56.32991" lon="-6.19629">
        <ele>44.5</ele>
        <time>2021-04-06T09:19:36Z</time>
      </trkpt>
      <trkpt lat="56.33006" lon="-6.19575">
        <ele>43.26</ele>
        <time>2021-04-06T09:19:39Z</time>
      </trkpt>
      <trkpt lat="56.33083" lon="-6.19168">
        <ele>40.12</ele>
        <time>2021-04-06T09:19:42Z</time>
      </trkpt>
      <trkpt lat="56.33087" lon="-6.19109">
        <ele>38.12</ele>
        <time>2021-04-06T09:19:45Z</time>
      </trkpt>
      <trkpt lat="56.33088" lon="-6.19045">
        <ele>36.37</ele>
        <time>2021-04-06T09:19:49Z</time>
      </trkpt>
      <trkpt lat="56.33066" lon="-6.18849">
        <ele>33.49</ele>
        <time>2021-04-06T09:19:52Z</time>
      </trkpt>
      <trkpt lat="56.33071" lon="-6.1874">
        <ele>31.15</ele>
        <time>2021-04-06T09:19:55Z</time>
      </trkpt>
      <trkpt lat="56.33144" lon="-6.18272">
        <ele>32.44</ele>
        <time>2021-04-06T09:19:58Z</time>
      </trkpt>
      <trkpt lat="56.33295" lon="-6.17557">
        <ele>16.13</ele>
        <time>2021-04-06T09:20:01Z</time>
      </trkpt>
      <trkpt lat="56.33363" lon="-6.17264">
        <ele>13.29</ele>
        <time>2021-04-06T09:20:05Z</time>
      </trkpt>
      <trkpt lat="56.33395" lon="-6.17112">
        <ele>15.92</ele>
        <time>2021-04-06T09:20:08Z</time>
      </trkpt>
      <trkpt lat="56.3343" lon="-6.16969">
        <ele>16.18</ele>
        <time>2021-04-06T09:20:11Z</time>
      </trkpt>
      <trkpt lat="56.33442" lon="-6.16851">
        <ele>19.76</ele>
        <time>2021-04-06T09:20:14Z</time>
      </trkpt>
      <trkpt lat="56.33453" lon="-6.16803">
        <ele>21.32</ele>
        <time>2021-04-06T09:20:18Z</time>
      </trkpt>
      <trkpt lat="56.33466" lon="-6.16755">
        <ele>22.92</ele>
        <time>2021-04-06T09:20:21Z</time>
      </trkpt>
      <trkpt lat="56.33482" lon="-6.16709">
        <ele>24.89</ele>
        <time>2021-04-06T09:20:24Z</time>
      </trkpt>
      <trkpt lat="56.33603" lon="-6.16419">
        <ele>29.52</ele>
        <time>2021-04-06T09:20:27Z</time>
      </trkpt>
      <trkpt lat="56.33611" lon="-6.16383">
        <ele>30.02</ele>
        <time>2021-04-06T09:20:30Z</time>
      </trkpt>
      <trkpt lat="56.33615" lon="-6.16329">
        <ele>30.33</ele>
        <time>2021-04-06T09:20:34Z</time>
      </trkpt>
      <trkpt lat="56.33622" lon="-6.16271">
        <ele>30.63</ele>
        <time>2021-04-06T09:20:37Z</time>
      </trkpt>
      <trkpt lat="56.33638" lon="-6.16007">
        <ele>28.26</ele>
        <time>2021-04-06T09:20:40Z</time>
      </trkpt>
      <trkpt lat="56.33638" lon="-6.15942">
        <ele>28.46</ele>
        <time>2021-04-06T09:20:43Z</time>
      </trkpt>
      <trkpt lat="56.33633" lon="-6.1589">
        <ele>30.83</ele>
        <time>2021-04-06T09:20:46Z</time>
      </trkpt>
      <trkpt lat="56.33632" lon="-6.15843">
        <ele>31.53</ele>
        <time>2021-04-06T09:20:50Z</time>
      </trkpt>
      <trkpt lat="56.33631" lon="-6.15794">
        <ele>32.03</ele>
        <time>2021-04-06T09:20:53Z</time>
      </trkpt>
      <trkpt lat="56.33633" lon="-6.15746">
        <ele>31.28</ele>
        <time>2021-04-06T09:20:56Z</time>
      </trkpt>
      <trkpt lat="56.33642" lon="-6.15654">
        <ele>28.88</ele>
        <time>2021-04-06T09:20:59Z</time>
      </trkpt>
      <trkpt lat="56.33654" lon="-6.15566">
        <ele>28.45</ele>
        <time>2021-04-06T09:21:02Z</time>
      </trkpt>
      <trkpt lat="56.33656" lon="-6.15529">
        <ele>28.64</ele>
        <time>2021-04-06T09:21:06Z</time>
      </trkpt>
      <trkpt lat="56.33649" lon="-6.15393">
        <ele>31.5</ele>
        <time>2021-04-06T09:21:09Z</time>
      </trkpt>
      <trkpt lat="56.33625" lon="-6.15134">
        <ele>31.2</ele>
        <time>2021-04-06T09:21:12Z</time>
      </trkpt>
      <trkpt lat="56.33622" lon="-6.15084">
        <ele>29.71</ele>
        <time>2021-04-06T09:21:15Z</time>
      </trkpt>
      <trkpt lat="56.33622" lon="-6.1504">
        <ele>28.62</ele>
        <time>2021-04-06T09:21:19Z</time>
      </trkpt>
      <trkpt lat="56.33626" lon="-6.14998">
        <ele>28.68</ele>
        <time>2021-04-06T09:21:22Z</time>
      </trkpt>
      <trkpt lat="56.3366" lon="-6.14784">
        <ele>28.48</ele>
        <time>2021-04-06T09:21:25Z</time>
      </trkpt>
      <trkpt lat="56.33668" lon="-6.14713">
        <ele>27.57</ele>
        <time>2021-04-06T09:21:28Z</time>
      </trkpt>
      <trkpt lat="56.33668" lon="-6.14673">
        <ele>26.78</ele>
        <time>2021-04-06T09:21:31Z</time>
      </trkpt>
      <trkpt lat="56.33663" lon="-6.14624">
        <ele>27.26</ele>
        <time>2021-04-06T09:21:35Z</time>
      </trkpt>
      <trkpt lat="56.33657" lon="-6.14595">
        <ele>27.19</ele>
        <time>2021-04-06T09:21:38Z</time>
      </trkpt>
      <trkpt lat="56.33607" lon="-6.14449">
        <ele>27.13</ele>
        <time>2021-04-06T09:21:41Z</time>
      </trkpt>
      <trkpt lat="56.33592" lon="-6.14399">
        <ele>27.13</ele>
        <time>2021-04-06T09:21:44Z</time>
      </trkpt>
      <trkpt lat="56.33587" lon="-6.14353">
        <ele>26.89</ele>
        <time>2021-04-06T09:21:47Z</time>
      </trkpt>
      <trkpt lat="56.33586" lon="-6.14309">
        <ele>26.32</ele>
        <time>2021-04-06T09:21:51Z</time>
      </trkpt>
      <trkpt lat="56.33589" lon="-6.14263">
        <ele>26.34</ele>
        <time>2021-04-06T09:21:54Z</time>
      </trkpt>
      <trkpt lat="56.33596" lon="-6.14219">
        <ele>26.73</ele>
        <time>2021-04-06T09:21:57Z</time>
      </trkpt>
      <trkpt lat="56.33629" lon="-6.14088">
        <ele>20.81</ele>
        <time>2021-04-06T09:22:00Z</time>
      </trkpt>
      <trkpt lat="56.33642" lon="-6.14045">
        <ele>18.96</ele>
        <time>2021-04-06T09:22:03Z</time>
      </trkpt>
      <trkpt lat="56.33657" lon="-6.14014">
        <ele>18.27</ele>
        <time>2021-04-06T09:22:07Z</time>
      </trkpt>
      <trkpt lat="56.33689" lon="-6.13974">
        <ele>17.32</ele>
        <time>2021-04-06T09:22:10Z</time>
      </trkpt>
      <trkpt lat="56.33717" lon="-6.13959">
        <ele>15.45</ele>
        <time>2021-04-06T09:22:13Z</time>
      </trkpt>
      <trkpt lat="56.33746" lon="-6.13955">
        <ele>15.82</ele>
        <time>2021-04-06T09:22:16Z</time>
      </trkpt>
      <trkpt lat="56.33805" lon="-6.13954">
        <ele>16.94</ele>
        <time>2021-04-06T09:22:20Z</time>
      </trkpt>
      <trkpt lat="56.33835" lon="-6.13949">
        <ele>17.67</ele>
        <time>2021-04-06T09:22:23Z</time>
      </trkpt>
      <trkpt lat="56.33861" lon="-6.13935">
        <ele>18.35</ele>
        <time>2021-04-06T09:22:26Z</time>
      </trkpt>
      <trkpt lat="56.33883" lon="-6.13911">
        <ele>17.66</ele>
        <time>2021-04-06T09:22:29Z</time>
      </trkpt>
      <trkpt lat="56.33904" lon="-6.13875">
        <ele>17.7</ele>
        <time>2021-04-06T09:22:32Z</time>
      </trkpt>
      <trkpt lat="56.33919" lon="-6.13834">
        <ele>17.6</ele>
        <time>2021-04-06T09:22:36Z</time>
      </trkpt>
      <trkpt lat="56.33972" lon="-6.13667">
        <ele>9</ele>
        <time>2021-04-06T09:22:39Z</time>
      </trkpt>
      <trkpt lat="56.33986" lon="-6.13606">
        <ele>6.56</ele>
        <time>2021-04-06T09:22:42Z</time>
      </trkpt>
      <trkpt lat="56.33992" lon="-6.13537">
        <ele>5.89</ele>
        <time>2021-04-06T09:22:45Z</time>
      </trkpt>
      <trkpt lat="56.33989" lon="-6.13395">
        <ele>9.78</ele>
        <time>2021-04-06T09:22:48Z</time>
      </trkpt>
      <trkpt lat="56.3398" lon="-6.13157">
        <ele>18.56</ele>
        <time>2021-04-06T09:22:52Z</time>
      </trkpt>
      <trkpt lat="56.33974" lon="-6.12913">
        <ele>23.71</ele>
        <time>2021-04-06T09:22:55Z</time>
      </trkpt>
      <trkpt lat="56.33976" lon="-6.12866">
        <ele>22.6</ele>
        <time>2021-04-06T09:22:58Z</time>
      </trkpt>
      <trkpt lat="56.33984" lon="-6.12823">
        <ele>22.5</ele>
        <time>2021-04-06T09:23:01Z</time>
      </trkpt>
      <trkpt lat="56.33998" lon="-6.1278">
        <ele>23.07</ele>
        <time>2021-04-06T09:23:04Z</time>
      </trkpt>
      <trkpt lat="56.34016" lon="-6.1274">
        <ele>23.58</ele>
        <time>2021-04-06T09:23:08Z</time>
      </trkpt>
      <trkpt lat="56.3408" lon="-6.12617">
        <ele>29.81</ele>
        <time>2021-04-06T09:23:11Z</time>
      </trkpt>
      <trkpt lat="56.34146" lon="-6.12501">
        <ele>29.74</ele>
        <time>2021-04-06T09:23:14Z</time>
      </trkpt>
      <trkpt lat="56.34242" lon="-6.12349">
        <ele>28.84</ele>
        <time>2021-04-06T09:23:17Z</time>
      </trkpt>
      <trkpt lat="56.34322" lon="-6.12236">
        <ele>20.42</ele>
        <time>2021-04-06T09:23:20Z</time>
      </trkpt>
      <trkpt lat="56.3434" lon="-6.12202">
        <ele>17.82</ele>
        <time>2021-04-06T09:23:24Z</time>
      </trkpt>
      <trkpt lat="56.34358" lon="-6.12142">
        <ele>15.54</ele>
        <time>2021-04-06T09:23:27Z</time>
      </trkpt>
      <trkpt lat="56.34363" lon="-6.12117">
        <ele>13.89</ele>
        <time>2021-04-06T09:23:30Z</time>
      </trkpt>
      <trkpt lat="56.34367" lon="-6.12073">
        <ele>11.78</ele>
        <time>2021-04-06T09:23:33Z</time>
      </trkpt>
      <trkpt lat="56.34368" lon="-6.12022">
        <ele>9.9</ele>
        <time>2021-04-06T09:23:37Z</time>
      </trkpt>
      <trkpt lat="56.34359" lon="-6.11621">
        <ele>7.74</ele>
        <time>2021-04-06T09:23:40Z</time>
      </trkpt>
      <trkpt lat="56.34344" lon="-6.11488">
        <ele>8.25</ele>
        <time>2021-04-06T09:23:43Z</time>
      </trkpt>
      <trkpt lat="56.34339" lon="-6.1141">
        <ele>9.55</ele>
        <time>2021-04-06T09:23:46Z</time>
      </trkpt>
      <trkpt lat="56.34342" lon="-6.11274">
        <ele>10.02</ele>
        <time>2021-04-06T09:23:49Z</time>
      </trkpt>
      <trkpt lat="56.34351" lon="-6.11202">
        <ele>9.07</ele>
        <time>2021-04-06T09:23:53Z</time>
      </trkpt>
      <trkpt lat="56.34364" lon="-6.1113">
        <ele>8.76</ele>
        <time>2021-04-06T09:23:56Z</time>
      </trkpt>
      <trkpt lat="56.34378" lon="-6.11064">
        <ele>11.37</ele>
        <time>2021-04-06T09:23:59Z</time>
      </trkpt>
      <trkpt lat="56.3438" lon="-6.11046">
        <ele>12.65</ele>
        <time>2021-04-06T09:24:02Z</time>
      </trkpt>
      <trkpt lat="56.34382" lon="-6.11006">
        <ele>15.29</ele>
        <time>2021-04-06T09:24:05Z</time>
      </trkpt>
      <trkpt lat="56.34376" lon="-6.10931">
        <ele>14.93</ele>
        <time>2021-04-06T09:24:09Z</time>
      </trkpt>
      <trkpt lat="56.3435" lon="-6.10843">
        <ele>16.07</ele>
        <time>2021-04-06T09:24:12Z</time>
      </trkpt>
      <trkpt lat="56.34283" lon="-6.10691">
        <ele>15.89</ele>
        <time>2021-04-06T09:24:15Z</time>
      </trkpt>
      <trkpt lat="56.34217" lon="-6.10534">
        <ele>17.41</ele>
        <time>2021-04-06T09:24:18Z</time>
      </trkpt>
      <trkpt lat="56.34206" lon="-6.10491">
        <ele>16.32</ele>
        <time>2021-04-06T09:24:21Z</time>
      </trkpt>
      <trkpt lat="56.34198" lon="-6.10447">
        <ele>13.7</ele>
        <time>2021-04-06T09:24:25Z</time>
      </trkpt>
      <trkpt lat="56.34196" lon="-6.10406">
        <ele>12.33</ele>
        <time>2021-04-06T09:24:28Z</time>
      </trkpt>
      <trkpt lat="56.34199" lon="-6.10367">
        <ele>10.62</ele>
        <time>2021-04-06T09:24:31Z</time>
      </trkpt>
      <trkpt lat="56.34211" lon="-6.10317">
        <ele>7.23</ele>
        <time>2021-04-06T09:24:34Z</time>
      </trkpt>
      <trkpt lat="56.3423" lon="-6.10269">
        <ele>4.82</ele>
        <time>2021-04-06T09:24:38Z</time>
      </trkpt>
      <trkpt lat="56.3426" lon="-6.10218">
        <ele>5.81</ele>
        <time>2021-04-06T09:24:41Z</time>
      </trkpt>
      <trkpt lat="56.34463" lon="-6.0992">
        <ele>3.55</ele>
        <time>2021-04-06T09:24:44Z</time>
      </trkpt>
      <trkpt lat="56.34475" lon="-6.09897">
        <ele>3.72</ele>
        <time>2021-04-06T09:24:47Z</time>
      </trkpt>
      <trkpt lat="56.34486" lon="-6.09864">
        <ele>4.44</ele>
        <time>2021-04-06T09:24:50Z</time>
      </trkpt>
      <trkpt lat="56.34495" lon="-6.0983">
        <ele>5.19</ele>
        <time>2021-04-06T09:24:54Z</time>
      </trkpt>
      <trkpt lat="56.34501" lon="-6.09783">
        <ele>4.97</ele>
        <time>2021-04-06T09:24:57Z</time>
      </trkpt>
      <trkpt lat="56.34507" lon="-6.09687">
        <ele>3.43</ele>
        <time>2021-04-06T09:25:00Z</time>
      </trkpt>
      <trkpt lat="56.34507" lon="-6.09655">
        <ele>3.28</ele>
        <time>2021-04-06T09:25:03Z</time>
      </trkpt>
      <trkpt lat="56.34512" lon="-6.09567">
        <ele>3.66</ele>
        <time>2021-04-06T09:25:06Z</time>
      </trkpt>
      <trkpt lat="56.34518" lon="-6.09499">
        <ele>2.8</ele>
        <time>2021-04-06T09:25:10Z</time>
      </trkpt>
      <trkpt lat="56.34523" lon="-6.09464">
        <ele>2.96</ele>
        <time>2021-04-06T09:25:13Z</time>
      </trkpt>
      <trkpt lat="56.34562" lon="-6.09276">
        <ele>6.14</ele>
        <time>2021-04-06T09:25:16Z</time>
      </trkpt>
      <trkpt lat="56.34576" lon="-6.0918">
        <ele>4.72</ele>
        <time>2021-04-06T09:25:19Z</time>
      </trkpt>
      <trkpt lat="56.34594" lon="-6.0909">
        <ele>4.24</ele>
        <time>2021-04-06T09:25:22Z</time>
      </trkpt>
      <trkpt lat="56.34604" lon="-6.09049">
        <ele>4.5</ele>
        <time>2021-04-06T09:25:26Z</time>
      </trkpt>
      <trkpt lat="56.34628" lon="-6.08979">
        <ele>3.92</ele>
        <time>2021-04-06T09:25:29Z</time>
      </trkpt>
      <trkpt lat="56.34665" lon="-6.08909">
        <ele>5.66</ele>
        <time>2021-04-06T09:25:32Z</time>
      </trkpt>
      <trkpt lat="56.34693" lon="-6.08869">
        <ele>5.82</ele>
        <time>2021-04-06T09:25:35Z</time>
      </trkpt>
      <trkpt lat="56.34712" lon="-6.08853">
        <ele>5.23</ele>
        <time>2021-04-06T09:25:39Z</time>
      </trkpt>
      <trkpt lat="56.34731" lon="-6.08844">
        <ele>5.55</ele>
        <time>2021-04-06T09:25:42Z</time>
      </trkpt>
      <trkpt lat="56.34812" lon="-6.08836">
        <ele>8.52</ele>
        <time>2021-04-06T09:25:45Z</time>
      </trkpt>
      <trkpt lat="56.34841" lon="-6.08828">
        <ele>7.57</ele>
        <time>2021-04-06T09:25:48Z</time>
      </trkpt>
      <trkpt lat="56.34854" lon="-6.0882">
        <ele>6.76</ele>
        <time>2021-04-06T09:25:51Z</time>
      </trkpt>
      <trkpt lat="56.34875" lon="-6.08791">
        <ele>7.31</ele>
        <time>2021-04-06T09:25:55Z</time>
      </trkpt>
      <trkpt lat="56.34909" lon="-6.08727">
        <ele>11.36</ele>
        <time>2021-04-06T09:25:58Z</time>
      </trkpt>
      <trkpt lat="56.34928" lon="-6.08693">
        <ele>11.94</ele>
        <time>2021-04-06T09:26:01Z</time>
      </trkpt>
      <trkpt lat="56.34946" lon="-6.08673">
        <ele>12.18</ele>
        <time>2021-04-06T09:26:04Z</time>
      </trkpt>
      <trkpt lat="56.34965" lon="-6.08662">
        <ele>11.12</ele>
        <time>2021-04-06T09:26:07Z</time>
      </trkpt>
      <trkpt lat="56.35029" lon="-6.08651">
        <ele>14.61</ele>
        <time>2021-04-06T09:26:11Z</time>
      </trkpt>
      <trkpt lat="56.35044" lon="-6.08634">
        <ele>16.37</ele>
        <time>2021-04-06T09:26:14Z</time>
      </trkpt>
      <trkpt lat="56.3506" lon="-6.0861">
        <ele>18.16</ele>
        <time>2021-04-06T09:26:17Z</time>
      </trkpt>
      <trkpt lat="56.35104" lon="-6.08521">
        <ele>16.58</ele>
        <time>2021-04-06T09:26:20Z</time>
      </trkpt>
      <trkpt lat="56.35159" lon="-6.08391">
        <ele>10.53</ele>
        <time>2021-04-06T09:26:23Z</time>
      </trkpt>
      <trkpt lat="56.35241" lon="-6.0816">
        <ele>11.33</ele>
        <time>2021-04-06T09:26:27Z</time>
      </trkpt>
      <trkpt lat="56.35261" lon="-6.08084">
        <ele>13.44</ele>
        <time>2021-04-06T09:26:30Z</time>
      </trkpt>
      <trkpt lat="56.35269" lon="-6.07972">
        <ele>12.95</ele>
        <time>2021-04-06T09:26:33Z</time>
      </trkpt>
      <trkpt lat="56.35269" lon="-6.07927">
        <ele>12.56</ele>
        <time>2021-04-06T09:26:36Z</time>
      </trkpt>
      <trkpt lat="56.35272" lon="-6.07873">
        <ele>11.92</ele>
        <time>2021-04-06T09:26:40Z</time>
      </trkpt>
      <trkpt lat="56.35284" lon="-6.07772">
        <ele>11.83</ele>
        <time>2021-04-06T09:26:43Z</time>
      </trkpt>
      <trkpt lat="56.35291" lon="-6.07702">
        <ele>11.56</ele>
        <time>2021-04-06T09:26:46Z</time>
      </trkpt>
      <trkpt lat="56.3531" lon="-6.07561">
        <ele>10.12</ele>
        <time>2021-04-06T09:26:49Z</time>
      </trkpt>
      <trkpt lat="56.35315" lon="-6.07492">
        <ele>8.39</ele>
        <time>2021-04-06T09:26:52Z</time>
      </trkpt>
      <trkpt lat="56.35354" lon="-6.07453">
        <ele>6.68</ele>
        <time>2021-04-06T09:26:56Z</time>
      </trkpt>
      <trkpt lat="56.35368" lon="-6.07428">
        <ele>7.59</ele>
        <time>2021-04-06T09:26:59Z</time>
      </trkpt>
      <trkpt lat="56.35399" lon="-6.07348">
        <ele>9.82</ele>
        <time>2021-04-06T09:27:02Z</time>
      </trkpt>
      <trkpt lat="56.35421" lon="-6.0728">
        <ele>12.26</ele>
        <time>2021-04-06T09:27:05Z</time>
      </trkpt>
      <trkpt lat="56.35443" lon="-6.07203">
        <ele>15.05</ele>
        <time>2021-04-06T09:27:08Z</time>
      </trkpt>
      <trkpt lat="56.35671" lon="-6.06171">
        <ele>12.26</ele>
        <time>2021-04-06T09:27:12Z</time>
      </trkpt>
      <trkpt lat="56.35677" lon="-6.06126">
        <ele>12.03</ele>
        <time>2021-04-06T09:27:15Z</time>
      </trkpt>
      <trkpt lat="56.3568" lon="-6.06079">
        <ele>11.41</ele>
        <time>2021-04-06T09:27:18Z</time>
      </trkpt>
      <trkpt lat="56.35689" lon="-6.06013">
        <ele>8.27</ele>
        <time>2021-04-06T09:27:21Z</time>
      </trkpt>
      <trkpt lat="56.35701" lon="-6.05949">
        <ele>6.23</ele>
        <time>2021-04-06T09:27:24Z</time>
      </trkpt>
      <trkpt lat="56.35744" lon="-6.05772">
        <ele>7.92</ele>
        <time>2021-04-06T09:27:28Z</time>
      </trkpt>
      <trkpt lat="56.3578" lon="-6.05592">
        <ele>16.35</ele>
        <time>2021-04-06T09:27:31Z</time>
      </trkpt>
      <trkpt lat="56.35822" lon="-6.05437">
        <ele>14.16</ele>
        <time>2021-04-06T09:27:34Z</time>
      </trkpt>
      <trkpt lat="56.35829" lon="-6.05391">
        <ele>7.11</ele>
        <time>2021-04-06T09:27:37Z</time>
      </trkpt>
      <trkpt lat="56.3586" lon="-6.05241">
        <ele>11.35</ele>
        <time>2021-04-06T09:27:41Z</time>
      </trkpt>
      <trkpt lat="56.35926" lon="-6.05015">
        <ele>8.92</ele>
        <time>2021-04-06T09:27:44Z</time>
      </trkpt>
      <trkpt lat="56.35937" lon="-6.04973">
        <ele>5.8</ele>
        <time>2021-04-06T09:27:47Z</time>
      </trkpt>
      <trkpt lat="56.35962" lon="-6.0474">
        <ele>10.23</ele>
        <time>2021-04-06T09:27:50Z</time>
      </trkpt>
      <trkpt lat="56.35978" lon="-6.04542">
        <ele>10.99</ele>
        <time>2021-04-06T09:27:53Z</time>
      </trkpt>
      <trkpt lat="56.35988" lon="-6.04391">
        <ele>9.65</ele>
        <time>2021-04-06T09:27:57Z</time>
      </trkpt>
      <trkpt lat="56.35994" lon="-6.04357">
        <ele>8.39</ele>
        <time>2021-04-06T09:28:00Z</time>
      </trkpt>
      <trkpt lat="56.36004" lon="-6.04327">
        <ele>7.77</ele>
        <time>2021-04-06T09:28:03Z</time>
      </trkpt>
      <trkpt lat="56.36039" lon="-6.04269">
        <ele>6.11</ele>
        <time>2021-04-06T09:28:06Z</time>
      </trkpt>
      <trkpt lat="56.36119" lon="-6.04162">
        <ele>4.73</ele>
        <time>2021-04-06T09:28:09Z</time>
      </trkpt>
      <trkpt lat="56.36127" lon="-6.04145">
        <ele>4.93</ele>
        <time>2021-04-06T09:28:13Z</time>
      </trkpt>
      <trkpt lat="56.36187" lon="-6.03925">
        <ele>6.51</ele>
        <time>2021-04-06T09:28:16Z</time>
      </trkpt>
      <trkpt lat="56.36212" lon="-6.03848">
        <ele>4.88</ele>
        <time>2021-04-06T09:28:19Z</time>
      </trkpt>
      <trkpt lat="56.36227" lon="-6.03778">
        <ele>3.68</ele>
        <time>2021-04-06T09:28:22Z</time>
      </trkpt>
      <trkpt lat="56.36236" lon="-6.03722">
        <ele>4.54</ele>
        <time>2021-04-06T09:28:25Z</time>
      </trkpt>
      <trkpt lat="56.3628" lon="-6.0336">
        <ele>11.66</ele>
        <time>2021-04-06T09:28:29Z</time>
      </trkpt>
      <trkpt lat="56.36298" lon="-6.03286">
        <ele>11.14</ele>
        <time>2021-04-06T09:28:32Z</time>
      </trkpt>
      <trkpt lat="56.36339" lon="-6.02989">
        <ele>13.39</ele>
        <time>2021-04-06T09:28:35Z</time>
      </trkpt>
      <trkpt lat="56.36357" lon="-6.02878">
        <ele>12.37</ele>
        <time>2021-04-06T09:28:38Z</time>
      </trkpt>
      <trkpt lat="56.36376" lon="-6.02808">
        <ele>9.19</ele>
        <time>2021-04-06T09:28:41Z</time>
      </trkpt>
      <trkpt lat="56.36389" lon="-6.02775">
        <ele>7.07</ele>
        <time>2021-04-06T09:28:45Z</time>
      </trkpt>
      <trkpt lat="56.36399" lon="-6.02726">
        <ele>9.76</ele>
        <time>2021-04-06T09:28:48Z</time>
      </trkpt>
      <trkpt lat="56.364" lon="-6.02686">
        <ele>10.25</ele>
        <time>2021-04-06T09:28:51Z</time>
      </trkpt>
      <trkpt lat="56.364" lon="-6.02541">
        <ele>11.74</ele>
        <time>2021-04-06T09:28:54Z</time>
      </trkpt>
      <trkpt lat="56.36412" lon="-6.02451">
        <ele>3.95</ele>
        <time>2021-04-06T09:28:58Z</time>
      </trkpt>
      <trkpt lat="56.36428" lon="-6.02393">
        <ele>9.59</ele>
        <time>2021-04-06T09:29:01Z</time>
      </trkpt>
      <trkpt lat="56.36435" lon="-6.02336">
        <ele>13.75</ele>
        <time>2021-04-06T09:29:04Z</time>
      </trkpt>
      <trkpt lat="56.36436" lon="-6.02305">
        <ele>14.77</ele>
        <time>2021-04-06T09:29:07Z</time>
      </trkpt>
      <trkpt lat="56.36433" lon="-6.0228">
        <ele>13.67</ele>
        <time>2021-04-06T09:29:10Z</time>
      </trkpt>
      <trkpt lat="56.36432" lon="-6.02218">
        <ele>12.09</ele>
        <time>2021-04-06T09:29:14Z</time>
      </trkpt>
      <trkpt lat="56.36461" lon="-6.01965">
        <ele>2.92</ele>
        <time>2021-04-06T09:29:17Z</time>
      </trkpt>
      <trkpt lat="56.36461" lon="-6.01928">
        <ele>3.55</ele>
        <time>2021-04-06T09:29:20Z</time>
      </trkpt>
      <trkpt lat="56.36466" lon="-6.01907">
        <ele>3.03</ele>
        <time>2021-04-06T09:29:23Z</time>
      </trkpt>
      <trkpt lat="56.36474" lon="-6.01884">
        <ele>2.18</ele>
        <time>2021-04-06T09:29:26Z</time>
      </trkpt>
      <trkpt lat="56.36484" lon="-6.01865">
        <ele>2.5</ele>
        <time>2021-04-06T09:29:30Z</time>
      </trkpt>
      <trkpt lat="56.36494" lon="-6.01855">
        <ele>2.42</ele>
        <time>2021-04-06T09:29:33Z</time>
      </trkpt>
      <trkpt lat="56.36523" lon="-6.01848">
        <ele>1.64</ele>
        <time>2021-04-06T09:29:36Z</time>
      </trkpt>
      <trkpt lat="56.36536" lon="-6.0184">
        <ele>1.91</ele>
        <time>2021-04-06T09:29:39Z</time>
      </trkpt>
      <trkpt lat="56.36583" lon="-6.01797">
        <ele>2.3</ele>
        <time>2021-04-06T09:29:42Z</time>
      </trkpt>
      <trkpt lat="56.36599" lon="-6.0178">
        <ele>1.95</ele>
        <time>2021-04-06T09:29:46Z</time>
      </trkpt>
      <trkpt lat="56.36683" lon="-6.01669">
        <ele>6.83</ele>
        <time>2021-04-06T09:29:49Z</time>
      </trkpt>
      <trkpt lat="56.36748" lon="-6.01594">
        <ele>4.72</ele>
        <time>2021-04-06T09:29:52Z</time>
      </trkpt>
      <trkpt lat="56.3678" lon="-6.0156">
        <ele>4.48</ele>
        <time>2021-04-06T09:29:55Z</time>
      </trkpt>
      <trkpt lat="56.36829" lon="-6.01512">
        <ele>4.96</ele>
        <time>2021-04-06T09:29:59Z</time>
      </trkpt>
      <trkpt lat="56.37114" lon="-6.01285">
        <ele>5.98</ele>
        <time>2021-04-06T09:30:02Z</time>
      </trkpt>
      <trkpt lat="56.37148" lon="-6.0124">
        <ele>4.89</ele>
        <time>2021-04-06T09:30:05Z</time>
      </trkpt>
      <trkpt lat="56.37189" lon="-6.01128">
        <ele>3.71</ele>
        <time>2021-04-06T09:30:08Z</time>
      </trkpt>
      <trkpt lat="56.37237" lon="-6.01058">
        <ele>4.28</ele>
        <time>2021-04-06T09:30:11Z</time>
      </trkpt>
      <trkpt lat="56.37332" lon="-6.00965">
        <ele>5.31</ele>
        <time>2021-04-06T09:30:15Z</time>
      </trkpt>
      <trkpt lat="56.37365" lon="-6.00927">
        <ele>3.26</ele>
        <time>2021-04-06T09:30:18Z</time>
      </trkpt>
      <trkpt lat="56.37375" lon="-6.00882">
        <ele>3.82</ele>
        <time>2021-04-06T09:30:21Z</time>
      </trkpt>
      <trkpt lat="56.37386" lon="-6.00858">
        <ele>2.76</ele>
        <time>2021-04-06T09:30:24Z</time>
      </trkpt>
      <trkpt lat="56.3741" lon="-6.00831">
        <ele>2.56</ele>
        <time>2021-04-06T09:30:27Z</time>
      </trkpt>
      <trkpt lat="56.37433" lon="-6.00794">
        <ele>4.74</ele>
        <time>2021-04-06T09:30:31Z</time>
      </trkpt>
      <trkpt lat="56.37451" lon="-6.00743">
        <ele>3.43</ele>
        <time>2021-04-06T09:30:34Z</time>
      </trkpt>
      <trkpt lat="56.37491" lon="-6.00653">
        <ele>5.81</ele>
        <time>2021-04-06T09:30:37Z</time>
      </trkpt>
      <trkpt lat="56.37509" lon="-6.00599">
        <ele>5.28</ele>
        <time>2021-04-06T09:30:40Z</time>
      </trkpt>
      <trkpt lat="56.37528" lon="-6.00549">
        <ele>4.64</ele>
        <time>2021-04-06T09:30:43Z</time>
      </trkpt>
      <trkpt lat="56.3754" lon="-6.00529">
        <ele>5.61</ele>
        <time>2021-04-06T09:30:47Z</time>
      </trkpt>
      <trkpt lat="56.37551" lon="-6.00514">
        <ele>5.58</ele>
        <time>2021-04-06T09:30:50Z</time>
      </trkpt>
      <trkpt lat="56.37578" lon="-6.00489">
        <ele>6.51</ele>
        <time>2021-04-06T09:30:53Z</time>
      </trkpt>
      <trkpt lat="56.37603" lon="-6.00478">
        <ele>6.07</ele>
        <time>2021-04-06T09:30:56Z</time>
      </trkpt>
      <trkpt lat="56.37688" lon="-6.00385">
        <ele>5.12</ele>
        <time>2021-04-06T09:31:00Z</time>
      </trkpt>
      <trkpt lat="56.3779" lon="-6.00297">
        <ele>7.26</ele>
        <time>2021-04-06T09:31:03Z</time>
      </trkpt>
      <trkpt lat="56.37855" lon="-6.00264">
        <ele>6.87</ele>
        <time>2021-04-06T09:31:06Z</time>
      </trkpt>
      <trkpt lat="56.3792" lon="-6.00217">
        <ele>7.38</ele>
        <time>2021-04-06T09:31:09Z</time>
      </trkpt>
      <trkpt lat="56.37931" lon="-6.00204">
        <ele>7.95</ele>
        <time>2021-04-06T09:31:12Z</time>
      </trkpt>
      <trkpt lat="56.37955" lon="-6.00187">
        <ele>7.75</ele>
        <time>2021-04-06T09:31:16Z</time>
      </trkpt>
      <trkpt lat="56.37977" lon="-6.00178">
        <ele>6.92</ele>
        <time>2021-04-06T09:31:19Z</time>
      </trkpt>
      <trkpt lat="56.37994" lon="-6.00167">
        <ele>6.44</ele>
        <time>2021-04-06T09:31:22Z</time>
      </trkpt>
      <trkpt lat="56.38052" lon="-6.00149">
        <ele>4.2</ele>
        <time>2021-04-06T09:31:25Z</time>
      </trkpt>
      <trkpt lat="56.38097" lon="-6.00126">
        <ele>4.25</ele>
        <time>2021-04-06T09:31:28Z</time>
      </trkpt>
      <trkpt lat="56.38123" lon="-6.00106">
        <ele>4</ele>
        <time>2021-04-06T09:31:32Z</time>
      </trkpt>
      <trkpt lat="56.38233" lon="-5.99888">
        <ele>4.66</ele>
        <time>2021-04-06T09:31:35Z</time>
      </trkpt>
      <trkpt lat="56.38256" lon="-5.99826">
        <ele>6.22</ele>
        <time>2021-04-06T09:31:38Z</time>
      </trkpt>
      <trkpt lat="56.38266" lon="-5.9977">
        <ele>7.57</ele>
        <time>2021-04-06T09:31:41Z</time>
      </trkpt>
      <trkpt lat="56.3828" lon="-5.99642">
        <ele>10.9</ele>
        <time>2021-04-06T09:31:44Z</time>
      </trkpt>
      <trkpt lat="56.38284" lon="-5.99461">
        <ele>6.3</ele>
        <time>2021-04-06T09:31:48Z</time>
      </trkpt>
      <trkpt lat="56.38283" lon="-5.99417">
        <ele>5.53</ele>
        <time>2021-04-06T09:31:51Z</time>
      </trkpt>
      <trkpt lat="56.38271" lon="-5.99326">
        <ele>3.49</ele>
        <time>2021-04-06T09:31:54Z</time>
      </trkpt>
      <trkpt lat="56.38264" lon="-5.99285">
        <ele>3.62</ele>
        <time>2021-04-06T09:31:57Z</time>
      </trkpt>
      <trkpt lat="56.38263" lon="-5.99229">
        <ele>3.89</ele>
        <time>2021-04-06T09:32:01Z</time>
      </trkpt>
      <trkpt lat="56.38266" lon="-5.99174">
        <ele>2.67</ele>
        <time>2021-04-06T09:32:04Z</time>
      </trkpt>
      <trkpt lat="56.38277" lon="-5.99121">
        <ele>2.01</ele>
        <time>2021-04-06T09:32:07Z</time>
      </trkpt>
      <trkpt lat="56.38305" lon="-5.98999">
        <ele>2</ele>
        <time>2021-04-06T09:32:10Z</time>
      </trkpt>
      <trkpt lat="56.38331" lon="-5.9889">
        <ele>2.08</ele>
        <time>2021-04-06T09:32:13Z</time>
      </trkpt>
      <trkpt lat="56.38338" lon="-5.98806">
        <ele>1.83</ele>
        <time>2021-04-06T09:32:17Z</time>
      </trkpt>
      <trkpt lat="56.38338" lon="-5.98714">
        <ele>3</ele>
        <time>2021-04-06T09:32:20Z</time>
      </trkpt>
      <trkpt lat="56.38334" lon="-5.98493">
        <ele>4</ele>
        <time>2021-04-06T09:32:23Z</time>
      </trkpt>
      <trkpt lat="56.38334" lon="-5.98398">
        <ele>3.34</ele>
        <time>2021-04-06T09:32:26Z</time>
      </trkpt>
      <trkpt lat="56.38338" lon="-5.9834">
        <ele>2.23</ele>
        <time>2021-04-06T09:32:29Z</time>
      </trkpt>
      <trkpt lat="56.38344" lon="-5.98301">
        <ele>1.94</ele>
        <time>2021-04-06T09:32:33Z</time>
      </trkpt>
      <trkpt lat="56.3836" lon="-5.9824">
        <ele>1.38</ele>
        <time>2021-04-06T09:32:36Z</time>
      </trkpt>
      <trkpt lat="56.38382" lon="-5.98181">
        <ele>2.88</ele>
        <time>2021-04-06T09:32:39Z</time>
      </trkpt>
      <trkpt lat="56.38526" lon="-5.97933">
        <ele>4</ele>
        <time>2021-04-06T09:32:42Z</time>
      </trkpt>
      <trkpt lat="56.38558" lon="-5.97887">
        <ele>4.03</ele>
        <time>2021-04-06T09:32:46Z</time>
      </trkpt>
      <trkpt lat="56.38558" lon="-5.97887">
        <ele>4.03</ele>
        <time>2021-04-06T09:32:46Z</time>
      </trkpt>
      <trkpt lat="56.38575" lon="-5.97872">
        <ele>4.62</ele>
        <time>2021-04-06T09:32:51Z</time>
      </trkpt>
      <trkpt lat="56.38595" lon="-5.97858">
        <ele>5.61</ele>
        <time>2021-04-06T09:32:56Z</time>
      </trkpt>
      <trkpt lat="56.38612" lon="-5.97852">
        <ele>6.71</ele>
        <time>2021-04-06T09:33:00Z</time>
      </trkpt>
      <trkpt lat="56.38633" lon="-5.97847">
        <ele>7.8</ele>
        <time>2021-04-06T09:33:05Z</time>
      </trkpt>
      <trkpt lat="56.38732" lon="-5.9784">
        <ele>7.51</ele>
        <time>2021-04-06T09:33:10Z</time>
      </trkpt>
      <trkpt lat="56.39127" lon="-5.97697">
        <ele>6.57</ele>
        <time>2021-04-06T09:33:15Z</time>
      </trkpt>
      <trkpt lat="56.39132" lon="-5.97755">
        <ele>7.53</ele>
        <time>2021-04-06T09:33:18Z</time>
      </trkpt>
      <trkpt lat="56.39133" lon="-5.97784">
        <ele>7.39</ele>
        <time>2021-04-06T09:33:20Z</time>
      </trkpt>
      <trkpt lat="56.39131" lon="-5.97822">
        <ele>6.31</ele>
        <time>2021-04-06T09:33:22Z</time>
      </trkpt>
      <trkpt lat="56.39128" lon="-5.97855">
        <ele>5.22</ele>
        <time>2021-04-06T09:33:25Z</time>
      </trkpt>
      <trkpt lat="56.39114" lon="-5.9793">
        <ele>5</ele>
        <time>2021-04-06T09:33:27Z</time>
      </trkpt>
      <trkpt lat="56.39108" lon="-5.97973">
        <ele>5</ele>
        <time>2021-04-06T09:33:29Z</time>
      </trkpt>
      <trkpt lat="56.39109" lon="-5.98045">
        <ele>4.92</ele>
        <time>2021-04-06T09:33:32Z</time>
      </trkpt>
      <trkpt lat="56.39114" lon="-5.98083">
        <ele>4</ele>
        <time>2021-04-06T09:33:34Z</time>
      </trkpt>
      <trkpt lat="56.39129" lon="-5.9817">
        <ele>4</ele>
        <time>2021-04-06T09:33:36Z</time>
      </trkpt>
      <trkpt lat="56.39132" lon="-5.98208">
        <ele>4</ele>
        <time>2021-04-06T09:33:39Z</time>
      </trkpt>
      <trkpt lat="56.39135" lon="-5.98288">
        <ele>3.47</ele>
        <time>2021-04-06T09:33:41Z</time>
      </trkpt>
      <trkpt lat="56.39138" lon="-5.98747">
        <ele>4.86</ele>
        <time>2021-04-06T09:33:43Z</time>
      </trkpt>
      <trkpt lat="56.39138" lon="-5.98801">
        <ele>4.99</ele>
        <time>2021-04-06T09:33:46Z</time>
      </trkpt>
      <trkpt lat="56.39135" lon="-5.98854">
        <ele>5.62</ele>
        <time>2021-04-06T09:33:48Z</time>
      </trkpt>
      <trkpt lat="56.39127" lon="-5.98898">
        <ele>5.88</ele>
        <time>2021-04-06T09:33:50Z</time>
      </trkpt>
      <trkpt lat="56.39109" lon="-5.98948">
        <ele>5.96</ele>
        <time>2021-04-06T09:33:53Z</time>
      </trkpt>
      <trkpt lat="56.39083" lon="-5.99001">
        <ele>5.01</ele>
        <time>2021-04-06T09:33:55Z</time>
      </trkpt>
      <trkpt lat="56.39069" lon="-5.99023">
        <ele>5.32</ele>
        <time>2021-04-06T09:33:57Z</time>
      </trkpt>
      <trkpt lat="56.39054" lon="-5.99042">
        <ele>5.53</ele>
        <time>2021-04-06T09:34:00Z</time>
      </trkpt>
      <trkpt lat="56.39007" lon="-5.99091">
        <ele>6.26</ele>
        <time>2021-04-06T09:34:02Z</time>
      </trkpt>
      <trkpt lat="56.38995" lon="-5.9911">
        <ele>5.81</ele>
        <time>2021-04-06T09:34:04Z</time>
      </trkpt>
      <trkpt lat="56.38975" lon="-5.99174">
        <ele>5.24</ele>
        <time>2021-04-06T09:34:07Z</time>
      </trkpt>
      <trkpt lat="56.3895" lon="-5.99288">
        <ele>4.44</ele>
        <time>2021-04-06T09:34:09Z</time>
      </trkpt>
      <trkpt lat="56.38933" lon="-5.99342">
        <ele>3.49</ele>
        <time>2021-04-06T09:34:11Z</time>
      </trkpt>
      <trkpt lat="56.38911" lon="-5.99378">
        <ele>3.3</ele>
        <time>2021-04-06T09:34:14Z</time>
      </trkpt>
      <trkpt lat="56.38905" lon="-5.99425">
        <ele>4.13</ele>
        <time>2021-04-06T09:34:16Z</time>
      </trkpt>
      <trkpt lat="56.38911" lon="-5.99531">
        <ele>4.78</ele>
        <time>2021-04-06T09:34:18Z</time>
      </trkpt>
      <trkpt lat="56.3892" lon="-5.99587">
        <ele>4.34</ele>
        <time>2021-04-06T09:34:21Z</time>
      </trkpt>
      <trkpt lat="56.38921" lon="-5.99641">
        <ele>4.46</ele>
        <time>2021-04-06T09:34:23Z</time>
      </trkpt>
      <trkpt lat="56.38913" lon="-5.99685">
        <ele>3.16</ele>
        <time>2021-04-06T09:34:25Z</time>
      </trkpt>
      <trkpt lat="56.38924" lon="-5.99727">
        <ele>2.84</ele>
        <time>2021-04-06T09:34:28Z</time>
      </trkpt>
      <trkpt lat="56.38947" lon="-5.99774">
        <ele>3.48</ele>
        <time>2021-04-06T09:34:30Z</time>
      </trkpt>
      <trkpt lat="56.38993" lon="-5.9988">
        <ele>5.54</ele>
        <time>2021-04-06T09:34:32Z</time>
      </trkpt>
      <trkpt lat="56.39023" lon="-5.99924">
        <ele>6.43</ele>
        <time>2021-04-06T09:34:35Z</time>
      </trkpt>
      <trkpt lat="56.39089" lon="-5.9999">
        <ele>4.91</ele>
        <time>2021-04-06T09:34:37Z</time>
      </trkpt>
      <trkpt lat="56.39271" lon="-6.00161">
        <ele>1.75</ele>
        <time>2021-04-06T09:34:39Z</time>
      </trkpt>
      <trkpt lat="56.39304" lon="-6.00177">
        <ele>1.63</ele>
        <time>2021-04-06T09:34:42Z</time>
      </trkpt>
      <trkpt lat="56.39337" lon="-6.00212">
        <ele>2.79</ele>
        <time>2021-04-06T09:34:44Z</time>
      </trkpt>
      <trkpt lat="56.39383" lon="-6.00299">
        <ele>4.62</ele>
        <time>2021-04-06T09:34:46Z</time>
      </trkpt>
      <trkpt lat="56.39396" lon="-6.0036">
        <ele>3.54</ele>
        <time>2021-04-06T09:34:49Z</time>
      </trkpt>
      <trkpt lat="56.39395" lon="-6.00428">
        <ele>3.2</ele>
        <time>2021-04-06T09:34:51Z</time>
      </trkpt>
      <trkpt lat="56.39386" lon="-6.00503">
        <ele>3.94</ele>
        <time>2021-04-06T09:34:53Z</time>
      </trkpt>
      <trkpt lat="56.39372" lon="-6.00574">
        <ele>5.22</ele>
        <time>2021-04-06T09:34:55Z</time>
      </trkpt>
      <trkpt lat="56.39348" lon="-6.0064">
        <ele>4.62</ele>
        <time>2021-04-06T09:34:58Z</time>
      </trkpt>
      <trkpt lat="56.39286" lon="-6.00825">
        <ele>7.8</ele>
        <time>2021-04-06T09:35:00Z</time>
      </trkpt>
      <trkpt lat="56.39195" lon="-6.0104">
        <ele>5.07</ele>
        <time>2021-04-06T09:35:02Z</time>
      </trkpt>
      <trkpt lat="56.39181" lon="-6.01105">
        <ele>7.22</ele>
        <time>2021-04-06T09:35:05Z</time>
      </trkpt>
      <trkpt lat="56.39173" lon="-6.01176">
        <ele>7.57</ele>
        <time>2021-04-06T09:35:07Z</time>
      </trkpt>
      <trkpt lat="56.3917" lon="-6.01257">
        <ele>7.26</ele>
        <time>2021-04-06T09:35:09Z</time>
      </trkpt>
      <trkpt lat="56.39172" lon="-6.01384">
        <ele>7.2</ele>
        <time>2021-04-06T09:35:12Z</time>
      </trkpt>
      <trkpt lat="56.39186" lon="-6.01524">
        <ele>5.98</ele>
        <time>2021-04-06T09:35:14Z</time>
      </trkpt>
      <trkpt lat="56.39202" lon="-6.0158">
        <ele>5.89</ele>
        <time>2021-04-06T09:35:16Z</time>
      </trkpt>
      <trkpt lat="56.39274" lon="-6.01757">
        <ele>7.11</ele>
        <time>2021-04-06T09:35:19Z</time>
      </trkpt>
      <trkpt lat="56.39319" lon="-6.01831">
        <ele>6.13</ele>
        <time>2021-04-06T09:35:21Z</time>
      </trkpt>
      <trkpt lat="56.39341" lon="-6.01859">
        <ele>12.72</ele>
        <time>2021-04-06T09:35:23Z</time>
      </trkpt>
      <trkpt lat="56.39405" lon="-6.01912">
        <ele>6.47</ele>
        <time>2021-04-06T09:35:26Z</time>
      </trkpt>
      <trkpt lat="56.39435" lon="-6.01974">
        <ele>4.88</ele>
        <time>2021-04-06T09:35:28Z</time>
      </trkpt>
      <trkpt lat="56.39471" lon="-6.02074">
        <ele>5.27</ele>
        <time>2021-04-06T09:35:30Z</time>
      </trkpt>
      <trkpt lat="56.3948" lon="-6.02139">
        <ele>7.94</ele>
        <time>2021-04-06T09:35:33Z</time>
      </trkpt>
      <trkpt lat="56.39482" lon="-6.02205">
        <ele>10.22</ele>
        <time>2021-04-06T09:35:35Z</time>
      </trkpt>
      <trkpt lat="56.39482" lon="-6.02205">
        <ele>10.22</ele>
        <time>2021-04-06T09:35:35Z</time>
      </trkpt>
      <trkpt lat="56.39479" lon="-6.02283">
        <ele>11.02</ele>
        <time>2021-04-06T09:35:38Z</time>
      </trkpt>
      <trkpt lat="56.3946" lon="-6.02362">
        <ele>10.31</ele>
        <time>2021-04-06T09:35:42Z</time>
      </trkpt>
      <trkpt lat="56.39433" lon="-6.02458">
        <ele>8.1</ele>
        <time>2021-04-06T09:35:45Z</time>
      </trkpt>
      <trkpt lat="56.39419" lon="-6.02521">
        <ele>7.05</ele>
        <time>2021-04-06T09:35:48Z</time>
      </trkpt>
      <trkpt lat="56.39389" lon="-6.02703">
        <ele>7.36</ele>
        <time>2021-04-06T09:35:52Z</time>
      </trkpt>
      <trkpt lat="56.39363" lon="-6.02812">
        <ele>6.3</ele>
        <time>2021-04-06T09:35:55Z</time>
      </trkpt>
      <trkpt lat="56.39356" lon="-6.02928">
        <ele>7.2</ele>
        <time>2021-04-06T09:35:58Z</time>
      </trkpt>
      <trkpt lat="56.3933" lon="-6.03036">
        <ele>7.84</ele>
        <time>2021-04-06T09:36:02Z</time>
      </trkpt>
      <trkpt lat="56.3924" lon="-6.03334">
        <ele>4.69</ele>
        <time>2021-04-06T09:36:05Z</time>
      </trkpt>
      <trkpt lat="56.39189" lon="-6.0351">
        <ele>8.6</ele>
        <time>2021-04-06T09:36:08Z</time>
      </trkpt>
      <trkpt lat="56.39069" lon="-6.03698">
        <ele>7.45</ele>
        <time>2021-04-06T09:36:12Z</time>
      </trkpt>
      <trkpt lat="56.39035" lon="-6.0383">
        <ele>9.43</ele>
        <time>2021-04-06T09:36:15Z</time>
      </trkpt>
      <trkpt lat="56.38983" lon="-6.03951">
        <ele>11.62</ele>
        <time>2021-04-06T09:36:18Z</time>
      </trkpt>
      <trkpt lat="56.38827" lon="-6.04212">
        <ele>15.75</ele>
        <time>2021-04-06T09:36:22Z</time>
      </trkpt>
      <trkpt lat="56.38774" lon="-6.04318">
        <ele>19.2</ele>
        <time>2021-04-06T09:36:25Z</time>
      </trkpt>
      <trkpt lat="56.38646" lon="-6.04494">
        <ele>9.17</ele>
        <time>2021-04-06T09:36:28Z</time>
      </trkpt>
      <trkpt lat="56.38604" lon="-6.04553">
        <ele>8.21</ele>
        <time>2021-04-06T09:36:31Z</time>
      </trkpt>
      <trkpt lat="56.38544" lon="-6.04621">
        <ele>6.47</ele>
        <time>2021-04-06T09:36:35Z</time>
      </trkpt>
      <trkpt lat="56.38476" lon="-6.0473">
        <ele>4.88</ele>
        <time>2021-04-06T09:36:38Z</time>
      </trkpt>
      <trkpt lat="56.38413" lon="-6.04816">
        <ele>5.07</ele>
        <time>2021-04-06T09:36:41Z</time>
      </trkpt>
      <trkpt lat="56.38328" lon="-6.04982">
        <ele>4.29</ele>
        <time>2021-04-06T09:36:45Z</time>
      </trkpt>
      <trkpt lat="56.38293" lon="-6.05105">
        <ele>7.68</ele>
        <time>2021-04-06T09:36:48Z</time>
      </trkpt>
      <trkpt lat="56.38281" lon="-6.05122">
        <ele>8.76</ele>
        <time>2021-04-06T09:36:51Z</time>
      </trkpt>
      <trkpt lat="56.38207" lon="-6.05168">
        <ele>6.13</ele>
        <time>2021-04-06T09:36:55Z</time>
      </trkpt>
      <trkpt lat="56.38186" lon="-6.05216">
        <ele>8.15</ele>
        <time>2021-04-06T09:36:58Z</time>
      </trkpt>
      <trkpt lat="56.38107" lon="-6.05448">
        <ele>7.98</ele>
        <time>2021-04-06T09:37:01Z</time>
      </trkpt>
      <trkpt lat="56.38102" lon="-6.05473">
        <ele>9.01</ele>
        <time>2021-04-06T09:37:05Z</time>
      </trkpt>
      <trkpt lat="56.381" lon="-6.05496">
        <ele>9.25</ele>
        <time>2021-04-06T09:37:08Z</time>
      </trkpt>
      <trkpt lat="56.38101" lon="-6.05525">
        <ele>9.55</ele>
        <time>2021-04-06T09:37:11Z</time>
      </trkpt>
      <trkpt lat="56.38133" lon="-6.05651">
        <ele>11.8</ele>
        <time>2021-04-06T09:37:15Z</time>
      </trkpt>
      <trkpt lat="56.38154" lon="-6.05763">
        <ele>12.55</ele>
        <time>2021-04-06T09:37:18Z</time>
      </trkpt>
      <trkpt lat="56.38163" lon="-6.05912">
        <ele>9.91</ele>
        <time>2021-04-06T09:37:21Z</time>
      </trkpt>
      <trkpt lat="56.38168" lon="-6.05931">
        <ele>9.57</ele>
        <time>2021-04-06T09:37:24Z</time>
      </trkpt>
      <trkpt lat="56.38189" lon="-6.05982">
        <ele>9.25</ele>
        <time>2021-04-06T09:37:28Z</time>
      </trkpt>
      <trkpt lat="56.38203" lon="-6.06006">
        <ele>9.74</ele>
        <time>2021-04-06T09:37:31Z</time>
      </trkpt>
      <trkpt lat="56.38209" lon="-6.06022">
        <ele>9.78</ele>
        <time>2021-04-06T09:37:34Z</time>
      </trkpt>
      <trkpt lat="56.38219" lon="-6.06093">
        <ele>9.62</ele>
        <time>2021-04-06T09:37:38Z</time>
      </trkpt>
      <trkpt lat="56.38236" lon="-6.06156">
        <ele>12.82</ele>
        <time>2021-04-06T09:37:41Z</time>
      </trkpt>
      <trkpt lat="56.38244" lon="-6.06232">
        <ele>11.75</ele>
        <time>2021-04-06T09:37:44Z</time>
      </trkpt>
      <trkpt lat="56.38244" lon="-6.06232">
        <ele>11.75</ele>
        <time>2021-04-06T09:37:44Z</time>
      </trkpt>
      <trkpt lat="56.38317" lon="-6.06504">
        <ele>9.77</ele>
        <time>2021-04-06T09:37:48Z</time>
      </trkpt>
      <trkpt lat="56.3835" lon="-6.06619">
        <ele>12.26</ele>
        <time>2021-04-06T09:37:51Z</time>
      </trkpt>
      <trkpt lat="56.38399" lon="-6.0674">
        <ele>14.77</ele>
        <time>2021-04-06T09:37:55Z</time>
      </trkpt>
      <trkpt lat="56.38421" lon="-6.06779">
        <ele>14.22</ele>
        <time>2021-04-06T09:37:58Z</time>
      </trkpt>
      <trkpt lat="56.38448" lon="-6.0679">
        <ele>15.64</ele>
        <time>2021-04-06T09:38:01Z</time>
      </trkpt>
      <trkpt lat="56.38477" lon="-6.06788">
        <ele>19.56</ele>
        <time>2021-04-06T09:38:05Z</time>
      </trkpt>
      <trkpt lat="56.38513" lon="-6.06817">
        <ele>20.72</ele>
        <time>2021-04-06T09:38:08Z</time>
      </trkpt>
      <trkpt lat="56.38543" lon="-6.06826">
        <ele>23.83</ele>
        <time>2021-04-06T09:38:12Z</time>
      </trkpt>
      <trkpt lat="56.38582" lon="-6.06823">
        <ele>28.58</ele>
        <time>2021-04-06T09:38:15Z</time>
      </trkpt>
      <trkpt lat="56.38618" lon="-6.06847">
        <ele>29.2</ele>
        <time>2021-04-06T09:38:18Z</time>
      </trkpt>
      <trkpt lat="56.38717" lon="-6.06987">
        <ele>33.23</ele>
        <time>2021-04-06T09:38:22Z</time>
      </trkpt>
      <trkpt lat="56.38897" lon="-6.07146">
        <ele>36.38</ele>
        <time>2021-04-06T09:38:25Z</time>
      </trkpt>
      <trkpt lat="56.38957" lon="-6.07217">
        <ele>38.24</ele>
        <time>2021-04-06T09:38:29Z</time>
      </trkpt>
      <trkpt lat="56.39304" lon="-6.07689">
        <ele>43.22</ele>
        <time>2021-04-06T09:38:32Z</time>
      </trkpt>
      <trkpt lat="56.39384" lon="-6.07807">
        <ele>52.04</ele>
        <time>2021-04-06T09:38:35Z</time>
      </trkpt>
      <trkpt lat="56.39502" lon="-6.08019">
        <ele>59.53</ele>
        <time>2021-04-06T09:38:39Z</time>
      </trkpt>
      <trkpt lat="56.39728" lon="-6.08469">
        <ele>69.74</ele>
        <time>2021-04-06T09:38:42Z</time>
      </trkpt>
      <trkpt lat="56.39964" lon="-6.08944">
        <ele>91.42</ele>
        <time>2021-04-06T09:38:46Z</time>
      </trkpt>
      <trkpt lat="56.40037" lon="-6.09059">
        <ele>94.77</ele>
        <time>2021-04-06T09:38:49Z</time>
      </trkpt>
      <trkpt lat="56.40259" lon="-6.09337">
        <ele>111.42</ele>
        <time>2021-04-06T09:38:52Z</time>
      </trkpt>
      <trkpt lat="56.40368" lon="-6.09482">
        <ele>110.21</ele>
        <time>2021-04-06T09:38:56Z</time>
      </trkpt>
      <trkpt lat="56.40402" lon="-6.09551">
        <ele>112.87</ele>
        <time>2021-04-06T09:38:59Z</time>
      </trkpt>
      <trkpt lat="56.40425" lon="-6.09606">
        <ele>116.84</ele>
        <time>2021-04-06T09:39:03Z</time>
      </trkpt>
      <trkpt lat="56.40591" lon="-6.10023">
        <ele>128.4</ele>
        <time>2021-04-06T09:39:06Z</time>
      </trkpt>
      <trkpt lat="56.40652" lon="-6.10151">
        <ele>128.87</ele>
        <time>2021-04-06T09:39:09Z</time>
      </trkpt>
      <trkpt lat="56.40686" lon="-6.10206">
        <ele>130.66</ele>
        <time>2021-04-06T09:39:13Z</time>
      </trkpt>
      <trkpt lat="56.40726" lon="-6.10253">
        <ele>131.28</ele>
        <time>2021-04-06T09:39:16Z</time>
      </trkpt>
      <trkpt lat="56.40949" lon="-6.10501">
        <ele>141.44</ele>
        <time>2021-04-06T09:39:20Z</time>
      </trkpt>
      <trkpt lat="56.40993" lon="-6.10553">
        <ele>141.62</ele>
        <time>2021-04-06T09:39:23Z</time>
      </trkpt>
      <trkpt lat="56.41013" lon="-6.10588">
        <ele>142.21</ele>
        <time>2021-04-06T09:39:27Z</time>
      </trkpt>
      <trkpt lat="56.41047" lon="-6.10655">
        <ele>143.66</ele>
        <time>2021-04-06T09:39:30Z</time>
      </trkpt>
      <trkpt lat="56.41075" lon="-6.10721">
        <ele>143.41</ele>
        <time>2021-04-06T09:39:33Z</time>
      </trkpt>
      <trkpt lat="56.41101" lon="-6.10793">
        <ele>144.91</ele>
        <time>2021-04-06T09:39:37Z</time>
      </trkpt>
      <trkpt lat="56.41152" lon="-6.10967">
        <ele>146.11</ele>
        <time>2021-04-06T09:39:40Z</time>
      </trkpt>
      <trkpt lat="56.41304" lon="-6.11669">
        <ele>142.64</ele>
        <time>2021-04-06T09:39:44Z</time>
      </trkpt>
      <trkpt lat="56.41329" lon="-6.1178">
        <ele>143.25</ele>
        <time>2021-04-06T09:39:47Z</time>
      </trkpt>
      <trkpt lat="56.41347" lon="-6.11854">
        <ele>143.5</ele>
        <time>2021-04-06T09:39:50Z</time>
      </trkpt>
      <trkpt lat="56.41368" lon="-6.11927">
        <ele>143.13</ele>
        <time>2021-04-06T09:39:54Z</time>
      </trkpt>
      <trkpt lat="56.41424" lon="-6.12084">
        <ele>142.52</ele>
        <time>2021-04-06T09:39:57Z</time>
      </trkpt>
      <trkpt lat="56.41443" lon="-6.12131">
        <ele>142.36</ele>
        <time>2021-04-06T09:40:01Z</time>
      </trkpt>
      <trkpt lat="56.41469" lon="-6.12183">
        <ele>140.95</ele>
        <time>2021-04-06T09:40:04Z</time>
      </trkpt>
      <trkpt lat="56.41511" lon="-6.12259">
        <ele>141.21</ele>
        <time>2021-04-06T09:40:07Z</time>
      </trkpt>
      <trkpt lat="56.41534" lon="-6.12297">
        <ele>140.75</ele>
        <time>2021-04-06T09:40:11Z</time>
      </trkpt>
      <trkpt lat="56.41577" lon="-6.1236">
        <ele>138.24</ele>
        <time>2021-04-06T09:40:14Z</time>
      </trkpt>
      <trkpt lat="56.41637" lon="-6.12454">
        <ele>133.9</ele>
        <time>2021-04-06T09:40:18Z</time>
      </trkpt>
      <trkpt lat="56.41722" lon="-6.12569">
        <ele>131.07</ele>
        <time>2021-04-06T09:40:21Z</time>
      </trkpt>
      <trkpt lat="56.41755" lon="-6.12617">
        <ele>127.25</ele>
        <time>2021-04-06T09:40:24Z</time>
      </trkpt>
      <trkpt lat="56.41819" lon="-6.1272">
        <ele>123.71</ele>
        <time>2021-04-06T09:40:28Z</time>
      </trkpt>
      <trkpt lat="56.41851" lon="-6.12768">
        <ele>120.6</ele>
        <time>2021-04-06T09:40:31Z</time>
      </trkpt>
      <trkpt lat="56.4192" lon="-6.12852">
        <ele>111.74</ele>
        <time>2021-04-06T09:40:35Z</time>
      </trkpt>
      <trkpt lat="56.41955" lon="-6.12891">
        <ele>104.4</ele>
        <time>2021-04-06T09:40:38Z</time>
      </trkpt>
      <trkpt lat="56.42002" lon="-6.12938">
        <ele>102.29</ele>
        <time>2021-04-06T09:40:41Z</time>
      </trkpt>
      <trkpt lat="56.42024" lon="-6.12952">
        <ele>105.57</ele>
        <time>2021-04-06T09:40:45Z</time>
      </trkpt>
      <trkpt lat="56.42064" lon="-6.12965">
        <ele>107.72</ele>
        <time>2021-04-06T09:40:48Z</time>
      </trkpt>
      <trkpt lat="56.42147" lon="-6.13">
        <ele>94.26</ele>
        <time>2021-04-06T09:40:52Z</time>
      </trkpt>
      <trkpt lat="56.42203" lon="-6.13016">
        <ele>87.07</ele>
        <time>2021-04-06T09:40:55Z</time>
      </trkpt>
      <trkpt lat="56.42231" lon="-6.13026">
        <ele>85.95</ele>
        <time>2021-04-06T09:40:58Z</time>
      </trkpt>
      <trkpt lat="56.42259" lon="-6.1304">
        <ele>87.04</ele>
        <time>2021-04-06T09:41:02Z</time>
      </trkpt>
      <trkpt lat="56.42274" lon="-6.13054">
        <ele>85.76</ele>
        <time>2021-04-06T09:41:05Z</time>
      </trkpt>
      <trkpt lat="56.42287" lon="-6.13079">
        <ele>84.24</ele>
        <time>2021-04-06T09:41:09Z</time>
      </trkpt>
      <trkpt lat="56.42296" lon="-6.13103">
        <ele>82.34</ele>
        <time>2021-04-06T09:41:12Z</time>
      </trkpt>
      <trkpt lat="56.42303" lon="-6.13129">
        <ele>80.63</ele>
        <time>2021-04-06T09:41:16Z</time>
      </trkpt>
      <trkpt lat="56.42312" lon="-6.13174">
        <ele>79.13</ele>
        <time>2021-04-06T09:41:19Z</time>
      </trkpt>
      <trkpt lat="56.42314" lon="-6.1319">
        <ele>78.86</ele>
        <time>2021-04-06T09:41:22Z</time>
      </trkpt>
      <trkpt lat="56.42311" lon="-6.13284">
        <ele>75.15</ele>
        <time>2021-04-06T09:41:26Z</time>
      </trkpt>
      <trkpt lat="56.42315" lon="-6.13371">
        <ele>72.61</ele>
        <time>2021-04-06T09:41:29Z</time>
      </trkpt>
      <trkpt lat="56.42319" lon="-6.13426">
        <ele>69.25</ele>
        <time>2021-04-06T09:41:33Z</time>
      </trkpt>
      <trkpt lat="56.42323" lon="-6.13442">
        <ele>68.91</ele>
        <time>2021-04-06T09:41:36Z</time>
      </trkpt>
      <trkpt lat="56.42328" lon="-6.13453">
        <ele>68.6</ele>
        <time>2021-04-06T09:41:39Z</time>
      </trkpt>
      <trkpt lat="56.42335" lon="-6.1346">
        <ele>68.95</ele>
        <time>2021-04-06T09:41:43Z</time>
      </trkpt>
      <trkpt lat="56.4239" lon="-6.13489">
        <ele>68.77</ele>
        <time>2021-04-06T09:41:46Z</time>
      </trkpt>
      <trkpt lat="56.42404" lon="-6.13493">
        <ele>66.31</ele>
        <time>2021-04-06T09:41:50Z</time>
      </trkpt>
      <trkpt lat="56.42411" lon="-6.13492">
        <ele>65.76</ele>
        <time>2021-04-06T09:41:53Z</time>
      </trkpt>
      <trkpt lat="56.42451" lon="-6.13472">
        <ele>66.13</ele>
        <time>2021-04-06T09:41:56Z</time>
      </trkpt>
      <trkpt lat="56.42529" lon="-6.13446">
        <ele>61.86</ele>
        <time>2021-04-06T09:42:00Z</time>
      </trkpt>
      <trkpt lat="56.42549" lon="-6.13435">
        <ele>65.02</ele>
        <time>2021-04-06T09:42:03Z</time>
      </trkpt>
      <trkpt lat="56.42562" lon="-6.13431">
        <ele>66.86</ele>
        <time>2021-04-06T09:42:07Z</time>
      </trkpt>
      <trkpt lat="56.42573" lon="-6.13433">
        <ele>68.18</ele>
        <time>2021-04-06T09:42:10Z</time>
      </trkpt>
      <trkpt lat="56.42582" lon="-6.13448">
        <ele>68.36</ele>
        <time>2021-04-06T09:42:13Z</time>
      </trkpt>
      <trkpt lat="56.42587" lon="-6.13472">
        <ele>66.58</ele>
        <time>2021-04-06T09:42:17Z</time>
      </trkpt>
      <trkpt lat="56.4259" lon="-6.13529">
        <ele>60.96</ele>
        <time>2021-04-06T09:42:20Z</time>
      </trkpt>
      <trkpt lat="56.4259" lon="-6.13618">
        <ele>53.49</ele>
        <time>2021-04-06T09:42:24Z</time>
      </trkpt>
      <trkpt lat="56.42592" lon="-6.13626">
        <ele>52.99</ele>
        <time>2021-04-06T09:42:27Z</time>
      </trkpt>
      <trkpt lat="56.42599" lon="-6.1364">
        <ele>52.6</ele>
        <time>2021-04-06T09:42:30Z</time>
      </trkpt>
      <trkpt lat="56.42614" lon="-6.13653">
        <ele>52.4</ele>
        <time>2021-04-06T09:42:34Z</time>
      </trkpt>
      <trkpt lat="56.42628" lon="-6.13662">
        <ele>51.46</ele>
        <time>2021-04-06T09:42:37Z</time>
      </trkpt>
      <trkpt lat="56.42628" lon="-6.13662">
        <ele>51.46</ele>
        <time>2021-04-06T09:42:37Z</time>
      </trkpt>
      <trkpt lat="56.42637" lon="-6.13662">
        <ele>50.04</ele>
        <time>2021-04-06T09:42:40Z</time>
      </trkpt>
      <trkpt lat="56.42645" lon="-6.13658">
        <ele>49.82</ele>
        <time>2021-04-06T09:42:43Z</time>
      </trkpt>
      <trkpt lat="56.42666" lon="-6.13638">
        <ele>50.32</ele>
        <time>2021-04-06T09:42:46Z</time>
      </trkpt>
      <trkpt lat="56.42712" lon="-6.13565">
        <ele>47.49</ele>
        <time>2021-04-06T09:42:48Z</time>
      </trkpt>
      <trkpt lat="56.42749" lon="-6.13467">
        <ele>46.94</ele>
        <time>2021-04-06T09:42:51Z</time>
      </trkpt>
      <trkpt lat="56.42759" lon="-6.13446">
        <ele>47.83</ele>
        <time>2021-04-06T09:42:54Z</time>
      </trkpt>
      <trkpt lat="56.42786" lon="-6.13419">
        <ele>47.38</ele>
        <time>2021-04-06T09:42:57Z</time>
      </trkpt>
      <trkpt lat="56.42812" lon="-6.1337">
        <ele>48</ele>
        <time>2021-04-06T09:43:00Z</time>
      </trkpt>
      <trkpt lat="56.42825" lon="-6.13355">
        <ele>47.19</ele>
        <time>2021-04-06T09:43:02Z</time>
      </trkpt>
      <trkpt lat="56.42843" lon="-6.1334">
        <ele>46.94</ele>
        <time>2021-04-06T09:43:05Z</time>
      </trkpt>
      <trkpt lat="56.42873" lon="-6.13327">
        <ele>47.05</ele>
        <time>2021-04-06T09:43:08Z</time>
      </trkpt>
      <trkpt lat="56.42932" lon="-6.13307">
        <ele>46.32</ele>
        <time>2021-04-06T09:43:11Z</time>
      </trkpt>
      <trkpt lat="56.42963" lon="-6.133">
        <ele>46.06</ele>
        <time>2021-04-06T09:43:13Z</time>
      </trkpt>
      <trkpt lat="56.43" lon="-6.13298">
        <ele>43.84</ele>
        <time>2021-04-06T09:43:16Z</time>
      </trkpt>
      <trkpt lat="56.43036" lon="-6.13306">
        <ele>41.94</ele>
        <time>2021-04-06T09:43:19Z</time>
      </trkpt>
      <trkpt lat="56.4307" lon="-6.13324">
        <ele>41.54</ele>
        <time>2021-04-06T09:43:22Z</time>
      </trkpt>
      <trkpt lat="56.43162" lon="-6.13387">
        <ele>42.05</ele>
        <time>2021-04-06T09:43:25Z</time>
      </trkpt>
      <trkpt lat="56.43196" lon="-6.13405">
        <ele>43.36</ele>
        <time>2021-04-06T09:43:27Z</time>
      </trkpt>
      <trkpt lat="56.43286" lon="-6.1343">
        <ele>39.2</ele>
        <time>2021-04-06T09:43:30Z</time>
      </trkpt>
      <trkpt lat="56.43349" lon="-6.13441">
        <ele>33.47</ele>
        <time>2021-04-06T09:43:33Z</time>
      </trkpt>
      <trkpt lat="56.43381" lon="-6.1344">
        <ele>29.36</ele>
        <time>2021-04-06T09:43:36Z</time>
      </trkpt>
      <trkpt lat="56.43473" lon="-6.1342">
        <ele>20.88</ele>
        <time>2021-04-06T09:43:39Z</time>
      </trkpt>
      <trkpt lat="56.43549" lon="-6.13397">
        <ele>16.84</ele>
        <time>2021-04-06T09:43:41Z</time>
      </trkpt>
      <trkpt lat="56.43601" lon="-6.13377">
        <ele>15.42</ele>
        <time>2021-04-06T09:43:44Z</time>
      </trkpt>
      <trkpt lat="56.43914" lon="-6.13235">
        <ele>6.36</ele>
        <time>2021-04-06T09:43:47Z</time>
      </trkpt>
      <trkpt lat="56.44031" lon="-6.13177">
        <ele>4.15</ele>
        <time>2021-04-06T09:43:50Z</time>
      </trkpt>
      <trkpt lat="56.44108" lon="-6.13133">
        <ele>7.04</ele>
        <time>2021-04-06T09:43:52Z</time>
      </trkpt>
      <trkpt lat="56.44195" lon="-6.13073">
        <ele>12.41</ele>
        <time>2021-04-06T09:43:55Z</time>
      </trkpt>
      <trkpt lat="56.44391" lon="-6.12916">
        <ele>22.13</ele>
        <time>2021-04-06T09:43:58Z</time>
      </trkpt>
      <trkpt lat="56.44434" lon="-6.12889">
        <ele>2.8</ele>
        <time>2021-04-06T09:44:01Z</time>
      </trkpt>
      <trkpt lat="56.44455" lon="-6.12879">
        <ele>3.69</ele>
        <time>2021-04-06T09:44:04Z</time>
      </trkpt>
      <trkpt lat="56.44474" lon="-6.12875">
        <ele>4.51</ele>
        <time>2021-04-06T09:44:06Z</time>
      </trkpt>
      <trkpt lat="56.44555" lon="-6.1287">
        <ele>6.07</ele>
        <time>2021-04-06T09:44:09Z</time>
      </trkpt>
      <trkpt lat="56.44655" lon="-6.12857">
        <ele>7.49</ele>
        <time>2021-04-06T09:44:12Z</time>
      </trkpt>
      <trkpt lat="56.44685" lon="-6.12847">
        <ele>7.26</ele>
        <time>2021-04-06T09:44:15Z</time>
      </trkpt>
      <trkpt lat="56.44801" lon="-6.12791">
        <ele>8.26</ele>
        <time>2021-04-06T09:44:17Z</time>
      </trkpt>
      <trkpt lat="56.4483" lon="-6.1277">
        <ele>9.47</ele>
        <time>2021-04-06T09:44:20Z</time>
      </trkpt>
      <trkpt lat="56.4484" lon="-6.1276">
        <ele>10.16</ele>
        <time>2021-04-06T09:44:23Z</time>
      </trkpt>
      <trkpt lat="56.44888" lon="-6.1269">
        <ele>10.89</ele>
        <time>2021-04-06T09:44:26Z</time>
      </trkpt>
      <trkpt lat="56.44918" lon="-6.12653">
        <ele>10.2</ele>
        <time>2021-04-06T09:44:29Z</time>
      </trkpt>
      <trkpt lat="56.44947" lon="-6.12605">
        <ele>10.61</ele>
        <time>2021-04-06T09:44:31Z</time>
      </trkpt>
      <trkpt lat="56.44972" lon="-6.12556">
        <ele>10.27</ele>
        <time>2021-04-06T09:44:34Z</time>
      </trkpt>
      <trkpt lat="56.44972" lon="-6.12556">
        <ele>10.27</ele>
        <time>2021-04-06T09:44:34Z</time>
      </trkpt>
      <trkpt lat="56.44995" lon="-6.125">
        <ele>9.95</ele>
        <time>2021-04-06T09:44:36Z</time>
      </trkpt>
      <trkpt lat="56.45011" lon="-6.12451">
        <ele>11.58</ele>
        <time>2021-04-06T09:44:38Z</time>
      </trkpt>
      <trkpt lat="56.45024" lon="-6.12399">
        <ele>11.93</ele>
        <time>2021-04-06T09:44:40Z</time>
      </trkpt>
      <trkpt lat="56.45058" lon="-6.12178">
        <ele>10.48</ele>
        <time>2021-04-06T09:44:42Z</time>
      </trkpt>
      <trkpt lat="56.45063" lon="-6.1211">
        <ele>10.81</ele>
        <time>2021-04-06T09:44:44Z</time>
      </trkpt>
      <trkpt lat="56.45069" lon="-6.12067">
        <ele>9.13</ele>
        <time>2021-04-06T09:44:46Z</time>
      </trkpt>
      <trkpt lat="56.45074" lon="-6.12047">
        <ele>9.03</ele>
        <time>2021-04-06T09:44:48Z</time>
      </trkpt>
      <trkpt lat="56.45085" lon="-6.12008">
        <ele>8.13</ele>
        <time>2021-04-06T09:44:51Z</time>
      </trkpt>
      <trkpt lat="56.45112" lon="-6.11925">
        <ele>6.84</ele>
        <time>2021-04-06T09:44:53Z</time>
      </trkpt>
      <trkpt lat="56.45119" lon="-6.11881">
        <ele>12.77</ele>
        <time>2021-04-06T09:44:55Z</time>
      </trkpt>
      <trkpt lat="56.45123" lon="-6.11846">
        <ele>15.5</ele>
        <time>2021-04-06T09:44:57Z</time>
      </trkpt>
      <trkpt lat="56.45123" lon="-6.11788">
        <ele>15.78</ele>
        <time>2021-04-06T09:44:59Z</time>
      </trkpt>
      <trkpt lat="56.45109" lon="-6.11692">
        <ele>5.62</ele>
        <time>2021-04-06T09:45:01Z</time>
      </trkpt>
      <trkpt lat="56.45099" lon="-6.11569">
        <ele>7.95</ele>
        <time>2021-04-06T09:45:03Z</time>
      </trkpt>
      <trkpt lat="56.45097" lon="-6.11262">
        <ele>11.77</ele>
        <time>2021-04-06T09:45:05Z</time>
      </trkpt>
      <trkpt lat="56.45091" lon="-6.11149">
        <ele>14.21</ele>
        <time>2021-04-06T09:45:07Z</time>
      </trkpt>
      <trkpt lat="56.45089" lon="-6.11129">
        <ele>13.06</ele>
        <time>2021-04-06T09:45:09Z</time>
      </trkpt>
      <trkpt lat="56.45071" lon="-6.11038">
        <ele>12.67</ele>
        <time>2021-04-06T09:45:11Z</time>
      </trkpt>
      <trkpt lat="56.4506" lon="-6.10885">
        <ele>10.51</ele>
        <time>2021-04-06T09:45:13Z</time>
      </trkpt>
      <trkpt lat="56.45058" lon="-6.10832">
        <ele>9.71</ele>
        <time>2021-04-06T09:45:15Z</time>
      </trkpt>
      <trkpt lat="56.45058" lon="-6.10729">
        <ele>11.48</ele>
        <time>2021-04-06T09:45:17Z</time>
      </trkpt>
      <trkpt lat="56.45065" lon="-6.10671">
        <ele>12.32</ele>
        <time>2021-04-06T09:45:19Z</time>
      </trkpt>
      <trkpt lat="56.45067" lon="-6.10629">
        <ele>15.21</ele>
        <time>2021-04-06T09:45:21Z</time>
      </trkpt>
      <trkpt lat="56.45066" lon="-6.10565">
        <ele>17.24</ele>
        <time>2021-04-06T09:45:23Z</time>
      </trkpt>
      <trkpt lat="56.45059" lon="-6.10437">
        <ele>2.11</ele>
        <time>2021-04-06T09:45:25Z</time>
      </trkpt>
      <trkpt lat="56.4505" lon="-6.10365">
        <ele>7.43</ele>
        <time>2021-04-06T09:45:27Z</time>
      </trkpt>
      <trkpt lat="56.45051" lon="-6.10323">
        <ele>7.35</ele>
        <time>2021-04-06T09:45:29Z</time>
      </trkpt>
      <trkpt lat="56.45046" lon="-6.10216">
        <ele>12.84</ele>
        <time>2021-04-06T09:45:31Z</time>
      </trkpt>
      <trkpt lat="56.45043" lon="-6.10181">
        <ele>21.43</ele>
        <time>2021-04-06T09:45:33Z</time>
      </trkpt>
      <trkpt lat="56.45043" lon="-6.10155">
        <ele>24.13</ele>
        <time>2021-04-06T09:45:35Z</time>
      </trkpt>
      <trkpt lat="56.45052" lon="-6.1011">
        <ele>18.59</ele>
        <time>2021-04-06T09:45:37Z</time>
      </trkpt>
      <trkpt lat="56.45052" lon="-6.10064">
        <ele>15.62</ele>
        <time>2021-04-06T09:45:39Z</time>
      </trkpt>
      <trkpt lat="56.4505" lon="-6.10019">
        <ele>14.91</ele>
        <time>2021-04-06T09:45:41Z</time>
      </trkpt>
      <trkpt lat="56.45059" lon="-6.09963">
        <ele>7.49</ele>
        <time>2021-04-06T09:45:43Z</time>
      </trkpt>
      <trkpt lat="56.45063" lon="-6.09923">
        <ele>5.3</ele>
        <time>2021-04-06T09:45:46Z</time>
      </trkpt>
      <trkpt lat="56.45064" lon="-6.09881">
        <ele>5.23</ele>
        <time>2021-04-06T09:45:48Z</time>
      </trkpt>
      <trkpt lat="56.4506" lon="-6.09865">
        <ele>5.43</ele>
        <time>2021-04-06T09:45:50Z</time>
      </trkpt>
      <trkpt lat="56.44992" lon="-6.09694">
        <ele>4.95</ele>
        <time>2021-04-06T09:45:52Z</time>
      </trkpt>
      <trkpt lat="56.44963" lon="-6.09609">
        <ele>7.1</ele>
        <time>2021-04-06T09:45:54Z</time>
      </trkpt>
      <trkpt lat="56.44956" lon="-6.0958">
        <ele>8.49</ele>
        <time>2021-04-06T09:45:56Z</time>
      </trkpt>
      <trkpt lat="56.44951" lon="-6.09547">
        <ele>8.24</ele>
        <time>2021-04-06T09:45:58Z</time>
      </trkpt>
      <trkpt lat="56.44939" lon="-6.09338">
        <ele>5.06</ele>
        <time>2021-04-06T09:46:00Z</time>
      </trkpt>
      <trkpt lat="56.44934" lon="-6.09268">
        <ele>9.05</ele>
        <time>2021-04-06T09:46:02Z</time>
      </trkpt>
      <trkpt lat="56.4493" lon="-6.09231">
        <ele>13.04</ele>
        <time>2021-04-06T09:46:04Z</time>
      </trkpt>
      <trkpt lat="56.44907" lon="-6.09146">
        <ele>5.13</ele>
        <time>2021-04-06T09:46:06Z</time>
      </trkpt>
      <trkpt lat="56.44884" lon="-6.09079">
        <ele>6.62</ele>
        <time>2021-04-06T09:46:08Z</time>
      </trkpt>
      <trkpt lat="56.44875" lon="-6.09046">
        <ele>8.82</ele>
        <time>2021-04-06T09:46:10Z</time>
      </trkpt>
      <trkpt lat="56.44868" lon="-6.09013">
        <ele>9.94</ele>
        <time>2021-04-06T09:46:12Z</time>
      </trkpt>
      <trkpt lat="56.44864" lon="-6.08943">
        <ele>8.74</ele>
        <time>2021-04-06T09:46:14Z</time>
      </trkpt>
      <trkpt lat="56.44858" lon="-6.08817">
        <ele>13.24</ele>
        <time>2021-04-06T09:46:16Z</time>
      </trkpt>
      <trkpt lat="56.44856" lon="-6.08792">
        <ele>12.01</ele>
        <time>2021-04-06T09:46:18Z</time>
      </trkpt>
      <trkpt lat="56.44833" lon="-6.08647">
        <ele>14.19</ele>
        <time>2021-04-06T09:46:20Z</time>
      </trkpt>
      <trkpt lat="56.44826" lon="-6.08609">
        <ele>11.74</ele>
        <time>2021-04-06T09:46:22Z</time>
      </trkpt>
      <trkpt lat="56.44817" lon="-6.08574">
        <ele>8.06</ele>
        <time>2021-04-06T09:46:24Z</time>
      </trkpt>
      <trkpt lat="56.44789" lon="-6.08483">
        <ele>9.34</ele>
        <time>2021-04-06T09:46:26Z</time>
      </trkpt>
      <trkpt lat="56.44786" lon="-6.08465">
        <ele>9.86</ele>
        <time>2021-04-06T09:46:28Z</time>
      </trkpt>
      <trkpt lat="56.44785" lon="-6.08443">
        <ele>8.49</ele>
        <time>2021-04-06T09:46:30Z</time>
      </trkpt>
      <trkpt lat="56.44792" lon="-6.08321">
        <ele>13.68</ele>
        <time>2021-04-06T09:46:32Z</time>
      </trkpt>
      <trkpt lat="56.44805" lon="-6.08186">
        <ele>28.26</ele>
        <time>2021-04-06T09:46:34Z</time>
      </trkpt>
      <trkpt lat="56.44804" lon="-6.08166">
        <ele>27</ele>
        <time>2021-04-06T09:46:36Z</time>
      </trkpt>
      <trkpt lat="56.44803" lon="-6.08147">
        <ele>25.4</ele>
        <time>2021-04-06T09:46:38Z</time>
      </trkpt>
      <trkpt lat="56.44763" lon="-6.07949">
        <ele>2.8</ele>
        <time>2021-04-06T09:46:40Z</time>
      </trkpt>
      <trkpt lat="56.44753" lon="-6.07886">
        <ele>2.81</ele>
        <time>2021-04-06T09:46:43Z</time>
      </trkpt>
      <trkpt lat="56.44757" lon="-6.07815">
        <ele>1.74</ele>
        <time>2021-04-06T09:46:45Z</time>
      </trkpt>
      <trkpt lat="56.44772" lon="-6.07666">
        <ele>4.05</ele>
        <time>2021-04-06T09:46:47Z</time>
      </trkpt>
      <trkpt lat="56.4481" lon="-6.07375">
        <ele>2.83</ele>
        <time>2021-04-06T09:46:49Z</time>
      </trkpt>
      <trkpt lat="56.44813" lon="-6.07344">
        <ele>3.37</ele>
        <time>2021-04-06T09:46:51Z</time>
      </trkpt>
      <trkpt lat="56.44811" lon="-6.07313">
        <ele>3.82</ele>
        <time>2021-04-06T09:46:53Z</time>
      </trkpt>
      <trkpt lat="56.44779" lon="-6.0719">
        <ele>4.73</ele>
        <time>2021-04-06T09:46:55Z</time>
      </trkpt>
      <trkpt lat="56.44777" lon="-6.0717">
        <ele>4.17</ele>
        <time>2021-04-06T09:46:57Z</time>
      </trkpt>
      <trkpt lat="56.44778" lon="-6.07155">
        <ele>4.02</ele>
        <time>2021-04-06T09:46:59Z</time>
      </trkpt>
      <trkpt lat="56.4478" lon="-6.07138">
        <ele>3.84</ele>
        <time>2021-04-06T09:47:01Z</time>
      </trkpt>
      <trkpt lat="56.44885" lon="-6.06831">
        <ele>4.26</ele>
        <time>2021-04-06T09:47:03Z</time>
      </trkpt>
      <trkpt lat="56.44904" lon="-6.06766">
        <ele>4.76</ele>
        <time>2021-04-06T09:47:05Z</time>
      </trkpt>
      <trkpt lat="56.44908" lon="-6.06726">
        <ele>5.66</ele>
        <time>2021-04-06T09:47:07Z</time>
      </trkpt>
      <trkpt lat="56.44913" lon="-6.06643">
        <ele>7.61</ele>
        <time>2021-04-06T09:47:09Z</time>
      </trkpt>
      <trkpt lat="56.44917" lon="-6.06602">
        <ele>4.02</ele>
        <time>2021-04-06T09:47:11Z</time>
      </trkpt>
      <trkpt lat="56.44932" lon="-6.06496">
        <ele>3.37</ele>
        <time>2021-04-06T09:47:13Z</time>
      </trkpt>
      <trkpt lat="56.44938" lon="-6.06415">
        <ele>4.25</ele>
        <time>2021-04-06T09:47:15Z</time>
      </trkpt>
      <trkpt lat="56.44942" lon="-6.0639">
        <ele>4.58</ele>
        <time>2021-04-06T09:47:17Z</time>
      </trkpt>
      <trkpt lat="56.44947" lon="-6.06369">
        <ele>4.51</ele>
        <time>2021-04-06T09:47:19Z</time>
      </trkpt>
      <trkpt lat="56.44969" lon="-6.06313">
        <ele>5.11</ele>
        <time>2021-04-06T09:47:21Z</time>
      </trkpt>
      <trkpt lat="56.44991" lon="-6.06261">
        <ele>4.56</ele>
        <time>2021-04-06T09:47:23Z</time>
      </trkpt>
      <trkpt lat="56.45017" lon="-6.06213">
        <ele>3.64</ele>
        <time>2021-04-06T09:47:25Z</time>
      </trkpt>
      <trkpt lat="56.45026" lon="-6.06191">
        <ele>2.41</ele>
        <time>2021-04-06T09:47:27Z</time>
      </trkpt>
      <trkpt lat="56.45034" lon="-6.06168">
        <ele>3.63</ele>
        <time>2021-04-06T09:47:29Z</time>
      </trkpt>
      <trkpt lat="56.45045" lon="-6.06113">
        <ele>2.64</ele>
        <time>2021-04-06T09:47:31Z</time>
      </trkpt>
      <trkpt lat="56.45084" lon="-6.05854">
        <ele>5.5</ele>
        <time>2021-04-06T09:47:33Z</time>
      </trkpt>
      <trkpt lat="56.45104" lon="-6.05742">
        <ele>8.04</ele>
        <time>2021-04-06T09:47:35Z</time>
      </trkpt>
      <trkpt lat="56.45108" lon="-6.05628">
        <ele>4.28</ele>
        <time>2021-04-06T09:47:38Z</time>
      </trkpt>
      <trkpt lat="56.45117" lon="-6.0556">
        <ele>5.24</ele>
        <time>2021-04-06T09:47:40Z</time>
      </trkpt>
      <trkpt lat="56.45122" lon="-6.05488">
        <ele>7.72</ele>
        <time>2021-04-06T09:47:42Z</time>
      </trkpt>
      <trkpt lat="56.45125" lon="-6.05461">
        <ele>8.88</ele>
        <time>2021-04-06T09:47:44Z</time>
      </trkpt>
      <trkpt lat="56.45131" lon="-6.05445">
        <ele>8.76</ele>
        <time>2021-04-06T09:47:46Z</time>
      </trkpt>
      <trkpt lat="56.45131" lon="-6.05445">
        <ele>8.76</ele>
        <time>2021-04-06T09:47:46Z</time>
      </trkpt>
      <trkpt lat="56.45137" lon="-6.05431">
        <ele>7.98</ele>
        <time>2021-04-06T09:47:48Z</time>
      </trkpt>
      <trkpt lat="56.45201" lon="-6.05348">
        <ele>5.46</ele>
        <time>2021-04-06T09:47:50Z</time>
      </trkpt>
      <trkpt lat="56.45261" lon="-6.0526">
        <ele>4.72</ele>
        <time>2021-04-06T09:47:52Z</time>
      </trkpt>
      <trkpt lat="56.45273" lon="-6.05245">
        <ele>5.03</ele>
        <time>2021-04-06T09:47:54Z</time>
      </trkpt>
      <trkpt lat="56.45313" lon="-6.05211">
        <ele>5.27</ele>
        <time>2021-04-06T09:47:56Z</time>
      </trkpt>
      <trkpt lat="56.45364" lon="-6.05176">
        <ele>8.35</ele>
        <time>2021-04-06T09:47:58Z</time>
      </trkpt>
      <trkpt lat="56.45377" lon="-6.05151">
        <ele>9.57</ele>
        <time>2021-04-06T09:48:00Z</time>
      </trkpt>
      <trkpt lat="56.4542" lon="-6.05023">
        <ele>4.84</ele>
        <time>2021-04-06T09:48:01Z</time>
      </trkpt>
      <trkpt lat="56.45433" lon="-6.04991">
        <ele>5.16</ele>
        <time>2021-04-06T09:48:03Z</time>
      </trkpt>
      <trkpt lat="56.45439" lon="-6.04979">
        <ele>5.11</ele>
        <time>2021-04-06T09:48:05Z</time>
      </trkpt>
      <trkpt lat="56.45446" lon="-6.04972">
        <ele>4.98</ele>
        <time>2021-04-06T09:48:07Z</time>
      </trkpt>
      <trkpt lat="56.45467" lon="-6.04958">
        <ele>5.16</ele>
        <time>2021-04-06T09:48:09Z</time>
      </trkpt>
      <trkpt lat="56.45563" lon="-6.04926">
        <ele>4.14</ele>
        <time>2021-04-06T09:48:11Z</time>
      </trkpt>
      <trkpt lat="56.45602" lon="-6.04901">
        <ele>3.76</ele>
        <time>2021-04-06T09:48:13Z</time>
      </trkpt>
      <trkpt lat="56.45666" lon="-6.04847">
        <ele>5.54</ele>
        <time>2021-04-06T09:48:15Z</time>
      </trkpt>
      <trkpt lat="56.45699" lon="-6.04816">
        <ele>4.38</ele>
        <time>2021-04-06T09:48:17Z</time>
      </trkpt>
      <trkpt lat="56.45764" lon="-6.04745">
        <ele>3.68</ele>
        <time>2021-04-06T09:48:19Z</time>
      </trkpt>
      <trkpt lat="56.45795" lon="-6.04707">
        <ele>3.91</ele>
        <time>2021-04-06T09:48:21Z</time>
      </trkpt>
      <trkpt lat="56.45823" lon="-6.04661">
        <ele>5.65</ele>
        <time>2021-04-06T09:48:23Z</time>
      </trkpt>
      <trkpt lat="56.4584" lon="-6.04638">
        <ele>5.57</ele>
        <time>2021-04-06T09:48:25Z</time>
      </trkpt>
      <trkpt lat="56.45886" lon="-6.04588">
        <ele>5.95</ele>
        <time>2021-04-06T09:48:27Z</time>
      </trkpt>
      <trkpt lat="56.45917" lon="-6.04548">
        <ele>6.25</ele>
        <time>2021-04-06T09:48:29Z</time>
      </trkpt>
      <trkpt lat="56.45934" lon="-6.04524">
        <ele>6.68</ele>
        <time>2021-04-06T09:48:31Z</time>
      </trkpt>
      <trkpt lat="56.45985" lon="-6.04423">
        <ele>5.87</ele>
        <time>2021-04-06T09:48:33Z</time>
      </trkpt>
      <trkpt lat="56.46057" lon="-6.043">
        <ele>4.16</ele>
        <time>2021-04-06T09:48:35Z</time>
      </trkpt>
      <trkpt lat="56.46135" lon="-6.04136">
        <ele>10.14</ele>
        <time>2021-04-06T09:48:37Z</time>
      </trkpt>
      <trkpt lat="56.46168" lon="-6.04047">
        <ele>9.93</ele>
        <time>2021-04-06T09:48:39Z</time>
      </trkpt>
      <trkpt lat="56.46198" lon="-6.03952">
        <ele>8.82</ele>
        <time>2021-04-06T09:48:41Z</time>
      </trkpt>
      <trkpt lat="56.46236" lon="-6.03809">
        <ele>8.51</ele>
        <time>2021-04-06T09:48:43Z</time>
      </trkpt>
      <trkpt lat="56.46284" lon="-6.03591">
        <ele>6.77</ele>
        <time>2021-04-06T09:48:45Z</time>
      </trkpt>
      <trkpt lat="56.46288" lon="-6.03562">
        <ele>6.33</ele>
        <time>2021-04-06T09:48:47Z</time>
      </trkpt>
      <trkpt lat="56.46298" lon="-6.03469">
        <ele>4.5</ele>
        <time>2021-04-06T09:48:49Z</time>
      </trkpt>
      <trkpt lat="56.46304" lon="-6.03434">
        <ele>4.07</ele>
        <time>2021-04-06T09:48:51Z</time>
      </trkpt>
      <trkpt lat="56.4632" lon="-6.03378">
        <ele>4</ele>
        <time>2021-04-06T09:48:53Z</time>
      </trkpt>
      <trkpt lat="56.46331" lon="-6.03349">
        <ele>4.45</ele>
        <time>2021-04-06T09:48:55Z</time>
      </trkpt>
      <trkpt lat="56.46359" lon="-6.03284">
        <ele>5</ele>
        <time>2021-04-06T09:48:57Z</time>
      </trkpt>
      <trkpt lat="56.46387" lon="-6.03226">
        <ele>4.87</ele>
        <time>2021-04-06T09:48:59Z</time>
      </trkpt>
      <trkpt lat="56.46401" lon="-6.03213">
        <ele>4.57</ele>
        <time>2021-04-06T09:49:01Z</time>
      </trkpt>
      <trkpt lat="56.46476" lon="-6.03161">
        <ele>5.3</ele>
        <time>2021-04-06T09:49:03Z</time>
      </trkpt>
      <trkpt lat="56.46489" lon="-6.03149">
        <ele>5.86</ele>
        <time>2021-04-06T09:49:05Z</time>
      </trkpt>
      <trkpt lat="56.46502" lon="-6.03133">
        <ele>6.13</ele>
        <time>2021-04-06T09:49:06Z</time>
      </trkpt>
      <trkpt lat="56.46545" lon="-6.03057">
        <ele>4.22</ele>
        <time>2021-04-06T09:49:08Z</time>
      </trkpt>
      <trkpt lat="56.46549" lon="-6.03041">
        <ele>3.67</ele>
        <time>2021-04-06T09:49:10Z</time>
      </trkpt>
      <trkpt lat="56.46562" lon="-6.02976">
        <ele>3</ele>
        <time>2021-04-06T09:49:12Z</time>
      </trkpt>
      <trkpt lat="56.46623" lon="-6.02781">
        <ele>4.05</ele>
        <time>2021-04-06T09:49:14Z</time>
      </trkpt>
      <trkpt lat="56.46629" lon="-6.02752">
        <ele>3.71</ele>
        <time>2021-04-06T09:49:16Z</time>
      </trkpt>
      <trkpt lat="56.46633" lon="-6.02719">
        <ele>4.2</ele>
        <time>2021-04-06T09:49:18Z</time>
      </trkpt>
      <trkpt lat="56.46646" lon="-6.02449">
        <ele>3.73</ele>
        <time>2021-04-06T09:49:20Z</time>
      </trkpt>
      <trkpt lat="56.46649" lon="-6.02413">
        <ele>3.66</ele>
        <time>2021-04-06T09:49:22Z</time>
      </trkpt>
      <trkpt lat="56.46665" lon="-6.02278">
        <ele>4.29</ele>
        <time>2021-04-06T09:49:24Z</time>
      </trkpt>
      <trkpt lat="56.4667" lon="-6.02077">
        <ele>6.76</ele>
        <time>2021-04-06T09:49:26Z</time>
      </trkpt>
      <trkpt lat="56.46675" lon="-6.02053">
        <ele>6.82</ele>
        <time>2021-04-06T09:49:28Z</time>
      </trkpt>
      <trkpt lat="56.46682" lon="-6.02032">
        <ele>6.14</ele>
        <time>2021-04-06T09:49:30Z</time>
      </trkpt>
      <trkpt lat="56.46733" lon="-6.01902">
        <ele>5.11</ele>
        <time>2021-04-06T09:49:32Z</time>
      </trkpt>
      <trkpt lat="56.4674" lon="-6.01876">
        <ele>5.39</ele>
        <time>2021-04-06T09:49:34Z</time>
      </trkpt>
      <trkpt lat="56.46753" lon="-6.01817">
        <ele>5.94</ele>
        <time>2021-04-06T09:49:36Z</time>
      </trkpt>
      <trkpt lat="56.4676" lon="-6.01789">
        <ele>7.22</ele>
        <time>2021-04-06T09:49:38Z</time>
      </trkpt>
      <trkpt lat="56.46778" lon="-6.01742">
        <ele>7.84</ele>
        <time>2021-04-06T09:49:40Z</time>
      </trkpt>
      <trkpt lat="56.46787" lon="-6.01727">
        <ele>7.82</ele>
        <time>2021-04-06T09:49:42Z</time>
      </trkpt>
      <trkpt lat="56.46799" lon="-6.01717">
        <ele>7.02</ele>
        <time>2021-04-06T09:49:44Z</time>
      </trkpt>
      <trkpt lat="56.46903" lon="-6.01662">
        <ele>8.1</ele>
        <time>2021-04-06T09:49:46Z</time>
      </trkpt>
      <trkpt lat="56.46949" lon="-6.01634">
        <ele>6.97</ele>
        <time>2021-04-06T09:49:48Z</time>
      </trkpt>
      <trkpt lat="56.46974" lon="-6.01614">
        <ele>4.63</ele>
        <time>2021-04-06T09:49:50Z</time>
      </trkpt>
      <trkpt lat="56.47004" lon="-6.01575">
        <ele>4.29</ele>
        <time>2021-04-06T09:49:52Z</time>
      </trkpt>
      <trkpt lat="56.47015" lon="-6.01557">
        <ele>4.25</ele>
        <time>2021-04-06T09:49:54Z</time>
      </trkpt>
      <trkpt lat="56.47039" lon="-6.01514">
        <ele>4.64</ele>
        <time>2021-04-06T09:49:56Z</time>
      </trkpt>
      <trkpt lat="56.4708" lon="-6.01456">
        <ele>4.71</ele>
        <time>2021-04-06T09:49:58Z</time>
      </trkpt>
      <trkpt lat="56.4711" lon="-6.0142">
        <ele>5.81</ele>
        <time>2021-04-06T09:50:00Z</time>
      </trkpt>
      <trkpt lat="56.47124" lon="-6.01409">
        <ele>8.63</ele>
        <time>2021-04-06T09:50:02Z</time>
      </trkpt>
      <trkpt lat="56.47148" lon="-6.01395">
        <ele>7.49</ele>
        <time>2021-04-06T09:50:04Z</time>
      </trkpt>
      <trkpt lat="56.47153" lon="-6.01387">
        <ele>6.61</ele>
        <time>2021-04-06T09:50:06Z</time>
      </trkpt>
      <trkpt lat="56.47157" lon="-6.01375">
        <ele>7.03</ele>
        <time>2021-04-06T09:50:08Z</time>
      </trkpt>
      <trkpt lat="56.47167" lon="-6.01336">
        <ele>7.9</ele>
        <time>2021-04-06T09:50:09Z</time>
      </trkpt>
      <trkpt lat="56.47176" lon="-6.01313">
        <ele>7.43</ele>
        <time>2021-04-06T09:50:11Z</time>
      </trkpt>
      <trkpt lat="56.47188" lon="-6.01294">
        <ele>6.78</ele>
        <time>2021-04-06T09:50:13Z</time>
      </trkpt>
      <trkpt lat="56.47204" lon="-6.01281">
        <ele>6.14</ele>
        <time>2021-04-06T09:50:15Z</time>
      </trkpt>
      <trkpt lat="56.47227" lon="-6.01266">
        <ele>5.64</ele>
        <time>2021-04-06T09:50:17Z</time>
      </trkpt>
      <trkpt lat="56.47289" lon="-6.01216">
        <ele>5.64</ele>
        <time>2021-04-06T09:50:19Z</time>
      </trkpt>
      <trkpt lat="56.4732" lon="-6.01185">
        <ele>5.62</ele>
        <time>2021-04-06T09:50:21Z</time>
      </trkpt>
      <trkpt lat="56.47333" lon="-6.01168">
        <ele>5.93</ele>
        <time>2021-04-06T09:50:23Z</time>
      </trkpt>
      <trkpt lat="56.47343" lon="-6.01152">
        <ele>5.45</ele>
        <time>2021-04-06T09:50:25Z</time>
      </trkpt>
      <trkpt lat="56.47352" lon="-6.01134">
        <ele>5.25</ele>
        <time>2021-04-06T09:50:27Z</time>
      </trkpt>
      <trkpt lat="56.47386" lon="-6.01038">
        <ele>6.68</ele>
        <time>2021-04-06T09:50:29Z</time>
      </trkpt>
      <trkpt lat="56.47392" lon="-6.01025">
        <ele>6.9</ele>
        <time>2021-04-06T09:50:31Z</time>
      </trkpt>
      <trkpt lat="56.47399" lon="-6.01015">
        <ele>6.86</ele>
        <time>2021-04-06T09:50:33Z</time>
      </trkpt>
      <trkpt lat="56.47446" lon="-6.0097">
        <ele>5.2</ele>
        <time>2021-04-06T09:50:35Z</time>
      </trkpt>
      <trkpt lat="56.47462" lon="-6.00957">
        <ele>5.66</ele>
        <time>2021-04-06T09:50:37Z</time>
      </trkpt>
      <trkpt lat="56.47534" lon="-6.00922">
        <ele>4.8</ele>
        <time>2021-04-06T09:50:39Z</time>
      </trkpt>
      <trkpt lat="56.47665" lon="-6.00864">
        <ele>4.1</ele>
        <time>2021-04-06T09:50:41Z</time>
      </trkpt>
      <trkpt lat="56.47683" lon="-6.00849">
        <ele>3.87</ele>
        <time>2021-04-06T09:50:43Z</time>
      </trkpt>
      <trkpt lat="56.47695" lon="-6.00824">
        <ele>4.31</ele>
        <time>2021-04-06T09:50:45Z</time>
      </trkpt>
      <trkpt lat="56.47708" lon="-6.00781">
        <ele>4.91</ele>
        <time>2021-04-06T09:50:47Z</time>
      </trkpt>
      <trkpt lat="56.47719" lon="-6.00734">
        <ele>4.21</ele>
        <time>2021-04-06T09:50:49Z</time>
      </trkpt>
      <trkpt lat="56.47725" lon="-6.00695">
        <ele>4</ele>
        <time>2021-04-06T09:50:51Z</time>
      </trkpt>
      <trkpt lat="56.4773" lon="-6.00616">
        <ele>3.71</ele>
        <time>2021-04-06T09:50:53Z</time>
      </trkpt>
      <trkpt lat="56.47751" lon="-6.00435">
        <ele>4.24</ele>
        <time>2021-04-06T09:50:55Z</time>
      </trkpt>
      <trkpt lat="56.4777" lon="-6.00297">
        <ele>6.21</ele>
        <time>2021-04-06T09:50:57Z</time>
      </trkpt>
      <trkpt lat="56.47772" lon="-6.00259">
        <ele>6.05</ele>
        <time>2021-04-06T09:50:59Z</time>
      </trkpt>
      <trkpt lat="56.47772" lon="-6.00151">
        <ele>7.96</ele>
        <time>2021-04-06T09:51:01Z</time>
      </trkpt>
      <trkpt lat="56.47775" lon="-6.00102">
        <ele>8.41</ele>
        <time>2021-04-06T09:51:03Z</time>
      </trkpt>
      <trkpt lat="56.4778" lon="-6.00051">
        <ele>8.99</ele>
        <time>2021-04-06T09:51:05Z</time>
      </trkpt>
      <trkpt lat="56.47786" lon="-6.0002">
        <ele>9.7</ele>
        <time>2021-04-06T09:51:07Z</time>
      </trkpt>
      <trkpt lat="56.47793" lon="-5.99992">
        <ele>10.18</ele>
        <time>2021-04-06T09:51:09Z</time>
      </trkpt>
      <trkpt lat="56.47804" lon="-5.99961">
        <ele>10.93</ele>
        <time>2021-04-06T09:51:11Z</time>
      </trkpt>
      <trkpt lat="56.47855" lon="-5.99832">
        <ele>12.48</ele>
        <time>2021-04-06T09:51:12Z</time>
      </trkpt>
      <trkpt lat="56.4786" lon="-5.99815">
        <ele>12.1</ele>
        <time>2021-04-06T09:51:14Z</time>
      </trkpt>
      <trkpt lat="56.47866" lon="-5.9978">
        <ele>11.66</ele>
        <time>2021-04-06T09:51:16Z</time>
      </trkpt>
      <trkpt lat="56.47884" lon="-5.99547">
        <ele>16.69</ele>
        <time>2021-04-06T09:51:18Z</time>
      </trkpt>
      <trkpt lat="56.47887" lon="-5.9949">
        <ele>19.09</ele>
        <time>2021-04-06T09:51:20Z</time>
      </trkpt>
      <trkpt lat="56.47888" lon="-5.99432">
        <ele>20.09</ele>
        <time>2021-04-06T09:51:22Z</time>
      </trkpt>
      <trkpt lat="56.47888" lon="-5.99384">
        <ele>20.12</ele>
        <time>2021-04-06T09:51:24Z</time>
      </trkpt>
      <trkpt lat="56.47886" lon="-5.99342">
        <ele>19.85</ele>
        <time>2021-04-06T09:51:26Z</time>
      </trkpt>
      <trkpt lat="56.47879" lon="-5.99252">
        <ele>25.99</ele>
        <time>2021-04-06T09:51:28Z</time>
      </trkpt>
      <trkpt lat="56.47874" lon="-5.99217">
        <ele>29.07</ele>
        <time>2021-04-06T09:51:30Z</time>
      </trkpt>
      <trkpt lat="56.47864" lon="-5.99187">
        <ele>30.87</ele>
        <time>2021-04-06T09:51:32Z</time>
      </trkpt>
      <trkpt lat="56.47816" lon="-5.99066">
        <ele>29.3</ele>
        <time>2021-04-06T09:51:34Z</time>
      </trkpt>
      <trkpt lat="56.47804" lon="-5.99047">
        <ele>29.65</ele>
        <time>2021-04-06T09:51:36Z</time>
      </trkpt>
      <trkpt lat="56.47777" lon="-5.98967">
        <ele>27.52</ele>
        <time>2021-04-06T09:51:38Z</time>
      </trkpt>
      <trkpt lat="56.47724" lon="-5.98743">
        <ele>19.58</ele>
        <time>2021-04-06T09:51:40Z</time>
      </trkpt>
      <trkpt lat="56.47725" lon="-5.98716">
        <ele>19.24</ele>
        <time>2021-04-06T09:51:42Z</time>
      </trkpt>
      <trkpt lat="56.47725" lon="-5.98716">
        <ele>19.24</ele>
        <time>2021-04-06T09:51:42Z</time>
      </trkpt>
      <trkpt lat="56.47729" lon="-5.9871">
        <ele>18.76</ele>
        <time>2021-04-06T09:51:45Z</time>
      </trkpt>
      <trkpt lat="56.47757" lon="-5.98708">
        <ele>18</ele>
        <time>2021-04-06T09:51:48Z</time>
      </trkpt>
      <trkpt lat="56.47794" lon="-5.98694">
        <ele>18.01</ele>
        <time>2021-04-06T09:51:51Z</time>
      </trkpt>
      <trkpt lat="56.4781" lon="-5.98671">
        <ele>17.73</ele>
        <time>2021-04-06T09:51:54Z</time>
      </trkpt>
      <trkpt lat="56.47824" lon="-5.98663">
        <ele>16.62</ele>
        <time>2021-04-06T09:51:57Z</time>
      </trkpt>
      <trkpt lat="56.47861" lon="-5.98672">
        <ele>15.03</ele>
        <time>2021-04-06T09:52:00Z</time>
      </trkpt>
      <trkpt lat="56.47876" lon="-5.98678">
        <ele>15.86</ele>
        <time>2021-04-06T09:52:03Z</time>
      </trkpt>
      <trkpt lat="56.47882" lon="-5.98693">
        <ele>15.79</ele>
        <time>2021-04-06T09:52:06Z</time>
      </trkpt>
      <trkpt lat="56.47897" lon="-5.98751">
        <ele>15.28</ele>
        <time>2021-04-06T09:52:09Z</time>
      </trkpt>
      <trkpt lat="56.47909" lon="-5.98785">
        <ele>14.46</ele>
        <time>2021-04-06T09:52:12Z</time>
      </trkpt>
      <trkpt lat="56.47923" lon="-5.98814">
        <ele>13.92</ele>
        <time>2021-04-06T09:52:15Z</time>
      </trkpt>
      <trkpt lat="56.47976" lon="-5.98875">
        <ele>13.22</ele>
        <time>2021-04-06T09:52:18Z</time>
      </trkpt>
      <trkpt lat="56.48016" lon="-5.98889">
        <ele>14.59</ele>
        <time>2021-04-06T09:52:21Z</time>
      </trkpt>
      <trkpt lat="56.48147" lon="-5.98908">
        <ele>12.64</ele>
        <time>2021-04-06T09:52:24Z</time>
      </trkpt>
      <trkpt lat="56.48383" lon="-5.99">
        <ele>12.33</ele>
        <time>2021-04-06T09:52:27Z</time>
      </trkpt>
      <trkpt lat="56.48504" lon="-5.99043">
        <ele>15.69</ele>
        <time>2021-04-06T09:52:30Z</time>
      </trkpt>
      <trkpt lat="56.48563" lon="-5.99051">
        <ele>12.74</ele>
        <time>2021-04-06T09:52:33Z</time>
      </trkpt>
      <trkpt lat="56.48621" lon="-5.99051">
        <ele>12.3</ele>
        <time>2021-04-06T09:52:37Z</time>
      </trkpt>
      <trkpt lat="56.48795" lon="-5.99025">
        <ele>12.96</ele>
        <time>2021-04-06T09:52:40Z</time>
      </trkpt>
      <trkpt lat="56.48859" lon="-5.99005">
        <ele>13.75</ele>
        <time>2021-04-06T09:52:43Z</time>
      </trkpt>
      <trkpt lat="56.49038" lon="-5.98945">
        <ele>12.63</ele>
        <time>2021-04-06T09:52:46Z</time>
      </trkpt>
      <trkpt lat="56.49067" lon="-5.98933">
        <ele>12</ele>
        <time>2021-04-06T09:52:49Z</time>
      </trkpt>
      <trkpt lat="56.49074" lon="-5.98932">
        <ele>12</ele>
        <time>2021-04-06T09:52:52Z</time>
      </trkpt>
      <trkpt lat="56.49198" lon="-5.98884">
        <ele>12.08</ele>
        <time>2021-04-06T09:52:55Z</time>
      </trkpt>
      <trkpt lat="56.49306" lon="-5.98815">
        <ele>10.95</ele>
        <time>2021-04-06T09:52:58Z</time>
      </trkpt>
      <trkpt lat="56.49382" lon="-5.98758">
        <ele>10</ele>
        <time>2021-04-06T09:53:01Z</time>
      </trkpt>
      <trkpt lat="56.49406" lon="-5.98736">
        <ele>10.25</ele>
        <time>2021-04-06T09:53:04Z</time>
      </trkpt>
      <trkpt lat="56.49406" lon="-5.98736">
        <ele>10.25</ele>
        <time>2021-04-06T09:53:04Z</time>
      </trkpt>
      <trkpt lat="56.49406" lon="-5.98736">
        <ele>10.49</ele>
        <time>2021-04-06T09:53:04Z</time>
      </trkpt>
      <trkpt lat="56.49645" lon="-5.98199">
        <ele>12.44</ele>
        <time>2021-04-06T09:53:08Z</time>
      </trkpt>
      <trkpt lat="56.49729" lon="-5.97903">
        <ele>16.12</ele>
        <time>2021-04-06T09:53:13Z</time>
      </trkpt>
      <trkpt lat="56.49764" lon="-5.97802">
        <ele>16.59</ele>
        <time>2021-04-06T09:53:17Z</time>
      </trkpt>
      <trkpt lat="56.49792" lon="-5.97746">
        <ele>19.1</ele>
        <time>2021-04-06T09:53:22Z</time>
      </trkpt>
      <trkpt lat="56.49825" lon="-5.977">
        <ele>20.71</ele>
        <time>2021-04-06T09:53:26Z</time>
      </trkpt>
      <trkpt lat="56.50551" lon="-5.9676">
        <ele>23</ele>
        <time>2021-04-06T09:53:31Z</time>
      </trkpt>
      <trkpt lat="56.50572" lon="-5.96722">
        <ele>22.42</ele>
        <time>2021-04-06T09:53:35Z</time>
      </trkpt>
      <trkpt lat="56.50591" lon="-5.96676">
        <ele>22</ele>
        <time>2021-04-06T09:53:39Z</time>
      </trkpt>
      <trkpt lat="56.50769" lon="-5.96192">
        <ele>33.76</ele>
        <time>2021-04-06T09:53:44Z</time>
      </trkpt>
      <trkpt lat="56.5078" lon="-5.96146">
        <ele>35.67</ele>
        <time>2021-04-06T09:53:48Z</time>
      </trkpt>
      <trkpt lat="56.50797" lon="-5.9602">
        <ele>41.06</ele>
        <time>2021-04-06T09:53:53Z</time>
      </trkpt>
      <trkpt lat="56.50806" lon="-5.95975">
        <ele>42.84</ele>
        <time>2021-04-06T09:53:57Z</time>
      </trkpt>
      <trkpt lat="56.5082" lon="-5.95943">
        <ele>42.94</ele>
        <time>2021-04-06T09:54:02Z</time>
      </trkpt>
      <trkpt lat="56.50842" lon="-5.95918">
        <ele>41.4</ele>
        <time>2021-04-06T09:54:06Z</time>
      </trkpt>
      <trkpt lat="56.50896" lon="-5.95861">
        <ele>39.77</ele>
        <time>2021-04-06T09:54:11Z</time>
      </trkpt>
      <trkpt lat="56.50923" lon="-5.95826">
        <ele>41.12</ele>
        <time>2021-04-06T09:54:15Z</time>
      </trkpt>
      <trkpt lat="56.50973" lon="-5.95731">
        <ele>44.85</ele>
        <time>2021-04-06T09:54:20Z</time>
      </trkpt>
      <trkpt lat="56.51006" lon="-5.95664">
        <ele>42.9</ele>
        <time>2021-04-06T09:54:24Z</time>
      </trkpt>
      <trkpt lat="56.51078" lon="-5.95453">
        <ele>34.19</ele>
        <time>2021-04-06T09:54:29Z</time>
      </trkpt>
      <trkpt lat="56.51084" lon="-5.95428">
        <ele>33</ele>
        <time>2021-04-06T09:54:33Z</time>
      </trkpt>
      <trkpt lat="56.51085" lon="-5.95399">
        <ele>32.96</ele>
        <time>2021-04-06T09:54:38Z</time>
      </trkpt>
      <trkpt lat="56.51081" lon="-5.95363">
        <ele>33.1</ele>
        <time>2021-04-06T09:54:42Z</time>
      </trkpt>
      <trkpt lat="56.5107" lon="-5.95333">
        <ele>32.01</ele>
        <time>2021-04-06T09:54:47Z</time>
      </trkpt>
      <trkpt lat="56.51002" lon="-5.95184">
        <ele>26.27</ele>
        <time>2021-04-06T09:54:51Z</time>
      </trkpt>
      <trkpt lat="56.50993" lon="-5.95151">
        <ele>24.61</ele>
        <time>2021-04-06T09:54:55Z</time>
      </trkpt>
      <trkpt lat="56.50991" lon="-5.95097">
        <ele>23.32</ele>
        <time>2021-04-06T09:55:00Z</time>
      </trkpt>
      <trkpt lat="56.51001" lon="-5.95026">
        <ele>20.77</ele>
        <time>2021-04-06T09:55:04Z</time>
      </trkpt>
      <trkpt lat="56.51021" lon="-5.9493">
        <ele>15.25</ele>
        <time>2021-04-06T09:55:09Z</time>
      </trkpt>
      <trkpt lat="56.51036" lon="-5.9491">
        <ele>14.64</ele>
        <time>2021-04-06T09:55:13Z</time>
      </trkpt>
      <trkpt lat="56.51169" lon="-5.9481">
        <ele>12</ele>
        <time>2021-04-06T09:55:18Z</time>
      </trkpt>
      <trkpt lat="56.51304" lon="-5.94703">
        <ele>13.06</ele>
        <time>2021-04-06T09:55:22Z</time>
      </trkpt>
      <trkpt lat="56.51343" lon="-5.94676">
        <ele>12.66</ele>
        <time>2021-04-06T09:55:27Z</time>
      </trkpt>
      <trkpt lat="56.51352" lon="-5.94674">
        <ele>12.71</ele>
        <time>2021-04-06T09:55:31Z</time>
      </trkpt>
      <trkpt lat="56.51352" lon="-5.94674">
        <ele>12.71</ele>
        <time>2021-04-06T09:55:31Z</time>
      </trkpt>
      <trkpt lat="56.51378" lon="-5.94677">
        <ele>12.63</ele>
        <time>2021-04-06T09:55:38Z</time>
      </trkpt>
      <trkpt lat="56.51441" lon="-5.9469">
        <ele>13.16</ele>
        <time>2021-04-06T09:55:45Z</time>
      </trkpt>
      <trkpt lat="56.51499" lon="-5.94707">
        <ele>11.05</ele>
        <time>2021-04-06T09:55:52Z</time>
      </trkpt>
      <trkpt lat="56.51546" lon="-5.94734">
        <ele>12</ele>
        <time>2021-04-06T09:55:59Z</time>
      </trkpt>
      <trkpt lat="56.51676" lon="-5.94827">
        <ele>9.67</ele>
        <time>2021-04-06T09:56:06Z</time>
      </trkpt>
      <trkpt lat="56.51698" lon="-5.94832">
        <ele>8.88</ele>
        <time>2021-04-06T09:56:12Z</time>
      </trkpt>
      <trkpt lat="56.51719" lon="-5.94817">
        <ele>8.13</ele>
        <time>2021-04-06T09:56:19Z</time>
      </trkpt>
      <trkpt lat="56.5173" lon="-5.94865">
        <ele>8.18</ele>
        <time>2021-04-06T09:56:23Z</time>
      </trkpt>
      <trkpt lat="56.51748" lon="-5.94918">
        <ele>7.25</ele>
        <time>2021-04-06T09:56:26Z</time>
      </trkpt>
      <trkpt lat="56.51753" lon="-5.94945">
        <ele>6.64</ele>
        <time>2021-04-06T09:56:30Z</time>
      </trkpt>
      <trkpt lat="56.51754" lon="-5.95018">
        <ele>7.73</ele>
        <time>2021-04-06T09:56:33Z</time>
      </trkpt>
      <trkpt lat="56.51764" lon="-5.95073">
        <ele>9.6</ele>
        <time>2021-04-06T09:56:37Z</time>
      </trkpt>
      <trkpt lat="56.5178" lon="-5.95122">
        <ele>11.66</ele>
        <time>2021-04-06T09:56:40Z</time>
      </trkpt>
      <trkpt lat="56.51796" lon="-5.95154">
        <ele>10.98</ele>
        <time>2021-04-06T09:56:44Z</time>
      </trkpt>
      <trkpt lat="56.51925" lon="-5.95255">
        <ele>16.08</ele>
        <time>2021-04-06T09:56:47Z</time>
      </trkpt>
      <trkpt lat="56.51973" lon="-5.95296">
        <ele>16.65</ele>
        <time>2021-04-06T09:56:51Z</time>
      </trkpt>
      <trkpt lat="56.52009" lon="-5.95339">
        <ele>12.17</ele>
        <time>2021-04-06T09:56:54Z</time>
      </trkpt>
      <trkpt lat="56.52025" lon="-5.95367">
        <ele>13.83</ele>
        <time>2021-04-06T09:56:58Z</time>
      </trkpt>
      <trkpt lat="56.52048" lon="-5.95393">
        <ele>15.49</ele>
        <time>2021-04-06T09:57:02Z</time>
      </trkpt>
      <trkpt lat="56.52128" lon="-5.95461">
        <ele>13.53</ele>
        <time>2021-04-06T09:57:05Z</time>
      </trkpt>
      <trkpt lat="56.52167" lon="-5.95506">
        <ele>14.08</ele>
        <time>2021-04-06T09:57:09Z</time>
      </trkpt>
      <trkpt lat="56.52213" lon="-5.9558">
        <ele>12.23</ele>
        <time>2021-04-06T09:57:12Z</time>
      </trkpt>
      <trkpt lat="56.5232" lon="-5.95734">
        <ele>11.14</ele>
        <time>2021-04-06T09:57:16Z</time>
      </trkpt>
      <trkpt lat="56.52385" lon="-5.95796">
        <ele>9.32</ele>
        <time>2021-04-06T09:57:19Z</time>
      </trkpt>
      <trkpt lat="56.52472" lon="-5.95865">
        <ele>9.68</ele>
        <time>2021-04-06T09:57:23Z</time>
      </trkpt>
      <trkpt lat="56.52532" lon="-5.95907">
        <ele>6.82</ele>
        <time>2021-04-06T09:57:26Z</time>
      </trkpt>
      <trkpt lat="56.52573" lon="-5.95927">
        <ele>7.89</ele>
        <time>2021-04-06T09:57:30Z</time>
      </trkpt>
      <trkpt lat="56.52619" lon="-5.95954">
        <ele>9.59</ele>
        <time>2021-04-06T09:57:33Z</time>
      </trkpt>
      <trkpt lat="56.52767" lon="-5.96122">
        <ele>7.62</ele>
        <time>2021-04-06T09:57:37Z</time>
      </trkpt>
      <trkpt lat="56.52844" lon="-5.96213">
        <ele>9.24</ele>
        <time>2021-04-06T09:57:40Z</time>
      </trkpt>
      <trkpt lat="56.52888" lon="-5.9627">
        <ele>7.56</ele>
        <time>2021-04-06T09:57:44Z</time>
      </trkpt>
      <trkpt lat="56.52952" lon="-5.96368">
        <ele>5.61</ele>
        <time>2021-04-06T09:57:47Z</time>
      </trkpt>
      <trkpt lat="56.52981" lon="-5.96418">
        <ele>4.84</ele>
        <time>2021-04-06T09:57:51Z</time>
      </trkpt>
      <trkpt lat="56.52999" lon="-5.96469">
        <ele>3.14</ele>
        <time>2021-04-06T09:57:54Z</time>
      </trkpt>
      <trkpt lat="56.53011" lon="-5.96541">
        <ele>4.38</ele>
        <time>2021-04-06T09:57:58Z</time>
      </trkpt>
      <trkpt lat="56.53006" lon="-5.96624">
        <ele>6.11</ele>
        <time>2021-04-06T09:58:01Z</time>
      </trkpt>
      <trkpt lat="56.53008" lon="-5.9669">
        <ele>7.11</ele>
        <time>2021-04-06T09:58:05Z</time>
      </trkpt>
      <trkpt lat="56.53025" lon="-5.96964">
        <ele>9.42</ele>
        <time>2021-04-06T09:58:08Z</time>
      </trkpt>
      <trkpt lat="56.5306" lon="-5.97214">
        <ele>6.25</ele>
        <time>2021-04-06T09:58:12Z</time>
      </trkpt>
      <trkpt lat="56.53076" lon="-5.97375">
        <ele>5.78</ele>
        <time>2021-04-06T09:58:15Z</time>
      </trkpt>
      <trkpt lat="56.53105" lon="-5.97522">
        <ele>7.39</ele>
        <time>2021-04-06T09:58:19Z</time>
      </trkpt>
      <trkpt lat="56.53119" lon="-5.97564">
        <ele>6.63</ele>
        <time>2021-04-06T09:58:23Z</time>
      </trkpt>
      <trkpt lat="56.53127" lon="-5.97577">
        <ele>6</ele>
        <time>2021-04-06T09:58:26Z</time>
      </trkpt>
      <trkpt lat="56.53153" lon="-5.97602">
        <ele>5.5</ele>
        <time>2021-04-06T09:58:30Z</time>
      </trkpt>
      <trkpt lat="56.53205" lon="-5.97643">
        <ele>9.43</ele>
        <time>2021-04-06T09:58:33Z</time>
      </trkpt>
      <trkpt lat="56.53263" lon="-5.97694">
        <ele>17.39</ele>
        <time>2021-04-06T09:58:37Z</time>
      </trkpt>
      <trkpt lat="56.53296" lon="-5.97731">
        <ele>20.52</ele>
        <time>2021-04-06T09:58:40Z</time>
      </trkpt>
      <trkpt lat="56.53371" lon="-5.97831">
        <ele>26.11</ele>
        <time>2021-04-06T09:58:44Z</time>
      </trkpt>
      <trkpt lat="56.53394" lon="-5.97855">
        <ele>26.43</ele>
        <time>2021-04-06T09:58:47Z</time>
      </trkpt>
      <trkpt lat="56.53394" lon="-5.97855">
        <ele>26.43</ele>
        <time>2021-04-06T09:58:47Z</time>
      </trkpt>
      <trkpt lat="56.53834" lon="-5.98078">
        <ele>52.12</ele>
        <time>2021-04-06T09:58:51Z</time>
      </trkpt>
      <trkpt lat="56.5386" lon="-5.98096">
        <ele>54.48</ele>
        <time>2021-04-06T09:58:56Z</time>
      </trkpt>
      <trkpt lat="56.53923" lon="-5.98159">
        <ele>59.26</ele>
        <time>2021-04-06T09:59:00Z</time>
      </trkpt>
      <trkpt lat="56.53947" lon="-5.98171">
        <ele>60.83</ele>
        <time>2021-04-06T09:59:04Z</time>
      </trkpt>
      <trkpt lat="56.54042" lon="-5.98189">
        <ele>64.88</ele>
        <time>2021-04-06T09:59:08Z</time>
      </trkpt>
      <trkpt lat="56.54061" lon="-5.9818">
        <ele>66.08</ele>
        <time>2021-04-06T09:59:12Z</time>
      </trkpt>
      <trkpt lat="56.54082" lon="-5.98149">
        <ele>67.65</ele>
        <time>2021-04-06T09:59:16Z</time>
      </trkpt>
      <trkpt lat="56.54107" lon="-5.98085">
        <ele>69.29</ele>
        <time>2021-04-06T09:59:20Z</time>
      </trkpt>
      <trkpt lat="56.54142" lon="-5.97933">
        <ele>63.19</ele>
        <time>2021-04-06T09:59:25Z</time>
      </trkpt>
      <trkpt lat="56.54157" lon="-5.9789">
        <ele>62.06</ele>
        <time>2021-04-06T09:59:29Z</time>
      </trkpt>
      <trkpt lat="56.54185" lon="-5.97849">
        <ele>60.29</ele>
        <time>2021-04-06T09:59:33Z</time>
      </trkpt>
      <trkpt lat="56.54225" lon="-5.97818">
        <ele>55.71</ele>
        <time>2021-04-06T09:59:37Z</time>
      </trkpt>
      <trkpt lat="56.54393" lon="-5.97733">
        <ele>49.12</ele>
        <time>2021-04-06T09:59:41Z</time>
      </trkpt>
      <trkpt lat="56.54418" lon="-5.97703">
        <ele>50.5</ele>
        <time>2021-04-06T09:59:45Z</time>
      </trkpt>
      <trkpt lat="56.54476" lon="-5.97614">
        <ele>50.58</ele>
        <time>2021-04-06T09:59:49Z</time>
      </trkpt>
      <trkpt lat="56.54505" lon="-5.97584">
        <ele>47.48</ele>
        <time>2021-04-06T09:59:54Z</time>
      </trkpt>
      <trkpt lat="56.54538" lon="-5.97574">
        <ele>48.34</ele>
        <time>2021-04-06T09:59:58Z</time>
      </trkpt>
      <trkpt lat="56.54656" lon="-5.97594">
        <ele>49.16</ele>
        <time>2021-04-06T10:00:02Z</time>
      </trkpt>
      <trkpt lat="56.54701" lon="-5.97592">
        <ele>45.48</ele>
        <time>2021-04-06T10:00:06Z</time>
      </trkpt>
      <trkpt lat="56.54805" lon="-5.97538">
        <ele>39.84</ele>
        <time>2021-04-06T10:00:10Z</time>
      </trkpt>
      <trkpt lat="56.54846" lon="-5.97538">
        <ele>40.1</ele>
        <time>2021-04-06T10:00:14Z</time>
      </trkpt>
      <trkpt lat="56.55028" lon="-5.97618">
        <ele>42.19</ele>
        <time>2021-04-06T10:00:19Z</time>
      </trkpt>
      <trkpt lat="56.55087" lon="-5.9765">
        <ele>45.5</ele>
        <time>2021-04-06T10:00:23Z</time>
      </trkpt>
      <trkpt lat="56.55124" lon="-5.97683">
        <ele>48.39</ele>
        <time>2021-04-06T10:00:27Z</time>
      </trkpt>
      <trkpt lat="56.55239" lon="-5.97773">
        <ele>53.62</ele>
        <time>2021-04-06T10:00:31Z</time>
      </trkpt>
      <trkpt lat="56.55304" lon="-5.97804">
        <ele>52.81</ele>
        <time>2021-04-06T10:00:35Z</time>
      </trkpt>
      <trkpt lat="56.55304" lon="-5.97804">
        <ele>52.81</ele>
        <time>2021-04-06T10:00:35Z</time>
      </trkpt>
      <trkpt lat="56.55318" lon="-5.97827">
        <ele>52.2</ele>
        <time>2021-04-06T10:00:41Z</time>
      </trkpt>
      <trkpt lat="56.55377" lon="-5.9795">
        <ele>53.14</ele>
        <time>2021-04-06T10:00:46Z</time>
      </trkpt>
      <trkpt lat="56.55646" lon="-5.98411">
        <ele>49.97</ele>
        <time>2021-04-06T10:00:51Z</time>
      </trkpt>
      <trkpt lat="56.55702" lon="-5.98494">
        <ele>51.25</ele>
        <time>2021-04-06T10:00:57Z</time>
      </trkpt>
      <trkpt lat="56.55761" lon="-5.98574">
        <ele>55.98</ele>
        <time>2021-04-06T10:01:02Z</time>
      </trkpt>
      <trkpt lat="56.55925" lon="-5.9872">
        <ele>47.33</ele>
        <time>2021-04-06T10:01:07Z</time>
      </trkpt>
      <trkpt lat="56.56027" lon="-5.98805">
        <ele>40.04</ele>
        <time>2021-04-06T10:01:13Z</time>
      </trkpt>
      <trkpt lat="56.56126" lon="-5.98924">
        <ele>38.12</ele>
        <time>2021-04-06T10:01:18Z</time>
      </trkpt>
      <trkpt lat="56.56175" lon="-5.98975">
        <ele>37.98</ele>
        <time>2021-04-06T10:01:23Z</time>
      </trkpt>
      <trkpt lat="56.56452" lon="-5.9917">
        <ele>28.3</ele>
        <time>2021-04-06T10:01:29Z</time>
      </trkpt>
      <trkpt lat="56.56499" lon="-5.99191">
        <ele>24.86</ele>
        <time>2021-04-06T10:01:34Z</time>
      </trkpt>
      <trkpt lat="56.56547" lon="-5.992">
        <ele>22.85</ele>
        <time>2021-04-06T10:01:39Z</time>
      </trkpt>
      <trkpt lat="56.5659" lon="-5.99226">
        <ele>22.08</ele>
        <time>2021-04-06T10:01:45Z</time>
      </trkpt>
      <trkpt lat="56.56668" lon="-5.99319">
        <ele>22.9</ele>
        <time>2021-04-06T10:01:50Z</time>
      </trkpt>
      <trkpt lat="56.57064" lon="-5.99675">
        <ele>30.62</ele>
        <time>2021-04-06T10:01:55Z</time>
      </trkpt>
      <trkpt lat="56.57092" lon="-5.99705">
        <ele>32.68</ele>
        <time>2021-04-06T10:02:01Z</time>
      </trkpt>
      <trkpt lat="56.57118" lon="-5.99746">
        <ele>35.23</ele>
        <time>2021-04-06T10:02:06Z</time>
      </trkpt>
      <trkpt lat="56.57178" lon="-5.99894">
        <ele>40.99</ele>
        <time>2021-04-06T10:02:12Z</time>
      </trkpt>
      <trkpt lat="56.57259" lon="-6.0006">
        <ele>43.55</ele>
        <time>2021-04-06T10:02:17Z</time>
      </trkpt>
      <trkpt lat="56.57296" lon="-6.00123">
        <ele>45.17</ele>
        <time>2021-04-06T10:02:22Z</time>
      </trkpt>
      <trkpt lat="56.57342" lon="-6.00173">
        <ele>47.48</ele>
        <time>2021-04-06T10:02:28Z</time>
      </trkpt>
      <trkpt lat="56.57376" lon="-6.00193">
        <ele>49.4</ele>
        <time>2021-04-06T10:02:33Z</time>
      </trkpt>
      <trkpt lat="56.57442" lon="-6.0019">
        <ele>56.14</ele>
        <time>2021-04-06T10:02:38Z</time>
      </trkpt>
      <trkpt lat="56.57517" lon="-6.002">
        <ele>58.51</ele>
        <time>2021-04-06T10:02:44Z</time>
      </trkpt>
      <trkpt lat="56.57552" lon="-6.00224">
        <ele>58.63</ele>
        <time>2021-04-06T10:02:49Z</time>
      </trkpt>
      <trkpt lat="56.57625" lon="-6.00295">
        <ele>63.78</ele>
        <time>2021-04-06T10:02:54Z</time>
      </trkpt>
      <trkpt lat="56.57712" lon="-6.00405">
        <ele>67.61</ele>
        <time>2021-04-06T10:03:00Z</time>
      </trkpt>
      <trkpt lat="56.57849" lon="-6.00548">
        <ele>72.44</ele>
        <time>2021-04-06T10:03:05Z</time>
      </trkpt>
      <trkpt lat="56.57884" lon="-6.0059">
        <ele>73.88</ele>
        <time>2021-04-06T10:03:10Z</time>
      </trkpt>
      <trkpt lat="56.5792" lon="-6.00643">
        <ele>76.04</ele>
        <time>2021-04-06T10:03:16Z</time>
      </trkpt>
      <trkpt lat="56.57951" lon="-6.00704">
        <ele>78.41</ele>
        <time>2021-04-06T10:03:21Z</time>
      </trkpt>
      <trkpt lat="56.58012" lon="-6.00895">
        <ele>83.85</ele>
        <time>2021-04-06T10:03:27Z</time>
      </trkpt>
      <trkpt lat="56.58029" lon="-6.00951">
        <ele>86.29</ele>
        <time>2021-04-06T10:03:32Z</time>
      </trkpt>
      <trkpt lat="56.5804" lon="-6.01013">
        <ele>87.93</ele>
        <time>2021-04-06T10:03:37Z</time>
      </trkpt>
      <trkpt lat="56.58055" lon="-6.01049">
        <ele>88.59</ele>
        <time>2021-04-06T10:03:43Z</time>
      </trkpt>
      <trkpt lat="56.58078" lon="-6.01067">
        <ele>88.57</ele>
        <time>2021-04-06T10:03:48Z</time>
      </trkpt>
      <trkpt lat="56.58219" lon="-6.01071">
        <ele>99.83</ele>
        <time>2021-04-06T10:03:53Z</time>
      </trkpt>
      <trkpt lat="56.58252" lon="-6.01097">
        <ele>103.96</ele>
        <time>2021-04-06T10:03:59Z</time>
      </trkpt>
      <trkpt lat="56.58282" lon="-6.01164">
        <ele>108.79</ele>
        <time>2021-04-06T10:04:04Z</time>
      </trkpt>
      <trkpt lat="56.58318" lon="-6.01224">
        <ele>112.76</ele>
        <time>2021-04-06T10:04:09Z</time>
      </trkpt>
      <trkpt lat="56.58375" lon="-6.01299">
        <ele>119.01</ele>
        <time>2021-04-06T10:04:15Z</time>
      </trkpt>
      <trkpt lat="56.58415" lon="-6.01343">
        <ele>120.75</ele>
        <time>2021-04-06T10:04:20Z</time>
      </trkpt>
      <trkpt lat="56.58455" lon="-6.01365">
        <ele>122.98</ele>
        <time>2021-04-06T10:04:25Z</time>
      </trkpt>
      <trkpt lat="56.58598" lon="-6.01388">
        <ele>133.94</ele>
        <time>2021-04-06T10:04:31Z</time>
      </trkpt>
      <trkpt lat="56.58638" lon="-6.01409">
        <ele>136.23</ele>
        <time>2021-04-06T10:04:36Z</time>
      </trkpt>
      <trkpt lat="56.58678" lon="-6.01438">
        <ele>137.45</ele>
        <time>2021-04-06T10:04:41Z</time>
      </trkpt>
      <trkpt lat="56.5896" lon="-6.0173">
        <ele>140.55</ele>
        <time>2021-04-06T10:04:47Z</time>
      </trkpt>
      <trkpt lat="56.59037" lon="-6.01806">
        <ele>138.01</ele>
        <time>2021-04-06T10:04:52Z</time>
      </trkpt>
      <trkpt lat="56.5922" lon="-6.01926">
        <ele>137.12</ele>
        <time>2021-04-06T10:04:58Z</time>
      </trkpt>
      <trkpt lat="56.59657" lon="-6.02323">
        <ele>106.61</ele>
        <time>2021-04-06T10:05:03Z</time>
      </trkpt>
      <trkpt lat="56.5975" lon="-6.02414">
        <ele>107.13</ele>
        <time>2021-04-06T10:05:08Z</time>
      </trkpt>
      <trkpt lat="56.5975" lon="-6.02414">
        <ele>107.13</ele>
        <time>2021-04-06T10:05:08Z</time>
      </trkpt>
      <trkpt lat="56.59829" lon="-6.02527">
        <ele>111.96</ele>
        <time>2021-04-06T10:05:14Z</time>
      </trkpt>
      <trkpt lat="56.59894" lon="-6.02676">
        <ele>114.84</ele>
        <time>2021-04-06T10:05:20Z</time>
      </trkpt>
      <trkpt lat="56.59983" lon="-6.02994">
        <ele>115.85</ele>
        <time>2021-04-06T10:05:26Z</time>
      </trkpt>
      <trkpt lat="56.60094" lon="-6.03402">
        <ele>106.69</ele>
        <time>2021-04-06T10:05:32Z</time>
      </trkpt>
      <trkpt lat="56.60139" lon="-6.03547">
        <ele>95.33</ele>
        <time>2021-04-06T10:05:37Z</time>
      </trkpt>
      <trkpt lat="56.60203" lon="-6.03677">
        <ele>91.94</ele>
        <time>2021-04-06T10:05:43Z</time>
      </trkpt>
      <trkpt lat="56.60586" lon="-6.04285">
        <ele>83.65</ele>
        <time>2021-04-06T10:05:49Z</time>
      </trkpt>
      <trkpt lat="56.60632" lon="-6.04396">
        <ele>85.48</ele>
        <time>2021-04-06T10:05:55Z</time>
      </trkpt>
      <trkpt lat="56.60665" lon="-6.04531">
        <ele>82.5</ele>
        <time>2021-04-06T10:06:01Z</time>
      </trkpt>
      <trkpt lat="56.60705" lon="-6.04868">
        <ele>70.44</ele>
        <time>2021-04-06T10:06:07Z</time>
      </trkpt>
      <trkpt lat="56.60719" lon="-6.04933">
        <ele>68.22</ele>
        <time>2021-04-06T10:06:13Z</time>
      </trkpt>
      <trkpt lat="56.60731" lon="-6.04988">
        <ele>68.54</ele>
        <time>2021-04-06T10:06:18Z</time>
      </trkpt>
      <trkpt lat="56.60764" lon="-6.05085">
        <ele>71.03</ele>
        <time>2021-04-06T10:06:24Z</time>
      </trkpt>
      <trkpt lat="56.60858" lon="-6.05238">
        <ele>74.79</ele>
        <time>2021-04-06T10:06:30Z</time>
      </trkpt>
      <trkpt lat="56.61046" lon="-6.05558">
        <ele>78.03</ele>
        <time>2021-04-06T10:06:36Z</time>
      </trkpt>
      <trkpt lat="56.61116" lon="-6.05753">
        <ele>68.81</ele>
        <time>2021-04-06T10:06:42Z</time>
      </trkpt>
      <trkpt lat="56.61159" lon="-6.05986">
        <ele>66.62</ele>
        <time>2021-04-06T10:06:48Z</time>
      </trkpt>
      <trkpt lat="56.61172" lon="-6.06095">
        <ele>68.39</ele>
        <time>2021-04-06T10:06:53Z</time>
      </trkpt>
      <trkpt lat="56.6118" lon="-6.06185">
        <ele>68.12</ele>
        <time>2021-04-06T10:06:59Z</time>
      </trkpt>
      <trkpt lat="56.61208" lon="-6.06436">
        <ele>63.46</ele>
        <time>2021-04-06T10:07:05Z</time>
      </trkpt>
      <trkpt lat="56.61217" lon="-6.06514">
        <ele>64.57</ele>
        <time>2021-04-06T10:07:11Z</time>
      </trkpt>
      <trkpt lat="56.61235" lon="-6.06612">
        <ele>66.18</ele>
        <time>2021-04-06T10:07:17Z</time>
      </trkpt>
      <trkpt lat="56.61258" lon="-6.06709">
        <ele>64.69</ele>
        <time>2021-04-06T10:07:23Z</time>
      </trkpt>
      <trkpt lat="56.61283" lon="-6.06786">
        <ele>64.28</ele>
        <time>2021-04-06T10:07:28Z</time>
      </trkpt>
      <trkpt lat="56.61313" lon="-6.06852">
        <ele>63.94</ele>
        <time>2021-04-06T10:07:34Z</time>
      </trkpt>
      <trkpt lat="56.61352" lon="-6.06921">
        <ele>62.7</ele>
        <time>2021-04-06T10:07:40Z</time>
      </trkpt>
      <trkpt lat="56.61377" lon="-6.06957">
        <ele>61.61</ele>
        <time>2021-04-06T10:07:46Z</time>
      </trkpt>
      <trkpt lat="56.61419" lon="-6.07013">
        <ele>62.89</ele>
        <time>2021-04-06T10:07:52Z</time>
      </trkpt>
      <trkpt lat="56.6145" lon="-6.07046">
        <ele>63.48</ele>
        <time>2021-04-06T10:07:58Z</time>
      </trkpt>
      <trkpt lat="56.61507" lon="-6.07099">
        <ele>64.2</ele>
        <time>2021-04-06T10:08:04Z</time>
      </trkpt>
      <trkpt lat="56.61507" lon="-6.07099">
        <ele>64.2</ele>
        <time>2021-04-06T10:08:04Z</time>
      </trkpt>
      <trkpt lat="56.61564" lon="-6.07138">
        <ele>63.67</ele>
        <time>2021-04-06T10:08:08Z</time>
      </trkpt>
      <trkpt lat="56.61577" lon="-6.07144">
        <ele>63.41</ele>
        <time>2021-04-06T10:08:12Z</time>
      </trkpt>
      <trkpt lat="56.61687" lon="-6.07177">
        <ele>57.9</ele>
        <time>2021-04-06T10:08:17Z</time>
      </trkpt>
      <trkpt lat="56.61721" lon="-6.07201">
        <ele>56.64</ele>
        <time>2021-04-06T10:08:21Z</time>
      </trkpt>
      <trkpt lat="56.61784" lon="-6.07283">
        <ele>54.5</ele>
        <time>2021-04-06T10:08:26Z</time>
      </trkpt>
      <trkpt lat="56.61805" lon="-6.073">
        <ele>52.04</ele>
        <time>2021-04-06T10:08:30Z</time>
      </trkpt>
      <trkpt lat="56.61818" lon="-6.07303">
        <ele>51.17</ele>
        <time>2021-04-06T10:08:35Z</time>
      </trkpt>
      <trkpt lat="56.61832" lon="-6.07298">
        <ele>50.36</ele>
        <time>2021-04-06T10:08:39Z</time>
      </trkpt>
      <trkpt lat="56.61835" lon="-6.07304">
        <ele>50.06</ele>
        <time>2021-04-06T10:08:41Z</time>
      </trkpt>
      <trkpt lat="56.61838" lon="-6.07304">
        <ele>50.06</ele>
        <time>2021-04-06T10:08:43Z</time>
      </trkpt>
      <trkpt lat="56.61841" lon="-6.07296">
        <ele>50.25</ele>
        <time>2021-04-06T10:08:45Z</time>
      </trkpt>
      <trkpt lat="56.6184" lon="-6.0729">
        <ele>50.43</ele>
        <time>2021-04-06T10:08:47Z</time>
      </trkpt>
      <trkpt lat="56.61837" lon="-6.07286">
        <ele>50.6</ele>
        <time>2021-04-06T10:08:49Z</time>
      </trkpt>
      <trkpt lat="56.61846" lon="-6.07214">
        <ele>50.08</ele>
        <time>2021-04-06T10:08:51Z</time>
      </trkpt>
      <trkpt lat="56.61854" lon="-6.07169">
        <ele>48.87</ele>
        <time>2021-04-06T10:08:53Z</time>
      </trkpt>
      <trkpt lat="56.61868" lon="-6.07122">
        <ele>47.95</ele>
        <time>2021-04-06T10:08:54Z</time>
      </trkpt>
      <trkpt lat="56.61876" lon="-6.07104">
        <ele>47.35</ele>
        <time>2021-04-06T10:08:56Z</time>
      </trkpt>
      <trkpt lat="56.61904" lon="-6.07081">
        <ele>44.48</ele>
        <time>2021-04-06T10:08:58Z</time>
      </trkpt>
      <trkpt lat="56.61934" lon="-6.07072">
        <ele>41.18</ele>
        <time>2021-04-06T10:09:00Z</time>
      </trkpt>
      <trkpt lat="56.62014" lon="-6.07105">
        <ele>33.91</ele>
        <time>2021-04-06T10:09:02Z</time>
      </trkpt>
      <trkpt lat="56.62034" lon="-6.07101">
        <ele>30.06</ele>
        <time>2021-04-06T10:09:04Z</time>
      </trkpt>
      <trkpt lat="56.62062" lon="-6.07083">
        <ele>21.76</ele>
        <time>2021-04-06T10:09:06Z</time>
      </trkpt>
      <trkpt lat="56.62091" lon="-6.07051">
        <ele>15.3</ele>
        <time>2021-04-06T10:09:08Z</time>
      </trkpt>
      <trkpt lat="56.6211" lon="-6.07033">
        <ele>14.64</ele>
        <time>2021-04-06T10:09:10Z</time>
      </trkpt>
      <trkpt lat="56.62124" lon="-6.07014">
        <ele>13.95</ele>
        <time>2021-04-06T10:09:11Z</time>
      </trkpt>
      <trkpt lat="56.62243" lon="-6.06901">
        <ele>11.06</ele>
        <time>2021-04-06T10:09:13Z</time>
      </trkpt>
      <trkpt lat="56.62272" lon="-6.06844">
        <ele>7.8</ele>
        <time>2021-04-06T10:09:15Z</time>
      </trkpt>
      <trkpt lat="56.62291" lon="-6.06812">
        <ele>8.94</ele>
        <time>2021-04-06T10:09:17Z</time>
      </trkpt>
      <trkpt lat="56.62317" lon="-6.06741">
        <ele>11.64</ele>
        <time>2021-04-06T10:09:19Z</time>
      </trkpt>
      <trkpt lat="56.62319" lon="-6.06732">
        <ele>11.41</ele>
        <time>2021-04-06T10:09:21Z</time>
      </trkpt>
      <trkpt lat="56.62298" lon="-6.06598">
        <ele>8.71</ele>
        <time>2021-04-06T10:09:23Z</time>
      </trkpt>
      <trkpt lat="56.62311" lon="-6.06479">
        <ele>8.61</ele>
        <time>2021-04-06T10:09:25Z</time>
      </trkpt>
      <trkpt lat="56.62319" lon="-6.06458">
        <ele>8.36</ele>
        <time>2021-04-06T10:09:27Z</time>
      </trkpt>
      <trkpt lat="56.62324" lon="-6.06422">
        <ele>7.29</ele>
        <time>2021-04-06T10:09:28Z</time>
      </trkpt>
      <trkpt lat="56.62347" lon="-6.06299">
        <ele>10.04</ele>
        <time>2021-04-06T10:10:27Z</time>
      </trkpt>
      <trkpt lat="56.6242" lon="-6.06038">
        <ele>9.73</ele>
        <time>2021-04-06T10:11:26Z</time>
      </trkpt>
      <trkpt lat="56.62482" lon="-6.05916">
        <ele>9.58</ele>
        <time>2021-04-06T10:12:25Z</time>
      </trkpt>
      <trkpt lat="56.62562" lon="-6.05832">
        <ele>9.47</ele>
        <time>2021-04-06T10:13:24Z</time>
      </trkpt>
      <trkpt lat="56.62657" lon="-6.05713">
        <ele>9.32</ele>
        <time>2021-04-06T10:14:23Z</time>
      </trkpt>
      <trkpt lat="56.62772" lon="-6.05659">
        <ele>9.2</ele>
        <time>2021-04-06T10:15:21Z</time>
      </trkpt>
      <trkpt lat="56.63036" lon="-6.05698">
        <ele>9.03</ele>
        <time>2021-04-06T10:16:20Z</time>
      </trkpt>
      <trkpt lat="56.6313" lon="-6.05701">
        <ele>8.95</ele>
        <time>2021-04-06T10:17:19Z</time>
      </trkpt>
      <trkpt lat="56.63258" lon="-6.05687">
        <ele>8.83</ele>
        <time>2021-04-06T10:18:18Z</time>
      </trkpt>
      <trkpt lat="56.63332" lon="-6.05705">
        <ele>8.77</ele>
        <time>2021-04-06T10:19:17Z</time>
      </trkpt>
      <trkpt lat="56.63453" lon="-6.05698">
        <ele>8.71</ele>
        <time>2021-04-06T10:20:15Z</time>
      </trkpt>
      <trkpt lat="56.63453" lon="-6.05698">
        <ele>8.71</ele>
        <time>2021-04-06T10:20:15Z</time>
      </trkpt>
      <trkpt lat="56.63543" lon="-6.05745">
        <ele>8.58</ele>
        <time>2021-04-06T10:21:23Z</time>
      </trkpt>
      <trkpt lat="56.66059" lon="-6.0713">
        <ele>5.63</ele>
        <time>2021-04-06T10:22:30Z</time>
      </trkpt>
      <trkpt lat="56.68087" lon="-6.08453">
        <ele>2.88</ele>
        <time>2021-04-06T10:23:38Z</time>
      </trkpt>
      <trkpt lat="56.6832" lon="-6.08651">
        <ele>2.53</ele>
        <time>2021-04-06T10:24:45Z</time>
      </trkpt>
      <trkpt lat="56.68542" lon="-6.08875">
        <ele>2.17</ele>
        <time>2021-04-06T10:25:53Z</time>
      </trkpt>
      <trkpt lat="56.68726" lon="-6.09096">
        <ele>1.84</ele>
        <time>2021-04-06T10:27:00Z</time>
      </trkpt>
      <trkpt lat="56.6883" lon="-6.09255">
        <ele>1.62</ele>
        <time>2021-04-06T10:28:07Z</time>
      </trkpt>
      <trkpt lat="56.68858" lon="-6.093">
        <ele>1.56</ele>
        <time>2021-04-06T10:29:15Z</time>
      </trkpt>
      <trkpt lat="56.68878" lon="-6.09418">
        <ele>1.42</ele>
        <time>2021-04-06T10:30:22Z</time>
      </trkpt>
      <trkpt lat="56.68874" lon="-6.09473">
        <ele>3.01</ele>
        <time>2021-04-06T10:31:30Z</time>
      </trkpt>
      <trkpt lat="56.68869" lon="-6.09497">
        <ele>3.65</ele>
        <time>2021-04-06T10:32:37Z</time>
      </trkpt>
      <trkpt lat="56.6887" lon="-6.09518">
        <ele>4.32</ele>
        <time>2021-04-06T10:33:45Z</time>
      </trkpt>
      <trkpt lat="56.68875" lon="-6.09535">
        <ele>4.64</ele>
        <time>2021-04-06T10:34:52Z</time>
      </trkpt>
      <trkpt lat="56.68924" lon="-6.09601">
        <ele>4.45</ele>
        <time>2021-04-06T10:36:00Z</time>
      </trkpt>
      <trkpt lat="56.68961" lon="-6.09619">
        <ele>4.89</ele>
        <time>2021-04-06T10:37:07Z</time>
      </trkpt>
      <trkpt lat="56.68977" lon="-6.09622">
        <ele>5.75</ele>
        <time>2021-04-06T10:38:14Z</time>
      </trkpt>
      <trkpt lat="56.69018" lon="-6.09603">
        <ele>8.66</ele>
        <time>2021-04-06T10:39:22Z</time>
      </trkpt>
      <trkpt lat="56.69029" lon="-6.09594">
        <ele>9.49</ele>
        <time>2021-04-06T10:40:29Z</time>
      </trkpt>
      <trkpt lat="56.69054" lon="-6.09567">
        <ele>10.27</ele>
        <time>2021-04-06T10:41:37Z</time>
      </trkpt>
      <trkpt lat="56.69073" lon="-6.09538">
        <ele>9.38</ele>
        <time>2021-04-06T10:42:44Z</time>
      </trkpt>
      <trkpt lat="56.69106" lon="-6.0948">
        <ele>9.63</ele>
        <time>2021-04-06T10:43:52Z</time>
      </trkpt>
      <trkpt lat="56.69121" lon="-6.09458">
        <ele>10.22</ele>
        <time>2021-04-06T10:44:59Z</time>
      </trkpt>
      <trkpt lat="56.69138" lon="-6.09437">
        <ele>11.94</ele>
        <time>2021-04-06T10:46:07Z</time>
      </trkpt>
      <trkpt lat="56.69149" lon="-6.0943">
        <ele>12.55</ele>
        <time>2021-04-06T10:47:14Z</time>
      </trkpt>
      <trkpt lat="56.69162" lon="-6.09431">
        <ele>13.24</ele>
        <time>2021-04-06T10:48:22Z</time>
      </trkpt>
      <trkpt lat="56.69199" lon="-6.09451">
        <ele>15.1</ele>
        <time>2021-04-06T10:49:29Z</time>
      </trkpt>
      <trkpt lat="56.69317" lon="-6.09525">
        <ele>16.65</ele>
        <time>2021-04-06T10:50:36Z</time>
      </trkpt>
      <trkpt lat="56.69339" lon="-6.09545">
        <ele>16.77</ele>
        <time>2021-04-06T10:51:44Z</time>
      </trkpt>
      <trkpt lat="56.69358" lon="-6.09569">
        <ele>16.87</ele>
        <time>2021-04-06T10:52:51Z</time>
      </trkpt>
      <trkpt lat="56.69411" lon="-6.09672">
        <ele>14.63</ele>
        <time>2021-04-06T10:53:59Z</time>
      </trkpt>
      <trkpt lat="56.69446" lon="-6.09746">
        <ele>14.29</ele>
        <time>2021-04-06T10:55:06Z</time>
      </trkpt>
      <trkpt lat="56.69473" lon="-6.0981">
        <ele>15.08</ele>
        <time>2021-04-06T10:56:14Z</time>
      </trkpt>
      <trkpt lat="56.69505" lon="-6.09899">
        <ele>12.84</ele>
        <time>2021-04-06T10:57:21Z</time>
      </trkpt>
      <trkpt lat="56.69515" lon="-6.09917">
        <ele>12.51</ele>
        <time>2021-04-06T10:58:29Z</time>
      </trkpt>
      <trkpt lat="56.6955" lon="-6.09966">
        <ele>11.24</ele>
        <time>2021-04-06T10:59:36Z</time>
      </trkpt>
      <trkpt lat="56.6969" lon="-6.10084">
        <ele>12.85</ele>
        <time>2021-04-06T11:00:43Z</time>
      </trkpt>
      <trkpt lat="56.69713" lon="-6.1013">
        <ele>14.36</ele>
        <time>2021-04-06T11:01:51Z</time>
      </trkpt>
      <trkpt lat="56.69728" lon="-6.10164">
        <ele>15.42</ele>
        <time>2021-04-06T11:02:58Z</time>
      </trkpt>
      <trkpt lat="56.69756" lon="-6.10278">
        <ele>13.22</ele>
        <time>2021-04-06T11:04:06Z</time>
      </trkpt>
      <trkpt lat="56.69774" lon="-6.10308">
        <ele>13.7</ele>
        <time>2021-04-06T11:05:13Z</time>
      </trkpt>
      <trkpt lat="56.69795" lon="-6.1033">
        <ele>14.6</ele>
        <time>2021-04-06T11:06:21Z</time>
      </trkpt>
      <trkpt lat="56.69795" lon="-6.1033">
        <ele>14.51</ele>
        <time>2021-04-06T11:06:21Z</time>
      </trkpt>
      <trkpt lat="56.69795" lon="-6.1033">
        <ele>14.51</ele>
        <time>2021-04-06T11:06:21Z</time>
      </trkpt>
      <trkpt lat="56.69821" lon="-6.10044">
        <ele>19</ele>
        <time>2021-04-06T11:06:25Z</time>
      </trkpt>
      <trkpt lat="56.69826" lon="-6.09952">
        <ele>18.55</ele>
        <time>2021-04-06T11:06:29Z</time>
      </trkpt>
      <trkpt lat="56.69827" lon="-6.0989">
        <ele>20.73</ele>
        <time>2021-04-06T11:06:33Z</time>
      </trkpt>
      <trkpt lat="56.69829" lon="-6.09852">
        <ele>21.35</ele>
        <time>2021-04-06T11:06:37Z</time>
      </trkpt>
      <trkpt lat="56.69863" lon="-6.09553">
        <ele>34.07</ele>
        <time>2021-04-06T11:06:41Z</time>
      </trkpt>
      <trkpt lat="56.699" lon="-6.09114">
        <ele>38.53</ele>
        <time>2021-04-06T11:06:44Z</time>
      </trkpt>
      <trkpt lat="56.69939" lon="-6.08756">
        <ele>35.62</ele>
        <time>2021-04-06T11:06:48Z</time>
      </trkpt>
      <trkpt lat="56.69959" lon="-6.08546">
        <ele>35.48</ele>
        <time>2021-04-06T11:06:52Z</time>
      </trkpt>
      <trkpt lat="56.69969" lon="-6.08423">
        <ele>35</ele>
        <time>2021-04-06T11:06:56Z</time>
      </trkpt>
      <trkpt lat="56.69992" lon="-6.08089">
        <ele>38.44</ele>
        <time>2021-04-06T11:07:00Z</time>
      </trkpt>
      <trkpt lat="56.70005" lon="-6.07855">
        <ele>38.6</ele>
        <time>2021-04-06T11:07:04Z</time>
      </trkpt>
      <trkpt lat="56.70018" lon="-6.07733">
        <ele>41.89</ele>
        <time>2021-04-06T11:07:08Z</time>
      </trkpt>
      <trkpt lat="56.70073" lon="-6.07517">
        <ele>43.28</ele>
        <time>2021-04-06T11:07:12Z</time>
      </trkpt>
      <trkpt lat="56.70151" lon="-6.07292">
        <ele>46.52</ele>
        <time>2021-04-06T11:07:16Z</time>
      </trkpt>
      <trkpt lat="56.7024" lon="-6.07094">
        <ele>51.4</ele>
        <time>2021-04-06T11:07:20Z</time>
      </trkpt>
      <trkpt lat="56.70293" lon="-6.06952">
        <ele>57.54</ele>
        <time>2021-04-06T11:07:24Z</time>
      </trkpt>
      <trkpt lat="56.70339" lon="-6.06816">
        <ele>58.57</ele>
        <time>2021-04-06T11:07:28Z</time>
      </trkpt>
      <trkpt lat="56.70369" lon="-6.06778">
        <ele>58.58</ele>
        <time>2021-04-06T11:07:32Z</time>
      </trkpt>
      <trkpt lat="56.70399" lon="-6.06758">
        <ele>60.35</ele>
        <time>2021-04-06T11:07:36Z</time>
      </trkpt>
      <trkpt lat="56.70439" lon="-6.06766">
        <ele>63.38</ele>
        <time>2021-04-06T11:07:40Z</time>
      </trkpt>
      <trkpt lat="56.70472" lon="-6.06786">
        <ele>64.58</ele>
        <time>2021-04-06T11:07:44Z</time>
      </trkpt>
      <trkpt lat="56.70531" lon="-6.06853">
        <ele>68.69</ele>
        <time>2021-04-06T11:07:48Z</time>
      </trkpt>
      <trkpt lat="56.7059" lon="-6.06904">
        <ele>70.1</ele>
        <time>2021-04-06T11:07:52Z</time>
      </trkpt>
      <trkpt lat="56.70633" lon="-6.06911">
        <ele>71.33</ele>
        <time>2021-04-06T11:07:56Z</time>
      </trkpt>
      <trkpt lat="56.70716" lon="-6.06882">
        <ele>74.04</ele>
        <time>2021-04-06T11:08:00Z</time>
      </trkpt>
      <trkpt lat="56.70768" lon="-6.06857">
        <ele>77.96</ele>
        <time>2021-04-06T11:08:04Z</time>
      </trkpt>
      <trkpt lat="56.70808" lon="-6.06845">
        <ele>76.72</ele>
        <time>2021-04-06T11:08:08Z</time>
      </trkpt>
      <trkpt lat="56.7085" lon="-6.06838">
        <ele>74.52</ele>
        <time>2021-04-06T11:08:12Z</time>
      </trkpt>
      <trkpt lat="56.70887" lon="-6.06809">
        <ele>76.92</ele>
        <time>2021-04-06T11:08:16Z</time>
      </trkpt>
      <trkpt lat="56.70933" lon="-6.06746">
        <ele>77.54</ele>
        <time>2021-04-06T11:08:20Z</time>
      </trkpt>
      <trkpt lat="56.71033" lon="-6.06647">
        <ele>82.13</ele>
        <time>2021-04-06T11:08:24Z</time>
      </trkpt>
      <trkpt lat="56.71084" lon="-6.06624">
        <ele>86.49</ele>
        <time>2021-04-06T11:08:28Z</time>
      </trkpt>
      <trkpt lat="56.71125" lon="-6.06583">
        <ele>86.49</ele>
        <time>2021-04-06T11:08:32Z</time>
      </trkpt>
      <trkpt lat="56.71155" lon="-6.06589">
        <ele>88.14</ele>
        <time>2021-04-06T11:08:35Z</time>
      </trkpt>
      <trkpt lat="56.71184" lon="-6.06576">
        <ele>88.43</ele>
        <time>2021-04-06T11:08:39Z</time>
      </trkpt>
      <trkpt lat="56.7123" lon="-6.0651">
        <ele>87.37</ele>
        <time>2021-04-06T11:08:43Z</time>
      </trkpt>
      <trkpt lat="56.71297" lon="-6.06429">
        <ele>92.05</ele>
        <time>2021-04-06T11:08:47Z</time>
      </trkpt>
      <trkpt lat="56.71373" lon="-6.06354">
        <ele>101.57</ele>
        <time>2021-04-06T11:08:51Z</time>
      </trkpt>
      <trkpt lat="56.71406" lon="-6.06328">
        <ele>103.21</ele>
        <time>2021-04-06T11:08:55Z</time>
      </trkpt>
      <trkpt lat="56.7144" lon="-6.06279">
        <ele>104.7</ele>
        <time>2021-04-06T11:08:59Z</time>
      </trkpt>
      <trkpt lat="56.71504" lon="-6.06163">
        <ele>110.43</ele>
        <time>2021-04-06T11:09:03Z</time>
      </trkpt>
      <trkpt lat="56.71538" lon="-6.06086">
        <ele>113.71</ele>
        <time>2021-04-06T11:09:07Z</time>
      </trkpt>
      <trkpt lat="56.71568" lon="-6.06053">
        <ele>114.82</ele>
        <time>2021-04-06T11:09:11Z</time>
      </trkpt>
      <trkpt lat="56.71675" lon="-6.06017">
        <ele>122.21</ele>
        <time>2021-04-06T11:09:15Z</time>
      </trkpt>
      <trkpt lat="56.71706" lon="-6.05992">
        <ele>124.42</ele>
        <time>2021-04-06T11:09:19Z</time>
      </trkpt>
      <trkpt lat="56.71737" lon="-6.05954">
        <ele>127.03</ele>
        <time>2021-04-06T11:09:23Z</time>
      </trkpt>
      <trkpt lat="56.7176" lon="-6.05894">
        <ele>129.06</ele>
        <time>2021-04-06T11:09:27Z</time>
      </trkpt>
      <trkpt lat="56.71767" lon="-6.05847">
        <ele>129.55</ele>
        <time>2021-04-06T11:09:31Z</time>
      </trkpt>
      <trkpt lat="56.71767" lon="-6.05731">
        <ele>129.69</ele>
        <time>2021-04-06T11:09:35Z</time>
      </trkpt>
      <trkpt lat="56.71758" lon="-6.05631">
        <ele>128.49</ele>
        <time>2021-04-06T11:09:39Z</time>
      </trkpt>
      <trkpt lat="56.71767" lon="-6.05575">
        <ele>129.61</ele>
        <time>2021-04-06T11:09:43Z</time>
      </trkpt>
      <trkpt lat="56.71863" lon="-6.05428">
        <ele>136.13</ele>
        <time>2021-04-06T11:09:47Z</time>
      </trkpt>
      <trkpt lat="56.71922" lon="-6.05325">
        <ele>141.66</ele>
        <time>2021-04-06T11:09:51Z</time>
      </trkpt>
      <trkpt lat="56.71948" lon="-6.05232">
        <ele>144.77</ele>
        <time>2021-04-06T11:09:55Z</time>
      </trkpt>
      <trkpt lat="56.72032" lon="-6.05027">
        <ele>151.16</ele>
        <time>2021-04-06T11:09:59Z</time>
      </trkpt>
      <trkpt lat="56.72107" lon="-6.04934">
        <ele>152</ele>
        <time>2021-04-06T11:10:03Z</time>
      </trkpt>
      <trkpt lat="56.72307" lon="-6.04703">
        <ele>144.56</ele>
        <time>2021-04-06T11:10:07Z</time>
      </trkpt>
      <trkpt lat="56.72388" lon="-6.04659">
        <ele>136.43</ele>
        <time>2021-04-06T11:10:11Z</time>
      </trkpt>
      <trkpt lat="56.72434" lon="-6.04625">
        <ele>132.91</ele>
        <time>2021-04-06T11:10:15Z</time>
      </trkpt>
      <trkpt lat="56.72445" lon="-6.04611">
        <ele>131.97</ele>
        <time>2021-04-06T11:10:19Z</time>
      </trkpt>
      <trkpt lat="56.72468" lon="-6.04347">
        <ele>126.27</ele>
        <time>2021-04-06T11:10:23Z</time>
      </trkpt>
      <trkpt lat="56.72495" lon="-6.04126">
        <ele>123.07</ele>
        <time>2021-04-06T11:10:26Z</time>
      </trkpt>
      <trkpt lat="56.72484" lon="-6.03963">
        <ele>123.74</ele>
        <time>2021-04-06T11:10:30Z</time>
      </trkpt>
      <trkpt lat="56.72489" lon="-6.03943">
        <ele>122.2</ele>
        <time>2021-04-06T11:10:34Z</time>
      </trkpt>
      <trkpt lat="56.72495" lon="-6.03898">
        <ele>123.07</ele>
        <time>2021-04-06T11:10:38Z</time>
      </trkpt>
      <trkpt lat="56.7255" lon="-6.03824">
        <ele>128.17</ele>
        <time>2021-04-06T11:10:42Z</time>
      </trkpt>
      <trkpt lat="56.72668" lon="-6.03713">
        <ele>131.29</ele>
        <time>2021-04-06T11:10:46Z</time>
      </trkpt>
      <trkpt lat="56.72694" lon="-6.03695">
        <ele>132.02</ele>
        <time>2021-04-06T11:10:50Z</time>
      </trkpt>
      <trkpt lat="56.72788" lon="-6.03662">
        <ele>125.59</ele>
        <time>2021-04-06T11:10:54Z</time>
      </trkpt>
      <trkpt lat="56.72815" lon="-6.03631">
        <ele>124.96</ele>
        <time>2021-04-06T11:10:58Z</time>
      </trkpt>
      <trkpt lat="56.72825" lon="-6.03578">
        <ele>125.21</ele>
        <time>2021-04-06T11:11:02Z</time>
      </trkpt>
      <trkpt lat="56.72814" lon="-6.03499">
        <ele>127.57</ele>
        <time>2021-04-06T11:11:06Z</time>
      </trkpt>
      <trkpt lat="56.728" lon="-6.03433">
        <ele>131.54</ele>
        <time>2021-04-06T11:11:10Z</time>
      </trkpt>
      <trkpt lat="56.72801" lon="-6.03317">
        <ele>131.88</ele>
        <time>2021-04-06T11:11:14Z</time>
      </trkpt>
      <trkpt lat="56.72813" lon="-6.0322">
        <ele>135.03</ele>
        <time>2021-04-06T11:11:18Z</time>
      </trkpt>
      <trkpt lat="56.72823" lon="-6.0317">
        <ele>136.17</ele>
        <time>2021-04-06T11:11:22Z</time>
      </trkpt>
      <trkpt lat="56.72824" lon="-6.03109">
        <ele>135.21</ele>
        <time>2021-04-06T11:11:26Z</time>
      </trkpt>
      <trkpt lat="56.72824" lon="-6.03109">
        <ele>135.21</ele>
        <time>2021-04-06T11:11:26Z</time>
      </trkpt>
      <trkpt lat="56.72795" lon="-6.02965">
        <ele>133.77</ele>
        <time>2021-04-06T11:11:28Z</time>
      </trkpt>
      <trkpt lat="56.72774" lon="-6.02876">
        <ele>132.71</ele>
        <time>2021-04-06T11:11:30Z</time>
      </trkpt>
      <trkpt lat="56.72709" lon="-6.02782">
        <ele>135.17</ele>
        <time>2021-04-06T11:11:32Z</time>
      </trkpt>
      <trkpt lat="56.72634" lon="-6.02658">
        <ele>135.77</ele>
        <time>2021-04-06T11:11:35Z</time>
      </trkpt>
      <trkpt lat="56.72548" lon="-6.02526">
        <ele>132.93</ele>
        <time>2021-04-06T11:11:37Z</time>
      </trkpt>
      <trkpt lat="56.7252" lon="-6.02501">
        <ele>130.95</ele>
        <time>2021-04-06T11:11:39Z</time>
      </trkpt>
      <trkpt lat="56.72486" lon="-6.02482">
        <ele>132.87</ele>
        <time>2021-04-06T11:11:41Z</time>
      </trkpt>
      <trkpt lat="56.72456" lon="-6.02453">
        <ele>131.82</ele>
        <time>2021-04-06T11:11:43Z</time>
      </trkpt>
      <trkpt lat="56.72401" lon="-6.02409">
        <ele>132.36</ele>
        <time>2021-04-06T11:11:45Z</time>
      </trkpt>
      <trkpt lat="56.72316" lon="-6.02401">
        <ele>137.77</ele>
        <time>2021-04-06T11:11:47Z</time>
      </trkpt>
      <trkpt lat="56.723" lon="-6.02391">
        <ele>136.81</ele>
        <time>2021-04-06T11:11:49Z</time>
      </trkpt>
      <trkpt lat="56.72278" lon="-6.02352">
        <ele>132.68</ele>
        <time>2021-04-06T11:11:52Z</time>
      </trkpt>
      <trkpt lat="56.72255" lon="-6.02306">
        <ele>129.48</ele>
        <time>2021-04-06T11:11:54Z</time>
      </trkpt>
      <trkpt lat="56.72196" lon="-6.02272">
        <ele>131.54</ele>
        <time>2021-04-06T11:11:56Z</time>
      </trkpt>
      <trkpt lat="56.7216" lon="-6.02246">
        <ele>133.07</ele>
        <time>2021-04-06T11:11:58Z</time>
      </trkpt>
      <trkpt lat="56.72109" lon="-6.02132">
        <ele>127.46</ele>
        <time>2021-04-06T11:12:00Z</time>
      </trkpt>
      <trkpt lat="56.72089" lon="-6.02112">
        <ele>126.68</ele>
        <time>2021-04-06T11:12:02Z</time>
      </trkpt>
      <trkpt lat="56.72057" lon="-6.02115">
        <ele>129.44</ele>
        <time>2021-04-06T11:12:04Z</time>
      </trkpt>
      <trkpt lat="56.71996" lon="-6.0209">
        <ele>127.65</ele>
        <time>2021-04-06T11:12:07Z</time>
      </trkpt>
      <trkpt lat="56.71847" lon="-6.02045">
        <ele>129.51</ele>
        <time>2021-04-06T11:12:09Z</time>
      </trkpt>
      <trkpt lat="56.71804" lon="-6.02049">
        <ele>130.63</ele>
        <time>2021-04-06T11:12:11Z</time>
      </trkpt>
      <trkpt lat="56.71703" lon="-6.01995">
        <ele>131.74</ele>
        <time>2021-04-06T11:12:13Z</time>
      </trkpt>
      <trkpt lat="56.71638" lon="-6.01976">
        <ele>134.12</ele>
        <time>2021-04-06T11:12:15Z</time>
      </trkpt>
      <trkpt lat="56.71619" lon="-6.0196">
        <ele>133.09</ele>
        <time>2021-04-06T11:12:17Z</time>
      </trkpt>
      <trkpt lat="56.71602" lon="-6.01929">
        <ele>132.11</ele>
        <time>2021-04-06T11:12:19Z</time>
      </trkpt>
      <trkpt lat="56.71594" lon="-6.01895">
        <ele>131.44</ele>
        <time>2021-04-06T11:12:21Z</time>
      </trkpt>
      <trkpt lat="56.71573" lon="-6.01784">
        <ele>131.32</ele>
        <time>2021-04-06T11:12:24Z</time>
      </trkpt>
      <trkpt lat="56.71553" lon="-6.01713">
        <ele>129.24</ele>
        <time>2021-04-06T11:12:26Z</time>
      </trkpt>
      <trkpt lat="56.7153" lon="-6.01686">
        <ele>127.91</ele>
        <time>2021-04-06T11:12:28Z</time>
      </trkpt>
      <trkpt lat="56.71487" lon="-6.0166">
        <ele>129.8</ele>
        <time>2021-04-06T11:12:30Z</time>
      </trkpt>
      <trkpt lat="56.71479" lon="-6.01642">
        <ele>130.26</ele>
        <time>2021-04-06T11:12:32Z</time>
      </trkpt>
      <trkpt lat="56.71475" lon="-6.01623">
        <ele>130.17</ele>
        <time>2021-04-06T11:12:34Z</time>
      </trkpt>
      <trkpt lat="56.71469" lon="-6.0154">
        <ele>130.26</ele>
        <time>2021-04-06T11:12:36Z</time>
      </trkpt>
      <trkpt lat="56.71445" lon="-6.01392">
        <ele>132.08</ele>
        <time>2021-04-06T11:12:39Z</time>
      </trkpt>
      <trkpt lat="56.71438" lon="-6.01361">
        <ele>131.25</ele>
        <time>2021-04-06T11:12:41Z</time>
      </trkpt>
      <trkpt lat="56.71426" lon="-6.01335">
        <ele>130.46</ele>
        <time>2021-04-06T11:12:43Z</time>
      </trkpt>
      <trkpt lat="56.71399" lon="-6.01285">
        <ele>130.99</ele>
        <time>2021-04-06T11:12:45Z</time>
      </trkpt>
      <trkpt lat="56.7138" lon="-6.01241">
        <ele>130.13</ele>
        <time>2021-04-06T11:12:47Z</time>
      </trkpt>
      <trkpt lat="56.7133" lon="-6.01177">
        <ele>132.59</ele>
        <time>2021-04-06T11:12:49Z</time>
      </trkpt>
      <trkpt lat="56.71232" lon="-6.01073">
        <ele>133.41</ele>
        <time>2021-04-06T11:12:51Z</time>
      </trkpt>
      <trkpt lat="56.71192" lon="-6.01045">
        <ele>133.64</ele>
        <time>2021-04-06T11:12:54Z</time>
      </trkpt>
      <trkpt lat="56.71181" lon="-6.0103">
        <ele>132.22</ele>
        <time>2021-04-06T11:12:56Z</time>
      </trkpt>
      <trkpt lat="56.71165" lon="-6.00964">
        <ele>129.02</ele>
        <time>2021-04-06T11:12:58Z</time>
      </trkpt>
      <trkpt lat="56.71156" lon="-6.00944">
        <ele>129.55</ele>
        <time>2021-04-06T11:13:00Z</time>
      </trkpt>
      <trkpt lat="56.71127" lon="-6.00908">
        <ele>133.59</ele>
        <time>2021-04-06T11:13:02Z</time>
      </trkpt>
      <trkpt lat="56.71103" lon="-6.00869">
        <ele>135.95</ele>
        <time>2021-04-06T11:13:04Z</time>
      </trkpt>
      <trkpt lat="56.71084" lon="-6.00834">
        <ele>134.08</ele>
        <time>2021-04-06T11:13:06Z</time>
      </trkpt>
      <trkpt lat="56.71067" lon="-6.00799">
        <ele>134.19</ele>
        <time>2021-04-06T11:13:08Z</time>
      </trkpt>
      <trkpt lat="56.71049" lon="-6.00754">
        <ele>133.8</ele>
        <time>2021-04-06T11:13:11Z</time>
      </trkpt>
      <trkpt lat="56.7103" lon="-6.0072">
        <ele>136.77</ele>
        <time>2021-04-06T11:13:13Z</time>
      </trkpt>
      <trkpt lat="56.70992" lon="-6.00674">
        <ele>143.1</ele>
        <time>2021-04-06T11:13:15Z</time>
      </trkpt>
      <trkpt lat="56.70961" lon="-6.00632">
        <ele>146.55</ele>
        <time>2021-04-06T11:13:17Z</time>
      </trkpt>
      <trkpt lat="56.70933" lon="-6.00603">
        <ele>149.26</ele>
        <time>2021-04-06T11:13:19Z</time>
      </trkpt>
      <trkpt lat="56.70869" lon="-6.00563">
        <ele>153.8</ele>
        <time>2021-04-06T11:13:21Z</time>
      </trkpt>
      <trkpt lat="56.70816" lon="-6.00511">
        <ele>157.23</ele>
        <time>2021-04-06T11:13:23Z</time>
      </trkpt>
      <trkpt lat="56.70766" lon="-6.00482">
        <ele>162.84</ele>
        <time>2021-04-06T11:13:26Z</time>
      </trkpt>
      <trkpt lat="56.70718" lon="-6.00441">
        <ele>163.07</ele>
        <time>2021-04-06T11:13:28Z</time>
      </trkpt>
      <trkpt lat="56.70653" lon="-6.00401">
        <ele>164.8</ele>
        <time>2021-04-06T11:13:30Z</time>
      </trkpt>
      <trkpt lat="56.70573" lon="-6.00331">
        <ele>171.3</ele>
        <time>2021-04-06T11:13:32Z</time>
      </trkpt>
      <trkpt lat="56.70483" lon="-6.0027">
        <ele>174.13</ele>
        <time>2021-04-06T11:13:34Z</time>
      </trkpt>
      <trkpt lat="56.70431" lon="-6.00229">
        <ele>171.3</ele>
        <time>2021-04-06T11:13:36Z</time>
      </trkpt>
      <trkpt lat="56.70386" lon="-6.00204">
        <ele>167.04</ele>
        <time>2021-04-06T11:13:38Z</time>
      </trkpt>
      <trkpt lat="56.70359" lon="-6.00206">
        <ele>163.73</ele>
        <time>2021-04-06T11:13:40Z</time>
      </trkpt>
      <trkpt lat="56.70352" lon="-6.00212">
        <ele>162.61</ele>
        <time>2021-04-06T11:13:43Z</time>
      </trkpt>
      <trkpt lat="56.70336" lon="-6.00233">
        <ele>161.53</ele>
        <time>2021-04-06T11:13:45Z</time>
      </trkpt>
      <trkpt lat="56.70329" lon="-6.00239">
        <ele>161.39</ele>
        <time>2021-04-06T11:13:47Z</time>
      </trkpt>
      <trkpt lat="56.70319" lon="-6.00241">
        <ele>160.82</ele>
        <time>2021-04-06T11:13:49Z</time>
      </trkpt>
      <trkpt lat="56.70304" lon="-6.00238">
        <ele>159.27</ele>
        <time>2021-04-06T11:13:51Z</time>
      </trkpt>
      <trkpt lat="56.70183" lon="-6.00187">
        <ele>150.57</ele>
        <time>2021-04-06T11:13:53Z</time>
      </trkpt>
      <trkpt lat="56.70122" lon="-6.00169">
        <ele>146.03</ele>
        <time>2021-04-06T11:13:55Z</time>
      </trkpt>
      <trkpt lat="56.70038" lon="-6.00129">
        <ele>139.47</ele>
        <time>2021-04-06T11:13:58Z</time>
      </trkpt>
      <trkpt lat="56.70015" lon="-6.00125">
        <ele>137.37</ele>
        <time>2021-04-06T11:14:00Z</time>
      </trkpt>
      <trkpt lat="56.69929" lon="-6.00131">
        <ele>130.79</ele>
        <time>2021-04-06T11:14:02Z</time>
      </trkpt>
      <trkpt lat="56.6987" lon="-6.00139">
        <ele>127.32</ele>
        <time>2021-04-06T11:14:04Z</time>
      </trkpt>
      <trkpt lat="56.69828" lon="-6.00138">
        <ele>124.7</ele>
        <time>2021-04-06T11:14:06Z</time>
      </trkpt>
      <trkpt lat="56.69706" lon="-6.00123">
        <ele>118.85</ele>
        <time>2021-04-06T11:14:08Z</time>
      </trkpt>
      <trkpt lat="56.69556" lon="-6.00109">
        <ele>109.84</ele>
        <time>2021-04-06T11:14:10Z</time>
      </trkpt>
      <trkpt lat="56.69524" lon="-6.00102">
        <ele>108.18</ele>
        <time>2021-04-06T11:14:13Z</time>
      </trkpt>
      <trkpt lat="56.69505" lon="-6.00086">
        <ele>106.38</ele>
        <time>2021-04-06T11:14:15Z</time>
      </trkpt>
      <trkpt lat="56.69494" lon="-6.00067">
        <ele>104.84</ele>
        <time>2021-04-06T11:14:17Z</time>
      </trkpt>
      <trkpt lat="56.69458" lon="-5.99974">
        <ele>103</ele>
        <time>2021-04-06T11:14:19Z</time>
      </trkpt>
      <trkpt lat="56.69421" lon="-5.99867">
        <ele>103.85</ele>
        <time>2021-04-06T11:14:21Z</time>
      </trkpt>
      <trkpt lat="56.69411" lon="-5.99832">
        <ele>104.39</ele>
        <time>2021-04-06T11:14:23Z</time>
      </trkpt>
      <trkpt lat="56.69402" lon="-5.99766">
        <ele>105.08</ele>
        <time>2021-04-06T11:14:25Z</time>
      </trkpt>
      <trkpt lat="56.69399" lon="-5.99582">
        <ele>106.92</ele>
        <time>2021-04-06T11:14:27Z</time>
      </trkpt>
      <trkpt lat="56.69395" lon="-5.99512">
        <ele>108.72</ele>
        <time>2021-04-06T11:14:30Z</time>
      </trkpt>
      <trkpt lat="56.69391" lon="-5.99473">
        <ele>108.82</ele>
        <time>2021-04-06T11:14:32Z</time>
      </trkpt>
      <trkpt lat="56.69387" lon="-5.9946">
        <ele>108.6</ele>
        <time>2021-04-06T11:14:34Z</time>
      </trkpt>
      <trkpt lat="56.69381" lon="-5.99451">
        <ele>108.32</ele>
        <time>2021-04-06T11:14:36Z</time>
      </trkpt>
      <trkpt lat="56.69373" lon="-5.99447">
        <ele>108.14</ele>
        <time>2021-04-06T11:14:38Z</time>
      </trkpt>
      <trkpt lat="56.69364" lon="-5.99447">
        <ele>108.16</ele>
        <time>2021-04-06T11:14:40Z</time>
      </trkpt>
      <trkpt lat="56.69343" lon="-5.99453">
        <ele>106.85</ele>
        <time>2021-04-06T11:14:42Z</time>
      </trkpt>
      <trkpt lat="56.69322" lon="-5.99451">
        <ele>105.25</ele>
        <time>2021-04-06T11:14:45Z</time>
      </trkpt>
      <trkpt lat="56.69306" lon="-5.9944">
        <ele>103.53</ele>
        <time>2021-04-06T11:14:47Z</time>
      </trkpt>
      <trkpt lat="56.69274" lon="-5.99398">
        <ele>100.14</ele>
        <time>2021-04-06T11:14:49Z</time>
      </trkpt>
      <trkpt lat="56.69187" lon="-5.99316">
        <ele>94.32</ele>
        <time>2021-04-06T11:14:51Z</time>
      </trkpt>
      <trkpt lat="56.6915" lon="-5.99251">
        <ele>86.44</ele>
        <time>2021-04-06T11:14:53Z</time>
      </trkpt>
      <trkpt lat="56.69115" lon="-5.99182">
        <ele>86.17</ele>
        <time>2021-04-06T11:14:55Z</time>
      </trkpt>
      <trkpt lat="56.69044" lon="-5.98999">
        <ele>86.75</ele>
        <time>2021-04-06T11:14:57Z</time>
      </trkpt>
      <trkpt lat="56.69036" lon="-5.98955">
        <ele>86.06</ele>
        <time>2021-04-06T11:14:59Z</time>
      </trkpt>
      <trkpt lat="56.69028" lon="-5.98898">
        <ele>86.68</ele>
        <time>2021-04-06T11:15:02Z</time>
      </trkpt>
      <trkpt lat="56.69022" lon="-5.98877">
        <ele>86.78</ele>
        <time>2021-04-06T11:15:04Z</time>
      </trkpt>
      <trkpt lat="56.68955" lon="-5.98703">
        <ele>83.26</ele>
        <time>2021-04-06T11:15:06Z</time>
      </trkpt>
      <trkpt lat="56.68948" lon="-5.98684">
        <ele>83.36</ele>
        <time>2021-04-06T11:15:08Z</time>
      </trkpt>
      <trkpt lat="56.68939" lon="-5.98632">
        <ele>86.23</ele>
        <time>2021-04-06T11:15:10Z</time>
      </trkpt>
      <trkpt lat="56.68934" lon="-5.98618">
        <ele>86.82</ele>
        <time>2021-04-06T11:15:12Z</time>
      </trkpt>
      <trkpt lat="56.68907" lon="-5.98557">
        <ele>86.08</ele>
        <time>2021-04-06T11:15:14Z</time>
      </trkpt>
      <trkpt lat="56.68879" lon="-5.98523">
        <ele>81.53</ele>
        <time>2021-04-06T11:15:17Z</time>
      </trkpt>
      <trkpt lat="56.68851" lon="-5.98467">
        <ele>81.47</ele>
        <time>2021-04-06T11:15:19Z</time>
      </trkpt>
      <trkpt lat="56.68829" lon="-5.98429">
        <ele>79.35</ele>
        <time>2021-04-06T11:15:21Z</time>
      </trkpt>
      <trkpt lat="56.68748" lon="-5.98255">
        <ele>78.97</ele>
        <time>2021-04-06T11:15:23Z</time>
      </trkpt>
      <trkpt lat="56.68714" lon="-5.98197">
        <ele>77.33</ele>
        <time>2021-04-06T11:15:25Z</time>
      </trkpt>
      <trkpt lat="56.68697" lon="-5.98174">
        <ele>75.26</ele>
        <time>2021-04-06T11:15:27Z</time>
      </trkpt>
      <trkpt lat="56.68673" lon="-5.98148">
        <ele>74.59</ele>
        <time>2021-04-06T11:15:29Z</time>
      </trkpt>
      <trkpt lat="56.6866" lon="-5.98137">
        <ele>74.63</ele>
        <time>2021-04-06T11:15:32Z</time>
      </trkpt>
      <trkpt lat="56.68648" lon="-5.98131">
        <ele>74.8</ele>
        <time>2021-04-06T11:15:34Z</time>
      </trkpt>
      <trkpt lat="56.6863" lon="-5.98127">
        <ele>73.88</ele>
        <time>2021-04-06T11:15:36Z</time>
      </trkpt>
      <trkpt lat="56.68593" lon="-5.98131">
        <ele>68.22</ele>
        <time>2021-04-06T11:15:38Z</time>
      </trkpt>
      <trkpt lat="56.68582" lon="-5.98129">
        <ele>67.76</ele>
        <time>2021-04-06T11:15:40Z</time>
      </trkpt>
      <trkpt lat="56.68542" lon="-5.9811">
        <ele>71.45</ele>
        <time>2021-04-06T11:15:42Z</time>
      </trkpt>
      <trkpt lat="56.68495" lon="-5.98108">
        <ele>69.18</ele>
        <time>2021-04-06T11:15:44Z</time>
      </trkpt>
      <trkpt lat="56.68445" lon="-5.98125">
        <ele>62.64</ele>
        <time>2021-04-06T11:15:46Z</time>
      </trkpt>
      <trkpt lat="56.68416" lon="-5.98124">
        <ele>63.33</ele>
        <time>2021-04-06T11:15:49Z</time>
      </trkpt>
      <trkpt lat="56.68375" lon="-5.98118">
        <ele>66.91</ele>
        <time>2021-04-06T11:15:51Z</time>
      </trkpt>
      <trkpt lat="56.68319" lon="-5.9814">
        <ele>60.73</ele>
        <time>2021-04-06T11:15:53Z</time>
      </trkpt>
      <trkpt lat="56.68289" lon="-5.98141">
        <ele>62.26</ele>
        <time>2021-04-06T11:15:55Z</time>
      </trkpt>
      <trkpt lat="56.68268" lon="-5.9813">
        <ele>63.65</ele>
        <time>2021-04-06T11:15:57Z</time>
      </trkpt>
      <trkpt lat="56.68245" lon="-5.98085">
        <ele>67.85</ele>
        <time>2021-04-06T11:15:59Z</time>
      </trkpt>
      <trkpt lat="56.68205" lon="-5.97943">
        <ele>71.9</ele>
        <time>2021-04-06T11:16:01Z</time>
      </trkpt>
      <trkpt lat="56.68184" lon="-5.97842">
        <ele>72.74</ele>
        <time>2021-04-06T11:16:04Z</time>
      </trkpt>
      <trkpt lat="56.68184" lon="-5.97842">
        <ele>72.74</ele>
        <time>2021-04-06T11:16:04Z</time>
      </trkpt>
      <trkpt lat="56.68163" lon="-5.97717">
        <ele>69.87</ele>
        <time>2021-04-06T11:16:06Z</time>
      </trkpt>
      <trkpt lat="56.68139" lon="-5.97587">
        <ele>67.02</ele>
        <time>2021-04-06T11:16:08Z</time>
      </trkpt>
      <trkpt lat="56.68137" lon="-5.97564">
        <ele>66.9</ele>
        <time>2021-04-06T11:16:10Z</time>
      </trkpt>
      <trkpt lat="56.68138" lon="-5.97542">
        <ele>66.42</ele>
        <time>2021-04-06T11:16:12Z</time>
      </trkpt>
      <trkpt lat="56.68142" lon="-5.97528">
        <ele>66.16</ele>
        <time>2021-04-06T11:16:14Z</time>
      </trkpt>
      <trkpt lat="56.68148" lon="-5.97517">
        <ele>65.72</ele>
        <time>2021-04-06T11:16:16Z</time>
      </trkpt>
      <trkpt lat="56.68158" lon="-5.97512">
        <ele>65.83</ele>
        <time>2021-04-06T11:16:18Z</time>
      </trkpt>
      <trkpt lat="56.68169" lon="-5.97512">
        <ele>66.44</ele>
        <time>2021-04-06T11:16:20Z</time>
      </trkpt>
      <trkpt lat="56.6822" lon="-5.97523">
        <ele>71.8</ele>
        <time>2021-04-06T11:16:22Z</time>
      </trkpt>
      <trkpt lat="56.68244" lon="-5.97516">
        <ele>70.92</ele>
        <time>2021-04-06T11:16:24Z</time>
      </trkpt>
      <trkpt lat="56.68262" lon="-5.97505">
        <ele>69.66</ele>
        <time>2021-04-06T11:16:26Z</time>
      </trkpt>
      <trkpt lat="56.68279" lon="-5.97492">
        <ele>67.56</ele>
        <time>2021-04-06T11:16:28Z</time>
      </trkpt>
      <trkpt lat="56.68292" lon="-5.97477">
        <ele>65.63</ele>
        <time>2021-04-06T11:16:31Z</time>
      </trkpt>
      <trkpt lat="56.68352" lon="-5.97371">
        <ele>56.12</ele>
        <time>2021-04-06T11:16:33Z</time>
      </trkpt>
      <trkpt lat="56.68394" lon="-5.97243">
        <ele>42.49</ele>
        <time>2021-04-06T11:16:35Z</time>
      </trkpt>
      <trkpt lat="56.68407" lon="-5.97167">
        <ele>36.55</ele>
        <time>2021-04-06T11:16:37Z</time>
      </trkpt>
      <trkpt lat="56.68399" lon="-5.97124">
        <ele>31.17</ele>
        <time>2021-04-06T11:16:39Z</time>
      </trkpt>
      <trkpt lat="56.68371" lon="-5.97051">
        <ele>25.87</ele>
        <time>2021-04-06T11:16:41Z</time>
      </trkpt>
      <trkpt lat="56.6836" lon="-5.96977">
        <ele>25.81</ele>
        <time>2021-04-06T11:16:43Z</time>
      </trkpt>
      <trkpt lat="56.68353" lon="-5.96875">
        <ele>24.88</ele>
        <time>2021-04-06T11:16:45Z</time>
      </trkpt>
      <trkpt lat="56.68357" lon="-5.96786">
        <ele>22.17</ele>
        <time>2021-04-06T11:16:47Z</time>
      </trkpt>
      <trkpt lat="56.68391" lon="-5.96655">
        <ele>26.29</ele>
        <time>2021-04-06T11:16:49Z</time>
      </trkpt>
      <trkpt lat="56.68398" lon="-5.96292">
        <ele>10.86</ele>
        <time>2021-04-06T11:16:51Z</time>
      </trkpt>
      <trkpt lat="56.68405" lon="-5.96251">
        <ele>9.77</ele>
        <time>2021-04-06T11:16:53Z</time>
      </trkpt>
      <trkpt lat="56.68417" lon="-5.96221">
        <ele>8.99</ele>
        <time>2021-04-06T11:16:55Z</time>
      </trkpt>
      <trkpt lat="56.68441" lon="-5.96181">
        <ele>10.16</ele>
        <time>2021-04-06T11:16:57Z</time>
      </trkpt>
      <trkpt lat="56.6848" lon="-5.96141">
        <ele>10.73</ele>
        <time>2021-04-06T11:17:00Z</time>
      </trkpt>
      <trkpt lat="56.6851" lon="-5.96117">
        <ele>10.31</ele>
        <time>2021-04-06T11:17:02Z</time>
      </trkpt>
      <trkpt lat="56.6854" lon="-5.9611">
        <ele>11.36</ele>
        <time>2021-04-06T11:17:04Z</time>
      </trkpt>
      <trkpt lat="56.68553" lon="-5.96103">
        <ele>11.3</ele>
        <time>2021-04-06T11:17:06Z</time>
      </trkpt>
      <trkpt lat="56.68562" lon="-5.96088">
        <ele>10.56</ele>
        <time>2021-04-06T11:17:08Z</time>
      </trkpt>
      <trkpt lat="56.68573" lon="-5.96061">
        <ele>8.65</ele>
        <time>2021-04-06T11:17:10Z</time>
      </trkpt>
      <trkpt lat="56.68582" lon="-5.96031">
        <ele>7.19</ele>
        <time>2021-04-06T11:17:12Z</time>
      </trkpt>
      <trkpt lat="56.68591" lon="-5.95942">
        <ele>6.88</ele>
        <time>2021-04-06T11:17:14Z</time>
      </trkpt>
      <trkpt lat="56.6859" lon="-5.95853">
        <ele>7.35</ele>
        <time>2021-04-06T11:17:16Z</time>
      </trkpt>
      <trkpt lat="56.68576" lon="-5.95742">
        <ele>6</ele>
        <time>2021-04-06T11:17:18Z</time>
      </trkpt>
      <trkpt lat="56.68568" lon="-5.95705">
        <ele>7.33</ele>
        <time>2021-04-06T11:17:20Z</time>
      </trkpt>
      <trkpt lat="56.68559" lon="-5.95674">
        <ele>8.75</ele>
        <time>2021-04-06T11:17:22Z</time>
      </trkpt>
      <trkpt lat="56.68525" lon="-5.95607">
        <ele>10.12</ele>
        <time>2021-04-06T11:17:24Z</time>
      </trkpt>
      <trkpt lat="56.68521" lon="-5.95594">
        <ele>10.46</ele>
        <time>2021-04-06T11:17:26Z</time>
      </trkpt>
      <trkpt lat="56.68515" lon="-5.95566">
        <ele>11.15</ele>
        <time>2021-04-06T11:17:28Z</time>
      </trkpt>
      <trkpt lat="56.685" lon="-5.9542">
        <ele>12.1</ele>
        <time>2021-04-06T11:17:31Z</time>
      </trkpt>
      <trkpt lat="56.68501" lon="-5.95387">
        <ele>10.93</ele>
        <time>2021-04-06T11:17:33Z</time>
      </trkpt>
      <trkpt lat="56.68508" lon="-5.95371">
        <ele>10.19</ele>
        <time>2021-04-06T11:17:35Z</time>
      </trkpt>
      <trkpt lat="56.6856" lon="-5.95275">
        <ele>5.91</ele>
        <time>2021-04-06T11:17:37Z</time>
      </trkpt>
      <trkpt lat="56.6862" lon="-5.95122">
        <ele>7.99</ele>
        <time>2021-04-06T11:17:39Z</time>
      </trkpt>
      <trkpt lat="56.68638" lon="-5.95028">
        <ele>8.92</ele>
        <time>2021-04-06T11:17:41Z</time>
      </trkpt>
      <trkpt lat="56.68649" lon="-5.94992">
        <ele>8.07</ele>
        <time>2021-04-06T11:17:43Z</time>
      </trkpt>
      <trkpt lat="56.68662" lon="-5.94972">
        <ele>8.48</ele>
        <time>2021-04-06T11:17:45Z</time>
      </trkpt>
      <trkpt lat="56.68695" lon="-5.94935">
        <ele>8.39</ele>
        <time>2021-04-06T11:17:47Z</time>
      </trkpt>
      <trkpt lat="56.68709" lon="-5.94916">
        <ele>8.46</ele>
        <time>2021-04-06T11:17:49Z</time>
      </trkpt>
      <trkpt lat="56.68719" lon="-5.94886">
        <ele>6.6</ele>
        <time>2021-04-06T11:17:51Z</time>
      </trkpt>
      <trkpt lat="56.68755" lon="-5.94745">
        <ele>6.18</ele>
        <time>2021-04-06T11:17:53Z</time>
      </trkpt>
      <trkpt lat="56.6879" lon="-5.94699">
        <ele>6.09</ele>
        <time>2021-04-06T11:17:55Z</time>
      </trkpt>
      <trkpt lat="56.68882" lon="-5.94646">
        <ele>7.18</ele>
        <time>2021-04-06T11:17:57Z</time>
      </trkpt>
      <trkpt lat="56.68944" lon="-5.94576">
        <ele>11.28</ele>
        <time>2021-04-06T11:18:00Z</time>
      </trkpt>
      <trkpt lat="56.68972" lon="-5.94533">
        <ele>13.1</ele>
        <time>2021-04-06T11:18:02Z</time>
      </trkpt>
      <trkpt lat="56.68994" lon="-5.94512">
        <ele>15</ele>
        <time>2021-04-06T11:18:04Z</time>
      </trkpt>
      <trkpt lat="56.69" lon="-5.945">
        <ele>14.93</ele>
        <time>2021-04-06T11:18:06Z</time>
      </trkpt>
      <trkpt lat="56.6902" lon="-5.94441">
        <ele>14.9</ele>
        <time>2021-04-06T11:18:08Z</time>
      </trkpt>
      <trkpt lat="56.69024" lon="-5.94433">
        <ele>14.85</ele>
        <time>2021-04-06T11:18:10Z</time>
      </trkpt>
      <trkpt lat="56.69036" lon="-5.94423">
        <ele>15</ele>
        <time>2021-04-06T11:18:12Z</time>
      </trkpt>
      <trkpt lat="56.69088" lon="-5.9439">
        <ele>15.43</ele>
        <time>2021-04-06T11:18:14Z</time>
      </trkpt>
      <trkpt lat="56.691" lon="-5.94378">
        <ele>15.38</ele>
        <time>2021-04-06T11:18:16Z</time>
      </trkpt>
      <trkpt lat="56.69114" lon="-5.94351">
        <ele>14.65</ele>
        <time>2021-04-06T11:18:18Z</time>
      </trkpt>
      <trkpt lat="56.69143" lon="-5.9427">
        <ele>14.79</ele>
        <time>2021-04-06T11:18:20Z</time>
      </trkpt>
      <trkpt lat="56.69148" lon="-5.94246">
        <ele>16.4</ele>
        <time>2021-04-06T11:18:22Z</time>
      </trkpt>
      <trkpt lat="56.69147" lon="-5.94215">
        <ele>17.33</ele>
        <time>2021-04-06T11:18:24Z</time>
      </trkpt>
      <trkpt lat="56.69138" lon="-5.94189">
        <ele>17.1</ele>
        <time>2021-04-06T11:18:26Z</time>
      </trkpt>
      <trkpt lat="56.69045" lon="-5.93962">
        <ele>14.48</ele>
        <time>2021-04-06T11:18:29Z</time>
      </trkpt>
      <trkpt lat="56.68967" lon="-5.93828">
        <ele>17.2</ele>
        <time>2021-04-06T11:18:31Z</time>
      </trkpt>
      <trkpt lat="56.68918" lon="-5.93762">
        <ele>19.44</ele>
        <time>2021-04-06T11:18:33Z</time>
      </trkpt>
      <trkpt lat="56.68813" lon="-5.93679">
        <ele>21.05</ele>
        <time>2021-04-06T11:18:35Z</time>
      </trkpt>
      <trkpt lat="56.68767" lon="-5.93621">
        <ele>21.03</ele>
        <time>2021-04-06T11:18:37Z</time>
      </trkpt>
      <trkpt lat="56.68747" lon="-5.9359">
        <ele>19.64</ele>
        <time>2021-04-06T11:18:39Z</time>
      </trkpt>
      <trkpt lat="56.68736" lon="-5.93558">
        <ele>20.22</ele>
        <time>2021-04-06T11:18:41Z</time>
      </trkpt>
      <trkpt lat="56.68737" lon="-5.9353">
        <ele>21.74</ele>
        <time>2021-04-06T11:18:43Z</time>
      </trkpt>
      <trkpt lat="56.68746" lon="-5.93495">
        <ele>25.07</ele>
        <time>2021-04-06T11:18:45Z</time>
      </trkpt>
      <trkpt lat="56.68746" lon="-5.93448">
        <ele>27.08</ele>
        <time>2021-04-06T11:18:47Z</time>
      </trkpt>
      <trkpt lat="56.68736" lon="-5.934">
        <ele>26.35</ele>
        <time>2021-04-06T11:18:49Z</time>
      </trkpt>
      <trkpt lat="56.68592" lon="-5.93168">
        <ele>26.29</ele>
        <time>2021-04-06T11:18:51Z</time>
      </trkpt>
      <trkpt lat="56.68522" lon="-5.93013">
        <ele>30.05</ele>
        <time>2021-04-06T11:18:53Z</time>
      </trkpt>
      <trkpt lat="56.68512" lon="-5.92969">
        <ele>31.94</ele>
        <time>2021-04-06T11:18:55Z</time>
      </trkpt>
      <trkpt lat="56.68497" lon="-5.92924">
        <ele>32.83</ele>
        <time>2021-04-06T11:18:58Z</time>
      </trkpt>
      <trkpt lat="56.68452" lon="-5.92837">
        <ele>25.39</ele>
        <time>2021-04-06T11:19:00Z</time>
      </trkpt>
      <trkpt lat="56.68406" lon="-5.92762">
        <ele>19.7</ele>
        <time>2021-04-06T11:19:02Z</time>
      </trkpt>
      <trkpt lat="56.68352" lon="-5.9271">
        <ele>18.4</ele>
        <time>2021-04-06T11:19:04Z</time>
      </trkpt>
      <trkpt lat="56.68304" lon="-5.92679">
        <ele>19.07</ele>
        <time>2021-04-06T11:19:06Z</time>
      </trkpt>
      <trkpt lat="56.68161" lon="-5.92669">
        <ele>10.4</ele>
        <time>2021-04-06T11:19:08Z</time>
      </trkpt>
      <trkpt lat="56.68107" lon="-5.92642">
        <ele>11.37</ele>
        <time>2021-04-06T11:19:10Z</time>
      </trkpt>
      <trkpt lat="56.6805" lon="-5.92592">
        <ele>13.88</ele>
        <time>2021-04-06T11:19:12Z</time>
      </trkpt>
      <trkpt lat="56.67977" lon="-5.92507">
        <ele>23.29</ele>
        <time>2021-04-06T11:19:14Z</time>
      </trkpt>
      <trkpt lat="56.67834" lon="-5.92248">
        <ele>28.98</ele>
        <time>2021-04-06T11:19:16Z</time>
      </trkpt>
      <trkpt lat="56.67803" lon="-5.92134">
        <ele>22.6</ele>
        <time>2021-04-06T11:19:18Z</time>
      </trkpt>
      <trkpt lat="56.67771" lon="-5.92049">
        <ele>18.43</ele>
        <time>2021-04-06T11:19:20Z</time>
      </trkpt>
      <trkpt lat="56.67764" lon="-5.91996">
        <ele>19.55</ele>
        <time>2021-04-06T11:19:22Z</time>
      </trkpt>
      <trkpt lat="56.67751" lon="-5.91924">
        <ele>17.63</ele>
        <time>2021-04-06T11:19:24Z</time>
      </trkpt>
      <trkpt lat="56.67755" lon="-5.91852">
        <ele>15.11</ele>
        <time>2021-04-06T11:19:26Z</time>
      </trkpt>
      <trkpt lat="56.67752" lon="-5.91817">
        <ele>12.63</ele>
        <time>2021-04-06T11:19:29Z</time>
      </trkpt>
      <trkpt lat="56.67735" lon="-5.91711">
        <ele>15.31</ele>
        <time>2021-04-06T11:19:31Z</time>
      </trkpt>
      <trkpt lat="56.67729" lon="-5.91568">
        <ele>18.46</ele>
        <time>2021-04-06T11:19:33Z</time>
      </trkpt>
      <trkpt lat="56.6773" lon="-5.91514">
        <ele>18.09</ele>
        <time>2021-04-06T11:19:35Z</time>
      </trkpt>
      <trkpt lat="56.67696" lon="-5.91305">
        <ele>13.37</ele>
        <time>2021-04-06T11:19:37Z</time>
      </trkpt>
      <trkpt lat="56.67696" lon="-5.91273">
        <ele>12.35</ele>
        <time>2021-04-06T11:19:39Z</time>
      </trkpt>
      <trkpt lat="56.67706" lon="-5.91212">
        <ele>14.63</ele>
        <time>2021-04-06T11:19:41Z</time>
      </trkpt>
      <trkpt lat="56.67709" lon="-5.9117">
        <ele>16.03</ele>
        <time>2021-04-06T11:19:43Z</time>
      </trkpt>
      <trkpt lat="56.67703" lon="-5.91107">
        <ele>18.85</ele>
        <time>2021-04-06T11:19:45Z</time>
      </trkpt>
      <trkpt lat="56.67699" lon="-5.9104">
        <ele>22</ele>
        <time>2021-04-06T11:19:47Z</time>
      </trkpt>
      <trkpt lat="56.677" lon="-5.90978">
        <ele>22.35</ele>
        <time>2021-04-06T11:19:49Z</time>
      </trkpt>
      <trkpt lat="56.67702" lon="-5.90954">
        <ele>21.64</ele>
        <time>2021-04-06T11:19:51Z</time>
      </trkpt>
      <trkpt lat="56.67718" lon="-5.90912">
        <ele>19.32</ele>
        <time>2021-04-06T11:19:53Z</time>
      </trkpt>
      <trkpt lat="56.67744" lon="-5.9086">
        <ele>17.2</ele>
        <time>2021-04-06T11:19:55Z</time>
      </trkpt>
      <trkpt lat="56.67782" lon="-5.90798">
        <ele>15.92</ele>
        <time>2021-04-06T11:19:58Z</time>
      </trkpt>
      <trkpt lat="56.67843" lon="-5.90752">
        <ele>19.67</ele>
        <time>2021-04-06T11:20:00Z</time>
      </trkpt>
      <trkpt lat="56.67913" lon="-5.90693">
        <ele>16.41</ele>
        <time>2021-04-06T11:20:02Z</time>
      </trkpt>
      <trkpt lat="56.67995" lon="-5.90509">
        <ele>11.79</ele>
        <time>2021-04-06T11:20:04Z</time>
      </trkpt>
      <trkpt lat="56.68009" lon="-5.90491">
        <ele>12.76</ele>
        <time>2021-04-06T11:20:06Z</time>
      </trkpt>
      <trkpt lat="56.68019" lon="-5.90472">
        <ele>13.8</ele>
        <time>2021-04-06T11:20:08Z</time>
      </trkpt>
      <trkpt lat="56.68026" lon="-5.90456">
        <ele>14.08</ele>
        <time>2021-04-06T11:20:10Z</time>
      </trkpt>
      <trkpt lat="56.68027" lon="-5.90438">
        <ele>13.88</ele>
        <time>2021-04-06T11:20:12Z</time>
      </trkpt>
      <trkpt lat="56.68025" lon="-5.90423">
        <ele>13.54</ele>
        <time>2021-04-06T11:20:14Z</time>
      </trkpt>
      <trkpt lat="56.68013" lon="-5.90388">
        <ele>10.26</ele>
        <time>2021-04-06T11:20:16Z</time>
      </trkpt>
      <trkpt lat="56.67966" lon="-5.90309">
        <ele>5.76</ele>
        <time>2021-04-06T11:20:18Z</time>
      </trkpt>
      <trkpt lat="56.67953" lon="-5.90292">
        <ele>5.79</ele>
        <time>2021-04-06T11:20:20Z</time>
      </trkpt>
      <trkpt lat="56.67921" lon="-5.9026">
        <ele>5.68</ele>
        <time>2021-04-06T11:20:22Z</time>
      </trkpt>
      <trkpt lat="56.67913" lon="-5.9025">
        <ele>5.87</ele>
        <time>2021-04-06T11:20:24Z</time>
      </trkpt>
      <trkpt lat="56.67905" lon="-5.90235">
        <ele>6.1</ele>
        <time>2021-04-06T11:20:27Z</time>
      </trkpt>
      <trkpt lat="56.67886" lon="-5.90195">
        <ele>6.96</ele>
        <time>2021-04-06T11:20:29Z</time>
      </trkpt>
      <trkpt lat="56.67874" lon="-5.9018">
        <ele>8.04</ele>
        <time>2021-04-06T11:20:31Z</time>
      </trkpt>
      <trkpt lat="56.67862" lon="-5.90168">
        <ele>8.9</ele>
        <time>2021-04-06T11:20:33Z</time>
      </trkpt>
      <trkpt lat="56.67851" lon="-5.90161">
        <ele>9.76</ele>
        <time>2021-04-06T11:20:35Z</time>
      </trkpt>
      <trkpt lat="56.67833" lon="-5.90154">
        <ele>11.02</ele>
        <time>2021-04-06T11:20:37Z</time>
      </trkpt>
      <trkpt lat="56.67812" lon="-5.90149">
        <ele>13.6</ele>
        <time>2021-04-06T11:20:39Z</time>
      </trkpt>
      <trkpt lat="56.67789" lon="-5.90139">
        <ele>15.62</ele>
        <time>2021-04-06T11:20:41Z</time>
      </trkpt>
      <trkpt lat="56.67779" lon="-5.90131">
        <ele>16.26</ele>
        <time>2021-04-06T11:20:43Z</time>
      </trkpt>
      <trkpt lat="56.67765" lon="-5.90105">
        <ele>16.09</ele>
        <time>2021-04-06T11:20:45Z</time>
      </trkpt>
      <trkpt lat="56.67752" lon="-5.90063">
        <ele>15.85</ele>
        <time>2021-04-06T11:20:47Z</time>
      </trkpt>
      <trkpt lat="56.67747" lon="-5.90038">
        <ele>16</ele>
        <time>2021-04-06T11:20:49Z</time>
      </trkpt>
      <trkpt lat="56.67741" lon="-5.89961">
        <ele>16.71</ele>
        <time>2021-04-06T11:20:51Z</time>
      </trkpt>
      <trkpt lat="56.6774" lon="-5.89929">
        <ele>16.36</ele>
        <time>2021-04-06T11:20:53Z</time>
      </trkpt>
      <trkpt lat="56.67732" lon="-5.89865">
        <ele>18.2</ele>
        <time>2021-04-06T11:20:55Z</time>
      </trkpt>
      <trkpt lat="56.67732" lon="-5.89843">
        <ele>18.76</ele>
        <time>2021-04-06T11:20:58Z</time>
      </trkpt>
      <trkpt lat="56.67735" lon="-5.89689">
        <ele>17.36</ele>
        <time>2021-04-06T11:21:00Z</time>
      </trkpt>
      <trkpt lat="56.67735" lon="-5.8937">
        <ele>13.82</ele>
        <time>2021-04-06T11:21:02Z</time>
      </trkpt>
      <trkpt lat="56.67737" lon="-5.89228">
        <ele>14.07</ele>
        <time>2021-04-06T11:21:04Z</time>
      </trkpt>
      <trkpt lat="56.67731" lon="-5.88834">
        <ele>11.28</ele>
        <time>2021-04-06T11:21:06Z</time>
      </trkpt>
      <trkpt lat="56.67733" lon="-5.88793">
        <ele>11.62</ele>
        <time>2021-04-06T11:21:08Z</time>
      </trkpt>
      <trkpt lat="56.67737" lon="-5.88763">
        <ele>12.06</ele>
        <time>2021-04-06T11:21:10Z</time>
      </trkpt>
      <trkpt lat="56.67765" lon="-5.88652">
        <ele>17.73</ele>
        <time>2021-04-06T11:21:12Z</time>
      </trkpt>
      <trkpt lat="56.67793" lon="-5.88559">
        <ele>24.82</ele>
        <time>2021-04-06T11:21:14Z</time>
      </trkpt>
      <trkpt lat="56.67811" lon="-5.88389">
        <ele>25.64</ele>
        <time>2021-04-06T11:21:16Z</time>
      </trkpt>
      <trkpt lat="56.67818" lon="-5.88325">
        <ele>31.17</ele>
        <time>2021-04-06T11:21:18Z</time>
      </trkpt>
      <trkpt lat="56.67811" lon="-5.88259">
        <ele>37.47</ele>
        <time>2021-04-06T11:21:20Z</time>
      </trkpt>
      <trkpt lat="56.67794" lon="-5.88148">
        <ele>47.69</ele>
        <time>2021-04-06T11:21:22Z</time>
      </trkpt>
      <trkpt lat="56.67792" lon="-5.88079">
        <ele>48.28</ele>
        <time>2021-04-06T11:21:24Z</time>
      </trkpt>
      <trkpt lat="56.6779" lon="-5.87884">
        <ele>32.09</ele>
        <time>2021-04-06T11:21:27Z</time>
      </trkpt>
      <trkpt lat="56.67785" lon="-5.87841">
        <ele>29.26</ele>
        <time>2021-04-06T11:21:29Z</time>
      </trkpt>
      <trkpt lat="56.67773" lon="-5.87791">
        <ele>25.38</ele>
        <time>2021-04-06T11:21:31Z</time>
      </trkpt>
      <trkpt lat="56.6777" lon="-5.87748">
        <ele>23.82</ele>
        <time>2021-04-06T11:21:33Z</time>
      </trkpt>
      <trkpt lat="56.67773" lon="-5.87701">
        <ele>23.42</ele>
        <time>2021-04-06T11:21:35Z</time>
      </trkpt>
      <trkpt lat="56.67773" lon="-5.87632">
        <ele>24.15</ele>
        <time>2021-04-06T11:21:37Z</time>
      </trkpt>
      <trkpt lat="56.67769" lon="-5.87605">
        <ele>25.34</ele>
        <time>2021-04-06T11:21:39Z</time>
      </trkpt>
      <trkpt lat="56.67755" lon="-5.87575">
        <ele>23.62</ele>
        <time>2021-04-06T11:21:41Z</time>
      </trkpt>
      <trkpt lat="56.6774" lon="-5.87549">
        <ele>21.44</ele>
        <time>2021-04-06T11:21:43Z</time>
      </trkpt>
      <trkpt lat="56.6773" lon="-5.87522">
        <ele>20.31</ele>
        <time>2021-04-06T11:21:45Z</time>
      </trkpt>
      <trkpt lat="56.67725" lon="-5.87481">
        <ele>19.69</ele>
        <time>2021-04-06T11:21:47Z</time>
      </trkpt>
      <trkpt lat="56.67722" lon="-5.87405">
        <ele>14.6</ele>
        <time>2021-04-06T11:21:49Z</time>
      </trkpt>
      <trkpt lat="56.67724" lon="-5.87359">
        <ele>12.47</ele>
        <time>2021-04-06T11:21:51Z</time>
      </trkpt>
      <trkpt lat="56.67731" lon="-5.87321">
        <ele>13.49</ele>
        <time>2021-04-06T11:21:53Z</time>
      </trkpt>
      <trkpt lat="56.67748" lon="-5.87293">
        <ele>15.97</ele>
        <time>2021-04-06T11:21:56Z</time>
      </trkpt>
      <trkpt lat="56.67778" lon="-5.87275">
        <ele>24.4</ele>
        <time>2021-04-06T11:21:58Z</time>
      </trkpt>
      <trkpt lat="56.67819" lon="-5.87259">
        <ele>29.55</ele>
        <time>2021-04-06T11:22:00Z</time>
      </trkpt>
      <trkpt lat="56.67836" lon="-5.87247">
        <ele>29.75</ele>
        <time>2021-04-06T11:22:02Z</time>
      </trkpt>
      <trkpt lat="56.67845" lon="-5.8723">
        <ele>27.59</ele>
        <time>2021-04-06T11:22:04Z</time>
      </trkpt>
      <trkpt lat="56.67856" lon="-5.87201">
        <ele>27.83</ele>
        <time>2021-04-06T11:22:06Z</time>
      </trkpt>
      <trkpt lat="56.67907" lon="-5.87134">
        <ele>34.3</ele>
        <time>2021-04-06T11:22:08Z</time>
      </trkpt>
      <trkpt lat="56.6794" lon="-5.8706">
        <ele>30.75</ele>
        <time>2021-04-06T11:22:10Z</time>
      </trkpt>
      <trkpt lat="56.67998" lon="-5.86913">
        <ele>25.2</ele>
        <time>2021-04-06T11:22:12Z</time>
      </trkpt>
      <trkpt lat="56.68038" lon="-5.86803">
        <ele>23.73</ele>
        <time>2021-04-06T11:22:14Z</time>
      </trkpt>
      <trkpt lat="56.68093" lon="-5.86725">
        <ele>27.7</ele>
        <time>2021-04-06T11:22:16Z</time>
      </trkpt>
      <trkpt lat="56.68143" lon="-5.86637">
        <ele>23.33</ele>
        <time>2021-04-06T11:22:18Z</time>
      </trkpt>
      <trkpt lat="56.68162" lon="-5.86596">
        <ele>22.5</ele>
        <time>2021-04-06T11:22:20Z</time>
      </trkpt>
      <trkpt lat="56.68173" lon="-5.8654">
        <ele>22.96</ele>
        <time>2021-04-06T11:22:22Z</time>
      </trkpt>
      <trkpt lat="56.68198" lon="-5.86431">
        <ele>27.01</ele>
        <time>2021-04-06T11:22:25Z</time>
      </trkpt>
      <trkpt lat="56.68182" lon="-5.86151">
        <ele>28.32</ele>
        <time>2021-04-06T11:22:27Z</time>
      </trkpt>
      <trkpt lat="56.68171" lon="-5.86087">
        <ele>28.18</ele>
        <time>2021-04-06T11:22:29Z</time>
      </trkpt>
      <trkpt lat="56.68156" lon="-5.86045">
        <ele>27.45</ele>
        <time>2021-04-06T11:22:31Z</time>
      </trkpt>
      <trkpt lat="56.68125" lon="-5.85971">
        <ele>24.05</ele>
        <time>2021-04-06T11:22:33Z</time>
      </trkpt>
      <trkpt lat="56.68108" lon="-5.85861">
        <ele>27</ele>
        <time>2021-04-06T11:22:35Z</time>
      </trkpt>
      <trkpt lat="56.68077" lon="-5.85742">
        <ele>29.71</ele>
        <time>2021-04-06T11:22:37Z</time>
      </trkpt>
      <trkpt lat="56.68049" lon="-5.85694">
        <ele>26.61</ele>
        <time>2021-04-06T11:22:39Z</time>
      </trkpt>
      <trkpt lat="56.68008" lon="-5.85617">
        <ele>27.95</ele>
        <time>2021-04-06T11:22:41Z</time>
      </trkpt>
      <trkpt lat="56.67992" lon="-5.85576">
        <ele>32.59</ele>
        <time>2021-04-06T11:22:43Z</time>
      </trkpt>
      <trkpt lat="56.67982" lon="-5.85531">
        <ele>36.16</ele>
        <time>2021-04-06T11:22:45Z</time>
      </trkpt>
      <trkpt lat="56.67965" lon="-5.85361">
        <ele>44.49</ele>
        <time>2021-04-06T11:22:47Z</time>
      </trkpt>
      <trkpt lat="56.67959" lon="-5.8525">
        <ele>51.08</ele>
        <time>2021-04-06T11:22:49Z</time>
      </trkpt>
      <trkpt lat="56.67942" lon="-5.85135">
        <ele>53.12</ele>
        <time>2021-04-06T11:22:51Z</time>
      </trkpt>
      <trkpt lat="56.67909" lon="-5.84939">
        <ele>64.9</ele>
        <time>2021-04-06T11:22:53Z</time>
      </trkpt>
      <trkpt lat="56.67895" lon="-5.84827">
        <ele>71.45</ele>
        <time>2021-04-06T11:22:56Z</time>
      </trkpt>
      <trkpt lat="56.67869" lon="-5.84687">
        <ele>72.1</ele>
        <time>2021-04-06T11:22:58Z</time>
      </trkpt>
      <trkpt lat="56.67837" lon="-5.8455">
        <ele>62.1</ele>
        <time>2021-04-06T11:23:00Z</time>
      </trkpt>
      <trkpt lat="56.67837" lon="-5.84509">
        <ele>58.66</ele>
        <time>2021-04-06T11:23:02Z</time>
      </trkpt>
      <trkpt lat="56.6785" lon="-5.84382">
        <ele>53.5</ele>
        <time>2021-04-06T11:23:04Z</time>
      </trkpt>
      <trkpt lat="56.67853" lon="-5.84334">
        <ele>51.61</ele>
        <time>2021-04-06T11:23:06Z</time>
      </trkpt>
      <trkpt lat="56.67842" lon="-5.84227">
        <ele>49.99</ele>
        <time>2021-04-06T11:23:08Z</time>
      </trkpt>
      <trkpt lat="56.67837" lon="-5.84153">
        <ele>48.83</ele>
        <time>2021-04-06T11:23:10Z</time>
      </trkpt>
      <trkpt lat="56.67857" lon="-5.84022">
        <ele>56.94</ele>
        <time>2021-04-06T11:23:12Z</time>
      </trkpt>
      <trkpt lat="56.67856" lon="-5.83932">
        <ele>60.41</ele>
        <time>2021-04-06T11:23:14Z</time>
      </trkpt>
      <trkpt lat="56.67851" lon="-5.83886">
        <ele>59.01</ele>
        <time>2021-04-06T11:23:16Z</time>
      </trkpt>
      <trkpt lat="56.6784" lon="-5.83816">
        <ele>53.56</ele>
        <time>2021-04-06T11:23:18Z</time>
      </trkpt>
      <trkpt lat="56.67838" lon="-5.83782">
        <ele>52.23</ele>
        <time>2021-04-06T11:23:20Z</time>
      </trkpt>
      <trkpt lat="56.67863" lon="-5.8357">
        <ele>50.26</ele>
        <time>2021-04-06T11:23:22Z</time>
      </trkpt>
      <trkpt lat="56.67879" lon="-5.83512">
        <ele>49.57</ele>
        <time>2021-04-06T11:23:25Z</time>
      </trkpt>
      <trkpt lat="56.6791" lon="-5.83471">
        <ele>49.25</ele>
        <time>2021-04-06T11:23:27Z</time>
      </trkpt>
      <trkpt lat="56.67948" lon="-5.83409">
        <ele>50.3</ele>
        <time>2021-04-06T11:23:29Z</time>
      </trkpt>
      <trkpt lat="56.67953" lon="-5.83374">
        <ele>47.58</ele>
        <time>2021-04-06T11:23:31Z</time>
      </trkpt>
      <trkpt lat="56.67951" lon="-5.83307">
        <ele>39.15</ele>
        <time>2021-04-06T11:23:33Z</time>
      </trkpt>
      <trkpt lat="56.67957" lon="-5.8328">
        <ele>37.99</ele>
        <time>2021-04-06T11:23:35Z</time>
      </trkpt>
      <trkpt lat="56.6798" lon="-5.83242">
        <ele>41.31</ele>
        <time>2021-04-06T11:23:37Z</time>
      </trkpt>
      <trkpt lat="56.68029" lon="-5.83169">
        <ele>39.8</ele>
        <time>2021-04-06T11:23:39Z</time>
      </trkpt>
      <trkpt lat="56.68049" lon="-5.83128">
        <ele>37.15</ele>
        <time>2021-04-06T11:23:41Z</time>
      </trkpt>
      <trkpt lat="56.68058" lon="-5.8306">
        <ele>29.29</ele>
        <time>2021-04-06T11:23:43Z</time>
      </trkpt>
      <trkpt lat="56.6806" lon="-5.83027">
        <ele>28.13</ele>
        <time>2021-04-06T11:23:45Z</time>
      </trkpt>
      <trkpt lat="56.68057" lon="-5.82946">
        <ele>22.41</ele>
        <time>2021-04-06T11:23:47Z</time>
      </trkpt>
      <trkpt lat="56.68076" lon="-5.82845">
        <ele>22.13</ele>
        <time>2021-04-06T11:23:49Z</time>
      </trkpt>
      <trkpt lat="56.6809" lon="-5.82822">
        <ele>22.3</ele>
        <time>2021-04-06T11:23:51Z</time>
      </trkpt>
      <trkpt lat="56.68104" lon="-5.82807">
        <ele>23.14</ele>
        <time>2021-04-06T11:23:54Z</time>
      </trkpt>
      <trkpt lat="56.68146" lon="-5.82812">
        <ele>27.39</ele>
        <time>2021-04-06T11:23:56Z</time>
      </trkpt>
      <trkpt lat="56.68169" lon="-5.82802">
        <ele>26.56</ele>
        <time>2021-04-06T11:23:58Z</time>
      </trkpt>
      <trkpt lat="56.68233" lon="-5.82795">
        <ele>26.84</ele>
        <time>2021-04-06T11:24:00Z</time>
      </trkpt>
      <trkpt lat="56.68246" lon="-5.82798">
        <ele>26.4</ele>
        <time>2021-04-06T11:24:02Z</time>
      </trkpt>
      <trkpt lat="56.68264" lon="-5.82784">
        <ele>26.4</ele>
        <time>2021-04-06T11:24:04Z</time>
      </trkpt>
      <trkpt lat="56.68274" lon="-5.82768">
        <ele>27.06</ele>
        <time>2021-04-06T11:24:06Z</time>
      </trkpt>
      <trkpt lat="56.68292" lon="-5.82692">
        <ele>25.83</ele>
        <time>2021-04-06T11:24:08Z</time>
      </trkpt>
      <trkpt lat="56.68304" lon="-5.82612">
        <ele>19.79</ele>
        <time>2021-04-06T11:24:10Z</time>
      </trkpt>
      <trkpt lat="56.68315" lon="-5.82572">
        <ele>22.06</ele>
        <time>2021-04-06T11:24:12Z</time>
      </trkpt>
      <trkpt lat="56.68349" lon="-5.82473">
        <ele>22.96</ele>
        <time>2021-04-06T11:24:14Z</time>
      </trkpt>
      <trkpt lat="56.68376" lon="-5.82429">
        <ele>23</ele>
        <time>2021-04-06T11:24:16Z</time>
      </trkpt>
      <trkpt lat="56.68393" lon="-5.82395">
        <ele>21.67</ele>
        <time>2021-04-06T11:24:18Z</time>
      </trkpt>
      <trkpt lat="56.68398" lon="-5.82376">
        <ele>20.63</ele>
        <time>2021-04-06T11:24:20Z</time>
      </trkpt>
      <trkpt lat="56.684" lon="-5.82353">
        <ele>19.01</ele>
        <time>2021-04-06T11:24:22Z</time>
      </trkpt>
      <trkpt lat="56.68397" lon="-5.82306">
        <ele>14.35</ele>
        <time>2021-04-06T11:24:25Z</time>
      </trkpt>
      <trkpt lat="56.684" lon="-5.8226">
        <ele>12.76</ele>
        <time>2021-04-06T11:24:27Z</time>
      </trkpt>
      <trkpt lat="56.68416" lon="-5.82197">
        <ele>12.89</ele>
        <time>2021-04-06T11:24:29Z</time>
      </trkpt>
      <trkpt lat="56.68439" lon="-5.82141">
        <ele>15.02</ele>
        <time>2021-04-06T11:24:31Z</time>
      </trkpt>
      <trkpt lat="56.6845" lon="-5.82106">
        <ele>13.6</ele>
        <time>2021-04-06T11:24:33Z</time>
      </trkpt>
      <trkpt lat="56.68455" lon="-5.82067">
        <ele>12.29</ele>
        <time>2021-04-06T11:24:35Z</time>
      </trkpt>
      <trkpt lat="56.68454" lon="-5.82041">
        <ele>10.85</ele>
        <time>2021-04-06T11:24:37Z</time>
      </trkpt>
      <trkpt lat="56.68451" lon="-5.82015">
        <ele>9.02</ele>
        <time>2021-04-06T11:24:39Z</time>
      </trkpt>
      <trkpt lat="56.68446" lon="-5.81998">
        <ele>7.26</ele>
        <time>2021-04-06T11:24:41Z</time>
      </trkpt>
      <trkpt lat="56.68412" lon="-5.81928">
        <ele>6.2</ele>
        <time>2021-04-06T11:24:43Z</time>
      </trkpt>
      <trkpt lat="56.68405" lon="-5.819">
        <ele>5.22</ele>
        <time>2021-04-06T11:24:45Z</time>
      </trkpt>
      <trkpt lat="56.68409" lon="-5.81877">
        <ele>5.93</ele>
        <time>2021-04-06T11:24:47Z</time>
      </trkpt>
      <trkpt lat="56.6842" lon="-5.81856">
        <ele>7.22</ele>
        <time>2021-04-06T11:24:49Z</time>
      </trkpt>
      <trkpt lat="56.68433" lon="-5.81844">
        <ele>8.2</ele>
        <time>2021-04-06T11:24:51Z</time>
      </trkpt>
      <trkpt lat="56.68507" lon="-5.81809">
        <ele>12.09</ele>
        <time>2021-04-06T11:24:54Z</time>
      </trkpt>
      <trkpt lat="56.68524" lon="-5.81794">
        <ele>12.34</ele>
        <time>2021-04-06T11:24:56Z</time>
      </trkpt>
      <trkpt lat="56.68535" lon="-5.81778">
        <ele>12.68</ele>
        <time>2021-04-06T11:24:58Z</time>
      </trkpt>
      <trkpt lat="56.68541" lon="-5.81747">
        <ele>12.69</ele>
        <time>2021-04-06T11:25:00Z</time>
      </trkpt>
      <trkpt lat="56.68539" lon="-5.81696">
        <ele>11</ele>
        <time>2021-04-06T11:25:02Z</time>
      </trkpt>
      <trkpt lat="56.68542" lon="-5.81681">
        <ele>11.29</ele>
        <time>2021-04-06T11:25:04Z</time>
      </trkpt>
      <trkpt lat="56.68555" lon="-5.81655">
        <ele>12.46</ele>
        <time>2021-04-06T11:25:06Z</time>
      </trkpt>
      <trkpt lat="56.68563" lon="-5.81632">
        <ele>13.9</ele>
        <time>2021-04-06T11:25:08Z</time>
      </trkpt>
      <trkpt lat="56.68569" lon="-5.81608">
        <ele>14.14</ele>
        <time>2021-04-06T11:25:10Z</time>
      </trkpt>
      <trkpt lat="56.68581" lon="-5.81581">
        <ele>15.32</ele>
        <time>2021-04-06T11:25:12Z</time>
      </trkpt>
      <trkpt lat="56.68589" lon="-5.81552">
        <ele>15.4</ele>
        <time>2021-04-06T11:25:14Z</time>
      </trkpt>
      <trkpt lat="56.6861" lon="-5.815">
        <ele>18.78</ele>
        <time>2021-04-06T11:25:16Z</time>
      </trkpt>
      <trkpt lat="56.68646" lon="-5.81455">
        <ele>24.35</ele>
        <time>2021-04-06T11:25:18Z</time>
      </trkpt>
      <trkpt lat="56.68654" lon="-5.81431">
        <ele>24.69</ele>
        <time>2021-04-06T11:25:20Z</time>
      </trkpt>
      <trkpt lat="56.68659" lon="-5.8139">
        <ele>24.06</ele>
        <time>2021-04-06T11:25:23Z</time>
      </trkpt>
      <trkpt lat="56.6867" lon="-5.81363">
        <ele>25.97</ele>
        <time>2021-04-06T11:25:25Z</time>
      </trkpt>
      <trkpt lat="56.68673" lon="-5.81333">
        <ele>24.55</ele>
        <time>2021-04-06T11:25:27Z</time>
      </trkpt>
      <trkpt lat="56.68671" lon="-5.81305">
        <ele>23.06</ele>
        <time>2021-04-06T11:25:29Z</time>
      </trkpt>
      <trkpt lat="56.68661" lon="-5.81259">
        <ele>19.22</ele>
        <time>2021-04-06T11:25:31Z</time>
      </trkpt>
      <trkpt lat="56.68658" lon="-5.81236">
        <ele>18.13</ele>
        <time>2021-04-06T11:25:33Z</time>
      </trkpt>
      <trkpt lat="56.68667" lon="-5.81192">
        <ele>17.87</ele>
        <time>2021-04-06T11:25:35Z</time>
      </trkpt>
      <trkpt lat="56.68682" lon="-5.81165">
        <ele>19.49</ele>
        <time>2021-04-06T11:25:37Z</time>
      </trkpt>
      <trkpt lat="56.68705" lon="-5.81137">
        <ele>21.17</ele>
        <time>2021-04-06T11:25:39Z</time>
      </trkpt>
      <trkpt lat="56.68716" lon="-5.81117">
        <ele>21.17</ele>
        <time>2021-04-06T11:25:41Z</time>
      </trkpt>
      <trkpt lat="56.68727" lon="-5.81073">
        <ele>20.08</ele>
        <time>2021-04-06T11:25:43Z</time>
      </trkpt>
      <trkpt lat="56.68738" lon="-5.81008">
        <ele>14.88</ele>
        <time>2021-04-06T11:25:45Z</time>
      </trkpt>
      <trkpt lat="56.68746" lon="-5.80988">
        <ele>14.49</ele>
        <time>2021-04-06T11:25:47Z</time>
      </trkpt>
      <trkpt lat="56.68746" lon="-5.80988">
        <ele>14.49</ele>
        <time>2021-04-06T11:25:47Z</time>
      </trkpt>
      <trkpt lat="56.68756" lon="-5.80971">
        <ele>14.35</ele>
        <time>2021-04-06T11:25:50Z</time>
      </trkpt>
      <trkpt lat="56.68766" lon="-5.80959">
        <ele>14.89</ele>
        <time>2021-04-06T11:25:52Z</time>
      </trkpt>
      <trkpt lat="56.6897" lon="-5.80837">
        <ele>22.32</ele>
        <time>2021-04-06T11:25:54Z</time>
      </trkpt>
      <trkpt lat="56.69017" lon="-5.80802">
        <ele>18.22</ele>
        <time>2021-04-06T11:25:56Z</time>
      </trkpt>
      <trkpt lat="56.69053" lon="-5.80744">
        <ele>11.1</ele>
        <time>2021-04-06T11:25:59Z</time>
      </trkpt>
      <trkpt lat="56.69068" lon="-5.80699">
        <ele>10.81</ele>
        <time>2021-04-06T11:26:01Z</time>
      </trkpt>
      <trkpt lat="56.69083" lon="-5.80662">
        <ele>11.64</ele>
        <time>2021-04-06T11:26:03Z</time>
      </trkpt>
      <trkpt lat="56.69111" lon="-5.80621">
        <ele>13.09</ele>
        <time>2021-04-06T11:26:05Z</time>
      </trkpt>
      <trkpt lat="56.69193" lon="-5.8053">
        <ele>15.06</ele>
        <time>2021-04-06T11:26:08Z</time>
      </trkpt>
      <trkpt lat="56.69242" lon="-5.8046">
        <ele>9.13</ele>
        <time>2021-04-06T11:26:10Z</time>
      </trkpt>
      <trkpt lat="56.69287" lon="-5.80391">
        <ele>12.07</ele>
        <time>2021-04-06T11:26:12Z</time>
      </trkpt>
      <trkpt lat="56.69353" lon="-5.80333">
        <ele>17.2</ele>
        <time>2021-04-06T11:26:14Z</time>
      </trkpt>
      <trkpt lat="56.69372" lon="-5.80293">
        <ele>15.81</ele>
        <time>2021-04-06T11:26:17Z</time>
      </trkpt>
      <trkpt lat="56.69401" lon="-5.802">
        <ele>15.98</ele>
        <time>2021-04-06T11:26:19Z</time>
      </trkpt>
      <trkpt lat="56.69415" lon="-5.80099">
        <ele>15.33</ele>
        <time>2021-04-06T11:26:21Z</time>
      </trkpt>
      <trkpt lat="56.69434" lon="-5.80058">
        <ele>13.78</ele>
        <time>2021-04-06T11:26:23Z</time>
      </trkpt>
      <trkpt lat="56.69465" lon="-5.80027">
        <ele>14.08</ele>
        <time>2021-04-06T11:26:25Z</time>
      </trkpt>
      <trkpt lat="56.69479" lon="-5.80003">
        <ele>12.72</ele>
        <time>2021-04-06T11:26:28Z</time>
      </trkpt>
      <trkpt lat="56.69493" lon="-5.79947">
        <ele>10.22</ele>
        <time>2021-04-06T11:26:30Z</time>
      </trkpt>
      <trkpt lat="56.69492" lon="-5.79897">
        <ele>5.93</ele>
        <time>2021-04-06T11:26:32Z</time>
      </trkpt>
      <trkpt lat="56.69504" lon="-5.79802">
        <ele>5.35</ele>
        <time>2021-04-06T11:26:34Z</time>
      </trkpt>
      <trkpt lat="56.69536" lon="-5.79753">
        <ele>7.25</ele>
        <time>2021-04-06T11:26:37Z</time>
      </trkpt>
      <trkpt lat="56.69551" lon="-5.79717">
        <ele>7.51</ele>
        <time>2021-04-06T11:26:39Z</time>
      </trkpt>
      <trkpt lat="56.69579" lon="-5.7968">
        <ele>8.08</ele>
        <time>2021-04-06T11:26:41Z</time>
      </trkpt>
      <trkpt lat="56.69596" lon="-5.7964">
        <ele>9.22</ele>
        <time>2021-04-06T11:26:43Z</time>
      </trkpt>
      <trkpt lat="56.69596" lon="-5.79528">
        <ele>8.68</ele>
        <time>2021-04-06T11:26:46Z</time>
      </trkpt>
      <trkpt lat="56.69605" lon="-5.79485">
        <ele>11.4</ele>
        <time>2021-04-06T11:26:48Z</time>
      </trkpt>
      <trkpt lat="56.69627" lon="-5.7943">
        <ele>12.04</ele>
        <time>2021-04-06T11:26:50Z</time>
      </trkpt>
      <trkpt lat="56.69648" lon="-5.79416">
        <ele>13.23</ele>
        <time>2021-04-06T11:26:52Z</time>
      </trkpt>
      <trkpt lat="56.69662" lon="-5.79416">
        <ele>13.81</ele>
        <time>2021-04-06T11:26:54Z</time>
      </trkpt>
      <trkpt lat="56.69675" lon="-5.79412">
        <ele>14.04</ele>
        <time>2021-04-06T11:26:57Z</time>
      </trkpt>
      <trkpt lat="56.69691" lon="-5.79402">
        <ele>13.72</ele>
        <time>2021-04-06T11:26:59Z</time>
      </trkpt>
      <trkpt lat="56.69707" lon="-5.79364">
        <ele>11.62</ele>
        <time>2021-04-06T11:27:01Z</time>
      </trkpt>
      <trkpt lat="56.69722" lon="-5.79343">
        <ele>10.06</ele>
        <time>2021-04-06T11:27:03Z</time>
      </trkpt>
      <trkpt lat="56.69743" lon="-5.79329">
        <ele>9.38</ele>
        <time>2021-04-06T11:27:06Z</time>
      </trkpt>
      <trkpt lat="56.69792" lon="-5.79276">
        <ele>9.49</ele>
        <time>2021-04-06T11:27:08Z</time>
      </trkpt>
      <trkpt lat="56.69844" lon="-5.7925">
        <ele>15.78</ele>
        <time>2021-04-06T11:27:10Z</time>
      </trkpt>
      <trkpt lat="56.69876" lon="-5.79226">
        <ele>15.43</ele>
        <time>2021-04-06T11:27:12Z</time>
      </trkpt>
      <trkpt lat="56.69908" lon="-5.79197">
        <ele>15.15</ele>
        <time>2021-04-06T11:27:15Z</time>
      </trkpt>
      <trkpt lat="56.69929" lon="-5.79163">
        <ele>12.56</ele>
        <time>2021-04-06T11:27:17Z</time>
      </trkpt>
      <trkpt lat="56.69944" lon="-5.79127">
        <ele>11.1</ele>
        <time>2021-04-06T11:27:19Z</time>
      </trkpt>
      <trkpt lat="56.69969" lon="-5.79108">
        <ele>12.32</ele>
        <time>2021-04-06T11:27:21Z</time>
      </trkpt>
      <trkpt lat="56.69995" lon="-5.79106">
        <ele>13.31</ele>
        <time>2021-04-06T11:27:24Z</time>
      </trkpt>
      <trkpt lat="56.70022" lon="-5.79098">
        <ele>12.93</ele>
        <time>2021-04-06T11:27:26Z</time>
      </trkpt>
      <trkpt lat="56.70059" lon="-5.791">
        <ele>15.66</ele>
        <time>2021-04-06T11:27:28Z</time>
      </trkpt>
      <trkpt lat="56.70087" lon="-5.79106">
        <ele>15.65</ele>
        <time>2021-04-06T11:27:30Z</time>
      </trkpt>
      <trkpt lat="56.70117" lon="-5.79104">
        <ele>13.7</ele>
        <time>2021-04-06T11:27:32Z</time>
      </trkpt>
      <trkpt lat="56.70147" lon="-5.79082">
        <ele>14.88</ele>
        <time>2021-04-06T11:27:35Z</time>
      </trkpt>
      <trkpt lat="56.70276" lon="-5.78966">
        <ele>17.71</ele>
        <time>2021-04-06T11:27:37Z</time>
      </trkpt>
      <trkpt lat="56.70339" lon="-5.789">
        <ele>16.66</ele>
        <time>2021-04-06T11:27:39Z</time>
      </trkpt>
      <trkpt lat="56.70361" lon="-5.78851">
        <ele>14.87</ele>
        <time>2021-04-06T11:27:41Z</time>
      </trkpt>
      <trkpt lat="56.70402" lon="-5.78703">
        <ele>12.31</ele>
        <time>2021-04-06T11:27:44Z</time>
      </trkpt>
      <trkpt lat="56.70411" lon="-5.78662">
        <ele>9.22</ele>
        <time>2021-04-06T11:27:46Z</time>
      </trkpt>
      <trkpt lat="56.70412" lon="-5.78613">
        <ele>5.65</ele>
        <time>2021-04-06T11:27:48Z</time>
      </trkpt>
      <trkpt lat="56.70419" lon="-5.78585">
        <ele>6.16</ele>
        <time>2021-04-06T11:27:50Z</time>
      </trkpt>
      <trkpt lat="56.70429" lon="-5.78572">
        <ele>6.25</ele>
        <time>2021-04-06T11:27:53Z</time>
      </trkpt>
      <trkpt lat="56.70438" lon="-5.78568">
        <ele>6.6</ele>
        <time>2021-04-06T11:27:55Z</time>
      </trkpt>
      <trkpt lat="56.70511" lon="-5.78577">
        <ele>17.45</ele>
        <time>2021-04-06T11:27:57Z</time>
      </trkpt>
      <trkpt lat="56.70535" lon="-5.78578">
        <ele>18.51</ele>
        <time>2021-04-06T11:27:59Z</time>
      </trkpt>
      <trkpt lat="56.70551" lon="-5.78573">
        <ele>18.82</ele>
        <time>2021-04-06T11:28:01Z</time>
      </trkpt>
      <trkpt lat="56.70567" lon="-5.78545">
        <ele>14.62</ele>
        <time>2021-04-06T11:28:04Z</time>
      </trkpt>
      <trkpt lat="56.7058" lon="-5.7851">
        <ele>10.32</ele>
        <time>2021-04-06T11:28:06Z</time>
      </trkpt>
      <trkpt lat="56.70615" lon="-5.78453">
        <ele>9.58</ele>
        <time>2021-04-06T11:28:08Z</time>
      </trkpt>
      <trkpt lat="56.70629" lon="-5.78413">
        <ele>9.24</ele>
        <time>2021-04-06T11:28:10Z</time>
      </trkpt>
      <trkpt lat="56.70632" lon="-5.78375">
        <ele>7.93</ele>
        <time>2021-04-06T11:28:13Z</time>
      </trkpt>
      <trkpt lat="56.70631" lon="-5.78346">
        <ele>7.07</ele>
        <time>2021-04-06T11:28:15Z</time>
      </trkpt>
      <trkpt lat="56.70625" lon="-5.78281">
        <ele>6.82</ele>
        <time>2021-04-06T11:28:17Z</time>
      </trkpt>
      <trkpt lat="56.70627" lon="-5.78255">
        <ele>7.32</ele>
        <time>2021-04-06T11:28:19Z</time>
      </trkpt>
      <trkpt lat="56.70636" lon="-5.78239">
        <ele>8.26</ele>
        <time>2021-04-06T11:28:22Z</time>
      </trkpt>
      <trkpt lat="56.70647" lon="-5.78233">
        <ele>8.35</ele>
        <time>2021-04-06T11:28:24Z</time>
      </trkpt>
      <trkpt lat="56.70682" lon="-5.78245">
        <ele>10.62</ele>
        <time>2021-04-06T11:28:26Z</time>
      </trkpt>
      <trkpt lat="56.70697" lon="-5.78241">
        <ele>11.28</ele>
        <time>2021-04-06T11:28:28Z</time>
      </trkpt>
      <trkpt lat="56.70738" lon="-5.78217">
        <ele>13.56</ele>
        <time>2021-04-06T11:28:31Z</time>
      </trkpt>
      <trkpt lat="56.70752" lon="-5.78206">
        <ele>14.74</ele>
        <time>2021-04-06T11:28:33Z</time>
      </trkpt>
      <trkpt lat="56.70773" lon="-5.78183">
        <ele>16.85</ele>
        <time>2021-04-06T11:28:35Z</time>
      </trkpt>
      <trkpt lat="56.70807" lon="-5.78161">
        <ele>17.64</ele>
        <time>2021-04-06T11:28:37Z</time>
      </trkpt>
      <trkpt lat="56.70832" lon="-5.78138">
        <ele>14.9</ele>
        <time>2021-04-06T11:28:39Z</time>
      </trkpt>
      <trkpt lat="56.70854" lon="-5.7811">
        <ele>11.69</ele>
        <time>2021-04-06T11:28:42Z</time>
      </trkpt>
      <trkpt lat="56.70866" lon="-5.78086">
        <ele>11.72</ele>
        <time>2021-04-06T11:28:44Z</time>
      </trkpt>
      <trkpt lat="56.70873" lon="-5.78066">
        <ele>12.11</ele>
        <time>2021-04-06T11:28:46Z</time>
      </trkpt>
      <trkpt lat="56.70889" lon="-5.77998">
        <ele>13.88</ele>
        <time>2021-04-06T11:28:48Z</time>
      </trkpt>
      <trkpt lat="56.709" lon="-5.77978">
        <ele>13.67</ele>
        <time>2021-04-06T11:28:51Z</time>
      </trkpt>
      <trkpt lat="56.70912" lon="-5.77968">
        <ele>13.49</ele>
        <time>2021-04-06T11:28:53Z</time>
      </trkpt>
      <trkpt lat="56.70949" lon="-5.77948">
        <ele>11.54</ele>
        <time>2021-04-06T11:28:55Z</time>
      </trkpt>
      <trkpt lat="56.70977" lon="-5.77948">
        <ele>12.24</ele>
        <time>2021-04-06T11:28:57Z</time>
      </trkpt>
      <trkpt lat="56.70999" lon="-5.77942">
        <ele>11.85</ele>
        <time>2021-04-06T11:29:00Z</time>
      </trkpt>
      <trkpt lat="56.7102" lon="-5.77933">
        <ele>10.77</ele>
        <time>2021-04-06T11:29:02Z</time>
      </trkpt>
      <trkpt lat="56.71031" lon="-5.77932">
        <ele>10.34</ele>
        <time>2021-04-06T11:29:04Z</time>
      </trkpt>
      <trkpt lat="56.7108" lon="-5.77949">
        <ele>7.65</ele>
        <time>2021-04-06T11:29:06Z</time>
      </trkpt>
      <trkpt lat="56.71104" lon="-5.77963">
        <ele>8.99</ele>
        <time>2021-04-06T11:29:08Z</time>
      </trkpt>
      <trkpt lat="56.71147" lon="-5.77981">
        <ele>10.63</ele>
        <time>2021-04-06T11:29:11Z</time>
      </trkpt>
      <trkpt lat="56.71164" lon="-5.77987">
        <ele>11.06</ele>
        <time>2021-04-06T11:29:13Z</time>
      </trkpt>
      <trkpt lat="56.71197" lon="-5.77988">
        <ele>11.06</ele>
        <time>2021-04-06T11:29:15Z</time>
      </trkpt>
      <trkpt lat="56.71251" lon="-5.7798">
        <ele>9.54</ele>
        <time>2021-04-06T11:29:17Z</time>
      </trkpt>
      <trkpt lat="56.71435" lon="-5.7796">
        <ele>5.55</ele>
        <time>2021-04-06T11:29:20Z</time>
      </trkpt>
      <trkpt lat="56.71445" lon="-5.77962">
        <ele>5.64</ele>
        <time>2021-04-06T11:29:22Z</time>
      </trkpt>
      <trkpt lat="56.71491" lon="-5.78003">
        <ele>8.49</ele>
        <time>2021-04-06T11:29:24Z</time>
      </trkpt>
      <trkpt lat="56.71506" lon="-5.78007">
        <ele>9.71</ele>
        <time>2021-04-06T11:29:26Z</time>
      </trkpt>
      <trkpt lat="56.71516" lon="-5.78003">
        <ele>10.3</ele>
        <time>2021-04-06T11:29:29Z</time>
      </trkpt>
      <trkpt lat="56.71526" lon="-5.77994">
        <ele>10.39</ele>
        <time>2021-04-06T11:29:31Z</time>
      </trkpt>
      <trkpt lat="56.71553" lon="-5.7795">
        <ele>7.54</ele>
        <time>2021-04-06T11:29:33Z</time>
      </trkpt>
      <trkpt lat="56.71568" lon="-5.77932">
        <ele>7.85</ele>
        <time>2021-04-06T11:29:35Z</time>
      </trkpt>
      <trkpt lat="56.71584" lon="-5.77897">
        <ele>8.45</ele>
        <time>2021-04-06T11:29:37Z</time>
      </trkpt>
      <trkpt lat="56.71596" lon="-5.77881">
        <ele>9.46</ele>
        <time>2021-04-06T11:29:40Z</time>
      </trkpt>
      <trkpt lat="56.71706" lon="-5.77815">
        <ele>9.35</ele>
        <time>2021-04-06T11:29:42Z</time>
      </trkpt>
      <trkpt lat="56.71712" lon="-5.77808">
        <ele>9.08</ele>
        <time>2021-04-06T11:29:44Z</time>
      </trkpt>
      <trkpt lat="56.71717" lon="-5.77798">
        <ele>8.67</ele>
        <time>2021-04-06T11:29:46Z</time>
      </trkpt>
      <trkpt lat="56.71721" lon="-5.77781">
        <ele>8.08</ele>
        <time>2021-04-06T11:29:49Z</time>
      </trkpt>
      <trkpt lat="56.71718" lon="-5.77731">
        <ele>9.3</ele>
        <time>2021-04-06T11:29:51Z</time>
      </trkpt>
      <trkpt lat="56.71712" lon="-5.77703">
        <ele>9.84</ele>
        <time>2021-04-06T11:29:53Z</time>
      </trkpt>
      <trkpt lat="56.71687" lon="-5.77647">
        <ele>12.36</ele>
        <time>2021-04-06T11:29:55Z</time>
      </trkpt>
      <trkpt lat="56.7168" lon="-5.7761">
        <ele>16.03</ele>
        <time>2021-04-06T11:29:58Z</time>
      </trkpt>
      <trkpt lat="56.71684" lon="-5.77569">
        <ele>25.21</ele>
        <time>2021-04-06T11:30:00Z</time>
      </trkpt>
      <trkpt lat="56.71745" lon="-5.77611">
        <ele>23.28</ele>
        <time>2021-04-06T11:30:02Z</time>
      </trkpt>
      <trkpt lat="56.7179" lon="-5.77634">
        <ele>29.49</ele>
        <time>2021-04-06T11:30:04Z</time>
      </trkpt>
      <trkpt lat="56.71822" lon="-5.77647">
        <ele>32.58</ele>
        <time>2021-04-06T11:30:06Z</time>
      </trkpt>
      <trkpt lat="56.7184" lon="-5.77652">
        <ele>33.1</ele>
        <time>2021-04-06T11:30:08Z</time>
      </trkpt>
      <trkpt lat="56.71869" lon="-5.77652">
        <ele>33.14</ele>
        <time>2021-04-06T11:30:10Z</time>
      </trkpt>
      <trkpt lat="56.71891" lon="-5.77648">
        <ele>33.46</ele>
        <time>2021-04-06T11:30:12Z</time>
      </trkpt>
      <trkpt lat="56.71922" lon="-5.77632">
        <ele>33.18</ele>
        <time>2021-04-06T11:30:14Z</time>
      </trkpt>
      <trkpt lat="56.71959" lon="-5.77605">
        <ele>35.44</ele>
        <time>2021-04-06T11:30:16Z</time>
      </trkpt>
      <trkpt lat="56.72028" lon="-5.77546">
        <ele>42.35</ele>
        <time>2021-04-06T11:30:18Z</time>
      </trkpt>
      <trkpt lat="56.72066" lon="-5.77523">
        <ele>41.26</ele>
        <time>2021-04-06T11:30:20Z</time>
      </trkpt>
      <trkpt lat="56.72094" lon="-5.77512">
        <ele>39.59</ele>
        <time>2021-04-06T11:30:22Z</time>
      </trkpt>
      <trkpt lat="56.72112" lon="-5.7751">
        <ele>39.6</ele>
        <time>2021-04-06T11:30:24Z</time>
      </trkpt>
      <trkpt lat="56.72112" lon="-5.7751">
        <ele>39.6</ele>
        <time>2021-04-06T11:30:24Z</time>
      </trkpt>
      <trkpt lat="56.72127" lon="-5.77516">
        <ele>40.21</ele>
        <time>2021-04-06T11:30:30Z</time>
      </trkpt>
      <trkpt lat="56.72201" lon="-5.7756">
        <ele>41.19</ele>
        <time>2021-04-06T11:30:35Z</time>
      </trkpt>
      <trkpt lat="56.72274" lon="-5.77572">
        <ele>49.15</ele>
        <time>2021-04-06T11:30:41Z</time>
      </trkpt>
      <trkpt lat="56.72353" lon="-5.77604">
        <ele>53</ele>
        <time>2021-04-06T11:30:46Z</time>
      </trkpt>
      <trkpt lat="56.72379" lon="-5.77626">
        <ele>54.82</ele>
        <time>2021-04-06T11:30:51Z</time>
      </trkpt>
      <trkpt lat="56.72423" lon="-5.77675">
        <ele>62.14</ele>
        <time>2021-04-06T11:30:57Z</time>
      </trkpt>
      <trkpt lat="56.72478" lon="-5.77668">
        <ele>66.31</ele>
        <time>2021-04-06T11:31:02Z</time>
      </trkpt>
      <trkpt lat="56.72547" lon="-5.77685">
        <ele>74.01</ele>
        <time>2021-04-06T11:31:08Z</time>
      </trkpt>
      <trkpt lat="56.72633" lon="-5.77681">
        <ele>73.28</ele>
        <time>2021-04-06T11:31:13Z</time>
      </trkpt>
      <trkpt lat="56.72712" lon="-5.77704">
        <ele>78.42</ele>
        <time>2021-04-06T11:31:19Z</time>
      </trkpt>
      <trkpt lat="56.72803" lon="-5.77715">
        <ele>74.4</ele>
        <time>2021-04-06T11:31:24Z</time>
      </trkpt>
      <trkpt lat="56.72993" lon="-5.77753">
        <ele>68.94</ele>
        <time>2021-04-06T11:31:30Z</time>
      </trkpt>
      <trkpt lat="56.73056" lon="-5.77756">
        <ele>67.83</ele>
        <time>2021-04-06T11:31:35Z</time>
      </trkpt>
      <trkpt lat="56.73125" lon="-5.77742">
        <ele>66.54</ele>
        <time>2021-04-06T11:31:40Z</time>
      </trkpt>
      <trkpt lat="56.73303" lon="-5.77719">
        <ele>67.11</ele>
        <time>2021-04-06T11:31:46Z</time>
      </trkpt>
      <trkpt lat="56.73365" lon="-5.7772">
        <ele>66.7</ele>
        <time>2021-04-06T11:31:51Z</time>
      </trkpt>
      <trkpt lat="56.73418" lon="-5.77711">
        <ele>63.16</ele>
        <time>2021-04-06T11:31:57Z</time>
      </trkpt>
      <trkpt lat="56.73524" lon="-5.77701">
        <ele>60.44</ele>
        <time>2021-04-06T11:32:02Z</time>
      </trkpt>
      <trkpt lat="56.73616" lon="-5.77703">
        <ele>57.46</ele>
        <time>2021-04-06T11:32:08Z</time>
      </trkpt>
      <trkpt lat="56.73677" lon="-5.77716">
        <ele>52.59</ele>
        <time>2021-04-06T11:32:13Z</time>
      </trkpt>
      <trkpt lat="56.73727" lon="-5.77733">
        <ele>48.11</ele>
        <time>2021-04-06T11:32:18Z</time>
      </trkpt>
      <trkpt lat="56.73772" lon="-5.77751">
        <ele>46.37</ele>
        <time>2021-04-06T11:32:24Z</time>
      </trkpt>
      <trkpt lat="56.73803" lon="-5.77755">
        <ele>44.76</ele>
        <time>2021-04-06T11:32:29Z</time>
      </trkpt>
      <trkpt lat="56.73877" lon="-5.7778">
        <ele>42.67</ele>
        <time>2021-04-06T11:32:35Z</time>
      </trkpt>
      <trkpt lat="56.73936" lon="-5.77779">
        <ele>37.96</ele>
        <time>2021-04-06T11:32:40Z</time>
      </trkpt>
      <trkpt lat="56.73956" lon="-5.77788">
        <ele>36.58</ele>
        <time>2021-04-06T11:32:46Z</time>
      </trkpt>
      <trkpt lat="56.73988" lon="-5.77843">
        <ele>33.72</ele>
        <time>2021-04-06T11:32:51Z</time>
      </trkpt>
      <trkpt lat="56.74017" lon="-5.77932">
        <ele>29.56</ele>
        <time>2021-04-06T11:32:57Z</time>
      </trkpt>
      <trkpt lat="56.74021" lon="-5.77982">
        <ele>27.15</ele>
        <time>2021-04-06T11:33:02Z</time>
      </trkpt>
      <trkpt lat="56.7407" lon="-5.78266">
        <ele>14.41</ele>
        <time>2021-04-06T11:33:07Z</time>
      </trkpt>
      <trkpt lat="56.74081" lon="-5.78339">
        <ele>13.12</ele>
        <time>2021-04-06T11:33:13Z</time>
      </trkpt>
      <trkpt lat="56.7408" lon="-5.78385">
        <ele>11.51</ele>
        <time>2021-04-06T11:33:18Z</time>
      </trkpt>
      <trkpt lat="56.74073" lon="-5.7845">
        <ele>11.31</ele>
        <time>2021-04-06T11:33:24Z</time>
      </trkpt>
      <trkpt lat="56.74072" lon="-5.78515">
        <ele>12.04</ele>
        <time>2021-04-06T11:33:29Z</time>
      </trkpt>
      <trkpt lat="56.74078" lon="-5.7858">
        <ele>10.5</ele>
        <time>2021-04-06T11:33:35Z</time>
      </trkpt>
      <trkpt lat="56.74131" lon="-5.78779">
        <ele>9.26</ele>
        <time>2021-04-06T11:33:40Z</time>
      </trkpt>
      <trkpt lat="56.74138" lon="-5.78818">
        <ele>8.05</ele>
        <time>2021-04-06T11:33:46Z</time>
      </trkpt>
      <trkpt lat="56.7415" lon="-5.78862">
        <ele>6.6</ele>
        <time>2021-04-06T11:33:51Z</time>
      </trkpt>
      <trkpt lat="56.74175" lon="-5.78915">
        <ele>6.96</ele>
        <time>2021-04-06T11:33:56Z</time>
      </trkpt>
      <trkpt lat="56.7422" lon="-5.78984">
        <ele>9.41</ele>
        <time>2021-04-06T11:34:02Z</time>
      </trkpt>
      <trkpt lat="56.74227" lon="-5.79002">
        <ele>9.91</ele>
        <time>2021-04-06T11:34:07Z</time>
      </trkpt>
      <trkpt lat="56.74236" lon="-5.79085">
        <ele>10.49</ele>
        <time>2021-04-06T11:34:13Z</time>
      </trkpt>
      <trkpt lat="56.74239" lon="-5.79173">
        <ele>10.38</ele>
        <time>2021-04-06T11:34:18Z</time>
      </trkpt>
      <trkpt lat="56.74249" lon="-5.79223">
        <ele>10.05</ele>
        <time>2021-04-06T11:34:24Z</time>
      </trkpt>
      <trkpt lat="56.74294" lon="-5.79351">
        <ele>9</ele>
        <time>2021-04-06T11:34:29Z</time>
      </trkpt>
      <trkpt lat="56.74355" lon="-5.7954">
        <ele>8</ele>
        <time>2021-04-06T11:34:35Z</time>
      </trkpt>
      <trkpt lat="56.74433" lon="-5.79715">
        <ele>6.4</ele>
        <time>2021-04-06T11:34:40Z</time>
      </trkpt>
      <trkpt lat="56.74458" lon="-5.79764">
        <ele>6</ele>
        <time>2021-04-06T11:34:45Z</time>
      </trkpt>
      <trkpt lat="56.74561" lon="-5.79923">
        <ele>9</ele>
        <time>2021-04-06T11:34:51Z</time>
      </trkpt>
      <trkpt lat="56.74724" lon="-5.8012">
        <ele>8.52</ele>
        <time>2021-04-06T11:34:56Z</time>
      </trkpt>
      <trkpt lat="56.74824" lon="-5.8023">
        <ele>13.08</ele>
        <time>2021-04-06T11:35:02Z</time>
      </trkpt>
      <trkpt lat="56.74847" lon="-5.8026">
        <ele>15.1</ele>
        <time>2021-04-06T11:35:07Z</time>
      </trkpt>
      <trkpt lat="56.74867" lon="-5.80276">
        <ele>15.19</ele>
        <time>2021-04-06T11:35:13Z</time>
      </trkpt>
      <trkpt lat="56.74882" lon="-5.80282">
        <ele>14.04</ele>
        <time>2021-04-06T11:35:18Z</time>
      </trkpt>
      <trkpt lat="56.74977" lon="-5.8028">
        <ele>10.07</ele>
        <time>2021-04-06T11:35:24Z</time>
      </trkpt>
      <trkpt lat="56.75016" lon="-5.80281">
        <ele>10.13</ele>
        <time>2021-04-06T11:35:29Z</time>
      </trkpt>
      <trkpt lat="56.75085" lon="-5.80268">
        <ele>9.64</ele>
        <time>2021-04-06T11:35:34Z</time>
      </trkpt>
      <trkpt lat="56.75134" lon="-5.80254">
        <ele>10.94</ele>
        <time>2021-04-06T11:35:40Z</time>
      </trkpt>
      <trkpt lat="56.75181" lon="-5.80237">
        <ele>13.84</ele>
        <time>2021-04-06T11:35:45Z</time>
      </trkpt>
      <trkpt lat="56.75227" lon="-5.80214">
        <ele>16.52</ele>
        <time>2021-04-06T11:35:51Z</time>
      </trkpt>
      <trkpt lat="56.75255" lon="-5.80216">
        <ele>18.11</ele>
        <time>2021-04-06T11:35:56Z</time>
      </trkpt>
      <trkpt lat="56.7529" lon="-5.8021">
        <ele>14.2</ele>
        <time>2021-04-06T11:36:02Z</time>
      </trkpt>
      <trkpt lat="56.75318" lon="-5.80187">
        <ele>8.09</ele>
        <time>2021-04-06T11:36:07Z</time>
      </trkpt>
      <trkpt lat="56.75381" lon="-5.80125">
        <ele>6.71</ele>
        <time>2021-04-06T11:36:12Z</time>
      </trkpt>
      <trkpt lat="56.754" lon="-5.8012">
        <ele>7.65</ele>
        <time>2021-04-06T11:36:18Z</time>
      </trkpt>
      <trkpt lat="56.75413" lon="-5.80133">
        <ele>8.04</ele>
        <time>2021-04-06T11:36:23Z</time>
      </trkpt>
      <trkpt lat="56.75499" lon="-5.80282">
        <ele>9.58</ele>
        <time>2021-04-06T11:36:29Z</time>
      </trkpt>
      <trkpt lat="56.75582" lon="-5.80447">
        <ele>12.02</ele>
        <time>2021-04-06T11:36:34Z</time>
      </trkpt>
      <trkpt lat="56.75591" lon="-5.80458">
        <ele>13.83</ele>
        <time>2021-04-06T11:36:40Z</time>
      </trkpt>
      <trkpt lat="56.75723" lon="-5.80399">
        <ele>21.47</ele>
        <time>2021-04-06T11:36:45Z</time>
      </trkpt>
      <trkpt lat="56.75741" lon="-5.80387">
        <ele>22.14</ele>
        <time>2021-04-06T11:36:51Z</time>
      </trkpt>
      <trkpt lat="56.75741" lon="-5.80387">
        <ele>22.14</ele>
        <time>2021-04-06T11:36:51Z</time>
      </trkpt>
      <trkpt lat="56.75784" lon="-5.80335">
        <ele>22.13</ele>
        <time>2021-04-06T11:36:53Z</time>
      </trkpt>
      <trkpt lat="56.75793" lon="-5.80319">
        <ele>22.41</ele>
        <time>2021-04-06T11:36:55Z</time>
      </trkpt>
      <trkpt lat="56.75802" lon="-5.80294">
        <ele>21.38</ele>
        <time>2021-04-06T11:36:57Z</time>
      </trkpt>
      <trkpt lat="56.75803" lon="-5.80252">
        <ele>19.79</ele>
        <time>2021-04-06T11:36:59Z</time>
      </trkpt>
      <trkpt lat="56.75797" lon="-5.80232">
        <ele>19.37</ele>
        <time>2021-04-06T11:37:01Z</time>
      </trkpt>
      <trkpt lat="56.75776" lon="-5.80199">
        <ele>17.83</ele>
        <time>2021-04-06T11:37:03Z</time>
      </trkpt>
      <trkpt lat="56.75769" lon="-5.80181">
        <ele>17.59</ele>
        <time>2021-04-06T11:37:05Z</time>
      </trkpt>
      <trkpt lat="56.75765" lon="-5.80158">
        <ele>17.67</ele>
        <time>2021-04-06T11:37:07Z</time>
      </trkpt>
      <trkpt lat="56.75767" lon="-5.80135">
        <ele>17.77</ele>
        <time>2021-04-06T11:37:09Z</time>
      </trkpt>
      <trkpt lat="56.75785" lon="-5.80048">
        <ele>20.08</ele>
        <time>2021-04-06T11:37:11Z</time>
      </trkpt>
      <trkpt lat="56.75788" lon="-5.8001">
        <ele>20.5</ele>
        <time>2021-04-06T11:37:13Z</time>
      </trkpt>
      <trkpt lat="56.75787" lon="-5.79983">
        <ele>20.39</ele>
        <time>2021-04-06T11:37:15Z</time>
      </trkpt>
      <trkpt lat="56.75781" lon="-5.79952">
        <ele>20.23</ele>
        <time>2021-04-06T11:37:18Z</time>
      </trkpt>
      <trkpt lat="56.75771" lon="-5.79913">
        <ele>20.64</ele>
        <time>2021-04-06T11:37:20Z</time>
      </trkpt>
      <trkpt lat="56.75763" lon="-5.79898">
        <ele>20.64</ele>
        <time>2021-04-06T11:37:22Z</time>
      </trkpt>
      <trkpt lat="56.75745" lon="-5.79872">
        <ele>19.63</ele>
        <time>2021-04-06T11:37:24Z</time>
      </trkpt>
      <trkpt lat="56.75732" lon="-5.79847">
        <ele>19.21</ele>
        <time>2021-04-06T11:37:26Z</time>
      </trkpt>
      <trkpt lat="56.75726" lon="-5.79827">
        <ele>19.32</ele>
        <time>2021-04-06T11:37:28Z</time>
      </trkpt>
      <trkpt lat="56.75687" lon="-5.7962">
        <ele>20.92</ele>
        <time>2021-04-06T11:37:30Z</time>
      </trkpt>
      <trkpt lat="56.75683" lon="-5.79591">
        <ele>20.76</ele>
        <time>2021-04-06T11:37:32Z</time>
      </trkpt>
      <trkpt lat="56.75683" lon="-5.79549">
        <ele>20.09</ele>
        <time>2021-04-06T11:37:34Z</time>
      </trkpt>
      <trkpt lat="56.75686" lon="-5.79513">
        <ele>18.89</ele>
        <time>2021-04-06T11:37:36Z</time>
      </trkpt>
      <trkpt lat="56.75695" lon="-5.79481">
        <ele>18.44</ele>
        <time>2021-04-06T11:37:38Z</time>
      </trkpt>
      <trkpt lat="56.75715" lon="-5.79441">
        <ele>19.93</ele>
        <time>2021-04-06T11:37:40Z</time>
      </trkpt>
      <trkpt lat="56.75723" lon="-5.79413">
        <ele>21.29</ele>
        <time>2021-04-06T11:37:42Z</time>
      </trkpt>
      <trkpt lat="56.75726" lon="-5.79313">
        <ele>22.78</ele>
        <time>2021-04-06T11:37:44Z</time>
      </trkpt>
      <trkpt lat="56.75722" lon="-5.79279">
        <ele>22.85</ele>
        <time>2021-04-06T11:37:47Z</time>
      </trkpt>
      <trkpt lat="56.75709" lon="-5.79252">
        <ele>21.07</ele>
        <time>2021-04-06T11:37:49Z</time>
      </trkpt>
      <trkpt lat="56.75706" lon="-5.79235">
        <ele>20.91</ele>
        <time>2021-04-06T11:37:51Z</time>
      </trkpt>
      <trkpt lat="56.75709" lon="-5.79218">
        <ele>21.43</ele>
        <time>2021-04-06T11:37:53Z</time>
      </trkpt>
      <trkpt lat="56.75727" lon="-5.79179">
        <ele>22.33</ele>
        <time>2021-04-06T11:37:55Z</time>
      </trkpt>
      <trkpt lat="56.75793" lon="-5.79114">
        <ele>26.46</ele>
        <time>2021-04-06T11:37:57Z</time>
      </trkpt>
      <trkpt lat="56.75818" lon="-5.79078">
        <ele>25.74</ele>
        <time>2021-04-06T11:37:59Z</time>
      </trkpt>
      <trkpt lat="56.75842" lon="-5.79061">
        <ele>26.36</ele>
        <time>2021-04-06T11:38:01Z</time>
      </trkpt>
      <trkpt lat="56.7586" lon="-5.79029">
        <ele>26.91</ele>
        <time>2021-04-06T11:38:03Z</time>
      </trkpt>
      <trkpt lat="56.75894" lon="-5.78889">
        <ele>24.68</ele>
        <time>2021-04-06T11:38:05Z</time>
      </trkpt>
      <trkpt lat="56.75933" lon="-5.78815">
        <ele>26.86</ele>
        <time>2021-04-06T11:38:07Z</time>
      </trkpt>
      <trkpt lat="56.75943" lon="-5.78767">
        <ele>24.1</ele>
        <time>2021-04-06T11:38:09Z</time>
      </trkpt>
      <trkpt lat="56.75945" lon="-5.78718">
        <ele>20.01</ele>
        <time>2021-04-06T11:38:11Z</time>
      </trkpt>
      <trkpt lat="56.75941" lon="-5.78653">
        <ele>20.18</ele>
        <time>2021-04-06T11:38:13Z</time>
      </trkpt>
      <trkpt lat="56.7592" lon="-5.78571">
        <ele>19.96</ele>
        <time>2021-04-06T11:38:16Z</time>
      </trkpt>
      <trkpt lat="56.75917" lon="-5.78542">
        <ele>20.09</ele>
        <time>2021-04-06T11:38:18Z</time>
      </trkpt>
      <trkpt lat="56.75917" lon="-5.78457">
        <ele>19.58</ele>
        <time>2021-04-06T11:38:20Z</time>
      </trkpt>
      <trkpt lat="56.75913" lon="-5.7843">
        <ele>19.11</ele>
        <time>2021-04-06T11:38:22Z</time>
      </trkpt>
      <trkpt lat="56.75906" lon="-5.7841">
        <ele>18.7</ele>
        <time>2021-04-06T11:38:24Z</time>
      </trkpt>
      <trkpt lat="56.7589" lon="-5.78384">
        <ele>16.31</ele>
        <time>2021-04-06T11:38:26Z</time>
      </trkpt>
      <trkpt lat="56.75885" lon="-5.78372">
        <ele>16.05</ele>
        <time>2021-04-06T11:38:28Z</time>
      </trkpt>
      <trkpt lat="56.7586" lon="-5.78269">
        <ele>19.73</ele>
        <time>2021-04-06T11:38:30Z</time>
      </trkpt>
      <trkpt lat="56.7584" lon="-5.78201">
        <ele>20.97</ele>
        <time>2021-04-06T11:38:32Z</time>
      </trkpt>
      <trkpt lat="56.75837" lon="-5.78175">
        <ele>21.47</ele>
        <time>2021-04-06T11:38:34Z</time>
      </trkpt>
      <trkpt lat="56.75838" lon="-5.7815">
        <ele>22.36</ele>
        <time>2021-04-06T11:38:36Z</time>
      </trkpt>
      <trkpt lat="56.75847" lon="-5.78085">
        <ele>26.3</ele>
        <time>2021-04-06T11:38:38Z</time>
      </trkpt>
      <trkpt lat="56.75846" lon="-5.77959">
        <ele>26.74</ele>
        <time>2021-04-06T11:38:40Z</time>
      </trkpt>
      <trkpt lat="56.75862" lon="-5.77815">
        <ele>31.16</ele>
        <time>2021-04-06T11:38:42Z</time>
      </trkpt>
      <trkpt lat="56.75861" lon="-5.77789">
        <ele>30.96</ele>
        <time>2021-04-06T11:38:45Z</time>
      </trkpt>
      <trkpt lat="56.75828" lon="-5.77688">
        <ele>26.2</ele>
        <time>2021-04-06T11:38:47Z</time>
      </trkpt>
      <trkpt lat="56.75802" lon="-5.77583">
        <ele>17.73</ele>
        <time>2021-04-06T11:38:49Z</time>
      </trkpt>
      <trkpt lat="56.75756" lon="-5.77283">
        <ele>11.23</ele>
        <time>2021-04-06T11:38:51Z</time>
      </trkpt>
      <trkpt lat="56.75746" lon="-5.77246">
        <ele>10.98</ele>
        <time>2021-04-06T11:38:53Z</time>
      </trkpt>
      <trkpt lat="56.75742" lon="-5.77215">
        <ele>11.42</ele>
        <time>2021-04-06T11:38:55Z</time>
      </trkpt>
      <trkpt lat="56.75742" lon="-5.77198">
        <ele>11.44</ele>
        <time>2021-04-06T11:38:57Z</time>
      </trkpt>
      <trkpt lat="56.75744" lon="-5.77186">
        <ele>11.58</ele>
        <time>2021-04-06T11:38:59Z</time>
      </trkpt>
      <trkpt lat="56.75753" lon="-5.77161">
        <ele>12.22</ele>
        <time>2021-04-06T11:39:01Z</time>
      </trkpt>
      <trkpt lat="56.75769" lon="-5.77142">
        <ele>13.35</ele>
        <time>2021-04-06T11:39:03Z</time>
      </trkpt>
      <trkpt lat="56.75835" lon="-5.77072">
        <ele>14.27</ele>
        <time>2021-04-06T11:39:05Z</time>
      </trkpt>
      <trkpt lat="56.75854" lon="-5.77046">
        <ele>14.41</ele>
        <time>2021-04-06T11:39:07Z</time>
      </trkpt>
      <trkpt lat="56.75867" lon="-5.77017">
        <ele>15.02</ele>
        <time>2021-04-06T11:39:09Z</time>
      </trkpt>
      <trkpt lat="56.75876" lon="-5.76968">
        <ele>13.88</ele>
        <time>2021-04-06T11:39:11Z</time>
      </trkpt>
      <trkpt lat="56.75898" lon="-5.76897">
        <ele>11.62</ele>
        <time>2021-04-06T11:39:14Z</time>
      </trkpt>
      <trkpt lat="56.759" lon="-5.76873">
        <ele>11.62</ele>
        <time>2021-04-06T11:39:16Z</time>
      </trkpt>
      <trkpt lat="56.75896" lon="-5.76852">
        <ele>11.83</ele>
        <time>2021-04-06T11:39:18Z</time>
      </trkpt>
      <trkpt lat="56.75857" lon="-5.76754">
        <ele>10.69</ele>
        <time>2021-04-06T11:39:20Z</time>
      </trkpt>
      <trkpt lat="56.75854" lon="-5.76721">
        <ele>10.25</ele>
        <time>2021-04-06T11:39:22Z</time>
      </trkpt>
      <trkpt lat="56.75858" lon="-5.76679">
        <ele>10.17</ele>
        <time>2021-04-06T11:39:24Z</time>
      </trkpt>
      <trkpt lat="56.75865" lon="-5.7665">
        <ele>10.36</ele>
        <time>2021-04-06T11:39:26Z</time>
      </trkpt>
      <trkpt lat="56.75988" lon="-5.76392">
        <ele>15.29</ele>
        <time>2021-04-06T11:39:28Z</time>
      </trkpt>
      <trkpt lat="56.76032" lon="-5.76347">
        <ele>15.43</ele>
        <time>2021-04-06T11:39:30Z</time>
      </trkpt>
      <trkpt lat="56.76111" lon="-5.76157">
        <ele>14.99</ele>
        <time>2021-04-06T11:39:32Z</time>
      </trkpt>
      <trkpt lat="56.7613" lon="-5.76087">
        <ele>17.06</ele>
        <time>2021-04-06T11:39:34Z</time>
      </trkpt>
      <trkpt lat="56.76147" lon="-5.76016">
        <ele>17.85</ele>
        <time>2021-04-06T11:39:36Z</time>
      </trkpt>
      <trkpt lat="56.76159" lon="-5.75932">
        <ele>15.73</ele>
        <time>2021-04-06T11:39:38Z</time>
      </trkpt>
      <trkpt lat="56.76161" lon="-5.75895">
        <ele>15.01</ele>
        <time>2021-04-06T11:39:40Z</time>
      </trkpt>
      <trkpt lat="56.76157" lon="-5.75855">
        <ele>14.66</ele>
        <time>2021-04-06T11:39:43Z</time>
      </trkpt>
      <trkpt lat="56.76142" lon="-5.75764">
        <ele>14.12</ele>
        <time>2021-04-06T11:39:45Z</time>
      </trkpt>
      <trkpt lat="56.7614" lon="-5.7572">
        <ele>13.05</ele>
        <time>2021-04-06T11:39:47Z</time>
      </trkpt>
      <trkpt lat="56.76155" lon="-5.75535">
        <ele>12.15</ele>
        <time>2021-04-06T11:39:49Z</time>
      </trkpt>
      <trkpt lat="56.76168" lon="-5.75338">
        <ele>14.14</ele>
        <time>2021-04-06T11:39:51Z</time>
      </trkpt>
      <trkpt lat="56.76175" lon="-5.75289">
        <ele>13.99</ele>
        <time>2021-04-06T11:39:53Z</time>
      </trkpt>
      <trkpt lat="56.76186" lon="-5.7526">
        <ele>13.73</ele>
        <time>2021-04-06T11:39:55Z</time>
      </trkpt>
      <trkpt lat="56.76222" lon="-5.75186">
        <ele>11.69</ele>
        <time>2021-04-06T11:39:57Z</time>
      </trkpt>
      <trkpt lat="56.7628" lon="-5.75104">
        <ele>11.73</ele>
        <time>2021-04-06T11:39:59Z</time>
      </trkpt>
      <trkpt lat="56.76292" lon="-5.75072">
        <ele>10.58</ele>
        <time>2021-04-06T11:40:01Z</time>
      </trkpt>
      <trkpt lat="56.76296" lon="-5.75043">
        <ele>10</ele>
        <time>2021-04-06T11:40:03Z</time>
      </trkpt>
      <trkpt lat="56.76303" lon="-5.74773">
        <ele>9.98</ele>
        <time>2021-04-06T11:40:05Z</time>
      </trkpt>
      <trkpt lat="56.76275" lon="-5.74616">
        <ele>13.56</ele>
        <time>2021-04-06T11:40:07Z</time>
      </trkpt>
      <trkpt lat="56.76276" lon="-5.74579">
        <ele>15.12</ele>
        <time>2021-04-06T11:40:10Z</time>
      </trkpt>
      <trkpt lat="56.76282" lon="-5.74544">
        <ele>18.08</ele>
        <time>2021-04-06T11:40:12Z</time>
      </trkpt>
      <trkpt lat="56.76305" lon="-5.74475">
        <ele>22.93</ele>
        <time>2021-04-06T11:40:14Z</time>
      </trkpt>
      <trkpt lat="56.76321" lon="-5.74383">
        <ele>28.92</ele>
        <time>2021-04-06T11:40:16Z</time>
      </trkpt>
      <trkpt lat="56.76328" lon="-5.74359">
        <ele>30.45</ele>
        <time>2021-04-06T11:40:18Z</time>
      </trkpt>
      <trkpt lat="56.76353" lon="-5.74299">
        <ele>35.57</ele>
        <time>2021-04-06T11:40:20Z</time>
      </trkpt>
      <trkpt lat="56.7637" lon="-5.74241">
        <ele>37.49</ele>
        <time>2021-04-06T11:40:22Z</time>
      </trkpt>
      <trkpt lat="56.76389" lon="-5.74194">
        <ele>38.9</ele>
        <time>2021-04-06T11:40:24Z</time>
      </trkpt>
      <trkpt lat="56.76417" lon="-5.74133">
        <ele>39.81</ele>
        <time>2021-04-06T11:40:26Z</time>
      </trkpt>
      <trkpt lat="56.76436" lon="-5.74109">
        <ele>41.65</ele>
        <time>2021-04-06T11:40:28Z</time>
      </trkpt>
      <trkpt lat="56.76505" lon="-5.74036">
        <ele>47.16</ele>
        <time>2021-04-06T11:40:30Z</time>
      </trkpt>
      <trkpt lat="56.76515" lon="-5.74003">
        <ele>47.82</ele>
        <time>2021-04-06T11:40:32Z</time>
      </trkpt>
      <trkpt lat="56.76516" lon="-5.73952">
        <ele>47.42</ele>
        <time>2021-04-06T11:40:34Z</time>
      </trkpt>
      <trkpt lat="56.76527" lon="-5.73895">
        <ele>47.19</ele>
        <time>2021-04-06T11:40:36Z</time>
      </trkpt>
      <trkpt lat="56.76541" lon="-5.73867">
        <ele>49.35</ele>
        <time>2021-04-06T11:40:39Z</time>
      </trkpt>
      <trkpt lat="56.76584" lon="-5.73805">
        <ele>58.17</ele>
        <time>2021-04-06T11:40:41Z</time>
      </trkpt>
      <trkpt lat="56.76602" lon="-5.73759">
        <ele>59.88</ele>
        <time>2021-04-06T11:40:43Z</time>
      </trkpt>
      <trkpt lat="56.76643" lon="-5.73711">
        <ele>65.47</ele>
        <time>2021-04-06T11:40:45Z</time>
      </trkpt>
      <trkpt lat="56.76651" lon="-5.73685">
        <ele>65.94</ele>
        <time>2021-04-06T11:40:47Z</time>
      </trkpt>
      <trkpt lat="56.76652" lon="-5.73657">
        <ele>65.36</ele>
        <time>2021-04-06T11:40:49Z</time>
      </trkpt>
      <trkpt lat="56.76647" lon="-5.73632">
        <ele>64.1</ele>
        <time>2021-04-06T11:40:51Z</time>
      </trkpt>
      <trkpt lat="56.76629" lon="-5.73607">
        <ele>61.58</ele>
        <time>2021-04-06T11:40:53Z</time>
      </trkpt>
      <trkpt lat="56.76618" lon="-5.73585">
        <ele>61.08</ele>
        <time>2021-04-06T11:40:55Z</time>
      </trkpt>
      <trkpt lat="56.76611" lon="-5.73525">
        <ele>64.09</ele>
        <time>2021-04-06T11:40:57Z</time>
      </trkpt>
      <trkpt lat="56.76612" lon="-5.73489">
        <ele>65.1</ele>
        <time>2021-04-06T11:40:59Z</time>
      </trkpt>
      <trkpt lat="56.7662" lon="-5.7346">
        <ele>65.51</ele>
        <time>2021-04-06T11:41:01Z</time>
      </trkpt>
      <trkpt lat="56.76639" lon="-5.7342">
        <ele>66.19</ele>
        <time>2021-04-06T11:41:03Z</time>
      </trkpt>
      <trkpt lat="56.76644" lon="-5.73397">
        <ele>66.17</ele>
        <time>2021-04-06T11:41:05Z</time>
      </trkpt>
      <trkpt lat="56.76645" lon="-5.73278">
        <ele>67.66</ele>
        <time>2021-04-06T11:41:08Z</time>
      </trkpt>
      <trkpt lat="56.76657" lon="-5.73192">
        <ele>71.01</ele>
        <time>2021-04-06T11:41:10Z</time>
      </trkpt>
      <trkpt lat="56.76658" lon="-5.73164">
        <ele>72.68</ele>
        <time>2021-04-06T11:41:12Z</time>
      </trkpt>
      <trkpt lat="56.76645" lon="-5.73046">
        <ele>79.85</ele>
        <time>2021-04-06T11:41:14Z</time>
      </trkpt>
      <trkpt lat="56.76632" lon="-5.72908">
        <ele>83.58</ele>
        <time>2021-04-06T11:41:16Z</time>
      </trkpt>
      <trkpt lat="56.76634" lon="-5.72864">
        <ele>84.79</ele>
        <time>2021-04-06T11:41:18Z</time>
      </trkpt>
      <trkpt lat="56.7664" lon="-5.72829">
        <ele>85.21</ele>
        <time>2021-04-06T11:41:20Z</time>
      </trkpt>
      <trkpt lat="56.76651" lon="-5.72794">
        <ele>86.74</ele>
        <time>2021-04-06T11:41:22Z</time>
      </trkpt>
      <trkpt lat="56.7666" lon="-5.72778">
        <ele>87.82</ele>
        <time>2021-04-06T11:41:24Z</time>
      </trkpt>
      <trkpt lat="56.76674" lon="-5.72774">
        <ele>90.02</ele>
        <time>2021-04-06T11:41:26Z</time>
      </trkpt>
      <trkpt lat="56.76741" lon="-5.72806">
        <ele>98.35</ele>
        <time>2021-04-06T11:41:28Z</time>
      </trkpt>
      <trkpt lat="56.76759" lon="-5.728">
        <ele>99.53</ele>
        <time>2021-04-06T11:41:30Z</time>
      </trkpt>
      <trkpt lat="56.76781" lon="-5.72787">
        <ele>100.09</ele>
        <time>2021-04-06T11:41:32Z</time>
      </trkpt>
      <trkpt lat="56.76832" lon="-5.72764">
        <ele>101.85</ele>
        <time>2021-04-06T11:41:34Z</time>
      </trkpt>
      <trkpt lat="56.76869" lon="-5.72704">
        <ele>100.63</ele>
        <time>2021-04-06T11:41:37Z</time>
      </trkpt>
      <trkpt lat="56.76885" lon="-5.72696">
        <ele>101.21</ele>
        <time>2021-04-06T11:41:39Z</time>
      </trkpt>
      <trkpt lat="56.76885" lon="-5.72696">
        <ele>101.21</ele>
        <time>2021-04-06T11:41:39Z</time>
      </trkpt>
      <trkpt lat="56.77174" lon="-5.72763">
        <ele>97.07</ele>
        <time>2021-04-06T11:41:42Z</time>
      </trkpt>
      <trkpt lat="56.77237" lon="-5.72811">
        <ele>96.57</ele>
        <time>2021-04-06T11:41:45Z</time>
      </trkpt>
      <trkpt lat="56.77299" lon="-5.72832">
        <ele>94.13</ele>
        <time>2021-04-06T11:41:48Z</time>
      </trkpt>
      <trkpt lat="56.77332" lon="-5.72853">
        <ele>93.31</ele>
        <time>2021-04-06T11:41:52Z</time>
      </trkpt>
      <trkpt lat="56.77365" lon="-5.72889">
        <ele>92.61</ele>
        <time>2021-04-06T11:41:55Z</time>
      </trkpt>
      <trkpt lat="56.77391" lon="-5.72928">
        <ele>92.49</ele>
        <time>2021-04-06T11:41:58Z</time>
      </trkpt>
      <trkpt lat="56.77522" lon="-5.73165">
        <ele>73.79</ele>
        <time>2021-04-06T11:42:01Z</time>
      </trkpt>
      <trkpt lat="56.77585" lon="-5.73337">
        <ele>61.67</ele>
        <time>2021-04-06T11:42:05Z</time>
      </trkpt>
      <trkpt lat="56.77595" lon="-5.73377">
        <ele>58.77</ele>
        <time>2021-04-06T11:42:08Z</time>
      </trkpt>
      <trkpt lat="56.77606" lon="-5.73445">
        <ele>53.87</ele>
        <time>2021-04-06T11:42:11Z</time>
      </trkpt>
      <trkpt lat="56.77611" lon="-5.73566">
        <ele>52.92</ele>
        <time>2021-04-06T11:42:14Z</time>
      </trkpt>
      <trkpt lat="56.7763" lon="-5.73686">
        <ele>55.74</ele>
        <time>2021-04-06T11:42:18Z</time>
      </trkpt>
      <trkpt lat="56.77642" lon="-5.73728">
        <ele>57.72</ele>
        <time>2021-04-06T11:42:21Z</time>
      </trkpt>
      <trkpt lat="56.77661" lon="-5.73756">
        <ele>59.6</ele>
        <time>2021-04-06T11:42:24Z</time>
      </trkpt>
      <trkpt lat="56.77691" lon="-5.7381">
        <ele>64.69</ele>
        <time>2021-04-06T11:42:27Z</time>
      </trkpt>
      <trkpt lat="56.7771" lon="-5.73854">
        <ele>68.84</ele>
        <time>2021-04-06T11:42:31Z</time>
      </trkpt>
      <trkpt lat="56.7773" lon="-5.73914">
        <ele>71.36</ele>
        <time>2021-04-06T11:42:34Z</time>
      </trkpt>
      <trkpt lat="56.77756" lon="-5.73974">
        <ele>70.56</ele>
        <time>2021-04-06T11:42:37Z</time>
      </trkpt>
      <trkpt lat="56.77796" lon="-5.74054">
        <ele>64.51</ele>
        <time>2021-04-06T11:42:40Z</time>
      </trkpt>
      <trkpt lat="56.77919" lon="-5.74238">
        <ele>45.76</ele>
        <time>2021-04-06T11:42:44Z</time>
      </trkpt>
      <trkpt lat="56.77984" lon="-5.74324">
        <ele>35.2</ele>
        <time>2021-04-06T11:42:47Z</time>
      </trkpt>
      <trkpt lat="56.78002" lon="-5.74365">
        <ele>30.72</ele>
        <time>2021-04-06T11:42:50Z</time>
      </trkpt>
      <trkpt lat="56.7802" lon="-5.74424">
        <ele>26.91</ele>
        <time>2021-04-06T11:42:53Z</time>
      </trkpt>
      <trkpt lat="56.78076" lon="-5.74579">
        <ele>17.35</ele>
        <time>2021-04-06T11:42:57Z</time>
      </trkpt>
      <trkpt lat="56.78084" lon="-5.74597">
        <ele>16.1</ele>
        <time>2021-04-06T11:43:00Z</time>
      </trkpt>
      <trkpt lat="56.78101" lon="-5.74614">
        <ele>16.03</ele>
        <time>2021-04-06T11:43:03Z</time>
      </trkpt>
      <trkpt lat="56.78156" lon="-5.74679">
        <ele>13.53</ele>
        <time>2021-04-06T11:43:06Z</time>
      </trkpt>
      <trkpt lat="56.78185" lon="-5.74721">
        <ele>9.82</ele>
        <time>2021-04-06T11:43:10Z</time>
      </trkpt>
      <trkpt lat="56.78194" lon="-5.74726">
        <ele>9.66</ele>
        <time>2021-04-06T11:43:13Z</time>
      </trkpt>
      <trkpt lat="56.78218" lon="-5.74721">
        <ele>8.53</ele>
        <time>2021-04-06T11:43:16Z</time>
      </trkpt>
      <trkpt lat="56.78313" lon="-5.74653">
        <ele>7.08</ele>
        <time>2021-04-06T11:43:19Z</time>
      </trkpt>
      <trkpt lat="56.78349" lon="-5.7465">
        <ele>5.34</ele>
        <time>2021-04-06T11:43:23Z</time>
      </trkpt>
      <trkpt lat="56.78373" lon="-5.74661">
        <ele>3.77</ele>
        <time>2021-04-06T11:43:26Z</time>
      </trkpt>
      <trkpt lat="56.78387" lon="-5.74663">
        <ele>3.2</ele>
        <time>2021-04-06T11:43:29Z</time>
      </trkpt>
      <trkpt lat="56.78438" lon="-5.74657">
        <ele>3.36</ele>
        <time>2021-04-06T11:43:32Z</time>
      </trkpt>
      <trkpt lat="56.78455" lon="-5.74659">
        <ele>3.28</ele>
        <time>2021-04-06T11:43:36Z</time>
      </trkpt>
      <trkpt lat="56.78477" lon="-5.74672">
        <ele>2.96</ele>
        <time>2021-04-06T11:43:39Z</time>
      </trkpt>
      <trkpt lat="56.78497" lon="-5.74694">
        <ele>2.93</ele>
        <time>2021-04-06T11:43:42Z</time>
      </trkpt>
      <trkpt lat="56.78652" lon="-5.74909">
        <ele>4.63</ele>
        <time>2021-04-06T11:43:45Z</time>
      </trkpt>
      <trkpt lat="56.78668" lon="-5.74927">
        <ele>5</ele>
        <time>2021-04-06T11:43:49Z</time>
      </trkpt>
      <trkpt lat="56.78759" lon="-5.74982">
        <ele>3</ele>
        <time>2021-04-06T11:43:52Z</time>
      </trkpt>
      <trkpt lat="56.78831" lon="-5.75011">
        <ele>3.51</ele>
        <time>2021-04-06T11:43:55Z</time>
      </trkpt>
      <trkpt lat="56.78863" lon="-5.75041">
        <ele>4.07</ele>
        <time>2021-04-06T11:43:58Z</time>
      </trkpt>
      <trkpt lat="56.78899" lon="-5.75093">
        <ele>3.77</ele>
        <time>2021-04-06T11:44:02Z</time>
      </trkpt>
      <trkpt lat="56.7895" lon="-5.75184">
        <ele>5.48</ele>
        <time>2021-04-06T11:44:05Z</time>
      </trkpt>
      <trkpt lat="56.7895" lon="-5.75184">
        <ele>5.48</ele>
        <time>2021-04-06T11:44:05Z</time>
      </trkpt>
      <trkpt lat="56.7896" lon="-5.75222">
        <ele>6.18</ele>
        <time>2021-04-06T11:44:08Z</time>
      </trkpt>
      <trkpt lat="56.7899" lon="-5.75628">
        <ele>9.41</ele>
        <time>2021-04-06T11:44:12Z</time>
      </trkpt>
      <trkpt lat="56.79004" lon="-5.75703">
        <ele>8.98</ele>
        <time>2021-04-06T11:44:15Z</time>
      </trkpt>
      <trkpt lat="56.79068" lon="-5.75974">
        <ele>15.7</ele>
        <time>2021-04-06T11:44:19Z</time>
      </trkpt>
      <trkpt lat="56.79071" lon="-5.76028">
        <ele>17.91</ele>
        <time>2021-04-06T11:44:22Z</time>
      </trkpt>
      <trkpt lat="56.7906" lon="-5.76306">
        <ele>22.19</ele>
        <time>2021-04-06T11:44:26Z</time>
      </trkpt>
      <trkpt lat="56.7905" lon="-5.76351">
        <ele>23.26</ele>
        <time>2021-04-06T11:44:30Z</time>
      </trkpt>
      <trkpt lat="56.79016" lon="-5.76421">
        <ele>22.94</ele>
        <time>2021-04-06T11:44:33Z</time>
      </trkpt>
      <trkpt lat="56.79006" lon="-5.76456">
        <ele>23.96</ele>
        <time>2021-04-06T11:44:37Z</time>
      </trkpt>
      <trkpt lat="56.78994" lon="-5.76539">
        <ele>21.98</ele>
        <time>2021-04-06T11:44:40Z</time>
      </trkpt>
      <trkpt lat="56.78963" lon="-5.76725">
        <ele>11.34</ele>
        <time>2021-04-06T11:44:44Z</time>
      </trkpt>
      <trkpt lat="56.78943" lon="-5.76866">
        <ele>10.74</ele>
        <time>2021-04-06T11:44:47Z</time>
      </trkpt>
      <trkpt lat="56.78941" lon="-5.76913">
        <ele>11.12</ele>
        <time>2021-04-06T11:44:51Z</time>
      </trkpt>
      <trkpt lat="56.78943" lon="-5.76968">
        <ele>12.38</ele>
        <time>2021-04-06T11:44:54Z</time>
      </trkpt>
      <trkpt lat="56.78953" lon="-5.77058">
        <ele>15.53</ele>
        <time>2021-04-06T11:44:58Z</time>
      </trkpt>
      <trkpt lat="56.78981" lon="-5.77156">
        <ele>16.72</ele>
        <time>2021-04-06T11:45:01Z</time>
      </trkpt>
      <trkpt lat="56.78993" lon="-5.77213">
        <ele>22.8</ele>
        <time>2021-04-06T11:45:05Z</time>
      </trkpt>
      <trkpt lat="56.79001" lon="-5.77282">
        <ele>22.4</ele>
        <time>2021-04-06T11:45:08Z</time>
      </trkpt>
      <trkpt lat="56.79" lon="-5.77485">
        <ele>13.68</ele>
        <time>2021-04-06T11:45:12Z</time>
      </trkpt>
      <trkpt lat="56.79007" lon="-5.7753">
        <ele>12.77</ele>
        <time>2021-04-06T11:45:15Z</time>
      </trkpt>
      <trkpt lat="56.79015" lon="-5.77566">
        <ele>12.64</ele>
        <time>2021-04-06T11:45:19Z</time>
      </trkpt>
      <trkpt lat="56.79043" lon="-5.77661">
        <ele>15.13</ele>
        <time>2021-04-06T11:45:23Z</time>
      </trkpt>
      <trkpt lat="56.79051" lon="-5.77707">
        <ele>17.15</ele>
        <time>2021-04-06T11:45:26Z</time>
      </trkpt>
      <trkpt lat="56.79069" lon="-5.77843">
        <ele>13.46</ele>
        <time>2021-04-06T11:45:30Z</time>
      </trkpt>
      <trkpt lat="56.79077" lon="-5.77875">
        <ele>12.61</ele>
        <time>2021-04-06T11:45:33Z</time>
      </trkpt>
      <trkpt lat="56.79088" lon="-5.77907">
        <ele>17.27</ele>
        <time>2021-04-06T11:45:37Z</time>
      </trkpt>
      <trkpt lat="56.79215" lon="-5.7815">
        <ele>23.97</ele>
        <time>2021-04-06T11:45:40Z</time>
      </trkpt>
      <trkpt lat="56.79236" lon="-5.78213">
        <ele>20.06</ele>
        <time>2021-04-06T11:45:44Z</time>
      </trkpt>
      <trkpt lat="56.79245" lon="-5.78261">
        <ele>17.94</ele>
        <time>2021-04-06T11:45:47Z</time>
      </trkpt>
      <trkpt lat="56.79267" lon="-5.78445">
        <ele>15.24</ele>
        <time>2021-04-06T11:45:51Z</time>
      </trkpt>
      <trkpt lat="56.79274" lon="-5.78481">
        <ele>15.51</ele>
        <time>2021-04-06T11:45:54Z</time>
      </trkpt>
      <trkpt lat="56.79332" lon="-5.78674">
        <ele>15.86</ele>
        <time>2021-04-06T11:45:58Z</time>
      </trkpt>
      <trkpt lat="56.79357" lon="-5.78744">
        <ele>13.39</ele>
        <time>2021-04-06T11:46:01Z</time>
      </trkpt>
      <trkpt lat="56.79376" lon="-5.78782">
        <ele>13.39</ele>
        <time>2021-04-06T11:46:05Z</time>
      </trkpt>
      <trkpt lat="56.79396" lon="-5.78833">
        <ele>13.12</ele>
        <time>2021-04-06T11:46:09Z</time>
      </trkpt>
      <trkpt lat="56.79415" lon="-5.78901">
        <ele>13.36</ele>
        <time>2021-04-06T11:46:12Z</time>
      </trkpt>
      <trkpt lat="56.79449" lon="-5.79057">
        <ele>22.53</ele>
        <time>2021-04-06T11:46:16Z</time>
      </trkpt>
      <trkpt lat="56.79456" lon="-5.79142">
        <ele>28.64</ele>
        <time>2021-04-06T11:46:19Z</time>
      </trkpt>
      <trkpt lat="56.79457" lon="-5.79296">
        <ele>23.65</ele>
        <time>2021-04-06T11:46:23Z</time>
      </trkpt>
      <trkpt lat="56.79509" lon="-5.797">
        <ele>19.83</ele>
        <time>2021-04-06T11:46:26Z</time>
      </trkpt>
      <trkpt lat="56.79521" lon="-5.79783">
        <ele>16.4</ele>
        <time>2021-04-06T11:46:30Z</time>
      </trkpt>
      <trkpt lat="56.79538" lon="-5.79851">
        <ele>15.44</ele>
        <time>2021-04-06T11:46:33Z</time>
      </trkpt>
      <trkpt lat="56.79553" lon="-5.79893">
        <ele>16.06</ele>
        <time>2021-04-06T11:46:37Z</time>
      </trkpt>
      <trkpt lat="56.79565" lon="-5.79914">
        <ele>16.3</ele>
        <time>2021-04-06T11:46:40Z</time>
      </trkpt>
      <trkpt lat="56.79624" lon="-5.79961">
        <ele>22.91</ele>
        <time>2021-04-06T11:46:44Z</time>
      </trkpt>
      <trkpt lat="56.79664" lon="-5.79975">
        <ele>27.96</ele>
        <time>2021-04-06T11:46:47Z</time>
      </trkpt>
      <trkpt lat="56.79708" lon="-5.80001">
        <ele>34.35</ele>
        <time>2021-04-06T11:46:51Z</time>
      </trkpt>
      <trkpt lat="56.79731" lon="-5.8003">
        <ele>36.58</ele>
        <time>2021-04-06T11:46:54Z</time>
      </trkpt>
      <trkpt lat="56.79747" lon="-5.80074">
        <ele>37.52</ele>
        <time>2021-04-06T11:46:58Z</time>
      </trkpt>
      <trkpt lat="56.79789" lon="-5.80213">
        <ele>34.82</ele>
        <time>2021-04-06T11:47:02Z</time>
      </trkpt>
      <trkpt lat="56.79807" lon="-5.80255">
        <ele>32.65</ele>
        <time>2021-04-06T11:47:05Z</time>
      </trkpt>
      <trkpt lat="56.79831" lon="-5.80289">
        <ele>31.57</ele>
        <time>2021-04-06T11:47:09Z</time>
      </trkpt>
      <trkpt lat="56.7992" lon="-5.80386">
        <ele>35.53</ele>
        <time>2021-04-06T11:47:12Z</time>
      </trkpt>
      <trkpt lat="56.79948" lon="-5.80429">
        <ele>36.06</ele>
        <time>2021-04-06T11:47:16Z</time>
      </trkpt>
      <trkpt lat="56.79977" lon="-5.80483">
        <ele>39.49</ele>
        <time>2021-04-06T11:47:19Z</time>
      </trkpt>
      <trkpt lat="56.80001" lon="-5.80537">
        <ele>43.08</ele>
        <time>2021-04-06T11:47:23Z</time>
      </trkpt>
      <trkpt lat="56.80019" lon="-5.80595">
        <ele>44.42</ele>
        <time>2021-04-06T11:47:26Z</time>
      </trkpt>
      <trkpt lat="56.80261" lon="-5.81162">
        <ele>69.86</ele>
        <time>2021-04-06T11:47:30Z</time>
      </trkpt>
      <trkpt lat="56.8029" lon="-5.81241">
        <ele>73.07</ele>
        <time>2021-04-06T11:47:33Z</time>
      </trkpt>
      <trkpt lat="56.80317" lon="-5.8133">
        <ele>77.08</ele>
        <time>2021-04-06T11:47:37Z</time>
      </trkpt>
      <trkpt lat="56.80373" lon="-5.815">
        <ele>77</ele>
        <time>2021-04-06T11:47:40Z</time>
      </trkpt>
      <trkpt lat="56.80396" lon="-5.8154">
        <ele>79.89</ele>
        <time>2021-04-06T11:47:44Z</time>
      </trkpt>
      <trkpt lat="56.80445" lon="-5.81605">
        <ele>86.68</ele>
        <time>2021-04-06T11:47:47Z</time>
      </trkpt>
      <trkpt lat="56.80492" lon="-5.81671">
        <ele>90.97</ele>
        <time>2021-04-06T11:47:51Z</time>
      </trkpt>
      <trkpt lat="56.80492" lon="-5.81671">
        <ele>90.97</ele>
        <time>2021-04-06T11:47:51Z</time>
      </trkpt>
      <trkpt lat="56.80522" lon="-5.81699">
        <ele>91.82</ele>
        <time>2021-04-06T11:47:54Z</time>
      </trkpt>
      <trkpt lat="56.80561" lon="-5.81721">
        <ele>94.8</ele>
        <time>2021-04-06T11:47:57Z</time>
      </trkpt>
      <trkpt lat="56.80622" lon="-5.81728">
        <ele>108.35</ele>
        <time>2021-04-06T11:47:59Z</time>
      </trkpt>
      <trkpt lat="56.8065" lon="-5.81742">
        <ele>112.94</ele>
        <time>2021-04-06T11:48:02Z</time>
      </trkpt>
      <trkpt lat="56.80682" lon="-5.81777">
        <ele>115</ele>
        <time>2021-04-06T11:48:05Z</time>
      </trkpt>
      <trkpt lat="56.80736" lon="-5.81855">
        <ele>124.28</ele>
        <time>2021-04-06T11:48:08Z</time>
      </trkpt>
      <trkpt lat="56.80769" lon="-5.8189">
        <ele>127.3</ele>
        <time>2021-04-06T11:48:11Z</time>
      </trkpt>
      <trkpt lat="56.80808" lon="-5.8192">
        <ele>133.04</ele>
        <time>2021-04-06T11:48:13Z</time>
      </trkpt>
      <trkpt lat="56.8084" lon="-5.81931">
        <ele>136.36</ele>
        <time>2021-04-06T11:48:16Z</time>
      </trkpt>
      <trkpt lat="56.80887" lon="-5.81935">
        <ele>142.11</ele>
        <time>2021-04-06T11:48:19Z</time>
      </trkpt>
      <trkpt lat="56.80935" lon="-5.8193">
        <ele>143.34</ele>
        <time>2021-04-06T11:48:22Z</time>
      </trkpt>
      <trkpt lat="56.80961" lon="-5.81931">
        <ele>141.2</ele>
        <time>2021-04-06T11:48:25Z</time>
      </trkpt>
      <trkpt lat="56.80997" lon="-5.8195">
        <ele>137.34</ele>
        <time>2021-04-06T11:48:28Z</time>
      </trkpt>
      <trkpt lat="56.81147" lon="-5.82063">
        <ele>124.96</ele>
        <time>2021-04-06T11:48:30Z</time>
      </trkpt>
      <trkpt lat="56.8117" lon="-5.82075">
        <ele>123.29</ele>
        <time>2021-04-06T11:48:33Z</time>
      </trkpt>
      <trkpt lat="56.81187" lon="-5.82077">
        <ele>120.8</ele>
        <time>2021-04-06T11:48:36Z</time>
      </trkpt>
      <trkpt lat="56.8134" lon="-5.82063">
        <ele>98.84</ele>
        <time>2021-04-06T11:48:39Z</time>
      </trkpt>
      <trkpt lat="56.81527" lon="-5.82078">
        <ele>86.98</ele>
        <time>2021-04-06T11:48:42Z</time>
      </trkpt>
      <trkpt lat="56.81598" lon="-5.82098">
        <ele>81.07</ele>
        <time>2021-04-06T11:48:44Z</time>
      </trkpt>
      <trkpt lat="56.81701" lon="-5.82157">
        <ele>69.56</ele>
        <time>2021-04-06T11:48:47Z</time>
      </trkpt>
      <trkpt lat="56.81725" lon="-5.82161">
        <ele>67.48</ele>
        <time>2021-04-06T11:48:50Z</time>
      </trkpt>
      <trkpt lat="56.81752" lon="-5.8216">
        <ele>66.29</ele>
        <time>2021-04-06T11:48:53Z</time>
      </trkpt>
      <trkpt lat="56.81798" lon="-5.82142">
        <ele>63.66</ele>
        <time>2021-04-06T11:48:56Z</time>
      </trkpt>
      <trkpt lat="56.81914" lon="-5.82033">
        <ele>55.55</ele>
        <time>2021-04-06T11:48:58Z</time>
      </trkpt>
      <trkpt lat="56.81947" lon="-5.82011">
        <ele>56.13</ele>
        <time>2021-04-06T11:49:01Z</time>
      </trkpt>
      <trkpt lat="56.81972" lon="-5.82003">
        <ele>55.85</ele>
        <time>2021-04-06T11:49:04Z</time>
      </trkpt>
      <trkpt lat="56.82232" lon="-5.81956">
        <ele>44.89</ele>
        <time>2021-04-06T11:49:07Z</time>
      </trkpt>
      <trkpt lat="56.82258" lon="-5.81945">
        <ele>42.86</ele>
        <time>2021-04-06T11:49:10Z</time>
      </trkpt>
      <trkpt lat="56.82302" lon="-5.8192">
        <ele>39.42</ele>
        <time>2021-04-06T11:49:13Z</time>
      </trkpt>
      <trkpt lat="56.82371" lon="-5.81867">
        <ele>33.87</ele>
        <time>2021-04-06T11:49:15Z</time>
      </trkpt>
      <trkpt lat="56.82422" lon="-5.81832">
        <ele>36</ele>
        <time>2021-04-06T11:49:18Z</time>
      </trkpt>
      <trkpt lat="56.82478" lon="-5.81821">
        <ele>35.87</ele>
        <time>2021-04-06T11:49:21Z</time>
      </trkpt>
      <trkpt lat="56.82534" lon="-5.81822">
        <ele>32.08</ele>
        <time>2021-04-06T11:49:24Z</time>
      </trkpt>
      <trkpt lat="56.82561" lon="-5.81816">
        <ele>29.43</ele>
        <time>2021-04-06T11:49:27Z</time>
      </trkpt>
      <trkpt lat="56.82582" lon="-5.81804">
        <ele>25.65</ele>
        <time>2021-04-06T11:49:29Z</time>
      </trkpt>
      <trkpt lat="56.82603" lon="-5.81786">
        <ele>20.93</ele>
        <time>2021-04-06T11:49:32Z</time>
      </trkpt>
      <trkpt lat="56.82632" lon="-5.81749">
        <ele>18.8</ele>
        <time>2021-04-06T11:49:35Z</time>
      </trkpt>
      <trkpt lat="56.82689" lon="-5.81664">
        <ele>15.31</ele>
        <time>2021-04-06T11:49:38Z</time>
      </trkpt>
      <trkpt lat="56.82725" lon="-5.81625">
        <ele>13.03</ele>
        <time>2021-04-06T11:49:41Z</time>
      </trkpt>
      <trkpt lat="56.82737" lon="-5.81616">
        <ele>11.5</ele>
        <time>2021-04-06T11:49:43Z</time>
      </trkpt>
      <trkpt lat="56.82763" lon="-5.81605">
        <ele>9.04</ele>
        <time>2021-04-06T11:49:46Z</time>
      </trkpt>
      <trkpt lat="56.82849" lon="-5.81624">
        <ele>6.07</ele>
        <time>2021-04-06T11:49:49Z</time>
      </trkpt>
      <trkpt lat="56.8287" lon="-5.81626">
        <ele>5.91</ele>
        <time>2021-04-06T11:49:52Z</time>
      </trkpt>
      <trkpt lat="56.82891" lon="-5.81625">
        <ele>5.97</ele>
        <time>2021-04-06T11:49:55Z</time>
      </trkpt>
      <trkpt lat="56.82905" lon="-5.8162">
        <ele>5.77</ele>
        <time>2021-04-06T11:49:57Z</time>
      </trkpt>
      <trkpt lat="56.8292" lon="-5.81614">
        <ele>5.7</ele>
        <time>2021-04-06T11:50:00Z</time>
      </trkpt>
      <trkpt lat="56.82943" lon="-5.81596">
        <ele>6.2</ele>
        <time>2021-04-06T11:50:03Z</time>
      </trkpt>
      <trkpt lat="56.83032" lon="-5.81507">
        <ele>5.38</ele>
        <time>2021-04-06T11:50:06Z</time>
      </trkpt>
      <trkpt lat="56.83071" lon="-5.81477">
        <ele>7.46</ele>
        <time>2021-04-06T11:50:09Z</time>
      </trkpt>
      <trkpt lat="56.83189" lon="-5.81419">
        <ele>7.18</ele>
        <time>2021-04-06T11:50:12Z</time>
      </trkpt>
      <trkpt lat="56.83216" lon="-5.8141">
        <ele>6.79</ele>
        <time>2021-04-06T11:50:14Z</time>
      </trkpt>
      <trkpt lat="56.83257" lon="-5.8141">
        <ele>4.22</ele>
        <time>2021-04-06T11:50:17Z</time>
      </trkpt>
      <trkpt lat="56.83325" lon="-5.81414">
        <ele>5.88</ele>
        <time>2021-04-06T11:50:20Z</time>
      </trkpt>
      <trkpt lat="56.8335" lon="-5.81406">
        <ele>5.57</ele>
        <time>2021-04-06T11:50:23Z</time>
      </trkpt>
      <trkpt lat="56.83371" lon="-5.81393">
        <ele>5.4</ele>
        <time>2021-04-06T11:50:26Z</time>
      </trkpt>
      <trkpt lat="56.83394" lon="-5.81366">
        <ele>7.14</ele>
        <time>2021-04-06T11:50:28Z</time>
      </trkpt>
      <trkpt lat="56.83412" lon="-5.81337">
        <ele>8.18</ele>
        <time>2021-04-06T11:50:31Z</time>
      </trkpt>
      <trkpt lat="56.83441" lon="-5.81267">
        <ele>11.79</ele>
        <time>2021-04-06T11:50:34Z</time>
      </trkpt>
      <trkpt lat="56.83483" lon="-5.81153">
        <ele>12.94</ele>
        <time>2021-04-06T11:50:37Z</time>
      </trkpt>
      <trkpt lat="56.83494" lon="-5.8113">
        <ele>12.64</ele>
        <time>2021-04-06T11:50:40Z</time>
      </trkpt>
      <trkpt lat="56.83512" lon="-5.81099">
        <ele>11.73</ele>
        <time>2021-04-06T11:50:42Z</time>
      </trkpt>
      <trkpt lat="56.83529" lon="-5.8108">
        <ele>10.2</ele>
        <time>2021-04-06T11:50:45Z</time>
      </trkpt>
      <trkpt lat="56.83551" lon="-5.81064">
        <ele>8.74</ele>
        <time>2021-04-06T11:50:48Z</time>
      </trkpt>
      <trkpt lat="56.83627" lon="-5.81024">
        <ele>13.1</ele>
        <time>2021-04-06T11:50:51Z</time>
      </trkpt>
      <trkpt lat="56.83668" lon="-5.80996">
        <ele>10.49</ele>
        <time>2021-04-06T11:50:54Z</time>
      </trkpt>
      <trkpt lat="56.83697" lon="-5.80967">
        <ele>9.65</ele>
        <time>2021-04-06T11:50:57Z</time>
      </trkpt>
      <trkpt lat="56.83717" lon="-5.80935">
        <ele>8.43</ele>
        <time>2021-04-06T11:50:59Z</time>
      </trkpt>
      <trkpt lat="56.83717" lon="-5.80935">
        <ele>8.43</ele>
        <time>2021-04-06T11:50:59Z</time>
      </trkpt>
      <trkpt lat="56.83734" lon="-5.80889">
        <ele>15.79</ele>
        <time>2021-04-06T11:51:03Z</time>
      </trkpt>
      <trkpt lat="56.83745" lon="-5.80844">
        <ele>14.2</ele>
        <time>2021-04-06T11:51:06Z</time>
      </trkpt>
      <trkpt lat="56.83753" lon="-5.80799">
        <ele>10.18</ele>
        <time>2021-04-06T11:51:10Z</time>
      </trkpt>
      <trkpt lat="56.83756" lon="-5.80747">
        <ele>11</ele>
        <time>2021-04-06T11:51:13Z</time>
      </trkpt>
      <trkpt lat="56.83754" lon="-5.80673">
        <ele>14.92</ele>
        <time>2021-04-06T11:51:16Z</time>
      </trkpt>
      <trkpt lat="56.83748" lon="-5.80578">
        <ele>9.4</ele>
        <time>2021-04-06T11:51:20Z</time>
      </trkpt>
      <trkpt lat="56.83736" lon="-5.80469">
        <ele>10.13</ele>
        <time>2021-04-06T11:51:23Z</time>
      </trkpt>
      <trkpt lat="56.83675" lon="-5.80173">
        <ele>7.42</ele>
        <time>2021-04-06T11:51:27Z</time>
      </trkpt>
      <trkpt lat="56.83671" lon="-5.80128">
        <ele>7.76</ele>
        <time>2021-04-06T11:51:30Z</time>
      </trkpt>
      <trkpt lat="56.83675" lon="-5.79856">
        <ele>18.26</ele>
        <time>2021-04-06T11:51:34Z</time>
      </trkpt>
      <trkpt lat="56.83673" lon="-5.79819">
        <ele>16.07</ele>
        <time>2021-04-06T11:51:37Z</time>
      </trkpt>
      <trkpt lat="56.83668" lon="-5.79781">
        <ele>11.4</ele>
        <time>2021-04-06T11:51:40Z</time>
      </trkpt>
      <trkpt lat="56.83613" lon="-5.79559">
        <ele>10.61</ele>
        <time>2021-04-06T11:51:44Z</time>
      </trkpt>
      <trkpt lat="56.83606" lon="-5.79506">
        <ele>10.05</ele>
        <time>2021-04-06T11:51:47Z</time>
      </trkpt>
      <trkpt lat="56.83604" lon="-5.79465">
        <ele>9.77</ele>
        <time>2021-04-06T11:51:51Z</time>
      </trkpt>
      <trkpt lat="56.83605" lon="-5.79387">
        <ele>7.81</ele>
        <time>2021-04-06T11:51:54Z</time>
      </trkpt>
      <trkpt lat="56.83633" lon="-5.79091">
        <ele>13.61</ele>
        <time>2021-04-06T11:51:58Z</time>
      </trkpt>
      <trkpt lat="56.83635" lon="-5.79027">
        <ele>12.42</ele>
        <time>2021-04-06T11:52:01Z</time>
      </trkpt>
      <trkpt lat="56.83633" lon="-5.7896">
        <ele>13.98</ele>
        <time>2021-04-06T11:52:04Z</time>
      </trkpt>
      <trkpt lat="56.83621" lon="-5.78814">
        <ele>9.8</ele>
        <time>2021-04-06T11:52:08Z</time>
      </trkpt>
      <trkpt lat="56.83622" lon="-5.78759">
        <ele>8.31</ele>
        <time>2021-04-06T11:52:11Z</time>
      </trkpt>
      <trkpt lat="56.83626" lon="-5.78724">
        <ele>9.15</ele>
        <time>2021-04-06T11:52:15Z</time>
      </trkpt>
      <trkpt lat="56.83637" lon="-5.78665">
        <ele>10.57</ele>
        <time>2021-04-06T11:52:18Z</time>
      </trkpt>
      <trkpt lat="56.83686" lon="-5.78496">
        <ele>10.44</ele>
        <time>2021-04-06T11:52:22Z</time>
      </trkpt>
      <trkpt lat="56.83708" lon="-5.78425">
        <ele>14.79</ele>
        <time>2021-04-06T11:52:25Z</time>
      </trkpt>
      <trkpt lat="56.83776" lon="-5.78288">
        <ele>22.99</ele>
        <time>2021-04-06T11:52:28Z</time>
      </trkpt>
      <trkpt lat="56.83829" lon="-5.78163">
        <ele>21.87</ele>
        <time>2021-04-06T11:52:32Z</time>
      </trkpt>
      <trkpt lat="56.83851" lon="-5.78105">
        <ele>21.91</ele>
        <time>2021-04-06T11:52:35Z</time>
      </trkpt>
      <trkpt lat="56.83862" lon="-5.78063">
        <ele>23.97</ele>
        <time>2021-04-06T11:52:39Z</time>
      </trkpt>
      <trkpt lat="56.83869" lon="-5.78018">
        <ele>24.98</ele>
        <time>2021-04-06T11:52:42Z</time>
      </trkpt>
      <trkpt lat="56.8387" lon="-5.77965">
        <ele>25.74</ele>
        <time>2021-04-06T11:52:45Z</time>
      </trkpt>
      <trkpt lat="56.83863" lon="-5.77884">
        <ele>22.32</ele>
        <time>2021-04-06T11:52:49Z</time>
      </trkpt>
      <trkpt lat="56.83858" lon="-5.77768">
        <ele>20.84</ele>
        <time>2021-04-06T11:52:52Z</time>
      </trkpt>
      <trkpt lat="56.83859" lon="-5.77732">
        <ele>20.5</ele>
        <time>2021-04-06T11:52:56Z</time>
      </trkpt>
      <trkpt lat="56.83873" lon="-5.7756">
        <ele>21.59</ele>
        <time>2021-04-06T11:52:59Z</time>
      </trkpt>
      <trkpt lat="56.83874" lon="-5.77502">
        <ele>23.43</ele>
        <time>2021-04-06T11:53:03Z</time>
      </trkpt>
      <trkpt lat="56.83867" lon="-5.77308">
        <ele>21.61</ele>
        <time>2021-04-06T11:53:06Z</time>
      </trkpt>
      <trkpt lat="56.8387" lon="-5.77262">
        <ele>21.05</ele>
        <time>2021-04-06T11:53:09Z</time>
      </trkpt>
      <trkpt lat="56.83918" lon="-5.76984">
        <ele>24.48</ele>
        <time>2021-04-06T11:53:13Z</time>
      </trkpt>
      <trkpt lat="56.83934" lon="-5.76904">
        <ele>25.23</ele>
        <time>2021-04-06T11:53:16Z</time>
      </trkpt>
      <trkpt lat="56.83952" lon="-5.76841">
        <ele>24.18</ele>
        <time>2021-04-06T11:53:20Z</time>
      </trkpt>
      <trkpt lat="56.83975" lon="-5.76792">
        <ele>22.19</ele>
        <time>2021-04-06T11:53:23Z</time>
      </trkpt>
      <trkpt lat="56.83996" lon="-5.76758">
        <ele>20.97</ele>
        <time>2021-04-06T11:53:27Z</time>
      </trkpt>
      <trkpt lat="56.84039" lon="-5.76708">
        <ele>20.84</ele>
        <time>2021-04-06T11:53:30Z</time>
      </trkpt>
      <trkpt lat="56.84075" lon="-5.76677">
        <ele>21.6</ele>
        <time>2021-04-06T11:53:33Z</time>
      </trkpt>
      <trkpt lat="56.84112" lon="-5.76632">
        <ele>21.47</ele>
        <time>2021-04-06T11:53:37Z</time>
      </trkpt>
      <trkpt lat="56.84137" lon="-5.7661">
        <ele>21.21</ele>
        <time>2021-04-06T11:53:40Z</time>
      </trkpt>
      <trkpt lat="56.84158" lon="-5.76575">
        <ele>19.66</ele>
        <time>2021-04-06T11:53:44Z</time>
      </trkpt>
      <trkpt lat="56.84171" lon="-5.7655">
        <ele>18.81</ele>
        <time>2021-04-06T11:53:47Z</time>
      </trkpt>
      <trkpt lat="56.84188" lon="-5.76509">
        <ele>19.88</ele>
        <time>2021-04-06T11:53:51Z</time>
      </trkpt>
      <trkpt lat="56.84202" lon="-5.76455">
        <ele>24.65</ele>
        <time>2021-04-06T11:53:54Z</time>
      </trkpt>
      <trkpt lat="56.84209" lon="-5.76398">
        <ele>29.3</ele>
        <time>2021-04-06T11:53:57Z</time>
      </trkpt>
      <trkpt lat="56.84213" lon="-5.76343">
        <ele>32.96</ele>
        <time>2021-04-06T11:54:01Z</time>
      </trkpt>
      <trkpt lat="56.84211" lon="-5.76285">
        <ele>36.44</ele>
        <time>2021-04-06T11:54:04Z</time>
      </trkpt>
      <trkpt lat="56.8414" lon="-5.75911">
        <ele>36.71</ele>
        <time>2021-04-06T11:54:08Z</time>
      </trkpt>
      <trkpt lat="56.84139" lon="-5.75856">
        <ele>34.83</ele>
        <time>2021-04-06T11:54:11Z</time>
      </trkpt>
      <trkpt lat="56.84142" lon="-5.75813">
        <ele>34.14</ele>
        <time>2021-04-06T11:54:14Z</time>
      </trkpt>
      <trkpt lat="56.84156" lon="-5.75747">
        <ele>34.33</ele>
        <time>2021-04-06T11:54:18Z</time>
      </trkpt>
      <trkpt lat="56.84262" lon="-5.75477">
        <ele>43.17</ele>
        <time>2021-04-06T11:54:21Z</time>
      </trkpt>
      <trkpt lat="56.84284" lon="-5.75414">
        <ele>43.39</ele>
        <time>2021-04-06T11:54:25Z</time>
      </trkpt>
      <trkpt lat="56.84298" lon="-5.75358">
        <ele>43.94</ele>
        <time>2021-04-06T11:54:28Z</time>
      </trkpt>
      <trkpt lat="56.84304" lon="-5.75303">
        <ele>44.2</ele>
        <time>2021-04-06T11:54:32Z</time>
      </trkpt>
      <trkpt lat="56.84305" lon="-5.75247">
        <ele>43</ele>
        <time>2021-04-06T11:54:35Z</time>
      </trkpt>
      <trkpt lat="56.84302" lon="-5.75196">
        <ele>41.93</ele>
        <time>2021-04-06T11:54:38Z</time>
      </trkpt>
      <trkpt lat="56.84259" lon="-5.74961">
        <ele>35.58</ele>
        <time>2021-04-06T11:54:42Z</time>
      </trkpt>
      <trkpt lat="56.84255" lon="-5.74922">
        <ele>35.13</ele>
        <time>2021-04-06T11:54:45Z</time>
      </trkpt>
      <trkpt lat="56.84251" lon="-5.74837">
        <ele>34.69</ele>
        <time>2021-04-06T11:54:49Z</time>
      </trkpt>
      <trkpt lat="56.84249" lon="-5.74661">
        <ele>29.06</ele>
        <time>2021-04-06T11:54:52Z</time>
      </trkpt>
      <trkpt lat="56.84241" lon="-5.74577">
        <ele>28.15</ele>
        <time>2021-04-06T11:54:56Z</time>
      </trkpt>
      <trkpt lat="56.84174" lon="-5.74144">
        <ele>20.94</ele>
        <time>2021-04-06T11:54:59Z</time>
      </trkpt>
      <trkpt lat="56.84173" lon="-5.74096">
        <ele>18.81</ele>
        <time>2021-04-06T11:55:02Z</time>
      </trkpt>
      <trkpt lat="56.84174" lon="-5.7406">
        <ele>18.03</ele>
        <time>2021-04-06T11:55:06Z</time>
      </trkpt>
      <trkpt lat="56.84177" lon="-5.7401">
        <ele>19.54</ele>
        <time>2021-04-06T11:55:09Z</time>
      </trkpt>
      <trkpt lat="56.8426" lon="-5.73407">
        <ele>12.52</ele>
        <time>2021-04-06T11:55:13Z</time>
      </trkpt>
      <trkpt lat="56.84286" lon="-5.73194">
        <ele>8.15</ele>
        <time>2021-04-06T11:55:16Z</time>
      </trkpt>
      <trkpt lat="56.8429" lon="-5.73131">
        <ele>9.49</ele>
        <time>2021-04-06T11:55:20Z</time>
      </trkpt>
      <trkpt lat="56.84293" lon="-5.72821">
        <ele>33.78</ele>
        <time>2021-04-06T11:55:23Z</time>
      </trkpt>
      <trkpt lat="56.84323" lon="-5.72664">
        <ele>35.95</ele>
        <time>2021-04-06T11:55:26Z</time>
      </trkpt>
      <trkpt lat="56.84328" lon="-5.72593">
        <ele>39.07</ele>
        <time>2021-04-06T11:55:30Z</time>
      </trkpt>
      <trkpt lat="56.84328" lon="-5.72349">
        <ele>9.55</ele>
        <time>2021-04-06T11:55:33Z</time>
      </trkpt>
      <trkpt lat="56.84342" lon="-5.7221">
        <ele>7.77</ele>
        <time>2021-04-06T11:55:37Z</time>
      </trkpt>
      <trkpt lat="56.84345" lon="-5.7215">
        <ele>8.02</ele>
        <time>2021-04-06T11:55:40Z</time>
      </trkpt>
      <trkpt lat="56.84348" lon="-5.71957">
        <ele>6.14</ele>
        <time>2021-04-06T11:55:43Z</time>
      </trkpt>
      <trkpt lat="56.84359" lon="-5.71871">
        <ele>10.85</ele>
        <time>2021-04-06T11:55:47Z</time>
      </trkpt>
      <trkpt lat="56.84377" lon="-5.71786">
        <ele>12.18</ele>
        <time>2021-04-06T11:55:50Z</time>
      </trkpt>
      <trkpt lat="56.84377" lon="-5.71786">
        <ele>12.18</ele>
        <time>2021-04-06T11:55:50Z</time>
      </trkpt>
      <trkpt lat="56.84391" lon="-5.71738">
        <ele>11.91</ele>
        <time>2021-04-06T11:55:53Z</time>
      </trkpt>
      <trkpt lat="56.84427" lon="-5.71651">
        <ele>10.28</ele>
        <time>2021-04-06T11:55:56Z</time>
      </trkpt>
      <trkpt lat="56.84501" lon="-5.71512">
        <ele>9.56</ele>
        <time>2021-04-06T11:55:59Z</time>
      </trkpt>
      <trkpt lat="56.84526" lon="-5.71449">
        <ele>7.23</ele>
        <time>2021-04-06T11:56:01Z</time>
      </trkpt>
      <trkpt lat="56.84568" lon="-5.71312">
        <ele>8.71</ele>
        <time>2021-04-06T11:56:04Z</time>
      </trkpt>
      <trkpt lat="56.84591" lon="-5.71257">
        <ele>9.23</ele>
        <time>2021-04-06T11:56:07Z</time>
      </trkpt>
      <trkpt lat="56.84615" lon="-5.71213">
        <ele>6.95</ele>
        <time>2021-04-06T11:56:10Z</time>
      </trkpt>
      <trkpt lat="56.84639" lon="-5.7118">
        <ele>5.59</ele>
        <time>2021-04-06T11:56:12Z</time>
      </trkpt>
      <trkpt lat="56.84708" lon="-5.71095">
        <ele>4.95</ele>
        <time>2021-04-06T11:56:15Z</time>
      </trkpt>
      <trkpt lat="56.8473" lon="-5.71058">
        <ele>4.65</ele>
        <time>2021-04-06T11:56:18Z</time>
      </trkpt>
      <trkpt lat="56.84788" lon="-5.70953">
        <ele>4.55</ele>
        <time>2021-04-06T11:56:21Z</time>
      </trkpt>
      <trkpt lat="56.84808" lon="-5.70927">
        <ele>2.63</ele>
        <time>2021-04-06T11:56:23Z</time>
      </trkpt>
      <trkpt lat="56.84833" lon="-5.70905">
        <ele>3.44</ele>
        <time>2021-04-06T11:56:26Z</time>
      </trkpt>
      <trkpt lat="56.84941" lon="-5.70849">
        <ele>8.69</ele>
        <time>2021-04-06T11:56:29Z</time>
      </trkpt>
      <trkpt lat="56.85086" lon="-5.70782">
        <ele>9.6</ele>
        <time>2021-04-06T11:56:32Z</time>
      </trkpt>
      <trkpt lat="56.85255" lon="-5.70757">
        <ele>7.71</ele>
        <time>2021-04-06T11:56:34Z</time>
      </trkpt>
      <trkpt lat="56.85289" lon="-5.70744">
        <ele>9.69</ele>
        <time>2021-04-06T11:56:37Z</time>
      </trkpt>
      <trkpt lat="56.85318" lon="-5.70724">
        <ele>11.39</ele>
        <time>2021-04-06T11:56:40Z</time>
      </trkpt>
      <trkpt lat="56.85347" lon="-5.70695">
        <ele>12.47</ele>
        <time>2021-04-06T11:56:43Z</time>
      </trkpt>
      <trkpt lat="56.85424" lon="-5.70599">
        <ele>11.08</ele>
        <time>2021-04-06T11:56:45Z</time>
      </trkpt>
      <trkpt lat="56.85456" lon="-5.70567">
        <ele>9.49</ele>
        <time>2021-04-06T11:56:48Z</time>
      </trkpt>
      <trkpt lat="56.8552" lon="-5.70533">
        <ele>2.76</ele>
        <time>2021-04-06T11:56:51Z</time>
      </trkpt>
      <trkpt lat="56.85703" lon="-5.70445">
        <ele>7.65</ele>
        <time>2021-04-06T11:56:54Z</time>
      </trkpt>
      <trkpt lat="56.85747" lon="-5.70429">
        <ele>9.87</ele>
        <time>2021-04-06T11:56:56Z</time>
      </trkpt>
      <trkpt lat="56.85793" lon="-5.7042">
        <ele>11.27</ele>
        <time>2021-04-06T11:56:59Z</time>
      </trkpt>
      <trkpt lat="56.85839" lon="-5.70419">
        <ele>9.58</ele>
        <time>2021-04-06T11:57:02Z</time>
      </trkpt>
      <trkpt lat="56.85898" lon="-5.70428">
        <ele>7.83</ele>
        <time>2021-04-06T11:57:05Z</time>
      </trkpt>
      <trkpt lat="56.85988" lon="-5.70454">
        <ele>11.23</ele>
        <time>2021-04-06T11:57:07Z</time>
      </trkpt>
      <trkpt lat="56.86022" lon="-5.70454">
        <ele>10.43</ele>
        <time>2021-04-06T11:57:10Z</time>
      </trkpt>
      <trkpt lat="56.86048" lon="-5.70449">
        <ele>6.97</ele>
        <time>2021-04-06T11:57:13Z</time>
      </trkpt>
      <trkpt lat="56.8608" lon="-5.70436">
        <ele>4.95</ele>
        <time>2021-04-06T11:57:16Z</time>
      </trkpt>
      <trkpt lat="56.86109" lon="-5.70417">
        <ele>5.99</ele>
        <time>2021-04-06T11:57:18Z</time>
      </trkpt>
      <trkpt lat="56.86135" lon="-5.70392">
        <ele>5.16</ele>
        <time>2021-04-06T11:57:21Z</time>
      </trkpt>
      <trkpt lat="56.86162" lon="-5.70358">
        <ele>6.57</ele>
        <time>2021-04-06T11:57:24Z</time>
      </trkpt>
      <trkpt lat="56.86187" lon="-5.7032">
        <ele>7.37</ele>
        <time>2021-04-06T11:57:27Z</time>
      </trkpt>
      <trkpt lat="56.86247" lon="-5.70192">
        <ele>9.54</ele>
        <time>2021-04-06T11:57:29Z</time>
      </trkpt>
      <trkpt lat="56.86267" lon="-5.70144">
        <ele>9.18</ele>
        <time>2021-04-06T11:57:32Z</time>
      </trkpt>
      <trkpt lat="56.86284" lon="-5.70096">
        <ele>12.99</ele>
        <time>2021-04-06T11:57:35Z</time>
      </trkpt>
      <trkpt lat="56.8632" lon="-5.6995">
        <ele>20.44</ele>
        <time>2021-04-06T11:57:38Z</time>
      </trkpt>
      <trkpt lat="56.86347" lon="-5.69856">
        <ele>22.8</ele>
        <time>2021-04-06T11:57:41Z</time>
      </trkpt>
      <trkpt lat="56.86397" lon="-5.69723">
        <ele>10.58</ele>
        <time>2021-04-06T11:57:43Z</time>
      </trkpt>
      <trkpt lat="56.86421" lon="-5.69664">
        <ele>9.31</ele>
        <time>2021-04-06T11:57:46Z</time>
      </trkpt>
      <trkpt lat="56.86448" lon="-5.69614">
        <ele>7.41</ele>
        <time>2021-04-06T11:57:49Z</time>
      </trkpt>
      <trkpt lat="56.86473" lon="-5.69577">
        <ele>7.37</ele>
        <time>2021-04-06T11:57:52Z</time>
      </trkpt>
      <trkpt lat="56.86506" lon="-5.69538">
        <ele>8.49</ele>
        <time>2021-04-06T11:57:54Z</time>
      </trkpt>
      <trkpt lat="56.86543" lon="-5.69507">
        <ele>8.65</ele>
        <time>2021-04-06T11:57:57Z</time>
      </trkpt>
      <trkpt lat="56.86572" lon="-5.69489">
        <ele>7.58</ele>
        <time>2021-04-06T11:58:00Z</time>
      </trkpt>
      <trkpt lat="56.866" lon="-5.69477">
        <ele>5.67</ele>
        <time>2021-04-06T11:58:03Z</time>
      </trkpt>
      <trkpt lat="56.86648" lon="-5.69463">
        <ele>4.96</ele>
        <time>2021-04-06T11:58:05Z</time>
      </trkpt>
      <trkpt lat="56.86679" lon="-5.69449">
        <ele>4.74</ele>
        <time>2021-04-06T11:58:08Z</time>
      </trkpt>
      <trkpt lat="56.86704" lon="-5.6943">
        <ele>5.62</ele>
        <time>2021-04-06T11:58:11Z</time>
      </trkpt>
      <trkpt lat="56.8672" lon="-5.69409">
        <ele>7.66</ele>
        <time>2021-04-06T11:58:14Z</time>
      </trkpt>
      <trkpt lat="56.86739" lon="-5.6938">
        <ele>9.11</ele>
        <time>2021-04-06T11:58:16Z</time>
      </trkpt>
      <trkpt lat="56.86754" lon="-5.69347">
        <ele>10.04</ele>
        <time>2021-04-06T11:58:19Z</time>
      </trkpt>
      <trkpt lat="56.86816" lon="-5.69195">
        <ele>8.4</ele>
        <time>2021-04-06T11:58:22Z</time>
      </trkpt>
      <trkpt lat="56.86827" lon="-5.69161">
        <ele>8.1</ele>
        <time>2021-04-06T11:58:25Z</time>
      </trkpt>
      <trkpt lat="56.86834" lon="-5.69128">
        <ele>7.59</ele>
        <time>2021-04-06T11:58:27Z</time>
      </trkpt>
      <trkpt lat="56.86855" lon="-5.68996">
        <ele>9.84</ele>
        <time>2021-04-06T11:58:30Z</time>
      </trkpt>
      <trkpt lat="56.86862" lon="-5.68933">
        <ele>8.84</ele>
        <time>2021-04-06T11:58:33Z</time>
      </trkpt>
      <trkpt lat="56.86867" lon="-5.68881">
        <ele>8.83</ele>
        <time>2021-04-06T11:58:36Z</time>
      </trkpt>
      <trkpt lat="56.86867" lon="-5.6884">
        <ele>10.87</ele>
        <time>2021-04-06T11:58:38Z</time>
      </trkpt>
      <trkpt lat="56.86863" lon="-5.68792">
        <ele>8.88</ele>
        <time>2021-04-06T11:58:41Z</time>
      </trkpt>
      <trkpt lat="56.86855" lon="-5.68756">
        <ele>9.34</ele>
        <time>2021-04-06T11:58:44Z</time>
      </trkpt>
      <trkpt lat="56.86811" lon="-5.68602">
        <ele>7.45</ele>
        <time>2021-04-06T11:58:47Z</time>
      </trkpt>
      <trkpt lat="56.86799" lon="-5.68545">
        <ele>6.22</ele>
        <time>2021-04-06T11:58:49Z</time>
      </trkpt>
      <trkpt lat="56.86793" lon="-5.68492">
        <ele>6.35</ele>
        <time>2021-04-06T11:58:52Z</time>
      </trkpt>
      <trkpt lat="56.86793" lon="-5.68451">
        <ele>7.08</ele>
        <time>2021-04-06T11:58:55Z</time>
      </trkpt>
      <trkpt lat="56.86797" lon="-5.68405">
        <ele>8.38</ele>
        <time>2021-04-06T11:58:58Z</time>
      </trkpt>
      <trkpt lat="56.86802" lon="-5.68372">
        <ele>9.36</ele>
        <time>2021-04-06T11:59:00Z</time>
      </trkpt>
      <trkpt lat="56.86809" lon="-5.68337">
        <ele>10.52</ele>
        <time>2021-04-06T11:59:03Z</time>
      </trkpt>
      <trkpt lat="56.86844" lon="-5.68222">
        <ele>11.15</ele>
        <time>2021-04-06T11:59:06Z</time>
      </trkpt>
      <trkpt lat="56.86927" lon="-5.67862">
        <ele>12.45</ele>
        <time>2021-04-06T11:59:09Z</time>
      </trkpt>
      <trkpt lat="56.86972" lon="-5.6771">
        <ele>16.05</ele>
        <time>2021-04-06T11:59:11Z</time>
      </trkpt>
      <trkpt lat="56.87024" lon="-5.67562">
        <ele>11.07</ele>
        <time>2021-04-06T11:59:14Z</time>
      </trkpt>
      <trkpt lat="56.87059" lon="-5.67443">
        <ele>13.14</ele>
        <time>2021-04-06T11:59:17Z</time>
      </trkpt>
      <trkpt lat="56.87093" lon="-5.67294">
        <ele>13.6</ele>
        <time>2021-04-06T11:59:20Z</time>
      </trkpt>
      <trkpt lat="56.8711" lon="-5.67243">
        <ele>6.08</ele>
        <time>2021-04-06T11:59:22Z</time>
      </trkpt>
      <trkpt lat="56.87124" lon="-5.67209">
        <ele>4.45</ele>
        <time>2021-04-06T11:59:25Z</time>
      </trkpt>
      <trkpt lat="56.87138" lon="-5.67182">
        <ele>1.76</ele>
        <time>2021-04-06T11:59:28Z</time>
      </trkpt>
      <trkpt lat="56.87213" lon="-5.67068">
        <ele>4.09</ele>
        <time>2021-04-06T11:59:31Z</time>
      </trkpt>
      <trkpt lat="56.87243" lon="-5.67028">
        <ele>5.25</ele>
        <time>2021-04-06T11:59:33Z</time>
      </trkpt>
      <trkpt lat="56.87262" lon="-5.67008">
        <ele>4.84</ele>
        <time>2021-04-06T11:59:36Z</time>
      </trkpt>
      <trkpt lat="56.87285" lon="-5.66989">
        <ele>4</ele>
        <time>2021-04-06T11:59:39Z</time>
      </trkpt>
      <trkpt lat="56.87332" lon="-5.66971">
        <ele>3.05</ele>
        <time>2021-04-06T11:59:42Z</time>
      </trkpt>
      <trkpt lat="56.87392" lon="-5.66955">
        <ele>2.68</ele>
        <time>2021-04-06T11:59:44Z</time>
      </trkpt>
      <trkpt lat="56.87413" lon="-5.66945">
        <ele>3</ele>
        <time>2021-04-06T11:59:47Z</time>
      </trkpt>
      <trkpt lat="56.87438" lon="-5.66927">
        <ele>3</ele>
        <time>2021-04-06T11:59:50Z</time>
      </trkpt>
      <trkpt lat="56.87501" lon="-5.66873">
        <ele>2.04</ele>
        <time>2021-04-06T11:59:53Z</time>
      </trkpt>
      <trkpt lat="56.8753" lon="-5.66856">
        <ele>3.25</ele>
        <time>2021-04-06T11:59:56Z</time>
      </trkpt>
      <trkpt lat="56.87596" lon="-5.66835">
        <ele>8.35</ele>
        <time>2021-04-06T11:59:58Z</time>
      </trkpt>
      <trkpt lat="56.87633" lon="-5.66817">
        <ele>12.15</ele>
        <time>2021-04-06T12:00:01Z</time>
      </trkpt>
      <trkpt lat="56.87654" lon="-5.66798">
        <ele>14.6</ele>
        <time>2021-04-06T12:00:04Z</time>
      </trkpt>
      <trkpt lat="56.87667" lon="-5.6678">
        <ele>16.85</ele>
        <time>2021-04-06T12:00:07Z</time>
      </trkpt>
      <trkpt lat="56.87683" lon="-5.66754">
        <ele>17.59</ele>
        <time>2021-04-06T12:00:09Z</time>
      </trkpt>
      <trkpt lat="56.87752" lon="-5.66617">
        <ele>23.28</ele>
        <time>2021-04-06T12:00:12Z</time>
      </trkpt>
      <trkpt lat="56.87767" lon="-5.666">
        <ele>23.08</ele>
        <time>2021-04-06T12:00:15Z</time>
      </trkpt>
      <trkpt lat="56.87781" lon="-5.66597">
        <ele>23.7</ele>
        <time>2021-04-06T12:00:18Z</time>
      </trkpt>
      <trkpt lat="56.87796" lon="-5.66605">
        <ele>25.1</ele>
        <time>2021-04-06T12:00:20Z</time>
      </trkpt>
      <trkpt lat="56.87837" lon="-5.66661">
        <ele>31.22</ele>
        <time>2021-04-06T12:00:23Z</time>
      </trkpt>
      <trkpt lat="56.87859" lon="-5.66614">
        <ele>30.05</ele>
        <time>2021-04-06T12:00:26Z</time>
      </trkpt>
      <trkpt lat="56.87972" lon="-5.66414">
        <ele>26.6</ele>
        <time>2021-04-06T12:00:30Z</time>
      </trkpt>
      <trkpt lat="56.8799" lon="-5.66391">
        <ele>25.79</ele>
        <time>2021-04-06T12:00:33Z</time>
      </trkpt>
      <trkpt lat="56.88008" lon="-5.66374">
        <ele>25.92</ele>
        <time>2021-04-06T12:00:36Z</time>
      </trkpt>
      <trkpt lat="56.88031" lon="-5.66357">
        <ele>26.65</ele>
        <time>2021-04-06T12:00:40Z</time>
      </trkpt>
      <trkpt lat="56.88101" lon="-5.66315">
        <ele>27.88</ele>
        <time>2021-04-06T12:00:43Z</time>
      </trkpt>
      <trkpt lat="56.88159" lon="-5.66276">
        <ele>26.89</ele>
        <time>2021-04-06T12:00:46Z</time>
      </trkpt>
      <trkpt lat="56.88182" lon="-5.66253">
        <ele>27.57</ele>
        <time>2021-04-06T12:00:50Z</time>
      </trkpt>
      <trkpt lat="56.88202" lon="-5.66229">
        <ele>27.05</ele>
        <time>2021-04-06T12:00:53Z</time>
      </trkpt>
      <trkpt lat="56.88216" lon="-5.66201">
        <ele>26.81</ele>
        <time>2021-04-06T12:00:56Z</time>
      </trkpt>
      <trkpt lat="56.88226" lon="-5.66169">
        <ele>25.5</ele>
        <time>2021-04-06T12:01:00Z</time>
      </trkpt>
      <trkpt lat="56.88238" lon="-5.66109">
        <ele>27.19</ele>
        <time>2021-04-06T12:01:03Z</time>
      </trkpt>
      <trkpt lat="56.8828" lon="-5.65848">
        <ele>29.58</ele>
        <time>2021-04-06T12:01:06Z</time>
      </trkpt>
      <trkpt lat="56.88295" lon="-5.65777">
        <ele>31.62</ele>
        <time>2021-04-06T12:01:10Z</time>
      </trkpt>
      <trkpt lat="56.88306" lon="-5.65738">
        <ele>31.65</ele>
        <time>2021-04-06T12:01:13Z</time>
      </trkpt>
      <trkpt lat="56.8833" lon="-5.65677">
        <ele>31.36</ele>
        <time>2021-04-06T12:01:16Z</time>
      </trkpt>
      <trkpt lat="56.88438" lon="-5.65434">
        <ele>28.32</ele>
        <time>2021-04-06T12:01:20Z</time>
      </trkpt>
      <trkpt lat="56.88453" lon="-5.65387">
        <ele>28.01</ele>
        <time>2021-04-06T12:01:23Z</time>
      </trkpt>
      <trkpt lat="56.88496" lon="-5.65192">
        <ele>25.06</ele>
        <time>2021-04-06T12:01:26Z</time>
      </trkpt>
      <trkpt lat="56.88525" lon="-5.65084">
        <ele>30.09</ele>
        <time>2021-04-06T12:01:30Z</time>
      </trkpt>
      <trkpt lat="56.88559" lon="-5.64969">
        <ele>32.55</ele>
        <time>2021-04-06T12:01:33Z</time>
      </trkpt>
      <trkpt lat="56.88569" lon="-5.64922">
        <ele>33.07</ele>
        <time>2021-04-06T12:01:36Z</time>
      </trkpt>
      <trkpt lat="56.88575" lon="-5.64889">
        <ele>32.85</ele>
        <time>2021-04-06T12:01:40Z</time>
      </trkpt>
      <trkpt lat="56.88578" lon="-5.64861">
        <ele>33.1</ele>
        <time>2021-04-06T12:01:43Z</time>
      </trkpt>
      <trkpt lat="56.88593" lon="-5.64649">
        <ele>29.71</ele>
        <time>2021-04-06T12:01:46Z</time>
      </trkpt>
      <trkpt lat="56.886" lon="-5.6459">
        <ele>29.91</ele>
        <time>2021-04-06T12:01:50Z</time>
      </trkpt>
      <trkpt lat="56.88641" lon="-5.64343">
        <ele>30.48</ele>
        <time>2021-04-06T12:01:53Z</time>
      </trkpt>
      <trkpt lat="56.88658" lon="-5.64217">
        <ele>32.44</ele>
        <time>2021-04-06T12:01:56Z</time>
      </trkpt>
      <trkpt lat="56.88679" lon="-5.64079">
        <ele>30.56</ele>
        <time>2021-04-06T12:02:00Z</time>
      </trkpt>
      <trkpt lat="56.88684" lon="-5.64039">
        <ele>30.41</ele>
        <time>2021-04-06T12:02:03Z</time>
      </trkpt>
      <trkpt lat="56.88691" lon="-5.63941">
        <ele>29.29</ele>
        <time>2021-04-06T12:02:06Z</time>
      </trkpt>
      <trkpt lat="56.88709" lon="-5.63831">
        <ele>25.6</ele>
        <time>2021-04-06T12:02:10Z</time>
      </trkpt>
      <trkpt lat="56.88712" lon="-5.63803">
        <ele>25.54</ele>
        <time>2021-04-06T12:02:13Z</time>
      </trkpt>
      <trkpt lat="56.88712" lon="-5.63803">
        <ele>25.54</ele>
        <time>2021-04-06T12:02:13Z</time>
      </trkpt>
      <trkpt lat="56.88712" lon="-5.63772">
        <ele>24.88</ele>
        <time>2021-04-06T12:02:16Z</time>
      </trkpt>
      <trkpt lat="56.88708" lon="-5.6374">
        <ele>24.68</ele>
        <time>2021-04-06T12:02:19Z</time>
      </trkpt>
      <trkpt lat="56.88703" lon="-5.63715">
        <ele>24.81</ele>
        <time>2021-04-06T12:02:22Z</time>
      </trkpt>
      <trkpt lat="56.88697" lon="-5.63694">
        <ele>25.12</ele>
        <time>2021-04-06T12:02:25Z</time>
      </trkpt>
      <trkpt lat="56.88626" lon="-5.63554">
        <ele>21.55</ele>
        <time>2021-04-06T12:02:27Z</time>
      </trkpt>
      <trkpt lat="56.88615" lon="-5.63529">
        <ele>21.96</ele>
        <time>2021-04-06T12:02:30Z</time>
      </trkpt>
      <trkpt lat="56.88604" lon="-5.63493">
        <ele>22.82</ele>
        <time>2021-04-06T12:02:33Z</time>
      </trkpt>
      <trkpt lat="56.88526" lon="-5.63156">
        <ele>32.45</ele>
        <time>2021-04-06T12:02:36Z</time>
      </trkpt>
      <trkpt lat="56.88518" lon="-5.63126">
        <ele>34.1</ele>
        <time>2021-04-06T12:02:39Z</time>
      </trkpt>
      <trkpt lat="56.88512" lon="-5.63113">
        <ele>34.9</ele>
        <time>2021-04-06T12:02:42Z</time>
      </trkpt>
      <trkpt lat="56.88504" lon="-5.63101">
        <ele>36.08</ele>
        <time>2021-04-06T12:02:45Z</time>
      </trkpt>
      <trkpt lat="56.88496" lon="-5.63092">
        <ele>37.31</ele>
        <time>2021-04-06T12:02:48Z</time>
      </trkpt>
      <trkpt lat="56.8848" lon="-5.63084">
        <ele>39.35</ele>
        <time>2021-04-06T12:02:51Z</time>
      </trkpt>
      <trkpt lat="56.88461" lon="-5.63085">
        <ele>40.54</ele>
        <time>2021-04-06T12:02:54Z</time>
      </trkpt>
      <trkpt lat="56.884" lon="-5.63103">
        <ele>38.1</ele>
        <time>2021-04-06T12:02:56Z</time>
      </trkpt>
      <trkpt lat="56.88379" lon="-5.63106">
        <ele>36.56</ele>
        <time>2021-04-06T12:02:59Z</time>
      </trkpt>
      <trkpt lat="56.88363" lon="-5.63103">
        <ele>36.24</ele>
        <time>2021-04-06T12:03:02Z</time>
      </trkpt>
      <trkpt lat="56.88352" lon="-5.63096">
        <ele>36.64</ele>
        <time>2021-04-06T12:03:05Z</time>
      </trkpt>
      <trkpt lat="56.88343" lon="-5.63085">
        <ele>37.42</ele>
        <time>2021-04-06T12:03:08Z</time>
      </trkpt>
      <trkpt lat="56.88334" lon="-5.63069">
        <ele>38.69</ele>
        <time>2021-04-06T12:03:11Z</time>
      </trkpt>
      <trkpt lat="56.88329" lon="-5.63047">
        <ele>39.52</ele>
        <time>2021-04-06T12:03:14Z</time>
      </trkpt>
      <trkpt lat="56.88327" lon="-5.63023">
        <ele>40.1</ele>
        <time>2021-04-06T12:03:17Z</time>
      </trkpt>
      <trkpt lat="56.88328" lon="-5.63002">
        <ele>41.82</ele>
        <time>2021-04-06T12:03:20Z</time>
      </trkpt>
      <trkpt lat="56.88331" lon="-5.62976">
        <ele>41.75</ele>
        <time>2021-04-06T12:03:22Z</time>
      </trkpt>
      <trkpt lat="56.88337" lon="-5.62952">
        <ele>41.15</ele>
        <time>2021-04-06T12:03:25Z</time>
      </trkpt>
      <trkpt lat="56.88387" lon="-5.62798">
        <ele>38.99</ele>
        <time>2021-04-06T12:03:28Z</time>
      </trkpt>
      <trkpt lat="56.88394" lon="-5.62769">
        <ele>37.83</ele>
        <time>2021-04-06T12:03:31Z</time>
      </trkpt>
      <trkpt lat="56.88397" lon="-5.62742">
        <ele>36.84</ele>
        <time>2021-04-06T12:03:34Z</time>
      </trkpt>
      <trkpt lat="56.884" lon="-5.62648">
        <ele>35</ele>
        <time>2021-04-06T12:03:37Z</time>
      </trkpt>
      <trkpt lat="56.88506" lon="-5.62067">
        <ele>35.88</ele>
        <time>2021-04-06T12:03:40Z</time>
      </trkpt>
      <trkpt lat="56.88511" lon="-5.62032">
        <ele>35.44</ele>
        <time>2021-04-06T12:03:43Z</time>
      </trkpt>
      <trkpt lat="56.88512" lon="-5.61992">
        <ele>35.12</ele>
        <time>2021-04-06T12:03:46Z</time>
      </trkpt>
      <trkpt lat="56.88508" lon="-5.61775">
        <ele>35.55</ele>
        <time>2021-04-06T12:03:49Z</time>
      </trkpt>
      <trkpt lat="56.88505" lon="-5.61719">
        <ele>35.19</ele>
        <time>2021-04-06T12:03:51Z</time>
      </trkpt>
      <trkpt lat="56.885" lon="-5.61666">
        <ele>34.05</ele>
        <time>2021-04-06T12:03:54Z</time>
      </trkpt>
      <trkpt lat="56.88495" lon="-5.61637">
        <ele>34.87</ele>
        <time>2021-04-06T12:03:57Z</time>
      </trkpt>
      <trkpt lat="56.88488" lon="-5.61608">
        <ele>35.34</ele>
        <time>2021-04-06T12:04:00Z</time>
      </trkpt>
      <trkpt lat="56.88472" lon="-5.61561">
        <ele>35.78</ele>
        <time>2021-04-06T12:04:03Z</time>
      </trkpt>
      <trkpt lat="56.88446" lon="-5.61509">
        <ele>34.91</ele>
        <time>2021-04-06T12:04:06Z</time>
      </trkpt>
      <trkpt lat="56.88377" lon="-5.61384">
        <ele>35.91</ele>
        <time>2021-04-06T12:04:09Z</time>
      </trkpt>
      <trkpt lat="56.88365" lon="-5.61354">
        <ele>36.98</ele>
        <time>2021-04-06T12:04:12Z</time>
      </trkpt>
      <trkpt lat="56.88356" lon="-5.61329">
        <ele>35.23</ele>
        <time>2021-04-06T12:04:15Z</time>
      </trkpt>
      <trkpt lat="56.8835" lon="-5.61304">
        <ele>35.81</ele>
        <time>2021-04-06T12:04:17Z</time>
      </trkpt>
      <trkpt lat="56.88346" lon="-5.61278">
        <ele>36.08</ele>
        <time>2021-04-06T12:04:20Z</time>
      </trkpt>
      <trkpt lat="56.88345" lon="-5.61252">
        <ele>36.74</ele>
        <time>2021-04-06T12:04:23Z</time>
      </trkpt>
      <trkpt lat="56.88345" lon="-5.61223">
        <ele>34.46</ele>
        <time>2021-04-06T12:04:26Z</time>
      </trkpt>
      <trkpt lat="56.88347" lon="-5.61195">
        <ele>37.01</ele>
        <time>2021-04-06T12:04:29Z</time>
      </trkpt>
      <trkpt lat="56.88357" lon="-5.6111">
        <ele>34.85</ele>
        <time>2021-04-06T12:04:32Z</time>
      </trkpt>
      <trkpt lat="56.8836" lon="-5.61052">
        <ele>35.92</ele>
        <time>2021-04-06T12:04:35Z</time>
      </trkpt>
      <trkpt lat="56.88358" lon="-5.6102">
        <ele>35.79</ele>
        <time>2021-04-06T12:04:38Z</time>
      </trkpt>
      <trkpt lat="56.88326" lon="-5.60775">
        <ele>36.56</ele>
        <time>2021-04-06T12:04:41Z</time>
      </trkpt>
      <trkpt lat="56.88324" lon="-5.60737">
        <ele>37.72</ele>
        <time>2021-04-06T12:04:44Z</time>
      </trkpt>
      <trkpt lat="56.88323" lon="-5.60697">
        <ele>39.48</ele>
        <time>2021-04-06T12:04:46Z</time>
      </trkpt>
      <trkpt lat="56.88327" lon="-5.60645">
        <ele>41.66</ele>
        <time>2021-04-06T12:04:49Z</time>
      </trkpt>
      <trkpt lat="56.88362" lon="-5.60293">
        <ele>40.81</ele>
        <time>2021-04-06T12:04:52Z</time>
      </trkpt>
      <trkpt lat="56.88367" lon="-5.60257">
        <ele>40.96</ele>
        <time>2021-04-06T12:04:55Z</time>
      </trkpt>
      <trkpt lat="56.88374" lon="-5.6022">
        <ele>40.35</ele>
        <time>2021-04-06T12:04:58Z</time>
      </trkpt>
      <trkpt lat="56.8841" lon="-5.60083">
        <ele>41.09</ele>
        <time>2021-04-06T12:05:01Z</time>
      </trkpt>
      <trkpt lat="56.8844" lon="-5.59949">
        <ele>40.39</ele>
        <time>2021-04-06T12:05:04Z</time>
      </trkpt>
      <trkpt lat="56.88449" lon="-5.59885">
        <ele>40.08</ele>
        <time>2021-04-06T12:05:07Z</time>
      </trkpt>
      <trkpt lat="56.88451" lon="-5.59856">
        <ele>39.42</ele>
        <time>2021-04-06T12:05:10Z</time>
      </trkpt>
      <trkpt lat="56.88451" lon="-5.59826">
        <ele>38.25</ele>
        <time>2021-04-06T12:05:13Z</time>
      </trkpt>
      <trkpt lat="56.8844" lon="-5.59687">
        <ele>36.21</ele>
        <time>2021-04-06T12:05:15Z</time>
      </trkpt>
      <trkpt lat="56.88439" lon="-5.5965">
        <ele>36.8</ele>
        <time>2021-04-06T12:05:18Z</time>
      </trkpt>
      <trkpt lat="56.8844" lon="-5.59606">
        <ele>36.47</ele>
        <time>2021-04-06T12:05:21Z</time>
      </trkpt>
      <trkpt lat="56.88447" lon="-5.59524">
        <ele>35.64</ele>
        <time>2021-04-06T12:05:24Z</time>
      </trkpt>
      <trkpt lat="56.88448" lon="-5.59486">
        <ele>37.06</ele>
        <time>2021-04-06T12:05:27Z</time>
      </trkpt>
      <trkpt lat="56.88447" lon="-5.5945">
        <ele>38.1</ele>
        <time>2021-04-06T12:05:30Z</time>
      </trkpt>
      <trkpt lat="56.8844" lon="-5.59404">
        <ele>38.3</ele>
        <time>2021-04-06T12:05:33Z</time>
      </trkpt>
      <trkpt lat="56.88416" lon="-5.59309">
        <ele>36.97</ele>
        <time>2021-04-06T12:05:36Z</time>
      </trkpt>
      <trkpt lat="56.88342" lon="-5.59035">
        <ele>36.88</ele>
        <time>2021-04-06T12:05:39Z</time>
      </trkpt>
      <trkpt lat="56.88326" lon="-5.58973">
        <ele>38.99</ele>
        <time>2021-04-06T12:05:41Z</time>
      </trkpt>
      <trkpt lat="56.88288" lon="-5.58727">
        <ele>35.91</ele>
        <time>2021-04-06T12:05:44Z</time>
      </trkpt>
      <trkpt lat="56.8828" lon="-5.58687">
        <ele>34.91</ele>
        <time>2021-04-06T12:05:47Z</time>
      </trkpt>
      <trkpt lat="56.8827" lon="-5.5865">
        <ele>34.04</ele>
        <time>2021-04-06T12:05:50Z</time>
      </trkpt>
      <trkpt lat="56.88156" lon="-5.58376">
        <ele>41.45</ele>
        <time>2021-04-06T12:05:53Z</time>
      </trkpt>
      <trkpt lat="56.88144" lon="-5.58344">
        <ele>40.32</ele>
        <time>2021-04-06T12:05:56Z</time>
      </trkpt>
      <trkpt lat="56.88135" lon="-5.58311">
        <ele>39.6</ele>
        <time>2021-04-06T12:05:59Z</time>
      </trkpt>
      <trkpt lat="56.88132" lon="-5.58284">
        <ele>38.42</ele>
        <time>2021-04-06T12:06:02Z</time>
      </trkpt>
      <trkpt lat="56.88131" lon="-5.58252">
        <ele>38.84</ele>
        <time>2021-04-06T12:06:05Z</time>
      </trkpt>
      <trkpt lat="56.88137" lon="-5.58171">
        <ele>41.73</ele>
        <time>2021-04-06T12:06:08Z</time>
      </trkpt>
      <trkpt lat="56.88137" lon="-5.58125">
        <ele>44.71</ele>
        <time>2021-04-06T12:06:10Z</time>
      </trkpt>
      <trkpt lat="56.88135" lon="-5.58084">
        <ele>46.05</ele>
        <time>2021-04-06T12:06:13Z</time>
      </trkpt>
      <trkpt lat="56.88129" lon="-5.58056">
        <ele>45.82</ele>
        <time>2021-04-06T12:06:16Z</time>
      </trkpt>
      <trkpt lat="56.8812" lon="-5.58029">
        <ele>45.75</ele>
        <time>2021-04-06T12:06:19Z</time>
      </trkpt>
      <trkpt lat="56.88109" lon="-5.58008">
        <ele>44.84</ele>
        <time>2021-04-06T12:06:22Z</time>
      </trkpt>
      <trkpt lat="56.88094" lon="-5.57989">
        <ele>44.45</ele>
        <time>2021-04-06T12:06:25Z</time>
      </trkpt>
      <trkpt lat="56.88072" lon="-5.57972">
        <ele>41.98</ele>
        <time>2021-04-06T12:06:28Z</time>
      </trkpt>
      <trkpt lat="56.87999" lon="-5.57939">
        <ele>33.15</ele>
        <time>2021-04-06T12:06:31Z</time>
      </trkpt>
      <trkpt lat="56.87971" lon="-5.57919">
        <ele>32.03</ele>
        <time>2021-04-06T12:06:34Z</time>
      </trkpt>
      <trkpt lat="56.87899" lon="-5.57854">
        <ele>32.35</ele>
        <time>2021-04-06T12:06:37Z</time>
      </trkpt>
      <trkpt lat="56.87865" lon="-5.57815">
        <ele>33.39</ele>
        <time>2021-04-06T12:06:39Z</time>
      </trkpt>
      <trkpt lat="56.87855" lon="-5.57799">
        <ele>34.47</ele>
        <time>2021-04-06T12:06:42Z</time>
      </trkpt>
      <trkpt lat="56.87845" lon="-5.57775">
        <ele>35.63</ele>
        <time>2021-04-06T12:06:45Z</time>
      </trkpt>
      <trkpt lat="56.87836" lon="-5.57744">
        <ele>36.02</ele>
        <time>2021-04-06T12:06:48Z</time>
      </trkpt>
      <trkpt lat="56.8783" lon="-5.57703">
        <ele>35.74</ele>
        <time>2021-04-06T12:06:51Z</time>
      </trkpt>
      <trkpt lat="56.87827" lon="-5.57655">
        <ele>36.78</ele>
        <time>2021-04-06T12:06:54Z</time>
      </trkpt>
      <trkpt lat="56.87817" lon="-5.57292">
        <ele>35.77</ele>
        <time>2021-04-06T12:06:57Z</time>
      </trkpt>
      <trkpt lat="56.87817" lon="-5.57209">
        <ele>35.42</ele>
        <time>2021-04-06T12:07:00Z</time>
      </trkpt>
      <trkpt lat="56.8782" lon="-5.57155">
        <ele>36.53</ele>
        <time>2021-04-06T12:07:03Z</time>
      </trkpt>
      <trkpt lat="56.8783" lon="-5.57051">
        <ele>37.72</ele>
        <time>2021-04-06T12:07:05Z</time>
      </trkpt>
      <trkpt lat="56.87836" lon="-5.56997">
        <ele>39.44</ele>
        <time>2021-04-06T12:07:08Z</time>
      </trkpt>
      <trkpt lat="56.87842" lon="-5.56959">
        <ele>40.54</ele>
        <time>2021-04-06T12:07:11Z</time>
      </trkpt>
      <trkpt lat="56.87886" lon="-5.5678">
        <ele>42.83</ele>
        <time>2021-04-06T12:07:14Z</time>
      </trkpt>
      <trkpt lat="56.87937" lon="-5.5661">
        <ele>41.38</ele>
        <time>2021-04-06T12:07:17Z</time>
      </trkpt>
      <trkpt lat="56.87945" lon="-5.56557">
        <ele>37.28</ele>
        <time>2021-04-06T12:07:20Z</time>
      </trkpt>
      <trkpt lat="56.87944" lon="-5.56507">
        <ele>35.25</ele>
        <time>2021-04-06T12:07:23Z</time>
      </trkpt>
      <trkpt lat="56.8791" lon="-5.56261">
        <ele>37.95</ele>
        <time>2021-04-06T12:07:26Z</time>
      </trkpt>
      <trkpt lat="56.87908" lon="-5.56235">
        <ele>37.72</ele>
        <time>2021-04-06T12:07:29Z</time>
      </trkpt>
      <trkpt lat="56.87908" lon="-5.56206">
        <ele>38.51</ele>
        <time>2021-04-06T12:07:32Z</time>
      </trkpt>
      <trkpt lat="56.87917" lon="-5.56134">
        <ele>41.19</ele>
        <time>2021-04-06T12:07:34Z</time>
      </trkpt>
      <trkpt lat="56.87916" lon="-5.56088">
        <ele>42.06</ele>
        <time>2021-04-06T12:07:37Z</time>
      </trkpt>
      <trkpt lat="56.87914" lon="-5.56067">
        <ele>42.56</ele>
        <time>2021-04-06T12:07:40Z</time>
      </trkpt>
      <trkpt lat="56.87909" lon="-5.56039">
        <ele>44.03</ele>
        <time>2021-04-06T12:07:43Z</time>
      </trkpt>
      <trkpt lat="56.87864" lon="-5.55852">
        <ele>42.4</ele>
        <time>2021-04-06T12:07:46Z</time>
      </trkpt>
      <trkpt lat="56.87855" lon="-5.558">
        <ele>40.65</ele>
        <time>2021-04-06T12:07:49Z</time>
      </trkpt>
      <trkpt lat="56.87836" lon="-5.55636">
        <ele>38.51</ele>
        <time>2021-04-06T12:07:52Z</time>
      </trkpt>
      <trkpt lat="56.87828" lon="-5.55551">
        <ele>41.06</ele>
        <time>2021-04-06T12:07:55Z</time>
      </trkpt>
      <trkpt lat="56.87827" lon="-5.55514">
        <ele>40.95</ele>
        <time>2021-04-06T12:07:58Z</time>
      </trkpt>
      <trkpt lat="56.87828" lon="-5.55478">
        <ele>41.24</ele>
        <time>2021-04-06T12:08:00Z</time>
      </trkpt>
      <trkpt lat="56.87845" lon="-5.55312">
        <ele>45.3</ele>
        <time>2021-04-06T12:08:03Z</time>
      </trkpt>
      <trkpt lat="56.87847" lon="-5.55266">
        <ele>47.22</ele>
        <time>2021-04-06T12:08:06Z</time>
      </trkpt>
      <trkpt lat="56.87845" lon="-5.55242">
        <ele>47.67</ele>
        <time>2021-04-06T12:08:09Z</time>
      </trkpt>
      <trkpt lat="56.87841" lon="-5.55219">
        <ele>47.54</ele>
        <time>2021-04-06T12:08:12Z</time>
      </trkpt>
      <trkpt lat="56.87834" lon="-5.55192">
        <ele>47.34</ele>
        <time>2021-04-06T12:08:15Z</time>
      </trkpt>
      <trkpt lat="56.87817" lon="-5.55155">
        <ele>47.71</ele>
        <time>2021-04-06T12:08:18Z</time>
      </trkpt>
      <trkpt lat="56.87736" lon="-5.54993">
        <ele>41.5</ele>
        <time>2021-04-06T12:08:21Z</time>
      </trkpt>
      <trkpt lat="56.87722" lon="-5.54951">
        <ele>38.85</ele>
        <time>2021-04-06T12:08:24Z</time>
      </trkpt>
      <trkpt lat="56.87706" lon="-5.54858">
        <ele>41.72</ele>
        <time>2021-04-06T12:08:27Z</time>
      </trkpt>
      <trkpt lat="56.877" lon="-5.54815">
        <ele>42.43</ele>
        <time>2021-04-06T12:08:29Z</time>
      </trkpt>
      <trkpt lat="56.87699" lon="-5.54784">
        <ele>45.17</ele>
        <time>2021-04-06T12:08:32Z</time>
      </trkpt>
      <trkpt lat="56.877" lon="-5.54757">
        <ele>46.9</ele>
        <time>2021-04-06T12:08:35Z</time>
      </trkpt>
      <trkpt lat="56.87714" lon="-5.54645">
        <ele>50.88</ele>
        <time>2021-04-06T12:08:38Z</time>
      </trkpt>
      <trkpt lat="56.87714" lon="-5.54616">
        <ele>48.41</ele>
        <time>2021-04-06T12:08:41Z</time>
      </trkpt>
      <trkpt lat="56.87713" lon="-5.54588">
        <ele>46.62</ele>
        <time>2021-04-06T12:08:44Z</time>
      </trkpt>
      <trkpt lat="56.87702" lon="-5.54543">
        <ele>42.48</ele>
        <time>2021-04-06T12:08:47Z</time>
      </trkpt>
      <trkpt lat="56.87631" lon="-5.5437">
        <ele>45.13</ele>
        <time>2021-04-06T12:08:50Z</time>
      </trkpt>
      <trkpt lat="56.87623" lon="-5.54353">
        <ele>41.65</ele>
        <time>2021-04-06T12:08:53Z</time>
      </trkpt>
      <trkpt lat="56.8761" lon="-5.54335">
        <ele>39.7</ele>
        <time>2021-04-06T12:08:56Z</time>
      </trkpt>
      <trkpt lat="56.876" lon="-5.54325">
        <ele>36.13</ele>
        <time>2021-04-06T12:08:58Z</time>
      </trkpt>
      <trkpt lat="56.87582" lon="-5.54312">
        <ele>33.65</ele>
        <time>2021-04-06T12:09:01Z</time>
      </trkpt>
      <trkpt lat="56.87529" lon="-5.54284">
        <ele>32.02</ele>
        <time>2021-04-06T12:09:04Z</time>
      </trkpt>
      <trkpt lat="56.87517" lon="-5.54274">
        <ele>32</ele>
        <time>2021-04-06T12:09:07Z</time>
      </trkpt>
      <trkpt lat="56.87504" lon="-5.54255">
        <ele>32</ele>
        <time>2021-04-06T12:09:10Z</time>
      </trkpt>
      <trkpt lat="56.87494" lon="-5.54236">
        <ele>32.28</ele>
        <time>2021-04-06T12:09:13Z</time>
      </trkpt>
      <trkpt lat="56.87486" lon="-5.54212">
        <ele>32.88</ele>
        <time>2021-04-06T12:09:16Z</time>
      </trkpt>
      <trkpt lat="56.87483" lon="-5.54183">
        <ele>33.78</ele>
        <time>2021-04-06T12:09:19Z</time>
      </trkpt>
      <trkpt lat="56.87483" lon="-5.54154">
        <ele>34.83</ele>
        <time>2021-04-06T12:09:22Z</time>
      </trkpt>
      <trkpt lat="56.87485" lon="-5.54125">
        <ele>36.2</ele>
        <time>2021-04-06T12:09:24Z</time>
      </trkpt>
      <trkpt lat="56.87524" lon="-5.53933">
        <ele>39.84</ele>
        <time>2021-04-06T12:09:27Z</time>
      </trkpt>
      <trkpt lat="56.87533" lon="-5.53896">
        <ele>39.98</ele>
        <time>2021-04-06T12:09:30Z</time>
      </trkpt>
      <trkpt lat="56.87545" lon="-5.53862">
        <ele>42.97</ele>
        <time>2021-04-06T12:09:33Z</time>
      </trkpt>
      <trkpt lat="56.87576" lon="-5.53793">
        <ele>45.04</ele>
        <time>2021-04-06T12:09:36Z</time>
      </trkpt>
      <trkpt lat="56.87586" lon="-5.53767">
        <ele>43.46</ele>
        <time>2021-04-06T12:09:39Z</time>
      </trkpt>
      <trkpt lat="56.87593" lon="-5.53742">
        <ele>42.34</ele>
        <time>2021-04-06T12:09:42Z</time>
      </trkpt>
      <trkpt lat="56.87598" lon="-5.53713">
        <ele>40.83</ele>
        <time>2021-04-06T12:09:45Z</time>
      </trkpt>
      <trkpt lat="56.87604" lon="-5.53393">
        <ele>37.06</ele>
        <time>2021-04-06T12:09:48Z</time>
      </trkpt>
      <trkpt lat="56.87606" lon="-5.53363">
        <ele>37.44</ele>
        <time>2021-04-06T12:09:51Z</time>
      </trkpt>
      <trkpt lat="56.87611" lon="-5.53331">
        <ele>38.85</ele>
        <time>2021-04-06T12:09:53Z</time>
      </trkpt>
      <trkpt lat="56.87624" lon="-5.53278">
        <ele>39.29</ele>
        <time>2021-04-06T12:09:56Z</time>
      </trkpt>
      <trkpt lat="56.87662" lon="-5.53166">
        <ele>42.24</ele>
        <time>2021-04-06T12:09:59Z</time>
      </trkpt>
      <trkpt lat="56.87707" lon="-5.53025">
        <ele>51.05</ele>
        <time>2021-04-06T12:10:02Z</time>
      </trkpt>
      <trkpt lat="56.87716" lon="-5.52983">
        <ele>52.73</ele>
        <time>2021-04-06T12:10:05Z</time>
      </trkpt>
      <trkpt lat="56.87748" lon="-5.52549">
        <ele>71.7</ele>
        <time>2021-04-06T12:10:08Z</time>
      </trkpt>
      <trkpt lat="56.87749" lon="-5.5248">
        <ele>75.94</ele>
        <time>2021-04-06T12:10:11Z</time>
      </trkpt>
      <trkpt lat="56.87745" lon="-5.52437">
        <ele>79.53</ele>
        <time>2021-04-06T12:10:14Z</time>
      </trkpt>
      <trkpt lat="56.87724" lon="-5.52343">
        <ele>86.4</ele>
        <time>2021-04-06T12:10:17Z</time>
      </trkpt>
      <trkpt lat="56.87717" lon="-5.52323">
        <ele>87.79</ele>
        <time>2021-04-06T12:10:19Z</time>
      </trkpt>
      <trkpt lat="56.87706" lon="-5.52302">
        <ele>87.47</ele>
        <time>2021-04-06T12:10:22Z</time>
      </trkpt>
      <trkpt lat="56.87675" lon="-5.52261">
        <ele>79.9</ele>
        <time>2021-04-06T12:10:25Z</time>
      </trkpt>
      <trkpt lat="56.87666" lon="-5.52245">
        <ele>78.95</ele>
        <time>2021-04-06T12:10:28Z</time>
      </trkpt>
      <trkpt lat="56.87658" lon="-5.52224">
        <ele>80.97</ele>
        <time>2021-04-06T12:10:31Z</time>
      </trkpt>
      <trkpt lat="56.87653" lon="-5.52198">
        <ele>83.51</ele>
        <time>2021-04-06T12:10:34Z</time>
      </trkpt>
      <trkpt lat="56.87637" lon="-5.52095">
        <ele>95.65</ele>
        <time>2021-04-06T12:10:37Z</time>
      </trkpt>
      <trkpt lat="56.87632" lon="-5.52077">
        <ele>96.26</ele>
        <time>2021-04-06T12:10:40Z</time>
      </trkpt>
      <trkpt lat="56.87622" lon="-5.52058">
        <ele>95.93</ele>
        <time>2021-04-06T12:10:43Z</time>
      </trkpt>
      <trkpt lat="56.87614" lon="-5.52049">
        <ele>94.68</ele>
        <time>2021-04-06T12:10:46Z</time>
      </trkpt>
      <trkpt lat="56.87603" lon="-5.52044">
        <ele>93.38</ele>
        <time>2021-04-06T12:10:48Z</time>
      </trkpt>
      <trkpt lat="56.87587" lon="-5.52044">
        <ele>90.58</ele>
        <time>2021-04-06T12:10:51Z</time>
      </trkpt>
      <trkpt lat="56.87564" lon="-5.5205">
        <ele>89.58</ele>
        <time>2021-04-06T12:10:54Z</time>
      </trkpt>
      <trkpt lat="56.87506" lon="-5.52071">
        <ele>89.18</ele>
        <time>2021-04-06T12:10:57Z</time>
      </trkpt>
      <trkpt lat="56.87484" lon="-5.52075">
        <ele>91.44</ele>
        <time>2021-04-06T12:11:00Z</time>
      </trkpt>
      <trkpt lat="56.87475" lon="-5.52071">
        <ele>93.39</ele>
        <time>2021-04-06T12:11:03Z</time>
      </trkpt>
      <trkpt lat="56.87466" lon="-5.52063">
        <ele>96.23</ele>
        <time>2021-04-06T12:11:06Z</time>
      </trkpt>
      <trkpt lat="56.87457" lon="-5.52051">
        <ele>99.06</ele>
        <time>2021-04-06T12:11:09Z</time>
      </trkpt>
      <trkpt lat="56.87448" lon="-5.52031">
        <ele>101.6</ele>
        <time>2021-04-06T12:11:12Z</time>
      </trkpt>
      <trkpt lat="56.87426" lon="-5.51971">
        <ele>105.76</ele>
        <time>2021-04-06T12:11:15Z</time>
      </trkpt>
      <trkpt lat="56.87412" lon="-5.51946">
        <ele>105.78</ele>
        <time>2021-04-06T12:11:17Z</time>
      </trkpt>
      <trkpt lat="56.87365" lon="-5.51876">
        <ele>109.66</ele>
        <time>2021-04-06T12:11:20Z</time>
      </trkpt>
      <trkpt lat="56.87355" lon="-5.51858">
        <ele>110.1</ele>
        <time>2021-04-06T12:11:23Z</time>
      </trkpt>
      <trkpt lat="56.87344" lon="-5.5183">
        <ele>109.93</ele>
        <time>2021-04-06T12:11:26Z</time>
      </trkpt>
      <trkpt lat="56.87338" lon="-5.51807">
        <ele>109.34</ele>
        <time>2021-04-06T12:11:29Z</time>
      </trkpt>
      <trkpt lat="56.87335" lon="-5.51783">
        <ele>109.39</ele>
        <time>2021-04-06T12:11:32Z</time>
      </trkpt>
      <trkpt lat="56.87335" lon="-5.51757">
        <ele>110.38</ele>
        <time>2021-04-06T12:11:35Z</time>
      </trkpt>
      <trkpt lat="56.87339" lon="-5.51731">
        <ele>112.24</ele>
        <time>2021-04-06T12:11:38Z</time>
      </trkpt>
      <trkpt lat="56.87346" lon="-5.51695">
        <ele>114.62</ele>
        <time>2021-04-06T12:11:41Z</time>
      </trkpt>
      <trkpt lat="56.87356" lon="-5.51652">
        <ele>116.83</ele>
        <time>2021-04-06T12:11:43Z</time>
      </trkpt>
      <trkpt lat="56.87376" lon="-5.51581">
        <ele>118.57</ele>
        <time>2021-04-06T12:11:46Z</time>
      </trkpt>
      <trkpt lat="56.87437" lon="-5.51416">
        <ele>129.16</ele>
        <time>2021-04-06T12:11:49Z</time>
      </trkpt>
      <trkpt lat="56.8753" lon="-5.51151">
        <ele>118.52</ele>
        <time>2021-04-06T12:11:52Z</time>
      </trkpt>
      <trkpt lat="56.87543" lon="-5.51107">
        <ele>121.17</ele>
        <time>2021-04-06T12:11:55Z</time>
      </trkpt>
      <trkpt lat="56.87556" lon="-5.51042">
        <ele>119.71</ele>
        <time>2021-04-06T12:11:58Z</time>
      </trkpt>
      <trkpt lat="56.8757" lon="-5.5095">
        <ele>113.99</ele>
        <time>2021-04-06T12:12:01Z</time>
      </trkpt>
      <trkpt lat="56.87574" lon="-5.50907">
        <ele>114.96</ele>
        <time>2021-04-06T12:12:04Z</time>
      </trkpt>
      <trkpt lat="56.87583" lon="-5.50745">
        <ele>118.58</ele>
        <time>2021-04-06T12:12:07Z</time>
      </trkpt>
      <trkpt lat="56.87583" lon="-5.50681">
        <ele>116.54</ele>
        <time>2021-04-06T12:12:10Z</time>
      </trkpt>
      <trkpt lat="56.87583" lon="-5.50612">
        <ele>113.82</ele>
        <time>2021-04-06T12:12:12Z</time>
      </trkpt>
      <trkpt lat="56.87576" lon="-5.50499">
        <ele>108.75</ele>
        <time>2021-04-06T12:12:15Z</time>
      </trkpt>
      <trkpt lat="56.87563" lon="-5.50403">
        <ele>107.75</ele>
        <time>2021-04-06T12:12:18Z</time>
      </trkpt>
      <trkpt lat="56.87562" lon="-5.50373">
        <ele>108.02</ele>
        <time>2021-04-06T12:12:21Z</time>
      </trkpt>
      <trkpt lat="56.87563" lon="-5.50251">
        <ele>111.03</ele>
        <time>2021-04-06T12:12:24Z</time>
      </trkpt>
      <trkpt lat="56.87566" lon="-5.50199">
        <ele>111.3</ele>
        <time>2021-04-06T12:12:27Z</time>
      </trkpt>
      <trkpt lat="56.8761" lon="-5.4976">
        <ele>111.36</ele>
        <time>2021-04-06T12:12:30Z</time>
      </trkpt>
      <trkpt lat="56.87615" lon="-5.49716">
        <ele>109.58</ele>
        <time>2021-04-06T12:12:33Z</time>
      </trkpt>
      <trkpt lat="56.87627" lon="-5.49665">
        <ele>108.28</ele>
        <time>2021-04-06T12:12:36Z</time>
      </trkpt>
      <trkpt lat="56.87659" lon="-5.49558">
        <ele>107.39</ele>
        <time>2021-04-06T12:12:39Z</time>
      </trkpt>
      <trkpt lat="56.87678" lon="-5.49433">
        <ele>105.68</ele>
        <time>2021-04-06T12:12:41Z</time>
      </trkpt>
      <trkpt lat="56.87692" lon="-5.49385">
        <ele>106.21</ele>
        <time>2021-04-06T12:12:44Z</time>
      </trkpt>
      <trkpt lat="56.87789" lon="-5.49175">
        <ele>115.38</ele>
        <time>2021-04-06T12:12:47Z</time>
      </trkpt>
      <trkpt lat="56.87803" lon="-5.49139">
        <ele>115.6</ele>
        <time>2021-04-06T12:12:50Z</time>
      </trkpt>
      <trkpt lat="56.87809" lon="-5.49113">
        <ele>114.75</ele>
        <time>2021-04-06T12:12:53Z</time>
      </trkpt>
      <trkpt lat="56.87815" lon="-5.4908">
        <ele>113.33</ele>
        <time>2021-04-06T12:12:56Z</time>
      </trkpt>
      <trkpt lat="56.8784" lon="-5.48761">
        <ele>110.75</ele>
        <time>2021-04-06T12:12:59Z</time>
      </trkpt>
      <trkpt lat="56.87843" lon="-5.48705">
        <ele>110.04</ele>
        <time>2021-04-06T12:13:02Z</time>
      </trkpt>
      <trkpt lat="56.87852" lon="-5.48265">
        <ele>94.69</ele>
        <time>2021-04-06T12:13:05Z</time>
      </trkpt>
      <trkpt lat="56.87863" lon="-5.4788">
        <ele>92.8</ele>
        <time>2021-04-06T12:13:07Z</time>
      </trkpt>
      <trkpt lat="56.87862" lon="-5.47843">
        <ele>94.5</ele>
        <time>2021-04-06T12:13:10Z</time>
      </trkpt>
      <trkpt lat="56.87857" lon="-5.47804">
        <ele>95.36</ele>
        <time>2021-04-06T12:13:13Z</time>
      </trkpt>
      <trkpt lat="56.87841" lon="-5.47719">
        <ele>95.61</ele>
        <time>2021-04-06T12:13:16Z</time>
      </trkpt>
      <trkpt lat="56.87836" lon="-5.47686">
        <ele>94.69</ele>
        <time>2021-04-06T12:13:19Z</time>
      </trkpt>
      <trkpt lat="56.87835" lon="-5.47658">
        <ele>94.36</ele>
        <time>2021-04-06T12:13:22Z</time>
      </trkpt>
      <trkpt lat="56.87835" lon="-5.47626">
        <ele>94.38</ele>
        <time>2021-04-06T12:13:25Z</time>
      </trkpt>
      <trkpt lat="56.87842" lon="-5.47501">
        <ele>91.28</ele>
        <time>2021-04-06T12:13:28Z</time>
      </trkpt>
      <trkpt lat="56.87841" lon="-5.4738">
        <ele>90.39</ele>
        <time>2021-04-06T12:13:31Z</time>
      </trkpt>
      <trkpt lat="56.87839" lon="-5.47291">
        <ele>91.44</ele>
        <time>2021-04-06T12:13:34Z</time>
      </trkpt>
      <trkpt lat="56.87836" lon="-5.47269">
        <ele>91.54</ele>
        <time>2021-04-06T12:13:36Z</time>
      </trkpt>
      <trkpt lat="56.87821" lon="-5.47174">
        <ele>91.35</ele>
        <time>2021-04-06T12:13:39Z</time>
      </trkpt>
      <trkpt lat="56.87808" lon="-5.4711">
        <ele>93.39</ele>
        <time>2021-04-06T12:13:42Z</time>
      </trkpt>
      <trkpt lat="56.87797" lon="-5.47068">
        <ele>95.52</ele>
        <time>2021-04-06T12:13:45Z</time>
      </trkpt>
      <trkpt lat="56.87782" lon="-5.47029">
        <ele>96.5</ele>
        <time>2021-04-06T12:13:48Z</time>
      </trkpt>
      <trkpt lat="56.87721" lon="-5.46902">
        <ele>93.46</ele>
        <time>2021-04-06T12:13:51Z</time>
      </trkpt>
      <trkpt lat="56.87711" lon="-5.46873">
        <ele>94.49</ele>
        <time>2021-04-06T12:13:54Z</time>
      </trkpt>
      <trkpt lat="56.87704" lon="-5.46841">
        <ele>94.96</ele>
        <time>2021-04-06T12:13:57Z</time>
      </trkpt>
      <trkpt lat="56.87699" lon="-5.4681">
        <ele>94.81</ele>
        <time>2021-04-06T12:14:00Z</time>
      </trkpt>
      <trkpt lat="56.87698" lon="-5.46755">
        <ele>93.04</ele>
        <time>2021-04-06T12:14:02Z</time>
      </trkpt>
      <trkpt lat="56.87707" lon="-5.46624">
        <ele>92.25</ele>
        <time>2021-04-06T12:14:05Z</time>
      </trkpt>
      <trkpt lat="56.87708" lon="-5.46535">
        <ele>92.14</ele>
        <time>2021-04-06T12:14:08Z</time>
      </trkpt>
      <trkpt lat="56.87706" lon="-5.46456">
        <ele>90.75</ele>
        <time>2021-04-06T12:14:11Z</time>
      </trkpt>
      <trkpt lat="56.87702" lon="-5.46423">
        <ele>90.23</ele>
        <time>2021-04-06T12:14:14Z</time>
      </trkpt>
      <trkpt lat="56.87681" lon="-5.46315">
        <ele>91</ele>
        <time>2021-04-06T12:14:17Z</time>
      </trkpt>
      <trkpt lat="56.87641" lon="-5.46122">
        <ele>90.77</ele>
        <time>2021-04-06T12:14:20Z</time>
      </trkpt>
      <trkpt lat="56.87632" lon="-5.46096">
        <ele>91.17</ele>
        <time>2021-04-06T12:14:23Z</time>
      </trkpt>
      <trkpt lat="56.87621" lon="-5.46074">
        <ele>91.31</ele>
        <time>2021-04-06T12:14:26Z</time>
      </trkpt>
      <trkpt lat="56.87571" lon="-5.46008">
        <ele>85.84</ele>
        <time>2021-04-06T12:14:29Z</time>
      </trkpt>
      <trkpt lat="56.87561" lon="-5.45986">
        <ele>84.81</ele>
        <time>2021-04-06T12:14:31Z</time>
      </trkpt>
      <trkpt lat="56.87503" lon="-5.45815">
        <ele>83.26</ele>
        <time>2021-04-06T12:14:34Z</time>
      </trkpt>
      <trkpt lat="56.87494" lon="-5.45794">
        <ele>82.93</ele>
        <time>2021-04-06T12:14:37Z</time>
      </trkpt>
      <trkpt lat="56.87484" lon="-5.45777">
        <ele>81.94</ele>
        <time>2021-04-06T12:14:40Z</time>
      </trkpt>
      <trkpt lat="56.87462" lon="-5.45759">
        <ele>78.45</ele>
        <time>2021-04-06T12:14:43Z</time>
      </trkpt>
      <trkpt lat="56.87426" lon="-5.45739">
        <ele>74.19</ele>
        <time>2021-04-06T12:14:46Z</time>
      </trkpt>
      <trkpt lat="56.87409" lon="-5.45725">
        <ele>72.8</ele>
        <time>2021-04-06T12:14:49Z</time>
      </trkpt>
      <trkpt lat="56.87399" lon="-5.45709">
        <ele>72.06</ele>
        <time>2021-04-06T12:14:52Z</time>
      </trkpt>
      <trkpt lat="56.87391" lon="-5.4569">
        <ele>70.86</ele>
        <time>2021-04-06T12:14:55Z</time>
      </trkpt>
      <trkpt lat="56.87387" lon="-5.45672">
        <ele>69.22</ele>
        <time>2021-04-06T12:14:58Z</time>
      </trkpt>
      <trkpt lat="56.87374" lon="-5.45541">
        <ele>65.82</ele>
        <time>2021-04-06T12:15:00Z</time>
      </trkpt>
      <trkpt lat="56.87367" lon="-5.45514">
        <ele>64.63</ele>
        <time>2021-04-06T12:15:03Z</time>
      </trkpt>
      <trkpt lat="56.87321" lon="-5.45374">
        <ele>55.23</ele>
        <time>2021-04-06T12:15:06Z</time>
      </trkpt>
      <trkpt lat="56.87284" lon="-5.45246">
        <ele>51.44</ele>
        <time>2021-04-06T12:15:09Z</time>
      </trkpt>
      <trkpt lat="56.87254" lon="-5.45151">
        <ele>53.9</ele>
        <time>2021-04-06T12:15:12Z</time>
      </trkpt>
      <trkpt lat="56.87237" lon="-5.45108">
        <ele>54.28</ele>
        <time>2021-04-06T12:15:15Z</time>
      </trkpt>
      <trkpt lat="56.87205" lon="-5.45043">
        <ele>52.44</ele>
        <time>2021-04-06T12:15:18Z</time>
      </trkpt>
      <trkpt lat="56.87185" lon="-5.44994">
        <ele>51.33</ele>
        <time>2021-04-06T12:15:21Z</time>
      </trkpt>
      <trkpt lat="56.87171" lon="-5.44954">
        <ele>50.35</ele>
        <time>2021-04-06T12:15:24Z</time>
      </trkpt>
      <trkpt lat="56.87162" lon="-5.44917">
        <ele>49.04</ele>
        <time>2021-04-06T12:15:26Z</time>
      </trkpt>
      <trkpt lat="56.87157" lon="-5.44877">
        <ele>48.95</ele>
        <time>2021-04-06T12:15:29Z</time>
      </trkpt>
      <trkpt lat="56.87152" lon="-5.44792">
        <ele>47.54</ele>
        <time>2021-04-06T12:15:32Z</time>
      </trkpt>
      <trkpt lat="56.87151" lon="-5.4456">
        <ele>44.18</ele>
        <time>2021-04-06T12:15:35Z</time>
      </trkpt>
      <trkpt lat="56.87148" lon="-5.4452">
        <ele>42.54</ele>
        <time>2021-04-06T12:15:38Z</time>
      </trkpt>
      <trkpt lat="56.8714" lon="-5.44446">
        <ele>40.12</ele>
        <time>2021-04-06T12:15:41Z</time>
      </trkpt>
      <trkpt lat="56.87139" lon="-5.44421">
        <ele>40.07</ele>
        <time>2021-04-06T12:15:44Z</time>
      </trkpt>
      <trkpt lat="56.87144" lon="-5.44382">
        <ele>40.6</ele>
        <time>2021-04-06T12:15:47Z</time>
      </trkpt>
      <trkpt lat="56.8715" lon="-5.44358">
        <ele>40.78</ele>
        <time>2021-04-06T12:15:50Z</time>
      </trkpt>
      <trkpt lat="56.87159" lon="-5.44333">
        <ele>40.8</ele>
        <time>2021-04-06T12:15:53Z</time>
      </trkpt>
      <trkpt lat="56.87187" lon="-5.44263">
        <ele>40.83</ele>
        <time>2021-04-06T12:15:55Z</time>
      </trkpt>
      <trkpt lat="56.87194" lon="-5.4424">
        <ele>39.48</ele>
        <time>2021-04-06T12:15:58Z</time>
      </trkpt>
      <trkpt lat="56.87199" lon="-5.44205">
        <ele>37.26</ele>
        <time>2021-04-06T12:16:01Z</time>
      </trkpt>
      <trkpt lat="56.87199" lon="-5.44178">
        <ele>35.53</ele>
        <time>2021-04-06T12:16:04Z</time>
      </trkpt>
      <trkpt lat="56.87194" lon="-5.44149">
        <ele>33.97</ele>
        <time>2021-04-06T12:16:07Z</time>
      </trkpt>
      <trkpt lat="56.87175" lon="-5.44066">
        <ele>29.79</ele>
        <time>2021-04-06T12:16:10Z</time>
      </trkpt>
      <trkpt lat="56.87166" lon="-5.44015">
        <ele>27.73</ele>
        <time>2021-04-06T12:16:13Z</time>
      </trkpt>
      <trkpt lat="56.87161" lon="-5.43972">
        <ele>24.86</ele>
        <time>2021-04-06T12:16:16Z</time>
      </trkpt>
      <trkpt lat="56.8716" lon="-5.4388">
        <ele>18.19</ele>
        <time>2021-04-06T12:16:19Z</time>
      </trkpt>
      <trkpt lat="56.87157" lon="-5.43846">
        <ele>16.2</ele>
        <time>2021-04-06T12:16:21Z</time>
      </trkpt>
      <trkpt lat="56.87149" lon="-5.43813">
        <ele>14.74</ele>
        <time>2021-04-06T12:16:24Z</time>
      </trkpt>
      <trkpt lat="56.87041" lon="-5.43575">
        <ele>6.61</ele>
        <time>2021-04-06T12:16:27Z</time>
      </trkpt>
      <trkpt lat="56.87012" lon="-5.4352">
        <ele>8.09</ele>
        <time>2021-04-06T12:16:30Z</time>
      </trkpt>
      <trkpt lat="56.86999" lon="-5.43505">
        <ele>8.6</ele>
        <time>2021-04-06T12:16:33Z</time>
      </trkpt>
      <trkpt lat="56.86912" lon="-5.43443">
        <ele>11.85</ele>
        <time>2021-04-06T12:16:36Z</time>
      </trkpt>
      <trkpt lat="56.86881" lon="-5.43411">
        <ele>13.81</ele>
        <time>2021-04-06T12:16:39Z</time>
      </trkpt>
      <trkpt lat="56.86864" lon="-5.43382">
        <ele>14.28</ele>
        <time>2021-04-06T12:16:42Z</time>
      </trkpt>
      <trkpt lat="56.86843" lon="-5.43336">
        <ele>16.39</ele>
        <time>2021-04-06T12:16:45Z</time>
      </trkpt>
      <trkpt lat="56.8683" lon="-5.43289">
        <ele>16.66</ele>
        <time>2021-04-06T12:16:48Z</time>
      </trkpt>
      <trkpt lat="56.86824" lon="-5.43246">
        <ele>15.12</ele>
        <time>2021-04-06T12:16:50Z</time>
      </trkpt>
      <trkpt lat="56.86822" lon="-5.432">
        <ele>12.1</ele>
        <time>2021-04-06T12:16:53Z</time>
      </trkpt>
      <trkpt lat="56.86828" lon="-5.42958">
        <ele>10.87</ele>
        <time>2021-04-06T12:16:56Z</time>
      </trkpt>
      <trkpt lat="56.86825" lon="-5.42909">
        <ele>11.42</ele>
        <time>2021-04-06T12:16:59Z</time>
      </trkpt>
      <trkpt lat="56.86821" lon="-5.42867">
        <ele>12.45</ele>
        <time>2021-04-06T12:17:02Z</time>
      </trkpt>
      <trkpt lat="56.86812" lon="-5.42827">
        <ele>12.94</ele>
        <time>2021-04-06T12:17:05Z</time>
      </trkpt>
      <trkpt lat="56.86794" lon="-5.42775">
        <ele>13.62</ele>
        <time>2021-04-06T12:17:08Z</time>
      </trkpt>
      <trkpt lat="56.86767" lon="-5.42714">
        <ele>13.99</ele>
        <time>2021-04-06T12:17:11Z</time>
      </trkpt>
      <trkpt lat="56.8674" lon="-5.42658">
        <ele>11.93</ele>
        <time>2021-04-06T12:17:14Z</time>
      </trkpt>
      <trkpt lat="56.86723" lon="-5.4261">
        <ele>10.15</ele>
        <time>2021-04-06T12:17:17Z</time>
      </trkpt>
      <trkpt lat="56.86714" lon="-5.42573">
        <ele>9.51</ele>
        <time>2021-04-06T12:17:19Z</time>
      </trkpt>
      <trkpt lat="56.86707" lon="-5.42537">
        <ele>9.74</ele>
        <time>2021-04-06T12:17:22Z</time>
      </trkpt>
      <trkpt lat="56.86701" lon="-5.4249">
        <ele>9.68</ele>
        <time>2021-04-06T12:17:25Z</time>
      </trkpt>
      <trkpt lat="56.86699" lon="-5.42426">
        <ele>10.31</ele>
        <time>2021-04-06T12:17:28Z</time>
      </trkpt>
      <trkpt lat="56.867" lon="-5.42394">
        <ele>11.2</ele>
        <time>2021-04-06T12:17:31Z</time>
      </trkpt>
      <trkpt lat="56.86709" lon="-5.42251">
        <ele>17.54</ele>
        <time>2021-04-06T12:17:34Z</time>
      </trkpt>
      <trkpt lat="56.86709" lon="-5.42186">
        <ele>19.91</ele>
        <time>2021-04-06T12:17:37Z</time>
      </trkpt>
      <trkpt lat="56.86703" lon="-5.42115">
        <ele>20.74</ele>
        <time>2021-04-06T12:17:40Z</time>
      </trkpt>
      <trkpt lat="56.86693" lon="-5.42051">
        <ele>19.75</ele>
        <time>2021-04-06T12:17:43Z</time>
      </trkpt>
      <trkpt lat="56.86677" lon="-5.41991">
        <ele>17.91</ele>
        <time>2021-04-06T12:17:45Z</time>
      </trkpt>
      <trkpt lat="56.86597" lon="-5.4173">
        <ele>16.4</ele>
        <time>2021-04-06T12:17:48Z</time>
      </trkpt>
      <trkpt lat="56.86585" lon="-5.41698">
        <ele>17.03</ele>
        <time>2021-04-06T12:17:51Z</time>
      </trkpt>
      <trkpt lat="56.86572" lon="-5.41676">
        <ele>16.84</ele>
        <time>2021-04-06T12:17:54Z</time>
      </trkpt>
      <trkpt lat="56.86553" lon="-5.41656">
        <ele>15.44</ele>
        <time>2021-04-06T12:17:57Z</time>
      </trkpt>
      <trkpt lat="56.86508" lon="-5.41617">
        <ele>14.71</ele>
        <time>2021-04-06T12:18:00Z</time>
      </trkpt>
      <trkpt lat="56.86484" lon="-5.41588">
        <ele>14.14</ele>
        <time>2021-04-06T12:18:03Z</time>
      </trkpt>
      <trkpt lat="56.86465" lon="-5.41552">
        <ele>12.85</ele>
        <time>2021-04-06T12:18:06Z</time>
      </trkpt>
      <trkpt lat="56.86448" lon="-5.41512">
        <ele>10.58</ele>
        <time>2021-04-06T12:18:09Z</time>
      </trkpt>
      <trkpt lat="56.86435" lon="-5.41458">
        <ele>10.82</ele>
        <time>2021-04-06T12:18:12Z</time>
      </trkpt>
      <trkpt lat="56.86414" lon="-5.41328">
        <ele>14.69</ele>
        <time>2021-04-06T12:18:14Z</time>
      </trkpt>
      <trkpt lat="56.86402" lon="-5.4128">
        <ele>14.64</ele>
        <time>2021-04-06T12:18:17Z</time>
      </trkpt>
      <trkpt lat="56.86383" lon="-5.41228">
        <ele>13.76</ele>
        <time>2021-04-06T12:18:20Z</time>
      </trkpt>
      <trkpt lat="56.86364" lon="-5.41184">
        <ele>14.39</ele>
        <time>2021-04-06T12:18:23Z</time>
      </trkpt>
      <trkpt lat="56.86321" lon="-5.41121">
        <ele>17.43</ele>
        <time>2021-04-06T12:18:26Z</time>
      </trkpt>
      <trkpt lat="56.86289" lon="-5.41089">
        <ele>17.96</ele>
        <time>2021-04-06T12:18:29Z</time>
      </trkpt>
      <trkpt lat="56.86266" lon="-5.41072">
        <ele>17.19</ele>
        <time>2021-04-06T12:18:32Z</time>
      </trkpt>
      <trkpt lat="56.86157" lon="-5.41013">
        <ele>11.99</ele>
        <time>2021-04-06T12:18:35Z</time>
      </trkpt>
      <trkpt lat="56.86125" lon="-5.40989">
        <ele>10.02</ele>
        <time>2021-04-06T12:18:38Z</time>
      </trkpt>
      <trkpt lat="56.86103" lon="-5.40968">
        <ele>8.71</ele>
        <time>2021-04-06T12:18:41Z</time>
      </trkpt>
      <trkpt lat="56.86077" lon="-5.40936">
        <ele>8</ele>
        <time>2021-04-06T12:18:43Z</time>
      </trkpt>
      <trkpt lat="56.86048" lon="-5.4089">
        <ele>8</ele>
        <time>2021-04-06T12:18:46Z</time>
      </trkpt>
      <trkpt lat="56.8602" lon="-5.40827">
        <ele>9</ele>
        <time>2021-04-06T12:18:49Z</time>
      </trkpt>
      <trkpt lat="56.86002" lon="-5.40774">
        <ele>10.13</ele>
        <time>2021-04-06T12:18:52Z</time>
      </trkpt>
      <trkpt lat="56.8599" lon="-5.40727">
        <ele>11.13</ele>
        <time>2021-04-06T12:18:55Z</time>
      </trkpt>
      <trkpt lat="56.85981" lon="-5.40676">
        <ele>12.93</ele>
        <time>2021-04-06T12:18:58Z</time>
      </trkpt>
      <trkpt lat="56.85974" lon="-5.40625">
        <ele>14.7</ele>
        <time>2021-04-06T12:19:01Z</time>
      </trkpt>
      <trkpt lat="56.85972" lon="-5.40583">
        <ele>16.01</ele>
        <time>2021-04-06T12:19:04Z</time>
      </trkpt>
      <trkpt lat="56.85972" lon="-5.40519">
        <ele>16.68</ele>
        <time>2021-04-06T12:19:07Z</time>
      </trkpt>
      <trkpt lat="56.85976" lon="-5.40468">
        <ele>15.95</ele>
        <time>2021-04-06T12:19:09Z</time>
      </trkpt>
      <trkpt lat="56.85985" lon="-5.404">
        <ele>14.69</ele>
        <time>2021-04-06T12:19:12Z</time>
      </trkpt>
      <trkpt lat="56.85999" lon="-5.40341">
        <ele>15.68</ele>
        <time>2021-04-06T12:19:15Z</time>
      </trkpt>
      <trkpt lat="56.86027" lon="-5.40256">
        <ele>17.97</ele>
        <time>2021-04-06T12:19:18Z</time>
      </trkpt>
      <trkpt lat="56.86049" lon="-5.40198">
        <ele>17.76</ele>
        <time>2021-04-06T12:19:21Z</time>
      </trkpt>
      <trkpt lat="56.86076" lon="-5.40135">
        <ele>18.37</ele>
        <time>2021-04-06T12:19:24Z</time>
      </trkpt>
      <trkpt lat="56.86091" lon="-5.40106">
        <ele>18.48</ele>
        <time>2021-04-06T12:19:27Z</time>
      </trkpt>
      <trkpt lat="56.86148" lon="-5.40079">
        <ele>23.19</ele>
        <time>2021-04-06T12:19:30Z</time>
      </trkpt>
      <trkpt lat="56.86196" lon="-5.40039">
        <ele>24.29</ele>
        <time>2021-04-06T12:19:33Z</time>
      </trkpt>
      <trkpt lat="56.8622" lon="-5.40012">
        <ele>22.06</ele>
        <time>2021-04-06T12:19:36Z</time>
      </trkpt>
      <trkpt lat="56.86256" lon="-5.39962">
        <ele>22.35</ele>
        <time>2021-04-06T12:19:38Z</time>
      </trkpt>
      <trkpt lat="56.86289" lon="-5.399">
        <ele>22.9</ele>
        <time>2021-04-06T12:19:41Z</time>
      </trkpt>
      <trkpt lat="56.86346" lon="-5.39774">
        <ele>21.83</ele>
        <time>2021-04-06T12:19:44Z</time>
      </trkpt>
      <trkpt lat="56.86388" lon="-5.39672">
        <ele>22.09</ele>
        <time>2021-04-06T12:19:47Z</time>
      </trkpt>
      <trkpt lat="56.8642" lon="-5.39579">
        <ele>21.77</ele>
        <time>2021-04-06T12:19:50Z</time>
      </trkpt>
      <trkpt lat="56.86444" lon="-5.39475">
        <ele>19</ele>
        <time>2021-04-06T12:19:53Z</time>
      </trkpt>
      <trkpt lat="56.86458" lon="-5.39361">
        <ele>20</ele>
        <time>2021-04-06T12:19:56Z</time>
      </trkpt>
      <trkpt lat="56.86463" lon="-5.393">
        <ele>22.56</ele>
        <time>2021-04-06T12:19:59Z</time>
      </trkpt>
      <trkpt lat="56.86466" lon="-5.39237">
        <ele>24.76</ele>
        <time>2021-04-06T12:20:02Z</time>
      </trkpt>
      <trkpt lat="56.86465" lon="-5.39178">
        <ele>26.78</ele>
        <time>2021-04-06T12:20:04Z</time>
      </trkpt>
      <trkpt lat="56.86461" lon="-5.39095">
        <ele>27.15</ele>
        <time>2021-04-06T12:20:07Z</time>
      </trkpt>
      <trkpt lat="56.86429" lon="-5.3872">
        <ele>18</ele>
        <time>2021-04-06T12:20:10Z</time>
      </trkpt>
      <trkpt lat="56.8642" lon="-5.38646">
        <ele>19.34</ele>
        <time>2021-04-06T12:20:13Z</time>
      </trkpt>
      <trkpt lat="56.86408" lon="-5.38577">
        <ele>18.67</ele>
        <time>2021-04-06T12:20:16Z</time>
      </trkpt>
      <trkpt lat="56.8639" lon="-5.38499">
        <ele>18.19</ele>
        <time>2021-04-06T12:20:19Z</time>
      </trkpt>
      <trkpt lat="56.86282" lon="-5.38189">
        <ele>29.28</ele>
        <time>2021-04-06T12:20:22Z</time>
      </trkpt>
      <trkpt lat="56.86266" lon="-5.38132">
        <ele>31.32</ele>
        <time>2021-04-06T12:20:25Z</time>
      </trkpt>
      <trkpt lat="56.86224" lon="-5.37932">
        <ele>33.21</ele>
        <time>2021-04-06T12:20:28Z</time>
      </trkpt>
      <trkpt lat="56.86126" lon="-5.37402">
        <ele>23.06</ele>
        <time>2021-04-06T12:20:31Z</time>
      </trkpt>
      <trkpt lat="56.86108" lon="-5.37327">
        <ele>20.68</ele>
        <time>2021-04-06T12:20:33Z</time>
      </trkpt>
      <trkpt lat="56.86062" lon="-5.37169">
        <ele>24.31</ele>
        <time>2021-04-06T12:20:36Z</time>
      </trkpt>
      <trkpt lat="56.86008" lon="-5.36949">
        <ele>28.03</ele>
        <time>2021-04-06T12:20:39Z</time>
      </trkpt>
      <trkpt lat="56.85892" lon="-5.36419">
        <ele>22.44</ele>
        <time>2021-04-06T12:20:42Z</time>
      </trkpt>
      <trkpt lat="56.85867" lon="-5.36297">
        <ele>24.45</ele>
        <time>2021-04-06T12:20:45Z</time>
      </trkpt>
      <trkpt lat="56.85858" lon="-5.36239">
        <ele>23.43</ele>
        <time>2021-04-06T12:20:48Z</time>
      </trkpt>
      <trkpt lat="56.85848" lon="-5.36156">
        <ele>20.2</ele>
        <time>2021-04-06T12:20:51Z</time>
      </trkpt>
      <trkpt lat="56.85841" lon="-5.36072">
        <ele>17.74</ele>
        <time>2021-04-06T12:20:54Z</time>
      </trkpt>
      <trkpt lat="56.85838" lon="-5.36004">
        <ele>15.3</ele>
        <time>2021-04-06T12:20:57Z</time>
      </trkpt>
      <trkpt lat="56.85838" lon="-5.35908">
        <ele>16.46</ele>
        <time>2021-04-06T12:21:00Z</time>
      </trkpt>
      <trkpt lat="56.8584" lon="-5.35832">
        <ele>18.98</ele>
        <time>2021-04-06T12:21:02Z</time>
      </trkpt>
      <trkpt lat="56.85845" lon="-5.35756">
        <ele>21</ele>
        <time>2021-04-06T12:21:05Z</time>
      </trkpt>
      <trkpt lat="56.85861" lon="-5.35617">
        <ele>22.24</ele>
        <time>2021-04-06T12:21:08Z</time>
      </trkpt>
      <trkpt lat="56.85879" lon="-5.35515">
        <ele>20.73</ele>
        <time>2021-04-06T12:21:11Z</time>
      </trkpt>
      <trkpt lat="56.85901" lon="-5.3542">
        <ele>22.83</ele>
        <time>2021-04-06T12:21:14Z</time>
      </trkpt>
      <trkpt lat="56.85928" lon="-5.35322">
        <ele>22.97</ele>
        <time>2021-04-06T12:21:17Z</time>
      </trkpt>
      <trkpt lat="56.86003" lon="-5.351">
        <ele>20.45</ele>
        <time>2021-04-06T12:21:20Z</time>
      </trkpt>
      <trkpt lat="56.86023" lon="-5.3503">
        <ele>20.6</ele>
        <time>2021-04-06T12:21:23Z</time>
      </trkpt>
      <trkpt lat="56.86035" lon="-5.34972">
        <ele>17.73</ele>
        <time>2021-04-06T12:21:26Z</time>
      </trkpt>
      <trkpt lat="56.86048" lon="-5.34878">
        <ele>12.44</ele>
        <time>2021-04-06T12:21:28Z</time>
      </trkpt>
      <trkpt lat="56.86054" lon="-5.34816">
        <ele>11</ele>
        <time>2021-04-06T12:21:31Z</time>
      </trkpt>
      <trkpt lat="56.86057" lon="-5.34736">
        <ele>12.13</ele>
        <time>2021-04-06T12:21:34Z</time>
      </trkpt>
      <trkpt lat="56.86057" lon="-5.34698">
        <ele>12.12</ele>
        <time>2021-04-06T12:21:37Z</time>
      </trkpt>
      <trkpt lat="56.86054" lon="-5.34598">
        <ele>11.92</ele>
        <time>2021-04-06T12:21:40Z</time>
      </trkpt>
      <trkpt lat="56.86039" lon="-5.34359">
        <ele>12.25</ele>
        <time>2021-04-06T12:21:43Z</time>
      </trkpt>
      <trkpt lat="56.86035" lon="-5.34264">
        <ele>14.86</ele>
        <time>2021-04-06T12:21:46Z</time>
      </trkpt>
      <trkpt lat="56.86039" lon="-5.33914">
        <ele>7.21</ele>
        <time>2021-04-06T12:21:49Z</time>
      </trkpt>
      <trkpt lat="56.86044" lon="-5.33727">
        <ele>7.31</ele>
        <time>2021-04-06T12:21:52Z</time>
      </trkpt>
      <trkpt lat="56.86056" lon="-5.33509">
        <ele>10.07</ele>
        <time>2021-04-06T12:21:55Z</time>
      </trkpt>
      <trkpt lat="56.86055" lon="-5.33332">
        <ele>7.99</ele>
        <time>2021-04-06T12:21:57Z</time>
      </trkpt>
      <trkpt lat="56.8605" lon="-5.33161">
        <ele>6.95</ele>
        <time>2021-04-06T12:22:00Z</time>
      </trkpt>
      <trkpt lat="56.86038" lon="-5.33009">
        <ele>9.05</ele>
        <time>2021-04-06T12:22:03Z</time>
      </trkpt>
      <trkpt lat="56.86002" lon="-5.32688">
        <ele>11.45</ele>
        <time>2021-04-06T12:22:06Z</time>
      </trkpt>
      <trkpt lat="56.85991" lon="-5.3257">
        <ele>12.22</ele>
        <time>2021-04-06T12:22:09Z</time>
      </trkpt>
      <trkpt lat="56.8598" lon="-5.32372">
        <ele>15.05</ele>
        <time>2021-04-06T12:22:12Z</time>
      </trkpt>
      <trkpt lat="56.8597" lon="-5.32153">
        <ele>15.41</ele>
        <time>2021-04-06T12:22:15Z</time>
      </trkpt>
      <trkpt lat="56.85961" lon="-5.32042">
        <ele>12.11</ele>
        <time>2021-04-06T12:22:18Z</time>
      </trkpt>
      <trkpt lat="56.85951" lon="-5.31962">
        <ele>10.14</ele>
        <time>2021-04-06T12:22:21Z</time>
      </trkpt>
      <trkpt lat="56.85945" lon="-5.31921">
        <ele>9.07</ele>
        <time>2021-04-06T12:22:23Z</time>
      </trkpt>
      <trkpt lat="56.85928" lon="-5.31828">
        <ele>9.88</ele>
        <time>2021-04-06T12:22:26Z</time>
      </trkpt>
      <trkpt lat="56.85904" lon="-5.31731">
        <ele>9.05</ele>
        <time>2021-04-06T12:22:29Z</time>
      </trkpt>
      <trkpt lat="56.85822" lon="-5.31472">
        <ele>8.19</ele>
        <time>2021-04-06T12:22:32Z</time>
      </trkpt>
      <trkpt lat="56.85798" lon="-5.31385">
        <ele>8.22</ele>
        <time>2021-04-06T12:22:35Z</time>
      </trkpt>
      <trkpt lat="56.85778" lon="-5.3129">
        <ele>5.59</ele>
        <time>2021-04-06T12:22:38Z</time>
      </trkpt>
      <trkpt lat="56.85761" lon="-5.31195">
        <ele>6.81</ele>
        <time>2021-04-06T12:22:41Z</time>
      </trkpt>
      <trkpt lat="56.85758" lon="-5.31169">
        <ele>6.87</ele>
        <time>2021-04-06T12:22:44Z</time>
      </trkpt>
      <trkpt lat="56.85699" lon="-5.30647">
        <ele>7.69</ele>
        <time>2021-04-06T12:22:47Z</time>
      </trkpt>
      <trkpt lat="56.85667" lon="-5.30337">
        <ele>9.11</ele>
        <time>2021-04-06T12:22:50Z</time>
      </trkpt>
      <trkpt lat="56.8566" lon="-5.30225">
        <ele>8.96</ele>
        <time>2021-04-06T12:22:52Z</time>
      </trkpt>
      <trkpt lat="56.85655" lon="-5.30105">
        <ele>7.25</ele>
        <time>2021-04-06T12:22:55Z</time>
      </trkpt>
      <trkpt lat="56.85647" lon="-5.29406">
        <ele>5.83</ele>
        <time>2021-04-06T12:22:58Z</time>
      </trkpt>
      <trkpt lat="56.85638" lon="-5.2924">
        <ele>4.93</ele>
        <time>2021-04-06T12:23:01Z</time>
      </trkpt>
      <trkpt lat="56.85619" lon="-5.29037">
        <ele>5.72</ele>
        <time>2021-04-06T12:23:04Z</time>
      </trkpt>
      <trkpt lat="56.8556" lon="-5.28513">
        <ele>7.47</ele>
        <time>2021-04-06T12:23:07Z</time>
      </trkpt>
      <trkpt lat="56.85548" lon="-5.28375">
        <ele>5.59</ele>
        <time>2021-04-06T12:23:10Z</time>
      </trkpt>
      <trkpt lat="56.85517" lon="-5.26896">
        <ele>7.98</ele>
        <time>2021-04-06T12:23:13Z</time>
      </trkpt>
      <trkpt lat="56.85513" lon="-5.26813">
        <ele>10.58</ele>
        <time>2021-04-06T12:23:16Z</time>
      </trkpt>
      <trkpt lat="56.85506" lon="-5.26741">
        <ele>11.38</ele>
        <time>2021-04-06T12:23:19Z</time>
      </trkpt>
      <trkpt lat="56.85495" lon="-5.26652">
        <ele>9.24</ele>
        <time>2021-04-06T12:23:21Z</time>
      </trkpt>
      <trkpt lat="56.85449" lon="-5.26323">
        <ele>11.32</ele>
        <time>2021-04-06T12:23:24Z</time>
      </trkpt>
      <trkpt lat="56.85438" lon="-5.26214">
        <ele>10.5</ele>
        <time>2021-04-06T12:23:27Z</time>
      </trkpt>
      <trkpt lat="56.85434" lon="-5.26155">
        <ele>8.96</ele>
        <time>2021-04-06T12:23:30Z</time>
      </trkpt>
      <trkpt lat="56.85431" lon="-5.26066">
        <ele>7.5</ele>
        <time>2021-04-06T12:23:33Z</time>
      </trkpt>
      <trkpt lat="56.85432" lon="-5.25966">
        <ele>9.34</ele>
        <time>2021-04-06T12:23:36Z</time>
      </trkpt>
      <trkpt lat="56.85439" lon="-5.25854">
        <ele>11.19</ele>
        <time>2021-04-06T12:23:39Z</time>
      </trkpt>
      <trkpt lat="56.85474" lon="-5.25525">
        <ele>5.02</ele>
        <time>2021-04-06T12:23:42Z</time>
      </trkpt>
      <trkpt lat="56.85492" lon="-5.25523">
        <ele>6.95</ele>
        <time>2021-04-06T12:23:48Z</time>
      </trkpt>
      <trkpt lat="56.85498" lon="-5.25516">
        <ele>7.32</ele>
        <time>2021-04-06T12:23:54Z</time>
      </trkpt>
      <trkpt lat="56.85502" lon="-5.25503">
        <ele>7.38</ele>
        <time>2021-04-06T12:24:01Z</time>
      </trkpt>
      <trkpt lat="56.85514" lon="-5.25305">
        <ele>9.51</ele>
        <time>2021-04-06T12:24:07Z</time>
      </trkpt>
      <trkpt lat="56.85517" lon="-5.25286">
        <ele>9.63</ele>
        <time>2021-04-06T12:24:13Z</time>
      </trkpt>
      <trkpt lat="56.85605" lon="-5.25071">
        <ele>14.73</ele>
        <time>2021-04-06T12:24:20Z</time>
      </trkpt>
      <trkpt lat="56.85631" lon="-5.25028">
        <ele>14.42</ele>
        <time>2021-04-06T12:24:26Z</time>
      </trkpt>
      <trkpt lat="56.85727" lon="-5.24917">
        <ele>17.17</ele>
        <time>2021-04-06T12:24:32Z</time>
      </trkpt>
      <trkpt lat="56.858" lon="-5.24882">
        <ele>17.19</ele>
        <time>2021-04-06T12:24:38Z</time>
      </trkpt>
      <trkpt lat="56.85863" lon="-5.24858">
        <ele>19.18</ele>
        <time>2021-04-06T12:24:45Z</time>
      </trkpt>
      <trkpt lat="56.85939" lon="-5.24798">
        <ele>19.19</ele>
        <time>2021-04-06T12:24:51Z</time>
      </trkpt>
      <trkpt lat="56.85961" lon="-5.24777">
        <ele>19</ele>
        <time>2021-04-06T12:24:57Z</time>
      </trkpt>
      <trkpt lat="56.85971" lon="-5.24764">
        <ele>19</ele>
        <time>2021-04-06T12:25:03Z</time>
      </trkpt>
      <trkpt lat="56.85971" lon="-5.24754">
        <ele>19</ele>
        <time>2021-04-06T12:25:10Z</time>
      </trkpt>
      <trkpt lat="56.85966" lon="-5.24722">
        <ele>19.8</ele>
        <time>2021-04-06T12:25:17Z</time>
      </trkpt>
      <trkpt lat="56.85934" lon="-5.24584">
        <ele>18.27</ele>
        <time>2021-04-06T12:25:24Z</time>
      </trkpt>
      <trkpt lat="56.8592" lon="-5.24547">
        <ele>18.57</ele>
        <time>2021-04-06T12:25:31Z</time>
      </trkpt>
      <trkpt lat="56.859" lon="-5.24505">
        <ele>18.62</ele>
        <time>2021-04-06T12:25:37Z</time>
      </trkpt>
      <trkpt lat="56.85716" lon="-5.24213">
        <ele>20.59</ele>
        <time>2021-04-06T12:25:44Z</time>
      </trkpt>
      <trkpt lat="56.85667" lon="-5.24155">
        <ele>16.56</ele>
        <time>2021-04-06T12:25:51Z</time>
      </trkpt>
      <trkpt lat="56.85615" lon="-5.24064">
        <ele>10.33</ele>
        <time>2021-04-06T12:25:58Z</time>
      </trkpt>
      <trkpt lat="56.85593" lon="-5.2401">
        <ele>8.69</ele>
        <time>2021-04-06T12:26:05Z</time>
      </trkpt>
      <trkpt lat="56.85552" lon="-5.23838">
        <ele>8.56</ele>
        <time>2021-04-06T12:26:12Z</time>
      </trkpt>
      <trkpt lat="56.85545" lon="-5.23828">
        <ele>8.32</ele>
        <time>2021-04-06T12:26:18Z</time>
      </trkpt>
      <trkpt lat="56.85518" lon="-5.2383">
        <ele>6.66</ele>
        <time>2021-04-06T12:26:25Z</time>
      </trkpt>
      <trkpt lat="56.85517" lon="-5.23715">
        <ele>7.38</ele>
        <time>2021-04-06T12:26:33Z</time>
      </trkpt>
      <trkpt lat="56.85518" lon="-5.22361">
        <ele>9.65</ele>
        <time>2021-04-06T12:26:42Z</time>
      </trkpt>
      <trkpt lat="56.85523" lon="-5.22204">
        <ele>7.64</ele>
        <time>2021-04-06T12:26:50Z</time>
      </trkpt>
      <trkpt lat="56.85544" lon="-5.2186">
        <ele>6.62</ele>
        <time>2021-04-06T12:26:58Z</time>
      </trkpt>
      <trkpt lat="56.85554" lon="-5.21675">
        <ele>8.12</ele>
        <time>2021-04-06T12:27:06Z</time>
      </trkpt>
      <trkpt lat="56.85559" lon="-5.21517">
        <ele>9.01</ele>
        <time>2021-04-06T12:27:14Z</time>
      </trkpt>
      <trkpt lat="56.85576" lon="-5.19762">
        <ele>10.37</ele>
        <time>2021-04-06T12:27:22Z</time>
      </trkpt>
      <trkpt lat="56.85571" lon="-5.19553">
        <ele>16.42</ele>
        <time>2021-04-06T12:27:31Z</time>
      </trkpt>
      <trkpt lat="56.85545" lon="-5.1921">
        <ele>9.6</ele>
        <time>2021-04-06T12:27:39Z</time>
      </trkpt>
      <trkpt lat="56.8553" lon="-5.19111">
        <ele>7.45</ele>
        <time>2021-04-06T12:27:47Z</time>
      </trkpt>
      <trkpt lat="56.85505" lon="-5.19015">
        <ele>6.55</ele>
        <time>2021-04-06T12:27:55Z</time>
      </trkpt>
      <trkpt lat="56.85476" lon="-5.18925">
        <ele>5.74</ele>
        <time>2021-04-06T12:28:03Z</time>
      </trkpt>
      <trkpt lat="56.85423" lon="-5.18775">
        <ele>8.72</ele>
        <time>2021-04-06T12:28:12Z</time>
      </trkpt>
      <trkpt lat="56.85399" lon="-5.18689">
        <ele>9.81</ele>
        <time>2021-04-06T12:28:20Z</time>
      </trkpt>
      <trkpt lat="56.85379" lon="-5.18598">
        <ele>8.91</ele>
        <time>2021-04-06T12:28:28Z</time>
      </trkpt>
      <trkpt lat="56.85363" lon="-5.18455">
        <ele>9.07</ele>
        <time>2021-04-06T12:28:36Z</time>
      </trkpt>
      <trkpt lat="56.85326" lon="-5.17738">
        <ele>11.58</ele>
        <time>2021-04-06T12:28:44Z</time>
      </trkpt>
      <trkpt lat="56.85317" lon="-5.1763">
        <ele>10.71</ele>
        <time>2021-04-06T12:28:52Z</time>
      </trkpt>
      <trkpt lat="56.85295" lon="-5.17507">
        <ele>11.5</ele>
        <time>2021-04-06T12:29:01Z</time>
      </trkpt>
      <trkpt lat="56.85284" lon="-5.17464">
        <ele>11.49</ele>
        <time>2021-04-06T12:29:09Z</time>
      </trkpt>
      <trkpt lat="56.8527" lon="-5.17419">
        <ele>9.52</ele>
        <time>2021-04-06T12:29:17Z</time>
      </trkpt>
      <trkpt lat="56.85238" lon="-5.17342">
        <ele>5.79</ele>
        <time>2021-04-06T12:29:25Z</time>
      </trkpt>
      <trkpt lat="56.85124" lon="-5.17105">
        <ele>8.75</ele>
        <time>2021-04-06T12:29:33Z</time>
      </trkpt>
      <trkpt lat="56.85105" lon="-5.17059">
        <ele>9.25</ele>
        <time>2021-04-06T12:29:42Z</time>
      </trkpt>
      <trkpt lat="56.85063" lon="-5.16933">
        <ele>7.88</ele>
        <time>2021-04-06T12:29:50Z</time>
      </trkpt>
      <trkpt lat="56.84976" lon="-5.16655">
        <ele>6.69</ele>
        <time>2021-04-06T12:29:58Z</time>
      </trkpt>
      <trkpt lat="56.84897" lon="-5.16391">
        <ele>12.41</ele>
        <time>2021-04-06T12:30:06Z</time>
      </trkpt>
      <trkpt lat="56.84786" lon="-5.16041">
        <ele>16.43</ele>
        <time>2021-04-06T12:30:14Z</time>
      </trkpt>
      <trkpt lat="56.84725" lon="-5.15842">
        <ele>16</ele>
        <time>2021-04-06T12:30:23Z</time>
      </trkpt>
      <trkpt lat="56.84701" lon="-5.15757">
        <ele>18.17</ele>
        <time>2021-04-06T12:30:31Z</time>
      </trkpt>
      <trkpt lat="56.84657" lon="-5.15551">
        <ele>16.3</ele>
        <time>2021-04-06T12:30:39Z</time>
      </trkpt>
      <trkpt lat="56.84628" lon="-5.15428">
        <ele>16.19</ele>
        <time>2021-04-06T12:30:47Z</time>
      </trkpt>
      <trkpt lat="56.84594" lon="-5.15325">
        <ele>14.52</ele>
        <time>2021-04-06T12:30:55Z</time>
      </trkpt>
      <trkpt lat="56.84546" lon="-5.15229">
        <ele>13.55</ele>
        <time>2021-04-06T12:31:03Z</time>
      </trkpt>
      <trkpt lat="56.8445" lon="-5.15065">
        <ele>15.63</ele>
        <time>2021-04-06T12:31:12Z</time>
      </trkpt>
      <trkpt lat="56.84417" lon="-5.14997">
        <ele>13.99</ele>
        <time>2021-04-06T12:31:20Z</time>
      </trkpt>
      <trkpt lat="56.84385" lon="-5.14921">
        <ele>14</ele>
        <time>2021-04-06T12:31:28Z</time>
      </trkpt>
      <trkpt lat="56.84351" lon="-5.14812">
        <ele>14</ele>
        <time>2021-04-06T12:31:36Z</time>
      </trkpt>
      <trkpt lat="56.84326" lon="-5.14691">
        <ele>13.83</ele>
        <time>2021-04-06T12:31:44Z</time>
      </trkpt>
      <trkpt lat="56.84313" lon="-5.1458">
        <ele>14.55</ele>
        <time>2021-04-06T12:31:53Z</time>
      </trkpt>
      <trkpt lat="56.84309" lon="-5.14485">
        <ele>13.34</ele>
        <time>2021-04-06T12:32:01Z</time>
      </trkpt>
      <trkpt lat="56.8431" lon="-5.14322">
        <ele>14.16</ele>
        <time>2021-04-06T12:32:09Z</time>
      </trkpt>
      <trkpt lat="56.84322" lon="-5.13634">
        <ele>7.97</ele>
        <time>2021-04-06T12:32:17Z</time>
      </trkpt>
      <trkpt lat="56.84323" lon="-5.13464">
        <ele>6.53</ele>
        <time>2021-04-06T12:32:25Z</time>
      </trkpt>
      <trkpt lat="56.84327" lon="-5.1335">
        <ele>5.68</ele>
        <time>2021-04-06T12:32:34Z</time>
      </trkpt>
      <trkpt lat="56.84332" lon="-5.1329">
        <ele>5.34</ele>
        <time>2021-04-06T12:32:42Z</time>
      </trkpt>
      <trkpt lat="56.84372" lon="-5.12946">
        <ele>7.76</ele>
        <time>2021-04-06T12:32:50Z</time>
      </trkpt>
      <trkpt lat="56.84377" lon="-5.12869">
        <ele>9.59</ele>
        <time>2021-04-06T12:32:58Z</time>
      </trkpt>
      <trkpt lat="56.84386" lon="-5.12699">
        <ele>11.87</ele>
        <time>2021-04-06T12:33:06Z</time>
      </trkpt>
      <trkpt lat="56.84389" lon="-5.12583">
        <ele>13.02</ele>
        <time>2021-04-06T12:33:14Z</time>
      </trkpt>
      <trkpt lat="56.8439" lon="-5.1247">
        <ele>14.02</ele>
        <time>2021-04-06T12:33:23Z</time>
      </trkpt>
      <trkpt lat="56.84385" lon="-5.12283">
        <ele>12.55</ele>
        <time>2021-04-06T12:33:31Z</time>
      </trkpt>
      <trkpt lat="56.84384" lon="-5.12158">
        <ele>13.72</ele>
        <time>2021-04-06T12:33:39Z</time>
      </trkpt>
      <trkpt lat="56.84389" lon="-5.11947">
        <ele>17.2</ele>
        <time>2021-04-06T12:33:47Z</time>
      </trkpt>
      <trkpt lat="56.84393" lon="-5.11906">
        <ele>17.58</ele>
        <time>2021-04-06T12:33:55Z</time>
      </trkpt>
      <trkpt lat="56.84411" lon="-5.11788">
        <ele>21.77</ele>
        <time>2021-04-06T12:34:04Z</time>
      </trkpt>
      <trkpt lat="56.84436" lon="-5.11671">
        <ele>25.28</ele>
        <time>2021-04-06T12:34:12Z</time>
      </trkpt>
      <trkpt lat="56.84444" lon="-5.11615">
        <ele>25.12</ele>
        <time>2021-04-06T12:34:20Z</time>
      </trkpt>
      <trkpt lat="56.84448" lon="-5.11553">
        <ele>23.79</ele>
        <time>2021-04-06T12:34:28Z</time>
      </trkpt>
      <trkpt lat="56.84446" lon="-5.11244">
        <ele>19.56</ele>
        <time>2021-04-06T12:34:36Z</time>
      </trkpt>
      <trkpt lat="56.8445" lon="-5.11167">
        <ele>21.74</ele>
        <time>2021-04-06T12:34:44Z</time>
      </trkpt>
      <trkpt lat="56.84462" lon="-5.11033">
        <ele>21.55</ele>
        <time>2021-04-06T12:34:53Z</time>
      </trkpt>
      <trkpt lat="56.8448" lon="-5.10884">
        <ele>22.18</ele>
        <time>2021-04-06T12:35:01Z</time>
      </trkpt>
      <trkpt lat="56.84493" lon="-5.10732">
        <ele>22.31</ele>
        <time>2021-04-06T12:35:09Z</time>
      </trkpt>
      <trkpt lat="56.845" lon="-5.10669">
        <ele>22.1</ele>
        <time>2021-04-06T12:35:17Z</time>
      </trkpt>
      <trkpt lat="56.84515" lon="-5.10434">
        <ele>22.03</ele>
        <time>2021-04-06T12:35:25Z</time>
      </trkpt>
      <trkpt lat="56.84531" lon="-5.10207">
        <ele>16.59</ele>
        <time>2021-04-06T12:35:34Z</time>
      </trkpt>
      <trkpt lat="56.84533" lon="-5.10115">
        <ele>16.44</ele>
        <time>2021-04-06T12:35:42Z</time>
      </trkpt>
      <trkpt lat="56.84531" lon="-5.1005">
        <ele>16.37</ele>
        <time>2021-04-06T12:35:50Z</time>
      </trkpt>
      <trkpt lat="56.84525" lon="-5.09984">
        <ele>15.8</ele>
        <time>2021-04-06T12:35:58Z</time>
      </trkpt>
      <trkpt lat="56.84509" lon="-5.09882">
        <ele>14.4</ele>
        <time>2021-04-06T12:36:06Z</time>
      </trkpt>
      <trkpt lat="56.84509" lon="-5.09882">
        <ele>14.4</ele>
        <time>2021-04-06T12:36:06Z</time>
      </trkpt>
      <trkpt lat="56.84509" lon="-5.09882">
        <ele>13</ele>
        <time>2021-04-06T12:36:07Z</time>
      </trkpt>
      <trkpt lat="56.84577" lon="-5.09842">
        <ele>15.07</ele>
        <time>2021-04-06T12:36:09Z</time>
      </trkpt>
      <trkpt lat="56.84593" lon="-5.09829">
        <ele>15.73</ele>
        <time>2021-04-06T12:36:11Z</time>
      </trkpt>
      <trkpt lat="56.84599" lon="-5.09822">
        <ele>16.15</ele>
        <time>2021-04-06T12:36:14Z</time>
      </trkpt>
      <trkpt lat="56.84611" lon="-5.09795">
        <ele>16.95</ele>
        <time>2021-04-06T12:36:16Z</time>
      </trkpt>
      <trkpt lat="56.84614" lon="-5.09774">
        <ele>17.1</ele>
        <time>2021-04-06T12:36:19Z</time>
      </trkpt>
      <trkpt lat="56.84616" lon="-5.09745">
        <ele>16.99</ele>
        <time>2021-04-06T12:36:21Z</time>
      </trkpt>
      <trkpt lat="56.84606" lon="-5.09593">
        <ele>15.44</ele>
        <time>2021-04-06T12:36:24Z</time>
      </trkpt>
      <trkpt lat="56.84608" lon="-5.09575">
        <ele>15.35</ele>
        <time>2021-04-06T12:36:26Z</time>
      </trkpt>
      <trkpt lat="56.84613" lon="-5.09559">
        <ele>15.23</ele>
        <time>2021-04-06T12:36:29Z</time>
      </trkpt>
      <trkpt lat="56.8462" lon="-5.09548">
        <ele>15.63</ele>
        <time>2021-04-06T12:36:31Z</time>
      </trkpt>
      <trkpt lat="56.84655" lon="-5.09525">
        <ele>17.06</ele>
        <time>2021-04-06T12:36:34Z</time>
      </trkpt>
      <trkpt lat="56.84666" lon="-5.09511">
        <ele>17.59</ele>
        <time>2021-04-06T12:36:36Z</time>
      </trkpt>
      <trkpt lat="56.84685" lon="-5.0948">
        <ele>18</ele>
        <time>2021-04-06T12:36:39Z</time>
      </trkpt>
      <trkpt lat="56.84721" lon="-5.094">
        <ele>19.94</ele>
        <time>2021-04-06T12:36:41Z</time>
      </trkpt>
      <trkpt lat="56.84792" lon="-5.09272">
        <ele>27.04</ele>
        <time>2021-04-06T12:36:44Z</time>
      </trkpt>
      <trkpt lat="56.84875" lon="-5.0915">
        <ele>29.5</ele>
        <time>2021-04-06T12:36:46Z</time>
      </trkpt>
      <trkpt lat="56.84942" lon="-5.09058">
        <ele>31.89</ele>
        <time>2021-04-06T12:36:49Z</time>
      </trkpt>
      <trkpt lat="56.85027" lon="-5.08973">
        <ele>32.98</ele>
        <time>2021-04-06T12:36:51Z</time>
      </trkpt>
      <trkpt lat="56.85042" lon="-5.08916">
        <ele>33.52</ele>
        <time>2021-04-06T12:36:54Z</time>
      </trkpt>
      <trkpt lat="56.85055" lon="-5.08886">
        <ele>33.81</ele>
        <time>2021-04-06T12:36:56Z</time>
      </trkpt>
      <trkpt lat="56.85123" lon="-5.08774">
        <ele>34.29</ele>
        <time>2021-04-06T12:36:59Z</time>
      </trkpt>
      <trkpt lat="56.85157" lon="-5.08735">
        <ele>33.91</ele>
        <time>2021-04-06T12:37:01Z</time>
      </trkpt>
      <trkpt lat="56.85207" lon="-5.08695">
        <ele>35.92</ele>
        <time>2021-04-06T12:37:04Z</time>
      </trkpt>
      <trkpt lat="56.85297" lon="-5.08612">
        <ele>36.06</ele>
        <time>2021-04-06T12:37:06Z</time>
      </trkpt>
      <trkpt lat="56.85346" lon="-5.0857">
        <ele>36.45</ele>
        <time>2021-04-06T12:37:09Z</time>
      </trkpt>
      <trkpt lat="56.85383" lon="-5.08551">
        <ele>37</ele>
        <time>2021-04-06T12:37:11Z</time>
      </trkpt>
      <trkpt lat="56.85437" lon="-5.08534">
        <ele>39.72</ele>
        <time>2021-04-06T12:37:13Z</time>
      </trkpt>
      <trkpt lat="56.8545" lon="-5.08537">
        <ele>39.81</ele>
        <time>2021-04-06T12:37:16Z</time>
      </trkpt>
      <trkpt lat="56.85479" lon="-5.08551">
        <ele>38.76</ele>
        <time>2021-04-06T12:37:18Z</time>
      </trkpt>
      <trkpt lat="56.855" lon="-5.08557">
        <ele>38.06</ele>
        <time>2021-04-06T12:37:21Z</time>
      </trkpt>
      <trkpt lat="56.85516" lon="-5.08555">
        <ele>38.57</ele>
        <time>2021-04-06T12:37:23Z</time>
      </trkpt>
      <trkpt lat="56.85698" lon="-5.0846">
        <ele>46.52</ele>
        <time>2021-04-06T12:37:26Z</time>
      </trkpt>
      <trkpt lat="56.8577" lon="-5.08362">
        <ele>51.92</ele>
        <time>2021-04-06T12:37:28Z</time>
      </trkpt>
      <trkpt lat="56.85815" lon="-5.08283">
        <ele>50.15</ele>
        <time>2021-04-06T12:37:31Z</time>
      </trkpt>
      <trkpt lat="56.85834" lon="-5.08265">
        <ele>50.56</ele>
        <time>2021-04-06T12:37:33Z</time>
      </trkpt>
      <trkpt lat="56.85848" lon="-5.08241">
        <ele>50.9</ele>
        <time>2021-04-06T12:37:36Z</time>
      </trkpt>
      <trkpt lat="56.85868" lon="-5.08188">
        <ele>51.83</ele>
        <time>2021-04-06T12:37:38Z</time>
      </trkpt>
      <trkpt lat="56.85883" lon="-5.0814">
        <ele>52.42</ele>
        <time>2021-04-06T12:37:41Z</time>
      </trkpt>
      <trkpt lat="56.859" lon="-5.08108">
        <ele>52.07</ele>
        <time>2021-04-06T12:37:43Z</time>
      </trkpt>
      <trkpt lat="56.8594" lon="-5.07982">
        <ele>52.79</ele>
        <time>2021-04-06T12:37:46Z</time>
      </trkpt>
      <trkpt lat="56.85959" lon="-5.07936">
        <ele>52.58</ele>
        <time>2021-04-06T12:37:48Z</time>
      </trkpt>
      <trkpt lat="56.85976" lon="-5.07913">
        <ele>53.17</ele>
        <time>2021-04-06T12:37:51Z</time>
      </trkpt>
      <trkpt lat="56.86005" lon="-5.07886">
        <ele>54.44</ele>
        <time>2021-04-06T12:37:53Z</time>
      </trkpt>
      <trkpt lat="56.8603" lon="-5.07856">
        <ele>55.99</ele>
        <time>2021-04-06T12:37:56Z</time>
      </trkpt>
      <trkpt lat="56.86056" lon="-5.0782">
        <ele>57.68</ele>
        <time>2021-04-06T12:37:58Z</time>
      </trkpt>
      <trkpt lat="56.8609" lon="-5.07734">
        <ele>59.56</ele>
        <time>2021-04-06T12:38:01Z</time>
      </trkpt>
      <trkpt lat="56.86132" lon="-5.07673">
        <ele>60.75</ele>
        <time>2021-04-06T12:38:03Z</time>
      </trkpt>
      <trkpt lat="56.86162" lon="-5.07636">
        <ele>61.06</ele>
        <time>2021-04-06T12:38:06Z</time>
      </trkpt>
      <trkpt lat="56.86214" lon="-5.07584">
        <ele>62.17</ele>
        <time>2021-04-06T12:38:08Z</time>
      </trkpt>
      <trkpt lat="56.86245" lon="-5.07536">
        <ele>61.09</ele>
        <time>2021-04-06T12:38:11Z</time>
      </trkpt>
      <trkpt lat="56.86277" lon="-5.07497">
        <ele>60.79</ele>
        <time>2021-04-06T12:38:13Z</time>
      </trkpt>
      <trkpt lat="56.86321" lon="-5.07456">
        <ele>60.35</ele>
        <time>2021-04-06T12:38:15Z</time>
      </trkpt>
      <trkpt lat="56.86349" lon="-5.07425">
        <ele>59.76</ele>
        <time>2021-04-06T12:38:18Z</time>
      </trkpt>
      <trkpt lat="56.86427" lon="-5.07294">
        <ele>56.15</ele>
        <time>2021-04-06T12:38:20Z</time>
      </trkpt>
      <trkpt lat="56.86477" lon="-5.07247">
        <ele>56.12</ele>
        <time>2021-04-06T12:38:23Z</time>
      </trkpt>
      <trkpt lat="56.86543" lon="-5.07153">
        <ele>53.09</ele>
        <time>2021-04-06T12:38:25Z</time>
      </trkpt>
      <trkpt lat="56.86585" lon="-5.07098">
        <ele>51.07</ele>
        <time>2021-04-06T12:38:28Z</time>
      </trkpt>
      <trkpt lat="56.86639" lon="-5.07075">
        <ele>49.06</ele>
        <time>2021-04-06T12:38:30Z</time>
      </trkpt>
      <trkpt lat="56.86679" lon="-5.07003">
        <ele>46.12</ele>
        <time>2021-04-06T12:38:33Z</time>
      </trkpt>
      <trkpt lat="56.86711" lon="-5.06932">
        <ele>45.88</ele>
        <time>2021-04-06T12:38:35Z</time>
      </trkpt>
      <trkpt lat="56.86757" lon="-5.06875">
        <ele>43</ele>
        <time>2021-04-06T12:38:38Z</time>
      </trkpt>
      <trkpt lat="56.86775" lon="-5.06841">
        <ele>40.66</ele>
        <time>2021-04-06T12:38:40Z</time>
      </trkpt>
      <trkpt lat="56.86787" lon="-5.06813">
        <ele>38.5</ele>
        <time>2021-04-06T12:38:43Z</time>
      </trkpt>
      <trkpt lat="56.86823" lon="-5.06736">
        <ele>35.79</ele>
        <time>2021-04-06T12:38:45Z</time>
      </trkpt>
      <trkpt lat="56.86902" lon="-5.06582">
        <ele>41.44</ele>
        <time>2021-04-06T12:38:48Z</time>
      </trkpt>
      <trkpt lat="56.86932" lon="-5.06519">
        <ele>41.23</ele>
        <time>2021-04-06T12:38:50Z</time>
      </trkpt>
      <trkpt lat="56.86956" lon="-5.06481">
        <ele>41.12</ele>
        <time>2021-04-06T12:38:53Z</time>
      </trkpt>
      <trkpt lat="56.86972" lon="-5.06467">
        <ele>41.62</ele>
        <time>2021-04-06T12:38:55Z</time>
      </trkpt>
      <trkpt lat="56.86994" lon="-5.06458">
        <ele>41.76</ele>
        <time>2021-04-06T12:38:58Z</time>
      </trkpt>
      <trkpt lat="56.87069" lon="-5.06447">
        <ele>50.55</ele>
        <time>2021-04-06T12:39:00Z</time>
      </trkpt>
      <trkpt lat="56.87108" lon="-5.06406">
        <ele>47.37</ele>
        <time>2021-04-06T12:39:03Z</time>
      </trkpt>
      <trkpt lat="56.87118" lon="-5.06383">
        <ele>46.06</ele>
        <time>2021-04-06T12:39:05Z</time>
      </trkpt>
      <trkpt lat="56.87135" lon="-5.06316">
        <ele>45.62</ele>
        <time>2021-04-06T12:39:08Z</time>
      </trkpt>
      <trkpt lat="56.87171" lon="-5.06265">
        <ele>47.67</ele>
        <time>2021-04-06T12:39:10Z</time>
      </trkpt>
      <trkpt lat="56.87236" lon="-5.06218">
        <ele>43.56</ele>
        <time>2021-04-06T12:39:13Z</time>
      </trkpt>
      <trkpt lat="56.8732" lon="-5.06204">
        <ele>46.22</ele>
        <time>2021-04-06T12:39:15Z</time>
      </trkpt>
      <trkpt lat="56.87334" lon="-5.06187">
        <ele>43.98</ele>
        <time>2021-04-06T12:39:17Z</time>
      </trkpt>
      <trkpt lat="56.87346" lon="-5.06157">
        <ele>40.91</ele>
        <time>2021-04-06T12:39:20Z</time>
      </trkpt>
      <trkpt lat="56.87367" lon="-5.06088">
        <ele>40.46</ele>
        <time>2021-04-06T12:39:22Z</time>
      </trkpt>
      <trkpt lat="56.8738" lon="-5.06056">
        <ele>40.38</ele>
        <time>2021-04-06T12:39:25Z</time>
      </trkpt>
      <trkpt lat="56.87424" lon="-5.05961">
        <ele>37.97</ele>
        <time>2021-04-06T12:39:27Z</time>
      </trkpt>
      <trkpt lat="56.87451" lon="-5.05923">
        <ele>38.24</ele>
        <time>2021-04-06T12:39:30Z</time>
      </trkpt>
      <trkpt lat="56.87483" lon="-5.05916">
        <ele>40.69</ele>
        <time>2021-04-06T12:39:32Z</time>
      </trkpt>
      <trkpt lat="56.87522" lon="-5.05875">
        <ele>39.99</ele>
        <time>2021-04-06T12:39:35Z</time>
      </trkpt>
      <trkpt lat="56.8754" lon="-5.05818">
        <ele>38.55</ele>
        <time>2021-04-06T12:39:37Z</time>
      </trkpt>
      <trkpt lat="56.8755" lon="-5.05805">
        <ele>38.56</ele>
        <time>2021-04-06T12:39:40Z</time>
      </trkpt>
      <trkpt lat="56.87567" lon="-5.058">
        <ele>39.33</ele>
        <time>2021-04-06T12:39:42Z</time>
      </trkpt>
      <trkpt lat="56.87589" lon="-5.05802">
        <ele>41.28</ele>
        <time>2021-04-06T12:39:45Z</time>
      </trkpt>
      <trkpt lat="56.87657" lon="-5.05753">
        <ele>45.33</ele>
        <time>2021-04-06T12:39:47Z</time>
      </trkpt>
      <trkpt lat="56.87687" lon="-5.05727">
        <ele>44.94</ele>
        <time>2021-04-06T12:39:50Z</time>
      </trkpt>
      <trkpt lat="56.87724" lon="-5.05658">
        <ele>41.39</ele>
        <time>2021-04-06T12:39:52Z</time>
      </trkpt>
      <trkpt lat="56.87754" lon="-5.05639">
        <ele>43.97</ele>
        <time>2021-04-06T12:39:55Z</time>
      </trkpt>
      <trkpt lat="56.87807" lon="-5.05594">
        <ele>47.4</ele>
        <time>2021-04-06T12:39:57Z</time>
      </trkpt>
      <trkpt lat="56.87872" lon="-5.05532">
        <ele>50.47</ele>
        <time>2021-04-06T12:40:00Z</time>
      </trkpt>
      <trkpt lat="56.87892" lon="-5.05515">
        <ele>50.96</ele>
        <time>2021-04-06T12:40:02Z</time>
      </trkpt>
      <trkpt lat="56.87913" lon="-5.0551">
        <ele>52.64</ele>
        <time>2021-04-06T12:40:05Z</time>
      </trkpt>
      <trkpt lat="56.87944" lon="-5.05507">
        <ele>56.75</ele>
        <time>2021-04-06T12:40:07Z</time>
      </trkpt>
      <trkpt lat="56.87964" lon="-5.05493">
        <ele>56.96</ele>
        <time>2021-04-06T12:40:10Z</time>
      </trkpt>
      <trkpt lat="56.88044" lon="-5.05413">
        <ele>49.81</ele>
        <time>2021-04-06T12:40:12Z</time>
      </trkpt>
      <trkpt lat="56.88069" lon="-5.05382">
        <ele>49.01</ele>
        <time>2021-04-06T12:40:15Z</time>
      </trkpt>
      <trkpt lat="56.88147" lon="-5.05229">
        <ele>48.56</ele>
        <time>2021-04-06T12:40:17Z</time>
      </trkpt>
      <trkpt lat="56.88183" lon="-5.05165">
        <ele>49.43</ele>
        <time>2021-04-06T12:40:19Z</time>
      </trkpt>
      <trkpt lat="56.88216" lon="-5.05075">
        <ele>51.62</ele>
        <time>2021-04-06T12:40:22Z</time>
      </trkpt>
      <trkpt lat="56.88243" lon="-5.05039">
        <ele>53.06</ele>
        <time>2021-04-06T12:40:24Z</time>
      </trkpt>
      <trkpt lat="56.88293" lon="-5.05004">
        <ele>56.29</ele>
        <time>2021-04-06T12:40:27Z</time>
      </trkpt>
      <trkpt lat="56.88317" lon="-5.04975">
        <ele>56.78</ele>
        <time>2021-04-06T12:40:29Z</time>
      </trkpt>
      <trkpt lat="56.88346" lon="-5.04924">
        <ele>57.23</ele>
        <time>2021-04-06T12:40:32Z</time>
      </trkpt>
      <trkpt lat="56.8838" lon="-5.0485">
        <ele>56.26</ele>
        <time>2021-04-06T12:40:34Z</time>
      </trkpt>
      <trkpt lat="56.88411" lon="-5.04764">
        <ele>53.55</ele>
        <time>2021-04-06T12:40:37Z</time>
      </trkpt>
      <trkpt lat="56.88445" lon="-5.04643">
        <ele>51.42</ele>
        <time>2021-04-06T12:40:39Z</time>
      </trkpt>
      <trkpt lat="56.88453" lon="-5.04598">
        <ele>49.34</ele>
        <time>2021-04-06T12:40:42Z</time>
      </trkpt>
      <trkpt lat="56.88462" lon="-5.04553">
        <ele>49.8</ele>
        <time>2021-04-06T12:40:44Z</time>
      </trkpt>
      <trkpt lat="56.88481" lon="-5.04501">
        <ele>50.6</ele>
        <time>2021-04-06T12:40:47Z</time>
      </trkpt>
      <trkpt lat="56.88588" lon="-5.04388">
        <ele>48.4</ele>
        <time>2021-04-06T12:40:49Z</time>
      </trkpt>
      <trkpt lat="56.88614" lon="-5.04354">
        <ele>50.17</ele>
        <time>2021-04-06T12:40:52Z</time>
      </trkpt>
      <trkpt lat="56.88662" lon="-5.04331">
        <ele>52.26</ele>
        <time>2021-04-06T12:40:54Z</time>
      </trkpt>
      <trkpt lat="56.88698" lon="-5.04299">
        <ele>52.3</ele>
        <time>2021-04-06T12:40:57Z</time>
      </trkpt>
      <trkpt lat="56.88718" lon="-5.04287">
        <ele>52.08</ele>
        <time>2021-04-06T12:40:59Z</time>
      </trkpt>
      <trkpt lat="56.88786" lon="-5.04268">
        <ele>49.24</ele>
        <time>2021-04-06T12:41:02Z</time>
      </trkpt>
      <trkpt lat="56.88808" lon="-5.04266">
        <ele>47.89</ele>
        <time>2021-04-06T12:41:04Z</time>
      </trkpt>
      <trkpt lat="56.88822" lon="-5.04272">
        <ele>46.28</ele>
        <time>2021-04-06T12:41:07Z</time>
      </trkpt>
      <trkpt lat="56.88874" lon="-5.04334">
        <ele>42.36</ele>
        <time>2021-04-06T12:41:09Z</time>
      </trkpt>
      <trkpt lat="56.88901" lon="-5.04361">
        <ele>40.27</ele>
        <time>2021-04-06T12:41:12Z</time>
      </trkpt>
      <trkpt lat="56.88921" lon="-5.04367">
        <ele>37.9</ele>
        <time>2021-04-06T12:41:14Z</time>
      </trkpt>
      <trkpt lat="56.88934" lon="-5.04355">
        <ele>35.68</ele>
        <time>2021-04-06T12:41:17Z</time>
      </trkpt>
      <trkpt lat="56.88966" lon="-5.0431">
        <ele>30.43</ele>
        <time>2021-04-06T12:41:19Z</time>
      </trkpt>
      <trkpt lat="56.89042" lon="-5.04188">
        <ele>24.4</ele>
        <time>2021-04-06T12:41:21Z</time>
      </trkpt>
      <trkpt lat="56.89089" lon="-5.0414">
        <ele>24</ele>
        <time>2021-04-06T12:41:24Z</time>
      </trkpt>
      <trkpt lat="56.89145" lon="-5.04075">
        <ele>24.51</ele>
        <time>2021-04-06T12:41:26Z</time>
      </trkpt>
      <trkpt lat="56.89174" lon="-5.0402">
        <ele>26</ele>
        <time>2021-04-06T12:41:29Z</time>
      </trkpt>
      <trkpt lat="56.89247" lon="-5.0385">
        <ele>31.24</ele>
        <time>2021-04-06T12:41:31Z</time>
      </trkpt>
      <trkpt lat="56.89261" lon="-5.03805">
        <ele>32.12</ele>
        <time>2021-04-06T12:41:34Z</time>
      </trkpt>
      <trkpt lat="56.89299" lon="-5.03648">
        <ele>35.1</ele>
        <time>2021-04-06T12:41:36Z</time>
      </trkpt>
      <trkpt lat="56.8931" lon="-5.03597">
        <ele>35.86</ele>
        <time>2021-04-06T12:41:39Z</time>
      </trkpt>
      <trkpt lat="56.8932" lon="-5.03538">
        <ele>36.01</ele>
        <time>2021-04-06T12:41:41Z</time>
      </trkpt>
      <trkpt lat="56.89328" lon="-5.03455">
        <ele>34.43</ele>
        <time>2021-04-06T12:41:44Z</time>
      </trkpt>
      <trkpt lat="56.8934" lon="-5.03416">
        <ele>35.09</ele>
        <time>2021-04-06T12:41:46Z</time>
      </trkpt>
      <trkpt lat="56.89358" lon="-5.0338">
        <ele>37.13</ele>
        <time>2021-04-06T12:41:49Z</time>
      </trkpt>
      <trkpt lat="56.894" lon="-5.03324">
        <ele>42.43</ele>
        <time>2021-04-06T12:41:51Z</time>
      </trkpt>
      <trkpt lat="56.89424" lon="-5.03258">
        <ele>40.54</ele>
        <time>2021-04-06T12:41:54Z</time>
      </trkpt>
      <trkpt lat="56.89432" lon="-5.03222">
        <ele>38.86</ele>
        <time>2021-04-06T12:41:56Z</time>
      </trkpt>
      <trkpt lat="56.89441" lon="-5.03198">
        <ele>39.47</ele>
        <time>2021-04-06T12:41:59Z</time>
      </trkpt>
      <trkpt lat="56.89457" lon="-5.03172">
        <ele>40.33</ele>
        <time>2021-04-06T12:42:01Z</time>
      </trkpt>
      <trkpt lat="56.89512" lon="-5.03132">
        <ele>42.71</ele>
        <time>2021-04-06T12:42:04Z</time>
      </trkpt>
      <trkpt lat="56.89552" lon="-5.03091">
        <ele>43.38</ele>
        <time>2021-04-06T12:42:06Z</time>
      </trkpt>
      <trkpt lat="56.89639" lon="-5.0297">
        <ele>42.78</ele>
        <time>2021-04-06T12:42:09Z</time>
      </trkpt>
      <trkpt lat="56.89653" lon="-5.02958">
        <ele>43.07</ele>
        <time>2021-04-06T12:42:11Z</time>
      </trkpt>
      <trkpt lat="56.89686" lon="-5.02948">
        <ele>44.24</ele>
        <time>2021-04-06T12:42:14Z</time>
      </trkpt>
      <trkpt lat="56.89726" lon="-5.0293">
        <ele>44.35</ele>
        <time>2021-04-06T12:42:16Z</time>
      </trkpt>
      <trkpt lat="56.89742" lon="-5.02913">
        <ele>44.32</ele>
        <time>2021-04-06T12:42:19Z</time>
      </trkpt>
      <trkpt lat="56.89757" lon="-5.0289">
        <ele>44.28</ele>
        <time>2021-04-06T12:42:21Z</time>
      </trkpt>
      <trkpt lat="56.898" lon="-5.0281">
        <ele>45.5</ele>
        <time>2021-04-06T12:42:23Z</time>
      </trkpt>
      <trkpt lat="56.89882" lon="-5.02694">
        <ele>48.06</ele>
        <time>2021-04-06T12:42:26Z</time>
      </trkpt>
      <trkpt lat="56.89898" lon="-5.0266">
        <ele>48.11</ele>
        <time>2021-04-06T12:42:28Z</time>
      </trkpt>
      <trkpt lat="56.89919" lon="-5.02606">
        <ele>50.11</ele>
        <time>2021-04-06T12:42:31Z</time>
      </trkpt>
      <trkpt lat="56.89938" lon="-5.02488">
        <ele>48.81</ele>
        <time>2021-04-06T12:42:33Z</time>
      </trkpt>
      <trkpt lat="56.89963" lon="-5.02387">
        <ele>49.57</ele>
        <time>2021-04-06T12:42:36Z</time>
      </trkpt>
      <trkpt lat="56.89984" lon="-5.02336">
        <ele>49.56</ele>
        <time>2021-04-06T12:42:38Z</time>
      </trkpt>
      <trkpt lat="56.90007" lon="-5.02287">
        <ele>50.08</ele>
        <time>2021-04-06T12:42:41Z</time>
      </trkpt>
      <trkpt lat="56.90021" lon="-5.02238">
        <ele>49.54</ele>
        <time>2021-04-06T12:42:43Z</time>
      </trkpt>
      <trkpt lat="56.90042" lon="-5.02179">
        <ele>47.13</ele>
        <time>2021-04-06T12:42:46Z</time>
      </trkpt>
      <trkpt lat="56.90061" lon="-5.02144">
        <ele>46.96</ele>
        <time>2021-04-06T12:42:48Z</time>
      </trkpt>
      <trkpt lat="56.90067" lon="-5.02107">
        <ele>46.63</ele>
        <time>2021-04-06T12:42:51Z</time>
      </trkpt>
      <trkpt lat="56.90068" lon="-5.02051">
        <ele>45.29</ele>
        <time>2021-04-06T12:42:53Z</time>
      </trkpt>
      <trkpt lat="56.90072" lon="-5.02013">
        <ele>45.24</ele>
        <time>2021-04-06T12:42:56Z</time>
      </trkpt>
      <trkpt lat="56.90077" lon="-5.01998">
        <ele>45.22</ele>
        <time>2021-04-06T12:42:58Z</time>
      </trkpt>
      <trkpt lat="56.90084" lon="-5.01986">
        <ele>44.97</ele>
        <time>2021-04-06T12:43:01Z</time>
      </trkpt>
      <trkpt lat="56.90106" lon="-5.01953">
        <ele>43.4</ele>
        <time>2021-04-06T12:43:03Z</time>
      </trkpt>
      <trkpt lat="56.90134" lon="-5.01934">
        <ele>43.07</ele>
        <time>2021-04-06T12:43:06Z</time>
      </trkpt>
      <trkpt lat="56.90155" lon="-5.01927">
        <ele>43.33</ele>
        <time>2021-04-06T12:43:08Z</time>
      </trkpt>
      <trkpt lat="56.90168" lon="-5.01917">
        <ele>43.07</ele>
        <time>2021-04-06T12:43:11Z</time>
      </trkpt>
      <trkpt lat="56.90172" lon="-5.0191">
        <ele>42.7</ele>
        <time>2021-04-06T12:43:13Z</time>
      </trkpt>
      <trkpt lat="56.90177" lon="-5.01894">
        <ele>42.27</ele>
        <time>2021-04-06T12:43:16Z</time>
      </trkpt>
      <trkpt lat="56.9018" lon="-5.01863">
        <ele>41.48</ele>
        <time>2021-04-06T12:43:18Z</time>
      </trkpt>
      <trkpt lat="56.90181" lon="-5.01792">
        <ele>43.96</ele>
        <time>2021-04-06T12:43:21Z</time>
      </trkpt>
      <trkpt lat="56.90185" lon="-5.01766">
        <ele>45</ele>
        <time>2021-04-06T12:43:23Z</time>
      </trkpt>
      <trkpt lat="56.90195" lon="-5.0174">
        <ele>45.03</ele>
        <time>2021-04-06T12:43:25Z</time>
      </trkpt>
      <trkpt lat="56.90207" lon="-5.01722">
        <ele>45.43</ele>
        <time>2021-04-06T12:43:28Z</time>
      </trkpt>
      <trkpt lat="56.9022" lon="-5.01707">
        <ele>45.86</ele>
        <time>2021-04-06T12:43:30Z</time>
      </trkpt>
      <trkpt lat="56.90239" lon="-5.01693">
        <ele>45.94</ele>
        <time>2021-04-06T12:43:33Z</time>
      </trkpt>
      <trkpt lat="56.9038" lon="-5.01621">
        <ele>49.38</ele>
        <time>2021-04-06T12:43:35Z</time>
      </trkpt>
      <trkpt lat="56.90401" lon="-5.01598">
        <ele>48.93</ele>
        <time>2021-04-06T12:43:38Z</time>
      </trkpt>
      <trkpt lat="56.90418" lon="-5.01552">
        <ele>47.06</ele>
        <time>2021-04-06T12:43:40Z</time>
      </trkpt>
      <trkpt lat="56.90424" lon="-5.01524">
        <ele>46.94</ele>
        <time>2021-04-06T12:43:43Z</time>
      </trkpt>
      <trkpt lat="56.90442" lon="-5.01474">
        <ele>45.83</ele>
        <time>2021-04-06T12:43:45Z</time>
      </trkpt>
      <trkpt lat="56.9045" lon="-5.01459">
        <ele>45.44</ele>
        <time>2021-04-06T12:43:48Z</time>
      </trkpt>
      <trkpt lat="56.90461" lon="-5.01446">
        <ele>45.64</ele>
        <time>2021-04-06T12:43:50Z</time>
      </trkpt>
      <trkpt lat="56.90473" lon="-5.01449">
        <ele>47.55</ele>
        <time>2021-04-06T12:43:53Z</time>
      </trkpt>
      <trkpt lat="56.90494" lon="-5.0146">
        <ele>51.74</ele>
        <time>2021-04-06T12:43:55Z</time>
      </trkpt>
      <trkpt lat="56.90511" lon="-5.0146">
        <ele>53.64</ele>
        <time>2021-04-06T12:43:58Z</time>
      </trkpt>
      <trkpt lat="56.90522" lon="-5.0145">
        <ele>53.37</ele>
        <time>2021-04-06T12:44:00Z</time>
      </trkpt>
      <trkpt lat="56.90534" lon="-5.01432">
        <ele>52.58</ele>
        <time>2021-04-06T12:44:03Z</time>
      </trkpt>
      <trkpt lat="56.90556" lon="-5.01386">
        <ele>49.76</ele>
        <time>2021-04-06T12:44:05Z</time>
      </trkpt>
      <trkpt lat="56.90583" lon="-5.01336">
        <ele>51.15</ele>
        <time>2021-04-06T12:44:08Z</time>
      </trkpt>
      <trkpt lat="56.90594" lon="-5.01307">
        <ele>52.43</ele>
        <time>2021-04-06T12:44:10Z</time>
      </trkpt>
      <trkpt lat="56.90597" lon="-5.01285">
        <ele>51.4</ele>
        <time>2021-04-06T12:44:13Z</time>
      </trkpt>
      <trkpt lat="56.90597" lon="-5.01217">
        <ele>48.31</ele>
        <time>2021-04-06T12:44:15Z</time>
      </trkpt>
      <trkpt lat="56.906" lon="-5.01182">
        <ele>47.58</ele>
        <time>2021-04-06T12:44:18Z</time>
      </trkpt>
      <trkpt lat="56.90606" lon="-5.01152">
        <ele>47.19</ele>
        <time>2021-04-06T12:44:20Z</time>
      </trkpt>
      <trkpt lat="56.90613" lon="-5.01135">
        <ele>47.11</ele>
        <time>2021-04-06T12:44:23Z</time>
      </trkpt>
      <trkpt lat="56.90625" lon="-5.01116">
        <ele>47.86</ele>
        <time>2021-04-06T12:44:25Z</time>
      </trkpt>
      <trkpt lat="56.90668" lon="-5.01087">
        <ele>51.84</ele>
        <time>2021-04-06T12:44:27Z</time>
      </trkpt>
      <trkpt lat="56.90682" lon="-5.01065">
        <ele>51.08</ele>
        <time>2021-04-06T12:44:30Z</time>
      </trkpt>
      <trkpt lat="56.90777" lon="-5.00879">
        <ele>46.2</ele>
        <time>2021-04-06T12:44:32Z</time>
      </trkpt>
      <trkpt lat="56.90789" lon="-5.00839">
        <ele>45.23</ele>
        <time>2021-04-06T12:44:35Z</time>
      </trkpt>
      <trkpt lat="56.90802" lon="-5.00818">
        <ele>45.4</ele>
        <time>2021-04-06T12:44:37Z</time>
      </trkpt>
      <trkpt lat="56.90877" lon="-5.00723">
        <ele>50.83</ele>
        <time>2021-04-06T12:44:40Z</time>
      </trkpt>
      <trkpt lat="56.90909" lon="-5.00628">
        <ele>48.94</ele>
        <time>2021-04-06T12:44:42Z</time>
      </trkpt>
      <trkpt lat="56.90919" lon="-5.00607">
        <ele>48.97</ele>
        <time>2021-04-06T12:44:45Z</time>
      </trkpt>
      <trkpt lat="56.90949" lon="-5.00585">
        <ele>51.73</ele>
        <time>2021-04-06T12:44:47Z</time>
      </trkpt>
      <trkpt lat="56.90973" lon="-5.0057">
        <ele>53.18</ele>
        <time>2021-04-06T12:44:50Z</time>
      </trkpt>
      <trkpt lat="56.90995" lon="-5.00532">
        <ele>51.73</ele>
        <time>2021-04-06T12:44:52Z</time>
      </trkpt>
      <trkpt lat="56.91024" lon="-5.00515">
        <ele>53.73</ele>
        <time>2021-04-06T12:44:55Z</time>
      </trkpt>
      <trkpt lat="56.91057" lon="-5.00503">
        <ele>56.71</ele>
        <time>2021-04-06T12:44:57Z</time>
      </trkpt>
      <trkpt lat="56.91079" lon="-5.00474">
        <ele>57.28</ele>
        <time>2021-04-06T12:45:00Z</time>
      </trkpt>
      <trkpt lat="56.91092" lon="-5.00438">
        <ele>56.2</ele>
        <time>2021-04-06T12:45:02Z</time>
      </trkpt>
      <trkpt lat="56.91143" lon="-5.00363">
        <ele>60.04</ele>
        <time>2021-04-06T12:45:05Z</time>
      </trkpt>
      <trkpt lat="56.91202" lon="-5.0021">
        <ele>54.83</ele>
        <time>2021-04-06T12:45:07Z</time>
      </trkpt>
      <trkpt lat="56.91234" lon="-5.00152">
        <ele>57.08</ele>
        <time>2021-04-06T12:45:10Z</time>
      </trkpt>
      <trkpt lat="56.91234" lon="-5.00152">
        <ele>57.08</ele>
        <time>2021-04-06T12:45:10Z</time>
      </trkpt>
      <trkpt lat="56.91234" lon="-5.00152">
        <ele>57.8</ele>
        <time>2021-04-06T12:45:10Z</time>
      </trkpt>
      <trkpt lat="56.91246" lon="-5.00102">
        <ele>53.42</ele>
        <time>2021-04-06T12:45:12Z</time>
      </trkpt>
      <trkpt lat="56.9129" lon="-4.9997">
        <ele>42.48</ele>
        <time>2021-04-06T12:45:15Z</time>
      </trkpt>
      <trkpt lat="56.91331" lon="-4.99815">
        <ele>31.34</ele>
        <time>2021-04-06T12:45:18Z</time>
      </trkpt>
      <trkpt lat="56.9133" lon="-4.99804">
        <ele>30.54</ele>
        <time>2021-04-06T12:45:20Z</time>
      </trkpt>
      <trkpt lat="56.91321" lon="-4.99773">
        <ele>28.11</ele>
        <time>2021-04-06T12:45:23Z</time>
      </trkpt>
      <trkpt lat="56.9129" lon="-4.99703">
        <ele>28</ele>
        <time>2021-04-06T12:45:26Z</time>
      </trkpt>
      <trkpt lat="56.91301" lon="-4.99653">
        <ele>28.17</ele>
        <time>2021-04-06T12:45:28Z</time>
      </trkpt>
      <trkpt lat="56.913" lon="-4.99626">
        <ele>28.67</ele>
        <time>2021-04-06T12:45:31Z</time>
      </trkpt>
      <trkpt lat="56.91295" lon="-4.99607">
        <ele>29.38</ele>
        <time>2021-04-06T12:45:34Z</time>
      </trkpt>
      <trkpt lat="56.91291" lon="-4.99601">
        <ele>29.52</ele>
        <time>2021-04-06T12:45:36Z</time>
      </trkpt>
      <trkpt lat="56.91285" lon="-4.99598">
        <ele>29.72</ele>
        <time>2021-04-06T12:45:39Z</time>
      </trkpt>
      <trkpt lat="56.9128" lon="-4.99598">
        <ele>29.93</ele>
        <time>2021-04-06T12:45:41Z</time>
      </trkpt>
      <trkpt lat="56.91215" lon="-4.99634">
        <ele>27.84</ele>
        <time>2021-04-06T12:45:44Z</time>
      </trkpt>
      <trkpt lat="56.91207" lon="-4.99641">
        <ele>27.43</ele>
        <time>2021-04-06T12:45:47Z</time>
      </trkpt>
      <trkpt lat="56.91183" lon="-4.99676">
        <ele>27.33</ele>
        <time>2021-04-06T12:45:49Z</time>
      </trkpt>
      <trkpt lat="56.91176" lon="-4.99683">
        <ele>27.59</ele>
        <time>2021-04-06T12:45:52Z</time>
      </trkpt>
      <trkpt lat="56.91163" lon="-4.99689">
        <ele>27.8</ele>
        <time>2021-04-06T12:45:55Z</time>
      </trkpt>
      <trkpt lat="56.91151" lon="-4.99688">
        <ele>27.78</ele>
        <time>2021-04-06T12:45:57Z</time>
      </trkpt>
      <trkpt lat="56.91138" lon="-4.99678">
        <ele>27.37</ele>
        <time>2021-04-06T12:46:00Z</time>
      </trkpt>
      <trkpt lat="56.9112" lon="-4.99653">
        <ele>26.15</ele>
        <time>2021-04-06T12:46:03Z</time>
      </trkpt>
      <trkpt lat="56.91111" lon="-4.9963">
        <ele>25.67</ele>
        <time>2021-04-06T12:46:05Z</time>
      </trkpt>
      <trkpt lat="56.91102" lon="-4.99564">
        <ele>25.24</ele>
        <time>2021-04-06T12:46:08Z</time>
      </trkpt>
      <trkpt lat="56.91096" lon="-4.99496">
        <ele>26</ele>
        <time>2021-04-06T12:46:10Z</time>
      </trkpt>
      <trkpt lat="56.91093" lon="-4.99443">
        <ele>26</ele>
        <time>2021-04-06T12:46:13Z</time>
      </trkpt>
      <trkpt lat="56.91091" lon="-4.9931">
        <ele>26</ele>
        <time>2021-04-06T12:46:16Z</time>
      </trkpt>
      <trkpt lat="56.9108" lon="-4.99216">
        <ele>26</ele>
        <time>2021-04-06T12:46:18Z</time>
      </trkpt>
      <trkpt lat="56.91073" lon="-4.991">
        <ele>25.36</ele>
        <time>2021-04-06T12:46:21Z</time>
      </trkpt>
      <trkpt lat="56.91062" lon="-4.98957">
        <ele>28.53</ele>
        <time>2021-04-06T12:46:24Z</time>
      </trkpt>
      <trkpt lat="56.91029" lon="-4.98721">
        <ele>30.03</ele>
        <time>2021-04-06T12:46:26Z</time>
      </trkpt>
      <trkpt lat="56.91022" lon="-4.98621">
        <ele>31.07</ele>
        <time>2021-04-06T12:46:29Z</time>
      </trkpt>
      <trkpt lat="56.91017" lon="-4.98604">
        <ele>31</ele>
        <time>2021-04-06T12:46:32Z</time>
      </trkpt>
      <trkpt lat="56.91" lon="-4.98562">
        <ele>30.23</ele>
        <time>2021-04-06T12:46:34Z</time>
      </trkpt>
      <trkpt lat="56.90995" lon="-4.98543">
        <ele>30.25</ele>
        <time>2021-04-06T12:46:37Z</time>
      </trkpt>
      <trkpt lat="56.91007" lon="-4.98443">
        <ele>33.08</ele>
        <time>2021-04-06T12:46:40Z</time>
      </trkpt>
      <trkpt lat="56.91001" lon="-4.98419">
        <ele>33.88</ele>
        <time>2021-04-06T12:46:42Z</time>
      </trkpt>
      <trkpt lat="56.9099" lon="-4.98365">
        <ele>35.11</ele>
        <time>2021-04-06T12:46:45Z</time>
      </trkpt>
      <trkpt lat="56.90967" lon="-4.98216">
        <ele>39.72</ele>
        <time>2021-04-06T12:46:47Z</time>
      </trkpt>
      <trkpt lat="56.90936" lon="-4.98078">
        <ele>45.88</ele>
        <time>2021-04-06T12:46:50Z</time>
      </trkpt>
      <trkpt lat="56.90909" lon="-4.97971">
        <ele>50.79</ele>
        <time>2021-04-06T12:46:53Z</time>
      </trkpt>
      <trkpt lat="56.90893" lon="-4.97916">
        <ele>55.02</ele>
        <time>2021-04-06T12:46:55Z</time>
      </trkpt>
      <trkpt lat="56.90856" lon="-4.97832">
        <ele>58.46</ele>
        <time>2021-04-06T12:46:58Z</time>
      </trkpt>
      <trkpt lat="56.90801" lon="-4.97703">
        <ele>65.42</ele>
        <time>2021-04-06T12:47:01Z</time>
      </trkpt>
      <trkpt lat="56.90766" lon="-4.97604">
        <ele>67.78</ele>
        <time>2021-04-06T12:47:03Z</time>
      </trkpt>
      <trkpt lat="56.90729" lon="-4.97539">
        <ele>70.78</ele>
        <time>2021-04-06T12:47:06Z</time>
      </trkpt>
      <trkpt lat="56.90708" lon="-4.97494">
        <ele>72.39</ele>
        <time>2021-04-06T12:47:09Z</time>
      </trkpt>
      <trkpt lat="56.90685" lon="-4.97328">
        <ele>80.67</ele>
        <time>2021-04-06T12:47:11Z</time>
      </trkpt>
      <trkpt lat="56.90676" lon="-4.97277">
        <ele>83.03</ele>
        <time>2021-04-06T12:47:14Z</time>
      </trkpt>
      <trkpt lat="56.90643" lon="-4.97162">
        <ele>87.43</ele>
        <time>2021-04-06T12:47:16Z</time>
      </trkpt>
      <trkpt lat="56.90629" lon="-4.97099">
        <ele>90.03</ele>
        <time>2021-04-06T12:47:19Z</time>
      </trkpt>
      <trkpt lat="56.90619" lon="-4.97038">
        <ele>92.89</ele>
        <time>2021-04-06T12:47:22Z</time>
      </trkpt>
      <trkpt lat="56.90614" lon="-4.96887">
        <ele>99.65</ele>
        <time>2021-04-06T12:47:24Z</time>
      </trkpt>
      <trkpt lat="56.90607" lon="-4.96812">
        <ele>101.36</ele>
        <time>2021-04-06T12:47:27Z</time>
      </trkpt>
      <trkpt lat="56.90597" lon="-4.96763">
        <ele>101.91</ele>
        <time>2021-04-06T12:47:30Z</time>
      </trkpt>
      <trkpt lat="56.90569" lon="-4.96689">
        <ele>99.21</ele>
        <time>2021-04-06T12:47:32Z</time>
      </trkpt>
      <trkpt lat="56.90523" lon="-4.96475">
        <ele>103.6</ele>
        <time>2021-04-06T12:47:35Z</time>
      </trkpt>
      <trkpt lat="56.90494" lon="-4.96319">
        <ele>106.45</ele>
        <time>2021-04-06T12:47:38Z</time>
      </trkpt>
      <trkpt lat="56.90481" lon="-4.96201">
        <ele>107.07</ele>
        <time>2021-04-06T12:47:40Z</time>
      </trkpt>
      <trkpt lat="56.90471" lon="-4.96144">
        <ele>106.8</ele>
        <time>2021-04-06T12:47:43Z</time>
      </trkpt>
      <trkpt lat="56.9047" lon="-4.96052">
        <ele>109.68</ele>
        <time>2021-04-06T12:47:46Z</time>
      </trkpt>
      <trkpt lat="56.90465" lon="-4.96027">
        <ele>110.29</ele>
        <time>2021-04-06T12:47:48Z</time>
      </trkpt>
      <trkpt lat="56.90445" lon="-4.95999">
        <ele>109.15</ele>
        <time>2021-04-06T12:47:51Z</time>
      </trkpt>
      <trkpt lat="56.90419" lon="-4.95981">
        <ele>105.48</ele>
        <time>2021-04-06T12:47:53Z</time>
      </trkpt>
      <trkpt lat="56.9039" lon="-4.95917">
        <ele>106.22</ele>
        <time>2021-04-06T12:47:56Z</time>
      </trkpt>
      <trkpt lat="56.90349" lon="-4.95803">
        <ele>104.1</ele>
        <time>2021-04-06T12:47:59Z</time>
      </trkpt>
      <trkpt lat="56.9033" lon="-4.95734">
        <ele>104.51</ele>
        <time>2021-04-06T12:48:01Z</time>
      </trkpt>
      <trkpt lat="56.90246" lon="-4.9558">
        <ele>105.26</ele>
        <time>2021-04-06T12:48:04Z</time>
      </trkpt>
      <trkpt lat="56.90222" lon="-4.9552">
        <ele>102.19</ele>
        <time>2021-04-06T12:48:07Z</time>
      </trkpt>
      <trkpt lat="56.90161" lon="-4.95385">
        <ele>104.63</ele>
        <time>2021-04-06T12:48:09Z</time>
      </trkpt>
      <trkpt lat="56.90111" lon="-4.95263">
        <ele>106.02</ele>
        <time>2021-04-06T12:48:12Z</time>
      </trkpt>
      <trkpt lat="56.8999" lon="-4.94985">
        <ele>111.33</ele>
        <time>2021-04-06T12:48:15Z</time>
      </trkpt>
      <trkpt lat="56.89942" lon="-4.94868">
        <ele>114.25</ele>
        <time>2021-04-06T12:48:17Z</time>
      </trkpt>
      <trkpt lat="56.89862" lon="-4.94652">
        <ele>116</ele>
        <time>2021-04-06T12:48:20Z</time>
      </trkpt>
      <trkpt lat="56.89852" lon="-4.94602">
        <ele>116.79</ele>
        <time>2021-04-06T12:48:22Z</time>
      </trkpt>
      <trkpt lat="56.89854" lon="-4.9455">
        <ele>118.21</ele>
        <time>2021-04-06T12:48:25Z</time>
      </trkpt>
      <trkpt lat="56.89858" lon="-4.94529">
        <ele>118.96</ele>
        <time>2021-04-06T12:48:28Z</time>
      </trkpt>
      <trkpt lat="56.89867" lon="-4.94498">
        <ele>121.07</ele>
        <time>2021-04-06T12:48:30Z</time>
      </trkpt>
      <trkpt lat="56.89888" lon="-4.94455">
        <ele>122.63</ele>
        <time>2021-04-06T12:48:33Z</time>
      </trkpt>
      <trkpt lat="56.89907" lon="-4.94387">
        <ele>124.97</ele>
        <time>2021-04-06T12:48:36Z</time>
      </trkpt>
      <trkpt lat="56.89907" lon="-4.94387">
        <ele>124.97</ele>
        <time>2021-04-06T12:48:36Z</time>
      </trkpt>
      <trkpt lat="56.89907" lon="-4.94387">
        <ele>126.06</ele>
        <time>2021-04-06T12:48:36Z</time>
      </trkpt>
      <trkpt lat="56.89916" lon="-4.94376">
        <ele>126.45</ele>
        <time>2021-04-06T12:48:36Z</time>
      </trkpt>
      <trkpt lat="56.89926" lon="-4.94373">
        <ele>126.57</ele>
        <time>2021-04-06T12:48:37Z</time>
      </trkpt>
      <trkpt lat="56.8997" lon="-4.9439">
        <ele>125.96</ele>
        <time>2021-04-06T12:48:44Z</time>
      </trkpt>
      <trkpt lat="56.90042" lon="-4.94413">
        <ele>124.82</ele>
        <time>2021-04-06T12:48:51Z</time>
      </trkpt>
      <trkpt lat="56.9014" lon="-4.94437">
        <ele>123.24</ele>
        <time>2021-04-06T12:48:58Z</time>
      </trkpt>
      <trkpt lat="56.90254" lon="-4.94446">
        <ele>123.99</ele>
        <time>2021-04-06T12:49:05Z</time>
      </trkpt>
      <trkpt lat="56.90397" lon="-4.94447">
        <ele>123.48</ele>
        <time>2021-04-06T12:49:12Z</time>
      </trkpt>
      <trkpt lat="56.90623" lon="-4.94441">
        <ele>126.58</ele>
        <time>2021-04-06T12:49:19Z</time>
      </trkpt>
      <trkpt lat="56.90697" lon="-4.94444">
        <ele>123.81</ele>
        <time>2021-04-06T12:49:26Z</time>
      </trkpt>
      <trkpt lat="56.90776" lon="-4.94455">
        <ele>121.04</ele>
        <time>2021-04-06T12:49:33Z</time>
      </trkpt>
      <trkpt lat="56.90938" lon="-4.94488">
        <ele>122.1</ele>
        <time>2021-04-06T12:49:40Z</time>
      </trkpt>
      <trkpt lat="56.91058" lon="-4.94528">
        <ele>119.93</ele>
        <time>2021-04-06T12:49:47Z</time>
      </trkpt>
      <trkpt lat="56.91222" lon="-4.94592">
        <ele>116.67</ele>
        <time>2021-04-06T12:49:54Z</time>
      </trkpt>
      <trkpt lat="56.91303" lon="-4.94615">
        <ele>113.97</ele>
        <time>2021-04-06T12:50:01Z</time>
      </trkpt>
      <trkpt lat="56.91367" lon="-4.94615">
        <ele>112.65</ele>
        <time>2021-04-06T12:50:08Z</time>
      </trkpt>
      <trkpt lat="56.9147" lon="-4.94602">
        <ele>110.36</ele>
        <time>2021-04-06T12:50:15Z</time>
      </trkpt>
      <trkpt lat="56.91604" lon="-4.94591">
        <ele>108.99</ele>
        <time>2021-04-06T12:50:22Z</time>
      </trkpt>
      <trkpt lat="56.91692" lon="-4.94567">
        <ele>110.2</ele>
        <time>2021-04-06T12:50:29Z</time>
      </trkpt>
      <trkpt lat="56.92105" lon="-4.94399">
        <ele>112.3</ele>
        <time>2021-04-06T12:50:36Z</time>
      </trkpt>
      <trkpt lat="56.92105" lon="-4.94399">
        <ele>112.3</ele>
        <time>2021-04-06T12:50:36Z</time>
      </trkpt>
      <trkpt lat="56.92169" lon="-4.94367">
        <ele>111.17</ele>
        <time>2021-04-06T12:50:41Z</time>
      </trkpt>
      <trkpt lat="56.92193" lon="-4.94349">
        <ele>110.99</ele>
        <time>2021-04-06T12:50:45Z</time>
      </trkpt>
      <trkpt lat="56.92214" lon="-4.9433">
        <ele>111.57</ele>
        <time>2021-04-06T12:50:49Z</time>
      </trkpt>
      <trkpt lat="56.92257" lon="-4.94282">
        <ele>112.58</ele>
        <time>2021-04-06T12:50:54Z</time>
      </trkpt>
      <trkpt lat="56.92436" lon="-4.94062">
        <ele>116.68</ele>
        <time>2021-04-06T12:50:58Z</time>
      </trkpt>
      <trkpt lat="56.92507" lon="-4.93991">
        <ele>118.66</ele>
        <time>2021-04-06T12:51:02Z</time>
      </trkpt>
      <trkpt lat="56.92574" lon="-4.9391">
        <ele>116.86</ele>
        <time>2021-04-06T12:51:07Z</time>
      </trkpt>
      <trkpt lat="56.92793" lon="-4.93598">
        <ele>118.45</ele>
        <time>2021-04-06T12:51:11Z</time>
      </trkpt>
      <trkpt lat="56.92871" lon="-4.93478">
        <ele>115.78</ele>
        <time>2021-04-06T12:51:15Z</time>
      </trkpt>
      <trkpt lat="56.93084" lon="-4.93062">
        <ele>110.68</ele>
        <time>2021-04-06T12:51:20Z</time>
      </trkpt>
      <trkpt lat="56.93165" lon="-4.92931">
        <ele>109.98</ele>
        <time>2021-04-06T12:51:24Z</time>
      </trkpt>
      <trkpt lat="56.93216" lon="-4.92814">
        <ele>112.48</ele>
        <time>2021-04-06T12:51:29Z</time>
      </trkpt>
      <trkpt lat="56.93283" lon="-4.92641">
        <ele>114.13</ele>
        <time>2021-04-06T12:51:33Z</time>
      </trkpt>
      <trkpt lat="56.9336" lon="-4.92417">
        <ele>108.75</ele>
        <time>2021-04-06T12:51:37Z</time>
      </trkpt>
      <trkpt lat="56.93389" lon="-4.92355">
        <ele>104.63</ele>
        <time>2021-04-06T12:51:42Z</time>
      </trkpt>
      <trkpt lat="56.93415" lon="-4.92322">
        <ele>102.2</ele>
        <time>2021-04-06T12:51:46Z</time>
      </trkpt>
      <trkpt lat="56.93438" lon="-4.923">
        <ele>101.87</ele>
        <time>2021-04-06T12:51:50Z</time>
      </trkpt>
      <trkpt lat="56.93462" lon="-4.92283">
        <ele>101.51</ele>
        <time>2021-04-06T12:51:55Z</time>
      </trkpt>
      <trkpt lat="56.93483" lon="-4.92275">
        <ele>100.7</ele>
        <time>2021-04-06T12:51:59Z</time>
      </trkpt>
      <trkpt lat="56.93507" lon="-4.92271">
        <ele>100.44</ele>
        <time>2021-04-06T12:52:04Z</time>
      </trkpt>
      <trkpt lat="56.93636" lon="-4.92262">
        <ele>102.33</ele>
        <time>2021-04-06T12:52:08Z</time>
      </trkpt>
      <trkpt lat="56.93688" lon="-4.9225">
        <ele>102.99</ele>
        <time>2021-04-06T12:52:12Z</time>
      </trkpt>
      <trkpt lat="56.93725" lon="-4.92234">
        <ele>102.37</ele>
        <time>2021-04-06T12:52:17Z</time>
      </trkpt>
      <trkpt lat="56.93755" lon="-4.92209">
        <ele>100.37</ele>
        <time>2021-04-06T12:52:21Z</time>
      </trkpt>
      <trkpt lat="56.93818" lon="-4.92139">
        <ele>99.35</ele>
        <time>2021-04-06T12:52:25Z</time>
      </trkpt>
      <trkpt lat="56.93834" lon="-4.92129">
        <ele>99.56</ele>
        <time>2021-04-06T12:52:30Z</time>
      </trkpt>
      <trkpt lat="56.93868" lon="-4.92121">
        <ele>99.49</ele>
        <time>2021-04-06T12:52:34Z</time>
      </trkpt>
      <trkpt lat="56.93884" lon="-4.92126">
        <ele>100.14</ele>
        <time>2021-04-06T12:52:38Z</time>
      </trkpt>
      <trkpt lat="56.93901" lon="-4.92135">
        <ele>100.93</ele>
        <time>2021-04-06T12:52:43Z</time>
      </trkpt>
      <trkpt lat="56.93914" lon="-4.92147">
        <ele>102</ele>
        <time>2021-04-06T12:52:47Z</time>
      </trkpt>
      <trkpt lat="56.93992" lon="-4.92247">
        <ele>99.21</ele>
        <time>2021-04-06T12:52:52Z</time>
      </trkpt>
      <trkpt lat="56.94016" lon="-4.92268">
        <ele>100.1</ele>
        <time>2021-04-06T12:52:56Z</time>
      </trkpt>
      <trkpt lat="56.94033" lon="-4.92277">
        <ele>101.13</ele>
        <time>2021-04-06T12:53:00Z</time>
      </trkpt>
      <trkpt lat="56.94073" lon="-4.92287">
        <ele>102.4</ele>
        <time>2021-04-06T12:53:05Z</time>
      </trkpt>
      <trkpt lat="56.94108" lon="-4.92292">
        <ele>100.31</ele>
        <time>2021-04-06T12:53:09Z</time>
      </trkpt>
      <trkpt lat="56.94305" lon="-4.92305">
        <ele>86.94</ele>
        <time>2021-04-06T12:53:13Z</time>
      </trkpt>
      <trkpt lat="56.9435" lon="-4.92303">
        <ele>87.61</ele>
        <time>2021-04-06T12:53:18Z</time>
      </trkpt>
      <trkpt lat="56.94386" lon="-4.9229">
        <ele>84.79</ele>
        <time>2021-04-06T12:53:22Z</time>
      </trkpt>
      <trkpt lat="56.9442" lon="-4.9226">
        <ele>83.12</ele>
        <time>2021-04-06T12:53:27Z</time>
      </trkpt>
      <trkpt lat="56.9447" lon="-4.92204">
        <ele>83.59</ele>
        <time>2021-04-06T12:53:31Z</time>
      </trkpt>
      <trkpt lat="56.94502" lon="-4.92181">
        <ele>79.98</ele>
        <time>2021-04-06T12:53:35Z</time>
      </trkpt>
      <trkpt lat="56.94565" lon="-4.92154">
        <ele>78</ele>
        <time>2021-04-06T12:53:40Z</time>
      </trkpt>
      <trkpt lat="56.94787" lon="-4.9208">
        <ele>68.4</ele>
        <time>2021-04-06T12:53:44Z</time>
      </trkpt>
      <trkpt lat="56.94843" lon="-4.92058">
        <ele>66.41</ele>
        <time>2021-04-06T12:53:48Z</time>
      </trkpt>
      <trkpt lat="56.94871" lon="-4.92034">
        <ele>67.09</ele>
        <time>2021-04-06T12:53:53Z</time>
      </trkpt>
      <trkpt lat="56.94871" lon="-4.92034">
        <ele>67.09</ele>
        <time>2021-04-06T12:53:53Z</time>
      </trkpt>
      <trkpt lat="56.9492" lon="-4.91969">
        <ele>72.24</ele>
        <time>2021-04-06T12:53:57Z</time>
      </trkpt>
      <trkpt lat="56.95016" lon="-4.91833">
        <ele>79.42</ele>
        <time>2021-04-06T12:54:02Z</time>
      </trkpt>
      <trkpt lat="56.95061" lon="-4.91778">
        <ele>77.81</ele>
        <time>2021-04-06T12:54:07Z</time>
      </trkpt>
      <trkpt lat="56.9511" lon="-4.91727">
        <ele>79.67</ele>
        <time>2021-04-06T12:54:11Z</time>
      </trkpt>
      <trkpt lat="56.95152" lon="-4.91689">
        <ele>83.16</ele>
        <time>2021-04-06T12:54:16Z</time>
      </trkpt>
      <trkpt lat="56.95231" lon="-4.91629">
        <ele>87.18</ele>
        <time>2021-04-06T12:54:21Z</time>
      </trkpt>
      <trkpt lat="56.95262" lon="-4.91596">
        <ele>87.46</ele>
        <time>2021-04-06T12:54:25Z</time>
      </trkpt>
      <trkpt lat="56.95294" lon="-4.91554">
        <ele>87.31</ele>
        <time>2021-04-06T12:54:30Z</time>
      </trkpt>
      <trkpt lat="56.95347" lon="-4.91462">
        <ele>87.56</ele>
        <time>2021-04-06T12:54:35Z</time>
      </trkpt>
      <trkpt lat="56.95406" lon="-4.91377">
        <ele>89.66</ele>
        <time>2021-04-06T12:54:40Z</time>
      </trkpt>
      <trkpt lat="56.95518" lon="-4.91219">
        <ele>94.11</ele>
        <time>2021-04-06T12:54:44Z</time>
      </trkpt>
      <trkpt lat="56.95624" lon="-4.91041">
        <ele>98.63</ele>
        <time>2021-04-06T12:54:49Z</time>
      </trkpt>
      <trkpt lat="56.95649" lon="-4.91006">
        <ele>98.77</ele>
        <time>2021-04-06T12:54:54Z</time>
      </trkpt>
      <trkpt lat="56.95719" lon="-4.9094">
        <ele>98.87</ele>
        <time>2021-04-06T12:54:58Z</time>
      </trkpt>
      <trkpt lat="56.95752" lon="-4.90898">
        <ele>101.95</ele>
        <time>2021-04-06T12:55:03Z</time>
      </trkpt>
      <trkpt lat="56.95793" lon="-4.90816">
        <ele>102.78</ele>
        <time>2021-04-06T12:55:08Z</time>
      </trkpt>
      <trkpt lat="56.95816" lon="-4.90779">
        <ele>102.25</ele>
        <time>2021-04-06T12:55:12Z</time>
      </trkpt>
      <trkpt lat="56.95884" lon="-4.90696">
        <ele>101.58</ele>
        <time>2021-04-06T12:55:17Z</time>
      </trkpt>
      <trkpt lat="56.9595" lon="-4.90603">
        <ele>91.33</ele>
        <time>2021-04-06T12:55:22Z</time>
      </trkpt>
      <trkpt lat="56.95979" lon="-4.90551">
        <ele>89.57</ele>
        <time>2021-04-06T12:55:26Z</time>
      </trkpt>
      <trkpt lat="56.96007" lon="-4.90494">
        <ele>88.72</ele>
        <time>2021-04-06T12:55:31Z</time>
      </trkpt>
      <trkpt lat="56.96036" lon="-4.90435">
        <ele>88.56</ele>
        <time>2021-04-06T12:55:36Z</time>
      </trkpt>
      <trkpt lat="56.9608" lon="-4.90336">
        <ele>96.06</ele>
        <time>2021-04-06T12:55:40Z</time>
      </trkpt>
      <trkpt lat="56.96161" lon="-4.90134">
        <ele>107.22</ele>
        <time>2021-04-06T12:55:45Z</time>
      </trkpt>
      <trkpt lat="56.9622" lon="-4.89959">
        <ele>113.24</ele>
        <time>2021-04-06T12:55:50Z</time>
      </trkpt>
      <trkpt lat="56.96248" lon="-4.89892">
        <ele>113.37</ele>
        <time>2021-04-06T12:55:54Z</time>
      </trkpt>
      <trkpt lat="56.96269" lon="-4.89847">
        <ele>110.1</ele>
        <time>2021-04-06T12:55:59Z</time>
      </trkpt>
      <trkpt lat="56.96333" lon="-4.89738">
        <ele>105.88</ele>
        <time>2021-04-06T12:56:04Z</time>
      </trkpt>
      <trkpt lat="56.96538" lon="-4.89425">
        <ele>107.07</ele>
        <time>2021-04-06T12:56:08Z</time>
      </trkpt>
      <trkpt lat="56.96582" lon="-4.89362">
        <ele>108.11</ele>
        <time>2021-04-06T12:56:13Z</time>
      </trkpt>
      <trkpt lat="56.96603" lon="-4.89338">
        <ele>106.99</ele>
        <time>2021-04-06T12:56:18Z</time>
      </trkpt>
      <trkpt lat="56.96726" lon="-4.89231">
        <ele>107.32</ele>
        <time>2021-04-06T12:56:22Z</time>
      </trkpt>
      <trkpt lat="56.96763" lon="-4.89177">
        <ele>109.65</ele>
        <time>2021-04-06T12:56:27Z</time>
      </trkpt>
      <trkpt lat="56.96839" lon="-4.89051">
        <ele>108.93</ele>
        <time>2021-04-06T12:56:32Z</time>
      </trkpt>
      <trkpt lat="56.96857" lon="-4.89029">
        <ele>107.61</ele>
        <time>2021-04-06T12:56:36Z</time>
      </trkpt>
      <trkpt lat="56.96963" lon="-4.88935">
        <ele>95.03</ele>
        <time>2021-04-06T12:56:41Z</time>
      </trkpt>
      <trkpt lat="56.9708" lon="-4.88825">
        <ele>84.54</ele>
        <time>2021-04-06T12:56:46Z</time>
      </trkpt>
      <trkpt lat="56.97146" lon="-4.88772">
        <ele>81.59</ele>
        <time>2021-04-06T12:56:50Z</time>
      </trkpt>
      <trkpt lat="56.97258" lon="-4.8869">
        <ele>73.69</ele>
        <time>2021-04-06T12:56:55Z</time>
      </trkpt>
      <trkpt lat="56.97315" lon="-4.8864">
        <ele>72.16</ele>
        <time>2021-04-06T12:57:00Z</time>
      </trkpt>
      <trkpt lat="56.97394" lon="-4.88563">
        <ele>69.68</ele>
        <time>2021-04-06T12:57:04Z</time>
      </trkpt>
      <trkpt lat="56.97448" lon="-4.88521">
        <ele>64.17</ele>
        <time>2021-04-06T12:57:09Z</time>
      </trkpt>
      <trkpt lat="56.97517" lon="-4.8848">
        <ele>52.21</ele>
        <time>2021-04-06T12:57:14Z</time>
      </trkpt>
      <trkpt lat="56.97705" lon="-4.88393">
        <ele>44.8</ele>
        <time>2021-04-06T12:57:18Z</time>
      </trkpt>
      <trkpt lat="56.97731" lon="-4.88376">
        <ele>45.45</ele>
        <time>2021-04-06T12:57:23Z</time>
      </trkpt>
      <trkpt lat="56.97756" lon="-4.88351">
        <ele>46.18</ele>
        <time>2021-04-06T12:57:28Z</time>
      </trkpt>
      <trkpt lat="56.97797" lon="-4.88298">
        <ele>45.6</ele>
        <time>2021-04-06T12:57:32Z</time>
      </trkpt>
      <trkpt lat="56.9785" lon="-4.88218">
        <ele>48.18</ele>
        <time>2021-04-06T12:57:37Z</time>
      </trkpt>
      <trkpt lat="56.9788" lon="-4.88154">
        <ele>49.17</ele>
        <time>2021-04-06T12:57:42Z</time>
      </trkpt>
      <trkpt lat="56.97934" lon="-4.88025">
        <ele>45.86</ele>
        <time>2021-04-06T12:57:46Z</time>
      </trkpt>
      <trkpt lat="56.97987" lon="-4.87907">
        <ele>39.19</ele>
        <time>2021-04-06T12:57:51Z</time>
      </trkpt>
      <trkpt lat="56.9801" lon="-4.87859">
        <ele>38.62</ele>
        <time>2021-04-06T12:57:56Z</time>
      </trkpt>
      <trkpt lat="56.98034" lon="-4.8782">
        <ele>37.3</ele>
        <time>2021-04-06T12:58:00Z</time>
      </trkpt>
      <trkpt lat="56.9807" lon="-4.87772">
        <ele>40.33</ele>
        <time>2021-04-06T12:58:05Z</time>
      </trkpt>
      <trkpt lat="56.98116" lon="-4.87717">
        <ele>36.42</ele>
        <time>2021-04-06T12:58:10Z</time>
      </trkpt>
      <trkpt lat="56.98212" lon="-4.8762">
        <ele>39.66</ele>
        <time>2021-04-06T12:58:14Z</time>
      </trkpt>
      <trkpt lat="56.98331" lon="-4.87486">
        <ele>48.91</ele>
        <time>2021-04-06T12:58:19Z</time>
      </trkpt>
      <trkpt lat="56.98474" lon="-4.87311">
        <ele>39.53</ele>
        <time>2021-04-06T12:58:24Z</time>
      </trkpt>
      <trkpt lat="56.98542" lon="-4.87223">
        <ele>41.55</ele>
        <time>2021-04-06T12:58:28Z</time>
      </trkpt>
      <trkpt lat="56.98746" lon="-4.86968">
        <ele>38.86</ele>
        <time>2021-04-06T12:58:33Z</time>
      </trkpt>
      <trkpt lat="56.98931" lon="-4.86693">
        <ele>51.5</ele>
        <time>2021-04-06T12:58:38Z</time>
      </trkpt>
      <trkpt lat="56.99023" lon="-4.86573">
        <ele>46.72</ele>
        <time>2021-04-06T12:58:42Z</time>
      </trkpt>
      <trkpt lat="56.99133" lon="-4.86445">
        <ele>41.7</ele>
        <time>2021-04-06T12:58:47Z</time>
      </trkpt>
      <trkpt lat="56.99155" lon="-4.86427">
        <ele>39.99</ele>
        <time>2021-04-06T12:58:52Z</time>
      </trkpt>
      <trkpt lat="56.9922" lon="-4.86392">
        <ele>35.87</ele>
        <time>2021-04-06T12:58:56Z</time>
      </trkpt>
      <trkpt lat="56.99234" lon="-4.86381">
        <ele>34.52</ele>
        <time>2021-04-06T12:59:01Z</time>
      </trkpt>
      <trkpt lat="56.99256" lon="-4.86354">
        <ele>34.55</ele>
        <time>2021-04-06T12:59:06Z</time>
      </trkpt>
      <trkpt lat="56.99271" lon="-4.86332">
        <ele>33.6</ele>
        <time>2021-04-06T12:59:10Z</time>
      </trkpt>
      <trkpt lat="56.99295" lon="-4.86272">
        <ele>33.65</ele>
        <time>2021-04-06T12:59:15Z</time>
      </trkpt>
      <trkpt lat="56.9933" lon="-4.86165">
        <ele>41.42</ele>
        <time>2021-04-06T12:59:20Z</time>
      </trkpt>
      <trkpt lat="56.9936" lon="-4.86092">
        <ele>45.52</ele>
        <time>2021-04-06T12:59:25Z</time>
      </trkpt>
      <trkpt lat="56.99389" lon="-4.86046">
        <ele>50.73</ele>
        <time>2021-04-06T12:59:29Z</time>
      </trkpt>
      <trkpt lat="56.99436" lon="-4.85979">
        <ele>51.19</ele>
        <time>2021-04-06T12:59:34Z</time>
      </trkpt>
      <trkpt lat="56.99513" lon="-4.85882">
        <ele>52.61</ele>
        <time>2021-04-06T12:59:39Z</time>
      </trkpt>
      <trkpt lat="56.99595" lon="-4.85757">
        <ele>55.12</ele>
        <time>2021-04-06T12:59:43Z</time>
      </trkpt>
      <trkpt lat="56.99656" lon="-4.85675">
        <ele>50.24</ele>
        <time>2021-04-06T12:59:48Z</time>
      </trkpt>
      <trkpt lat="56.99744" lon="-4.85579">
        <ele>53.12</ele>
        <time>2021-04-06T12:59:53Z</time>
      </trkpt>
      <trkpt lat="56.99876" lon="-4.85418">
        <ele>49.61</ele>
        <time>2021-04-06T12:59:57Z</time>
      </trkpt>
      <trkpt lat="56.99951" lon="-4.85317">
        <ele>50.26</ele>
        <time>2021-04-06T13:00:02Z</time>
      </trkpt>
      <trkpt lat="57.00032" lon="-4.852">
        <ele>49.29</ele>
        <time>2021-04-06T13:00:07Z</time>
      </trkpt>
      <trkpt lat="57.00316" lon="-4.84811">
        <ele>44.87</ele>
        <time>2021-04-06T13:00:11Z</time>
      </trkpt>
      <trkpt lat="57.00481" lon="-4.84554">
        <ele>43.14</ele>
        <time>2021-04-06T13:00:16Z</time>
      </trkpt>
      <trkpt lat="57.00648" lon="-4.84319">
        <ele>39.26</ele>
        <time>2021-04-06T13:00:21Z</time>
      </trkpt>
      <trkpt lat="57.00732" lon="-4.84197">
        <ele>44.31</ele>
        <time>2021-04-06T13:00:25Z</time>
      </trkpt>
      <trkpt lat="57.00885" lon="-4.83985">
        <ele>48.58</ele>
        <time>2021-04-06T13:00:30Z</time>
      </trkpt>
      <trkpt lat="57.00907" lon="-4.83947">
        <ele>50.92</ele>
        <time>2021-04-06T13:00:35Z</time>
      </trkpt>
      <trkpt lat="57.00928" lon="-4.83915">
        <ele>50.79</ele>
        <time>2021-04-06T13:00:39Z</time>
      </trkpt>
      <trkpt lat="57.00986" lon="-4.83838">
        <ele>41.9</ele>
        <time>2021-04-06T13:00:44Z</time>
      </trkpt>
      <trkpt lat="57.01006" lon="-4.83806">
        <ele>38.85</ele>
        <time>2021-04-06T13:00:49Z</time>
      </trkpt>
      <trkpt lat="57.01128" lon="-4.8358">
        <ele>48.58</ele>
        <time>2021-04-06T13:00:53Z</time>
      </trkpt>
      <trkpt lat="57.0117" lon="-4.83506">
        <ele>51.34</ele>
        <time>2021-04-06T13:00:58Z</time>
      </trkpt>
      <trkpt lat="57.01189" lon="-4.83477">
        <ele>52.74</ele>
        <time>2021-04-06T13:01:03Z</time>
      </trkpt>
      <trkpt lat="57.01202" lon="-4.83464">
        <ele>54.47</ele>
        <time>2021-04-06T13:01:07Z</time>
      </trkpt>
      <trkpt lat="57.01261" lon="-4.83429">
        <ele>52.94</ele>
        <time>2021-04-06T13:01:12Z</time>
      </trkpt>
      <trkpt lat="57.01274" lon="-4.83417">
        <ele>50.19</ele>
        <time>2021-04-06T13:01:17Z</time>
      </trkpt>
      <trkpt lat="57.01299" lon="-4.83384">
        <ele>47.35</ele>
        <time>2021-04-06T13:01:21Z</time>
      </trkpt>
      <trkpt lat="57.01322" lon="-4.83322">
        <ele>50.01</ele>
        <time>2021-04-06T13:01:26Z</time>
      </trkpt>
      <trkpt lat="57.0134" lon="-4.83253">
        <ele>53.51</ele>
        <time>2021-04-06T13:01:31Z</time>
      </trkpt>
      <trkpt lat="57.01353" lon="-4.83221">
        <ele>52.83</ele>
        <time>2021-04-06T13:01:35Z</time>
      </trkpt>
      <trkpt lat="57.01379" lon="-4.83172">
        <ele>50.62</ele>
        <time>2021-04-06T13:01:40Z</time>
      </trkpt>
      <trkpt lat="57.01468" lon="-4.83049">
        <ele>60.04</ele>
        <time>2021-04-06T13:01:45Z</time>
      </trkpt>
      <trkpt lat="57.01559" lon="-4.82965">
        <ele>58.03</ele>
        <time>2021-04-06T13:01:49Z</time>
      </trkpt>
      <trkpt lat="57.01623" lon="-4.82888">
        <ele>55.21</ele>
        <time>2021-04-06T13:01:54Z</time>
      </trkpt>
      <trkpt lat="57.01641" lon="-4.82872">
        <ele>54.78</ele>
        <time>2021-04-06T13:01:59Z</time>
      </trkpt>
      <trkpt lat="57.01658" lon="-4.82866">
        <ele>54.35</ele>
        <time>2021-04-06T13:02:03Z</time>
      </trkpt>
      <trkpt lat="57.01714" lon="-4.82853">
        <ele>51.7</ele>
        <time>2021-04-06T13:02:08Z</time>
      </trkpt>
      <trkpt lat="57.01743" lon="-4.82836">
        <ele>50.41</ele>
        <time>2021-04-06T13:02:13Z</time>
      </trkpt>
      <trkpt lat="57.01765" lon="-4.82814">
        <ele>49.74</ele>
        <time>2021-04-06T13:02:17Z</time>
      </trkpt>
      <trkpt lat="57.01785" lon="-4.82777">
        <ele>50.31</ele>
        <time>2021-04-06T13:02:22Z</time>
      </trkpt>
      <trkpt lat="57.01796" lon="-4.82746">
        <ele>51.78</ele>
        <time>2021-04-06T13:02:27Z</time>
      </trkpt>
      <trkpt lat="57.01814" lon="-4.82715">
        <ele>51.42</ele>
        <time>2021-04-06T13:02:31Z</time>
      </trkpt>
      <trkpt lat="57.01838" lon="-4.82687">
        <ele>50.29</ele>
        <time>2021-04-06T13:02:36Z</time>
      </trkpt>
      <trkpt lat="57.01995" lon="-4.82536">
        <ele>44.92</ele>
        <time>2021-04-06T13:02:41Z</time>
      </trkpt>
      <trkpt lat="57.02031" lon="-4.82514">
        <ele>44.78</ele>
        <time>2021-04-06T13:02:45Z</time>
      </trkpt>
      <trkpt lat="57.02102" lon="-4.82479">
        <ele>47.7</ele>
        <time>2021-04-06T13:02:50Z</time>
      </trkpt>
      <trkpt lat="57.02178" lon="-4.82426">
        <ele>49.46</ele>
        <time>2021-04-06T13:02:55Z</time>
      </trkpt>
      <trkpt lat="57.02261" lon="-4.82386">
        <ele>38.31</ele>
        <time>2021-04-06T13:02:59Z</time>
      </trkpt>
      <trkpt lat="57.0236" lon="-4.82345">
        <ele>35.19</ele>
        <time>2021-04-06T13:03:04Z</time>
      </trkpt>
      <trkpt lat="57.02449" lon="-4.82318">
        <ele>36.5</ele>
        <time>2021-04-06T13:03:09Z</time>
      </trkpt>
      <trkpt lat="57.02507" lon="-4.82309">
        <ele>39.84</ele>
        <time>2021-04-06T13:03:13Z</time>
      </trkpt>
      <trkpt lat="57.02524" lon="-4.82296">
        <ele>40.41</ele>
        <time>2021-04-06T13:03:18Z</time>
      </trkpt>
      <trkpt lat="57.02539" lon="-4.82277">
        <ele>39.44</ele>
        <time>2021-04-06T13:03:23Z</time>
      </trkpt>
      <trkpt lat="57.02553" lon="-4.82242">
        <ele>36.17</ele>
        <time>2021-04-06T13:03:27Z</time>
      </trkpt>
      <trkpt lat="57.02585" lon="-4.82128">
        <ele>33.31</ele>
        <time>2021-04-06T13:03:32Z</time>
      </trkpt>
      <trkpt lat="57.02601" lon="-4.82095">
        <ele>34.17</ele>
        <time>2021-04-06T13:03:37Z</time>
      </trkpt>
      <trkpt lat="57.02639" lon="-4.82035">
        <ele>33.73</ele>
        <time>2021-04-06T13:03:41Z</time>
      </trkpt>
      <trkpt lat="57.02672" lon="-4.82009">
        <ele>33.67</ele>
        <time>2021-04-06T13:03:46Z</time>
      </trkpt>
      <trkpt lat="57.02741" lon="-4.81976">
        <ele>35</ele>
        <time>2021-04-06T13:03:51Z</time>
      </trkpt>
      <trkpt lat="57.0286" lon="-4.81947">
        <ele>38.13</ele>
        <time>2021-04-06T13:03:55Z</time>
      </trkpt>
      <trkpt lat="57.02895" lon="-4.81919">
        <ele>37.93</ele>
        <time>2021-04-06T13:04:00Z</time>
      </trkpt>
      <trkpt lat="57.02946" lon="-4.81886">
        <ele>40</ele>
        <time>2021-04-06T13:04:05Z</time>
      </trkpt>
      <trkpt lat="57.02969" lon="-4.81856">
        <ele>40.17</ele>
        <time>2021-04-06T13:04:09Z</time>
      </trkpt>
      <trkpt lat="57.0315" lon="-4.8158">
        <ele>44.47</ele>
        <time>2021-04-06T13:04:14Z</time>
      </trkpt>
      <trkpt lat="57.03302" lon="-4.81357">
        <ele>46.61</ele>
        <time>2021-04-06T13:04:19Z</time>
      </trkpt>
      <trkpt lat="57.03333" lon="-4.81325">
        <ele>46.99</ele>
        <time>2021-04-06T13:04:24Z</time>
      </trkpt>
      <trkpt lat="57.03428" lon="-4.81276">
        <ele>48.03</ele>
        <time>2021-04-06T13:04:28Z</time>
      </trkpt>
      <trkpt lat="57.03491" lon="-4.8125">
        <ele>47.32</ele>
        <time>2021-04-06T13:04:33Z</time>
      </trkpt>
      <trkpt lat="57.03605" lon="-4.81235">
        <ele>40.55</ele>
        <time>2021-04-06T13:04:38Z</time>
      </trkpt>
      <trkpt lat="57.03648" lon="-4.81223">
        <ele>41.99</ele>
        <time>2021-04-06T13:04:42Z</time>
      </trkpt>
      <trkpt lat="57.03689" lon="-4.81206">
        <ele>42.79</ele>
        <time>2021-04-06T13:04:47Z</time>
      </trkpt>
      <trkpt lat="57.037" lon="-4.81195">
        <ele>43</ele>
        <time>2021-04-06T13:04:52Z</time>
      </trkpt>
      <trkpt lat="57.03713" lon="-4.81179">
        <ele>42.8</ele>
        <time>2021-04-06T13:04:56Z</time>
      </trkpt>
      <trkpt lat="57.03719" lon="-4.81167">
        <ele>42.89</ele>
        <time>2021-04-06T13:05:01Z</time>
      </trkpt>
      <trkpt lat="57.03843" lon="-4.80873">
        <ele>44.96</ele>
        <time>2021-04-06T13:05:06Z</time>
      </trkpt>
      <trkpt lat="57.03881" lon="-4.80803">
        <ele>44.61</ele>
        <time>2021-04-06T13:05:10Z</time>
      </trkpt>
      <trkpt lat="57.03987" lon="-4.80647">
        <ele>38</ele>
        <time>2021-04-06T13:05:15Z</time>
      </trkpt>
      <trkpt lat="57.04003" lon="-4.80632">
        <ele>37.66</ele>
        <time>2021-04-06T13:05:20Z</time>
      </trkpt>
      <trkpt lat="57.04027" lon="-4.80614">
        <ele>37</ele>
        <time>2021-04-06T13:05:24Z</time>
      </trkpt>
      <trkpt lat="57.04155" lon="-4.80548">
        <ele>35.43</ele>
        <time>2021-04-06T13:05:29Z</time>
      </trkpt>
      <trkpt lat="57.04178" lon="-4.80529">
        <ele>35.03</ele>
        <time>2021-04-06T13:05:34Z</time>
      </trkpt>
      <trkpt lat="57.04324" lon="-4.80386">
        <ele>35</ele>
        <time>2021-04-06T13:05:38Z</time>
      </trkpt>
      <trkpt lat="57.04347" lon="-4.8037">
        <ele>35.48</ele>
        <time>2021-04-06T13:05:43Z</time>
      </trkpt>
      <trkpt lat="57.04369" lon="-4.80361">
        <ele>36</ele>
        <time>2021-04-06T13:05:48Z</time>
      </trkpt>
      <trkpt lat="57.04398" lon="-4.80363">
        <ele>35.68</ele>
        <time>2021-04-06T13:05:52Z</time>
      </trkpt>
      <trkpt lat="57.04418" lon="-4.80374">
        <ele>34.94</ele>
        <time>2021-04-06T13:05:57Z</time>
      </trkpt>
      <trkpt lat="57.04495" lon="-4.80432">
        <ele>36.24</ele>
        <time>2021-04-06T13:06:02Z</time>
      </trkpt>
      <trkpt lat="57.04508" lon="-4.80438">
        <ele>37.05</ele>
        <time>2021-04-06T13:06:06Z</time>
      </trkpt>
      <trkpt lat="57.04524" lon="-4.80442">
        <ele>37.78</ele>
        <time>2021-04-06T13:06:11Z</time>
      </trkpt>
      <trkpt lat="57.04546" lon="-4.80442">
        <ele>38.57</ele>
        <time>2021-04-06T13:06:16Z</time>
      </trkpt>
      <trkpt lat="57.04561" lon="-4.80438">
        <ele>39.01</ele>
        <time>2021-04-06T13:06:20Z</time>
      </trkpt>
      <trkpt lat="57.04705" lon="-4.80368">
        <ele>48.33</ele>
        <time>2021-04-06T13:06:25Z</time>
      </trkpt>
      <trkpt lat="57.04731" lon="-4.80342">
        <ele>47.37</ele>
        <time>2021-04-06T13:06:30Z</time>
      </trkpt>
      <trkpt lat="57.04785" lon="-4.80268">
        <ele>47.98</ele>
        <time>2021-04-06T13:06:34Z</time>
      </trkpt>
      <trkpt lat="57.04856" lon="-4.80169">
        <ele>51.21</ele>
        <time>2021-04-06T13:06:39Z</time>
      </trkpt>
      <trkpt lat="57.05074" lon="-4.79852">
        <ele>48.74</ele>
        <time>2021-04-06T13:06:44Z</time>
      </trkpt>
      <trkpt lat="57.05164" lon="-4.79735">
        <ele>51.54</ele>
        <time>2021-04-06T13:06:48Z</time>
      </trkpt>
      <trkpt lat="57.05212" lon="-4.79663">
        <ele>53.13</ele>
        <time>2021-04-06T13:06:53Z</time>
      </trkpt>
      <trkpt lat="57.05392" lon="-4.79357">
        <ele>54.31</ele>
        <time>2021-04-06T13:06:58Z</time>
      </trkpt>
      <trkpt lat="57.05692" lon="-4.78977">
        <ele>47.5</ele>
        <time>2021-04-06T13:07:02Z</time>
      </trkpt>
      <trkpt lat="57.0581" lon="-4.78859">
        <ele>48.38</ele>
        <time>2021-04-06T13:07:07Z</time>
      </trkpt>
      <trkpt lat="57.0626" lon="-4.78446">
        <ele>51.78</ele>
        <time>2021-04-06T13:07:12Z</time>
      </trkpt>
      <trkpt lat="57.06325" lon="-4.78419">
        <ele>52.53</ele>
        <time>2021-04-06T13:07:16Z</time>
      </trkpt>
      <trkpt lat="57.06414" lon="-4.78397">
        <ele>54.15</ele>
        <time>2021-04-06T13:07:21Z</time>
      </trkpt>
      <trkpt lat="57.06414" lon="-4.78397">
        <ele>54.15</ele>
        <time>2021-04-06T13:07:21Z</time>
      </trkpt>
      <trkpt lat="57.06473" lon="-4.78392">
        <ele>58.27</ele>
        <time>2021-04-06T13:07:24Z</time>
      </trkpt>
      <trkpt lat="57.06501" lon="-4.78394">
        <ele>59.42</ele>
        <time>2021-04-06T13:07:26Z</time>
      </trkpt>
      <trkpt lat="57.06518" lon="-4.78402">
        <ele>60.64</ele>
        <time>2021-04-06T13:07:28Z</time>
      </trkpt>
      <trkpt lat="57.0653" lon="-4.78413">
        <ele>60.94</ele>
        <time>2021-04-06T13:07:31Z</time>
      </trkpt>
      <trkpt lat="57.06549" lon="-4.78447">
        <ele>60.45</ele>
        <time>2021-04-06T13:07:33Z</time>
      </trkpt>
      <trkpt lat="57.06614" lon="-4.78606">
        <ele>64.53</ele>
        <time>2021-04-06T13:07:36Z</time>
      </trkpt>
      <trkpt lat="57.06675" lon="-4.7874">
        <ele>65.12</ele>
        <time>2021-04-06T13:07:38Z</time>
      </trkpt>
      <trkpt lat="57.06701" lon="-4.788">
        <ele>67.25</ele>
        <time>2021-04-06T13:07:41Z</time>
      </trkpt>
      <trkpt lat="57.06725" lon="-4.78912">
        <ele>67.74</ele>
        <time>2021-04-06T13:07:43Z</time>
      </trkpt>
      <trkpt lat="57.06735" lon="-4.79073">
        <ele>68.91</ele>
        <time>2021-04-06T13:07:46Z</time>
      </trkpt>
      <trkpt lat="57.06739" lon="-4.79105">
        <ele>67.94</ele>
        <time>2021-04-06T13:07:48Z</time>
      </trkpt>
      <trkpt lat="57.06752" lon="-4.79154">
        <ele>64.01</ele>
        <time>2021-04-06T13:07:50Z</time>
      </trkpt>
      <trkpt lat="57.06772" lon="-4.79205">
        <ele>60.21</ele>
        <time>2021-04-06T13:07:53Z</time>
      </trkpt>
      <trkpt lat="57.06794" lon="-4.79244">
        <ele>57.47</ele>
        <time>2021-04-06T13:07:55Z</time>
      </trkpt>
      <trkpt lat="57.06822" lon="-4.79272">
        <ele>55.64</ele>
        <time>2021-04-06T13:07:58Z</time>
      </trkpt>
      <trkpt lat="57.06865" lon="-4.79291">
        <ele>53.62</ele>
        <time>2021-04-06T13:08:00Z</time>
      </trkpt>
      <trkpt lat="57.06884" lon="-4.7929">
        <ele>52</ele>
        <time>2021-04-06T13:08:03Z</time>
      </trkpt>
      <trkpt lat="57.06919" lon="-4.79279">
        <ele>49.86</ele>
        <time>2021-04-06T13:08:05Z</time>
      </trkpt>
      <trkpt lat="57.06984" lon="-4.79254">
        <ele>52.82</ele>
        <time>2021-04-06T13:08:07Z</time>
      </trkpt>
      <trkpt lat="57.06987" lon="-4.7927">
        <ele>54.21</ele>
        <time>2021-04-06T13:08:12Z</time>
      </trkpt>
      <trkpt lat="57.06986" lon="-4.7928">
        <ele>54.75</ele>
        <time>2021-04-06T13:08:16Z</time>
      </trkpt>
      <trkpt lat="57.0698" lon="-4.79323">
        <ele>56.41</ele>
        <time>2021-04-06T13:08:20Z</time>
      </trkpt>
      <trkpt lat="57.06959" lon="-4.79417">
        <ele>55.24</ele>
        <time>2021-04-06T13:08:25Z</time>
      </trkpt>
      <trkpt lat="57.06942" lon="-4.79524">
        <ele>56.46</ele>
        <time>2021-04-06T13:08:29Z</time>
      </trkpt>
      <trkpt lat="57.06934" lon="-4.79589">
        <ele>56.55</ele>
        <time>2021-04-06T13:08:34Z</time>
      </trkpt>
      <trkpt lat="57.06908" lon="-4.79889">
        <ele>59.4</ele>
        <time>2021-04-06T13:08:38Z</time>
      </trkpt>
      <trkpt lat="57.06897" lon="-4.80071">
        <ele>56.13</ele>
        <time>2021-04-06T13:08:42Z</time>
      </trkpt>
      <trkpt lat="57.06892" lon="-4.80121">
        <ele>57.12</ele>
        <time>2021-04-06T13:08:47Z</time>
      </trkpt>
      <trkpt lat="57.06879" lon="-4.8019">
        <ele>59.33</ele>
        <time>2021-04-06T13:08:51Z</time>
      </trkpt>
      <trkpt lat="57.06852" lon="-4.80287">
        <ele>58.33</ele>
        <time>2021-04-06T13:08:55Z</time>
      </trkpt>
      <trkpt lat="57.06841" lon="-4.80345">
        <ele>58.52</ele>
        <time>2021-04-06T13:09:00Z</time>
      </trkpt>
      <trkpt lat="57.06837" lon="-4.80374">
        <ele>57.71</ele>
        <time>2021-04-06T13:09:04Z</time>
      </trkpt>
      <trkpt lat="57.06832" lon="-4.80422">
        <ele>55.65</ele>
        <time>2021-04-06T13:09:08Z</time>
      </trkpt>
      <trkpt lat="57.06832" lon="-4.80465">
        <ele>54.08</ele>
        <time>2021-04-06T13:09:13Z</time>
      </trkpt>
      <trkpt lat="57.06836" lon="-4.80537">
        <ele>55.63</ele>
        <time>2021-04-06T13:09:17Z</time>
      </trkpt>
      <trkpt lat="57.06843" lon="-4.80578">
        <ele>57.37</ele>
        <time>2021-04-06T13:09:21Z</time>
      </trkpt>
      <trkpt lat="57.06854" lon="-4.80622">
        <ele>59.51</ele>
        <time>2021-04-06T13:09:26Z</time>
      </trkpt>
      <trkpt lat="57.06873" lon="-4.80675">
        <ele>60.03</ele>
        <time>2021-04-06T13:09:30Z</time>
      </trkpt>
      <trkpt lat="57.06944" lon="-4.80833">
        <ele>62.9</ele>
        <time>2021-04-06T13:09:34Z</time>
      </trkpt>
      <trkpt lat="57.06974" lon="-4.80909">
        <ele>58.86</ele>
        <time>2021-04-06T13:09:39Z</time>
      </trkpt>
      <trkpt lat="57.06983" lon="-4.8094">
        <ele>58.91</ele>
        <time>2021-04-06T13:09:43Z</time>
      </trkpt>
      <trkpt lat="57.06996" lon="-4.81007">
        <ele>58.73</ele>
        <time>2021-04-06T13:09:47Z</time>
      </trkpt>
      <trkpt lat="57.07" lon="-4.81057">
        <ele>59.03</ele>
        <time>2021-04-06T13:09:52Z</time>
      </trkpt>
      <trkpt lat="57.07" lon="-4.81083">
        <ele>59.96</ele>
        <time>2021-04-06T13:09:56Z</time>
      </trkpt>
      <trkpt lat="57.06998" lon="-4.81118">
        <ele>61.28</ele>
        <time>2021-04-06T13:10:00Z</time>
      </trkpt>
      <trkpt lat="57.06994" lon="-4.81146">
        <ele>62.52</ele>
        <time>2021-04-06T13:10:05Z</time>
      </trkpt>
      <trkpt lat="57.06933" lon="-4.81467">
        <ele>58.69</ele>
        <time>2021-04-06T13:10:09Z</time>
      </trkpt>
      <trkpt lat="57.06943" lon="-4.81496">
        <ele>62.38</ele>
        <time>2021-04-06T13:10:11Z</time>
      </trkpt>
      <trkpt lat="57.06943" lon="-4.81505">
        <ele>63.54</ele>
        <time>2021-04-06T13:10:13Z</time>
      </trkpt>
      <trkpt lat="57.06927" lon="-4.81561">
        <ele>67.43</ele>
        <time>2021-04-06T13:10:15Z</time>
      </trkpt>
      <trkpt lat="57.06916" lon="-4.81609">
        <ele>65.9</ele>
        <time>2021-04-06T13:10:17Z</time>
      </trkpt>
      <trkpt lat="57.06908" lon="-4.81654">
        <ele>65.08</ele>
        <time>2021-04-06T13:10:19Z</time>
      </trkpt>
      <trkpt lat="57.06907" lon="-4.81686">
        <ele>65.14</ele>
        <time>2021-04-06T13:10:21Z</time>
      </trkpt>
      <trkpt lat="57.06925" lon="-4.81757">
        <ele>72.46</ele>
        <time>2021-04-06T13:10:23Z</time>
      </trkpt>
      <trkpt lat="57.06933" lon="-4.81816">
        <ele>79.65</ele>
        <time>2021-04-06T13:10:25Z</time>
      </trkpt>
      <trkpt lat="57.0693" lon="-4.8189">
        <ele>84.53</ele>
        <time>2021-04-06T13:10:27Z</time>
      </trkpt>
      <trkpt lat="57.06924" lon="-4.81951">
        <ele>87.8</ele>
        <time>2021-04-06T13:10:29Z</time>
      </trkpt>
      <trkpt lat="57.06901" lon="-4.82041">
        <ele>87.16</ele>
        <time>2021-04-06T13:10:31Z</time>
      </trkpt>
      <trkpt lat="57.06878" lon="-4.82169">
        <ele>86.39</ele>
        <time>2021-04-06T13:10:33Z</time>
      </trkpt>
      <trkpt lat="57.06879" lon="-4.82208">
        <ele>87.58</ele>
        <time>2021-04-06T13:10:35Z</time>
      </trkpt>
      <trkpt lat="57.06887" lon="-4.82261">
        <ele>91.09</ele>
        <time>2021-04-06T13:10:37Z</time>
      </trkpt>
      <trkpt lat="57.06899" lon="-4.8231">
        <ele>93.81</ele>
        <time>2021-04-06T13:10:39Z</time>
      </trkpt>
      <trkpt lat="57.06913" lon="-4.82386">
        <ele>98.77</ele>
        <time>2021-04-06T13:10:41Z</time>
      </trkpt>
      <trkpt lat="57.06928" lon="-4.82432">
        <ele>104.33</ele>
        <time>2021-04-06T13:10:43Z</time>
      </trkpt>
      <trkpt lat="57.06937" lon="-4.82457">
        <ele>106.02</ele>
        <time>2021-04-06T13:10:45Z</time>
      </trkpt>
      <trkpt lat="57.06966" lon="-4.82498">
        <ele>104.36</ele>
        <time>2021-04-06T13:10:47Z</time>
      </trkpt>
      <trkpt lat="57.06974" lon="-4.82516">
        <ele>104.04</ele>
        <time>2021-04-06T13:10:50Z</time>
      </trkpt>
      <trkpt lat="57.06981" lon="-4.82546">
        <ele>104.46</ele>
        <time>2021-04-06T13:10:52Z</time>
      </trkpt>
      <trkpt lat="57.06997" lon="-4.8267">
        <ele>106.04</ele>
        <time>2021-04-06T13:10:54Z</time>
      </trkpt>
      <trkpt lat="57.07006" lon="-4.82724">
        <ele>110.14</ele>
        <time>2021-04-06T13:10:56Z</time>
      </trkpt>
      <trkpt lat="57.07017" lon="-4.82776">
        <ele>111.79</ele>
        <time>2021-04-06T13:10:58Z</time>
      </trkpt>
      <trkpt lat="57.07022" lon="-4.82815">
        <ele>112.92</ele>
        <time>2021-04-06T13:11:00Z</time>
      </trkpt>
      <trkpt lat="57.07045" lon="-4.82885">
        <ele>111.73</ele>
        <time>2021-04-06T13:11:02Z</time>
      </trkpt>
      <trkpt lat="57.07098" lon="-4.82954">
        <ele>106.96</ele>
        <time>2021-04-06T13:11:04Z</time>
      </trkpt>
      <trkpt lat="57.07145" lon="-4.83026">
        <ele>105.6</ele>
        <time>2021-04-06T13:11:06Z</time>
      </trkpt>
      <trkpt lat="57.07205" lon="-4.83135">
        <ele>102.03</ele>
        <time>2021-04-06T13:11:08Z</time>
      </trkpt>
      <trkpt lat="57.07236" lon="-4.83165">
        <ele>103.11</ele>
        <time>2021-04-06T13:11:10Z</time>
      </trkpt>
      <trkpt lat="57.07255" lon="-4.83219">
        <ele>97.49</ele>
        <time>2021-04-06T13:11:12Z</time>
      </trkpt>
      <trkpt lat="57.07322" lon="-4.83307">
        <ele>94.66</ele>
        <time>2021-04-06T13:11:14Z</time>
      </trkpt>
      <trkpt lat="57.07318" lon="-4.83352">
        <ele>90.62</ele>
        <time>2021-04-06T13:11:16Z</time>
      </trkpt>
      <trkpt lat="57.07368" lon="-4.83398">
        <ele>93.83</ele>
        <time>2021-04-06T13:11:19Z</time>
      </trkpt>
      <trkpt lat="57.0744" lon="-4.8347">
        <ele>90.24</ele>
        <time>2021-04-06T13:11:22Z</time>
      </trkpt>
      <trkpt lat="57.07457" lon="-4.83495">
        <ele>89.09</ele>
        <time>2021-04-06T13:11:25Z</time>
      </trkpt>
      <trkpt lat="57.07473" lon="-4.83525">
        <ele>89.83</ele>
        <time>2021-04-06T13:11:28Z</time>
      </trkpt>
      <trkpt lat="57.07488" lon="-4.83562">
        <ele>91.9</ele>
        <time>2021-04-06T13:11:31Z</time>
      </trkpt>
      <trkpt lat="57.075" lon="-4.83607">
        <ele>94.67</ele>
        <time>2021-04-06T13:11:33Z</time>
      </trkpt>
      <trkpt lat="57.07518" lon="-4.83753">
        <ele>97.68</ele>
        <time>2021-04-06T13:11:36Z</time>
      </trkpt>
      <trkpt lat="57.07554" lon="-4.83961">
        <ele>97.57</ele>
        <time>2021-04-06T13:11:39Z</time>
      </trkpt>
      <trkpt lat="57.07566" lon="-4.84">
        <ele>98.38</ele>
        <time>2021-04-06T13:11:42Z</time>
      </trkpt>
      <trkpt lat="57.07582" lon="-4.84036">
        <ele>99.96</ele>
        <time>2021-04-06T13:11:45Z</time>
      </trkpt>
      <trkpt lat="57.07605" lon="-4.84077">
        <ele>100.01</ele>
        <time>2021-04-06T13:11:48Z</time>
      </trkpt>
      <trkpt lat="57.07629" lon="-4.8411">
        <ele>100.03</ele>
        <time>2021-04-06T13:11:51Z</time>
      </trkpt>
      <trkpt lat="57.07661" lon="-4.8414">
        <ele>97.96</ele>
        <time>2021-04-06T13:11:54Z</time>
      </trkpt>
      <trkpt lat="57.07696" lon="-4.8416">
        <ele>97.22</ele>
        <time>2021-04-06T13:11:57Z</time>
      </trkpt>
      <trkpt lat="57.07779" lon="-4.8419">
        <ele>98.45</ele>
        <time>2021-04-06T13:12:00Z</time>
      </trkpt>
      <trkpt lat="57.0781" lon="-4.84207">
        <ele>99.7</ele>
        <time>2021-04-06T13:12:03Z</time>
      </trkpt>
      <trkpt lat="57.07833" lon="-4.84226">
        <ele>101.43</ele>
        <time>2021-04-06T13:12:06Z</time>
      </trkpt>
      <trkpt lat="57.07857" lon="-4.84257">
        <ele>100.66</ele>
        <time>2021-04-06T13:12:09Z</time>
      </trkpt>
      <trkpt lat="57.07884" lon="-4.84307">
        <ele>99.98</ele>
        <time>2021-04-06T13:12:12Z</time>
      </trkpt>
      <trkpt lat="57.0798" lon="-4.84523">
        <ele>100.38</ele>
        <time>2021-04-06T13:12:15Z</time>
      </trkpt>
      <trkpt lat="57.08025" lon="-4.84637">
        <ele>98.81</ele>
        <time>2021-04-06T13:12:18Z</time>
      </trkpt>
      <trkpt lat="57.08068" lon="-4.84752">
        <ele>98.06</ele>
        <time>2021-04-06T13:12:21Z</time>
      </trkpt>
      <trkpt lat="57.08088" lon="-4.8482">
        <ele>96.88</ele>
        <time>2021-04-06T13:12:24Z</time>
      </trkpt>
      <trkpt lat="57.08104" lon="-4.84889">
        <ele>94.94</ele>
        <time>2021-04-06T13:12:26Z</time>
      </trkpt>
      <trkpt lat="57.0811" lon="-4.84949">
        <ele>95.61</ele>
        <time>2021-04-06T13:12:29Z</time>
      </trkpt>
      <trkpt lat="57.08109" lon="-4.85009">
        <ele>94.5</ele>
        <time>2021-04-06T13:12:32Z</time>
      </trkpt>
      <trkpt lat="57.08105" lon="-4.85064">
        <ele>93.64</ele>
        <time>2021-04-06T13:12:35Z</time>
      </trkpt>
      <trkpt lat="57.081" lon="-4.85098">
        <ele>93.85</ele>
        <time>2021-04-06T13:12:38Z</time>
      </trkpt>
      <trkpt lat="57.08052" lon="-4.85354">
        <ele>91.5</ele>
        <time>2021-04-06T13:12:41Z</time>
      </trkpt>
      <trkpt lat="57.08046" lon="-4.85404">
        <ele>90.76</ele>
        <time>2021-04-06T13:12:44Z</time>
      </trkpt>
      <trkpt lat="57.08043" lon="-4.85453">
        <ele>89.24</ele>
        <time>2021-04-06T13:12:47Z</time>
      </trkpt>
      <trkpt lat="57.08042" lon="-4.85505">
        <ele>87.7</ele>
        <time>2021-04-06T13:12:50Z</time>
      </trkpt>
      <trkpt lat="57.08045" lon="-4.85558">
        <ele>88.66</ele>
        <time>2021-04-06T13:12:53Z</time>
      </trkpt>
      <trkpt lat="57.08052" lon="-4.85626">
        <ele>89.74</ele>
        <time>2021-04-06T13:12:56Z</time>
      </trkpt>
      <trkpt lat="57.0806" lon="-4.85671">
        <ele>90.31</ele>
        <time>2021-04-06T13:12:59Z</time>
      </trkpt>
      <trkpt lat="57.08071" lon="-4.85724">
        <ele>91.17</ele>
        <time>2021-04-06T13:13:02Z</time>
      </trkpt>
      <trkpt lat="57.08094" lon="-4.85798">
        <ele>91.41</ele>
        <time>2021-04-06T13:13:05Z</time>
      </trkpt>
      <trkpt lat="57.08233" lon="-4.86131">
        <ele>91.79</ele>
        <time>2021-04-06T13:13:08Z</time>
      </trkpt>
      <trkpt lat="57.08263" lon="-4.86221">
        <ele>93.43</ele>
        <time>2021-04-06T13:13:11Z</time>
      </trkpt>
      <trkpt lat="57.08272" lon="-4.86264">
        <ele>92.94</ele>
        <time>2021-04-06T13:13:14Z</time>
      </trkpt>
      <trkpt lat="57.08275" lon="-4.86328">
        <ele>91.83</ele>
        <time>2021-04-06T13:13:17Z</time>
      </trkpt>
      <trkpt lat="57.08275" lon="-4.86377">
        <ele>93.36</ele>
        <time>2021-04-06T13:13:19Z</time>
      </trkpt>
      <trkpt lat="57.08273" lon="-4.86402">
        <ele>94.14</ele>
        <time>2021-04-06T13:13:22Z</time>
      </trkpt>
      <trkpt lat="57.08271" lon="-4.86426">
        <ele>94.57</ele>
        <time>2021-04-06T13:13:25Z</time>
      </trkpt>
      <trkpt lat="57.08249" lon="-4.86532">
        <ele>98.11</ele>
        <time>2021-04-06T13:13:28Z</time>
      </trkpt>
      <trkpt lat="57.08226" lon="-4.866">
        <ele>98.38</ele>
        <time>2021-04-06T13:13:31Z</time>
      </trkpt>
      <trkpt lat="57.08193" lon="-4.86671">
        <ele>97.2</ele>
        <time>2021-04-06T13:13:34Z</time>
      </trkpt>
      <trkpt lat="57.08132" lon="-4.86784">
        <ele>98.42</ele>
        <time>2021-04-06T13:13:37Z</time>
      </trkpt>
      <trkpt lat="57.08117" lon="-4.86817">
        <ele>98.29</ele>
        <time>2021-04-06T13:13:40Z</time>
      </trkpt>
      <trkpt lat="57.08101" lon="-4.86861">
        <ele>96.84</ele>
        <time>2021-04-06T13:13:43Z</time>
      </trkpt>
      <trkpt lat="57.08092" lon="-4.86903">
        <ele>95.6</ele>
        <time>2021-04-06T13:13:46Z</time>
      </trkpt>
      <trkpt lat="57.08084" lon="-4.86947">
        <ele>94.34</ele>
        <time>2021-04-06T13:13:49Z</time>
      </trkpt>
      <trkpt lat="57.08082" lon="-4.86986">
        <ele>94.8</ele>
        <time>2021-04-06T13:13:52Z</time>
      </trkpt>
      <trkpt lat="57.0808" lon="-4.87069">
        <ele>94.9</ele>
        <time>2021-04-06T13:13:55Z</time>
      </trkpt>
      <trkpt lat="57.08092" lon="-4.87261">
        <ele>100.59</ele>
        <time>2021-04-06T13:13:58Z</time>
      </trkpt>
      <trkpt lat="57.08097" lon="-4.87376">
        <ele>97.78</ele>
        <time>2021-04-06T13:14:01Z</time>
      </trkpt>
      <trkpt lat="57.08094" lon="-4.87647">
        <ele>93.14</ele>
        <time>2021-04-06T13:14:04Z</time>
      </trkpt>
      <trkpt lat="57.08098" lon="-4.87796">
        <ele>94.04</ele>
        <time>2021-04-06T13:14:07Z</time>
      </trkpt>
      <trkpt lat="57.08109" lon="-4.87964">
        <ele>93.45</ele>
        <time>2021-04-06T13:14:10Z</time>
      </trkpt>
      <trkpt lat="57.08155" lon="-4.88364">
        <ele>97.05</ele>
        <time>2021-04-06T13:14:13Z</time>
      </trkpt>
      <trkpt lat="57.08171" lon="-4.88513">
        <ele>95.06</ele>
        <time>2021-04-06T13:14:15Z</time>
      </trkpt>
      <trkpt lat="57.08177" lon="-4.88607">
        <ele>95.01</ele>
        <time>2021-04-06T13:14:18Z</time>
      </trkpt>
      <trkpt lat="57.0818" lon="-4.8869">
        <ele>95.39</ele>
        <time>2021-04-06T13:14:21Z</time>
      </trkpt>
      <trkpt lat="57.08179" lon="-4.88934">
        <ele>90.8</ele>
        <time>2021-04-06T13:14:24Z</time>
      </trkpt>
      <trkpt lat="57.08185" lon="-4.89037">
        <ele>92.25</ele>
        <time>2021-04-06T13:14:27Z</time>
      </trkpt>
      <trkpt lat="57.08198" lon="-4.89153">
        <ele>91.35</ele>
        <time>2021-04-06T13:14:30Z</time>
      </trkpt>
      <trkpt lat="57.08218" lon="-4.89264">
        <ele>91.11</ele>
        <time>2021-04-06T13:14:33Z</time>
      </trkpt>
      <trkpt lat="57.08233" lon="-4.89354">
        <ele>89.75</ele>
        <time>2021-04-06T13:14:36Z</time>
      </trkpt>
      <trkpt lat="57.08235" lon="-4.89377">
        <ele>89.93</ele>
        <time>2021-04-06T13:14:39Z</time>
      </trkpt>
      <trkpt lat="57.08236" lon="-4.89405">
        <ele>90.32</ele>
        <time>2021-04-06T13:14:42Z</time>
      </trkpt>
      <trkpt lat="57.08236" lon="-4.89449">
        <ele>90.54</ele>
        <time>2021-04-06T13:14:45Z</time>
      </trkpt>
      <trkpt lat="57.08233" lon="-4.89482">
        <ele>90.77</ele>
        <time>2021-04-06T13:14:48Z</time>
      </trkpt>
      <trkpt lat="57.08213" lon="-4.89648">
        <ele>88.67</ele>
        <time>2021-04-06T13:14:51Z</time>
      </trkpt>
      <trkpt lat="57.08211" lon="-4.89688">
        <ele>89.03</ele>
        <time>2021-04-06T13:14:54Z</time>
      </trkpt>
      <trkpt lat="57.08213" lon="-4.89726">
        <ele>89.35</ele>
        <time>2021-04-06T13:14:57Z</time>
      </trkpt>
      <trkpt lat="57.08216" lon="-4.89757">
        <ele>89.79</ele>
        <time>2021-04-06T13:15:00Z</time>
      </trkpt>
      <trkpt lat="57.08226" lon="-4.89797">
        <ele>90.84</ele>
        <time>2021-04-06T13:15:03Z</time>
      </trkpt>
      <trkpt lat="57.08234" lon="-4.89823">
        <ele>91.43</ele>
        <time>2021-04-06T13:15:06Z</time>
      </trkpt>
      <trkpt lat="57.08246" lon="-4.89848">
        <ele>92.38</ele>
        <time>2021-04-06T13:15:08Z</time>
      </trkpt>
      <trkpt lat="57.08264" lon="-4.89876">
        <ele>94.25</ele>
        <time>2021-04-06T13:15:11Z</time>
      </trkpt>
      <trkpt lat="57.08318" lon="-4.89954">
        <ele>95.58</ele>
        <time>2021-04-06T13:15:14Z</time>
      </trkpt>
      <trkpt lat="57.08333" lon="-4.89987">
        <ele>95.96</ele>
        <time>2021-04-06T13:15:17Z</time>
      </trkpt>
      <trkpt lat="57.08341" lon="-4.90014">
        <ele>96.35</ele>
        <time>2021-04-06T13:15:20Z</time>
      </trkpt>
      <trkpt lat="57.08348" lon="-4.90041">
        <ele>96.86</ele>
        <time>2021-04-06T13:15:23Z</time>
      </trkpt>
      <trkpt lat="57.08351" lon="-4.90064">
        <ele>97.29</ele>
        <time>2021-04-06T13:15:26Z</time>
      </trkpt>
      <trkpt lat="57.08352" lon="-4.90095">
        <ele>98.76</ele>
        <time>2021-04-06T13:15:29Z</time>
      </trkpt>
      <trkpt lat="57.08352" lon="-4.90144">
        <ele>102.01</ele>
        <time>2021-04-06T13:15:32Z</time>
      </trkpt>
      <trkpt lat="57.08345" lon="-4.90307">
        <ele>112.84</ele>
        <time>2021-04-06T13:15:35Z</time>
      </trkpt>
      <trkpt lat="57.08324" lon="-4.90708">
        <ele>124.16</ele>
        <time>2021-04-06T13:15:38Z</time>
      </trkpt>
      <trkpt lat="57.08328" lon="-4.90756">
        <ele>122.33</ele>
        <time>2021-04-06T13:15:41Z</time>
      </trkpt>
      <trkpt lat="57.08335" lon="-4.90804">
        <ele>122</ele>
        <time>2021-04-06T13:15:44Z</time>
      </trkpt>
      <trkpt lat="57.0836" lon="-4.90921">
        <ele>124.09</ele>
        <time>2021-04-06T13:15:47Z</time>
      </trkpt>
      <trkpt lat="57.08369" lon="-4.91003">
        <ele>130.63</ele>
        <time>2021-04-06T13:15:50Z</time>
      </trkpt>
      <trkpt lat="57.0837" lon="-4.91146">
        <ele>136.84</ele>
        <time>2021-04-06T13:15:53Z</time>
      </trkpt>
      <trkpt lat="57.08366" lon="-4.91222">
        <ele>137.11</ele>
        <time>2021-04-06T13:15:56Z</time>
      </trkpt>
      <trkpt lat="57.08355" lon="-4.9129">
        <ele>136.46</ele>
        <time>2021-04-06T13:15:59Z</time>
      </trkpt>
      <trkpt lat="57.0831" lon="-4.91488">
        <ele>148.41</ele>
        <time>2021-04-06T13:16:01Z</time>
      </trkpt>
      <trkpt lat="57.08297" lon="-4.91573">
        <ele>150.43</ele>
        <time>2021-04-06T13:16:04Z</time>
      </trkpt>
      <trkpt lat="57.08287" lon="-4.91731">
        <ele>144</ele>
        <time>2021-04-06T13:16:07Z</time>
      </trkpt>
      <trkpt lat="57.08282" lon="-4.91795">
        <ele>145.51</ele>
        <time>2021-04-06T13:16:10Z</time>
      </trkpt>
      <trkpt lat="57.08251" lon="-4.91951">
        <ele>149.68</ele>
        <time>2021-04-06T13:16:13Z</time>
      </trkpt>
      <trkpt lat="57.08245" lon="-4.91999">
        <ele>151.14</ele>
        <time>2021-04-06T13:16:16Z</time>
      </trkpt>
      <trkpt lat="57.08232" lon="-4.92143">
        <ele>154.12</ele>
        <time>2021-04-06T13:16:19Z</time>
      </trkpt>
      <trkpt lat="57.08225" lon="-4.92272">
        <ele>158.68</ele>
        <time>2021-04-06T13:16:22Z</time>
      </trkpt>
      <trkpt lat="57.08225" lon="-4.92345">
        <ele>161.64</ele>
        <time>2021-04-06T13:16:25Z</time>
      </trkpt>
      <trkpt lat="57.0823" lon="-4.92414">
        <ele>166.49</ele>
        <time>2021-04-06T13:16:28Z</time>
      </trkpt>
      <trkpt lat="57.08239" lon="-4.92491">
        <ele>169.89</ele>
        <time>2021-04-06T13:16:31Z</time>
      </trkpt>
      <trkpt lat="57.08269" lon="-4.92674">
        <ele>176.77</ele>
        <time>2021-04-06T13:16:34Z</time>
      </trkpt>
      <trkpt lat="57.08284" lon="-4.928">
        <ele>181.7</ele>
        <time>2021-04-06T13:16:37Z</time>
      </trkpt>
      <trkpt lat="57.08323" lon="-4.93266">
        <ele>197.29</ele>
        <time>2021-04-06T13:16:40Z</time>
      </trkpt>
      <trkpt lat="57.08325" lon="-4.93332">
        <ele>200.1</ele>
        <time>2021-04-06T13:16:43Z</time>
      </trkpt>
      <trkpt lat="57.08309" lon="-4.93579">
        <ele>209.56</ele>
        <time>2021-04-06T13:16:46Z</time>
      </trkpt>
      <trkpt lat="57.08301" lon="-4.93649">
        <ele>216.32</ele>
        <time>2021-04-06T13:16:49Z</time>
      </trkpt>
      <trkpt lat="57.08232" lon="-4.93994">
        <ele>216.51</ele>
        <time>2021-04-06T13:16:52Z</time>
      </trkpt>
      <trkpt lat="57.08206" lon="-4.94121">
        <ele>220.33</ele>
        <time>2021-04-06T13:16:54Z</time>
      </trkpt>
      <trkpt lat="57.08196" lon="-4.9418">
        <ele>219.21</ele>
        <time>2021-04-06T13:16:57Z</time>
      </trkpt>
      <trkpt lat="57.0819" lon="-4.94236">
        <ele>218.53</ele>
        <time>2021-04-06T13:17:00Z</time>
      </trkpt>
      <trkpt lat="57.08188" lon="-4.94288">
        <ele>218.88</ele>
        <time>2021-04-06T13:17:03Z</time>
      </trkpt>
      <trkpt lat="57.08186" lon="-4.94393">
        <ele>220.51</ele>
        <time>2021-04-06T13:17:06Z</time>
      </trkpt>
      <trkpt lat="57.08185" lon="-4.94968">
        <ele>232.07</ele>
        <time>2021-04-06T13:17:09Z</time>
      </trkpt>
      <trkpt lat="57.08185" lon="-4.952">
        <ele>239.91</ele>
        <time>2021-04-06T13:17:12Z</time>
      </trkpt>
      <trkpt lat="57.08189" lon="-4.95267">
        <ele>241.65</ele>
        <time>2021-04-06T13:17:15Z</time>
      </trkpt>
      <trkpt lat="57.08216" lon="-4.9542">
        <ele>242.76</ele>
        <time>2021-04-06T13:17:18Z</time>
      </trkpt>
      <trkpt lat="57.08237" lon="-4.95519">
        <ele>244.98</ele>
        <time>2021-04-06T13:17:21Z</time>
      </trkpt>
      <trkpt lat="57.08252" lon="-4.95565">
        <ele>246.88</ele>
        <time>2021-04-06T13:17:24Z</time>
      </trkpt>
      <trkpt lat="57.08277" lon="-4.95617">
        <ele>249.04</ele>
        <time>2021-04-06T13:17:27Z</time>
      </trkpt>
      <trkpt lat="57.083" lon="-4.9567">
        <ele>249.89</ele>
        <time>2021-04-06T13:17:30Z</time>
      </trkpt>
      <trkpt lat="57.08324" lon="-4.95743">
        <ele>251.34</ele>
        <time>2021-04-06T13:17:33Z</time>
      </trkpt>
      <trkpt lat="57.08355" lon="-4.95858">
        <ele>252.45</ele>
        <time>2021-04-06T13:17:36Z</time>
      </trkpt>
      <trkpt lat="57.08412" lon="-4.96021">
        <ele>259.33</ele>
        <time>2021-04-06T13:17:39Z</time>
      </trkpt>
      <trkpt lat="57.0844" lon="-4.96085">
        <ele>260.85</ele>
        <time>2021-04-06T13:17:42Z</time>
      </trkpt>
      <trkpt lat="57.08466" lon="-4.96123">
        <ele>262.83</ele>
        <time>2021-04-06T13:17:45Z</time>
      </trkpt>
      <trkpt lat="57.08497" lon="-4.96148">
        <ele>265.44</ele>
        <time>2021-04-06T13:17:47Z</time>
      </trkpt>
      <trkpt lat="57.08545" lon="-4.96165">
        <ele>268.33</ele>
        <time>2021-04-06T13:17:50Z</time>
      </trkpt>
      <trkpt lat="57.08583" lon="-4.96184">
        <ele>268.14</ele>
        <time>2021-04-06T13:17:53Z</time>
      </trkpt>
      <trkpt lat="57.08614" lon="-4.96214">
        <ele>268.68</ele>
        <time>2021-04-06T13:17:56Z</time>
      </trkpt>
      <trkpt lat="57.08628" lon="-4.96236">
        <ele>269.41</ele>
        <time>2021-04-06T13:17:59Z</time>
      </trkpt>
      <trkpt lat="57.0864" lon="-4.96267">
        <ele>269.52</ele>
        <time>2021-04-06T13:18:02Z</time>
      </trkpt>
      <trkpt lat="57.0865" lon="-4.96303">
        <ele>269.72</ele>
        <time>2021-04-06T13:18:05Z</time>
      </trkpt>
      <trkpt lat="57.08671" lon="-4.96419">
        <ele>270.7</ele>
        <time>2021-04-06T13:18:08Z</time>
      </trkpt>
      <trkpt lat="57.08696" lon="-4.96507">
        <ele>270.98</ele>
        <time>2021-04-06T13:18:11Z</time>
      </trkpt>
      <trkpt lat="57.08752" lon="-4.96662">
        <ele>279.61</ele>
        <time>2021-04-06T13:18:14Z</time>
      </trkpt>
      <trkpt lat="57.08766" lon="-4.96713">
        <ele>281.31</ele>
        <time>2021-04-06T13:18:17Z</time>
      </trkpt>
      <trkpt lat="57.0877" lon="-4.96739">
        <ele>281.4</ele>
        <time>2021-04-06T13:18:20Z</time>
      </trkpt>
      <trkpt lat="57.08773" lon="-4.96775">
        <ele>281.8</ele>
        <time>2021-04-06T13:18:23Z</time>
      </trkpt>
      <trkpt lat="57.08772" lon="-4.96808">
        <ele>280.58</ele>
        <time>2021-04-06T13:18:26Z</time>
      </trkpt>
      <trkpt lat="57.08766" lon="-4.96859">
        <ele>277.87</ele>
        <time>2021-04-06T13:18:29Z</time>
      </trkpt>
      <trkpt lat="57.08731" lon="-4.97025">
        <ele>276.19</ele>
        <time>2021-04-06T13:18:32Z</time>
      </trkpt>
      <trkpt lat="57.08727" lon="-4.97072">
        <ele>277.22</ele>
        <time>2021-04-06T13:18:35Z</time>
      </trkpt>
      <trkpt lat="57.08725" lon="-4.97116">
        <ele>277.91</ele>
        <time>2021-04-06T13:18:38Z</time>
      </trkpt>
      <trkpt lat="57.08729" lon="-4.97158">
        <ele>280.47</ele>
        <time>2021-04-06T13:18:40Z</time>
      </trkpt>
      <trkpt lat="57.08764" lon="-4.97383">
        <ele>288.46</ele>
        <time>2021-04-06T13:18:43Z</time>
      </trkpt>
      <trkpt lat="57.08767" lon="-4.97436">
        <ele>289.84</ele>
        <time>2021-04-06T13:18:46Z</time>
      </trkpt>
      <trkpt lat="57.08766" lon="-4.97495">
        <ele>289.7</ele>
        <time>2021-04-06T13:18:49Z</time>
      </trkpt>
      <trkpt lat="57.08761" lon="-4.9756">
        <ele>291.7</ele>
        <time>2021-04-06T13:18:52Z</time>
      </trkpt>
      <trkpt lat="57.08753" lon="-4.97649">
        <ele>296.7</ele>
        <time>2021-04-06T13:18:55Z</time>
      </trkpt>
      <trkpt lat="57.0875" lon="-4.97741">
        <ele>296.98</ele>
        <time>2021-04-06T13:18:58Z</time>
      </trkpt>
      <trkpt lat="57.0875" lon="-4.97796">
        <ele>296.98</ele>
        <time>2021-04-06T13:19:01Z</time>
      </trkpt>
      <trkpt lat="57.08753" lon="-4.9785">
        <ele>296.87</ele>
        <time>2021-04-06T13:19:04Z</time>
      </trkpt>
      <trkpt lat="57.08761" lon="-4.97907">
        <ele>296.27</ele>
        <time>2021-04-06T13:19:07Z</time>
      </trkpt>
      <trkpt lat="57.08791" lon="-4.98014">
        <ele>295.37</ele>
        <time>2021-04-06T13:19:10Z</time>
      </trkpt>
      <trkpt lat="57.08809" lon="-4.98058">
        <ele>296.36</ele>
        <time>2021-04-06T13:19:13Z</time>
      </trkpt>
      <trkpt lat="57.08823" lon="-4.98083">
        <ele>296.16</ele>
        <time>2021-04-06T13:19:16Z</time>
      </trkpt>
      <trkpt lat="57.08838" lon="-4.98101">
        <ele>297.47</ele>
        <time>2021-04-06T13:19:19Z</time>
      </trkpt>
      <trkpt lat="57.08881" lon="-4.98126">
        <ele>299.73</ele>
        <time>2021-04-06T13:19:22Z</time>
      </trkpt>
      <trkpt lat="57.08934" lon="-4.98136">
        <ele>303.14</ele>
        <time>2021-04-06T13:19:25Z</time>
      </trkpt>
      <trkpt lat="57.08951" lon="-4.98143">
        <ele>304.31</ele>
        <time>2021-04-06T13:19:28Z</time>
      </trkpt>
      <trkpt lat="57.08973" lon="-4.98158">
        <ele>305.79</ele>
        <time>2021-04-06T13:19:31Z</time>
      </trkpt>
      <trkpt lat="57.09006" lon="-4.98193">
        <ele>308.66</ele>
        <time>2021-04-06T13:19:34Z</time>
      </trkpt>
      <trkpt lat="57.09022" lon="-4.98224">
        <ele>308.45</ele>
        <time>2021-04-06T13:19:36Z</time>
      </trkpt>
      <trkpt lat="57.09072" lon="-4.98341">
        <ele>310.7</ele>
        <time>2021-04-06T13:19:39Z</time>
      </trkpt>
      <trkpt lat="57.0921" lon="-4.98581">
        <ele>321.83</ele>
        <time>2021-04-06T13:19:42Z</time>
      </trkpt>
      <trkpt lat="57.09224" lon="-4.98599">
        <ele>323.16</ele>
        <time>2021-04-06T13:19:45Z</time>
      </trkpt>
      <trkpt lat="57.09283" lon="-4.98666">
        <ele>326.53</ele>
        <time>2021-04-06T13:19:48Z</time>
      </trkpt>
      <trkpt lat="57.09301" lon="-4.98693">
        <ele>327.55</ele>
        <time>2021-04-06T13:19:51Z</time>
      </trkpt>
      <trkpt lat="57.09314" lon="-4.98719">
        <ele>328.59</ele>
        <time>2021-04-06T13:19:54Z</time>
      </trkpt>
      <trkpt lat="57.09326" lon="-4.98752">
        <ele>328.44</ele>
        <time>2021-04-06T13:19:57Z</time>
      </trkpt>
      <trkpt lat="57.09337" lon="-4.98811">
        <ele>329.24</ele>
        <time>2021-04-06T13:20:00Z</time>
      </trkpt>
      <trkpt lat="57.09368" lon="-4.99103">
        <ele>341.45</ele>
        <time>2021-04-06T13:20:03Z</time>
      </trkpt>
      <trkpt lat="57.0938" lon="-4.99167">
        <ele>343</ele>
        <time>2021-04-06T13:20:06Z</time>
      </trkpt>
      <trkpt lat="57.09417" lon="-4.99302">
        <ele>344.17</ele>
        <time>2021-04-06T13:20:09Z</time>
      </trkpt>
      <trkpt lat="57.09432" lon="-4.9934">
        <ele>344.67</ele>
        <time>2021-04-06T13:20:12Z</time>
      </trkpt>
      <trkpt lat="57.09459" lon="-4.99382">
        <ele>347.04</ele>
        <time>2021-04-06T13:20:15Z</time>
      </trkpt>
      <trkpt lat="57.09459" lon="-4.99382">
        <ele>347.04</ele>
        <time>2021-04-06T13:20:15Z</time>
      </trkpt>
      <trkpt lat="57.09487" lon="-4.9941">
        <ele>348.53</ele>
        <time>2021-04-06T13:20:18Z</time>
      </trkpt>
      <trkpt lat="57.09518" lon="-4.99435">
        <ele>349</ele>
        <time>2021-04-06T13:20:21Z</time>
      </trkpt>
      <trkpt lat="57.09574" lon="-4.99477">
        <ele>348</ele>
        <time>2021-04-06T13:20:24Z</time>
      </trkpt>
      <trkpt lat="57.09604" lon="-4.99492">
        <ele>347.27</ele>
        <time>2021-04-06T13:20:27Z</time>
      </trkpt>
      <trkpt lat="57.09628" lon="-4.99497">
        <ele>345.85</ele>
        <time>2021-04-06T13:20:30Z</time>
      </trkpt>
      <trkpt lat="57.09663" lon="-4.99496">
        <ele>344.16</ele>
        <time>2021-04-06T13:20:32Z</time>
      </trkpt>
      <trkpt lat="57.09702" lon="-4.995">
        <ele>343</ele>
        <time>2021-04-06T13:20:35Z</time>
      </trkpt>
      <trkpt lat="57.09742" lon="-4.99508">
        <ele>343.2</ele>
        <time>2021-04-06T13:20:38Z</time>
      </trkpt>
      <trkpt lat="57.09798" lon="-4.99516">
        <ele>341.27</ele>
        <time>2021-04-06T13:20:41Z</time>
      </trkpt>
      <trkpt lat="57.09846" lon="-4.9951">
        <ele>340.65</ele>
        <time>2021-04-06T13:20:44Z</time>
      </trkpt>
      <trkpt lat="57.09871" lon="-4.99499">
        <ele>340.08</ele>
        <time>2021-04-06T13:20:47Z</time>
      </trkpt>
      <trkpt lat="57.09891" lon="-4.99487">
        <ele>338.79</ele>
        <time>2021-04-06T13:20:50Z</time>
      </trkpt>
      <trkpt lat="57.09914" lon="-4.99466">
        <ele>338.81</ele>
        <time>2021-04-06T13:20:53Z</time>
      </trkpt>
      <trkpt lat="57.09949" lon="-4.99426">
        <ele>337.96</ele>
        <time>2021-04-06T13:20:56Z</time>
      </trkpt>
      <trkpt lat="57.10001" lon="-4.99358">
        <ele>335.17</ele>
        <time>2021-04-06T13:20:59Z</time>
      </trkpt>
      <trkpt lat="57.10088" lon="-4.99235">
        <ele>333.13</ele>
        <time>2021-04-06T13:21:02Z</time>
      </trkpt>
      <trkpt lat="57.10208" lon="-4.9902">
        <ele>325.92</ele>
        <time>2021-04-06T13:21:05Z</time>
      </trkpt>
      <trkpt lat="57.10266" lon="-4.9892">
        <ele>325.51</ele>
        <time>2021-04-06T13:21:08Z</time>
      </trkpt>
      <trkpt lat="57.10405" lon="-4.98741">
        <ele>322.52</ele>
        <time>2021-04-06T13:21:11Z</time>
      </trkpt>
      <trkpt lat="57.1045" lon="-4.9869">
        <ele>321.36</ele>
        <time>2021-04-06T13:21:14Z</time>
      </trkpt>
      <trkpt lat="57.10496" lon="-4.98647">
        <ele>316.21</ele>
        <time>2021-04-06T13:21:17Z</time>
      </trkpt>
      <trkpt lat="57.1068" lon="-4.98491">
        <ele>313.6</ele>
        <time>2021-04-06T13:21:20Z</time>
      </trkpt>
      <trkpt lat="57.10705" lon="-4.98481">
        <ele>312.34</ele>
        <time>2021-04-06T13:21:23Z</time>
      </trkpt>
      <trkpt lat="57.10737" lon="-4.98479">
        <ele>310.77</ele>
        <time>2021-04-06T13:21:26Z</time>
      </trkpt>
      <trkpt lat="57.10794" lon="-4.98493">
        <ele>307.59</ele>
        <time>2021-04-06T13:21:29Z</time>
      </trkpt>
      <trkpt lat="57.1082" lon="-4.98492">
        <ele>307.04</ele>
        <time>2021-04-06T13:21:31Z</time>
      </trkpt>
      <trkpt lat="57.10846" lon="-4.98482">
        <ele>307.27</ele>
        <time>2021-04-06T13:21:34Z</time>
      </trkpt>
      <trkpt lat="57.11117" lon="-4.98355">
        <ele>302.38</ele>
        <time>2021-04-06T13:21:37Z</time>
      </trkpt>
      <trkpt lat="57.11162" lon="-4.98336">
        <ele>300.15</ele>
        <time>2021-04-06T13:21:40Z</time>
      </trkpt>
      <trkpt lat="57.11193" lon="-4.98329">
        <ele>297.55</ele>
        <time>2021-04-06T13:21:43Z</time>
      </trkpt>
      <trkpt lat="57.11263" lon="-4.98328">
        <ele>292.2</ele>
        <time>2021-04-06T13:21:46Z</time>
      </trkpt>
      <trkpt lat="57.11376" lon="-4.98352">
        <ele>287.15</ele>
        <time>2021-04-06T13:21:49Z</time>
      </trkpt>
      <trkpt lat="57.11404" lon="-4.98351">
        <ele>286.89</ele>
        <time>2021-04-06T13:21:52Z</time>
      </trkpt>
      <trkpt lat="57.11434" lon="-4.98346">
        <ele>286.72</ele>
        <time>2021-04-06T13:21:55Z</time>
      </trkpt>
      <trkpt lat="57.11501" lon="-4.98327">
        <ele>287.67</ele>
        <time>2021-04-06T13:21:58Z</time>
      </trkpt>
      <trkpt lat="57.11523" lon="-4.9831">
        <ele>287.19</ele>
        <time>2021-04-06T13:22:01Z</time>
      </trkpt>
      <trkpt lat="57.11543" lon="-4.98289">
        <ele>286.09</ele>
        <time>2021-04-06T13:22:04Z</time>
      </trkpt>
      <trkpt lat="57.11614" lon="-4.98203">
        <ele>281.09</ele>
        <time>2021-04-06T13:22:07Z</time>
      </trkpt>
      <trkpt lat="57.11849" lon="-4.97914">
        <ele>270.55</ele>
        <time>2021-04-06T13:22:10Z</time>
      </trkpt>
      <trkpt lat="57.11896" lon="-4.97855">
        <ele>272.55</ele>
        <time>2021-04-06T13:22:13Z</time>
      </trkpt>
      <trkpt lat="57.11944" lon="-4.97783">
        <ele>270.47</ele>
        <time>2021-04-06T13:22:16Z</time>
      </trkpt>
      <trkpt lat="57.11992" lon="-4.97692">
        <ele>271</ele>
        <time>2021-04-06T13:22:19Z</time>
      </trkpt>
      <trkpt lat="57.12074" lon="-4.9749">
        <ele>272.08</ele>
        <time>2021-04-06T13:22:22Z</time>
      </trkpt>
      <trkpt lat="57.12107" lon="-4.97416">
        <ele>268.86</ele>
        <time>2021-04-06T13:22:25Z</time>
      </trkpt>
      <trkpt lat="57.12205" lon="-4.97246">
        <ele>262.4</ele>
        <time>2021-04-06T13:22:28Z</time>
      </trkpt>
      <trkpt lat="57.12229" lon="-4.97213">
        <ele>260.09</ele>
        <time>2021-04-06T13:22:30Z</time>
      </trkpt>
      <trkpt lat="57.12256" lon="-4.97185">
        <ele>258.1</ele>
        <time>2021-04-06T13:22:33Z</time>
      </trkpt>
      <trkpt lat="57.12282" lon="-4.97168">
        <ele>257.33</ele>
        <time>2021-04-06T13:22:36Z</time>
      </trkpt>
      <trkpt lat="57.12321" lon="-4.97148">
        <ele>252.95</ele>
        <time>2021-04-06T13:22:39Z</time>
      </trkpt>
      <trkpt lat="57.12362" lon="-4.9712">
        <ele>249.18</ele>
        <time>2021-04-06T13:22:42Z</time>
      </trkpt>
      <trkpt lat="57.12448" lon="-4.97046">
        <ele>244.5</ele>
        <time>2021-04-06T13:22:45Z</time>
      </trkpt>
      <trkpt lat="57.12469" lon="-4.97021">
        <ele>241.66</ele>
        <time>2021-04-06T13:22:48Z</time>
      </trkpt>
      <trkpt lat="57.12484" lon="-4.96997">
        <ele>241.14</ele>
        <time>2021-04-06T13:22:51Z</time>
      </trkpt>
      <trkpt lat="57.12499" lon="-4.96961">
        <ele>240.1</ele>
        <time>2021-04-06T13:22:54Z</time>
      </trkpt>
      <trkpt lat="57.12519" lon="-4.9689">
        <ele>238.02</ele>
        <time>2021-04-06T13:22:57Z</time>
      </trkpt>
      <trkpt lat="57.12581" lon="-4.96656">
        <ele>227.72</ele>
        <time>2021-04-06T13:23:00Z</time>
      </trkpt>
      <trkpt lat="57.12592" lon="-4.96618">
        <ele>226.98</ele>
        <time>2021-04-06T13:23:03Z</time>
      </trkpt>
      <trkpt lat="57.12609" lon="-4.96577">
        <ele>224.66</ele>
        <time>2021-04-06T13:23:06Z</time>
      </trkpt>
      <trkpt lat="57.12628" lon="-4.9655">
        <ele>223.41</ele>
        <time>2021-04-06T13:23:09Z</time>
      </trkpt>
      <trkpt lat="57.12642" lon="-4.96534">
        <ele>222.43</ele>
        <time>2021-04-06T13:23:12Z</time>
      </trkpt>
      <trkpt lat="57.12738" lon="-4.96465">
        <ele>213.47</ele>
        <time>2021-04-06T13:23:15Z</time>
      </trkpt>
      <trkpt lat="57.12769" lon="-4.96436">
        <ele>211.66</ele>
        <time>2021-04-06T13:23:18Z</time>
      </trkpt>
      <trkpt lat="57.12789" lon="-4.96404">
        <ele>211.05</ele>
        <time>2021-04-06T13:23:21Z</time>
      </trkpt>
      <trkpt lat="57.1284" lon="-4.96303">
        <ele>210.47</ele>
        <time>2021-04-06T13:23:24Z</time>
      </trkpt>
      <trkpt lat="57.12854" lon="-4.96283">
        <ele>209.75</ele>
        <time>2021-04-06T13:23:27Z</time>
      </trkpt>
      <trkpt lat="57.12872" lon="-4.96264">
        <ele>208.61</ele>
        <time>2021-04-06T13:23:29Z</time>
      </trkpt>
      <trkpt lat="57.12885" lon="-4.96255">
        <ele>207.4</ele>
        <time>2021-04-06T13:23:32Z</time>
      </trkpt>
      <trkpt lat="57.12956" lon="-4.96221">
        <ele>205.6</ele>
        <time>2021-04-06T13:23:35Z</time>
      </trkpt>
      <trkpt lat="57.12993" lon="-4.96199">
        <ele>204.27</ele>
        <time>2021-04-06T13:23:38Z</time>
      </trkpt>
      <trkpt lat="57.13025" lon="-4.96171">
        <ele>204.08</ele>
        <time>2021-04-06T13:23:41Z</time>
      </trkpt>
      <trkpt lat="57.13056" lon="-4.96133">
        <ele>204</ele>
        <time>2021-04-06T13:23:44Z</time>
      </trkpt>
      <trkpt lat="57.13104" lon="-4.96058">
        <ele>203</ele>
        <time>2021-04-06T13:23:47Z</time>
      </trkpt>
      <trkpt lat="57.13127" lon="-4.96017">
        <ele>203.75</ele>
        <time>2021-04-06T13:23:50Z</time>
      </trkpt>
      <trkpt lat="57.13192" lon="-4.9586">
        <ele>204.15</ele>
        <time>2021-04-06T13:23:53Z</time>
      </trkpt>
      <trkpt lat="57.13216" lon="-4.95821">
        <ele>202.72</ele>
        <time>2021-04-06T13:23:56Z</time>
      </trkpt>
      <trkpt lat="57.13235" lon="-4.95801">
        <ele>202.08</ele>
        <time>2021-04-06T13:23:59Z</time>
      </trkpt>
      <trkpt lat="57.13255" lon="-4.95786">
        <ele>202.05</ele>
        <time>2021-04-06T13:24:02Z</time>
      </trkpt>
      <trkpt lat="57.13294" lon="-4.95762">
        <ele>202.57</ele>
        <time>2021-04-06T13:24:05Z</time>
      </trkpt>
      <trkpt lat="57.1332" lon="-4.95742">
        <ele>203.23</ele>
        <time>2021-04-06T13:24:08Z</time>
      </trkpt>
      <trkpt lat="57.13346" lon="-4.95717">
        <ele>203.46</ele>
        <time>2021-04-06T13:24:11Z</time>
      </trkpt>
      <trkpt lat="57.13373" lon="-4.95678">
        <ele>203.42</ele>
        <time>2021-04-06T13:24:14Z</time>
      </trkpt>
      <trkpt lat="57.13428" lon="-4.95585">
        <ele>203</ele>
        <time>2021-04-06T13:24:17Z</time>
      </trkpt>
      <trkpt lat="57.13449" lon="-4.95558">
        <ele>203.01</ele>
        <time>2021-04-06T13:24:20Z</time>
      </trkpt>
      <trkpt lat="57.13467" lon="-4.95541">
        <ele>203</ele>
        <time>2021-04-06T13:24:23Z</time>
      </trkpt>
      <trkpt lat="57.13496" lon="-4.95524">
        <ele>202</ele>
        <time>2021-04-06T13:24:26Z</time>
      </trkpt>
      <trkpt lat="57.13536" lon="-4.95515">
        <ele>201.71</ele>
        <time>2021-04-06T13:24:28Z</time>
      </trkpt>
      <trkpt lat="57.13568" lon="-4.95512">
        <ele>201.86</ele>
        <time>2021-04-06T13:24:31Z</time>
      </trkpt>
      <trkpt lat="57.13597" lon="-4.95504">
        <ele>201.76</ele>
        <time>2021-04-06T13:24:34Z</time>
      </trkpt>
      <trkpt lat="57.13719" lon="-4.95448">
        <ele>200.23</ele>
        <time>2021-04-06T13:24:37Z</time>
      </trkpt>
      <trkpt lat="57.13782" lon="-4.95402">
        <ele>197.6</ele>
        <time>2021-04-06T13:24:40Z</time>
      </trkpt>
      <trkpt lat="57.13811" lon="-4.95387">
        <ele>197.94</ele>
        <time>2021-04-06T13:24:43Z</time>
      </trkpt>
      <trkpt lat="57.13956" lon="-4.95302">
        <ele>198.43</ele>
        <time>2021-04-06T13:24:46Z</time>
      </trkpt>
      <trkpt lat="57.14043" lon="-4.95229">
        <ele>195.78</ele>
        <time>2021-04-06T13:24:49Z</time>
      </trkpt>
      <trkpt lat="57.14077" lon="-4.95204">
        <ele>195.7</ele>
        <time>2021-04-06T13:24:52Z</time>
      </trkpt>
      <trkpt lat="57.14097" lon="-4.95196">
        <ele>195.15</ele>
        <time>2021-04-06T13:24:55Z</time>
      </trkpt>
      <trkpt lat="57.14116" lon="-4.95191">
        <ele>194.39</ele>
        <time>2021-04-06T13:24:58Z</time>
      </trkpt>
      <trkpt lat="57.14136" lon="-4.95195">
        <ele>194.11</ele>
        <time>2021-04-06T13:25:01Z</time>
      </trkpt>
      <trkpt lat="57.14168" lon="-4.95217">
        <ele>192.41</ele>
        <time>2021-04-06T13:25:04Z</time>
      </trkpt>
      <trkpt lat="57.14177" lon="-4.9523">
        <ele>190.76</ele>
        <time>2021-04-06T13:25:07Z</time>
      </trkpt>
      <trkpt lat="57.14193" lon="-4.95261">
        <ele>187.89</ele>
        <time>2021-04-06T13:25:10Z</time>
      </trkpt>
      <trkpt lat="57.14208" lon="-4.95304">
        <ele>186.13</ele>
        <time>2021-04-06T13:25:13Z</time>
      </trkpt>
      <trkpt lat="57.14219" lon="-4.95355">
        <ele>184.04</ele>
        <time>2021-04-06T13:25:16Z</time>
      </trkpt>
      <trkpt lat="57.14242" lon="-4.95486">
        <ele>177.67</ele>
        <time>2021-04-06T13:25:19Z</time>
      </trkpt>
      <trkpt lat="57.14257" lon="-4.95607">
        <ele>176.54</ele>
        <time>2021-04-06T13:25:22Z</time>
      </trkpt>
      <trkpt lat="57.14266" lon="-4.95648">
        <ele>178.08</ele>
        <time>2021-04-06T13:25:25Z</time>
      </trkpt>
      <trkpt lat="57.14279" lon="-4.95679">
        <ele>177.53</ele>
        <time>2021-04-06T13:25:27Z</time>
      </trkpt>
      <trkpt lat="57.14294" lon="-4.95705">
        <ele>177.13</ele>
        <time>2021-04-06T13:25:30Z</time>
      </trkpt>
      <trkpt lat="57.14314" lon="-4.95728">
        <ele>174.65</ele>
        <time>2021-04-06T13:25:33Z</time>
      </trkpt>
      <trkpt lat="57.14366" lon="-4.95779">
        <ele>170.53</ele>
        <time>2021-04-06T13:25:36Z</time>
      </trkpt>
      <trkpt lat="57.14395" lon="-4.95802">
        <ele>169.6</ele>
        <time>2021-04-06T13:25:39Z</time>
      </trkpt>
      <trkpt lat="57.14432" lon="-4.95813">
        <ele>165.75</ele>
        <time>2021-04-06T13:25:42Z</time>
      </trkpt>
      <trkpt lat="57.14538" lon="-4.95822">
        <ele>156.93</ele>
        <time>2021-04-06T13:25:45Z</time>
      </trkpt>
      <trkpt lat="57.14604" lon="-4.9585">
        <ele>155.89</ele>
        <time>2021-04-06T13:25:48Z</time>
      </trkpt>
      <trkpt lat="57.14604" lon="-4.9585">
        <ele>156.69</ele>
        <time>2021-04-06T13:25:48Z</time>
      </trkpt>
      <trkpt lat="57.14604" lon="-4.9585">
        <ele>156.69</ele>
        <time>2021-04-06T13:25:48Z</time>
      </trkpt>
      <trkpt lat="57.14565" lon="-4.96119">
        <ele>157.5</ele>
        <time>2021-04-06T13:25:52Z</time>
      </trkpt>
      <trkpt lat="57.14541" lon="-4.96351">
        <ele>157.76</ele>
        <time>2021-04-06T13:25:56Z</time>
      </trkpt>
      <trkpt lat="57.1452" lon="-4.96616">
        <ele>158.96</ele>
        <time>2021-04-06T13:26:00Z</time>
      </trkpt>
      <trkpt lat="57.14516" lon="-4.9675">
        <ele>160.12</ele>
        <time>2021-04-06T13:26:04Z</time>
      </trkpt>
      <trkpt lat="57.14527" lon="-4.96931">
        <ele>158.97</ele>
        <time>2021-04-06T13:26:07Z</time>
      </trkpt>
      <trkpt lat="57.14543" lon="-4.97049">
        <ele>160.22</ele>
        <time>2021-04-06T13:26:11Z</time>
      </trkpt>
      <trkpt lat="57.14555" lon="-4.97156">
        <ele>161.99</ele>
        <time>2021-04-06T13:26:15Z</time>
      </trkpt>
      <trkpt lat="57.14571" lon="-4.97364">
        <ele>161.62</ele>
        <time>2021-04-06T13:26:19Z</time>
      </trkpt>
      <trkpt lat="57.14572" lon="-4.97444">
        <ele>161.81</ele>
        <time>2021-04-06T13:26:23Z</time>
      </trkpt>
      <trkpt lat="57.14569" lon="-4.9752">
        <ele>162.3</ele>
        <time>2021-04-06T13:26:26Z</time>
      </trkpt>
      <trkpt lat="57.14561" lon="-4.97597">
        <ele>161.58</ele>
        <time>2021-04-06T13:26:30Z</time>
      </trkpt>
      <trkpt lat="57.14549" lon="-4.97668">
        <ele>161.35</ele>
        <time>2021-04-06T13:26:34Z</time>
      </trkpt>
      <trkpt lat="57.14534" lon="-4.97729">
        <ele>160.93</ele>
        <time>2021-04-06T13:26:38Z</time>
      </trkpt>
      <trkpt lat="57.14519" lon="-4.97779">
        <ele>161.45</ele>
        <time>2021-04-06T13:26:42Z</time>
      </trkpt>
      <trkpt lat="57.14499" lon="-4.97836">
        <ele>161.07</ele>
        <time>2021-04-06T13:26:46Z</time>
      </trkpt>
      <trkpt lat="57.14477" lon="-4.97909">
        <ele>162.13</ele>
        <time>2021-04-06T13:26:49Z</time>
      </trkpt>
      <trkpt lat="57.14456" lon="-4.98004">
        <ele>164.03</ele>
        <time>2021-04-06T13:26:53Z</time>
      </trkpt>
      <trkpt lat="57.14447" lon="-4.98067">
        <ele>166.98</ele>
        <time>2021-04-06T13:26:57Z</time>
      </trkpt>
      <trkpt lat="57.14442" lon="-4.98137">
        <ele>171.57</ele>
        <time>2021-04-06T13:27:01Z</time>
      </trkpt>
      <trkpt lat="57.14439" lon="-4.98214">
        <ele>173.18</ele>
        <time>2021-04-06T13:27:05Z</time>
      </trkpt>
      <trkpt lat="57.14441" lon="-4.98282">
        <ele>170.76</ele>
        <time>2021-04-06T13:27:09Z</time>
      </trkpt>
      <trkpt lat="57.14454" lon="-4.98399">
        <ele>173.03</ele>
        <time>2021-04-06T13:27:12Z</time>
      </trkpt>
      <trkpt lat="57.14469" lon="-4.98475">
        <ele>172.65</ele>
        <time>2021-04-06T13:27:16Z</time>
      </trkpt>
      <trkpt lat="57.14528" lon="-4.98643">
        <ele>169.7</ele>
        <time>2021-04-06T13:27:20Z</time>
      </trkpt>
      <trkpt lat="57.14539" lon="-4.98682">
        <ele>169.06</ele>
        <time>2021-04-06T13:27:24Z</time>
      </trkpt>
      <trkpt lat="57.14558" lon="-4.98759">
        <ele>170.07</ele>
        <time>2021-04-06T13:27:28Z</time>
      </trkpt>
      <trkpt lat="57.14571" lon="-4.98857">
        <ele>171.01</ele>
        <time>2021-04-06T13:27:31Z</time>
      </trkpt>
      <trkpt lat="57.14573" lon="-4.98885">
        <ele>171.23</ele>
        <time>2021-04-06T13:27:35Z</time>
      </trkpt>
      <trkpt lat="57.14573" lon="-4.98995">
        <ele>175.11</ele>
        <time>2021-04-06T13:27:39Z</time>
      </trkpt>
      <trkpt lat="57.14563" lon="-4.99213">
        <ele>188.47</ele>
        <time>2021-04-06T13:27:43Z</time>
      </trkpt>
      <trkpt lat="57.14562" lon="-4.99342">
        <ele>189.27</ele>
        <time>2021-04-06T13:27:47Z</time>
      </trkpt>
      <trkpt lat="57.14576" lon="-4.99471">
        <ele>192.7</ele>
        <time>2021-04-06T13:27:51Z</time>
      </trkpt>
      <trkpt lat="57.14613" lon="-4.99664">
        <ele>200.48</ele>
        <time>2021-04-06T13:27:54Z</time>
      </trkpt>
      <trkpt lat="57.14656" lon="-4.99874">
        <ele>208.5</ele>
        <time>2021-04-06T13:27:58Z</time>
      </trkpt>
      <trkpt lat="57.14672" lon="-5.00055">
        <ele>215.5</ele>
        <time>2021-04-06T13:28:02Z</time>
      </trkpt>
      <trkpt lat="57.14698" lon="-5.00483">
        <ele>219.4</ele>
        <time>2021-04-06T13:28:06Z</time>
      </trkpt>
      <trkpt lat="57.14711" lon="-5.00578">
        <ele>218.98</ele>
        <time>2021-04-06T13:28:10Z</time>
      </trkpt>
      <trkpt lat="57.14727" lon="-5.00669">
        <ele>220.57</ele>
        <time>2021-04-06T13:28:13Z</time>
      </trkpt>
      <trkpt lat="57.14796" lon="-5.00953">
        <ele>222.46</ele>
        <time>2021-04-06T13:28:17Z</time>
      </trkpt>
      <trkpt lat="57.14809" lon="-5.01025">
        <ele>223.6</ele>
        <time>2021-04-06T13:28:21Z</time>
      </trkpt>
      <trkpt lat="57.14816" lon="-5.01087">
        <ele>223.87</ele>
        <time>2021-04-06T13:28:25Z</time>
      </trkpt>
      <trkpt lat="57.14819" lon="-5.01144">
        <ele>223.37</ele>
        <time>2021-04-06T13:28:29Z</time>
      </trkpt>
      <trkpt lat="57.1482" lon="-5.01216">
        <ele>223.08</ele>
        <time>2021-04-06T13:28:33Z</time>
      </trkpt>
      <trkpt lat="57.14816" lon="-5.01299">
        <ele>224.01</ele>
        <time>2021-04-06T13:28:36Z</time>
      </trkpt>
      <trkpt lat="57.14804" lon="-5.01445">
        <ele>223.72</ele>
        <time>2021-04-06T13:28:40Z</time>
      </trkpt>
      <trkpt lat="57.14804" lon="-5.01503">
        <ele>223.57</ele>
        <time>2021-04-06T13:28:44Z</time>
      </trkpt>
      <trkpt lat="57.1481" lon="-5.01668">
        <ele>223.02</ele>
        <time>2021-04-06T13:28:48Z</time>
      </trkpt>
      <trkpt lat="57.14843" lon="-5.02002">
        <ele>221.99</ele>
        <time>2021-04-06T13:28:52Z</time>
      </trkpt>
      <trkpt lat="57.14847" lon="-5.02071">
        <ele>222.41</ele>
        <time>2021-04-06T13:28:56Z</time>
      </trkpt>
      <trkpt lat="57.14849" lon="-5.02145">
        <ele>222.37</ele>
        <time>2021-04-06T13:28:59Z</time>
      </trkpt>
      <trkpt lat="57.14838" lon="-5.02359">
        <ele>222.03</ele>
        <time>2021-04-06T13:29:03Z</time>
      </trkpt>
      <trkpt lat="57.14838" lon="-5.02413">
        <ele>221.35</ele>
        <time>2021-04-06T13:29:07Z</time>
      </trkpt>
      <trkpt lat="57.1484" lon="-5.02469">
        <ele>222.64</ele>
        <time>2021-04-06T13:29:11Z</time>
      </trkpt>
      <trkpt lat="57.14851" lon="-5.02565">
        <ele>224.05</ele>
        <time>2021-04-06T13:29:15Z</time>
      </trkpt>
      <trkpt lat="57.14862" lon="-5.02637">
        <ele>224.3</ele>
        <time>2021-04-06T13:29:18Z</time>
      </trkpt>
      <trkpt lat="57.14913" lon="-5.02873">
        <ele>225.95</ele>
        <time>2021-04-06T13:29:22Z</time>
      </trkpt>
      <trkpt lat="57.1494" lon="-5.03006">
        <ele>221.94</ele>
        <time>2021-04-06T13:29:26Z</time>
      </trkpt>
      <trkpt lat="57.14952" lon="-5.03104">
        <ele>222.8</ele>
        <time>2021-04-06T13:29:30Z</time>
      </trkpt>
      <trkpt lat="57.14957" lon="-5.03192">
        <ele>224.6</ele>
        <time>2021-04-06T13:29:34Z</time>
      </trkpt>
      <trkpt lat="57.14959" lon="-5.03312">
        <ele>225.63</ele>
        <time>2021-04-06T13:29:38Z</time>
      </trkpt>
      <trkpt lat="57.14964" lon="-5.03412">
        <ele>225.61</ele>
        <time>2021-04-06T13:29:41Z</time>
      </trkpt>
      <trkpt lat="57.14977" lon="-5.03531">
        <ele>223.6</ele>
        <time>2021-04-06T13:29:45Z</time>
      </trkpt>
      <trkpt lat="57.15011" lon="-5.03737">
        <ele>223.41</ele>
        <time>2021-04-06T13:29:49Z</time>
      </trkpt>
      <trkpt lat="57.15023" lon="-5.03844">
        <ele>224.46</ele>
        <time>2021-04-06T13:29:53Z</time>
      </trkpt>
      <trkpt lat="57.15026" lon="-5.03904">
        <ele>225.36</ele>
        <time>2021-04-06T13:29:57Z</time>
      </trkpt>
      <trkpt lat="57.15026" lon="-5.03992">
        <ele>227.45</ele>
        <time>2021-04-06T13:30:01Z</time>
      </trkpt>
      <trkpt lat="57.15019" lon="-5.04072">
        <ele>226.29</ele>
        <time>2021-04-06T13:30:04Z</time>
      </trkpt>
      <trkpt lat="57.15004" lon="-5.04178">
        <ele>224.87</ele>
        <time>2021-04-06T13:30:08Z</time>
      </trkpt>
      <trkpt lat="57.14998" lon="-5.04203">
        <ele>224.78</ele>
        <time>2021-04-06T13:30:12Z</time>
      </trkpt>
      <trkpt lat="57.14986" lon="-5.04256">
        <ele>224.69</ele>
        <time>2021-04-06T13:30:16Z</time>
      </trkpt>
      <trkpt lat="57.14828" lon="-5.0487">
        <ele>232.31</ele>
        <time>2021-04-06T13:30:20Z</time>
      </trkpt>
      <trkpt lat="57.14795" lon="-5.05037">
        <ele>232.05</ele>
        <time>2021-04-06T13:30:23Z</time>
      </trkpt>
      <trkpt lat="57.14777" lon="-5.05178">
        <ele>230.89</ele>
        <time>2021-04-06T13:30:27Z</time>
      </trkpt>
      <trkpt lat="57.14759" lon="-5.0535">
        <ele>228.01</ele>
        <time>2021-04-06T13:30:31Z</time>
      </trkpt>
      <trkpt lat="57.14739" lon="-5.05509">
        <ele>223.58</ele>
        <time>2021-04-06T13:30:35Z</time>
      </trkpt>
      <trkpt lat="57.14727" lon="-5.05655">
        <ele>223.75</ele>
        <time>2021-04-06T13:30:39Z</time>
      </trkpt>
      <trkpt lat="57.14725" lon="-5.05758">
        <ele>222.52</ele>
        <time>2021-04-06T13:30:43Z</time>
      </trkpt>
      <trkpt lat="57.14734" lon="-5.05939">
        <ele>223.19</ele>
        <time>2021-04-06T13:30:46Z</time>
      </trkpt>
      <trkpt lat="57.14754" lon="-5.06194">
        <ele>225.24</ele>
        <time>2021-04-06T13:30:50Z</time>
      </trkpt>
      <trkpt lat="57.14759" lon="-5.06292">
        <ele>226.23</ele>
        <time>2021-04-06T13:30:54Z</time>
      </trkpt>
      <trkpt lat="57.1476" lon="-5.06372">
        <ele>227.18</ele>
        <time>2021-04-06T13:30:58Z</time>
      </trkpt>
      <trkpt lat="57.14752" lon="-5.06467">
        <ele>228.37</ele>
        <time>2021-04-06T13:31:02Z</time>
      </trkpt>
      <trkpt lat="57.14742" lon="-5.06544">
        <ele>228.24</ele>
        <time>2021-04-06T13:31:05Z</time>
      </trkpt>
      <trkpt lat="57.1473" lon="-5.06611">
        <ele>228.6</ele>
        <time>2021-04-06T13:31:09Z</time>
      </trkpt>
      <trkpt lat="57.14704" lon="-5.06707">
        <ele>227.73</ele>
        <time>2021-04-06T13:31:13Z</time>
      </trkpt>
      <trkpt lat="57.1466" lon="-5.06805">
        <ele>222.02</ele>
        <time>2021-04-06T13:31:17Z</time>
      </trkpt>
      <trkpt lat="57.14633" lon="-5.06841">
        <ele>221.08</ele>
        <time>2021-04-06T13:31:21Z</time>
      </trkpt>
      <trkpt lat="57.14625" lon="-5.06848">
        <ele>221.08</ele>
        <time>2021-04-06T13:31:25Z</time>
      </trkpt>
      <trkpt lat="57.14571" lon="-5.06885">
        <ele>218.93</ele>
        <time>2021-04-06T13:31:28Z</time>
      </trkpt>
      <trkpt lat="57.14433" lon="-5.06917">
        <ele>221.41</ele>
        <time>2021-04-06T13:31:32Z</time>
      </trkpt>
      <trkpt lat="57.14406" lon="-5.06926">
        <ele>222.39</ele>
        <time>2021-04-06T13:31:36Z</time>
      </trkpt>
      <trkpt lat="57.14363" lon="-5.06957">
        <ele>222.57</ele>
        <time>2021-04-06T13:31:40Z</time>
      </trkpt>
      <trkpt lat="57.14336" lon="-5.06991">
        <ele>221.84</ele>
        <time>2021-04-06T13:31:44Z</time>
      </trkpt>
      <trkpt lat="57.14315" lon="-5.0703">
        <ele>221.65</ele>
        <time>2021-04-06T13:31:48Z</time>
      </trkpt>
      <trkpt lat="57.14303" lon="-5.07062">
        <ele>220.82</ele>
        <time>2021-04-06T13:31:51Z</time>
      </trkpt>
      <trkpt lat="57.14278" lon="-5.07175">
        <ele>220.35</ele>
        <time>2021-04-06T13:31:55Z</time>
      </trkpt>
      <trkpt lat="57.14266" lon="-5.07269">
        <ele>221.36</ele>
        <time>2021-04-06T13:31:59Z</time>
      </trkpt>
      <trkpt lat="57.14261" lon="-5.07363">
        <ele>222.97</ele>
        <time>2021-04-06T13:32:03Z</time>
      </trkpt>
      <trkpt lat="57.14266" lon="-5.07702">
        <ele>228.33</ele>
        <time>2021-04-06T13:32:07Z</time>
      </trkpt>
      <trkpt lat="57.14276" lon="-5.07968">
        <ele>232.46</ele>
        <time>2021-04-06T13:32:10Z</time>
      </trkpt>
      <trkpt lat="57.14292" lon="-5.08226">
        <ele>232.58</ele>
        <time>2021-04-06T13:32:14Z</time>
      </trkpt>
      <trkpt lat="57.14313" lon="-5.08423">
        <ele>232.94</ele>
        <time>2021-04-06T13:32:18Z</time>
      </trkpt>
      <trkpt lat="57.14346" lon="-5.08586">
        <ele>229.37</ele>
        <time>2021-04-06T13:32:22Z</time>
      </trkpt>
      <trkpt lat="57.14371" lon="-5.08693">
        <ele>227.55</ele>
        <time>2021-04-06T13:32:26Z</time>
      </trkpt>
      <trkpt lat="57.14415" lon="-5.08818">
        <ele>230.85</ele>
        <time>2021-04-06T13:32:30Z</time>
      </trkpt>
      <trkpt lat="57.14454" lon="-5.08917">
        <ele>229.47</ele>
        <time>2021-04-06T13:32:33Z</time>
      </trkpt>
      <trkpt lat="57.14492" lon="-5.08994">
        <ele>229.25</ele>
        <time>2021-04-06T13:32:37Z</time>
      </trkpt>
      <trkpt lat="57.14576" lon="-5.09144">
        <ele>230.05</ele>
        <time>2021-04-06T13:32:41Z</time>
      </trkpt>
      <trkpt lat="57.14633" lon="-5.09263">
        <ele>228.19</ele>
        <time>2021-04-06T13:32:45Z</time>
      </trkpt>
      <trkpt lat="57.1466" lon="-5.09337">
        <ele>229.04</ele>
        <time>2021-04-06T13:32:49Z</time>
      </trkpt>
      <trkpt lat="57.14684" lon="-5.09427">
        <ele>228.08</ele>
        <time>2021-04-06T13:32:53Z</time>
      </trkpt>
      <trkpt lat="57.14723" lon="-5.09616">
        <ele>226.91</ele>
        <time>2021-04-06T13:32:56Z</time>
      </trkpt>
      <trkpt lat="57.14728" lon="-5.09673">
        <ele>226.19</ele>
        <time>2021-04-06T13:33:00Z</time>
      </trkpt>
      <trkpt lat="57.14736" lon="-5.0991">
        <ele>224.33</ele>
        <time>2021-04-06T13:33:04Z</time>
      </trkpt>
      <trkpt lat="57.14736" lon="-5.09942">
        <ele>223.49</ele>
        <time>2021-04-06T13:33:08Z</time>
      </trkpt>
      <trkpt lat="57.14731" lon="-5.1007">
        <ele>219.38</ele>
        <time>2021-04-06T13:33:12Z</time>
      </trkpt>
      <trkpt lat="57.14665" lon="-5.10574">
        <ele>217.33</ele>
        <time>2021-04-06T13:33:15Z</time>
      </trkpt>
      <trkpt lat="57.14639" lon="-5.10809">
        <ele>222.3</ele>
        <time>2021-04-06T13:33:19Z</time>
      </trkpt>
      <trkpt lat="57.14634" lon="-5.10878">
        <ele>225.35</ele>
        <time>2021-04-06T13:33:23Z</time>
      </trkpt>
      <trkpt lat="57.14635" lon="-5.1095">
        <ele>226.12</ele>
        <time>2021-04-06T13:33:27Z</time>
      </trkpt>
      <trkpt lat="57.14651" lon="-5.11045">
        <ele>225.47</ele>
        <time>2021-04-06T13:33:31Z</time>
      </trkpt>
      <trkpt lat="57.14665" lon="-5.11093">
        <ele>225.83</ele>
        <time>2021-04-06T13:33:35Z</time>
      </trkpt>
      <trkpt lat="57.14688" lon="-5.11157">
        <ele>227.56</ele>
        <time>2021-04-06T13:33:38Z</time>
      </trkpt>
      <trkpt lat="57.14779" lon="-5.1132">
        <ele>231.13</ele>
        <time>2021-04-06T13:33:42Z</time>
      </trkpt>
      <trkpt lat="57.14811" lon="-5.1141">
        <ele>230.9</ele>
        <time>2021-04-06T13:33:46Z</time>
      </trkpt>
      <trkpt lat="57.14822" lon="-5.11454">
        <ele>230.49</ele>
        <time>2021-04-06T13:33:50Z</time>
      </trkpt>
      <trkpt lat="57.14828" lon="-5.11511">
        <ele>226.82</ele>
        <time>2021-04-06T13:33:54Z</time>
      </trkpt>
      <trkpt lat="57.14835" lon="-5.11601">
        <ele>228.13</ele>
        <time>2021-04-06T13:33:57Z</time>
      </trkpt>
      <trkpt lat="57.14839" lon="-5.11691">
        <ele>234.21</ele>
        <time>2021-04-06T13:34:01Z</time>
      </trkpt>
      <trkpt lat="57.1485" lon="-5.11783">
        <ele>232.65</ele>
        <time>2021-04-06T13:34:05Z</time>
      </trkpt>
      <trkpt lat="57.14878" lon="-5.1187">
        <ele>232.27</ele>
        <time>2021-04-06T13:34:09Z</time>
      </trkpt>
      <trkpt lat="57.14983" lon="-5.12085">
        <ele>231.14</ele>
        <time>2021-04-06T13:34:13Z</time>
      </trkpt>
      <trkpt lat="57.15059" lon="-5.12233">
        <ele>231.34</ele>
        <time>2021-04-06T13:34:17Z</time>
      </trkpt>
      <trkpt lat="57.15136" lon="-5.12392">
        <ele>230.97</ele>
        <time>2021-04-06T13:34:20Z</time>
      </trkpt>
      <trkpt lat="57.15196" lon="-5.12522">
        <ele>223.05</ele>
        <time>2021-04-06T13:34:24Z</time>
      </trkpt>
      <trkpt lat="57.15239" lon="-5.12623">
        <ele>225.72</ele>
        <time>2021-04-06T13:34:28Z</time>
      </trkpt>
      <trkpt lat="57.1527" lon="-5.12707">
        <ele>228.38</ele>
        <time>2021-04-06T13:34:32Z</time>
      </trkpt>
      <trkpt lat="57.15297" lon="-5.12795">
        <ele>228.47</ele>
        <time>2021-04-06T13:34:36Z</time>
      </trkpt>
      <trkpt lat="57.15317" lon="-5.12882">
        <ele>226.91</ele>
        <time>2021-04-06T13:34:40Z</time>
      </trkpt>
      <trkpt lat="57.15343" lon="-5.13006">
        <ele>223.74</ele>
        <time>2021-04-06T13:34:43Z</time>
      </trkpt>
      <trkpt lat="57.15355" lon="-5.13083">
        <ele>224.1</ele>
        <time>2021-04-06T13:34:47Z</time>
      </trkpt>
      <trkpt lat="57.15366" lon="-5.13186">
        <ele>227.7</ele>
        <time>2021-04-06T13:34:51Z</time>
      </trkpt>
      <trkpt lat="57.15381" lon="-5.13362">
        <ele>231.56</ele>
        <time>2021-04-06T13:34:55Z</time>
      </trkpt>
      <trkpt lat="57.15407" lon="-5.13531">
        <ele>230.45</ele>
        <time>2021-04-06T13:34:59Z</time>
      </trkpt>
      <trkpt lat="57.15507" lon="-5.13964">
        <ele>224.87</ele>
        <time>2021-04-06T13:35:02Z</time>
      </trkpt>
      <trkpt lat="57.15536" lon="-5.14147">
        <ele>222.52</ele>
        <time>2021-04-06T13:35:06Z</time>
      </trkpt>
      <trkpt lat="57.15628" lon="-5.14582">
        <ele>218.63</ele>
        <time>2021-04-06T13:35:10Z</time>
      </trkpt>
      <trkpt lat="57.15732" lon="-5.14997">
        <ele>219.86</ele>
        <time>2021-04-06T13:35:14Z</time>
      </trkpt>
      <trkpt lat="57.1582" lon="-5.15289">
        <ele>218.36</ele>
        <time>2021-04-06T13:35:18Z</time>
      </trkpt>
      <trkpt lat="57.15956" lon="-5.15674">
        <ele>223.5</ele>
        <time>2021-04-06T13:35:22Z</time>
      </trkpt>
      <trkpt lat="57.15976" lon="-5.15745">
        <ele>223.5</ele>
        <time>2021-04-06T13:35:25Z</time>
      </trkpt>
      <trkpt lat="57.15988" lon="-5.15802">
        <ele>221.33</ele>
        <time>2021-04-06T13:35:29Z</time>
      </trkpt>
      <trkpt lat="57.15995" lon="-5.15849">
        <ele>220.63</ele>
        <time>2021-04-06T13:35:33Z</time>
      </trkpt>
      <trkpt lat="57.15999" lon="-5.15898">
        <ele>220.94</ele>
        <time>2021-04-06T13:35:37Z</time>
      </trkpt>
      <trkpt lat="57.16002" lon="-5.15976">
        <ele>222.18</ele>
        <time>2021-04-06T13:35:41Z</time>
      </trkpt>
      <trkpt lat="57.16002" lon="-5.16078">
        <ele>225.26</ele>
        <time>2021-04-06T13:35:44Z</time>
      </trkpt>
      <trkpt lat="57.15994" lon="-5.16225">
        <ele>226.52</ele>
        <time>2021-04-06T13:35:48Z</time>
      </trkpt>
      <trkpt lat="57.15974" lon="-5.16392">
        <ele>222.41</ele>
        <time>2021-04-06T13:35:52Z</time>
      </trkpt>
      <trkpt lat="57.15961" lon="-5.16468">
        <ele>220.78</ele>
        <time>2021-04-06T13:35:56Z</time>
      </trkpt>
      <trkpt lat="57.15943" lon="-5.1654">
        <ele>221.09</ele>
        <time>2021-04-06T13:36:00Z</time>
      </trkpt>
      <trkpt lat="57.15902" lon="-5.16685">
        <ele>218.42</ele>
        <time>2021-04-06T13:36:04Z</time>
      </trkpt>
      <trkpt lat="57.15792" lon="-5.17007">
        <ele>221.32</ele>
        <time>2021-04-06T13:36:07Z</time>
      </trkpt>
      <trkpt lat="57.15767" lon="-5.17065">
        <ele>219.54</ele>
        <time>2021-04-06T13:36:11Z</time>
      </trkpt>
      <trkpt lat="57.15709" lon="-5.1717">
        <ele>214.64</ele>
        <time>2021-04-06T13:36:15Z</time>
      </trkpt>
      <trkpt lat="57.15665" lon="-5.17258">
        <ele>217.2</ele>
        <time>2021-04-06T13:36:19Z</time>
      </trkpt>
      <trkpt lat="57.15635" lon="-5.17347">
        <ele>217.17</ele>
        <time>2021-04-06T13:36:23Z</time>
      </trkpt>
      <trkpt lat="57.15613" lon="-5.17432">
        <ele>217.78</ele>
        <time>2021-04-06T13:36:27Z</time>
      </trkpt>
      <trkpt lat="57.15592" lon="-5.17571">
        <ele>223.27</ele>
        <time>2021-04-06T13:36:30Z</time>
      </trkpt>
      <trkpt lat="57.15591" lon="-5.17643">
        <ele>226.45</ele>
        <time>2021-04-06T13:36:34Z</time>
      </trkpt>
      <trkpt lat="57.15593" lon="-5.17686">
        <ele>227.11</ele>
        <time>2021-04-06T13:36:38Z</time>
      </trkpt>
      <trkpt lat="57.156" lon="-5.17727">
        <ele>227.65</ele>
        <time>2021-04-06T13:36:42Z</time>
      </trkpt>
      <trkpt lat="57.15652" lon="-5.17916">
        <ele>222.84</ele>
        <time>2021-04-06T13:36:46Z</time>
      </trkpt>
      <trkpt lat="57.15659" lon="-5.17976">
        <ele>222.16</ele>
        <time>2021-04-06T13:36:49Z</time>
      </trkpt>
      <trkpt lat="57.1566" lon="-5.18027">
        <ele>223.19</ele>
        <time>2021-04-06T13:36:53Z</time>
      </trkpt>
      <trkpt lat="57.15657" lon="-5.18073">
        <ele>223.17</ele>
        <time>2021-04-06T13:36:57Z</time>
      </trkpt>
      <trkpt lat="57.15645" lon="-5.18212">
        <ele>222.47</ele>
        <time>2021-04-06T13:37:01Z</time>
      </trkpt>
      <trkpt lat="57.15635" lon="-5.18271">
        <ele>221.84</ele>
        <time>2021-04-06T13:37:05Z</time>
      </trkpt>
      <trkpt lat="57.15622" lon="-5.18313">
        <ele>221.75</ele>
        <time>2021-04-06T13:37:09Z</time>
      </trkpt>
      <trkpt lat="57.1561" lon="-5.18338">
        <ele>221.13</ele>
        <time>2021-04-06T13:37:12Z</time>
      </trkpt>
      <trkpt lat="57.15581" lon="-5.18388">
        <ele>221.66</ele>
        <time>2021-04-06T13:37:16Z</time>
      </trkpt>
      <trkpt lat="57.15541" lon="-5.18442">
        <ele>219.3</ele>
        <time>2021-04-06T13:37:20Z</time>
      </trkpt>
      <trkpt lat="57.15509" lon="-5.18489">
        <ele>218.54</ele>
        <time>2021-04-06T13:37:24Z</time>
      </trkpt>
      <trkpt lat="57.15454" lon="-5.18601">
        <ele>221.47</ele>
        <time>2021-04-06T13:37:28Z</time>
      </trkpt>
      <trkpt lat="57.15395" lon="-5.18742">
        <ele>222.17</ele>
        <time>2021-04-06T13:37:32Z</time>
      </trkpt>
      <trkpt lat="57.15365" lon="-5.18852">
        <ele>223.11</ele>
        <time>2021-04-06T13:37:35Z</time>
      </trkpt>
      <trkpt lat="57.15355" lon="-5.18962">
        <ele>222.07</ele>
        <time>2021-04-06T13:37:39Z</time>
      </trkpt>
      <trkpt lat="57.15351" lon="-5.19144">
        <ele>224.59</ele>
        <time>2021-04-06T13:37:43Z</time>
      </trkpt>
      <trkpt lat="57.15364" lon="-5.19512">
        <ele>228.18</ele>
        <time>2021-04-06T13:37:47Z</time>
      </trkpt>
      <trkpt lat="57.15351" lon="-5.19611">
        <ele>226.89</ele>
        <time>2021-04-06T13:37:51Z</time>
      </trkpt>
      <trkpt lat="57.15316" lon="-5.19736">
        <ele>227.24</ele>
        <time>2021-04-06T13:37:54Z</time>
      </trkpt>
      <trkpt lat="57.15302" lon="-5.19839">
        <ele>227.61</ele>
        <time>2021-04-06T13:37:58Z</time>
      </trkpt>
      <trkpt lat="57.153" lon="-5.19912">
        <ele>228.78</ele>
        <time>2021-04-06T13:38:02Z</time>
      </trkpt>
      <trkpt lat="57.15309" lon="-5.20117">
        <ele>229.9</ele>
        <time>2021-04-06T13:38:06Z</time>
      </trkpt>
      <trkpt lat="57.153" lon="-5.20524">
        <ele>234.16</ele>
        <time>2021-04-06T13:38:10Z</time>
      </trkpt>
      <trkpt lat="57.15304" lon="-5.20706">
        <ele>233.8</ele>
        <time>2021-04-06T13:38:14Z</time>
      </trkpt>
      <trkpt lat="57.15312" lon="-5.2092">
        <ele>236.89</ele>
        <time>2021-04-06T13:38:17Z</time>
      </trkpt>
      <trkpt lat="57.15306" lon="-5.21115">
        <ele>236.05</ele>
        <time>2021-04-06T13:38:21Z</time>
      </trkpt>
      <trkpt lat="57.15296" lon="-5.21268">
        <ele>234.97</ele>
        <time>2021-04-06T13:38:25Z</time>
      </trkpt>
      <trkpt lat="57.1528" lon="-5.21417">
        <ele>236.27</ele>
        <time>2021-04-06T13:38:29Z</time>
      </trkpt>
      <trkpt lat="57.15268" lon="-5.2156">
        <ele>240.6</ele>
        <time>2021-04-06T13:38:33Z</time>
      </trkpt>
      <trkpt lat="57.15251" lon="-5.2192">
        <ele>247.3</ele>
        <time>2021-04-06T13:38:36Z</time>
      </trkpt>
      <trkpt lat="57.15251" lon="-5.2201">
        <ele>250.19</ele>
        <time>2021-04-06T13:38:40Z</time>
      </trkpt>
      <trkpt lat="57.1526" lon="-5.22113">
        <ele>251.48</ele>
        <time>2021-04-06T13:38:44Z</time>
      </trkpt>
      <trkpt lat="57.15272" lon="-5.22229">
        <ele>253.79</ele>
        <time>2021-04-06T13:38:48Z</time>
      </trkpt>
      <trkpt lat="57.15274" lon="-5.2229">
        <ele>253.38</ele>
        <time>2021-04-06T13:38:52Z</time>
      </trkpt>
      <trkpt lat="57.1527" lon="-5.22356">
        <ele>253.73</ele>
        <time>2021-04-06T13:38:56Z</time>
      </trkpt>
      <trkpt lat="57.15259" lon="-5.22422">
        <ele>255.94</ele>
        <time>2021-04-06T13:38:59Z</time>
      </trkpt>
      <trkpt lat="57.15249" lon="-5.22462">
        <ele>257.57</ele>
        <time>2021-04-06T13:39:03Z</time>
      </trkpt>
      <trkpt lat="57.15219" lon="-5.22551">
        <ele>258.16</ele>
        <time>2021-04-06T13:39:07Z</time>
      </trkpt>
      <trkpt lat="57.15182" lon="-5.22644">
        <ele>257.38</ele>
        <time>2021-04-06T13:39:11Z</time>
      </trkpt>
      <trkpt lat="57.15168" lon="-5.22713">
        <ele>256.42</ele>
        <time>2021-04-06T13:39:15Z</time>
      </trkpt>
      <trkpt lat="57.15165" lon="-5.22847">
        <ele>258.68</ele>
        <time>2021-04-06T13:39:19Z</time>
      </trkpt>
      <trkpt lat="57.15165" lon="-5.22954">
        <ele>260.43</ele>
        <time>2021-04-06T13:39:22Z</time>
      </trkpt>
      <trkpt lat="57.1517" lon="-5.23276">
        <ele>264.94</ele>
        <time>2021-04-06T13:39:26Z</time>
      </trkpt>
      <trkpt lat="57.15184" lon="-5.23388">
        <ele>266.68</ele>
        <time>2021-04-06T13:39:30Z</time>
      </trkpt>
      <trkpt lat="57.15209" lon="-5.23482">
        <ele>268.02</ele>
        <time>2021-04-06T13:39:34Z</time>
      </trkpt>
      <trkpt lat="57.15244" lon="-5.23564">
        <ele>271.53</ele>
        <time>2021-04-06T13:39:38Z</time>
      </trkpt>
      <trkpt lat="57.15268" lon="-5.23637">
        <ele>274.74</ele>
        <time>2021-04-06T13:39:41Z</time>
      </trkpt>
      <trkpt lat="57.15282" lon="-5.23723">
        <ele>279.46</ele>
        <time>2021-04-06T13:39:45Z</time>
      </trkpt>
      <trkpt lat="57.15294" lon="-5.23923">
        <ele>277.88</ele>
        <time>2021-04-06T13:39:49Z</time>
      </trkpt>
      <trkpt lat="57.15307" lon="-5.23976">
        <ele>277.12</ele>
        <time>2021-04-06T13:39:53Z</time>
      </trkpt>
      <trkpt lat="57.15323" lon="-5.24023">
        <ele>276.47</ele>
        <time>2021-04-06T13:39:57Z</time>
      </trkpt>
      <trkpt lat="57.15351" lon="-5.24087">
        <ele>275.08</ele>
        <time>2021-04-06T13:40:01Z</time>
      </trkpt>
      <trkpt lat="57.15375" lon="-5.24169">
        <ele>271.79</ele>
        <time>2021-04-06T13:40:04Z</time>
      </trkpt>
      <trkpt lat="57.15396" lon="-5.24276">
        <ele>270.01</ele>
        <time>2021-04-06T13:40:08Z</time>
      </trkpt>
      <trkpt lat="57.15419" lon="-5.24375">
        <ele>271.35</ele>
        <time>2021-04-06T13:40:12Z</time>
      </trkpt>
      <trkpt lat="57.15449" lon="-5.24448">
        <ele>272.56</ele>
        <time>2021-04-06T13:40:16Z</time>
      </trkpt>
      <trkpt lat="57.15496" lon="-5.24512">
        <ele>272.01</ele>
        <time>2021-04-06T13:40:20Z</time>
      </trkpt>
      <trkpt lat="57.15535" lon="-5.2456">
        <ele>267.4</ele>
        <time>2021-04-06T13:40:23Z</time>
      </trkpt>
      <trkpt lat="57.15556" lon="-5.24624">
        <ele>261.74</ele>
        <time>2021-04-06T13:40:27Z</time>
      </trkpt>
      <trkpt lat="57.15572" lon="-5.24684">
        <ele>258.41</ele>
        <time>2021-04-06T13:40:31Z</time>
      </trkpt>
      <trkpt lat="57.15618" lon="-5.24917">
        <ele>254.94</ele>
        <time>2021-04-06T13:40:35Z</time>
      </trkpt>
      <trkpt lat="57.15638" lon="-5.25054">
        <ele>249.99</ele>
        <time>2021-04-06T13:40:39Z</time>
      </trkpt>
      <trkpt lat="57.15651" lon="-5.2516">
        <ele>248.57</ele>
        <time>2021-04-06T13:40:43Z</time>
      </trkpt>
      <trkpt lat="57.15654" lon="-5.25243">
        <ele>245.64</ele>
        <time>2021-04-06T13:40:46Z</time>
      </trkpt>
      <trkpt lat="57.15647" lon="-5.25313">
        <ele>242.52</ele>
        <time>2021-04-06T13:40:50Z</time>
      </trkpt>
      <trkpt lat="57.15642" lon="-5.25424">
        <ele>237.54</ele>
        <time>2021-04-06T13:40:54Z</time>
      </trkpt>
      <trkpt lat="57.15652" lon="-5.25508">
        <ele>237.1</ele>
        <time>2021-04-06T13:40:58Z</time>
      </trkpt>
      <trkpt lat="57.15665" lon="-5.25556">
        <ele>236.75</ele>
        <time>2021-04-06T13:41:02Z</time>
      </trkpt>
      <trkpt lat="57.15691" lon="-5.25611">
        <ele>237.3</ele>
        <time>2021-04-06T13:41:06Z</time>
      </trkpt>
      <trkpt lat="57.15745" lon="-5.25684">
        <ele>243.98</ele>
        <time>2021-04-06T13:41:09Z</time>
      </trkpt>
      <trkpt lat="57.15792" lon="-5.2576">
        <ele>243.34</ele>
        <time>2021-04-06T13:41:13Z</time>
      </trkpt>
      <trkpt lat="57.15898" lon="-5.2601">
        <ele>229.91</ele>
        <time>2021-04-06T13:41:17Z</time>
      </trkpt>
      <trkpt lat="57.15913" lon="-5.26069">
        <ele>225.84</ele>
        <time>2021-04-06T13:41:21Z</time>
      </trkpt>
      <trkpt lat="57.15924" lon="-5.26143">
        <ele>226.07</ele>
        <time>2021-04-06T13:41:25Z</time>
      </trkpt>
      <trkpt lat="57.15938" lon="-5.26353">
        <ele>219.85</ele>
        <time>2021-04-06T13:41:28Z</time>
      </trkpt>
      <trkpt lat="57.15947" lon="-5.26418">
        <ele>218.45</ele>
        <time>2021-04-06T13:41:32Z</time>
      </trkpt>
      <trkpt lat="57.1596" lon="-5.26481">
        <ele>217.3</ele>
        <time>2021-04-06T13:41:36Z</time>
      </trkpt>
      <trkpt lat="57.15986" lon="-5.26545">
        <ele>215.2</ele>
        <time>2021-04-06T13:41:40Z</time>
      </trkpt>
      <trkpt lat="57.16022" lon="-5.26598">
        <ele>214.34</ele>
        <time>2021-04-06T13:41:44Z</time>
      </trkpt>
      <trkpt lat="57.16096" lon="-5.26723">
        <ele>208.13</ele>
        <time>2021-04-06T13:41:48Z</time>
      </trkpt>
      <trkpt lat="57.16122" lon="-5.26759">
        <ele>208.44</ele>
        <time>2021-04-06T13:41:51Z</time>
      </trkpt>
      <trkpt lat="57.16167" lon="-5.26828">
        <ele>206.17</ele>
        <time>2021-04-06T13:41:55Z</time>
      </trkpt>
      <trkpt lat="57.16229" lon="-5.26946">
        <ele>208.93</ele>
        <time>2021-04-06T13:41:59Z</time>
      </trkpt>
      <trkpt lat="57.16276" lon="-5.27056">
        <ele>207.6</ele>
        <time>2021-04-06T13:42:03Z</time>
      </trkpt>
      <trkpt lat="57.16331" lon="-5.27169">
        <ele>197.47</ele>
        <time>2021-04-06T13:42:07Z</time>
      </trkpt>
      <trkpt lat="57.16369" lon="-5.27254">
        <ele>198.25</ele>
        <time>2021-04-06T13:42:11Z</time>
      </trkpt>
      <trkpt lat="57.16401" lon="-5.27357">
        <ele>203.06</ele>
        <time>2021-04-06T13:42:14Z</time>
      </trkpt>
      <trkpt lat="57.16431" lon="-5.2747">
        <ele>196.9</ele>
        <time>2021-04-06T13:42:18Z</time>
      </trkpt>
      <trkpt lat="57.16457" lon="-5.27533">
        <ele>190.95</ele>
        <time>2021-04-06T13:42:22Z</time>
      </trkpt>
      <trkpt lat="57.16534" lon="-5.27678">
        <ele>187.89</ele>
        <time>2021-04-06T13:42:26Z</time>
      </trkpt>
      <trkpt lat="57.1657" lon="-5.27766">
        <ele>186.45</ele>
        <time>2021-04-06T13:42:30Z</time>
      </trkpt>
      <trkpt lat="57.16598" lon="-5.27885">
        <ele>188.07</ele>
        <time>2021-04-06T13:42:33Z</time>
      </trkpt>
      <trkpt lat="57.1662" lon="-5.28026">
        <ele>185.7</ele>
        <time>2021-04-06T13:42:37Z</time>
      </trkpt>
      <trkpt lat="57.16634" lon="-5.28155">
        <ele>190.39</ele>
        <time>2021-04-06T13:42:41Z</time>
      </trkpt>
      <trkpt lat="57.16647" lon="-5.28359">
        <ele>185.23</ele>
        <time>2021-04-06T13:42:45Z</time>
      </trkpt>
      <trkpt lat="57.16657" lon="-5.28448">
        <ele>182.76</ele>
        <time>2021-04-06T13:42:49Z</time>
      </trkpt>
      <trkpt lat="57.16676" lon="-5.28516">
        <ele>180.5</ele>
        <time>2021-04-06T13:42:53Z</time>
      </trkpt>
      <trkpt lat="57.16708" lon="-5.28564">
        <ele>183.38</ele>
        <time>2021-04-06T13:42:56Z</time>
      </trkpt>
      <trkpt lat="57.16752" lon="-5.28621">
        <ele>188.14</ele>
        <time>2021-04-06T13:43:00Z</time>
      </trkpt>
      <trkpt lat="57.16771" lon="-5.28654">
        <ele>188.68</ele>
        <time>2021-04-06T13:43:04Z</time>
      </trkpt>
      <trkpt lat="57.16793" lon="-5.28713">
        <ele>188.14</ele>
        <time>2021-04-06T13:43:08Z</time>
      </trkpt>
      <trkpt lat="57.16807" lon="-5.28773">
        <ele>187.6</ele>
        <time>2021-04-06T13:43:12Z</time>
      </trkpt>
      <trkpt lat="57.16812" lon="-5.2885">
        <ele>187.15</ele>
        <time>2021-04-06T13:43:15Z</time>
      </trkpt>
      <trkpt lat="57.16807" lon="-5.29039">
        <ele>180.02</ele>
        <time>2021-04-06T13:43:19Z</time>
      </trkpt>
      <trkpt lat="57.16806" lon="-5.29212">
        <ele>179.06</ele>
        <time>2021-04-06T13:43:23Z</time>
      </trkpt>
      <trkpt lat="57.16824" lon="-5.29285">
        <ele>178.39</ele>
        <time>2021-04-06T13:43:27Z</time>
      </trkpt>
      <trkpt lat="57.16848" lon="-5.29345">
        <ele>175.73</ele>
        <time>2021-04-06T13:43:31Z</time>
      </trkpt>
      <trkpt lat="57.16876" lon="-5.294">
        <ele>175.29</ele>
        <time>2021-04-06T13:43:35Z</time>
      </trkpt>
      <trkpt lat="57.16915" lon="-5.29469">
        <ele>183.46</ele>
        <time>2021-04-06T13:43:38Z</time>
      </trkpt>
      <trkpt lat="57.16934" lon="-5.29505">
        <ele>187.1</ele>
        <time>2021-04-06T13:43:42Z</time>
      </trkpt>
      <trkpt lat="57.16955" lon="-5.29557">
        <ele>185.97</ele>
        <time>2021-04-06T13:43:46Z</time>
      </trkpt>
      <trkpt lat="57.1697" lon="-5.29609">
        <ele>181.87</ele>
        <time>2021-04-06T13:43:50Z</time>
      </trkpt>
      <trkpt lat="57.16975" lon="-5.29645">
        <ele>182.93</ele>
        <time>2021-04-06T13:43:54Z</time>
      </trkpt>
      <trkpt lat="57.16978" lon="-5.29692">
        <ele>184.79</ele>
        <time>2021-04-06T13:43:58Z</time>
      </trkpt>
      <trkpt lat="57.16971" lon="-5.29791">
        <ele>184.25</ele>
        <time>2021-04-06T13:44:01Z</time>
      </trkpt>
      <trkpt lat="57.16956" lon="-5.29906">
        <ele>185.23</ele>
        <time>2021-04-06T13:44:05Z</time>
      </trkpt>
      <trkpt lat="57.16942" lon="-5.29992">
        <ele>184.62</ele>
        <time>2021-04-06T13:44:09Z</time>
      </trkpt>
      <trkpt lat="57.16915" lon="-5.30104">
        <ele>182.44</ele>
        <time>2021-04-06T13:44:13Z</time>
      </trkpt>
      <trkpt lat="57.1688" lon="-5.30203">
        <ele>179.44</ele>
        <time>2021-04-06T13:44:17Z</time>
      </trkpt>
      <trkpt lat="57.16773" lon="-5.30478">
        <ele>170.07</ele>
        <time>2021-04-06T13:44:20Z</time>
      </trkpt>
      <trkpt lat="57.16759" lon="-5.30546">
        <ele>169.67</ele>
        <time>2021-04-06T13:44:24Z</time>
      </trkpt>
      <trkpt lat="57.16757" lon="-5.30615">
        <ele>169.87</ele>
        <time>2021-04-06T13:44:28Z</time>
      </trkpt>
      <trkpt lat="57.16762" lon="-5.30684">
        <ele>169.15</ele>
        <time>2021-04-06T13:44:32Z</time>
      </trkpt>
      <trkpt lat="57.16757" lon="-5.30761">
        <ele>166</ele>
        <time>2021-04-06T13:44:36Z</time>
      </trkpt>
      <trkpt lat="57.16706" lon="-5.31096">
        <ele>151.69</ele>
        <time>2021-04-06T13:44:40Z</time>
      </trkpt>
      <trkpt lat="57.16686" lon="-5.3127">
        <ele>154.64</ele>
        <time>2021-04-06T13:44:43Z</time>
      </trkpt>
      <trkpt lat="57.16669" lon="-5.31366">
        <ele>149.21</ele>
        <time>2021-04-06T13:44:47Z</time>
      </trkpt>
      <trkpt lat="57.16663" lon="-5.31476">
        <ele>141.26</ele>
        <time>2021-04-06T13:44:51Z</time>
      </trkpt>
      <trkpt lat="57.16647" lon="-5.31865">
        <ele>132.42</ele>
        <time>2021-04-06T13:44:55Z</time>
      </trkpt>
      <trkpt lat="57.1664" lon="-5.3197">
        <ele>133.04</ele>
        <time>2021-04-06T13:44:59Z</time>
      </trkpt>
      <trkpt lat="57.1662" lon="-5.32062">
        <ele>134.55</ele>
        <time>2021-04-06T13:45:03Z</time>
      </trkpt>
      <trkpt lat="57.16582" lon="-5.32181">
        <ele>133.74</ele>
        <time>2021-04-06T13:45:06Z</time>
      </trkpt>
      <trkpt lat="57.16527" lon="-5.32327">
        <ele>124.22</ele>
        <time>2021-04-06T13:45:10Z</time>
      </trkpt>
      <trkpt lat="57.16471" lon="-5.3249">
        <ele>123.81</ele>
        <time>2021-04-06T13:45:14Z</time>
      </trkpt>
      <trkpt lat="57.1645" lon="-5.32546">
        <ele>121.41</ele>
        <time>2021-04-06T13:45:18Z</time>
      </trkpt>
      <trkpt lat="57.16434" lon="-5.32612">
        <ele>118.12</ele>
        <time>2021-04-06T13:45:22Z</time>
      </trkpt>
      <trkpt lat="57.16423" lon="-5.32676">
        <ele>118.83</ele>
        <time>2021-04-06T13:45:25Z</time>
      </trkpt>
      <trkpt lat="57.16416" lon="-5.32744">
        <ele>116.53</ele>
        <time>2021-04-06T13:45:29Z</time>
      </trkpt>
      <trkpt lat="57.16415" lon="-5.32812">
        <ele>112.72</ele>
        <time>2021-04-06T13:45:33Z</time>
      </trkpt>
      <trkpt lat="57.16416" lon="-5.32871">
        <ele>108.35</ele>
        <time>2021-04-06T13:45:37Z</time>
      </trkpt>
      <trkpt lat="57.1642" lon="-5.32929">
        <ele>105.4</ele>
        <time>2021-04-06T13:45:41Z</time>
      </trkpt>
      <trkpt lat="57.16426" lon="-5.32984">
        <ele>104.47</ele>
        <time>2021-04-06T13:45:45Z</time>
      </trkpt>
      <trkpt lat="57.16437" lon="-5.33039">
        <ele>102.91</ele>
        <time>2021-04-06T13:45:48Z</time>
      </trkpt>
      <trkpt lat="57.1645" lon="-5.33089">
        <ele>103.6</ele>
        <time>2021-04-06T13:45:52Z</time>
      </trkpt>
      <trkpt lat="57.16565" lon="-5.33398">
        <ele>84.74</ele>
        <time>2021-04-06T13:45:56Z</time>
      </trkpt>
      <trkpt lat="57.16579" lon="-5.33464">
        <ele>84.86</ele>
        <time>2021-04-06T13:46:00Z</time>
      </trkpt>
      <trkpt lat="57.16581" lon="-5.33545">
        <ele>81.57</ele>
        <time>2021-04-06T13:46:04Z</time>
      </trkpt>
      <trkpt lat="57.16566" lon="-5.33633">
        <ele>79.39</ele>
        <time>2021-04-06T13:46:07Z</time>
      </trkpt>
      <trkpt lat="57.16548" lon="-5.33709">
        <ele>78.16</ele>
        <time>2021-04-06T13:46:11Z</time>
      </trkpt>
      <trkpt lat="57.16523" lon="-5.33802">
        <ele>77.79</ele>
        <time>2021-04-06T13:46:15Z</time>
      </trkpt>
      <trkpt lat="57.16518" lon="-5.3388">
        <ele>76.29</ele>
        <time>2021-04-06T13:46:19Z</time>
      </trkpt>
      <trkpt lat="57.16531" lon="-5.33975">
        <ele>74.67</ele>
        <time>2021-04-06T13:46:23Z</time>
      </trkpt>
      <trkpt lat="57.16531" lon="-5.33975">
        <ele>74.67</ele>
        <time>2021-04-06T13:46:23Z</time>
      </trkpt>
      <trkpt lat="57.16557" lon="-5.34074">
        <ele>70.48</ele>
        <time>2021-04-06T13:46:27Z</time>
      </trkpt>
      <trkpt lat="57.16644" lon="-5.34358">
        <ele>68.71</ele>
        <time>2021-04-06T13:46:30Z</time>
      </trkpt>
      <trkpt lat="57.16707" lon="-5.34511">
        <ele>65.93</ele>
        <time>2021-04-06T13:46:34Z</time>
      </trkpt>
      <trkpt lat="57.16767" lon="-5.34649">
        <ele>59.54</ele>
        <time>2021-04-06T13:46:38Z</time>
      </trkpt>
      <trkpt lat="57.1679" lon="-5.34721">
        <ele>54.59</ele>
        <time>2021-04-06T13:46:41Z</time>
      </trkpt>
      <trkpt lat="57.16818" lon="-5.34867">
        <ele>50.08</ele>
        <time>2021-04-06T13:46:45Z</time>
      </trkpt>
      <trkpt lat="57.16845" lon="-5.34976">
        <ele>45.09</ele>
        <time>2021-04-06T13:46:49Z</time>
      </trkpt>
      <trkpt lat="57.16959" lon="-5.35283">
        <ele>38.17</ele>
        <time>2021-04-06T13:46:52Z</time>
      </trkpt>
      <trkpt lat="57.17093" lon="-5.35621">
        <ele>37.57</ele>
        <time>2021-04-06T13:46:56Z</time>
      </trkpt>
      <trkpt lat="57.17173" lon="-5.3583">
        <ele>33.9</ele>
        <time>2021-04-06T13:47:00Z</time>
      </trkpt>
      <trkpt lat="57.17188" lon="-5.35875">
        <ele>32.23</ele>
        <time>2021-04-06T13:47:03Z</time>
      </trkpt>
      <trkpt lat="57.17237" lon="-5.35992">
        <ele>32.81</ele>
        <time>2021-04-06T13:47:07Z</time>
      </trkpt>
      <trkpt lat="57.17272" lon="-5.36051">
        <ele>35.03</ele>
        <time>2021-04-06T13:47:11Z</time>
      </trkpt>
      <trkpt lat="57.17311" lon="-5.36101">
        <ele>33.15</ele>
        <time>2021-04-06T13:47:14Z</time>
      </trkpt>
      <trkpt lat="57.1743" lon="-5.36228">
        <ele>26.23</ele>
        <time>2021-04-06T13:47:18Z</time>
      </trkpt>
      <trkpt lat="57.17482" lon="-5.3628">
        <ele>24.07</ele>
        <time>2021-04-06T13:47:22Z</time>
      </trkpt>
      <trkpt lat="57.17528" lon="-5.36333">
        <ele>25.01</ele>
        <time>2021-04-06T13:47:25Z</time>
      </trkpt>
      <trkpt lat="57.17559" lon="-5.36376">
        <ele>26.43</ele>
        <time>2021-04-06T13:47:29Z</time>
      </trkpt>
      <trkpt lat="57.17607" lon="-5.36462">
        <ele>25.05</ele>
        <time>2021-04-06T13:47:33Z</time>
      </trkpt>
      <trkpt lat="57.17637" lon="-5.36542">
        <ele>24</ele>
        <time>2021-04-06T13:47:36Z</time>
      </trkpt>
      <trkpt lat="57.17658" lon="-5.36613">
        <ele>22.27</ele>
        <time>2021-04-06T13:47:40Z</time>
      </trkpt>
      <trkpt lat="57.1768" lon="-5.36705">
        <ele>19.52</ele>
        <time>2021-04-06T13:47:44Z</time>
      </trkpt>
      <trkpt lat="57.17716" lon="-5.36867">
        <ele>18</ele>
        <time>2021-04-06T13:47:47Z</time>
      </trkpt>
      <trkpt lat="57.17728" lon="-5.369">
        <ele>18.2</ele>
        <time>2021-04-06T13:47:51Z</time>
      </trkpt>
      <trkpt lat="57.17744" lon="-5.36936">
        <ele>18.92</ele>
        <time>2021-04-06T13:47:55Z</time>
      </trkpt>
      <trkpt lat="57.17759" lon="-5.3696">
        <ele>19.79</ele>
        <time>2021-04-06T13:47:58Z</time>
      </trkpt>
      <trkpt lat="57.17801" lon="-5.37004">
        <ele>22.25</ele>
        <time>2021-04-06T13:48:02Z</time>
      </trkpt>
      <trkpt lat="57.1788" lon="-5.37061">
        <ele>24.93</ele>
        <time>2021-04-06T13:48:06Z</time>
      </trkpt>
      <trkpt lat="57.17902" lon="-5.37083">
        <ele>23.57</ele>
        <time>2021-04-06T13:48:09Z</time>
      </trkpt>
      <trkpt lat="57.17921" lon="-5.37104">
        <ele>22.76</ele>
        <time>2021-04-06T13:48:13Z</time>
      </trkpt>
      <trkpt lat="57.17938" lon="-5.3713">
        <ele>24.33</ele>
        <time>2021-04-06T13:48:17Z</time>
      </trkpt>
      <trkpt lat="57.17953" lon="-5.37162">
        <ele>25.87</ele>
        <time>2021-04-06T13:48:20Z</time>
      </trkpt>
      <trkpt lat="57.17961" lon="-5.37187">
        <ele>25.84</ele>
        <time>2021-04-06T13:48:24Z</time>
      </trkpt>
      <trkpt lat="57.17969" lon="-5.37215">
        <ele>25.22</ele>
        <time>2021-04-06T13:48:28Z</time>
      </trkpt>
      <trkpt lat="57.17976" lon="-5.37249">
        <ele>23.93</ele>
        <time>2021-04-06T13:48:31Z</time>
      </trkpt>
      <trkpt lat="57.17984" lon="-5.3735">
        <ele>22.16</ele>
        <time>2021-04-06T13:48:35Z</time>
      </trkpt>
      <trkpt lat="57.17987" lon="-5.37445">
        <ele>18.93</ele>
        <time>2021-04-06T13:48:39Z</time>
      </trkpt>
      <trkpt lat="57.17991" lon="-5.37489">
        <ele>18.31</ele>
        <time>2021-04-06T13:48:42Z</time>
      </trkpt>
      <trkpt lat="57.18002" lon="-5.37529">
        <ele>18.89</ele>
        <time>2021-04-06T13:48:46Z</time>
      </trkpt>
      <trkpt lat="57.18028" lon="-5.37605">
        <ele>19.74</ele>
        <time>2021-04-06T13:48:50Z</time>
      </trkpt>
      <trkpt lat="57.18148" lon="-5.37928">
        <ele>20.06</ele>
        <time>2021-04-06T13:48:53Z</time>
      </trkpt>
      <trkpt lat="57.18192" lon="-5.38035">
        <ele>19.58</ele>
        <time>2021-04-06T13:48:57Z</time>
      </trkpt>
      <trkpt lat="57.18242" lon="-5.38119">
        <ele>19.52</ele>
        <time>2021-04-06T13:49:01Z</time>
      </trkpt>
      <trkpt lat="57.18242" lon="-5.38119">
        <ele>19.52</ele>
        <time>2021-04-06T13:49:01Z</time>
      </trkpt>
      <trkpt lat="57.18428" lon="-5.38257">
        <ele>19.24</ele>
        <time>2021-04-06T13:49:06Z</time>
      </trkpt>
      <trkpt lat="57.18581" lon="-5.3831">
        <ele>17.52</ele>
        <time>2021-04-06T13:49:12Z</time>
      </trkpt>
      <trkpt lat="57.18744" lon="-5.38344">
        <ele>14.37</ele>
        <time>2021-04-06T13:49:18Z</time>
      </trkpt>
      <trkpt lat="57.18816" lon="-5.38391">
        <ele>14.85</ele>
        <time>2021-04-06T13:49:24Z</time>
      </trkpt>
      <trkpt lat="57.19122" lon="-5.38632">
        <ele>17.11</ele>
        <time>2021-04-06T13:49:30Z</time>
      </trkpt>
      <trkpt lat="57.19185" lon="-5.38672">
        <ele>14.75</ele>
        <time>2021-04-06T13:49:36Z</time>
      </trkpt>
      <trkpt lat="57.19338" lon="-5.38741">
        <ele>17.34</ele>
        <time>2021-04-06T13:49:42Z</time>
      </trkpt>
      <trkpt lat="57.194" lon="-5.38775">
        <ele>16.62</ele>
        <time>2021-04-06T13:49:47Z</time>
      </trkpt>
      <trkpt lat="57.1945" lon="-5.38818">
        <ele>15.43</ele>
        <time>2021-04-06T13:49:53Z</time>
      </trkpt>
      <trkpt lat="57.19521" lon="-5.38892">
        <ele>15.7</ele>
        <time>2021-04-06T13:49:59Z</time>
      </trkpt>
      <trkpt lat="57.19691" lon="-5.39087">
        <ele>15.25</ele>
        <time>2021-04-06T13:50:05Z</time>
      </trkpt>
      <trkpt lat="57.19806" lon="-5.39206">
        <ele>16.75</ele>
        <time>2021-04-06T13:50:11Z</time>
      </trkpt>
      <trkpt lat="57.19836" lon="-5.3923">
        <ele>14.9</ele>
        <time>2021-04-06T13:50:17Z</time>
      </trkpt>
      <trkpt lat="57.1991" lon="-5.39273">
        <ele>14.86</ele>
        <time>2021-04-06T13:50:23Z</time>
      </trkpt>
      <trkpt lat="57.20178" lon="-5.39396">
        <ele>9.63</ele>
        <time>2021-04-06T13:50:29Z</time>
      </trkpt>
      <trkpt lat="57.20261" lon="-5.39423">
        <ele>10.61</ele>
        <time>2021-04-06T13:50:34Z</time>
      </trkpt>
      <trkpt lat="57.20385" lon="-5.39457">
        <ele>13.75</ele>
        <time>2021-04-06T13:50:40Z</time>
      </trkpt>
      <trkpt lat="57.20483" lon="-5.39487">
        <ele>11.15</ele>
        <time>2021-04-06T13:50:46Z</time>
      </trkpt>
      <trkpt lat="57.20503" lon="-5.39497">
        <ele>10.67</ele>
        <time>2021-04-06T13:50:52Z</time>
      </trkpt>
      <trkpt lat="57.20518" lon="-5.39508">
        <ele>10.4</ele>
        <time>2021-04-06T13:50:58Z</time>
      </trkpt>
      <trkpt lat="57.20548" lon="-5.3954">
        <ele>10.82</ele>
        <time>2021-04-06T13:51:04Z</time>
      </trkpt>
      <trkpt lat="57.20564" lon="-5.39565">
        <ele>11.99</ele>
        <time>2021-04-06T13:51:10Z</time>
      </trkpt>
      <trkpt lat="57.20577" lon="-5.39589">
        <ele>12.51</ele>
        <time>2021-04-06T13:51:16Z</time>
      </trkpt>
      <trkpt lat="57.20577" lon="-5.39589">
        <ele>12.51</ele>
        <time>2021-04-06T13:51:16Z</time>
      </trkpt>
      <trkpt lat="57.20587" lon="-5.39617">
        <ele>13.45</ele>
        <time>2021-04-06T13:51:18Z</time>
      </trkpt>
      <trkpt lat="57.20595" lon="-5.39647">
        <ele>15.33</ele>
        <time>2021-04-06T13:51:20Z</time>
      </trkpt>
      <trkpt lat="57.20601" lon="-5.39683">
        <ele>15.99</ele>
        <time>2021-04-06T13:51:22Z</time>
      </trkpt>
      <trkpt lat="57.20604" lon="-5.39718">
        <ele>16.24</ele>
        <time>2021-04-06T13:51:24Z</time>
      </trkpt>
      <trkpt lat="57.20605" lon="-5.39747">
        <ele>17.08</ele>
        <time>2021-04-06T13:51:27Z</time>
      </trkpt>
      <trkpt lat="57.20604" lon="-5.39853">
        <ele>15.44</ele>
        <time>2021-04-06T13:51:29Z</time>
      </trkpt>
      <trkpt lat="57.20594" lon="-5.40044">
        <ele>8.6</ele>
        <time>2021-04-06T13:51:31Z</time>
      </trkpt>
      <trkpt lat="57.20594" lon="-5.40118">
        <ele>9.47</ele>
        <time>2021-04-06T13:51:33Z</time>
      </trkpt>
      <trkpt lat="57.206" lon="-5.40177">
        <ele>10.68</ele>
        <time>2021-04-06T13:51:35Z</time>
      </trkpt>
      <trkpt lat="57.2061" lon="-5.40222">
        <ele>11.2</ele>
        <time>2021-04-06T13:51:38Z</time>
      </trkpt>
      <trkpt lat="57.20624" lon="-5.40266">
        <ele>12.54</ele>
        <time>2021-04-06T13:51:40Z</time>
      </trkpt>
      <trkpt lat="57.20659" lon="-5.4036">
        <ele>14.99</ele>
        <time>2021-04-06T13:51:42Z</time>
      </trkpt>
      <trkpt lat="57.20676" lon="-5.40401">
        <ele>15.83</ele>
        <time>2021-04-06T13:51:44Z</time>
      </trkpt>
      <trkpt lat="57.20691" lon="-5.40428">
        <ele>16.1</ele>
        <time>2021-04-06T13:51:46Z</time>
      </trkpt>
      <trkpt lat="57.2071" lon="-5.40456">
        <ele>16.08</ele>
        <time>2021-04-06T13:51:49Z</time>
      </trkpt>
      <trkpt lat="57.20807" lon="-5.40551">
        <ele>13.38</ele>
        <time>2021-04-06T13:51:51Z</time>
      </trkpt>
      <trkpt lat="57.20824" lon="-5.40573">
        <ele>14.74</ele>
        <time>2021-04-06T13:51:53Z</time>
      </trkpt>
      <trkpt lat="57.20836" lon="-5.40593">
        <ele>16.04</ele>
        <time>2021-04-06T13:51:55Z</time>
      </trkpt>
      <trkpt lat="57.20852" lon="-5.4063">
        <ele>16.44</ele>
        <time>2021-04-06T13:51:57Z</time>
      </trkpt>
      <trkpt lat="57.20879" lon="-5.40718">
        <ele>17.11</ele>
        <time>2021-04-06T13:52:00Z</time>
      </trkpt>
      <trkpt lat="57.20897" lon="-5.40768">
        <ele>18.39</ele>
        <time>2021-04-06T13:52:02Z</time>
      </trkpt>
      <trkpt lat="57.20913" lon="-5.40807">
        <ele>21.48</ele>
        <time>2021-04-06T13:52:04Z</time>
      </trkpt>
      <trkpt lat="57.20929" lon="-5.40837">
        <ele>20.91</ele>
        <time>2021-04-06T13:52:06Z</time>
      </trkpt>
      <trkpt lat="57.2095" lon="-5.40867">
        <ele>20.47</ele>
        <time>2021-04-06T13:52:08Z</time>
      </trkpt>
      <trkpt lat="57.2099" lon="-5.40909">
        <ele>17.38</ele>
        <time>2021-04-06T13:52:11Z</time>
      </trkpt>
      <trkpt lat="57.21025" lon="-5.40949">
        <ele>17.8</ele>
        <time>2021-04-06T13:52:13Z</time>
      </trkpt>
      <trkpt lat="57.21041" lon="-5.4097">
        <ele>18.21</ele>
        <time>2021-04-06T13:52:15Z</time>
      </trkpt>
      <trkpt lat="57.21058" lon="-5.41">
        <ele>17.19</ele>
        <time>2021-04-06T13:52:17Z</time>
      </trkpt>
      <trkpt lat="57.21156" lon="-5.41202">
        <ele>16.98</ele>
        <time>2021-04-06T13:52:20Z</time>
      </trkpt>
      <trkpt lat="57.21192" lon="-5.41272">
        <ele>12.07</ele>
        <time>2021-04-06T13:52:22Z</time>
      </trkpt>
      <trkpt lat="57.2122" lon="-5.41335">
        <ele>10.23</ele>
        <time>2021-04-06T13:52:24Z</time>
      </trkpt>
      <trkpt lat="57.21243" lon="-5.41377">
        <ele>8.24</ele>
        <time>2021-04-06T13:52:26Z</time>
      </trkpt>
      <trkpt lat="57.21296" lon="-5.4146">
        <ele>7.29</ele>
        <time>2021-04-06T13:52:28Z</time>
      </trkpt>
      <trkpt lat="57.21313" lon="-5.4149">
        <ele>8.34</ele>
        <time>2021-04-06T13:52:31Z</time>
      </trkpt>
      <trkpt lat="57.21334" lon="-5.41536">
        <ele>9.73</ele>
        <time>2021-04-06T13:52:33Z</time>
      </trkpt>
      <trkpt lat="57.21353" lon="-5.41592">
        <ele>12.15</ele>
        <time>2021-04-06T13:52:35Z</time>
      </trkpt>
      <trkpt lat="57.21364" lon="-5.41637">
        <ele>14.56</ele>
        <time>2021-04-06T13:52:37Z</time>
      </trkpt>
      <trkpt lat="57.2137" lon="-5.41695">
        <ele>16.64</ele>
        <time>2021-04-06T13:52:39Z</time>
      </trkpt>
      <trkpt lat="57.21378" lon="-5.41789">
        <ele>15.23</ele>
        <time>2021-04-06T13:52:42Z</time>
      </trkpt>
      <trkpt lat="57.21403" lon="-5.41946">
        <ele>10.38</ele>
        <time>2021-04-06T13:52:44Z</time>
      </trkpt>
      <trkpt lat="57.2142" lon="-5.42039">
        <ele>10.93</ele>
        <time>2021-04-06T13:52:46Z</time>
      </trkpt>
      <trkpt lat="57.21413" lon="-5.42044">
        <ele>9.55</ele>
        <time>2021-04-06T13:52:49Z</time>
      </trkpt>
      <trkpt lat="57.21404" lon="-5.42046">
        <ele>8.61</ele>
        <time>2021-04-06T13:52:52Z</time>
      </trkpt>
      <trkpt lat="57.21267" lon="-5.42044">
        <ele>11.8</ele>
        <time>2021-04-06T13:52:55Z</time>
      </trkpt>
      <trkpt lat="57.21256" lon="-5.42148">
        <ele>11.07</ele>
        <time>2021-04-06T13:52:58Z</time>
      </trkpt>
      <trkpt lat="57.21241" lon="-5.42237">
        <ele>9.39</ele>
        <time>2021-04-06T13:53:00Z</time>
      </trkpt>
      <trkpt lat="57.21185" lon="-5.4252">
        <ele>9.39</ele>
        <time>2021-04-06T13:53:03Z</time>
      </trkpt>
      <trkpt lat="57.21123" lon="-5.42784">
        <ele>7.76</ele>
        <time>2021-04-06T13:53:06Z</time>
      </trkpt>
      <trkpt lat="57.21111" lon="-5.42847">
        <ele>7.48</ele>
        <time>2021-04-06T13:53:09Z</time>
      </trkpt>
      <trkpt lat="57.21111" lon="-5.42899">
        <ele>8.37</ele>
        <time>2021-04-06T13:53:12Z</time>
      </trkpt>
      <trkpt lat="57.21121" lon="-5.42963">
        <ele>9.36</ele>
        <time>2021-04-06T13:53:15Z</time>
      </trkpt>
      <trkpt lat="57.21175" lon="-5.43181">
        <ele>7.61</ele>
        <time>2021-04-06T13:53:18Z</time>
      </trkpt>
      <trkpt lat="57.21203" lon="-5.43333">
        <ele>12.75</ele>
        <time>2021-04-06T13:53:20Z</time>
      </trkpt>
      <trkpt lat="57.21228" lon="-5.43424">
        <ele>14.91</ele>
        <time>2021-04-06T13:53:23Z</time>
      </trkpt>
      <trkpt lat="57.2125" lon="-5.43494">
        <ele>17.28</ele>
        <time>2021-04-06T13:53:26Z</time>
      </trkpt>
      <trkpt lat="57.21303" lon="-5.43589">
        <ele>21.48</ele>
        <time>2021-04-06T13:53:29Z</time>
      </trkpt>
      <trkpt lat="57.21433" lon="-5.43844">
        <ele>28.85</ele>
        <time>2021-04-06T13:53:32Z</time>
      </trkpt>
      <trkpt lat="57.21452" lon="-5.43875">
        <ele>29.26</ele>
        <time>2021-04-06T13:53:35Z</time>
      </trkpt>
      <trkpt lat="57.2148" lon="-5.43908">
        <ele>28.41</ele>
        <time>2021-04-06T13:53:38Z</time>
      </trkpt>
      <trkpt lat="57.21507" lon="-5.43949">
        <ele>28.32</ele>
        <time>2021-04-06T13:53:41Z</time>
      </trkpt>
      <trkpt lat="57.21527" lon="-5.43999">
        <ele>29.25</ele>
        <time>2021-04-06T13:53:43Z</time>
      </trkpt>
      <trkpt lat="57.21554" lon="-5.44082">
        <ele>34.18</ele>
        <time>2021-04-06T13:53:46Z</time>
      </trkpt>
      <trkpt lat="57.21597" lon="-5.44156">
        <ele>33.75</ele>
        <time>2021-04-06T13:53:49Z</time>
      </trkpt>
      <trkpt lat="57.21677" lon="-5.44393">
        <ele>41.04</ele>
        <time>2021-04-06T13:53:52Z</time>
      </trkpt>
      <trkpt lat="57.21698" lon="-5.44482">
        <ele>43.16</ele>
        <time>2021-04-06T13:53:55Z</time>
      </trkpt>
      <trkpt lat="57.21725" lon="-5.44661">
        <ele>53.72</ele>
        <time>2021-04-06T13:53:58Z</time>
      </trkpt>
      <trkpt lat="57.21735" lon="-5.44719">
        <ele>57.13</ele>
        <time>2021-04-06T13:54:01Z</time>
      </trkpt>
      <trkpt lat="57.21792" lon="-5.44901">
        <ele>65.29</ele>
        <time>2021-04-06T13:54:04Z</time>
      </trkpt>
      <trkpt lat="57.2182" lon="-5.45023">
        <ele>72.43</ele>
        <time>2021-04-06T13:54:06Z</time>
      </trkpt>
      <trkpt lat="57.21825" lon="-5.45092">
        <ele>74.95</ele>
        <time>2021-04-06T13:54:09Z</time>
      </trkpt>
      <trkpt lat="57.21817" lon="-5.45166">
        <ele>78.06</ele>
        <time>2021-04-06T13:54:12Z</time>
      </trkpt>
      <trkpt lat="57.21817" lon="-5.45193">
        <ele>79.89</ele>
        <time>2021-04-06T13:54:15Z</time>
      </trkpt>
      <trkpt lat="57.2182" lon="-5.45217">
        <ele>81.48</ele>
        <time>2021-04-06T13:54:18Z</time>
      </trkpt>
      <trkpt lat="57.21825" lon="-5.45238">
        <ele>82.91</ele>
        <time>2021-04-06T13:54:21Z</time>
      </trkpt>
      <trkpt lat="57.21832" lon="-5.45255">
        <ele>84.14</ele>
        <time>2021-04-06T13:54:24Z</time>
      </trkpt>
      <trkpt lat="57.21844" lon="-5.45268">
        <ele>85.35</ele>
        <time>2021-04-06T13:54:27Z</time>
      </trkpt>
      <trkpt lat="57.21882" lon="-5.45298">
        <ele>88.49</ele>
        <time>2021-04-06T13:54:29Z</time>
      </trkpt>
      <trkpt lat="57.21923" lon="-5.45369">
        <ele>94.57</ele>
        <time>2021-04-06T13:54:32Z</time>
      </trkpt>
      <trkpt lat="57.2195" lon="-5.45425">
        <ele>98.17</ele>
        <time>2021-04-06T13:54:35Z</time>
      </trkpt>
      <trkpt lat="57.21996" lon="-5.45512">
        <ele>99.55</ele>
        <time>2021-04-06T13:54:38Z</time>
      </trkpt>
      <trkpt lat="57.22018" lon="-5.45588">
        <ele>104.43</ele>
        <time>2021-04-06T13:54:41Z</time>
      </trkpt>
      <trkpt lat="57.22038" lon="-5.45666">
        <ele>105.4</ele>
        <time>2021-04-06T13:54:44Z</time>
      </trkpt>
      <trkpt lat="57.22043" lon="-5.45717">
        <ele>107.15</ele>
        <time>2021-04-06T13:54:47Z</time>
      </trkpt>
      <trkpt lat="57.22042" lon="-5.45774">
        <ele>111.83</ele>
        <time>2021-04-06T13:54:50Z</time>
      </trkpt>
      <trkpt lat="57.22036" lon="-5.45828">
        <ele>115.21</ele>
        <time>2021-04-06T13:54:52Z</time>
      </trkpt>
      <trkpt lat="57.2202" lon="-5.45889">
        <ele>118.5</ele>
        <time>2021-04-06T13:54:55Z</time>
      </trkpt>
      <trkpt lat="57.2201" lon="-5.45943">
        <ele>120.91</ele>
        <time>2021-04-06T13:54:58Z</time>
      </trkpt>
      <trkpt lat="57.22014" lon="-5.45985">
        <ele>124.66</ele>
        <time>2021-04-06T13:55:01Z</time>
      </trkpt>
      <trkpt lat="57.2203" lon="-5.4602">
        <ele>126.03</ele>
        <time>2021-04-06T13:55:04Z</time>
      </trkpt>
      <trkpt lat="57.22055" lon="-5.46055">
        <ele>125.02</ele>
        <time>2021-04-06T13:55:07Z</time>
      </trkpt>
      <trkpt lat="57.22072" lon="-5.46102">
        <ele>128.51</ele>
        <time>2021-04-06T13:55:10Z</time>
      </trkpt>
      <trkpt lat="57.22092" lon="-5.46221">
        <ele>134.71</ele>
        <time>2021-04-06T13:55:13Z</time>
      </trkpt>
      <trkpt lat="57.2209" lon="-5.46354">
        <ele>144.25</ele>
        <time>2021-04-06T13:55:15Z</time>
      </trkpt>
      <trkpt lat="57.22078" lon="-5.46478">
        <ele>156.27</ele>
        <time>2021-04-06T13:55:18Z</time>
      </trkpt>
      <trkpt lat="57.22074" lon="-5.46495">
        <ele>158.07</ele>
        <time>2021-04-06T13:55:21Z</time>
      </trkpt>
      <trkpt lat="57.22061" lon="-5.46558">
        <ele>165.01</ele>
        <time>2021-04-06T13:55:24Z</time>
      </trkpt>
      <trkpt lat="57.22054" lon="-5.46605">
        <ele>168.6</ele>
        <time>2021-04-06T13:55:27Z</time>
      </trkpt>
      <trkpt lat="57.22054" lon="-5.46663">
        <ele>174.32</ele>
        <time>2021-04-06T13:55:30Z</time>
      </trkpt>
      <trkpt lat="57.22071" lon="-5.46761">
        <ele>185.1</ele>
        <time>2021-04-06T13:55:33Z</time>
      </trkpt>
      <trkpt lat="57.22083" lon="-5.46782">
        <ele>187.31</ele>
        <time>2021-04-06T13:55:35Z</time>
      </trkpt>
      <trkpt lat="57.22095" lon="-5.46789">
        <ele>189.3</ele>
        <time>2021-04-06T13:55:38Z</time>
      </trkpt>
      <trkpt lat="57.22137" lon="-5.46778">
        <ele>187.96</ele>
        <time>2021-04-06T13:55:41Z</time>
      </trkpt>
      <trkpt lat="57.22163" lon="-5.46789">
        <ele>194</ele>
        <time>2021-04-06T13:55:44Z</time>
      </trkpt>
      <trkpt lat="57.22176" lon="-5.4681">
        <ele>201.35</ele>
        <time>2021-04-06T13:55:47Z</time>
      </trkpt>
      <trkpt lat="57.22187" lon="-5.4684">
        <ele>209.65</ele>
        <time>2021-04-06T13:55:50Z</time>
      </trkpt>
      <trkpt lat="57.22192" lon="-5.46846">
        <ele>211.94</ele>
        <time>2021-04-06T13:55:53Z</time>
      </trkpt>
      <trkpt lat="57.222" lon="-5.46849">
        <ele>214.63</ele>
        <time>2021-04-06T13:55:56Z</time>
      </trkpt>
      <trkpt lat="57.22204" lon="-5.46842">
        <ele>214.49</ele>
        <time>2021-04-06T13:55:58Z</time>
      </trkpt>
      <trkpt lat="57.22208" lon="-5.46827">
        <ele>213.29</ele>
        <time>2021-04-06T13:56:01Z</time>
      </trkpt>
      <trkpt lat="57.22206" lon="-5.46772">
        <ele>207.16</ele>
        <time>2021-04-06T13:56:04Z</time>
      </trkpt>
      <trkpt lat="57.22206" lon="-5.46746">
        <ele>206.51</ele>
        <time>2021-04-06T13:56:07Z</time>
      </trkpt>
      <trkpt lat="57.22208" lon="-5.46728">
        <ele>206.38</ele>
        <time>2021-04-06T13:56:10Z</time>
      </trkpt>
      <trkpt lat="57.22221" lon="-5.46667">
        <ele>208.2</ele>
        <time>2021-04-06T13:56:13Z</time>
      </trkpt>
      <trkpt lat="57.2226" lon="-5.46507">
        <ele>209.42</ele>
        <time>2021-04-06T13:56:16Z</time>
      </trkpt>
      <trkpt lat="57.22278" lon="-5.46458">
        <ele>211.84</ele>
        <time>2021-04-06T13:56:19Z</time>
      </trkpt>
      <trkpt lat="57.22301" lon="-5.46423">
        <ele>215.31</ele>
        <time>2021-04-06T13:56:21Z</time>
      </trkpt>
      <trkpt lat="57.22314" lon="-5.46414">
        <ele>217.89</ele>
        <time>2021-04-06T13:56:24Z</time>
      </trkpt>
      <trkpt lat="57.22331" lon="-5.46414">
        <ele>222.81</ele>
        <time>2021-04-06T13:56:27Z</time>
      </trkpt>
      <trkpt lat="57.22387" lon="-5.46452">
        <ele>230.18</ele>
        <time>2021-04-06T13:56:30Z</time>
      </trkpt>
      <trkpt lat="57.22396" lon="-5.46468">
        <ele>231.39</ele>
        <time>2021-04-06T13:56:33Z</time>
      </trkpt>
      <trkpt lat="57.22396" lon="-5.46468">
        <ele>231.39</ele>
        <time>2021-04-06T13:56:33Z</time>
      </trkpt>
      <trkpt lat="57.22398" lon="-5.46488">
        <ele>232.39</ele>
        <time>2021-04-06T13:56:37Z</time>
      </trkpt>
      <trkpt lat="57.22398" lon="-5.46506">
        <ele>235.14</ele>
        <time>2021-04-06T13:56:41Z</time>
      </trkpt>
      <trkpt lat="57.22392" lon="-5.46525">
        <ele>239.91</ele>
        <time>2021-04-06T13:56:45Z</time>
      </trkpt>
      <trkpt lat="57.22378" lon="-5.46538">
        <ele>242.27</ele>
        <time>2021-04-06T13:56:50Z</time>
      </trkpt>
      <trkpt lat="57.22364" lon="-5.46556">
        <ele>244.27</ele>
        <time>2021-04-06T13:56:54Z</time>
      </trkpt>
      <trkpt lat="57.22356" lon="-5.46571">
        <ele>246.54</ele>
        <time>2021-04-06T13:56:58Z</time>
      </trkpt>
      <trkpt lat="57.22348" lon="-5.46596">
        <ele>250.04</ele>
        <time>2021-04-06T13:57:02Z</time>
      </trkpt>
      <trkpt lat="57.22342" lon="-5.46653">
        <ele>257.97</ele>
        <time>2021-04-06T13:57:06Z</time>
      </trkpt>
      <trkpt lat="57.2233" lon="-5.46694">
        <ele>260.05</ele>
        <time>2021-04-06T13:57:10Z</time>
      </trkpt>
      <trkpt lat="57.22312" lon="-5.4683">
        <ele>269.93</ele>
        <time>2021-04-06T13:57:15Z</time>
      </trkpt>
      <trkpt lat="57.2231" lon="-5.46857">
        <ele>270.8</ele>
        <time>2021-04-06T13:57:19Z</time>
      </trkpt>
      <trkpt lat="57.22313" lon="-5.46893">
        <ele>273.11</ele>
        <time>2021-04-06T13:57:23Z</time>
      </trkpt>
      <trkpt lat="57.22323" lon="-5.46976">
        <ele>285.18</ele>
        <time>2021-04-06T13:57:27Z</time>
      </trkpt>
      <trkpt lat="57.22322" lon="-5.47005">
        <ele>287.83</ele>
        <time>2021-04-06T13:57:31Z</time>
      </trkpt>
      <trkpt lat="57.22315" lon="-5.47034">
        <ele>289.95</ele>
        <time>2021-04-06T13:57:35Z</time>
      </trkpt>
      <trkpt lat="57.22288" lon="-5.47098">
        <ele>295.15</ele>
        <time>2021-04-06T13:57:40Z</time>
      </trkpt>
      <trkpt lat="57.2228" lon="-5.47144">
        <ele>300.16</ele>
        <time>2021-04-06T13:57:44Z</time>
      </trkpt>
      <trkpt lat="57.22275" lon="-5.47167">
        <ele>301.56</ele>
        <time>2021-04-06T13:57:48Z</time>
      </trkpt>
      <trkpt lat="57.2223" lon="-5.47257">
        <ele>313.53</ele>
        <time>2021-04-06T13:57:52Z</time>
      </trkpt>
      <trkpt lat="57.22217" lon="-5.47292">
        <ele>319.07</ele>
        <time>2021-04-06T13:57:56Z</time>
      </trkpt>
      <trkpt lat="57.22204" lon="-5.47316">
        <ele>322.97</ele>
        <time>2021-04-06T13:58:00Z</time>
      </trkpt>
      <trkpt lat="57.22191" lon="-5.4732">
        <ele>323.05</ele>
        <time>2021-04-06T13:58:05Z</time>
      </trkpt>
      <trkpt lat="57.22172" lon="-5.4732">
        <ele>322.6</ele>
        <time>2021-04-06T13:58:09Z</time>
      </trkpt>
      <trkpt lat="57.22119" lon="-5.47293">
        <ele>320.92</ele>
        <time>2021-04-06T13:58:13Z</time>
      </trkpt>
      <trkpt lat="57.22101" lon="-5.4729">
        <ele>321.84</ele>
        <time>2021-04-06T13:58:17Z</time>
      </trkpt>
      <trkpt lat="57.22089" lon="-5.47297">
        <ele>324.07</ele>
        <time>2021-04-06T13:58:21Z</time>
      </trkpt>
      <trkpt lat="57.22066" lon="-5.47351">
        <ele>329.01</ele>
        <time>2021-04-06T13:58:25Z</time>
      </trkpt>
      <trkpt lat="57.22055" lon="-5.47387">
        <ele>331.65</ele>
        <time>2021-04-06T13:58:30Z</time>
      </trkpt>
      <trkpt lat="57.22045" lon="-5.4744">
        <ele>333.33</ele>
        <time>2021-04-06T13:58:34Z</time>
      </trkpt>
      <trkpt lat="57.2204" lon="-5.47481">
        <ele>336.18</ele>
        <time>2021-04-06T13:58:38Z</time>
      </trkpt>
      <trkpt lat="57.2204" lon="-5.47503">
        <ele>338.14</ele>
        <time>2021-04-06T13:58:42Z</time>
      </trkpt>
      <trkpt lat="57.22049" lon="-5.47609">
        <ele>342.11</ele>
        <time>2021-04-06T13:58:46Z</time>
      </trkpt>
      <trkpt lat="57.22053" lon="-5.47694">
        <ele>341.32</ele>
        <time>2021-04-06T13:58:50Z</time>
      </trkpt>
      <trkpt lat="57.22052" lon="-5.47776">
        <ele>342.24</ele>
        <time>2021-04-06T13:58:55Z</time>
      </trkpt>
      <trkpt lat="57.22038" lon="-5.47923">
        <ele>341.56</ele>
        <time>2021-04-06T13:58:59Z</time>
      </trkpt>
      <trkpt lat="57.22028" lon="-5.47961">
        <ele>340.26</ele>
        <time>2021-04-06T13:59:03Z</time>
      </trkpt>
      <trkpt lat="57.22" lon="-5.48014">
        <ele>336.48</ele>
        <time>2021-04-06T13:59:07Z</time>
      </trkpt>
      <trkpt lat="57.21978" lon="-5.48066">
        <ele>335.02</ele>
        <time>2021-04-06T13:59:11Z</time>
      </trkpt>
      <trkpt lat="57.21961" lon="-5.48137">
        <ele>334.83</ele>
        <time>2021-04-06T13:59:15Z</time>
      </trkpt>
      <trkpt lat="57.21959" lon="-5.48161">
        <ele>334.63</ele>
        <time>2021-04-06T13:59:20Z</time>
      </trkpt>
      <trkpt lat="57.21964" lon="-5.48176">
        <ele>335.17</ele>
        <time>2021-04-06T13:59:24Z</time>
      </trkpt>
      <trkpt lat="57.21972" lon="-5.48184">
        <ele>335.74</ele>
        <time>2021-04-06T13:59:28Z</time>
      </trkpt>
      <trkpt lat="57.22003" lon="-5.48189">
        <ele>337.94</ele>
        <time>2021-04-06T13:59:32Z</time>
      </trkpt>
      <trkpt lat="57.22013" lon="-5.48205">
        <ele>338.54</ele>
        <time>2021-04-06T13:59:36Z</time>
      </trkpt>
      <trkpt lat="57.22019" lon="-5.48226">
        <ele>337.85</ele>
        <time>2021-04-06T13:59:40Z</time>
      </trkpt>
      <trkpt lat="57.22016" lon="-5.48288">
        <ele>329.83</ele>
        <time>2021-04-06T13:59:45Z</time>
      </trkpt>
      <trkpt lat="57.22018" lon="-5.48305">
        <ele>327.39</ele>
        <time>2021-04-06T13:59:49Z</time>
      </trkpt>
      <trkpt lat="57.22023" lon="-5.48322">
        <ele>325.36</ele>
        <time>2021-04-06T13:59:53Z</time>
      </trkpt>
      <trkpt lat="57.22052" lon="-5.48364">
        <ele>320.07</ele>
        <time>2021-04-06T13:59:57Z</time>
      </trkpt>
      <trkpt lat="57.2206" lon="-5.4837">
        <ele>319.3</ele>
        <time>2021-04-06T14:00:01Z</time>
      </trkpt>
      <trkpt lat="57.22068" lon="-5.4837">
        <ele>319.75</ele>
        <time>2021-04-06T14:00:05Z</time>
      </trkpt>
      <trkpt lat="57.22091" lon="-5.48362">
        <ele>322.34</ele>
        <time>2021-04-06T14:00:10Z</time>
      </trkpt>
      <trkpt lat="57.22108" lon="-5.4836">
        <ele>321.5</ele>
        <time>2021-04-06T14:00:14Z</time>
      </trkpt>
      <trkpt lat="57.22144" lon="-5.48374">
        <ele>315.86</ele>
        <time>2021-04-06T14:00:18Z</time>
      </trkpt>
      <trkpt lat="57.22154" lon="-5.4837">
        <ele>315.96</ele>
        <time>2021-04-06T14:00:22Z</time>
      </trkpt>
      <trkpt lat="57.22171" lon="-5.48361">
        <ele>316.62</ele>
        <time>2021-04-06T14:00:26Z</time>
      </trkpt>
      <trkpt lat="57.22225" lon="-5.48303">
        <ele>322.43</ele>
        <time>2021-04-06T14:00:30Z</time>
      </trkpt>
      <trkpt lat="57.22232" lon="-5.48304">
        <ele>322.54</ele>
        <time>2021-04-06T14:00:35Z</time>
      </trkpt>
      <trkpt lat="57.22238" lon="-5.4831">
        <ele>322.2</ele>
        <time>2021-04-06T14:00:39Z</time>
      </trkpt>
      <trkpt lat="57.2224" lon="-5.48327">
        <ele>321.03</ele>
        <time>2021-04-06T14:00:43Z</time>
      </trkpt>
      <trkpt lat="57.22238" lon="-5.48362">
        <ele>318.92</ele>
        <time>2021-04-06T14:00:47Z</time>
      </trkpt>
      <trkpt lat="57.22233" lon="-5.48413">
        <ele>317.22</ele>
        <time>2021-04-06T14:00:51Z</time>
      </trkpt>
      <trkpt lat="57.22228" lon="-5.48438">
        <ele>315.97</ele>
        <time>2021-04-06T14:00:55Z</time>
      </trkpt>
      <trkpt lat="57.22206" lon="-5.48513">
        <ele>311.4</ele>
        <time>2021-04-06T14:01:00Z</time>
      </trkpt>
      <trkpt lat="57.22197" lon="-5.48553">
        <ele>308.7</ele>
        <time>2021-04-06T14:01:04Z</time>
      </trkpt>
      <trkpt lat="57.22191" lon="-5.4864">
        <ele>303.98</ele>
        <time>2021-04-06T14:01:08Z</time>
      </trkpt>
      <trkpt lat="57.22171" lon="-5.48756">
        <ele>296.95</ele>
        <time>2021-04-06T14:01:12Z</time>
      </trkpt>
      <trkpt lat="57.22138" lon="-5.48906">
        <ele>289.46</ele>
        <time>2021-04-06T14:01:16Z</time>
      </trkpt>
      <trkpt lat="57.22117" lon="-5.4898">
        <ele>288.59</ele>
        <time>2021-04-06T14:01:20Z</time>
      </trkpt>
      <trkpt lat="57.22103" lon="-5.49014">
        <ele>286.2</ele>
        <time>2021-04-06T14:01:25Z</time>
      </trkpt>
      <trkpt lat="57.22051" lon="-5.49108">
        <ele>277.29</ele>
        <time>2021-04-06T14:01:29Z</time>
      </trkpt>
      <trkpt lat="57.22039" lon="-5.49134">
        <ele>272.69</ele>
        <time>2021-04-06T14:01:33Z</time>
      </trkpt>
      <trkpt lat="57.22033" lon="-5.49168">
        <ele>269.84</ele>
        <time>2021-04-06T14:01:37Z</time>
      </trkpt>
      <trkpt lat="57.22036" lon="-5.49197">
        <ele>268.92</ele>
        <time>2021-04-06T14:01:41Z</time>
      </trkpt>
      <trkpt lat="57.22043" lon="-5.49223">
        <ele>270.57</ele>
        <time>2021-04-06T14:01:45Z</time>
      </trkpt>
      <trkpt lat="57.22071" lon="-5.49281">
        <ele>274.61</ele>
        <time>2021-04-06T14:01:50Z</time>
      </trkpt>
      <trkpt lat="57.22073" lon="-5.493">
        <ele>274.44</ele>
        <time>2021-04-06T14:01:54Z</time>
      </trkpt>
      <trkpt lat="57.2207" lon="-5.49318">
        <ele>272.95</ele>
        <time>2021-04-06T14:01:58Z</time>
      </trkpt>
      <trkpt lat="57.2206" lon="-5.49333">
        <ele>269.58</ele>
        <time>2021-04-06T14:02:02Z</time>
      </trkpt>
      <trkpt lat="57.22024" lon="-5.49363">
        <ele>261.76</ele>
        <time>2021-04-06T14:02:06Z</time>
      </trkpt>
      <trkpt lat="57.21991" lon="-5.49418">
        <ele>257.46</ele>
        <time>2021-04-06T14:02:10Z</time>
      </trkpt>
      <trkpt lat="57.21974" lon="-5.49455">
        <ele>255.86</ele>
        <time>2021-04-06T14:02:15Z</time>
      </trkpt>
      <trkpt lat="57.21964" lon="-5.49483">
        <ele>253.87</ele>
        <time>2021-04-06T14:02:19Z</time>
      </trkpt>
      <trkpt lat="57.2196" lon="-5.49515">
        <ele>254.5</ele>
        <time>2021-04-06T14:02:23Z</time>
      </trkpt>
      <trkpt lat="57.21952" lon="-5.49543">
        <ele>253.17</ele>
        <time>2021-04-06T14:02:27Z</time>
      </trkpt>
      <trkpt lat="57.21926" lon="-5.49618">
        <ele>249.38</ele>
        <time>2021-04-06T14:02:31Z</time>
      </trkpt>
      <trkpt lat="57.21921" lon="-5.49653">
        <ele>249.26</ele>
        <time>2021-04-06T14:02:35Z</time>
      </trkpt>
      <trkpt lat="57.21909" lon="-5.49778">
        <ele>242.79</ele>
        <time>2021-04-06T14:02:40Z</time>
      </trkpt>
      <trkpt lat="57.219" lon="-5.4982">
        <ele>238.38</ele>
        <time>2021-04-06T14:02:44Z</time>
      </trkpt>
      <trkpt lat="57.21888" lon="-5.49858">
        <ele>233.52</ele>
        <time>2021-04-06T14:02:48Z</time>
      </trkpt>
      <trkpt lat="57.21867" lon="-5.4994">
        <ele>229.06</ele>
        <time>2021-04-06T14:02:52Z</time>
      </trkpt>
      <trkpt lat="57.21855" lon="-5.49976">
        <ele>225.58</ele>
        <time>2021-04-06T14:02:56Z</time>
      </trkpt>
      <trkpt lat="57.21848" lon="-5.5">
        <ele>223.86</ele>
        <time>2021-04-06T14:03:00Z</time>
      </trkpt>
      <trkpt lat="57.21846" lon="-5.50059">
        <ele>225.13</ele>
        <time>2021-04-06T14:03:05Z</time>
      </trkpt>
      <trkpt lat="57.21837" lon="-5.50097">
        <ele>224.35</ele>
        <time>2021-04-06T14:03:09Z</time>
      </trkpt>
      <trkpt lat="57.21814" lon="-5.50145">
        <ele>218.34</ele>
        <time>2021-04-06T14:03:13Z</time>
      </trkpt>
      <trkpt lat="57.21805" lon="-5.5017">
        <ele>215.96</ele>
        <time>2021-04-06T14:03:17Z</time>
      </trkpt>
      <trkpt lat="57.21803" lon="-5.50202">
        <ele>215.06</ele>
        <time>2021-04-06T14:03:21Z</time>
      </trkpt>
      <trkpt lat="57.21808" lon="-5.50247">
        <ele>214.77</ele>
        <time>2021-04-06T14:03:25Z</time>
      </trkpt>
      <trkpt lat="57.21814" lon="-5.50276">
        <ele>213.92</ele>
        <time>2021-04-06T14:03:30Z</time>
      </trkpt>
      <trkpt lat="57.21828" lon="-5.50305">
        <ele>213.69</ele>
        <time>2021-04-06T14:03:34Z</time>
      </trkpt>
      <trkpt lat="57.21835" lon="-5.5033">
        <ele>212.7</ele>
        <time>2021-04-06T14:03:38Z</time>
      </trkpt>
      <trkpt lat="57.21836" lon="-5.50356">
        <ele>210.38</ele>
        <time>2021-04-06T14:03:42Z</time>
      </trkpt>
      <trkpt lat="57.21834" lon="-5.50431">
        <ele>204.57</ele>
        <time>2021-04-06T14:03:46Z</time>
      </trkpt>
      <trkpt lat="57.21834" lon="-5.50452">
        <ele>203.43</ele>
        <time>2021-04-06T14:03:50Z</time>
      </trkpt>
      <trkpt lat="57.21837" lon="-5.50473">
        <ele>202.27</ele>
        <time>2021-04-06T14:03:55Z</time>
      </trkpt>
      <trkpt lat="57.21867" lon="-5.5057">
        <ele>198.65</ele>
        <time>2021-04-06T14:03:59Z</time>
      </trkpt>
      <trkpt lat="57.21894" lon="-5.50625">
        <ele>195.37</ele>
        <time>2021-04-06T14:04:03Z</time>
      </trkpt>
      <trkpt lat="57.21921" lon="-5.50672">
        <ele>193.47</ele>
        <time>2021-04-06T14:04:07Z</time>
      </trkpt>
      <trkpt lat="57.21931" lon="-5.50694">
        <ele>192.99</ele>
        <time>2021-04-06T14:04:11Z</time>
      </trkpt>
      <trkpt lat="57.21938" lon="-5.50729">
        <ele>191.51</ele>
        <time>2021-04-06T14:04:15Z</time>
      </trkpt>
      <trkpt lat="57.21939" lon="-5.50783">
        <ele>186.05</ele>
        <time>2021-04-06T14:04:20Z</time>
      </trkpt>
      <trkpt lat="57.21929" lon="-5.50967">
        <ele>175.82</ele>
        <time>2021-04-06T14:04:24Z</time>
      </trkpt>
      <trkpt lat="57.2193" lon="-5.51002">
        <ele>174.23</ele>
        <time>2021-04-06T14:04:28Z</time>
      </trkpt>
      <trkpt lat="57.21952" lon="-5.51154">
        <ele>164.86</ele>
        <time>2021-04-06T14:04:32Z</time>
      </trkpt>
      <trkpt lat="57.21982" lon="-5.5127">
        <ele>161.67</ele>
        <time>2021-04-06T14:04:36Z</time>
      </trkpt>
      <trkpt lat="57.21981" lon="-5.5129">
        <ele>161.31</ele>
        <time>2021-04-06T14:04:40Z</time>
      </trkpt>
      <trkpt lat="57.21968" lon="-5.51334">
        <ele>159.13</ele>
        <time>2021-04-06T14:04:45Z</time>
      </trkpt>
      <trkpt lat="57.21952" lon="-5.51396">
        <ele>154.41</ele>
        <time>2021-04-06T14:04:49Z</time>
      </trkpt>
      <trkpt lat="57.21946" lon="-5.5143">
        <ele>151.56</ele>
        <time>2021-04-06T14:04:53Z</time>
      </trkpt>
      <trkpt lat="57.21945" lon="-5.51448">
        <ele>150.87</ele>
        <time>2021-04-06T14:04:57Z</time>
      </trkpt>
      <trkpt lat="57.21952" lon="-5.51659">
        <ele>144.12</ele>
        <time>2021-04-06T14:05:01Z</time>
      </trkpt>
      <trkpt lat="57.21952" lon="-5.5172">
        <ele>142.63</ele>
        <time>2021-04-06T14:05:05Z</time>
      </trkpt>
      <trkpt lat="57.21936" lon="-5.51886">
        <ele>131.39</ele>
        <time>2021-04-06T14:05:10Z</time>
      </trkpt>
      <trkpt lat="57.21932" lon="-5.52061">
        <ele>126.85</ele>
        <time>2021-04-06T14:05:14Z</time>
      </trkpt>
      <trkpt lat="57.21925" lon="-5.5214">
        <ele>122.24</ele>
        <time>2021-04-06T14:05:18Z</time>
      </trkpt>
      <trkpt lat="57.21925" lon="-5.52206">
        <ele>119.56</ele>
        <time>2021-04-06T14:05:22Z</time>
      </trkpt>
      <trkpt lat="57.21947" lon="-5.52479">
        <ele>106.36</ele>
        <time>2021-04-06T14:05:26Z</time>
      </trkpt>
      <trkpt lat="57.21946" lon="-5.52525">
        <ele>103.65</ele>
        <time>2021-04-06T14:05:30Z</time>
      </trkpt>
      <trkpt lat="57.21952" lon="-5.52594">
        <ele>101.91</ele>
        <time>2021-04-06T14:05:35Z</time>
      </trkpt>
      <trkpt lat="57.21949" lon="-5.52655">
        <ele>98.94</ele>
        <time>2021-04-06T14:05:39Z</time>
      </trkpt>
      <trkpt lat="57.21955" lon="-5.52721">
        <ele>97.72</ele>
        <time>2021-04-06T14:05:43Z</time>
      </trkpt>
      <trkpt lat="57.21965" lon="-5.52814">
        <ele>93.75</ele>
        <time>2021-04-06T14:05:47Z</time>
      </trkpt>
      <trkpt lat="57.21967" lon="-5.52861">
        <ele>91.96</ele>
        <time>2021-04-06T14:05:51Z</time>
      </trkpt>
      <trkpt lat="57.21958" lon="-5.53113">
        <ele>82.4</ele>
        <time>2021-04-06T14:05:55Z</time>
      </trkpt>
      <trkpt lat="57.21965" lon="-5.53251">
        <ele>76.51</ele>
        <time>2021-04-06T14:06:00Z</time>
      </trkpt>
      <trkpt lat="57.21969" lon="-5.53445">
        <ele>70.62</ele>
        <time>2021-04-06T14:06:04Z</time>
      </trkpt>
      <trkpt lat="57.21962" lon="-5.53568">
        <ele>63.21</ele>
        <time>2021-04-06T14:06:08Z</time>
      </trkpt>
      <trkpt lat="57.21962" lon="-5.53596">
        <ele>60.95</ele>
        <time>2021-04-06T14:06:12Z</time>
      </trkpt>
      <trkpt lat="57.21965" lon="-5.53616">
        <ele>60.65</ele>
        <time>2021-04-06T14:06:16Z</time>
      </trkpt>
      <trkpt lat="57.21983" lon="-5.53681">
        <ele>61.02</ele>
        <time>2021-04-06T14:06:20Z</time>
      </trkpt>
      <trkpt lat="57.21994" lon="-5.53735">
        <ele>60.47</ele>
        <time>2021-04-06T14:06:25Z</time>
      </trkpt>
      <trkpt lat="57.22006" lon="-5.53862">
        <ele>55.17</ele>
        <time>2021-04-06T14:06:29Z</time>
      </trkpt>
      <trkpt lat="57.22017" lon="-5.53942">
        <ele>53.54</ele>
        <time>2021-04-06T14:06:33Z</time>
      </trkpt>
      <trkpt lat="57.22122" lon="-5.54183">
        <ele>49.46</ele>
        <time>2021-04-06T14:06:37Z</time>
      </trkpt>
      <trkpt lat="57.22153" lon="-5.54262">
        <ele>46.18</ele>
        <time>2021-04-06T14:06:41Z</time>
      </trkpt>
      <trkpt lat="57.22157" lon="-5.54272">
        <ele>46.23</ele>
        <time>2021-04-06T14:06:45Z</time>
      </trkpt>
      <trkpt lat="57.22186" lon="-5.54396">
        <ele>43.6</ele>
        <time>2021-04-06T14:06:50Z</time>
      </trkpt>
      <trkpt lat="57.22188" lon="-5.5444">
        <ele>41.83</ele>
        <time>2021-04-06T14:06:54Z</time>
      </trkpt>
      <trkpt lat="57.22196" lon="-5.54507">
        <ele>40.19</ele>
        <time>2021-04-06T14:06:58Z</time>
      </trkpt>
      <trkpt lat="57.22233" lon="-5.54719">
        <ele>35.26</ele>
        <time>2021-04-06T14:07:02Z</time>
      </trkpt>
      <trkpt lat="57.22242" lon="-5.54795">
        <ele>34.4</ele>
        <time>2021-04-06T14:07:06Z</time>
      </trkpt>
      <trkpt lat="57.2225" lon="-5.54938">
        <ele>34.21</ele>
        <time>2021-04-06T14:07:10Z</time>
      </trkpt>
      <trkpt lat="57.22275" lon="-5.55172">
        <ele>34.91</ele>
        <time>2021-04-06T14:07:15Z</time>
      </trkpt>
      <trkpt lat="57.22283" lon="-5.55313">
        <ele>33.86</ele>
        <time>2021-04-06T14:07:19Z</time>
      </trkpt>
      <trkpt lat="57.2228" lon="-5.55457">
        <ele>29.27</ele>
        <time>2021-04-06T14:07:23Z</time>
      </trkpt>
      <trkpt lat="57.22274" lon="-5.55525">
        <ele>30.19</ele>
        <time>2021-04-06T14:07:27Z</time>
      </trkpt>
      <trkpt lat="57.22241" lon="-5.5571">
        <ele>25.57</ele>
        <time>2021-04-06T14:07:31Z</time>
      </trkpt>
      <trkpt lat="57.22233" lon="-5.5577">
        <ele>26.29</ele>
        <time>2021-04-06T14:07:35Z</time>
      </trkpt>
      <trkpt lat="57.22233" lon="-5.55809">
        <ele>27.4</ele>
        <time>2021-04-06T14:07:40Z</time>
      </trkpt>
      <trkpt lat="57.22237" lon="-5.55856">
        <ele>27.46</ele>
        <time>2021-04-06T14:07:44Z</time>
      </trkpt>
      <trkpt lat="57.2227" lon="-5.55989">
        <ele>28.03</ele>
        <time>2021-04-06T14:07:48Z</time>
      </trkpt>
      <trkpt lat="57.22283" lon="-5.56083">
        <ele>27.5</ele>
        <time>2021-04-06T14:07:52Z</time>
      </trkpt>
      <trkpt lat="57.22293" lon="-5.56226">
        <ele>31.93</ele>
        <time>2021-04-06T14:07:56Z</time>
      </trkpt>
      <trkpt lat="57.22298" lon="-5.5639">
        <ele>35.65</ele>
        <time>2021-04-06T14:08:00Z</time>
      </trkpt>
      <trkpt lat="57.22295" lon="-5.5647">
        <ele>35.99</ele>
        <time>2021-04-06T14:08:05Z</time>
      </trkpt>
      <trkpt lat="57.22282" lon="-5.56612">
        <ele>34.27</ele>
        <time>2021-04-06T14:08:09Z</time>
      </trkpt>
      <trkpt lat="57.22267" lon="-5.56754">
        <ele>33.16</ele>
        <time>2021-04-06T14:08:13Z</time>
      </trkpt>
      <trkpt lat="57.22255" lon="-5.5688">
        <ele>33.46</ele>
        <time>2021-04-06T14:08:17Z</time>
      </trkpt>
      <trkpt lat="57.22226" lon="-5.5709">
        <ele>35.98</ele>
        <time>2021-04-06T14:08:21Z</time>
      </trkpt>
      <trkpt lat="57.22219" lon="-5.57111">
        <ele>35.5</ele>
        <time>2021-04-06T14:08:25Z</time>
      </trkpt>
      <trkpt lat="57.22208" lon="-5.57133">
        <ele>35.72</ele>
        <time>2021-04-06T14:08:29Z</time>
      </trkpt>
      <trkpt lat="57.22168" lon="-5.57178">
        <ele>35.46</ele>
        <time>2021-04-06T14:08:34Z</time>
      </trkpt>
      <trkpt lat="57.22148" lon="-5.5721">
        <ele>34.38</ele>
        <time>2021-04-06T14:08:38Z</time>
      </trkpt>
      <trkpt lat="57.22138" lon="-5.57238">
        <ele>33.94</ele>
        <time>2021-04-06T14:08:42Z</time>
      </trkpt>
      <trkpt lat="57.22056" lon="-5.57502">
        <ele>33.07</ele>
        <time>2021-04-06T14:08:46Z</time>
      </trkpt>
      <trkpt lat="57.22038" lon="-5.57572">
        <ele>32.49</ele>
        <time>2021-04-06T14:08:50Z</time>
      </trkpt>
      <trkpt lat="57.22" lon="-5.57803">
        <ele>33.88</ele>
        <time>2021-04-06T14:08:54Z</time>
      </trkpt>
      <trkpt lat="57.21972" lon="-5.57911">
        <ele>33.68</ele>
        <time>2021-04-06T14:08:59Z</time>
      </trkpt>
      <trkpt lat="57.21956" lon="-5.57984">
        <ele>32.29</ele>
        <time>2021-04-06T14:09:03Z</time>
      </trkpt>
      <trkpt lat="57.21942" lon="-5.58071">
        <ele>31.48</ele>
        <time>2021-04-06T14:09:07Z</time>
      </trkpt>
      <trkpt lat="57.21919" lon="-5.58279">
        <ele>32.59</ele>
        <time>2021-04-06T14:09:11Z</time>
      </trkpt>
      <trkpt lat="57.21903" lon="-5.58575">
        <ele>22.94</ele>
        <time>2021-04-06T14:09:15Z</time>
      </trkpt>
      <trkpt lat="57.21889" lon="-5.58645">
        <ele>22.29</ele>
        <time>2021-04-06T14:09:19Z</time>
      </trkpt>
      <trkpt lat="57.21814" lon="-5.58866">
        <ele>23.71</ele>
        <time>2021-04-06T14:09:24Z</time>
      </trkpt>
      <trkpt lat="57.21804" lon="-5.58904">
        <ele>23.69</ele>
        <time>2021-04-06T14:09:28Z</time>
      </trkpt>
      <trkpt lat="57.21784" lon="-5.59009">
        <ele>27.39</ele>
        <time>2021-04-06T14:09:32Z</time>
      </trkpt>
      <trkpt lat="57.21774" lon="-5.59088">
        <ele>32.17</ele>
        <time>2021-04-06T14:09:36Z</time>
      </trkpt>
      <trkpt lat="57.21751" lon="-5.59416">
        <ele>30.08</ele>
        <time>2021-04-06T14:09:40Z</time>
      </trkpt>
      <trkpt lat="57.21725" lon="-5.59751">
        <ele>27.68</ele>
        <time>2021-04-06T14:09:44Z</time>
      </trkpt>
      <trkpt lat="57.21715" lon="-5.59819">
        <ele>25.02</ele>
        <time>2021-04-06T14:09:49Z</time>
      </trkpt>
      <trkpt lat="57.21696" lon="-5.59915">
        <ele>25.12</ele>
        <time>2021-04-06T14:09:53Z</time>
      </trkpt>
      <trkpt lat="57.21689" lon="-5.59935">
        <ele>24.08</ele>
        <time>2021-04-06T14:09:57Z</time>
      </trkpt>
      <trkpt lat="57.21646" lon="-5.60027">
        <ele>20.02</ele>
        <time>2021-04-06T14:10:01Z</time>
      </trkpt>
      <trkpt lat="57.21635" lon="-5.6006">
        <ele>18.45</ele>
        <time>2021-04-06T14:10:05Z</time>
      </trkpt>
      <trkpt lat="57.21633" lon="-5.60082">
        <ele>18.09</ele>
        <time>2021-04-06T14:10:09Z</time>
      </trkpt>
      <trkpt lat="57.21637" lon="-5.60382">
        <ele>15.75</ele>
        <time>2021-04-06T14:10:14Z</time>
      </trkpt>
      <trkpt lat="57.21641" lon="-5.6045">
        <ele>15.14</ele>
        <time>2021-04-06T14:10:18Z</time>
      </trkpt>
      <trkpt lat="57.2165" lon="-5.60496">
        <ele>14.76</ele>
        <time>2021-04-06T14:10:22Z</time>
      </trkpt>
      <trkpt lat="57.21671" lon="-5.60567">
        <ele>12.43</ele>
        <time>2021-04-06T14:10:26Z</time>
      </trkpt>
      <trkpt lat="57.21729" lon="-5.60745">
        <ele>12.94</ele>
        <time>2021-04-06T14:10:30Z</time>
      </trkpt>
      <trkpt lat="57.21753" lon="-5.60845">
        <ele>12.53</ele>
        <time>2021-04-06T14:10:34Z</time>
      </trkpt>
      <trkpt lat="57.21755" lon="-5.60862">
        <ele>13</ele>
        <time>2021-04-06T14:10:39Z</time>
      </trkpt>
      <trkpt lat="57.21757" lon="-5.60889">
        <ele>13</ele>
        <time>2021-04-06T14:10:43Z</time>
      </trkpt>
      <trkpt lat="57.21755" lon="-5.60935">
        <ele>13.19</ele>
        <time>2021-04-06T14:10:47Z</time>
      </trkpt>
      <trkpt lat="57.21733" lon="-5.61041">
        <ele>11.78</ele>
        <time>2021-04-06T14:10:51Z</time>
      </trkpt>
      <trkpt lat="57.2173" lon="-5.61067">
        <ele>11.04</ele>
        <time>2021-04-06T14:10:55Z</time>
      </trkpt>
      <trkpt lat="57.2173" lon="-5.61101">
        <ele>10.1</ele>
        <time>2021-04-06T14:10:59Z</time>
      </trkpt>
      <trkpt lat="57.21733" lon="-5.61122">
        <ele>9.63</ele>
        <time>2021-04-06T14:11:04Z</time>
      </trkpt>
      <trkpt lat="57.21836" lon="-5.61463">
        <ele>5.65</ele>
        <time>2021-04-06T14:11:08Z</time>
      </trkpt>
      <trkpt lat="57.21955" lon="-5.61839">
        <ele>5.74</ele>
        <time>2021-04-06T14:11:12Z</time>
      </trkpt>
      <trkpt lat="57.21992" lon="-5.62009">
        <ele>10.54</ele>
        <time>2021-04-06T14:11:16Z</time>
      </trkpt>
      <trkpt lat="57.22009" lon="-5.62103">
        <ele>11.91</ele>
        <time>2021-04-06T14:11:20Z</time>
      </trkpt>
      <trkpt lat="57.2202" lon="-5.62172">
        <ele>12.83</ele>
        <time>2021-04-06T14:11:24Z</time>
      </trkpt>
      <trkpt lat="57.22023" lon="-5.62209">
        <ele>10.11</ele>
        <time>2021-04-06T14:11:29Z</time>
      </trkpt>
      <trkpt lat="57.22025" lon="-5.62256">
        <ele>10.47</ele>
        <time>2021-04-06T14:11:33Z</time>
      </trkpt>
      <trkpt lat="57.22021" lon="-5.62335">
        <ele>11.56</ele>
        <time>2021-04-06T14:11:37Z</time>
      </trkpt>
      <trkpt lat="57.22025" lon="-5.6241">
        <ele>9.81</ele>
        <time>2021-04-06T14:11:41Z</time>
      </trkpt>
      <trkpt lat="57.22086" lon="-5.62774">
        <ele>12.59</ele>
        <time>2021-04-06T14:11:45Z</time>
      </trkpt>
      <trkpt lat="57.2213" lon="-5.62929">
        <ele>11.11</ele>
        <time>2021-04-06T14:11:49Z</time>
      </trkpt>
      <trkpt lat="57.22149" lon="-5.62967">
        <ele>10.21</ele>
        <time>2021-04-06T14:11:54Z</time>
      </trkpt>
      <trkpt lat="57.22243" lon="-5.63038">
        <ele>14.15</ele>
        <time>2021-04-06T14:11:58Z</time>
      </trkpt>
      <trkpt lat="57.22347" lon="-5.63136">
        <ele>16.52</ele>
        <time>2021-04-06T14:12:02Z</time>
      </trkpt>
      <trkpt lat="57.22377" lon="-5.63182">
        <ele>10.51</ele>
        <time>2021-04-06T14:12:06Z</time>
      </trkpt>
      <trkpt lat="57.22388" lon="-5.63209">
        <ele>6.88</ele>
        <time>2021-04-06T14:12:10Z</time>
      </trkpt>
      <trkpt lat="57.22396" lon="-5.63237">
        <ele>5</ele>
        <time>2021-04-06T14:12:14Z</time>
      </trkpt>
      <trkpt lat="57.2245" lon="-5.63416">
        <ele>8.62</ele>
        <time>2021-04-06T14:12:19Z</time>
      </trkpt>
      <trkpt lat="57.22514" lon="-5.63605">
        <ele>9.47</ele>
        <time>2021-04-06T14:12:23Z</time>
      </trkpt>
      <trkpt lat="57.22559" lon="-5.6371">
        <ele>8.88</ele>
        <time>2021-04-06T14:12:27Z</time>
      </trkpt>
      <trkpt lat="57.22605" lon="-5.63811">
        <ele>4.95</ele>
        <time>2021-04-06T14:12:31Z</time>
      </trkpt>
      <trkpt lat="57.22617" lon="-5.6385">
        <ele>5.58</ele>
        <time>2021-04-06T14:12:35Z</time>
      </trkpt>
      <trkpt lat="57.22639" lon="-5.63969">
        <ele>9.83</ele>
        <time>2021-04-06T14:12:39Z</time>
      </trkpt>
      <trkpt lat="57.22643" lon="-5.6402">
        <ele>13.97</ele>
        <time>2021-04-06T14:12:44Z</time>
      </trkpt>
      <trkpt lat="57.22641" lon="-5.64068">
        <ele>17.25</ele>
        <time>2021-04-06T14:12:48Z</time>
      </trkpt>
      <trkpt lat="57.22617" lon="-5.6419">
        <ele>16.36</ele>
        <time>2021-04-06T14:12:52Z</time>
      </trkpt>
      <trkpt lat="57.2261" lon="-5.64276">
        <ele>17.51</ele>
        <time>2021-04-06T14:12:56Z</time>
      </trkpt>
      <trkpt lat="57.22608" lon="-5.6436">
        <ele>14.73</ele>
        <time>2021-04-06T14:13:00Z</time>
      </trkpt>
      <trkpt lat="57.22611" lon="-5.64442">
        <ele>12.96</ele>
        <time>2021-04-06T14:13:04Z</time>
      </trkpt>
      <trkpt lat="57.22635" lon="-5.6464">
        <ele>17.53</ele>
        <time>2021-04-06T14:13:09Z</time>
      </trkpt>
      <trkpt lat="57.2264" lon="-5.64703">
        <ele>17.42</ele>
        <time>2021-04-06T14:13:13Z</time>
      </trkpt>
      <trkpt lat="57.22636" lon="-5.64739">
        <ele>17.44</ele>
        <time>2021-04-06T14:13:17Z</time>
      </trkpt>
      <trkpt lat="57.22602" lon="-5.64833">
        <ele>15.38</ele>
        <time>2021-04-06T14:13:21Z</time>
      </trkpt>
      <trkpt lat="57.22583" lon="-5.64862">
        <ele>11.04</ele>
        <time>2021-04-06T14:13:25Z</time>
      </trkpt>
      <trkpt lat="57.22578" lon="-5.64879">
        <ele>10.94</ele>
        <time>2021-04-06T14:13:29Z</time>
      </trkpt>
      <trkpt lat="57.22579" lon="-5.64899">
        <ele>11.67</ele>
        <time>2021-04-06T14:13:34Z</time>
      </trkpt>
      <trkpt lat="57.22589" lon="-5.64928">
        <ele>14.26</ele>
        <time>2021-04-06T14:13:38Z</time>
      </trkpt>
      <trkpt lat="57.22636" lon="-5.65041">
        <ele>16.08</ele>
        <time>2021-04-06T14:13:42Z</time>
      </trkpt>
      <trkpt lat="57.2269" lon="-5.65151">
        <ele>15.64</ele>
        <time>2021-04-06T14:13:46Z</time>
      </trkpt>
      <trkpt lat="57.22701" lon="-5.65186">
        <ele>15.64</ele>
        <time>2021-04-06T14:13:50Z</time>
      </trkpt>
      <trkpt lat="57.2272" lon="-5.65283">
        <ele>15.39</ele>
        <time>2021-04-06T14:13:54Z</time>
      </trkpt>
      <trkpt lat="57.22739" lon="-5.6532">
        <ele>17.09</ele>
        <time>2021-04-06T14:13:59Z</time>
      </trkpt>
      <trkpt lat="57.22768" lon="-5.65357">
        <ele>19.7</ele>
        <time>2021-04-06T14:14:03Z</time>
      </trkpt>
      <trkpt lat="57.2286" lon="-5.65427">
        <ele>19.9</ele>
        <time>2021-04-06T14:14:07Z</time>
      </trkpt>
      <trkpt lat="57.22925" lon="-5.65456">
        <ele>14.64</ele>
        <time>2021-04-06T14:14:11Z</time>
      </trkpt>
      <trkpt lat="57.22988" lon="-5.65491">
        <ele>10.92</ele>
        <time>2021-04-06T14:14:15Z</time>
      </trkpt>
      <trkpt lat="57.22997" lon="-5.65503">
        <ele>9.63</ele>
        <time>2021-04-06T14:14:19Z</time>
      </trkpt>
      <trkpt lat="57.23" lon="-5.65517">
        <ele>8.11</ele>
        <time>2021-04-06T14:14:24Z</time>
      </trkpt>
      <trkpt lat="57.22994" lon="-5.65523">
        <ele>7.28</ele>
        <time>2021-04-06T14:14:28Z</time>
      </trkpt>
      <trkpt lat="57.22931" lon="-5.65521">
        <ele>6.26</ele>
        <time>2021-04-06T14:14:32Z</time>
      </trkpt>
      <trkpt lat="57.22909" lon="-5.65518">
        <ele>6.68</ele>
        <time>2021-04-06T14:14:36Z</time>
      </trkpt>
      <trkpt lat="57.22906" lon="-5.65525">
        <ele>6.05</ele>
        <time>2021-04-06T14:14:40Z</time>
      </trkpt>
      <trkpt lat="57.22915" lon="-5.65563">
        <ele>2.8</ele>
        <time>2021-04-06T14:14:44Z</time>
      </trkpt>
      <trkpt lat="57.22973" lon="-5.65682">
        <ele>3.02</ele>
        <time>2021-04-06T14:14:49Z</time>
      </trkpt>
      <trkpt lat="57.22827" lon="-5.6596">
        <ele>3.48</ele>
        <time>2021-04-06T14:14:53Z</time>
      </trkpt>
      <trkpt lat="57.22777" lon="-5.66477">
        <ele>4.34</ele>
        <time>2021-04-06T14:14:57Z</time>
      </trkpt>
      <trkpt lat="57.22774" lon="-5.66508">
        <ele>6.76</ele>
        <time>2021-04-06T14:15:01Z</time>
      </trkpt>
      <trkpt lat="57.22771" lon="-5.66517">
        <ele>8.83</ele>
        <time>2021-04-06T14:15:05Z</time>
      </trkpt>
      <trkpt lat="57.22764" lon="-5.66515">
        <ele>9.74</ele>
        <time>2021-04-06T14:15:09Z</time>
      </trkpt>
      <trkpt lat="57.22756" lon="-5.665">
        <ele>9.07</ele>
        <time>2021-04-06T14:15:14Z</time>
      </trkpt>
      <trkpt lat="57.22747" lon="-5.66474">
        <ele>7.82</ele>
        <time>2021-04-06T14:15:18Z</time>
      </trkpt>
      <trkpt lat="57.22732" lon="-5.66442">
        <ele>6.51</ele>
        <time>2021-04-06T14:15:22Z</time>
      </trkpt>
      <trkpt lat="57.22718" lon="-5.66424">
        <ele>6.36</ele>
        <time>2021-04-06T14:15:26Z</time>
      </trkpt>
      <trkpt lat="57.22704" lon="-5.66415">
        <ele>6.66</ele>
        <time>2021-04-06T14:15:30Z</time>
      </trkpt>
      <trkpt lat="57.22692" lon="-5.66414">
        <ele>7.61</ele>
        <time>2021-04-06T14:15:34Z</time>
      </trkpt>
      <trkpt lat="57.22668" lon="-5.66422">
        <ele>10.43</ele>
        <time>2021-04-06T14:15:39Z</time>
      </trkpt>
      <trkpt lat="57.2264" lon="-5.66448">
        <ele>13.37</ele>
        <time>2021-04-06T14:15:43Z</time>
      </trkpt>
      <trkpt lat="57.22539" lon="-5.6647">
        <ele>17.73</ele>
        <time>2021-04-06T14:15:47Z</time>
      </trkpt>
      <trkpt lat="57.22522" lon="-5.66481">
        <ele>18.25</ele>
        <time>2021-04-06T14:15:51Z</time>
      </trkpt>
      <trkpt lat="57.22507" lon="-5.66505">
        <ele>18.33</ele>
        <time>2021-04-06T14:15:55Z</time>
      </trkpt>
      <trkpt lat="57.22498" lon="-5.66535">
        <ele>18.9</ele>
        <time>2021-04-06T14:15:59Z</time>
      </trkpt>
      <trkpt lat="57.22494" lon="-5.66562">
        <ele>18.74</ele>
        <time>2021-04-06T14:16:04Z</time>
      </trkpt>
      <trkpt lat="57.22493" lon="-5.66621">
        <ele>18.86</ele>
        <time>2021-04-06T14:16:08Z</time>
      </trkpt>
      <trkpt lat="57.22471" lon="-5.66829">
        <ele>19.76</ele>
        <time>2021-04-06T14:16:12Z</time>
      </trkpt>
      <trkpt lat="57.22432" lon="-5.66984">
        <ele>27.75</ele>
        <time>2021-04-06T14:16:16Z</time>
      </trkpt>
      <trkpt lat="57.22415" lon="-5.67035">
        <ele>30.33</ele>
        <time>2021-04-06T14:16:20Z</time>
      </trkpt>
      <trkpt lat="57.22397" lon="-5.6708">
        <ele>31.23</ele>
        <time>2021-04-06T14:16:24Z</time>
      </trkpt>
      <trkpt lat="57.2239" lon="-5.67107">
        <ele>31.08</ele>
        <time>2021-04-06T14:16:29Z</time>
      </trkpt>
      <trkpt lat="57.22383" lon="-5.67274">
        <ele>36.46</ele>
        <time>2021-04-06T14:16:33Z</time>
      </trkpt>
      <trkpt lat="57.22379" lon="-5.67289">
        <ele>36.68</ele>
        <time>2021-04-06T14:16:37Z</time>
      </trkpt>
      <trkpt lat="57.22368" lon="-5.67315">
        <ele>36.08</ele>
        <time>2021-04-06T14:16:41Z</time>
      </trkpt>
      <trkpt lat="57.22354" lon="-5.67433">
        <ele>40.55</ele>
        <time>2021-04-06T14:16:45Z</time>
      </trkpt>
      <trkpt lat="57.22355" lon="-5.67527">
        <ele>45.77</ele>
        <time>2021-04-06T14:16:49Z</time>
      </trkpt>
      <trkpt lat="57.22352" lon="-5.67604">
        <ele>48.02</ele>
        <time>2021-04-06T14:16:54Z</time>
      </trkpt>
      <trkpt lat="57.22356" lon="-5.67656">
        <ele>50.54</ele>
        <time>2021-04-06T14:16:58Z</time>
      </trkpt>
      <trkpt lat="57.22362" lon="-5.67706">
        <ele>54.81</ele>
        <time>2021-04-06T14:17:02Z</time>
      </trkpt>
      <trkpt lat="57.22363" lon="-5.67764">
        <ele>56.97</ele>
        <time>2021-04-06T14:17:06Z</time>
      </trkpt>
      <trkpt lat="57.22359" lon="-5.67822">
        <ele>59.67</ele>
        <time>2021-04-06T14:17:10Z</time>
      </trkpt>
      <trkpt lat="57.2234" lon="-5.68039">
        <ele>65.21</ele>
        <time>2021-04-06T14:17:14Z</time>
      </trkpt>
      <trkpt lat="57.22336" lon="-5.68205">
        <ele>71.47</ele>
        <time>2021-04-06T14:17:19Z</time>
      </trkpt>
      <trkpt lat="57.2234" lon="-5.68255">
        <ele>74.86</ele>
        <time>2021-04-06T14:17:23Z</time>
      </trkpt>
      <trkpt lat="57.22348" lon="-5.68323">
        <ele>77.18</ele>
        <time>2021-04-06T14:17:27Z</time>
      </trkpt>
      <trkpt lat="57.22389" lon="-5.68535">
        <ele>93.18</ele>
        <time>2021-04-06T14:17:31Z</time>
      </trkpt>
      <trkpt lat="57.22407" lon="-5.68599">
        <ele>98.18</ele>
        <time>2021-04-06T14:17:35Z</time>
      </trkpt>
      <trkpt lat="57.22411" lon="-5.68621">
        <ele>99.58</ele>
        <time>2021-04-06T14:17:39Z</time>
      </trkpt>
      <trkpt lat="57.22412" lon="-5.68642">
        <ele>100.47</ele>
        <time>2021-04-06T14:17:44Z</time>
      </trkpt>
      <trkpt lat="57.22408" lon="-5.68691">
        <ele>100.95</ele>
        <time>2021-04-06T14:17:48Z</time>
      </trkpt>
      <trkpt lat="57.22408" lon="-5.68722">
        <ele>101.86</ele>
        <time>2021-04-06T14:17:52Z</time>
      </trkpt>
      <trkpt lat="57.22438" lon="-5.69011">
        <ele>114.04</ele>
        <time>2021-04-06T14:17:56Z</time>
      </trkpt>
      <trkpt lat="57.22443" lon="-5.69077">
        <ele>118.34</ele>
        <time>2021-04-06T14:18:00Z</time>
      </trkpt>
      <trkpt lat="57.22443" lon="-5.69133">
        <ele>118.57</ele>
        <time>2021-04-06T14:18:04Z</time>
      </trkpt>
      <trkpt lat="57.22445" lon="-5.6916">
        <ele>119.11</ele>
        <time>2021-04-06T14:18:09Z</time>
      </trkpt>
      <trkpt lat="57.22457" lon="-5.69224">
        <ele>121.94</ele>
        <time>2021-04-06T14:18:13Z</time>
      </trkpt>
      <trkpt lat="57.22468" lon="-5.69315">
        <ele>121.74</ele>
        <time>2021-04-06T14:18:17Z</time>
      </trkpt>
      <trkpt lat="57.22468" lon="-5.69368">
        <ele>122.6</ele>
        <time>2021-04-06T14:18:21Z</time>
      </trkpt>
      <trkpt lat="57.22475" lon="-5.69425">
        <ele>125.2</ele>
        <time>2021-04-06T14:18:25Z</time>
      </trkpt>
      <trkpt lat="57.22477" lon="-5.69467">
        <ele>126.6</ele>
        <time>2021-04-06T14:18:29Z</time>
      </trkpt>
      <trkpt lat="57.22483" lon="-5.69509">
        <ele>129.74</ele>
        <time>2021-04-06T14:18:34Z</time>
      </trkpt>
      <trkpt lat="57.22486" lon="-5.69549">
        <ele>130.91</ele>
        <time>2021-04-06T14:18:38Z</time>
      </trkpt>
      <trkpt lat="57.22481" lon="-5.69575">
        <ele>129.9</ele>
        <time>2021-04-06T14:18:42Z</time>
      </trkpt>
      <trkpt lat="57.22479" lon="-5.69609">
        <ele>129.26</ele>
        <time>2021-04-06T14:18:46Z</time>
      </trkpt>
      <trkpt lat="57.22478" lon="-5.69766">
        <ele>138.41</ele>
        <time>2021-04-06T14:18:50Z</time>
      </trkpt>
      <trkpt lat="57.22487" lon="-5.69845">
        <ele>142.86</ele>
        <time>2021-04-06T14:18:54Z</time>
      </trkpt>
      <trkpt lat="57.22487" lon="-5.69905">
        <ele>145.94</ele>
        <time>2021-04-06T14:18:59Z</time>
      </trkpt>
      <trkpt lat="57.22483" lon="-5.69996">
        <ele>150.8</ele>
        <time>2021-04-06T14:19:03Z</time>
      </trkpt>
      <trkpt lat="57.22479" lon="-5.70028">
        <ele>153.96</ele>
        <time>2021-04-06T14:19:07Z</time>
      </trkpt>
      <trkpt lat="57.22468" lon="-5.70057">
        <ele>154.19</ele>
        <time>2021-04-06T14:19:11Z</time>
      </trkpt>
      <trkpt lat="57.22437" lon="-5.7015">
        <ele>158.69</ele>
        <time>2021-04-06T14:19:15Z</time>
      </trkpt>
      <trkpt lat="57.22429" lon="-5.70199">
        <ele>162.58</ele>
        <time>2021-04-06T14:19:19Z</time>
      </trkpt>
      <trkpt lat="57.2242" lon="-5.70229">
        <ele>162.51</ele>
        <time>2021-04-06T14:19:24Z</time>
      </trkpt>
      <trkpt lat="57.2241" lon="-5.70241">
        <ele>161.07</ele>
        <time>2021-04-06T14:19:28Z</time>
      </trkpt>
      <trkpt lat="57.22399" lon="-5.70267">
        <ele>161.26</ele>
        <time>2021-04-06T14:19:32Z</time>
      </trkpt>
      <trkpt lat="57.22392" lon="-5.70279">
        <ele>160.35</ele>
        <time>2021-04-06T14:19:36Z</time>
      </trkpt>
      <trkpt lat="57.22382" lon="-5.70289">
        <ele>159.44</ele>
        <time>2021-04-06T14:19:40Z</time>
      </trkpt>
      <trkpt lat="57.22326" lon="-5.70421">
        <ele>164.53</ele>
        <time>2021-04-06T14:19:44Z</time>
      </trkpt>
      <trkpt lat="57.22312" lon="-5.70452">
        <ele>165.34</ele>
        <time>2021-04-06T14:19:49Z</time>
      </trkpt>
      <trkpt lat="57.22305" lon="-5.70459">
        <ele>164.21</ele>
        <time>2021-04-06T14:19:53Z</time>
      </trkpt>
      <trkpt lat="57.22285" lon="-5.7053">
        <ele>168.35</ele>
        <time>2021-04-06T14:19:57Z</time>
      </trkpt>
      <trkpt lat="57.22272" lon="-5.70559">
        <ele>167.49</ele>
        <time>2021-04-06T14:20:01Z</time>
      </trkpt>
      <trkpt lat="57.22262" lon="-5.70593">
        <ele>169.53</ele>
        <time>2021-04-06T14:20:05Z</time>
      </trkpt>
      <trkpt lat="57.22253" lon="-5.70635">
        <ele>172.58</ele>
        <time>2021-04-06T14:20:09Z</time>
      </trkpt>
      <trkpt lat="57.22222" lon="-5.70731">
        <ele>175.28</ele>
        <time>2021-04-06T14:20:14Z</time>
      </trkpt>
      <trkpt lat="57.22215" lon="-5.70766">
        <ele>176.74</ele>
        <time>2021-04-06T14:20:18Z</time>
      </trkpt>
      <trkpt lat="57.22211" lon="-5.70797">
        <ele>179.77</ele>
        <time>2021-04-06T14:20:22Z</time>
      </trkpt>
      <trkpt lat="57.22195" lon="-5.70844">
        <ele>176.24</ele>
        <time>2021-04-06T14:20:26Z</time>
      </trkpt>
      <trkpt lat="57.22174" lon="-5.7093">
        <ele>189.18</ele>
        <time>2021-04-06T14:20:30Z</time>
      </trkpt>
      <trkpt lat="57.22168" lon="-5.70986">
        <ele>196.47</ele>
        <time>2021-04-06T14:20:34Z</time>
      </trkpt>
      <trkpt lat="57.22152" lon="-5.71069">
        <ele>210.28</ele>
        <time>2021-04-06T14:20:39Z</time>
      </trkpt>
      <trkpt lat="57.22133" lon="-5.71136">
        <ele>214.35</ele>
        <time>2021-04-06T14:20:43Z</time>
      </trkpt>
      <trkpt lat="57.22123" lon="-5.71185">
        <ele>214.01</ele>
        <time>2021-04-06T14:20:47Z</time>
      </trkpt>
      <trkpt lat="57.22118" lon="-5.71232">
        <ele>218.79</ele>
        <time>2021-04-06T14:20:51Z</time>
      </trkpt>
      <trkpt lat="57.22121" lon="-5.71288">
        <ele>226.93</ele>
        <time>2021-04-06T14:20:55Z</time>
      </trkpt>
      <trkpt lat="57.22134" lon="-5.71384">
        <ele>229.42</ele>
        <time>2021-04-06T14:20:59Z</time>
      </trkpt>
      <trkpt lat="57.22149" lon="-5.71451">
        <ele>237.42</ele>
        <time>2021-04-06T14:21:04Z</time>
      </trkpt>
      <trkpt lat="57.22158" lon="-5.71592">
        <ele>242.89</ele>
        <time>2021-04-06T14:21:08Z</time>
      </trkpt>
      <trkpt lat="57.22156" lon="-5.71639">
        <ele>245.39</ele>
        <time>2021-04-06T14:21:12Z</time>
      </trkpt>
      <trkpt lat="57.22144" lon="-5.71701">
        <ele>245.72</ele>
        <time>2021-04-06T14:21:16Z</time>
      </trkpt>
      <trkpt lat="57.22142" lon="-5.71725">
        <ele>247.19</ele>
        <time>2021-04-06T14:21:20Z</time>
      </trkpt>
      <trkpt lat="57.22143" lon="-5.71756">
        <ele>249.65</ele>
        <time>2021-04-06T14:21:24Z</time>
      </trkpt>
      <trkpt lat="57.22157" lon="-5.71868">
        <ele>260.23</ele>
        <time>2021-04-06T14:21:29Z</time>
      </trkpt>
      <trkpt lat="57.22155" lon="-5.72016">
        <ele>271.33</ele>
        <time>2021-04-06T14:21:33Z</time>
      </trkpt>
      <trkpt lat="57.22168" lon="-5.72198">
        <ele>280.36</ele>
        <time>2021-04-06T14:21:37Z</time>
      </trkpt>
      <trkpt lat="57.22168" lon="-5.72198">
        <ele>280.08</ele>
        <time>2021-04-06T14:21:37Z</time>
      </trkpt>
      <trkpt lat="57.22168" lon="-5.72198">
        <ele>280.08</ele>
        <time>2021-04-06T14:21:37Z</time>
      </trkpt>
      <trkpt lat="57.22168" lon="-5.72198">
        <ele>280.36</ele>
        <time>2021-04-06T14:21:37Z</time>
      </trkpt>
      <trkpt lat="57.22179" lon="-5.72241">
        <ele>282.43</ele>
        <time>2021-04-06T14:21:40Z</time>
      </trkpt>
      <trkpt lat="57.22185" lon="-5.72284">
        <ele>282.5</ele>
        <time>2021-04-06T14:21:42Z</time>
      </trkpt>
      <trkpt lat="57.22193" lon="-5.7231">
        <ele>282</ele>
        <time>2021-04-06T14:21:45Z</time>
      </trkpt>
      <trkpt lat="57.22209" lon="-5.72334">
        <ele>282.49</ele>
        <time>2021-04-06T14:21:47Z</time>
      </trkpt>
      <trkpt lat="57.22222" lon="-5.72364">
        <ele>280.91</ele>
        <time>2021-04-06T14:21:49Z</time>
      </trkpt>
      <trkpt lat="57.22259" lon="-5.72414">
        <ele>279.56</ele>
        <time>2021-04-06T14:21:52Z</time>
      </trkpt>
      <trkpt lat="57.22267" lon="-5.72435">
        <ele>278.56</ele>
        <time>2021-04-06T14:21:54Z</time>
      </trkpt>
      <trkpt lat="57.22278" lon="-5.72488">
        <ele>277</ele>
        <time>2021-04-06T14:21:57Z</time>
      </trkpt>
      <trkpt lat="57.22281" lon="-5.72497">
        <ele>277</ele>
        <time>2021-04-06T14:21:59Z</time>
      </trkpt>
      <trkpt lat="57.22287" lon="-5.725">
        <ele>276.99</ele>
        <time>2021-04-06T14:22:02Z</time>
      </trkpt>
      <trkpt lat="57.2232" lon="-5.72589">
        <ele>273.78</ele>
        <time>2021-04-06T14:22:04Z</time>
      </trkpt>
      <trkpt lat="57.22349" lon="-5.72627">
        <ele>272.94</ele>
        <time>2021-04-06T14:22:07Z</time>
      </trkpt>
      <trkpt lat="57.22366" lon="-5.72657">
        <ele>273.19</ele>
        <time>2021-04-06T14:22:09Z</time>
      </trkpt>
      <trkpt lat="57.22374" lon="-5.72699">
        <ele>272.22</ele>
        <time>2021-04-06T14:22:11Z</time>
      </trkpt>
      <trkpt lat="57.22382" lon="-5.72753">
        <ele>271.68</ele>
        <time>2021-04-06T14:22:14Z</time>
      </trkpt>
      <trkpt lat="57.22401" lon="-5.72852">
        <ele>270.92</ele>
        <time>2021-04-06T14:22:16Z</time>
      </trkpt>
      <trkpt lat="57.2242" lon="-5.72901">
        <ele>270.72</ele>
        <time>2021-04-06T14:22:19Z</time>
      </trkpt>
      <trkpt lat="57.2245" lon="-5.72948">
        <ele>272.78</ele>
        <time>2021-04-06T14:22:21Z</time>
      </trkpt>
      <trkpt lat="57.22472" lon="-5.73037">
        <ele>272</ele>
        <time>2021-04-06T14:22:24Z</time>
      </trkpt>
      <trkpt lat="57.22477" lon="-5.73154">
        <ele>272.91</ele>
        <time>2021-04-06T14:22:26Z</time>
      </trkpt>
      <trkpt lat="57.22487" lon="-5.73241">
        <ele>270.67</ele>
        <time>2021-04-06T14:22:28Z</time>
      </trkpt>
      <trkpt lat="57.22502" lon="-5.73323">
        <ele>270.74</ele>
        <time>2021-04-06T14:22:31Z</time>
      </trkpt>
      <trkpt lat="57.22526" lon="-5.73396">
        <ele>271.25</ele>
        <time>2021-04-06T14:22:33Z</time>
      </trkpt>
      <trkpt lat="57.22547" lon="-5.73437">
        <ele>270.14</ele>
        <time>2021-04-06T14:22:36Z</time>
      </trkpt>
      <trkpt lat="57.22553" lon="-5.73461">
        <ele>268.11</ele>
        <time>2021-04-06T14:22:38Z</time>
      </trkpt>
      <trkpt lat="57.22559" lon="-5.73501">
        <ele>264.17</ele>
        <time>2021-04-06T14:22:41Z</time>
      </trkpt>
      <trkpt lat="57.22573" lon="-5.7353">
        <ele>263.8</ele>
        <time>2021-04-06T14:22:43Z</time>
      </trkpt>
      <trkpt lat="57.2258" lon="-5.73552">
        <ele>263.78</ele>
        <time>2021-04-06T14:22:45Z</time>
      </trkpt>
      <trkpt lat="57.22583" lon="-5.73585">
        <ele>263.02</ele>
        <time>2021-04-06T14:22:48Z</time>
      </trkpt>
      <trkpt lat="57.22585" lon="-5.7365">
        <ele>260.65</ele>
        <time>2021-04-06T14:22:50Z</time>
      </trkpt>
      <trkpt lat="57.22601" lon="-5.73759">
        <ele>257.39</ele>
        <time>2021-04-06T14:22:53Z</time>
      </trkpt>
      <trkpt lat="57.2262" lon="-5.7393">
        <ele>254.71</ele>
        <time>2021-04-06T14:22:55Z</time>
      </trkpt>
      <trkpt lat="57.22618" lon="-5.73964">
        <ele>253.4</ele>
        <time>2021-04-06T14:22:58Z</time>
      </trkpt>
      <trkpt lat="57.22613" lon="-5.74016">
        <ele>249.57</ele>
        <time>2021-04-06T14:23:00Z</time>
      </trkpt>
      <trkpt lat="57.22639" lon="-5.7411">
        <ele>244.03</ele>
        <time>2021-04-06T14:23:02Z</time>
      </trkpt>
      <trkpt lat="57.22683" lon="-5.74216">
        <ele>242.61</ele>
        <time>2021-04-06T14:23:05Z</time>
      </trkpt>
      <trkpt lat="57.22698" lon="-5.74247">
        <ele>241.6</ele>
        <time>2021-04-06T14:23:07Z</time>
      </trkpt>
      <trkpt lat="57.22704" lon="-5.74269">
        <ele>239.94</ele>
        <time>2021-04-06T14:23:10Z</time>
      </trkpt>
      <trkpt lat="57.22705" lon="-5.74295">
        <ele>237.71</ele>
        <time>2021-04-06T14:23:12Z</time>
      </trkpt>
      <trkpt lat="57.22703" lon="-5.74325">
        <ele>235.02</ele>
        <time>2021-04-06T14:23:15Z</time>
      </trkpt>
      <trkpt lat="57.22717" lon="-5.74405">
        <ele>234.4</ele>
        <time>2021-04-06T14:23:17Z</time>
      </trkpt>
      <trkpt lat="57.22728" lon="-5.74479">
        <ele>232.28</ele>
        <time>2021-04-06T14:23:20Z</time>
      </trkpt>
      <trkpt lat="57.22762" lon="-5.74609">
        <ele>232.6</ele>
        <time>2021-04-06T14:23:22Z</time>
      </trkpt>
      <trkpt lat="57.2278" lon="-5.74697">
        <ele>229.8</ele>
        <time>2021-04-06T14:23:24Z</time>
      </trkpt>
      <trkpt lat="57.22788" lon="-5.74784">
        <ele>229.71</ele>
        <time>2021-04-06T14:23:27Z</time>
      </trkpt>
      <trkpt lat="57.22795" lon="-5.74811">
        <ele>230.24</ele>
        <time>2021-04-06T14:23:29Z</time>
      </trkpt>
      <trkpt lat="57.22813" lon="-5.74945">
        <ele>232.24</ele>
        <time>2021-04-06T14:23:32Z</time>
      </trkpt>
      <trkpt lat="57.22814" lon="-5.75018">
        <ele>230.4</ele>
        <time>2021-04-06T14:23:34Z</time>
      </trkpt>
      <trkpt lat="57.22829" lon="-5.75127">
        <ele>228.65</ele>
        <time>2021-04-06T14:23:37Z</time>
      </trkpt>
      <trkpt lat="57.22846" lon="-5.75196">
        <ele>228.16</ele>
        <time>2021-04-06T14:23:39Z</time>
      </trkpt>
      <trkpt lat="57.22852" lon="-5.75268">
        <ele>223.68</ele>
        <time>2021-04-06T14:23:41Z</time>
      </trkpt>
      <trkpt lat="57.22852" lon="-5.75281">
        <ele>222.88</ele>
        <time>2021-04-06T14:23:44Z</time>
      </trkpt>
      <trkpt lat="57.22847" lon="-5.75327">
        <ele>220.15</ele>
        <time>2021-04-06T14:23:46Z</time>
      </trkpt>
      <trkpt lat="57.2285" lon="-5.75354">
        <ele>218.85</ele>
        <time>2021-04-06T14:23:49Z</time>
      </trkpt>
      <trkpt lat="57.22857" lon="-5.75381">
        <ele>218.73</ele>
        <time>2021-04-06T14:23:51Z</time>
      </trkpt>
      <trkpt lat="57.22879" lon="-5.75414">
        <ele>219.8</ele>
        <time>2021-04-06T14:23:54Z</time>
      </trkpt>
      <trkpt lat="57.22886" lon="-5.7543">
        <ele>219.62</ele>
        <time>2021-04-06T14:23:56Z</time>
      </trkpt>
      <trkpt lat="57.22896" lon="-5.75477">
        <ele>217.72</ele>
        <time>2021-04-06T14:23:58Z</time>
      </trkpt>
      <trkpt lat="57.22907" lon="-5.75493">
        <ele>218.16</ele>
        <time>2021-04-06T14:24:01Z</time>
      </trkpt>
      <trkpt lat="57.22921" lon="-5.7552">
        <ele>218.08</ele>
        <time>2021-04-06T14:24:03Z</time>
      </trkpt>
      <trkpt lat="57.22928" lon="-5.75556">
        <ele>216.21</ele>
        <time>2021-04-06T14:24:06Z</time>
      </trkpt>
      <trkpt lat="57.22931" lon="-5.7559">
        <ele>214.07</ele>
        <time>2021-04-06T14:24:08Z</time>
      </trkpt>
      <trkpt lat="57.22932" lon="-5.75621">
        <ele>211.22</ele>
        <time>2021-04-06T14:24:11Z</time>
      </trkpt>
      <trkpt lat="57.22939" lon="-5.75643">
        <ele>208.98</ele>
        <time>2021-04-06T14:24:13Z</time>
      </trkpt>
      <trkpt lat="57.22961" lon="-5.75662">
        <ele>209.22</ele>
        <time>2021-04-06T14:24:15Z</time>
      </trkpt>
      <trkpt lat="57.22972" lon="-5.75682">
        <ele>207.76</ele>
        <time>2021-04-06T14:24:18Z</time>
      </trkpt>
      <trkpt lat="57.22976" lon="-5.75699">
        <ele>206.49</ele>
        <time>2021-04-06T14:24:20Z</time>
      </trkpt>
      <trkpt lat="57.22978" lon="-5.75716">
        <ele>204.83</ele>
        <time>2021-04-06T14:24:23Z</time>
      </trkpt>
      <trkpt lat="57.22978" lon="-5.7577">
        <ele>199.64</ele>
        <time>2021-04-06T14:24:25Z</time>
      </trkpt>
      <trkpt lat="57.22986" lon="-5.75815">
        <ele>197.27</ele>
        <time>2021-04-06T14:24:28Z</time>
      </trkpt>
      <trkpt lat="57.22981" lon="-5.75875">
        <ele>193.64</ele>
        <time>2021-04-06T14:24:30Z</time>
      </trkpt>
      <trkpt lat="57.22986" lon="-5.75927">
        <ele>192.62</ele>
        <time>2021-04-06T14:24:32Z</time>
      </trkpt>
      <trkpt lat="57.22981" lon="-5.76031">
        <ele>188.55</ele>
        <time>2021-04-06T14:24:35Z</time>
      </trkpt>
      <trkpt lat="57.22977" lon="-5.76056">
        <ele>187.29</ele>
        <time>2021-04-06T14:24:37Z</time>
      </trkpt>
      <trkpt lat="57.22971" lon="-5.76074">
        <ele>185.02</ele>
        <time>2021-04-06T14:24:40Z</time>
      </trkpt>
      <trkpt lat="57.22948" lon="-5.76123">
        <ele>180.18</ele>
        <time>2021-04-06T14:24:42Z</time>
      </trkpt>
      <trkpt lat="57.22944" lon="-5.76136">
        <ele>179.04</ele>
        <time>2021-04-06T14:24:45Z</time>
      </trkpt>
      <trkpt lat="57.22944" lon="-5.76164">
        <ele>178.09</ele>
        <time>2021-04-06T14:24:47Z</time>
      </trkpt>
      <trkpt lat="57.22955" lon="-5.76203">
        <ele>178.07</ele>
        <time>2021-04-06T14:24:50Z</time>
      </trkpt>
      <trkpt lat="57.2299" lon="-5.76293">
        <ele>178.07</ele>
        <time>2021-04-06T14:24:52Z</time>
      </trkpt>
      <trkpt lat="57.23009" lon="-5.76353">
        <ele>176.33</ele>
        <time>2021-04-06T14:24:54Z</time>
      </trkpt>
      <trkpt lat="57.23019" lon="-5.76375">
        <ele>175.51</ele>
        <time>2021-04-06T14:24:57Z</time>
      </trkpt>
      <trkpt lat="57.23026" lon="-5.76386">
        <ele>175.12</ele>
        <time>2021-04-06T14:24:59Z</time>
      </trkpt>
      <trkpt lat="57.23039" lon="-5.76397">
        <ele>176.66</ele>
        <time>2021-04-06T14:25:02Z</time>
      </trkpt>
      <trkpt lat="57.23044" lon="-5.76404">
        <ele>177.09</ele>
        <time>2021-04-06T14:25:04Z</time>
      </trkpt>
      <trkpt lat="57.23047" lon="-5.76414">
        <ele>176.98</ele>
        <time>2021-04-06T14:25:07Z</time>
      </trkpt>
      <trkpt lat="57.23055" lon="-5.76475">
        <ele>173.82</ele>
        <time>2021-04-06T14:25:09Z</time>
      </trkpt>
      <trkpt lat="57.23054" lon="-5.76489">
        <ele>173.28</ele>
        <time>2021-04-06T14:25:11Z</time>
      </trkpt>
      <trkpt lat="57.23046" lon="-5.7653">
        <ele>170.58</ele>
        <time>2021-04-06T14:25:14Z</time>
      </trkpt>
      <trkpt lat="57.23045" lon="-5.76547">
        <ele>170.2</ele>
        <time>2021-04-06T14:25:16Z</time>
      </trkpt>
      <trkpt lat="57.23047" lon="-5.76562">
        <ele>169.85</ele>
        <time>2021-04-06T14:25:19Z</time>
      </trkpt>
      <trkpt lat="57.23053" lon="-5.76591">
        <ele>168.85</ele>
        <time>2021-04-06T14:25:21Z</time>
      </trkpt>
      <trkpt lat="57.23122" lon="-5.76831">
        <ele>163.5</ele>
        <time>2021-04-06T14:25:24Z</time>
      </trkpt>
      <trkpt lat="57.23144" lon="-5.76888">
        <ele>162.64</ele>
        <time>2021-04-06T14:25:26Z</time>
      </trkpt>
      <trkpt lat="57.23153" lon="-5.76931">
        <ele>161.54</ele>
        <time>2021-04-06T14:25:28Z</time>
      </trkpt>
      <trkpt lat="57.23155" lon="-5.76969">
        <ele>160.65</ele>
        <time>2021-04-06T14:25:31Z</time>
      </trkpt>
      <trkpt lat="57.23152" lon="-5.77005">
        <ele>160.38</ele>
        <time>2021-04-06T14:25:33Z</time>
      </trkpt>
      <trkpt lat="57.23156" lon="-5.77075">
        <ele>159.49</ele>
        <time>2021-04-06T14:25:36Z</time>
      </trkpt>
      <trkpt lat="57.23164" lon="-5.77161">
        <ele>158.01</ele>
        <time>2021-04-06T14:25:38Z</time>
      </trkpt>
      <trkpt lat="57.23176" lon="-5.7721">
        <ele>159.76</ele>
        <time>2021-04-06T14:25:41Z</time>
      </trkpt>
      <trkpt lat="57.23181" lon="-5.77247">
        <ele>161.49</ele>
        <time>2021-04-06T14:25:43Z</time>
      </trkpt>
      <trkpt lat="57.23179" lon="-5.7728">
        <ele>161.24</ele>
        <time>2021-04-06T14:25:45Z</time>
      </trkpt>
      <trkpt lat="57.23172" lon="-5.77321">
        <ele>159.88</ele>
        <time>2021-04-06T14:25:48Z</time>
      </trkpt>
      <trkpt lat="57.23167" lon="-5.77431">
        <ele>157</ele>
        <time>2021-04-06T14:25:50Z</time>
      </trkpt>
      <trkpt lat="57.23164" lon="-5.77563">
        <ele>152.6</ele>
        <time>2021-04-06T14:25:53Z</time>
      </trkpt>
      <trkpt lat="57.23171" lon="-5.77593">
        <ele>152.38</ele>
        <time>2021-04-06T14:25:55Z</time>
      </trkpt>
      <trkpt lat="57.23187" lon="-5.77623">
        <ele>152.31</ele>
        <time>2021-04-06T14:25:58Z</time>
      </trkpt>
      <trkpt lat="57.23197" lon="-5.77663">
        <ele>151.49</ele>
        <time>2021-04-06T14:26:00Z</time>
      </trkpt>
      <trkpt lat="57.23204" lon="-5.77717">
        <ele>149.96</ele>
        <time>2021-04-06T14:26:03Z</time>
      </trkpt>
      <trkpt lat="57.23221" lon="-5.77768">
        <ele>148.33</ele>
        <time>2021-04-06T14:26:05Z</time>
      </trkpt>
      <trkpt lat="57.23254" lon="-5.7783">
        <ele>150.24</ele>
        <time>2021-04-06T14:26:07Z</time>
      </trkpt>
      <trkpt lat="57.23259" lon="-5.77857">
        <ele>150.07</ele>
        <time>2021-04-06T14:26:10Z</time>
      </trkpt>
      <trkpt lat="57.23259" lon="-5.77879">
        <ele>149.32</ele>
        <time>2021-04-06T14:26:12Z</time>
      </trkpt>
      <trkpt lat="57.23267" lon="-5.77911">
        <ele>150.13</ele>
        <time>2021-04-06T14:26:15Z</time>
      </trkpt>
      <trkpt lat="57.23272" lon="-5.77977">
        <ele>149.8</ele>
        <time>2021-04-06T14:26:17Z</time>
      </trkpt>
      <trkpt lat="57.23279" lon="-5.78018">
        <ele>148.91</ele>
        <time>2021-04-06T14:26:20Z</time>
      </trkpt>
      <trkpt lat="57.23298" lon="-5.78079">
        <ele>149.72</ele>
        <time>2021-04-06T14:26:22Z</time>
      </trkpt>
      <trkpt lat="57.23319" lon="-5.78127">
        <ele>151.46</ele>
        <time>2021-04-06T14:26:24Z</time>
      </trkpt>
      <trkpt lat="57.23342" lon="-5.78215">
        <ele>151.69</ele>
        <time>2021-04-06T14:26:27Z</time>
      </trkpt>
      <trkpt lat="57.23373" lon="-5.78313">
        <ele>153.47</ele>
        <time>2021-04-06T14:26:29Z</time>
      </trkpt>
      <trkpt lat="57.23409" lon="-5.78448">
        <ele>147.14</ele>
        <time>2021-04-06T14:26:32Z</time>
      </trkpt>
      <trkpt lat="57.23451" lon="-5.78582">
        <ele>145.94</ele>
        <time>2021-04-06T14:26:34Z</time>
      </trkpt>
      <trkpt lat="57.23474" lon="-5.78675">
        <ele>145.8</ele>
        <time>2021-04-06T14:26:37Z</time>
      </trkpt>
      <trkpt lat="57.23491" lon="-5.78756">
        <ele>143.53</ele>
        <time>2021-04-06T14:26:39Z</time>
      </trkpt>
      <trkpt lat="57.2351" lon="-5.78816">
        <ele>144.24</ele>
        <time>2021-04-06T14:26:41Z</time>
      </trkpt>
      <trkpt lat="57.23531" lon="-5.78888">
        <ele>144.66</ele>
        <time>2021-04-06T14:26:44Z</time>
      </trkpt>
      <trkpt lat="57.23577" lon="-5.78991">
        <ele>143.59</ele>
        <time>2021-04-06T14:26:46Z</time>
      </trkpt>
      <trkpt lat="57.2359" lon="-5.79039">
        <ele>143.79</ele>
        <time>2021-04-06T14:26:49Z</time>
      </trkpt>
      <trkpt lat="57.23601" lon="-5.79111">
        <ele>142.24</ele>
        <time>2021-04-06T14:26:51Z</time>
      </trkpt>
      <trkpt lat="57.23628" lon="-5.79196">
        <ele>139.47</ele>
        <time>2021-04-06T14:26:54Z</time>
      </trkpt>
      <trkpt lat="57.23669" lon="-5.79274">
        <ele>136.54</ele>
        <time>2021-04-06T14:26:56Z</time>
      </trkpt>
      <trkpt lat="57.23703" lon="-5.79382">
        <ele>133</ele>
        <time>2021-04-06T14:26:58Z</time>
      </trkpt>
      <trkpt lat="57.23816" lon="-5.7963">
        <ele>119.39</ele>
        <time>2021-04-06T14:27:01Z</time>
      </trkpt>
      <trkpt lat="57.23833" lon="-5.79696">
        <ele>110.61</ele>
        <time>2021-04-06T14:27:03Z</time>
      </trkpt>
      <trkpt lat="57.23862" lon="-5.79802">
        <ele>100.91</ele>
        <time>2021-04-06T14:27:06Z</time>
      </trkpt>
      <trkpt lat="57.23908" lon="-5.7992">
        <ele>98.85</ele>
        <time>2021-04-06T14:27:08Z</time>
      </trkpt>
      <trkpt lat="57.23931" lon="-5.79958">
        <ele>97.39</ele>
        <time>2021-04-06T14:27:11Z</time>
      </trkpt>
      <trkpt lat="57.23982" lon="-5.80011">
        <ele>96.35</ele>
        <time>2021-04-06T14:27:13Z</time>
      </trkpt>
      <trkpt lat="57.24002" lon="-5.80028">
        <ele>95.25</ele>
        <time>2021-04-06T14:27:16Z</time>
      </trkpt>
      <trkpt lat="57.2403" lon="-5.80042">
        <ele>97.33</ele>
        <time>2021-04-06T14:27:18Z</time>
      </trkpt>
      <trkpt lat="57.24057" lon="-5.80067">
        <ele>97.68</ele>
        <time>2021-04-06T14:27:20Z</time>
      </trkpt>
      <trkpt lat="57.24086" lon="-5.80111">
        <ele>97.48</ele>
        <time>2021-04-06T14:27:23Z</time>
      </trkpt>
      <trkpt lat="57.24148" lon="-5.80218">
        <ele>95.46</ele>
        <time>2021-04-06T14:27:25Z</time>
      </trkpt>
      <trkpt lat="57.24191" lon="-5.80301">
        <ele>88.49</ele>
        <time>2021-04-06T14:27:28Z</time>
      </trkpt>
      <trkpt lat="57.24225" lon="-5.80335">
        <ele>88.12</ele>
        <time>2021-04-06T14:27:30Z</time>
      </trkpt>
      <trkpt lat="57.24261" lon="-5.80388">
        <ele>84.34</ele>
        <time>2021-04-06T14:27:33Z</time>
      </trkpt>
      <trkpt lat="57.24291" lon="-5.80437">
        <ele>78.34</ele>
        <time>2021-04-06T14:27:35Z</time>
      </trkpt>
      <trkpt lat="57.24397" lon="-5.80548">
        <ele>72.36</ele>
        <time>2021-04-06T14:27:37Z</time>
      </trkpt>
      <trkpt lat="57.2441" lon="-5.80553">
        <ele>72.7</ele>
        <time>2021-04-06T14:27:40Z</time>
      </trkpt>
      <trkpt lat="57.24438" lon="-5.80554">
        <ele>71.61</ele>
        <time>2021-04-06T14:27:42Z</time>
      </trkpt>
      <trkpt lat="57.24461" lon="-5.80547">
        <ele>70.24</ele>
        <time>2021-04-06T14:27:45Z</time>
      </trkpt>
      <trkpt lat="57.24487" lon="-5.8052">
        <ele>68.29</ele>
        <time>2021-04-06T14:27:47Z</time>
      </trkpt>
      <trkpt lat="57.24531" lon="-5.80442">
        <ele>66.11</ele>
        <time>2021-04-06T14:27:50Z</time>
      </trkpt>
      <trkpt lat="57.24537" lon="-5.80435">
        <ele>66.38</ele>
        <time>2021-04-06T14:27:52Z</time>
      </trkpt>
      <trkpt lat="57.24551" lon="-5.80433">
        <ele>65.99</ele>
        <time>2021-04-06T14:27:54Z</time>
      </trkpt>
      <trkpt lat="57.24558" lon="-5.80435">
        <ele>65.93</ele>
        <time>2021-04-06T14:27:57Z</time>
      </trkpt>
      <trkpt lat="57.24567" lon="-5.80452">
        <ele>66.04</ele>
        <time>2021-04-06T14:27:59Z</time>
      </trkpt>
      <trkpt lat="57.24576" lon="-5.8049">
        <ele>63.97</ele>
        <time>2021-04-06T14:28:02Z</time>
      </trkpt>
      <trkpt lat="57.2459" lon="-5.80513">
        <ele>63.53</ele>
        <time>2021-04-06T14:28:04Z</time>
      </trkpt>
      <trkpt lat="57.24651" lon="-5.80554">
        <ele>66.85</ele>
        <time>2021-04-06T14:28:07Z</time>
      </trkpt>
      <trkpt lat="57.24689" lon="-5.80589">
        <ele>67.95</ele>
        <time>2021-04-06T14:28:09Z</time>
      </trkpt>
      <trkpt lat="57.24815" lon="-5.8077">
        <ele>58.58</ele>
        <time>2021-04-06T14:28:11Z</time>
      </trkpt>
      <trkpt lat="57.24849" lon="-5.80846">
        <ele>53.49</ele>
        <time>2021-04-06T14:28:14Z</time>
      </trkpt>
      <trkpt lat="57.24905" lon="-5.80952">
        <ele>48.17</ele>
        <time>2021-04-06T14:28:16Z</time>
      </trkpt>
      <trkpt lat="57.2494" lon="-5.81032">
        <ele>45.31</ele>
        <time>2021-04-06T14:28:19Z</time>
      </trkpt>
      <trkpt lat="57.24972" lon="-5.81123">
        <ele>43.6</ele>
        <time>2021-04-06T14:28:21Z</time>
      </trkpt>
      <trkpt lat="57.24975" lon="-5.81139">
        <ele>42.79</ele>
        <time>2021-04-06T14:28:24Z</time>
      </trkpt>
      <trkpt lat="57.24979" lon="-5.81189">
        <ele>41.92</ele>
        <time>2021-04-06T14:28:26Z</time>
      </trkpt>
      <trkpt lat="57.2499" lon="-5.81238">
        <ele>40.42</ele>
        <time>2021-04-06T14:28:29Z</time>
      </trkpt>
      <trkpt lat="57.24993" lon="-5.8126">
        <ele>39.9</ele>
        <time>2021-04-06T14:28:31Z</time>
      </trkpt>
      <trkpt lat="57.24997" lon="-5.81318">
        <ele>38.25</ele>
        <time>2021-04-06T14:28:33Z</time>
      </trkpt>
      <trkpt lat="57.25" lon="-5.81337">
        <ele>37.77</ele>
        <time>2021-04-06T14:28:36Z</time>
      </trkpt>
      <trkpt lat="57.25022" lon="-5.81412">
        <ele>33.96</ele>
        <time>2021-04-06T14:28:38Z</time>
      </trkpt>
      <trkpt lat="57.25048" lon="-5.81513">
        <ele>28.95</ele>
        <time>2021-04-06T14:28:41Z</time>
      </trkpt>
      <trkpt lat="57.25123" lon="-5.81701">
        <ele>24.19</ele>
        <time>2021-04-06T14:28:43Z</time>
      </trkpt>
      <trkpt lat="57.25167" lon="-5.81836">
        <ele>18.91</ele>
        <time>2021-04-06T14:28:46Z</time>
      </trkpt>
      <trkpt lat="57.25178" lon="-5.8186">
        <ele>18.82</ele>
        <time>2021-04-06T14:28:48Z</time>
      </trkpt>
      <trkpt lat="57.25202" lon="-5.81899">
        <ele>18.54</ele>
        <time>2021-04-06T14:28:50Z</time>
      </trkpt>
      <trkpt lat="57.25202" lon="-5.81899">
        <ele>18.05</ele>
        <time>2021-04-06T14:28:50Z</time>
      </trkpt>
      <trkpt lat="57.25202" lon="-5.81899">
        <ele>18.05</ele>
        <time>2021-04-06T14:28:50Z</time>
      </trkpt>
      <trkpt lat="57.25086" lon="-5.82183">
        <ele>23.11</ele>
        <time>2021-04-06T14:28:57Z</time>
      </trkpt>
      <trkpt lat="57.25054" lon="-5.82271">
        <ele>22.35</ele>
        <time>2021-04-06T14:29:04Z</time>
      </trkpt>
      <trkpt lat="57.25013" lon="-5.82367">
        <ele>22</ele>
        <time>2021-04-06T14:29:10Z</time>
      </trkpt>
      <trkpt lat="57.24832" lon="-5.82702">
        <ele>24</ele>
        <time>2021-04-06T14:29:17Z</time>
      </trkpt>
      <trkpt lat="57.24707" lon="-5.82941">
        <ele>24.55</ele>
        <time>2021-04-06T14:29:24Z</time>
      </trkpt>
      <trkpt lat="57.24669" lon="-5.83013">
        <ele>23.89</ele>
        <time>2021-04-06T14:29:30Z</time>
      </trkpt>
      <trkpt lat="57.24656" lon="-5.83042">
        <ele>24.8</ele>
        <time>2021-04-06T14:29:37Z</time>
      </trkpt>
      <trkpt lat="57.24707" lon="-5.83151">
        <ele>18.54</ele>
        <time>2021-04-06T14:29:45Z</time>
      </trkpt>
      <trkpt lat="57.2475" lon="-5.83214">
        <ele>18.01</ele>
        <time>2021-04-06T14:29:54Z</time>
      </trkpt>
      <trkpt lat="57.24812" lon="-5.83292">
        <ele>19.5</ele>
        <time>2021-04-06T14:30:02Z</time>
      </trkpt>
      <trkpt lat="57.24816" lon="-5.83301">
        <ele>19.82</ele>
        <time>2021-04-06T14:30:10Z</time>
      </trkpt>
      <trkpt lat="57.2482" lon="-5.83305">
        <ele>19.99</ele>
        <time>2021-04-06T14:30:19Z</time>
      </trkpt>
      <trkpt lat="57.24818" lon="-5.8333">
        <ele>20.88</ele>
        <time>2021-04-06T14:30:27Z</time>
      </trkpt>
      <trkpt lat="57.24743" lon="-5.83576">
        <ele>23.8</ele>
        <time>2021-04-06T14:30:35Z</time>
      </trkpt>
      <trkpt lat="57.24732" lon="-5.83596">
        <ele>24.28</ele>
        <time>2021-04-06T14:30:44Z</time>
      </trkpt>
      <trkpt lat="57.24706" lon="-5.83658">
        <ele>25.19</ele>
        <time>2021-04-06T14:30:52Z</time>
      </trkpt>
      <trkpt lat="57.2459" lon="-5.83934">
        <ele>25.9</ele>
        <time>2021-04-06T14:31:01Z</time>
      </trkpt>
      <trkpt lat="57.24489" lon="-5.84169">
        <ele>27.32</ele>
        <time>2021-04-06T14:31:09Z</time>
      </trkpt>
      <trkpt lat="57.2446" lon="-5.84241">
        <ele>27.43</ele>
        <time>2021-04-06T14:31:17Z</time>
      </trkpt>
      <trkpt lat="57.24158" lon="-5.84935">
        <ele>29</ele>
        <time>2021-04-06T14:31:26Z</time>
      </trkpt>
      <trkpt lat="57.23886" lon="-5.85568">
        <ele>26.55</ele>
        <time>2021-04-06T14:31:34Z</time>
      </trkpt>
      <trkpt lat="57.23794" lon="-5.85771">
        <ele>27</ele>
        <time>2021-04-06T14:31:42Z</time>
      </trkpt>
      <trkpt lat="57.23754" lon="-5.86063">
        <ele>20.11</ele>
        <time>2021-04-06T14:31:49Z</time>
      </trkpt>
      <trkpt lat="57.2365" lon="-5.86874">
        <ele>13.69</ele>
        <time>2021-04-06T14:31:56Z</time>
      </trkpt>
      <trkpt lat="57.23602" lon="-5.87228">
        <ele>18.8</ele>
        <time>2021-04-06T14:32:03Z</time>
      </trkpt>
      <trkpt lat="57.23599" lon="-5.87276">
        <ele>19.42</ele>
        <time>2021-04-06T14:32:09Z</time>
      </trkpt>
      <trkpt lat="57.23605" lon="-5.8731">
        <ele>19</ele>
        <time>2021-04-06T14:32:16Z</time>
      </trkpt>
      <trkpt lat="57.23617" lon="-5.8735">
        <ele>18.19</ele>
        <time>2021-04-06T14:32:23Z</time>
      </trkpt>
      <trkpt lat="57.23674" lon="-5.87495">
        <ele>15.72</ele>
        <time>2021-04-06T14:32:30Z</time>
      </trkpt>
      <trkpt lat="57.23687" lon="-5.87543">
        <ele>15.27</ele>
        <time>2021-04-06T14:32:37Z</time>
      </trkpt>
      <trkpt lat="57.23689" lon="-5.87571">
        <ele>15.19</ele>
        <time>2021-04-06T14:32:43Z</time>
      </trkpt>
      <trkpt lat="57.23689" lon="-5.87599">
        <ele>15.19</ele>
        <time>2021-04-06T14:32:50Z</time>
      </trkpt>
      <trkpt lat="57.23673" lon="-5.8783">
        <ele>14</ele>
        <time>2021-04-06T14:32:57Z</time>
      </trkpt>
      <trkpt lat="57.23674" lon="-5.87885">
        <ele>12.78</ele>
        <time>2021-04-06T14:33:04Z</time>
      </trkpt>
      <trkpt lat="57.23679" lon="-5.87914">
        <ele>11.65</ele>
        <time>2021-04-06T14:33:11Z</time>
      </trkpt>
      <trkpt lat="57.23689" lon="-5.87949">
        <ele>11.33</ele>
        <time>2021-04-06T14:33:17Z</time>
      </trkpt>
      <trkpt lat="57.23712" lon="-5.87993">
        <ele>11.35</ele>
        <time>2021-04-06T14:33:24Z</time>
      </trkpt>
      <trkpt lat="57.23759" lon="-5.88053">
        <ele>10.35</ele>
        <time>2021-04-06T14:33:31Z</time>
      </trkpt>
      <trkpt lat="57.23785" lon="-5.8809">
        <ele>8.49</ele>
        <time>2021-04-06T14:33:38Z</time>
      </trkpt>
      <trkpt lat="57.23805" lon="-5.88131">
        <ele>7.03</ele>
        <time>2021-04-06T14:33:45Z</time>
      </trkpt>
      <trkpt lat="57.23817" lon="-5.88165">
        <ele>6.2</ele>
        <time>2021-04-06T14:33:51Z</time>
      </trkpt>
      <trkpt lat="57.23823" lon="-5.8819">
        <ele>6.28</ele>
        <time>2021-04-06T14:33:58Z</time>
      </trkpt>
      <trkpt lat="57.2383" lon="-5.88253">
        <ele>6.11</ele>
        <time>2021-04-06T14:34:05Z</time>
      </trkpt>
      <trkpt lat="57.2383" lon="-5.88304">
        <ele>6.14</ele>
        <time>2021-04-06T14:34:12Z</time>
      </trkpt>
      <trkpt lat="57.23823" lon="-5.88351">
        <ele>5.75</ele>
        <time>2021-04-06T14:34:19Z</time>
      </trkpt>
      <trkpt lat="57.23781" lon="-5.88529">
        <ele>5.69</ele>
        <time>2021-04-06T14:34:25Z</time>
      </trkpt>
      <trkpt lat="57.23772" lon="-5.88573">
        <ele>6.4</ele>
        <time>2021-04-06T14:34:32Z</time>
      </trkpt>
      <trkpt lat="57.23769" lon="-5.88621">
        <ele>7.02</ele>
        <time>2021-04-06T14:34:39Z</time>
      </trkpt>
      <trkpt lat="57.2377" lon="-5.88667">
        <ele>7.54</ele>
        <time>2021-04-06T14:34:46Z</time>
      </trkpt>
      <trkpt lat="57.23786" lon="-5.8884">
        <ele>9.48</ele>
        <time>2021-04-06T14:34:52Z</time>
      </trkpt>
      <trkpt lat="57.23792" lon="-5.88978">
        <ele>8.48</ele>
        <time>2021-04-06T14:34:59Z</time>
      </trkpt>
      <trkpt lat="57.23805" lon="-5.89439">
        <ele>13</ele>
        <time>2021-04-06T14:35:06Z</time>
      </trkpt>
      <trkpt lat="57.23808" lon="-5.89506">
        <ele>12.51</ele>
        <time>2021-04-06T14:35:13Z</time>
      </trkpt>
      <trkpt lat="57.23808" lon="-5.89506">
        <ele>12.51</ele>
        <time>2021-04-06T14:35:13Z</time>
      </trkpt>
      <trkpt lat="57.23814" lon="-5.8955">
        <ele>12.28</ele>
        <time>2021-04-06T14:35:20Z</time>
      </trkpt>
      <trkpt lat="57.23819" lon="-5.89573">
        <ele>12.48</ele>
        <time>2021-04-06T14:35:27Z</time>
      </trkpt>
      <trkpt lat="57.2385" lon="-5.89667">
        <ele>13</ele>
        <time>2021-04-06T14:35:35Z</time>
      </trkpt>
      <trkpt lat="57.23892" lon="-5.89789">
        <ele>8.4</ele>
        <time>2021-04-06T14:35:42Z</time>
      </trkpt>
      <trkpt lat="57.23911" lon="-5.89837">
        <ele>7.33</ele>
        <time>2021-04-06T14:35:49Z</time>
      </trkpt>
      <trkpt lat="57.23967" lon="-5.89962">
        <ele>8.45</ele>
        <time>2021-04-06T14:35:56Z</time>
      </trkpt>
      <trkpt lat="57.23992" lon="-5.90021">
        <ele>8.72</ele>
        <time>2021-04-06T14:36:03Z</time>
      </trkpt>
      <trkpt lat="57.24033" lon="-5.90162">
        <ele>11.22</ele>
        <time>2021-04-06T14:36:11Z</time>
      </trkpt>
      <trkpt lat="57.24046" lon="-5.90219">
        <ele>10.69</ele>
        <time>2021-04-06T14:36:18Z</time>
      </trkpt>
      <trkpt lat="57.24061" lon="-5.90305">
        <ele>12.12</ele>
        <time>2021-04-06T14:36:25Z</time>
      </trkpt>
      <trkpt lat="57.24072" lon="-5.90383">
        <ele>10.65</ele>
        <time>2021-04-06T14:36:32Z</time>
      </trkpt>
      <trkpt lat="57.24107" lon="-5.9067">
        <ele>11.28</ele>
        <time>2021-04-06T14:36:40Z</time>
      </trkpt>
      <trkpt lat="57.24123" lon="-5.90848">
        <ele>7.07</ele>
        <time>2021-04-06T14:36:47Z</time>
      </trkpt>
      <trkpt lat="57.2413" lon="-5.90911">
        <ele>6.55</ele>
        <time>2021-04-06T14:36:54Z</time>
      </trkpt>
      <trkpt lat="57.2414" lon="-5.90969">
        <ele>5.94</ele>
        <time>2021-04-06T14:37:01Z</time>
      </trkpt>
      <trkpt lat="57.24152" lon="-5.91022">
        <ele>5.97</ele>
        <time>2021-04-06T14:37:09Z</time>
      </trkpt>
      <trkpt lat="57.24178" lon="-5.9111">
        <ele>5.2</ele>
        <time>2021-04-06T14:37:16Z</time>
      </trkpt>
      <trkpt lat="57.242" lon="-5.91173">
        <ele>7.01</ele>
        <time>2021-04-06T14:37:23Z</time>
      </trkpt>
      <trkpt lat="57.24228" lon="-5.9123">
        <ele>7.07</ele>
        <time>2021-04-06T14:37:30Z</time>
      </trkpt>
      <trkpt lat="57.2427" lon="-5.91302">
        <ele>8.7</ele>
        <time>2021-04-06T14:37:37Z</time>
      </trkpt>
      <trkpt lat="57.24263" lon="-5.91312">
        <ele>8.47</ele>
        <time>2021-04-06T14:37:45Z</time>
      </trkpt>
      <trkpt lat="57.24287" lon="-5.91377">
        <ele>8.98</ele>
        <time>2021-04-06T14:37:52Z</time>
      </trkpt>
      <trkpt lat="57.24316" lon="-5.91477">
        <ele>10.26</ele>
        <time>2021-04-06T14:37:59Z</time>
      </trkpt>
      <trkpt lat="57.24368" lon="-5.91715">
        <ele>9.31</ele>
        <time>2021-04-06T14:38:07Z</time>
      </trkpt>
      <trkpt lat="57.24401" lon="-5.9183">
        <ele>11.35</ele>
        <time>2021-04-06T14:38:14Z</time>
      </trkpt>
      <trkpt lat="57.24412" lon="-5.91823">
        <ele>12.48</ele>
        <time>2021-04-06T14:38:21Z</time>
      </trkpt>
      <trkpt lat="57.24429" lon="-5.91921">
        <ele>15.7</ele>
        <time>2021-04-06T14:38:27Z</time>
      </trkpt>
      <trkpt lat="57.24507" lon="-5.92362">
        <ele>23.16</ele>
        <time>2021-04-06T14:38:33Z</time>
      </trkpt>
      <trkpt lat="57.24551" lon="-5.92533">
        <ele>24.31</ele>
        <time>2021-04-06T14:38:39Z</time>
      </trkpt>
      <trkpt lat="57.24576" lon="-5.9261">
        <ele>23.97</ele>
        <time>2021-04-06T14:38:45Z</time>
      </trkpt>
      <trkpt lat="57.24598" lon="-5.92669">
        <ele>23.98</ele>
        <time>2021-04-06T14:38:51Z</time>
      </trkpt>
      <trkpt lat="57.24643" lon="-5.92777">
        <ele>20.38</ele>
        <time>2021-04-06T14:38:57Z</time>
      </trkpt>
      <trkpt lat="57.24974" lon="-5.93351">
        <ele>25.02</ele>
        <time>2021-04-06T14:39:03Z</time>
      </trkpt>
      <trkpt lat="57.25099" lon="-5.93519">
        <ele>25.12</ele>
        <time>2021-04-06T14:39:09Z</time>
      </trkpt>
      <trkpt lat="57.25217" lon="-5.93641">
        <ele>28.76</ele>
        <time>2021-04-06T14:39:15Z</time>
      </trkpt>
      <trkpt lat="57.25663" lon="-5.94">
        <ele>28.14</ele>
        <time>2021-04-06T14:39:21Z</time>
      </trkpt>
      <trkpt lat="57.25791" lon="-5.94118">
        <ele>28.04</ele>
        <time>2021-04-06T14:39:27Z</time>
      </trkpt>
      <trkpt lat="57.25935" lon="-5.94271">
        <ele>32.35</ele>
        <time>2021-04-06T14:39:33Z</time>
      </trkpt>
      <trkpt lat="57.26074" lon="-5.94479">
        <ele>16.2</ele>
        <time>2021-04-06T14:39:39Z</time>
      </trkpt>
      <trkpt lat="57.26231" lon="-5.94771">
        <ele>12.06</ele>
        <time>2021-04-06T14:39:45Z</time>
      </trkpt>
      <trkpt lat="57.26304" lon="-5.95018">
        <ele>11.41</ele>
        <time>2021-04-06T14:39:51Z</time>
      </trkpt>
      <trkpt lat="57.26351" lon="-5.95287">
        <ele>8.24</ele>
        <time>2021-04-06T14:39:57Z</time>
      </trkpt>
      <trkpt lat="57.26361" lon="-5.95331">
        <ele>7.98</ele>
        <time>2021-04-06T14:40:03Z</time>
      </trkpt>
      <trkpt lat="57.26455" lon="-5.95696">
        <ele>10.23</ele>
        <time>2021-04-06T14:40:09Z</time>
      </trkpt>
      <trkpt lat="57.26563" lon="-5.96082">
        <ele>13.67</ele>
        <time>2021-04-06T14:40:15Z</time>
      </trkpt>
      <trkpt lat="57.26825" lon="-5.96893">
        <ele>8.89</ele>
        <time>2021-04-06T14:40:20Z</time>
      </trkpt>
      <trkpt lat="57.26855" lon="-5.9701">
        <ele>8.65</ele>
        <time>2021-04-06T14:40:26Z</time>
      </trkpt>
      <trkpt lat="57.26873" lon="-5.97129">
        <ele>11.43</ele>
        <time>2021-04-06T14:40:32Z</time>
      </trkpt>
      <trkpt lat="57.26884" lon="-5.97276">
        <ele>10.27</ele>
        <time>2021-04-06T14:40:38Z</time>
      </trkpt>
      <trkpt lat="57.26885" lon="-5.9739">
        <ele>12.51</ele>
        <time>2021-04-06T14:40:44Z</time>
      </trkpt>
      <trkpt lat="57.26879" lon="-5.97446">
        <ele>12.3</ele>
        <time>2021-04-06T14:40:50Z</time>
      </trkpt>
      <trkpt lat="57.26864" lon="-5.97511">
        <ele>10.03</ele>
        <time>2021-04-06T14:40:56Z</time>
      </trkpt>
      <trkpt lat="57.26851" lon="-5.97553">
        <ele>8.48</ele>
        <time>2021-04-06T14:41:02Z</time>
      </trkpt>
      <trkpt lat="57.2678" lon="-5.97683">
        <ele>5.28</ele>
        <time>2021-04-06T14:41:08Z</time>
      </trkpt>
      <trkpt lat="57.26759" lon="-5.97726">
        <ele>5.92</ele>
        <time>2021-04-06T14:41:14Z</time>
      </trkpt>
      <trkpt lat="57.2674" lon="-5.9779">
        <ele>7.36</ele>
        <time>2021-04-06T14:41:20Z</time>
      </trkpt>
      <trkpt lat="57.26727" lon="-5.97856">
        <ele>7.53</ele>
        <time>2021-04-06T14:41:26Z</time>
      </trkpt>
      <trkpt lat="57.2672" lon="-5.97935">
        <ele>9.34</ele>
        <time>2021-04-06T14:41:32Z</time>
      </trkpt>
      <trkpt lat="57.26727" lon="-5.98049">
        <ele>11.35</ele>
        <time>2021-04-06T14:41:38Z</time>
      </trkpt>
      <trkpt lat="57.26751" lon="-5.9829">
        <ele>7.35</ele>
        <time>2021-04-06T14:41:44Z</time>
      </trkpt>
      <trkpt lat="57.26769" lon="-5.98407">
        <ele>7.88</ele>
        <time>2021-04-06T14:41:50Z</time>
      </trkpt>
      <trkpt lat="57.26794" lon="-5.98476">
        <ele>7.88</ele>
        <time>2021-04-06T14:41:56Z</time>
      </trkpt>
      <trkpt lat="57.26853" lon="-5.98597">
        <ele>10.79</ele>
        <time>2021-04-06T14:42:02Z</time>
      </trkpt>
      <trkpt lat="57.26957" lon="-5.98801">
        <ele>7.18</ele>
        <time>2021-04-06T14:42:08Z</time>
      </trkpt>
      <trkpt lat="57.26978" lon="-5.98867">
        <ele>7</ele>
        <time>2021-04-06T14:42:14Z</time>
      </trkpt>
      <trkpt lat="57.26994" lon="-5.98931">
        <ele>7.21</ele>
        <time>2021-04-06T14:42:20Z</time>
      </trkpt>
      <trkpt lat="57.27002" lon="-5.98998">
        <ele>7.83</ele>
        <time>2021-04-06T14:42:26Z</time>
      </trkpt>
      <trkpt lat="57.27003" lon="-5.99068">
        <ele>7.2</ele>
        <time>2021-04-06T14:42:32Z</time>
      </trkpt>
      <trkpt lat="57.27" lon="-5.99245">
        <ele>7.04</ele>
        <time>2021-04-06T14:42:37Z</time>
      </trkpt>
      <trkpt lat="57.27" lon="-5.99323">
        <ele>7.06</ele>
        <time>2021-04-06T14:42:43Z</time>
      </trkpt>
      <trkpt lat="57.27006" lon="-5.99385">
        <ele>6.54</ele>
        <time>2021-04-06T14:42:49Z</time>
      </trkpt>
      <trkpt lat="57.27014" lon="-5.99426">
        <ele>6</ele>
        <time>2021-04-06T14:42:55Z</time>
      </trkpt>
      <trkpt lat="57.27039" lon="-5.99502">
        <ele>6.27</ele>
        <time>2021-04-06T14:43:01Z</time>
      </trkpt>
      <trkpt lat="57.27114" lon="-5.99658">
        <ele>8.4</ele>
        <time>2021-04-06T14:43:07Z</time>
      </trkpt>
      <trkpt lat="57.27207" lon="-5.99799">
        <ele>8.21</ele>
        <time>2021-04-06T14:43:13Z</time>
      </trkpt>
      <trkpt lat="57.27296" lon="-5.9996">
        <ele>11.23</ele>
        <time>2021-04-06T14:43:19Z</time>
      </trkpt>
      <trkpt lat="57.27318" lon="-5.99986">
        <ele>10.69</ele>
        <time>2021-04-06T14:43:25Z</time>
      </trkpt>
      <trkpt lat="57.27415" lon="-6.00053">
        <ele>10.93</ele>
        <time>2021-04-06T14:43:31Z</time>
      </trkpt>
      <trkpt lat="57.27451" lon="-6.00089">
        <ele>11.11</ele>
        <time>2021-04-06T14:43:37Z</time>
      </trkpt>
      <trkpt lat="57.27509" lon="-6.00169">
        <ele>13.31</ele>
        <time>2021-04-06T14:43:43Z</time>
      </trkpt>
      <trkpt lat="57.27583" lon="-6.0028">
        <ele>17.4</ele>
        <time>2021-04-06T14:43:49Z</time>
      </trkpt>
      <trkpt lat="57.27619" lon="-6.00339">
        <ele>20.73</ele>
        <time>2021-04-06T14:43:55Z</time>
      </trkpt>
      <trkpt lat="57.2765" lon="-6.00406">
        <ele>20.95</ele>
        <time>2021-04-06T14:44:01Z</time>
      </trkpt>
      <trkpt lat="57.27689" lon="-6.00504">
        <ele>24.05</ele>
        <time>2021-04-06T14:44:07Z</time>
      </trkpt>
      <trkpt lat="57.27731" lon="-6.00589">
        <ele>25.76</ele>
        <time>2021-04-06T14:44:13Z</time>
      </trkpt>
      <trkpt lat="57.27972" lon="-6.00938">
        <ele>20.73</ele>
        <time>2021-04-06T14:44:19Z</time>
      </trkpt>
      <trkpt lat="57.28176" lon="-6.01273">
        <ele>17.99</ele>
        <time>2021-04-06T14:44:25Z</time>
      </trkpt>
      <trkpt lat="57.28347" lon="-6.01462">
        <ele>20.49</ele>
        <time>2021-04-06T14:44:31Z</time>
      </trkpt>
      <trkpt lat="57.28407" lon="-6.01535">
        <ele>22.76</ele>
        <time>2021-04-06T14:44:37Z</time>
      </trkpt>
      <trkpt lat="57.28489" lon="-6.01667">
        <ele>23.89</ele>
        <time>2021-04-06T14:44:43Z</time>
      </trkpt>
      <trkpt lat="57.2859" lon="-6.01876">
        <ele>25.33</ele>
        <time>2021-04-06T14:44:48Z</time>
      </trkpt>
      <trkpt lat="57.28603" lon="-6.01905">
        <ele>25.63</ele>
        <time>2021-04-06T14:44:54Z</time>
      </trkpt>
      <trkpt lat="57.28624" lon="-6.01964">
        <ele>24.37</ele>
        <time>2021-04-06T14:45:00Z</time>
      </trkpt>
      <trkpt lat="57.28634" lon="-6.02008">
        <ele>24.09</ele>
        <time>2021-04-06T14:45:06Z</time>
      </trkpt>
      <trkpt lat="57.28642" lon="-6.02053">
        <ele>24.52</ele>
        <time>2021-04-06T14:45:12Z</time>
      </trkpt>
      <trkpt lat="57.28658" lon="-6.02238">
        <ele>21.85</ele>
        <time>2021-04-06T14:45:18Z</time>
      </trkpt>
      <trkpt lat="57.28658" lon="-6.02238">
        <ele>21.85</ele>
        <time>2021-04-06T14:45:18Z</time>
      </trkpt>
      <trkpt lat="57.2866" lon="-6.02275">
        <ele>21.13</ele>
        <time>2021-04-06T14:45:22Z</time>
      </trkpt>
      <trkpt lat="57.28661" lon="-6.02311">
        <ele>22.05</ele>
        <time>2021-04-06T14:45:26Z</time>
      </trkpt>
      <trkpt lat="57.28659" lon="-6.02349">
        <ele>22.26</ele>
        <time>2021-04-06T14:45:31Z</time>
      </trkpt>
      <trkpt lat="57.28655" lon="-6.02385">
        <ele>22.69</ele>
        <time>2021-04-06T14:45:35Z</time>
      </trkpt>
      <trkpt lat="57.2865" lon="-6.02415">
        <ele>21.92</ele>
        <time>2021-04-06T14:45:39Z</time>
      </trkpt>
      <trkpt lat="57.28632" lon="-6.02478">
        <ele>19.51</ele>
        <time>2021-04-06T14:45:43Z</time>
      </trkpt>
      <trkpt lat="57.28618" lon="-6.02513">
        <ele>18.68</ele>
        <time>2021-04-06T14:45:47Z</time>
      </trkpt>
      <trkpt lat="57.28567" lon="-6.02626">
        <ele>14.07</ele>
        <time>2021-04-06T14:45:51Z</time>
      </trkpt>
      <trkpt lat="57.28525" lon="-6.02755">
        <ele>11.35</ele>
        <time>2021-04-06T14:45:55Z</time>
      </trkpt>
      <trkpt lat="57.28427" lon="-6.03104">
        <ele>14.73</ele>
        <time>2021-04-06T14:45:59Z</time>
      </trkpt>
      <trkpt lat="57.2828" lon="-6.03543">
        <ele>9.04</ele>
        <time>2021-04-06T14:46:03Z</time>
      </trkpt>
      <trkpt lat="57.28233" lon="-6.03641">
        <ele>7.33</ele>
        <time>2021-04-06T14:46:08Z</time>
      </trkpt>
      <trkpt lat="57.28186" lon="-6.03703">
        <ele>6.88</ele>
        <time>2021-04-06T14:46:12Z</time>
      </trkpt>
      <trkpt lat="57.28042" lon="-6.03809">
        <ele>5.22</ele>
        <time>2021-04-06T14:46:16Z</time>
      </trkpt>
      <trkpt lat="57.28007" lon="-6.0385">
        <ele>6.38</ele>
        <time>2021-04-06T14:46:20Z</time>
      </trkpt>
      <trkpt lat="57.27923" lon="-6.03971">
        <ele>7.64</ele>
        <time>2021-04-06T14:46:24Z</time>
      </trkpt>
      <trkpt lat="57.27865" lon="-6.04037">
        <ele>8.41</ele>
        <time>2021-04-06T14:46:28Z</time>
      </trkpt>
      <trkpt lat="57.27786" lon="-6.04105">
        <ele>9.82</ele>
        <time>2021-04-06T14:46:32Z</time>
      </trkpt>
      <trkpt lat="57.27716" lon="-6.04175">
        <ele>7.39</ele>
        <time>2021-04-06T14:46:36Z</time>
      </trkpt>
      <trkpt lat="57.27684" lon="-6.04216">
        <ele>4.76</ele>
        <time>2021-04-06T14:46:40Z</time>
      </trkpt>
      <trkpt lat="57.27669" lon="-6.04193">
        <ele>6.13</ele>
        <time>2021-04-06T14:46:43Z</time>
      </trkpt>
      <trkpt lat="57.27565" lon="-6.04218">
        <ele>5.79</ele>
        <time>2021-04-06T14:46:45Z</time>
      </trkpt>
      <trkpt lat="57.27536" lon="-6.04232">
        <ele>5.66</ele>
        <time>2021-04-06T14:46:47Z</time>
      </trkpt>
      <trkpt lat="57.27511" lon="-6.04264">
        <ele>6.18</ele>
        <time>2021-04-06T14:46:49Z</time>
      </trkpt>
      <trkpt lat="57.275" lon="-6.04283">
        <ele>7.21</ele>
        <time>2021-04-06T14:46:51Z</time>
      </trkpt>
      <trkpt lat="57.27492" lon="-6.04299">
        <ele>8.05</ele>
        <time>2021-04-06T14:46:53Z</time>
      </trkpt>
      <trkpt lat="57.27487" lon="-6.04319">
        <ele>8.46</ele>
        <time>2021-04-06T14:46:55Z</time>
      </trkpt>
      <trkpt lat="57.2749" lon="-6.04343">
        <ele>8.81</ele>
        <time>2021-04-06T14:46:57Z</time>
      </trkpt>
      <trkpt lat="57.27498" lon="-6.04367">
        <ele>9.33</ele>
        <time>2021-04-06T14:47:00Z</time>
      </trkpt>
      <trkpt lat="57.27566" lon="-6.04502">
        <ele>13.06</ele>
        <time>2021-04-06T14:47:02Z</time>
      </trkpt>
      <trkpt lat="57.27595" lon="-6.04569">
        <ele>16.28</ele>
        <time>2021-04-06T14:47:04Z</time>
      </trkpt>
      <trkpt lat="57.27626" lon="-6.04732">
        <ele>22.71</ele>
        <time>2021-04-06T14:47:06Z</time>
      </trkpt>
      <trkpt lat="57.27634" lon="-6.04791">
        <ele>22.34</ele>
        <time>2021-04-06T14:47:08Z</time>
      </trkpt>
      <trkpt lat="57.27638" lon="-6.04848">
        <ele>23.63</ele>
        <time>2021-04-06T14:47:10Z</time>
      </trkpt>
      <trkpt lat="57.27638" lon="-6.04892">
        <ele>25.28</ele>
        <time>2021-04-06T14:47:12Z</time>
      </trkpt>
      <trkpt lat="57.2763" lon="-6.04952">
        <ele>26.73</ele>
        <time>2021-04-06T14:47:14Z</time>
      </trkpt>
      <trkpt lat="57.27609" lon="-6.05059">
        <ele>28.24</ele>
        <time>2021-04-06T14:47:17Z</time>
      </trkpt>
      <trkpt lat="57.27588" lon="-6.05144">
        <ele>28.32</ele>
        <time>2021-04-06T14:47:19Z</time>
      </trkpt>
      <trkpt lat="57.27549" lon="-6.05268">
        <ele>24.58</ele>
        <time>2021-04-06T14:47:21Z</time>
      </trkpt>
      <trkpt lat="57.27547" lon="-6.05279">
        <ele>24.1</ele>
        <time>2021-04-06T14:47:23Z</time>
      </trkpt>
      <trkpt lat="57.27554" lon="-6.05303">
        <ele>20.52</ele>
        <time>2021-04-06T14:47:25Z</time>
      </trkpt>
      <trkpt lat="57.27521" lon="-6.05402">
        <ele>19.91</ele>
        <time>2021-04-06T14:47:31Z</time>
      </trkpt>
      <trkpt lat="57.27484" lon="-6.05495">
        <ele>18.77</ele>
        <time>2021-04-06T14:47:36Z</time>
      </trkpt>
      <trkpt lat="57.27398" lon="-6.05757">
        <ele>22.36</ele>
        <time>2021-04-06T14:47:42Z</time>
      </trkpt>
      <trkpt lat="57.27364" lon="-6.05853">
        <ele>20.35</ele>
        <time>2021-04-06T14:47:47Z</time>
      </trkpt>
      <trkpt lat="57.2732" lon="-6.05957">
        <ele>16.27</ele>
        <time>2021-04-06T14:47:53Z</time>
      </trkpt>
      <trkpt lat="57.27212" lon="-6.06182">
        <ele>7.38</ele>
        <time>2021-04-06T14:47:58Z</time>
      </trkpt>
      <trkpt lat="57.2708" lon="-6.0643">
        <ele>6.41</ele>
        <time>2021-04-06T14:48:04Z</time>
      </trkpt>
      <trkpt lat="57.27035" lon="-6.06494">
        <ele>6.87</ele>
        <time>2021-04-06T14:48:09Z</time>
      </trkpt>
      <trkpt lat="57.26909" lon="-6.06637">
        <ele>6.95</ele>
        <time>2021-04-06T14:48:15Z</time>
      </trkpt>
      <trkpt lat="57.26752" lon="-6.06823">
        <ele>8.57</ele>
        <time>2021-04-06T14:48:20Z</time>
      </trkpt>
      <trkpt lat="57.26709" lon="-6.06899">
        <ele>9.07</ele>
        <time>2021-04-06T14:48:26Z</time>
      </trkpt>
      <trkpt lat="57.26684" lon="-6.06978">
        <ele>5.18</ele>
        <time>2021-04-06T14:48:31Z</time>
      </trkpt>
      <trkpt lat="57.26667" lon="-6.07069">
        <ele>4.01</ele>
        <time>2021-04-06T14:48:37Z</time>
      </trkpt>
      <trkpt lat="57.26625" lon="-6.07398">
        <ele>3.2</ele>
        <time>2021-04-06T14:48:43Z</time>
      </trkpt>
      <trkpt lat="57.26607" lon="-6.07494">
        <ele>2.3</ele>
        <time>2021-04-06T14:48:48Z</time>
      </trkpt>
      <trkpt lat="57.26573" lon="-6.07635">
        <ele>6.86</ele>
        <time>2021-04-06T14:48:54Z</time>
      </trkpt>
      <trkpt lat="57.26537" lon="-6.078">
        <ele>11.71</ele>
        <time>2021-04-06T14:48:59Z</time>
      </trkpt>
      <trkpt lat="57.26501" lon="-6.0794">
        <ele>15.93</ele>
        <time>2021-04-06T14:49:05Z</time>
      </trkpt>
      <trkpt lat="57.26468" lon="-6.08042">
        <ele>17.28</ele>
        <time>2021-04-06T14:49:10Z</time>
      </trkpt>
      <trkpt lat="57.26253" lon="-6.08568">
        <ele>13.78</ele>
        <time>2021-04-06T14:49:16Z</time>
      </trkpt>
      <trkpt lat="57.26221" lon="-6.08703">
        <ele>17.05</ele>
        <time>2021-04-06T14:49:21Z</time>
      </trkpt>
      <trkpt lat="57.2622" lon="-6.08789">
        <ele>17.66</ele>
        <time>2021-04-06T14:49:27Z</time>
      </trkpt>
      <trkpt lat="57.26226" lon="-6.08855">
        <ele>20.33</ele>
        <time>2021-04-06T14:49:32Z</time>
      </trkpt>
      <trkpt lat="57.2624" lon="-6.08918">
        <ele>24.18</ele>
        <time>2021-04-06T14:49:38Z</time>
      </trkpt>
      <trkpt lat="57.2624" lon="-6.08918">
        <ele>24.18</ele>
        <time>2021-04-06T14:49:38Z</time>
      </trkpt>
      <trkpt lat="57.26261" lon="-6.0898">
        <ele>25.22</ele>
        <time>2021-04-06T14:49:42Z</time>
      </trkpt>
      <trkpt lat="57.26289" lon="-6.0903">
        <ele>23.88</ele>
        <time>2021-04-06T14:49:46Z</time>
      </trkpt>
      <trkpt lat="57.26324" lon="-6.09068">
        <ele>21.48</ele>
        <time>2021-04-06T14:49:50Z</time>
      </trkpt>
      <trkpt lat="57.26364" lon="-6.09089">
        <ele>22.53</ele>
        <time>2021-04-06T14:49:55Z</time>
      </trkpt>
      <trkpt lat="57.2641" lon="-6.09105">
        <ele>27.59</ele>
        <time>2021-04-06T14:49:59Z</time>
      </trkpt>
      <trkpt lat="57.26435" lon="-6.09104">
        <ele>30</ele>
        <time>2021-04-06T14:50:03Z</time>
      </trkpt>
      <trkpt lat="57.2647" lon="-6.09095">
        <ele>33.41</ele>
        <time>2021-04-06T14:50:07Z</time>
      </trkpt>
      <trkpt lat="57.2668" lon="-6.09013">
        <ele>48.3</ele>
        <time>2021-04-06T14:50:11Z</time>
      </trkpt>
      <trkpt lat="57.26737" lon="-6.08983">
        <ele>52.69</ele>
        <time>2021-04-06T14:50:16Z</time>
      </trkpt>
      <trkpt lat="57.26805" lon="-6.08929">
        <ele>55.06</ele>
        <time>2021-04-06T14:50:20Z</time>
      </trkpt>
      <trkpt lat="57.26853" lon="-6.08901">
        <ele>57.26</ele>
        <time>2021-04-06T14:50:24Z</time>
      </trkpt>
      <trkpt lat="57.26896" lon="-6.08898">
        <ele>61.74</ele>
        <time>2021-04-06T14:50:28Z</time>
      </trkpt>
      <trkpt lat="57.26926" lon="-6.089">
        <ele>63.89</ele>
        <time>2021-04-06T14:50:32Z</time>
      </trkpt>
      <trkpt lat="57.27177" lon="-6.08971">
        <ele>75.37</ele>
        <time>2021-04-06T14:50:37Z</time>
      </trkpt>
      <trkpt lat="57.27247" lon="-6.09001">
        <ele>80.1</ele>
        <time>2021-04-06T14:50:41Z</time>
      </trkpt>
      <trkpt lat="57.27344" lon="-6.09094">
        <ele>87.19</ele>
        <time>2021-04-06T14:50:45Z</time>
      </trkpt>
      <trkpt lat="57.2738" lon="-6.09145">
        <ele>89.52</ele>
        <time>2021-04-06T14:50:49Z</time>
      </trkpt>
      <trkpt lat="57.27406" lon="-6.09201">
        <ele>92.82</ele>
        <time>2021-04-06T14:50:53Z</time>
      </trkpt>
      <trkpt lat="57.27427" lon="-6.0926">
        <ele>94.42</ele>
        <time>2021-04-06T14:50:58Z</time>
      </trkpt>
      <trkpt lat="57.27435" lon="-6.09321">
        <ele>97.93</ele>
        <time>2021-04-06T14:51:02Z</time>
      </trkpt>
      <trkpt lat="57.27436" lon="-6.09377">
        <ele>99.07</ele>
        <time>2021-04-06T14:51:06Z</time>
      </trkpt>
      <trkpt lat="57.27434" lon="-6.0943">
        <ele>97.6</ele>
        <time>2021-04-06T14:51:10Z</time>
      </trkpt>
      <trkpt lat="57.2741" lon="-6.09546">
        <ele>97.72</ele>
        <time>2021-04-06T14:51:14Z</time>
      </trkpt>
      <trkpt lat="57.27366" lon="-6.0971">
        <ele>108.86</ele>
        <time>2021-04-06T14:51:19Z</time>
      </trkpt>
      <trkpt lat="57.27364" lon="-6.0975">
        <ele>108.42</ele>
        <time>2021-04-06T14:51:23Z</time>
      </trkpt>
      <trkpt lat="57.27365" lon="-6.09804">
        <ele>109.49</ele>
        <time>2021-04-06T14:51:27Z</time>
      </trkpt>
      <trkpt lat="57.27375" lon="-6.09845">
        <ele>109.71</ele>
        <time>2021-04-06T14:51:31Z</time>
      </trkpt>
      <trkpt lat="57.27399" lon="-6.09879">
        <ele>113.5</ele>
        <time>2021-04-06T14:51:35Z</time>
      </trkpt>
      <trkpt lat="57.27434" lon="-6.09894">
        <ele>121.66</ele>
        <time>2021-04-06T14:51:40Z</time>
      </trkpt>
      <trkpt lat="57.27467" lon="-6.0989">
        <ele>126.31</ele>
        <time>2021-04-06T14:51:44Z</time>
      </trkpt>
      <trkpt lat="57.27514" lon="-6.09853">
        <ele>128.4</ele>
        <time>2021-04-06T14:51:48Z</time>
      </trkpt>
      <trkpt lat="57.2757" lon="-6.09796">
        <ele>126.31</ele>
        <time>2021-04-06T14:51:52Z</time>
      </trkpt>
      <trkpt lat="57.27732" lon="-6.09636">
        <ele>126.08</ele>
        <time>2021-04-06T14:51:57Z</time>
      </trkpt>
      <trkpt lat="57.27815" lon="-6.09567">
        <ele>129.77</ele>
        <time>2021-04-06T14:52:01Z</time>
      </trkpt>
      <trkpt lat="57.27892" lon="-6.09514">
        <ele>130.87</ele>
        <time>2021-04-06T14:52:05Z</time>
      </trkpt>
      <trkpt lat="57.27976" lon="-6.09479">
        <ele>128.46</ele>
        <time>2021-04-06T14:52:09Z</time>
      </trkpt>
      <trkpt lat="57.28264" lon="-6.09405">
        <ele>118.39</ele>
        <time>2021-04-06T14:52:13Z</time>
      </trkpt>
      <trkpt lat="57.28365" lon="-6.09385">
        <ele>114.35</ele>
        <time>2021-04-06T14:52:18Z</time>
      </trkpt>
      <trkpt lat="57.28464" lon="-6.09375">
        <ele>111.17</ele>
        <time>2021-04-06T14:52:22Z</time>
      </trkpt>
      <trkpt lat="57.28692" lon="-6.09395">
        <ele>94.41</ele>
        <time>2021-04-06T14:52:26Z</time>
      </trkpt>
      <trkpt lat="57.28734" lon="-6.09389">
        <ele>92.13</ele>
        <time>2021-04-06T14:52:30Z</time>
      </trkpt>
      <trkpt lat="57.28771" lon="-6.09376">
        <ele>90.24</ele>
        <time>2021-04-06T14:52:34Z</time>
      </trkpt>
      <trkpt lat="57.28801" lon="-6.09354">
        <ele>88.63</ele>
        <time>2021-04-06T14:52:39Z</time>
      </trkpt>
      <trkpt lat="57.28932" lon="-6.09192">
        <ele>81.55</ele>
        <time>2021-04-06T14:52:43Z</time>
      </trkpt>
      <trkpt lat="57.29036" lon="-6.09111">
        <ele>75.57</ele>
        <time>2021-04-06T14:52:47Z</time>
      </trkpt>
      <trkpt lat="57.29137" lon="-6.09038">
        <ele>68.26</ele>
        <time>2021-04-06T14:52:51Z</time>
      </trkpt>
      <trkpt lat="57.29208" lon="-6.08968">
        <ele>63.98</ele>
        <time>2021-04-06T14:52:55Z</time>
      </trkpt>
      <trkpt lat="57.29329" lon="-6.08843">
        <ele>59.09</ele>
        <time>2021-04-06T14:53:00Z</time>
      </trkpt>
      <trkpt lat="57.29329" lon="-6.08843">
        <ele>59.09</ele>
        <time>2021-04-06T14:53:00Z</time>
      </trkpt>
      <trkpt lat="57.29347" lon="-6.08825">
        <ele>54.19</ele>
        <time>2021-04-06T14:53:05Z</time>
      </trkpt>
      <trkpt lat="57.29374" lon="-6.08803">
        <ele>52.02</ele>
        <time>2021-04-06T14:53:11Z</time>
      </trkpt>
      <trkpt lat="57.2941" lon="-6.08784">
        <ele>50.6</ele>
        <time>2021-04-06T14:53:16Z</time>
      </trkpt>
      <trkpt lat="57.2946" lon="-6.0877">
        <ele>49.42</ele>
        <time>2021-04-06T14:53:22Z</time>
      </trkpt>
      <trkpt lat="57.29584" lon="-6.08748">
        <ele>45.15</ele>
        <time>2021-04-06T14:53:27Z</time>
      </trkpt>
      <trkpt lat="57.29655" lon="-6.08747">
        <ele>38.74</ele>
        <time>2021-04-06T14:53:33Z</time>
      </trkpt>
      <trkpt lat="57.29712" lon="-6.08761">
        <ele>34.22</ele>
        <time>2021-04-06T14:53:38Z</time>
      </trkpt>
      <trkpt lat="57.29754" lon="-6.08785">
        <ele>32.5</ele>
        <time>2021-04-06T14:53:44Z</time>
      </trkpt>
      <trkpt lat="57.29839" lon="-6.08876">
        <ele>29.8</ele>
        <time>2021-04-06T14:53:49Z</time>
      </trkpt>
      <trkpt lat="57.29881" lon="-6.08913">
        <ele>27.31</ele>
        <time>2021-04-06T14:53:55Z</time>
      </trkpt>
      <trkpt lat="57.29937" lon="-6.08942">
        <ele>26</ele>
        <time>2021-04-06T14:54:00Z</time>
      </trkpt>
      <trkpt lat="57.30383" lon="-6.09061">
        <ele>23.82</ele>
        <time>2021-04-06T14:54:06Z</time>
      </trkpt>
      <trkpt lat="57.30479" lon="-6.09089">
        <ele>24.46</ele>
        <time>2021-04-06T14:54:11Z</time>
      </trkpt>
      <trkpt lat="57.30566" lon="-6.09122">
        <ele>29.6</ele>
        <time>2021-04-06T14:54:17Z</time>
      </trkpt>
      <trkpt lat="57.30645" lon="-6.09163">
        <ele>30.53</ele>
        <time>2021-04-06T14:54:22Z</time>
      </trkpt>
      <trkpt lat="57.30713" lon="-6.09215">
        <ele>30.09</ele>
        <time>2021-04-06T14:54:28Z</time>
      </trkpt>
      <trkpt lat="57.30795" lon="-6.09285">
        <ele>29.75</ele>
        <time>2021-04-06T14:54:33Z</time>
      </trkpt>
      <trkpt lat="57.30874" lon="-6.09381">
        <ele>24.36</ele>
        <time>2021-04-06T14:54:39Z</time>
      </trkpt>
      <trkpt lat="57.30972" lon="-6.0952">
        <ele>23.73</ele>
        <time>2021-04-06T14:54:44Z</time>
      </trkpt>
      <trkpt lat="57.31185" lon="-6.09849">
        <ele>16.27</ele>
        <time>2021-04-06T14:54:50Z</time>
      </trkpt>
      <trkpt lat="57.31325" lon="-6.10047">
        <ele>11.51</ele>
        <time>2021-04-06T14:54:55Z</time>
      </trkpt>
      <trkpt lat="57.31361" lon="-6.10108">
        <ele>10.75</ele>
        <time>2021-04-06T14:55:01Z</time>
      </trkpt>
      <trkpt lat="57.31361" lon="-6.10108">
        <ele>10.75</ele>
        <time>2021-04-06T14:55:01Z</time>
      </trkpt>
      <trkpt lat="57.31388" lon="-6.10174">
        <ele>7.67</ele>
        <time>2021-04-06T14:55:05Z</time>
      </trkpt>
      <trkpt lat="57.31411" lon="-6.10259">
        <ele>7.18</ele>
        <time>2021-04-06T14:55:09Z</time>
      </trkpt>
      <trkpt lat="57.31425" lon="-6.1035">
        <ele>6.7</ele>
        <time>2021-04-06T14:55:14Z</time>
      </trkpt>
      <trkpt lat="57.31428" lon="-6.10437">
        <ele>7.94</ele>
        <time>2021-04-06T14:55:18Z</time>
      </trkpt>
      <trkpt lat="57.31422" lon="-6.10543">
        <ele>7.37</ele>
        <time>2021-04-06T14:55:22Z</time>
      </trkpt>
      <trkpt lat="57.31393" lon="-6.10779">
        <ele>8.26</ele>
        <time>2021-04-06T14:55:27Z</time>
      </trkpt>
      <trkpt lat="57.31374" lon="-6.10903">
        <ele>8.46</ele>
        <time>2021-04-06T14:55:31Z</time>
      </trkpt>
      <trkpt lat="57.31354" lon="-6.10995">
        <ele>8.74</ele>
        <time>2021-04-06T14:55:35Z</time>
      </trkpt>
      <trkpt lat="57.31335" lon="-6.11073">
        <ele>10.14</ele>
        <time>2021-04-06T14:55:39Z</time>
      </trkpt>
      <trkpt lat="57.31319" lon="-6.11172">
        <ele>9.17</ele>
        <time>2021-04-06T14:55:44Z</time>
      </trkpt>
      <trkpt lat="57.31307" lon="-6.11281">
        <ele>4.7</ele>
        <time>2021-04-06T14:55:48Z</time>
      </trkpt>
      <trkpt lat="57.31303" lon="-6.11365">
        <ele>4.2</ele>
        <time>2021-04-06T14:55:52Z</time>
      </trkpt>
      <trkpt lat="57.31303" lon="-6.11446">
        <ele>4.12</ele>
        <time>2021-04-06T14:55:56Z</time>
      </trkpt>
      <trkpt lat="57.3131" lon="-6.11604">
        <ele>6.59</ele>
        <time>2021-04-06T14:56:01Z</time>
      </trkpt>
      <trkpt lat="57.31311" lon="-6.11697">
        <ele>10.65</ele>
        <time>2021-04-06T14:56:05Z</time>
      </trkpt>
      <trkpt lat="57.31308" lon="-6.11766">
        <ele>12.27</ele>
        <time>2021-04-06T14:56:09Z</time>
      </trkpt>
      <trkpt lat="57.31303" lon="-6.11828">
        <ele>13.33</ele>
        <time>2021-04-06T14:56:13Z</time>
      </trkpt>
      <trkpt lat="57.3128" lon="-6.11925">
        <ele>13.68</ele>
        <time>2021-04-06T14:56:18Z</time>
      </trkpt>
      <trkpt lat="57.31247" lon="-6.12021">
        <ele>15.64</ele>
        <time>2021-04-06T14:56:22Z</time>
      </trkpt>
      <trkpt lat="57.31097" lon="-6.12302">
        <ele>24.54</ele>
        <time>2021-04-06T14:56:26Z</time>
      </trkpt>
      <trkpt lat="57.3104" lon="-6.12416">
        <ele>24.09</ele>
        <time>2021-04-06T14:56:30Z</time>
      </trkpt>
      <trkpt lat="57.30906" lon="-6.12734">
        <ele>24.58</ele>
        <time>2021-04-06T14:56:35Z</time>
      </trkpt>
      <trkpt lat="57.30844" lon="-6.12877">
        <ele>25.18</ele>
        <time>2021-04-06T14:56:39Z</time>
      </trkpt>
      <trkpt lat="57.308" lon="-6.12953">
        <ele>26.2</ele>
        <time>2021-04-06T14:56:43Z</time>
      </trkpt>
      <trkpt lat="57.30726" lon="-6.13038">
        <ele>28.24</ele>
        <time>2021-04-06T14:56:47Z</time>
      </trkpt>
      <trkpt lat="57.30663" lon="-6.1313">
        <ele>29.14</ele>
        <time>2021-04-06T14:56:52Z</time>
      </trkpt>
      <trkpt lat="57.30615" lon="-6.13203">
        <ele>27.33</ele>
        <time>2021-04-06T14:56:56Z</time>
      </trkpt>
      <trkpt lat="57.30536" lon="-6.13343">
        <ele>27.6</ele>
        <time>2021-04-06T14:57:00Z</time>
      </trkpt>
      <trkpt lat="57.30504" lon="-6.13404">
        <ele>26.88</ele>
        <time>2021-04-06T14:57:05Z</time>
      </trkpt>
      <trkpt lat="57.30383" lon="-6.13667">
        <ele>27.1</ele>
        <time>2021-04-06T14:57:09Z</time>
      </trkpt>
      <trkpt lat="57.30362" lon="-6.13731">
        <ele>25.53</ele>
        <time>2021-04-06T14:57:13Z</time>
      </trkpt>
      <trkpt lat="57.30348" lon="-6.13791">
        <ele>26.71</ele>
        <time>2021-04-06T14:57:17Z</time>
      </trkpt>
      <trkpt lat="57.30278" lon="-6.1413">
        <ele>33.29</ele>
        <time>2021-04-06T14:57:22Z</time>
      </trkpt>
      <trkpt lat="57.30258" lon="-6.14211">
        <ele>31</ele>
        <time>2021-04-06T14:57:26Z</time>
      </trkpt>
      <trkpt lat="57.30233" lon="-6.14273">
        <ele>29.01</ele>
        <time>2021-04-06T14:57:30Z</time>
      </trkpt>
      <trkpt lat="57.30204" lon="-6.14323">
        <ele>27.37</ele>
        <time>2021-04-06T14:57:34Z</time>
      </trkpt>
      <trkpt lat="57.29973" lon="-6.14668">
        <ele>21.5</ele>
        <time>2021-04-06T14:57:39Z</time>
      </trkpt>
      <trkpt lat="57.29938" lon="-6.1473">
        <ele>23.8</ele>
        <time>2021-04-06T14:57:43Z</time>
      </trkpt>
      <trkpt lat="57.29912" lon="-6.14793">
        <ele>22.25</ele>
        <time>2021-04-06T14:57:47Z</time>
      </trkpt>
      <trkpt lat="57.2988" lon="-6.14891">
        <ele>21.09</ele>
        <time>2021-04-06T14:57:51Z</time>
      </trkpt>
      <trkpt lat="57.29853" lon="-6.15047">
        <ele>18.66</ele>
        <time>2021-04-06T14:57:56Z</time>
      </trkpt>
      <trkpt lat="57.29835" lon="-6.15117">
        <ele>17.86</ele>
        <time>2021-04-06T14:58:00Z</time>
      </trkpt>
      <trkpt lat="57.29685" lon="-6.1555">
        <ele>13.7</ele>
        <time>2021-04-06T14:58:04Z</time>
      </trkpt>
      <trkpt lat="57.29655" lon="-6.15662">
        <ele>12.37</ele>
        <time>2021-04-06T14:58:08Z</time>
      </trkpt>
      <trkpt lat="57.29651" lon="-6.15711">
        <ele>11.48</ele>
        <time>2021-04-06T14:58:13Z</time>
      </trkpt>
      <trkpt lat="57.29645" lon="-6.16062">
        <ele>9.73</ele>
        <time>2021-04-06T14:58:17Z</time>
      </trkpt>
      <trkpt lat="57.29637" lon="-6.16128">
        <ele>9.63</ele>
        <time>2021-04-06T14:58:21Z</time>
      </trkpt>
      <trkpt lat="57.29622" lon="-6.16197">
        <ele>9.28</ele>
        <time>2021-04-06T14:58:25Z</time>
      </trkpt>
      <trkpt lat="57.29596" lon="-6.16265">
        <ele>9.19</ele>
        <time>2021-04-06T14:58:30Z</time>
      </trkpt>
      <trkpt lat="57.2957" lon="-6.16316">
        <ele>8.14</ele>
        <time>2021-04-06T14:58:34Z</time>
      </trkpt>
      <trkpt lat="57.29536" lon="-6.16371">
        <ele>9.48</ele>
        <time>2021-04-06T14:58:38Z</time>
      </trkpt>
      <trkpt lat="57.29469" lon="-6.16466">
        <ele>10.71</ele>
        <time>2021-04-06T14:58:42Z</time>
      </trkpt>
      <trkpt lat="57.29363" lon="-6.16607">
        <ele>11.17</ele>
        <time>2021-04-06T14:58:47Z</time>
      </trkpt>
      <trkpt lat="57.29263" lon="-6.16794">
        <ele>12.35</ele>
        <time>2021-04-06T14:58:51Z</time>
      </trkpt>
      <trkpt lat="57.291" lon="-6.17037">
        <ele>12.85</ele>
        <time>2021-04-06T14:58:55Z</time>
      </trkpt>
      <trkpt lat="57.29081" lon="-6.17068">
        <ele>13.18</ele>
        <time>2021-04-06T14:59:00Z</time>
      </trkpt>
      <trkpt lat="57.29058" lon="-6.17113">
        <ele>11.85</ele>
        <time>2021-04-06T14:59:04Z</time>
      </trkpt>
      <trkpt lat="57.29046" lon="-6.17147">
        <ele>11.59</ele>
        <time>2021-04-06T14:59:08Z</time>
      </trkpt>
      <trkpt lat="57.29037" lon="-6.17181">
        <ele>11.15</ele>
        <time>2021-04-06T14:59:12Z</time>
      </trkpt>
      <trkpt lat="57.2903" lon="-6.17213">
        <ele>10.29</ele>
        <time>2021-04-06T14:59:17Z</time>
      </trkpt>
      <trkpt lat="57.29024" lon="-6.17273">
        <ele>9</ele>
        <time>2021-04-06T14:59:21Z</time>
      </trkpt>
      <trkpt lat="57.29023" lon="-6.17328">
        <ele>9.81</ele>
        <time>2021-04-06T14:59:25Z</time>
      </trkpt>
      <trkpt lat="57.29025" lon="-6.17351">
        <ele>10.14</ele>
        <time>2021-04-06T14:59:29Z</time>
      </trkpt>
      <trkpt lat="57.29025" lon="-6.17351">
        <ele>10.14</ele>
        <time>2021-04-06T14:59:29Z</time>
      </trkpt>
      <trkpt lat="57.29028" lon="-6.1739">
        <ele>11.02</ele>
        <time>2021-04-06T14:59:35Z</time>
      </trkpt>
      <trkpt lat="57.29038" lon="-6.17444">
        <ele>11.62</ele>
        <time>2021-04-06T14:59:41Z</time>
      </trkpt>
      <trkpt lat="57.29054" lon="-6.17493">
        <ele>12.07</ele>
        <time>2021-04-06T14:59:47Z</time>
      </trkpt>
      <trkpt lat="57.29079" lon="-6.17561">
        <ele>12.71</ele>
        <time>2021-04-06T14:59:53Z</time>
      </trkpt>
      <trkpt lat="57.29101" lon="-6.17615">
        <ele>14.93</ele>
        <time>2021-04-06T14:59:59Z</time>
      </trkpt>
      <trkpt lat="57.2914" lon="-6.17697">
        <ele>16.07</ele>
        <time>2021-04-06T15:00:05Z</time>
      </trkpt>
      <trkpt lat="57.29179" lon="-6.1777">
        <ele>18.15</ele>
        <time>2021-04-06T15:00:11Z</time>
      </trkpt>
      <trkpt lat="57.2922" lon="-6.17823">
        <ele>22.47</ele>
        <time>2021-04-06T15:00:17Z</time>
      </trkpt>
      <trkpt lat="57.29255" lon="-6.17851">
        <ele>24.91</ele>
        <time>2021-04-06T15:00:22Z</time>
      </trkpt>
      <trkpt lat="57.29358" lon="-6.17909">
        <ele>31.53</ele>
        <time>2021-04-06T15:00:28Z</time>
      </trkpt>
      <trkpt lat="57.29621" lon="-6.18082">
        <ele>46.88</ele>
        <time>2021-04-06T15:00:34Z</time>
      </trkpt>
      <trkpt lat="57.297" lon="-6.18193">
        <ele>51.67</ele>
        <time>2021-04-06T15:00:40Z</time>
      </trkpt>
      <trkpt lat="57.29733" lon="-6.18222">
        <ele>52.36</ele>
        <time>2021-04-06T15:00:46Z</time>
      </trkpt>
      <trkpt lat="57.29887" lon="-6.18267">
        <ele>64.13</ele>
        <time>2021-04-06T15:00:52Z</time>
      </trkpt>
      <trkpt lat="57.2995" lon="-6.18303">
        <ele>65.94</ele>
        <time>2021-04-06T15:00:58Z</time>
      </trkpt>
      <trkpt lat="57.30031" lon="-6.18391">
        <ele>70.96</ele>
        <time>2021-04-06T15:01:04Z</time>
      </trkpt>
      <trkpt lat="57.30068" lon="-6.18437">
        <ele>70.82</ele>
        <time>2021-04-06T15:01:10Z</time>
      </trkpt>
      <trkpt lat="57.30227" lon="-6.18621">
        <ele>75.62</ele>
        <time>2021-04-06T15:01:16Z</time>
      </trkpt>
      <trkpt lat="57.30268" lon="-6.18661">
        <ele>76.29</ele>
        <time>2021-04-06T15:01:21Z</time>
      </trkpt>
      <trkpt lat="57.3035" lon="-6.18708">
        <ele>78</ele>
        <time>2021-04-06T15:01:27Z</time>
      </trkpt>
      <trkpt lat="57.30565" lon="-6.18786">
        <ele>84.47</ele>
        <time>2021-04-06T15:01:33Z</time>
      </trkpt>
      <trkpt lat="57.30755" lon="-6.18901">
        <ele>91.49</ele>
        <time>2021-04-06T15:01:39Z</time>
      </trkpt>
      <trkpt lat="57.30807" lon="-6.18939">
        <ele>95.35</ele>
        <time>2021-04-06T15:01:45Z</time>
      </trkpt>
      <trkpt lat="57.30857" lon="-6.18987">
        <ele>97.99</ele>
        <time>2021-04-06T15:01:51Z</time>
      </trkpt>
      <trkpt lat="57.30887" lon="-6.19024">
        <ele>99.04</ele>
        <time>2021-04-06T15:01:57Z</time>
      </trkpt>
      <trkpt lat="57.30916" lon="-6.19078">
        <ele>102.95</ele>
        <time>2021-04-06T15:02:03Z</time>
      </trkpt>
      <trkpt lat="57.30983" lon="-6.193">
        <ele>103.82</ele>
        <time>2021-04-06T15:02:09Z</time>
      </trkpt>
      <trkpt lat="57.3101" lon="-6.19344">
        <ele>105</ele>
        <time>2021-04-06T15:02:15Z</time>
      </trkpt>
      <trkpt lat="57.31322" lon="-6.1979">
        <ele>104.71</ele>
        <time>2021-04-06T15:02:20Z</time>
      </trkpt>
      <trkpt lat="57.31367" lon="-6.19846">
        <ele>104.95</ele>
        <time>2021-04-06T15:02:26Z</time>
      </trkpt>
      <trkpt lat="57.3153" lon="-6.20019">
        <ele>109.81</ele>
        <time>2021-04-06T15:02:32Z</time>
      </trkpt>
      <trkpt lat="57.31669" lon="-6.20148">
        <ele>110.86</ele>
        <time>2021-04-06T15:02:38Z</time>
      </trkpt>
      <trkpt lat="57.32073" lon="-6.20509">
        <ele>111.04</ele>
        <time>2021-04-06T15:02:44Z</time>
      </trkpt>
      <trkpt lat="57.32073" lon="-6.20509">
        <ele>111.04</ele>
        <time>2021-04-06T15:02:44Z</time>
      </trkpt>
      <trkpt lat="57.32102" lon="-6.20516">
        <ele>110.44</ele>
        <time>2021-04-06T15:02:48Z</time>
      </trkpt>
      <trkpt lat="57.32315" lon="-6.20488">
        <ele>106</ele>
        <time>2021-04-06T15:02:52Z</time>
      </trkpt>
      <trkpt lat="57.32372" lon="-6.20468">
        <ele>106.04</ele>
        <time>2021-04-06T15:02:56Z</time>
      </trkpt>
      <trkpt lat="57.32663" lon="-6.20323">
        <ele>102.4</ele>
        <time>2021-04-06T15:03:00Z</time>
      </trkpt>
      <trkpt lat="57.32749" lon="-6.20283">
        <ele>105.49</ele>
        <time>2021-04-06T15:03:04Z</time>
      </trkpt>
      <trkpt lat="57.32787" lon="-6.20281">
        <ele>103.33</ele>
        <time>2021-04-06T15:03:08Z</time>
      </trkpt>
      <trkpt lat="57.32866" lon="-6.20297">
        <ele>100.47</ele>
        <time>2021-04-06T15:03:12Z</time>
      </trkpt>
      <trkpt lat="57.32895" lon="-6.20298">
        <ele>99.26</ele>
        <time>2021-04-06T15:03:16Z</time>
      </trkpt>
      <trkpt lat="57.32936" lon="-6.20282">
        <ele>97.49</ele>
        <time>2021-04-06T15:03:20Z</time>
      </trkpt>
      <trkpt lat="57.33107" lon="-6.2014">
        <ele>99.29</ele>
        <time>2021-04-06T15:03:24Z</time>
      </trkpt>
      <trkpt lat="57.33236" lon="-6.20017">
        <ele>101</ele>
        <time>2021-04-06T15:03:28Z</time>
      </trkpt>
      <trkpt lat="57.33359" lon="-6.19888">
        <ele>102.26</ele>
        <time>2021-04-06T15:03:32Z</time>
      </trkpt>
      <trkpt lat="57.33449" lon="-6.19835">
        <ele>104.65</ele>
        <time>2021-04-06T15:03:36Z</time>
      </trkpt>
      <trkpt lat="57.33495" lon="-6.1983">
        <ele>103.85</ele>
        <time>2021-04-06T15:03:40Z</time>
      </trkpt>
      <trkpt lat="57.33523" lon="-6.19829">
        <ele>103.66</ele>
        <time>2021-04-06T15:03:44Z</time>
      </trkpt>
      <trkpt lat="57.33694" lon="-6.19892">
        <ele>100.58</ele>
        <time>2021-04-06T15:03:48Z</time>
      </trkpt>
      <trkpt lat="57.33739" lon="-6.199">
        <ele>97.35</ele>
        <time>2021-04-06T15:03:52Z</time>
      </trkpt>
      <trkpt lat="57.3396" lon="-6.199">
        <ele>93.99</ele>
        <time>2021-04-06T15:03:56Z</time>
      </trkpt>
      <trkpt lat="57.34029" lon="-6.19891">
        <ele>89.66</ele>
        <time>2021-04-06T15:04:00Z</time>
      </trkpt>
      <trkpt lat="57.34075" lon="-6.19872">
        <ele>90.62</ele>
        <time>2021-04-06T15:04:04Z</time>
      </trkpt>
      <trkpt lat="57.3429" lon="-6.19758">
        <ele>82.11</ele>
        <time>2021-04-06T15:04:08Z</time>
      </trkpt>
      <trkpt lat="57.34345" lon="-6.19732">
        <ele>83.47</ele>
        <time>2021-04-06T15:04:12Z</time>
      </trkpt>
      <trkpt lat="57.34366" lon="-6.19727">
        <ele>83.93</ele>
        <time>2021-04-06T15:04:16Z</time>
      </trkpt>
      <trkpt lat="57.34387" lon="-6.19731">
        <ele>83.02</ele>
        <time>2021-04-06T15:04:21Z</time>
      </trkpt>
      <trkpt lat="57.34427" lon="-6.19753">
        <ele>80.13</ele>
        <time>2021-04-06T15:04:25Z</time>
      </trkpt>
      <trkpt lat="57.34466" lon="-6.19766">
        <ele>79.93</ele>
        <time>2021-04-06T15:04:29Z</time>
      </trkpt>
      <trkpt lat="57.34498" lon="-6.19766">
        <ele>80.16</ele>
        <time>2021-04-06T15:04:33Z</time>
      </trkpt>
      <trkpt lat="57.34522" lon="-6.19762">
        <ele>79.27</ele>
        <time>2021-04-06T15:04:37Z</time>
      </trkpt>
      <trkpt lat="57.34613" lon="-6.19726">
        <ele>79.15</ele>
        <time>2021-04-06T15:04:41Z</time>
      </trkpt>
      <trkpt lat="57.34704" lon="-6.19682">
        <ele>76.17</ele>
        <time>2021-04-06T15:04:45Z</time>
      </trkpt>
      <trkpt lat="57.34749" lon="-6.19678">
        <ele>76.43</ele>
        <time>2021-04-06T15:04:49Z</time>
      </trkpt>
      <trkpt lat="57.34909" lon="-6.19685">
        <ele>70.39</ele>
        <time>2021-04-06T15:04:53Z</time>
      </trkpt>
      <trkpt lat="57.34953" lon="-6.19684">
        <ele>69.05</ele>
        <time>2021-04-06T15:04:57Z</time>
      </trkpt>
      <trkpt lat="57.34977" lon="-6.19678">
        <ele>68.47</ele>
        <time>2021-04-06T15:05:01Z</time>
      </trkpt>
      <trkpt lat="57.35012" lon="-6.19654">
        <ele>67.65</ele>
        <time>2021-04-06T15:05:05Z</time>
      </trkpt>
      <trkpt lat="57.35047" lon="-6.19623">
        <ele>66</ele>
        <time>2021-04-06T15:05:09Z</time>
      </trkpt>
      <trkpt lat="57.35074" lon="-6.1961">
        <ele>64.14</ele>
        <time>2021-04-06T15:05:13Z</time>
      </trkpt>
      <trkpt lat="57.35121" lon="-6.19617">
        <ele>59.27</ele>
        <time>2021-04-06T15:05:17Z</time>
      </trkpt>
      <trkpt lat="57.35301" lon="-6.19663">
        <ele>58.99</ele>
        <time>2021-04-06T15:05:21Z</time>
      </trkpt>
      <trkpt lat="57.35351" lon="-6.19684">
        <ele>57.75</ele>
        <time>2021-04-06T15:05:25Z</time>
      </trkpt>
      <trkpt lat="57.35387" lon="-6.19716">
        <ele>58.29</ele>
        <time>2021-04-06T15:05:29Z</time>
      </trkpt>
      <trkpt lat="57.35424" lon="-6.19739">
        <ele>57.23</ele>
        <time>2021-04-06T15:05:33Z</time>
      </trkpt>
      <trkpt lat="57.35442" lon="-6.19743">
        <ele>56.58</ele>
        <time>2021-04-06T15:05:37Z</time>
      </trkpt>
      <trkpt lat="57.35469" lon="-6.19734">
        <ele>56.26</ele>
        <time>2021-04-06T15:05:41Z</time>
      </trkpt>
      <trkpt lat="57.35511" lon="-6.197">
        <ele>57.28</ele>
        <time>2021-04-06T15:05:45Z</time>
      </trkpt>
      <trkpt lat="57.35542" lon="-6.19682">
        <ele>56.64</ele>
        <time>2021-04-06T15:05:49Z</time>
      </trkpt>
      <trkpt lat="57.35586" lon="-6.19677">
        <ele>55.28</ele>
        <time>2021-04-06T15:05:53Z</time>
      </trkpt>
      <trkpt lat="57.35794" lon="-6.19701">
        <ele>52.73</ele>
        <time>2021-04-06T15:05:57Z</time>
      </trkpt>
      <trkpt lat="57.35825" lon="-6.1971">
        <ele>51.7</ele>
        <time>2021-04-06T15:06:01Z</time>
      </trkpt>
      <trkpt lat="57.35898" lon="-6.19753">
        <ele>50.76</ele>
        <time>2021-04-06T15:06:05Z</time>
      </trkpt>
      <trkpt lat="57.35923" lon="-6.19763">
        <ele>49.84</ele>
        <time>2021-04-06T15:06:09Z</time>
      </trkpt>
      <trkpt lat="57.35968" lon="-6.19761">
        <ele>48.35</ele>
        <time>2021-04-06T15:06:13Z</time>
      </trkpt>
      <trkpt lat="57.36042" lon="-6.19744">
        <ele>46.8</ele>
        <time>2021-04-06T15:06:17Z</time>
      </trkpt>
      <trkpt lat="57.36241" lon="-6.1964">
        <ele>44.92</ele>
        <time>2021-04-06T15:06:21Z</time>
      </trkpt>
      <trkpt lat="57.36275" lon="-6.19613">
        <ele>44.24</ele>
        <time>2021-04-06T15:06:25Z</time>
      </trkpt>
      <trkpt lat="57.36334" lon="-6.19539">
        <ele>43.58</ele>
        <time>2021-04-06T15:06:29Z</time>
      </trkpt>
      <trkpt lat="57.36357" lon="-6.1952">
        <ele>43.69</ele>
        <time>2021-04-06T15:06:33Z</time>
      </trkpt>
      <trkpt lat="57.36591" lon="-6.19363">
        <ele>42.65</ele>
        <time>2021-04-06T15:06:37Z</time>
      </trkpt>
      <trkpt lat="57.3663" lon="-6.1934">
        <ele>43.63</ele>
        <time>2021-04-06T15:06:41Z</time>
      </trkpt>
      <trkpt lat="57.36661" lon="-6.19328">
        <ele>45.41</ele>
        <time>2021-04-06T15:06:45Z</time>
      </trkpt>
      <trkpt lat="57.36687" lon="-6.19328">
        <ele>45.78</ele>
        <time>2021-04-06T15:06:49Z</time>
      </trkpt>
      <trkpt lat="57.36712" lon="-6.19333">
        <ele>45.62</ele>
        <time>2021-04-06T15:06:53Z</time>
      </trkpt>
      <trkpt lat="57.36743" lon="-6.19352">
        <ele>44.89</ele>
        <time>2021-04-06T15:06:57Z</time>
      </trkpt>
      <trkpt lat="57.36804" lon="-6.19397">
        <ele>41.08</ele>
        <time>2021-04-06T15:07:01Z</time>
      </trkpt>
      <trkpt lat="57.3682" lon="-6.19403">
        <ele>40.78</ele>
        <time>2021-04-06T15:07:05Z</time>
      </trkpt>
      <trkpt lat="57.36883" lon="-6.19393">
        <ele>41.19</ele>
        <time>2021-04-06T15:07:09Z</time>
      </trkpt>
      <trkpt lat="57.36966" lon="-6.19393">
        <ele>40.28</ele>
        <time>2021-04-06T15:07:13Z</time>
      </trkpt>
      <trkpt lat="57.37183" lon="-6.19425">
        <ele>33.09</ele>
        <time>2021-04-06T15:07:17Z</time>
      </trkpt>
      <trkpt lat="57.37314" lon="-6.19463">
        <ele>28.29</ele>
        <time>2021-04-06T15:07:21Z</time>
      </trkpt>
      <trkpt lat="57.37351" lon="-6.19468">
        <ele>28.51</ele>
        <time>2021-04-06T15:07:25Z</time>
      </trkpt>
      <trkpt lat="57.37408" lon="-6.19464">
        <ele>29.56</ele>
        <time>2021-04-06T15:07:29Z</time>
      </trkpt>
      <trkpt lat="57.37463" lon="-6.19468">
        <ele>29.01</ele>
        <time>2021-04-06T15:07:33Z</time>
      </trkpt>
      <trkpt lat="57.37517" lon="-6.19475">
        <ele>29.32</ele>
        <time>2021-04-06T15:07:37Z</time>
      </trkpt>
      <trkpt lat="57.3759" lon="-6.19465">
        <ele>29.82</ele>
        <time>2021-04-06T15:07:42Z</time>
      </trkpt>
      <trkpt lat="57.37623" lon="-6.19466">
        <ele>28.44</ele>
        <time>2021-04-06T15:07:46Z</time>
      </trkpt>
      <trkpt lat="57.37646" lon="-6.19476">
        <ele>26.39</ele>
        <time>2021-04-06T15:07:50Z</time>
      </trkpt>
      <trkpt lat="57.3767" lon="-6.19503">
        <ele>22.74</ele>
        <time>2021-04-06T15:07:54Z</time>
      </trkpt>
      <trkpt lat="57.37679" lon="-6.19517">
        <ele>21.48</ele>
        <time>2021-04-06T15:07:58Z</time>
      </trkpt>
      <trkpt lat="57.37694" lon="-6.19504">
        <ele>22.57</ele>
        <time>2021-04-06T15:08:01Z</time>
      </trkpt>
      <trkpt lat="57.37781" lon="-6.19498">
        <ele>25.26</ele>
        <time>2021-04-06T15:08:04Z</time>
      </trkpt>
      <trkpt lat="57.37825" lon="-6.19489">
        <ele>26.89</ele>
        <time>2021-04-06T15:08:06Z</time>
      </trkpt>
      <trkpt lat="57.37881" lon="-6.19493">
        <ele>26.73</ele>
        <time>2021-04-06T15:08:09Z</time>
      </trkpt>
      <trkpt lat="57.3795" lon="-6.19506">
        <ele>24.56</ele>
        <time>2021-04-06T15:08:12Z</time>
      </trkpt>
      <trkpt lat="57.38084" lon="-6.19472">
        <ele>26.94</ele>
        <time>2021-04-06T15:08:15Z</time>
      </trkpt>
      <trkpt lat="57.38133" lon="-6.19463">
        <ele>24.32</ele>
        <time>2021-04-06T15:08:18Z</time>
      </trkpt>
      <trkpt lat="57.38167" lon="-6.19463">
        <ele>25.65</ele>
        <time>2021-04-06T15:08:21Z</time>
      </trkpt>
      <trkpt lat="57.38211" lon="-6.19455">
        <ele>26.26</ele>
        <time>2021-04-06T15:08:24Z</time>
      </trkpt>
      <trkpt lat="57.38262" lon="-6.19463">
        <ele>26.53</ele>
        <time>2021-04-06T15:08:27Z</time>
      </trkpt>
      <trkpt lat="57.3832" lon="-6.1948">
        <ele>29.68</ele>
        <time>2021-04-06T15:08:30Z</time>
      </trkpt>
      <trkpt lat="57.38399" lon="-6.19493">
        <ele>32.84</ele>
        <time>2021-04-06T15:08:33Z</time>
      </trkpt>
      <trkpt lat="57.3845" lon="-6.19498">
        <ele>33.09</ele>
        <time>2021-04-06T15:08:36Z</time>
      </trkpt>
      <trkpt lat="57.38526" lon="-6.19498">
        <ele>34.02</ele>
        <time>2021-04-06T15:08:39Z</time>
      </trkpt>
      <trkpt lat="57.38573" lon="-6.19513">
        <ele>32.43</ele>
        <time>2021-04-06T15:08:42Z</time>
      </trkpt>
      <trkpt lat="57.38577" lon="-6.19511">
        <ele>32.46</ele>
        <time>2021-04-06T15:08:45Z</time>
      </trkpt>
      <trkpt lat="57.38588" lon="-6.19483">
        <ele>32.84</ele>
        <time>2021-04-06T15:08:48Z</time>
      </trkpt>
      <trkpt lat="57.38611" lon="-6.19509">
        <ele>31.38</ele>
        <time>2021-04-06T15:08:50Z</time>
      </trkpt>
      <trkpt lat="57.38623" lon="-6.19513">
        <ele>30.64</ele>
        <time>2021-04-06T15:08:52Z</time>
      </trkpt>
      <trkpt lat="57.38649" lon="-6.19516">
        <ele>29.72</ele>
        <time>2021-04-06T15:08:54Z</time>
      </trkpt>
      <trkpt lat="57.38664" lon="-6.19514">
        <ele>29.56</ele>
        <time>2021-04-06T15:08:57Z</time>
      </trkpt>
      <trkpt lat="57.38717" lon="-6.19497">
        <ele>30.33</ele>
        <time>2021-04-06T15:08:59Z</time>
      </trkpt>
      <trkpt lat="57.38726" lon="-6.19501">
        <ele>29.95</ele>
        <time>2021-04-06T15:09:01Z</time>
      </trkpt>
      <trkpt lat="57.3873" lon="-6.19506">
        <ele>29.73</ele>
        <time>2021-04-06T15:09:03Z</time>
      </trkpt>
      <trkpt lat="57.3873" lon="-6.19528">
        <ele>28.72</ele>
        <time>2021-04-06T15:09:06Z</time>
      </trkpt>
      <trkpt lat="57.38717" lon="-6.19695">
        <ele>19.17</ele>
        <time>2021-04-06T15:09:08Z</time>
      </trkpt>
      <trkpt lat="57.38703" lon="-6.20154">
        <ele>5</ele>
        <time>2021-04-06T15:09:10Z</time>
      </trkpt>
      <trkpt lat="57.38696" lon="-6.20286">
        <ele>9.53</ele>
        <time>2021-04-06T15:09:12Z</time>
      </trkpt>
      <trkpt lat="57.38697" lon="-6.20332">
        <ele>11.93</ele>
        <time>2021-04-06T15:09:15Z</time>
      </trkpt>
      <trkpt lat="57.38702" lon="-6.20354">
        <ele>14.99</ele>
        <time>2021-04-06T15:09:17Z</time>
      </trkpt>
      <trkpt lat="57.38717" lon="-6.20371">
        <ele>17.16</ele>
        <time>2021-04-06T15:09:19Z</time>
      </trkpt>
      <trkpt lat="57.3874" lon="-6.2038">
        <ele>17.42</ele>
        <time>2021-04-06T15:09:22Z</time>
      </trkpt>
      <trkpt lat="57.38753" lon="-6.20401">
        <ele>20.57</ele>
        <time>2021-04-06T15:09:24Z</time>
      </trkpt>
      <trkpt lat="57.38772" lon="-6.20405">
        <ele>20.97</ele>
        <time>2021-04-06T15:09:30Z</time>
      </trkpt>
      <trkpt lat="57.38949" lon="-6.2049">
        <ele>23.61</ele>
        <time>2021-04-06T15:09:36Z</time>
      </trkpt>
      <trkpt lat="57.39011" lon="-6.20511">
        <ele>25.89</ele>
        <time>2021-04-06T15:09:41Z</time>
      </trkpt>
      <trkpt lat="57.39058" lon="-6.20522">
        <ele>25.86</ele>
        <time>2021-04-06T15:09:47Z</time>
      </trkpt>
      <trkpt lat="57.39105" lon="-6.2051">
        <ele>25</ele>
        <time>2021-04-06T15:09:53Z</time>
      </trkpt>
      <trkpt lat="57.39209" lon="-6.20472">
        <ele>24.6</ele>
        <time>2021-04-06T15:09:59Z</time>
      </trkpt>
      <trkpt lat="57.39344" lon="-6.20409">
        <ele>27.24</ele>
        <time>2021-04-06T15:10:05Z</time>
      </trkpt>
      <trkpt lat="57.39457" lon="-6.20342">
        <ele>27.67</ele>
        <time>2021-04-06T15:10:11Z</time>
      </trkpt>
      <trkpt lat="57.39703" lon="-6.20223">
        <ele>29.42</ele>
        <time>2021-04-06T15:10:17Z</time>
      </trkpt>
      <trkpt lat="57.39758" lon="-6.20182">
        <ele>27.77</ele>
        <time>2021-04-06T15:10:23Z</time>
      </trkpt>
      <trkpt lat="57.39795" lon="-6.20147">
        <ele>26.19</ele>
        <time>2021-04-06T15:10:28Z</time>
      </trkpt>
      <trkpt lat="57.39831" lon="-6.20106">
        <ele>24.68</ele>
        <time>2021-04-06T15:10:34Z</time>
      </trkpt>
      <trkpt lat="57.39869" lon="-6.20075">
        <ele>24.94</ele>
        <time>2021-04-06T15:10:40Z</time>
      </trkpt>
      <trkpt lat="57.39904" lon="-6.20061">
        <ele>25.68</ele>
        <time>2021-04-06T15:10:46Z</time>
      </trkpt>
      <trkpt lat="57.39934" lon="-6.20055">
        <ele>27.11</ele>
        <time>2021-04-06T15:10:52Z</time>
      </trkpt>
      <trkpt lat="57.39961" lon="-6.20054">
        <ele>28.87</ele>
        <time>2021-04-06T15:10:58Z</time>
      </trkpt>
      <trkpt lat="57.40055" lon="-6.20077">
        <ele>31.37</ele>
        <time>2021-04-06T15:11:04Z</time>
      </trkpt>
      <trkpt lat="57.40091" lon="-6.20077">
        <ele>27.95</ele>
        <time>2021-04-06T15:11:10Z</time>
      </trkpt>
      <trkpt lat="57.40127" lon="-6.20066">
        <ele>24.32</ele>
        <time>2021-04-06T15:11:15Z</time>
      </trkpt>
      <trkpt lat="57.40224" lon="-6.20043">
        <ele>23.21</ele>
        <time>2021-04-06T15:11:21Z</time>
      </trkpt>
      <trkpt lat="57.40277" lon="-6.20038">
        <ele>24.69</ele>
        <time>2021-04-06T15:11:27Z</time>
      </trkpt>
      <trkpt lat="57.40327" lon="-6.2004">
        <ele>26.22</ele>
        <time>2021-04-06T15:11:33Z</time>
      </trkpt>
      <trkpt lat="57.40483" lon="-6.20064">
        <ele>26.2</ele>
        <time>2021-04-06T15:11:39Z</time>
      </trkpt>
      <trkpt lat="57.40523" lon="-6.20077">
        <ele>28.26</ele>
        <time>2021-04-06T15:11:45Z</time>
      </trkpt>
      <trkpt lat="57.40611" lon="-6.20117">
        <ele>29.16</ele>
        <time>2021-04-06T15:11:51Z</time>
      </trkpt>
      <trkpt lat="57.407" lon="-6.20136">
        <ele>26.52</ele>
        <time>2021-04-06T15:11:57Z</time>
      </trkpt>
      <trkpt lat="57.40775" lon="-6.20162">
        <ele>26.53</ele>
        <time>2021-04-06T15:12:02Z</time>
      </trkpt>
      <trkpt lat="57.40853" lon="-6.20194">
        <ele>25.77</ele>
        <time>2021-04-06T15:12:08Z</time>
      </trkpt>
      <trkpt lat="57.40922" lon="-6.20225">
        <ele>22.13</ele>
        <time>2021-04-06T15:12:14Z</time>
      </trkpt>
      <trkpt lat="57.40945" lon="-6.20229">
        <ele>20.73</ele>
        <time>2021-04-06T15:12:20Z</time>
      </trkpt>
      <trkpt lat="57.40964" lon="-6.20226">
        <ele>20.31</ele>
        <time>2021-04-06T15:12:26Z</time>
      </trkpt>
      <trkpt lat="57.40996" lon="-6.20215">
        <ele>19.74</ele>
        <time>2021-04-06T15:12:32Z</time>
      </trkpt>
      <trkpt lat="57.41196" lon="-6.20105">
        <ele>16.92</ele>
        <time>2021-04-06T15:12:38Z</time>
      </trkpt>
      <trkpt lat="57.41266" lon="-6.20103">
        <ele>14.41</ele>
        <time>2021-04-06T15:12:44Z</time>
      </trkpt>
      <trkpt lat="57.41282" lon="-6.20091">
        <ele>13.66</ele>
        <time>2021-04-06T15:12:49Z</time>
      </trkpt>
      <trkpt lat="57.41293" lon="-6.20077">
        <ele>13.08</ele>
        <time>2021-04-06T15:12:55Z</time>
      </trkpt>
      <trkpt lat="57.41304" lon="-6.20057">
        <ele>12</ele>
        <time>2021-04-06T15:13:01Z</time>
      </trkpt>
      <trkpt lat="57.41313" lon="-6.20034">
        <ele>11.41</ele>
        <time>2021-04-06T15:13:07Z</time>
      </trkpt>
      <trkpt lat="57.41324" lon="-6.19984">
        <ele>10.67</ele>
        <time>2021-04-06T15:13:13Z</time>
      </trkpt>
      <trkpt lat="57.41327" lon="-6.19944">
        <ele>11.57</ele>
        <time>2021-04-06T15:13:19Z</time>
      </trkpt>
      <trkpt lat="57.41328" lon="-6.19923">
        <ele>11.63</ele>
        <time>2021-04-06T15:13:25Z</time>
      </trkpt>
      <trkpt lat="57.41327" lon="-6.19872">
        <ele>12.26</ele>
        <time>2021-04-06T15:13:31Z</time>
      </trkpt>
      <trkpt lat="57.41316" lon="-6.19796">
        <ele>12.81</ele>
        <time>2021-04-06T15:13:36Z</time>
      </trkpt>
      <trkpt lat="57.41308" lon="-6.19762">
        <ele>13.39</ele>
        <time>2021-04-06T15:13:42Z</time>
      </trkpt>
      <trkpt lat="57.41281" lon="-6.19667">
        <ele>13.43</ele>
        <time>2021-04-06T15:13:48Z</time>
      </trkpt>
      <trkpt lat="57.4127" lon="-6.19679">
        <ele>11.38</ele>
        <time>2021-04-06T15:13:52Z</time>
      </trkpt>
      <trkpt lat="57.41258" lon="-6.19683">
        <ele>9.49</ele>
        <time>2021-04-06T15:13:56Z</time>
      </trkpt>
      <trkpt lat="57.41247" lon="-6.19677">
        <ele>8.34</ele>
        <time>2021-04-06T15:14:01Z</time>
      </trkpt>
      <trkpt lat="57.41239" lon="-6.19662">
        <ele>7.86</ele>
        <time>2021-04-06T15:14:05Z</time>
      </trkpt>
      <trkpt lat="57.41222" lon="-6.19546">
        <ele>7.9</ele>
        <time>2021-04-06T15:14:09Z</time>
      </trkpt>
    </trkseg>
  </trk>
</gpx>